<?xml version="1.0" encoding="UTF-8" standalone="no" ?>
<gpx xmlns="http://www.topografix.com/GPX/1/1" xmlns:xsi="http://www.w3.org/2001/XMLSchema-instance" xsi:schemaLocation="http://www.topografix.com/GPX/1/1 http://www.topografix.com/GPX/1/1/gpx.xsd" version="1.1" creator="VisuGPX - https://www.visugpx.com">
  <metadata>
    <name>Ermitage de St Ser, Refuge Baudino, Pas du Clapier </name>
    <desc><![CDATA[Jolie rando dans le massif de la Ste Victoire. ]]></desc>
  </metadata>
  <trk>
    <name><![CDATA[Ermitage de St Ser, Refuge Baudino, Pas du Clapier _1]]></name>
    <trkseg>
      <trkpt lat="43.52793" lon="5.64343">
        <ele>412</ele>
        <time>2022-10-19T06:22:39.000Z</time>
      </trkpt>
      <trkpt lat="43.52804" lon="5.64342">
        <ele>411</ele>
        <time>2022-10-19T06:22:40.000Z</time>
      </trkpt>
      <trkpt lat="43.52804" lon="5.64342">
        <ele>411</ele>
        <time>2022-10-19T06:22:41.000Z</time>
      </trkpt>
      <trkpt lat="43.52804" lon="5.64341">
        <ele>410</ele>
        <time>2022-10-19T06:22:42.000Z</time>
      </trkpt>
      <trkpt lat="43.52804" lon="5.64341">
        <ele>410</ele>
        <time>2022-10-19T06:22:43.000Z</time>
      </trkpt>
      <trkpt lat="43.52804" lon="5.64341">
        <ele>409</ele>
        <time>2022-10-19T06:22:44.000Z</time>
      </trkpt>
      <trkpt lat="43.52804" lon="5.64341">
        <ele>409</ele>
        <time>2022-10-19T06:22:45.000Z</time>
      </trkpt>
      <trkpt lat="43.52804" lon="5.64341">
        <ele>408</ele>
        <time>2022-10-19T06:22:46.000Z</time>
      </trkpt>
      <trkpt lat="43.52803" lon="5.64341">
        <ele>408</ele>
        <time>2022-10-19T06:22:47.000Z</time>
      </trkpt>
      <trkpt lat="43.52803" lon="5.64341">
        <ele>407</ele>
        <time>2022-10-19T06:22:48.000Z</time>
      </trkpt>
      <trkpt lat="43.52803" lon="5.64341">
        <ele>407</ele>
        <time>2022-10-19T06:22:49.000Z</time>
      </trkpt>
      <trkpt lat="43.52803" lon="5.64341">
        <ele>406</ele>
        <time>2022-10-19T06:22:50.000Z</time>
      </trkpt>
      <trkpt lat="43.52802" lon="5.64341">
        <ele>405</ele>
        <time>2022-10-19T06:22:51.000Z</time>
      </trkpt>
      <trkpt lat="43.52802" lon="5.6434">
        <ele>405</ele>
        <time>2022-10-19T06:22:52.000Z</time>
      </trkpt>
      <trkpt lat="43.52802" lon="5.6434">
        <ele>405</ele>
        <time>2022-10-19T06:22:53.000Z</time>
      </trkpt>
      <trkpt lat="43.52802" lon="5.6434">
        <ele>405</ele>
        <time>2022-10-19T06:22:54.000Z</time>
      </trkpt>
      <trkpt lat="43.52802" lon="5.6434">
        <ele>404</ele>
        <time>2022-10-19T06:22:55.000Z</time>
      </trkpt>
      <trkpt lat="43.52802" lon="5.6434">
        <ele>404</ele>
        <time>2022-10-19T06:22:56.000Z</time>
      </trkpt>
      <trkpt lat="43.52802" lon="5.6434">
        <ele>404</ele>
        <time>2022-10-19T06:22:57.000Z</time>
      </trkpt>
      <trkpt lat="43.52802" lon="5.6434">
        <ele>403</ele>
        <time>2022-10-19T06:22:58.000Z</time>
      </trkpt>
      <trkpt lat="43.52802" lon="5.6434">
        <ele>403</ele>
        <time>2022-10-19T06:22:59.000Z</time>
      </trkpt>
      <trkpt lat="43.52802" lon="5.6434">
        <ele>403</ele>
        <time>2022-10-19T06:23:00.000Z</time>
      </trkpt>
      <trkpt lat="43.52802" lon="5.6434">
        <ele>402</ele>
        <time>2022-10-19T06:23:01.000Z</time>
      </trkpt>
      <trkpt lat="43.52802" lon="5.6434">
        <ele>402</ele>
        <time>2022-10-19T06:23:02.000Z</time>
      </trkpt>
      <trkpt lat="43.52802" lon="5.6434">
        <ele>402</ele>
        <time>2022-10-19T06:23:03.000Z</time>
      </trkpt>
      <trkpt lat="43.52802" lon="5.64339">
        <ele>402</ele>
        <time>2022-10-19T06:23:04.000Z</time>
      </trkpt>
      <trkpt lat="43.52802" lon="5.64339">
        <ele>402</ele>
        <time>2022-10-19T06:23:05.000Z</time>
      </trkpt>
      <trkpt lat="43.52802" lon="5.64339">
        <ele>401</ele>
        <time>2022-10-19T06:23:06.000Z</time>
      </trkpt>
      <trkpt lat="43.52802" lon="5.64339">
        <ele>401</ele>
        <time>2022-10-19T06:23:07.000Z</time>
      </trkpt>
      <trkpt lat="43.52802" lon="5.64339">
        <ele>401</ele>
        <time>2022-10-19T06:23:08.000Z</time>
      </trkpt>
      <trkpt lat="43.52802" lon="5.64339">
        <ele>401</ele>
        <time>2022-10-19T06:23:09.000Z</time>
      </trkpt>
      <trkpt lat="43.52802" lon="5.64339">
        <ele>401</ele>
        <time>2022-10-19T06:23:10.000Z</time>
      </trkpt>
      <trkpt lat="43.52802" lon="5.64339">
        <ele>401</ele>
        <time>2022-10-19T06:23:11.000Z</time>
      </trkpt>
      <trkpt lat="43.52802" lon="5.64339">
        <ele>400</ele>
        <time>2022-10-19T06:23:12.000Z</time>
      </trkpt>
      <trkpt lat="43.52802" lon="5.64339">
        <ele>400</ele>
        <time>2022-10-19T06:23:13.000Z</time>
      </trkpt>
      <trkpt lat="43.52802" lon="5.64339">
        <ele>400</ele>
        <time>2022-10-19T06:23:14.000Z</time>
      </trkpt>
      <trkpt lat="43.52802" lon="5.64339">
        <ele>400</ele>
        <time>2022-10-19T06:23:15.000Z</time>
      </trkpt>
      <trkpt lat="43.52802" lon="5.64339">
        <ele>400</ele>
        <time>2022-10-19T06:23:16.000Z</time>
      </trkpt>
      <trkpt lat="43.52802" lon="5.64339">
        <ele>400</ele>
        <time>2022-10-19T06:23:17.000Z</time>
      </trkpt>
      <trkpt lat="43.52802" lon="5.64339">
        <ele>400</ele>
        <time>2022-10-19T06:23:18.000Z</time>
      </trkpt>
      <trkpt lat="43.52802" lon="5.64339">
        <ele>400</ele>
        <time>2022-10-19T06:23:19.000Z</time>
      </trkpt>
      <trkpt lat="43.52802" lon="5.64339">
        <ele>400</ele>
        <time>2022-10-19T06:23:20.000Z</time>
      </trkpt>
      <trkpt lat="43.52802" lon="5.64339">
        <ele>400</ele>
        <time>2022-10-19T06:23:21.000Z</time>
      </trkpt>
      <trkpt lat="43.52802" lon="5.64339">
        <ele>400</ele>
        <time>2022-10-19T06:23:22.000Z</time>
      </trkpt>
      <trkpt lat="43.52802" lon="5.64339">
        <ele>400</ele>
        <time>2022-10-19T06:23:23.000Z</time>
      </trkpt>
      <trkpt lat="43.52802" lon="5.64339">
        <ele>400</ele>
        <time>2022-10-19T06:23:24.000Z</time>
      </trkpt>
      <trkpt lat="43.52802" lon="5.64339">
        <ele>401</ele>
        <time>2022-10-19T06:23:25.000Z</time>
      </trkpt>
      <trkpt lat="43.52802" lon="5.64339">
        <ele>401</ele>
        <time>2022-10-19T06:23:26.000Z</time>
      </trkpt>
      <trkpt lat="43.52802" lon="5.64339">
        <ele>401</ele>
        <time>2022-10-19T06:23:27.000Z</time>
      </trkpt>
      <trkpt lat="43.52802" lon="5.64339">
        <ele>401</ele>
        <time>2022-10-19T06:23:28.000Z</time>
      </trkpt>
      <trkpt lat="43.52802" lon="5.64339">
        <ele>401</ele>
        <time>2022-10-19T06:23:29.000Z</time>
      </trkpt>
      <trkpt lat="43.52802" lon="5.64338">
        <ele>401</ele>
        <time>2022-10-19T06:23:30.000Z</time>
      </trkpt>
      <trkpt lat="43.52802" lon="5.64338">
        <ele>401</ele>
        <time>2022-10-19T06:23:31.000Z</time>
      </trkpt>
      <trkpt lat="43.52802" lon="5.64338">
        <ele>401</ele>
        <time>2022-10-19T06:23:32.000Z</time>
      </trkpt>
      <trkpt lat="43.52803" lon="5.64338">
        <ele>401</ele>
        <time>2022-10-19T06:23:33.000Z</time>
      </trkpt>
      <trkpt lat="43.52803" lon="5.64338">
        <ele>401</ele>
        <time>2022-10-19T06:23:34.000Z</time>
      </trkpt>
      <trkpt lat="43.52803" lon="5.64338">
        <ele>401</ele>
        <time>2022-10-19T06:23:35.000Z</time>
      </trkpt>
      <trkpt lat="43.52803" lon="5.64338">
        <ele>401</ele>
        <time>2022-10-19T06:23:36.000Z</time>
      </trkpt>
      <trkpt lat="43.52803" lon="5.64338">
        <ele>401</ele>
        <time>2022-10-19T06:23:37.000Z</time>
      </trkpt>
      <trkpt lat="43.52803" lon="5.64338">
        <ele>401</ele>
        <time>2022-10-19T06:23:38.000Z</time>
      </trkpt>
      <trkpt lat="43.52803" lon="5.64338">
        <ele>401</ele>
        <time>2022-10-19T06:23:39.000Z</time>
      </trkpt>
      <trkpt lat="43.52803" lon="5.64338">
        <ele>401</ele>
        <time>2022-10-19T06:23:40.000Z</time>
      </trkpt>
      <trkpt lat="43.52803" lon="5.64338">
        <ele>401</ele>
        <time>2022-10-19T06:23:41.000Z</time>
      </trkpt>
      <trkpt lat="43.52803" lon="5.64338">
        <ele>402</ele>
        <time>2022-10-19T06:23:42.000Z</time>
      </trkpt>
      <trkpt lat="43.52803" lon="5.64338">
        <ele>402</ele>
        <time>2022-10-19T06:23:43.000Z</time>
      </trkpt>
      <trkpt lat="43.52803" lon="5.64338">
        <ele>402</ele>
        <time>2022-10-19T06:23:44.000Z</time>
      </trkpt>
      <trkpt lat="43.52803" lon="5.64338">
        <ele>402</ele>
        <time>2022-10-19T06:23:45.000Z</time>
      </trkpt>
      <trkpt lat="43.52803" lon="5.64338">
        <ele>402</ele>
        <time>2022-10-19T06:23:46.000Z</time>
      </trkpt>
      <trkpt lat="43.52803" lon="5.64338">
        <ele>402</ele>
        <time>2022-10-19T06:23:47.000Z</time>
      </trkpt>
      <trkpt lat="43.52803" lon="5.64338">
        <ele>402</ele>
        <time>2022-10-19T06:23:48.000Z</time>
      </trkpt>
      <trkpt lat="43.52803" lon="5.64339">
        <ele>402</ele>
        <time>2022-10-19T06:23:49.000Z</time>
      </trkpt>
      <trkpt lat="43.52803" lon="5.64339">
        <ele>402</ele>
        <time>2022-10-19T06:23:50.000Z</time>
      </trkpt>
      <trkpt lat="43.52803" lon="5.64339">
        <ele>402</ele>
        <time>2022-10-19T06:23:51.000Z</time>
      </trkpt>
      <trkpt lat="43.52803" lon="5.64338">
        <ele>403</ele>
        <time>2022-10-19T06:23:52.000Z</time>
      </trkpt>
      <trkpt lat="43.52803" lon="5.64339">
        <ele>403</ele>
        <time>2022-10-19T06:23:53.000Z</time>
      </trkpt>
      <trkpt lat="43.52803" lon="5.64339">
        <ele>403</ele>
        <time>2022-10-19T06:23:54.000Z</time>
      </trkpt>
      <trkpt lat="43.52803" lon="5.64339">
        <ele>403</ele>
        <time>2022-10-19T06:23:55.000Z</time>
      </trkpt>
      <trkpt lat="43.52803" lon="5.64339">
        <ele>403</ele>
        <time>2022-10-19T06:23:56.000Z</time>
      </trkpt>
      <trkpt lat="43.52803" lon="5.64339">
        <ele>403</ele>
        <time>2022-10-19T06:23:57.000Z</time>
      </trkpt>
      <trkpt lat="43.52803" lon="5.64339">
        <ele>403</ele>
        <time>2022-10-19T06:23:58.000Z</time>
      </trkpt>
      <trkpt lat="43.52803" lon="5.64339">
        <ele>403</ele>
        <time>2022-10-19T06:23:59.000Z</time>
      </trkpt>
      <trkpt lat="43.52803" lon="5.64339">
        <ele>403</ele>
        <time>2022-10-19T06:24:00.000Z</time>
      </trkpt>
      <trkpt lat="43.52804" lon="5.64339">
        <ele>403</ele>
        <time>2022-10-19T06:24:01.000Z</time>
      </trkpt>
      <trkpt lat="43.52804" lon="5.64339">
        <ele>403</ele>
        <time>2022-10-19T06:24:02.000Z</time>
      </trkpt>
      <trkpt lat="43.52804" lon="5.64339">
        <ele>403</ele>
        <time>2022-10-19T06:24:03.000Z</time>
      </trkpt>
      <trkpt lat="43.52804" lon="5.64339">
        <ele>403</ele>
        <time>2022-10-19T06:24:04.000Z</time>
      </trkpt>
      <trkpt lat="43.52804" lon="5.64339">
        <ele>403</ele>
        <time>2022-10-19T06:24:05.000Z</time>
      </trkpt>
      <trkpt lat="43.52804" lon="5.64339">
        <ele>403</ele>
        <time>2022-10-19T06:24:06.000Z</time>
      </trkpt>
      <trkpt lat="43.52804" lon="5.64339">
        <ele>403</ele>
        <time>2022-10-19T06:24:07.000Z</time>
      </trkpt>
      <trkpt lat="43.52804" lon="5.64339">
        <ele>403</ele>
        <time>2022-10-19T06:24:08.000Z</time>
      </trkpt>
      <trkpt lat="43.52804" lon="5.6434">
        <ele>403</ele>
        <time>2022-10-19T06:24:09.000Z</time>
      </trkpt>
      <trkpt lat="43.52804" lon="5.6434">
        <ele>403</ele>
        <time>2022-10-19T06:24:10.000Z</time>
      </trkpt>
      <trkpt lat="43.52804" lon="5.6434">
        <ele>403</ele>
        <time>2022-10-19T06:24:11.000Z</time>
      </trkpt>
      <trkpt lat="43.52804" lon="5.6434">
        <ele>403</ele>
        <time>2022-10-19T06:24:12.000Z</time>
      </trkpt>
      <trkpt lat="43.52804" lon="5.6434">
        <ele>403</ele>
        <time>2022-10-19T06:24:13.000Z</time>
      </trkpt>
      <trkpt lat="43.52804" lon="5.6434">
        <ele>403</ele>
        <time>2022-10-19T06:24:14.000Z</time>
      </trkpt>
      <trkpt lat="43.52804" lon="5.6434">
        <ele>403</ele>
        <time>2022-10-19T06:24:15.000Z</time>
      </trkpt>
      <trkpt lat="43.52804" lon="5.6434">
        <ele>403</ele>
        <time>2022-10-19T06:24:16.000Z</time>
      </trkpt>
      <trkpt lat="43.52804" lon="5.6434">
        <ele>403</ele>
        <time>2022-10-19T06:24:17.000Z</time>
      </trkpt>
      <trkpt lat="43.52804" lon="5.6434">
        <ele>403</ele>
        <time>2022-10-19T06:24:18.000Z</time>
      </trkpt>
      <trkpt lat="43.52804" lon="5.6434">
        <ele>403</ele>
        <time>2022-10-19T06:24:19.000Z</time>
      </trkpt>
      <trkpt lat="43.52804" lon="5.6434">
        <ele>403</ele>
        <time>2022-10-19T06:24:20.000Z</time>
      </trkpt>
      <trkpt lat="43.52804" lon="5.6434">
        <ele>403</ele>
        <time>2022-10-19T06:24:21.000Z</time>
      </trkpt>
      <trkpt lat="43.52804" lon="5.6434">
        <ele>403</ele>
        <time>2022-10-19T06:24:22.000Z</time>
      </trkpt>
      <trkpt lat="43.52804" lon="5.6434">
        <ele>403</ele>
        <time>2022-10-19T06:24:23.000Z</time>
      </trkpt>
      <trkpt lat="43.52804" lon="5.64341">
        <ele>403</ele>
        <time>2022-10-19T06:24:24.000Z</time>
      </trkpt>
      <trkpt lat="43.52804" lon="5.64341">
        <ele>403</ele>
        <time>2022-10-19T06:24:25.000Z</time>
      </trkpt>
      <trkpt lat="43.52804" lon="5.64342">
        <ele>404</ele>
        <time>2022-10-19T06:24:26.000Z</time>
      </trkpt>
      <trkpt lat="43.52804" lon="5.64342">
        <ele>404</ele>
        <time>2022-10-19T06:24:27.000Z</time>
      </trkpt>
      <trkpt lat="43.52804" lon="5.64342">
        <ele>404</ele>
        <time>2022-10-19T06:24:28.000Z</time>
      </trkpt>
      <trkpt lat="43.52804" lon="5.64342">
        <ele>403</ele>
        <time>2022-10-19T06:24:29.000Z</time>
      </trkpt>
      <trkpt lat="43.52804" lon="5.64342">
        <ele>404</ele>
        <time>2022-10-19T06:24:30.000Z</time>
      </trkpt>
      <trkpt lat="43.52804" lon="5.64342">
        <ele>404</ele>
        <time>2022-10-19T06:24:31.000Z</time>
      </trkpt>
      <trkpt lat="43.52804" lon="5.64342">
        <ele>404</ele>
        <time>2022-10-19T06:24:32.000Z</time>
      </trkpt>
      <trkpt lat="43.52804" lon="5.64342">
        <ele>404</ele>
        <time>2022-10-19T06:24:33.000Z</time>
      </trkpt>
      <trkpt lat="43.52804" lon="5.64342">
        <ele>403</ele>
        <time>2022-10-19T06:24:34.000Z</time>
      </trkpt>
      <trkpt lat="43.52804" lon="5.64342">
        <ele>404</ele>
        <time>2022-10-19T06:24:35.000Z</time>
      </trkpt>
      <trkpt lat="43.52804" lon="5.64342">
        <ele>404</ele>
        <time>2022-10-19T06:24:36.000Z</time>
      </trkpt>
      <trkpt lat="43.52804" lon="5.64342">
        <ele>404</ele>
        <time>2022-10-19T06:24:37.000Z</time>
      </trkpt>
      <trkpt lat="43.52804" lon="5.64342">
        <ele>404</ele>
        <time>2022-10-19T06:24:38.000Z</time>
      </trkpt>
      <trkpt lat="43.52804" lon="5.64342">
        <ele>404</ele>
        <time>2022-10-19T06:24:39.000Z</time>
      </trkpt>
      <trkpt lat="43.52804" lon="5.64342">
        <ele>404</ele>
        <time>2022-10-19T06:24:40.000Z</time>
      </trkpt>
      <trkpt lat="43.52804" lon="5.64342">
        <ele>404</ele>
        <time>2022-10-19T06:24:41.000Z</time>
      </trkpt>
      <trkpt lat="43.52804" lon="5.64343">
        <ele>404</ele>
        <time>2022-10-19T06:24:42.000Z</time>
      </trkpt>
      <trkpt lat="43.52804" lon="5.64343">
        <ele>404</ele>
        <time>2022-10-19T06:24:43.000Z</time>
      </trkpt>
      <trkpt lat="43.52804" lon="5.64343">
        <ele>404</ele>
        <time>2022-10-19T06:24:44.000Z</time>
      </trkpt>
      <trkpt lat="43.52804" lon="5.64343">
        <ele>404</ele>
        <time>2022-10-19T06:24:45.000Z</time>
      </trkpt>
      <trkpt lat="43.52804" lon="5.64343">
        <ele>404</ele>
        <time>2022-10-19T06:24:46.000Z</time>
      </trkpt>
      <trkpt lat="43.52804" lon="5.64343">
        <ele>404</ele>
        <time>2022-10-19T06:24:47.000Z</time>
      </trkpt>
      <trkpt lat="43.52804" lon="5.64343">
        <ele>404</ele>
        <time>2022-10-19T06:24:48.000Z</time>
      </trkpt>
      <trkpt lat="43.52804" lon="5.64343">
        <ele>404</ele>
        <time>2022-10-19T06:24:49.000Z</time>
      </trkpt>
      <trkpt lat="43.52804" lon="5.64342">
        <ele>403</ele>
        <time>2022-10-19T06:24:50.000Z</time>
      </trkpt>
      <trkpt lat="43.52804" lon="5.64343">
        <ele>403</ele>
        <time>2022-10-19T06:24:51.000Z</time>
      </trkpt>
      <trkpt lat="43.52804" lon="5.64343">
        <ele>403</ele>
        <time>2022-10-19T06:24:52.000Z</time>
      </trkpt>
      <trkpt lat="43.52804" lon="5.64342">
        <ele>403</ele>
        <time>2022-10-19T06:24:53.000Z</time>
      </trkpt>
      <trkpt lat="43.52804" lon="5.64342">
        <ele>403</ele>
        <time>2022-10-19T06:24:54.000Z</time>
      </trkpt>
      <trkpt lat="43.52804" lon="5.64342">
        <ele>403</ele>
        <time>2022-10-19T06:24:55.000Z</time>
      </trkpt>
      <trkpt lat="43.52804" lon="5.64343">
        <ele>403</ele>
        <time>2022-10-19T06:24:56.000Z</time>
      </trkpt>
      <trkpt lat="43.52804" lon="5.64343">
        <ele>403</ele>
        <time>2022-10-19T06:24:57.000Z</time>
      </trkpt>
      <trkpt lat="43.52804" lon="5.64343">
        <ele>403</ele>
        <time>2022-10-19T06:24:58.000Z</time>
      </trkpt>
      <trkpt lat="43.52804" lon="5.64343">
        <ele>403</ele>
        <time>2022-10-19T06:24:59.000Z</time>
      </trkpt>
      <trkpt lat="43.52804" lon="5.64343">
        <ele>403</ele>
        <time>2022-10-19T06:25:00.000Z</time>
      </trkpt>
      <trkpt lat="43.52804" lon="5.64343">
        <ele>403</ele>
        <time>2022-10-19T06:25:01.000Z</time>
      </trkpt>
      <trkpt lat="43.52804" lon="5.64343">
        <ele>403</ele>
        <time>2022-10-19T06:25:02.000Z</time>
      </trkpt>
      <trkpt lat="43.52804" lon="5.64343">
        <ele>403</ele>
        <time>2022-10-19T06:25:03.000Z</time>
      </trkpt>
      <trkpt lat="43.52804" lon="5.64343">
        <ele>403</ele>
        <time>2022-10-19T06:25:04.000Z</time>
      </trkpt>
      <trkpt lat="43.52804" lon="5.64343">
        <ele>403</ele>
        <time>2022-10-19T06:25:05.000Z</time>
      </trkpt>
      <trkpt lat="43.52804" lon="5.64343">
        <ele>403</ele>
        <time>2022-10-19T06:25:06.000Z</time>
      </trkpt>
      <trkpt lat="43.52804" lon="5.64343">
        <ele>403</ele>
        <time>2022-10-19T06:25:07.000Z</time>
      </trkpt>
      <trkpt lat="43.52804" lon="5.64343">
        <ele>403</ele>
        <time>2022-10-19T06:25:08.000Z</time>
      </trkpt>
      <trkpt lat="43.52804" lon="5.64343">
        <ele>403</ele>
        <time>2022-10-19T06:25:09.000Z</time>
      </trkpt>
      <trkpt lat="43.52804" lon="5.64343">
        <ele>403</ele>
        <time>2022-10-19T06:25:10.000Z</time>
      </trkpt>
      <trkpt lat="43.52804" lon="5.64343">
        <ele>403</ele>
        <time>2022-10-19T06:25:11.000Z</time>
      </trkpt>
      <trkpt lat="43.52804" lon="5.64343">
        <ele>403</ele>
        <time>2022-10-19T06:25:12.000Z</time>
      </trkpt>
      <trkpt lat="43.52804" lon="5.64343">
        <ele>403</ele>
        <time>2022-10-19T06:25:13.000Z</time>
      </trkpt>
      <trkpt lat="43.52804" lon="5.64343">
        <ele>403</ele>
        <time>2022-10-19T06:25:14.000Z</time>
      </trkpt>
      <trkpt lat="43.52804" lon="5.64343">
        <ele>403</ele>
        <time>2022-10-19T06:25:15.000Z</time>
      </trkpt>
      <trkpt lat="43.52804" lon="5.64343">
        <ele>403</ele>
        <time>2022-10-19T06:25:16.000Z</time>
      </trkpt>
      <trkpt lat="43.52804" lon="5.64343">
        <ele>403</ele>
        <time>2022-10-19T06:25:17.000Z</time>
      </trkpt>
      <trkpt lat="43.52804" lon="5.64343">
        <ele>403</ele>
        <time>2022-10-19T06:25:18.000Z</time>
      </trkpt>
      <trkpt lat="43.52804" lon="5.64343">
        <ele>403</ele>
        <time>2022-10-19T06:25:19.000Z</time>
      </trkpt>
      <trkpt lat="43.52804" lon="5.64343">
        <ele>403</ele>
        <time>2022-10-19T06:25:20.000Z</time>
      </trkpt>
      <trkpt lat="43.52804" lon="5.64343">
        <ele>403</ele>
        <time>2022-10-19T06:25:21.000Z</time>
      </trkpt>
      <trkpt lat="43.52804" lon="5.64343">
        <ele>403</ele>
        <time>2022-10-19T06:25:22.000Z</time>
      </trkpt>
      <trkpt lat="43.52804" lon="5.64343">
        <ele>403</ele>
        <time>2022-10-19T06:25:23.000Z</time>
      </trkpt>
      <trkpt lat="43.52804" lon="5.64343">
        <ele>403</ele>
        <time>2022-10-19T06:25:24.000Z</time>
      </trkpt>
      <trkpt lat="43.52804" lon="5.64343">
        <ele>403</ele>
        <time>2022-10-19T06:25:25.000Z</time>
      </trkpt>
      <trkpt lat="43.52804" lon="5.64343">
        <ele>403</ele>
        <time>2022-10-19T06:25:26.000Z</time>
      </trkpt>
      <trkpt lat="43.52804" lon="5.64342">
        <ele>403</ele>
        <time>2022-10-19T06:25:27.000Z</time>
      </trkpt>
      <trkpt lat="43.52804" lon="5.64343">
        <ele>403</ele>
        <time>2022-10-19T06:25:28.000Z</time>
      </trkpt>
      <trkpt lat="43.52804" lon="5.64343">
        <ele>403</ele>
        <time>2022-10-19T06:25:29.000Z</time>
      </trkpt>
      <trkpt lat="43.52804" lon="5.64343">
        <ele>403</ele>
        <time>2022-10-19T06:25:30.000Z</time>
      </trkpt>
      <trkpt lat="43.52804" lon="5.64343">
        <ele>403</ele>
        <time>2022-10-19T06:25:31.000Z</time>
      </trkpt>
      <trkpt lat="43.52804" lon="5.64343">
        <ele>403</ele>
        <time>2022-10-19T06:25:32.000Z</time>
      </trkpt>
      <trkpt lat="43.52804" lon="5.64343">
        <ele>403</ele>
        <time>2022-10-19T06:25:33.000Z</time>
      </trkpt>
      <trkpt lat="43.52804" lon="5.64343">
        <ele>403</ele>
        <time>2022-10-19T06:25:34.000Z</time>
      </trkpt>
      <trkpt lat="43.52804" lon="5.64343">
        <ele>403</ele>
        <time>2022-10-19T06:25:35.000Z</time>
      </trkpt>
      <trkpt lat="43.52804" lon="5.64343">
        <ele>403</ele>
        <time>2022-10-19T06:25:36.000Z</time>
      </trkpt>
      <trkpt lat="43.52804" lon="5.64343">
        <ele>403</ele>
        <time>2022-10-19T06:25:37.000Z</time>
      </trkpt>
      <trkpt lat="43.52804" lon="5.64343">
        <ele>403</ele>
        <time>2022-10-19T06:25:38.000Z</time>
      </trkpt>
      <trkpt lat="43.52804" lon="5.64343">
        <ele>403</ele>
        <time>2022-10-19T06:25:39.000Z</time>
      </trkpt>
      <trkpt lat="43.52804" lon="5.64343">
        <ele>403</ele>
        <time>2022-10-19T06:25:40.000Z</time>
      </trkpt>
      <trkpt lat="43.52804" lon="5.64343">
        <ele>403</ele>
        <time>2022-10-19T06:25:41.000Z</time>
      </trkpt>
      <trkpt lat="43.52804" lon="5.64343">
        <ele>403</ele>
        <time>2022-10-19T06:25:42.000Z</time>
      </trkpt>
      <trkpt lat="43.52804" lon="5.64343">
        <ele>403</ele>
        <time>2022-10-19T06:25:43.000Z</time>
      </trkpt>
      <trkpt lat="43.52804" lon="5.64343">
        <ele>403</ele>
        <time>2022-10-19T06:25:44.000Z</time>
      </trkpt>
      <trkpt lat="43.52804" lon="5.64343">
        <ele>403</ele>
        <time>2022-10-19T06:25:45.000Z</time>
      </trkpt>
      <trkpt lat="43.52804" lon="5.64343">
        <ele>403</ele>
        <time>2022-10-19T06:25:46.000Z</time>
      </trkpt>
      <trkpt lat="43.52804" lon="5.64343">
        <ele>403</ele>
        <time>2022-10-19T06:25:47.000Z</time>
      </trkpt>
      <trkpt lat="43.52804" lon="5.64343">
        <ele>403</ele>
        <time>2022-10-19T06:25:48.000Z</time>
      </trkpt>
      <trkpt lat="43.52804" lon="5.64343">
        <ele>403</ele>
        <time>2022-10-19T06:25:49.000Z</time>
      </trkpt>
      <trkpt lat="43.52804" lon="5.64343">
        <ele>403</ele>
        <time>2022-10-19T06:25:50.000Z</time>
      </trkpt>
      <trkpt lat="43.52804" lon="5.64343">
        <ele>403</ele>
        <time>2022-10-19T06:25:51.000Z</time>
      </trkpt>
      <trkpt lat="43.52804" lon="5.64343">
        <ele>403</ele>
        <time>2022-10-19T06:25:52.000Z</time>
      </trkpt>
      <trkpt lat="43.52804" lon="5.64343">
        <ele>403</ele>
        <time>2022-10-19T06:25:53.000Z</time>
      </trkpt>
      <trkpt lat="43.52803" lon="5.64343">
        <ele>403</ele>
        <time>2022-10-19T06:25:54.000Z</time>
      </trkpt>
      <trkpt lat="43.52804" lon="5.64343">
        <ele>403</ele>
        <time>2022-10-19T06:25:55.000Z</time>
      </trkpt>
      <trkpt lat="43.52804" lon="5.64343">
        <ele>403</ele>
        <time>2022-10-19T06:25:56.000Z</time>
      </trkpt>
      <trkpt lat="43.52804" lon="5.64343">
        <ele>403</ele>
        <time>2022-10-19T06:25:57.000Z</time>
      </trkpt>
      <trkpt lat="43.52804" lon="5.64343">
        <ele>403</ele>
        <time>2022-10-19T06:25:58.000Z</time>
      </trkpt>
      <trkpt lat="43.52804" lon="5.64343">
        <ele>403</ele>
        <time>2022-10-19T06:25:59.000Z</time>
      </trkpt>
      <trkpt lat="43.52803" lon="5.64343">
        <ele>403</ele>
        <time>2022-10-19T06:26:00.000Z</time>
      </trkpt>
      <trkpt lat="43.52803" lon="5.64343">
        <ele>403</ele>
        <time>2022-10-19T06:26:01.000Z</time>
      </trkpt>
      <trkpt lat="43.52803" lon="5.64343">
        <ele>403</ele>
        <time>2022-10-19T06:26:02.000Z</time>
      </trkpt>
      <trkpt lat="43.52803" lon="5.64343">
        <ele>403</ele>
        <time>2022-10-19T06:26:03.000Z</time>
      </trkpt>
      <trkpt lat="43.52803" lon="5.64343">
        <ele>403</ele>
        <time>2022-10-19T06:26:04.000Z</time>
      </trkpt>
      <trkpt lat="43.52804" lon="5.64342">
        <ele>403</ele>
        <time>2022-10-19T06:26:05.000Z</time>
      </trkpt>
      <trkpt lat="43.52804" lon="5.64341">
        <ele>403</ele>
        <time>2022-10-19T06:26:06.000Z</time>
      </trkpt>
      <trkpt lat="43.52804" lon="5.64341">
        <ele>403</ele>
        <time>2022-10-19T06:26:07.000Z</time>
      </trkpt>
      <trkpt lat="43.52804" lon="5.64342">
        <ele>403</ele>
        <time>2022-10-19T06:26:08.000Z</time>
      </trkpt>
      <trkpt lat="43.52804" lon="5.64341">
        <ele>403</ele>
        <time>2022-10-19T06:26:09.000Z</time>
      </trkpt>
      <trkpt lat="43.52804" lon="5.64342">
        <ele>403</ele>
        <time>2022-10-19T06:26:10.000Z</time>
      </trkpt>
      <trkpt lat="43.52804" lon="5.64342">
        <ele>403</ele>
        <time>2022-10-19T06:26:11.000Z</time>
      </trkpt>
      <trkpt lat="43.52804" lon="5.64342">
        <ele>404</ele>
        <time>2022-10-19T06:26:12.000Z</time>
      </trkpt>
      <trkpt lat="43.52804" lon="5.64342">
        <ele>404</ele>
        <time>2022-10-19T06:26:13.000Z</time>
      </trkpt>
      <trkpt lat="43.52804" lon="5.64342">
        <ele>404</ele>
        <time>2022-10-19T06:26:14.000Z</time>
      </trkpt>
      <trkpt lat="43.52804" lon="5.64342">
        <ele>404</ele>
        <time>2022-10-19T06:26:15.000Z</time>
      </trkpt>
      <trkpt lat="43.52803" lon="5.64342">
        <ele>404</ele>
        <time>2022-10-19T06:26:16.000Z</time>
      </trkpt>
      <trkpt lat="43.52803" lon="5.64342">
        <ele>404</ele>
        <time>2022-10-19T06:26:17.000Z</time>
      </trkpt>
      <trkpt lat="43.52803" lon="5.64342">
        <ele>404</ele>
        <time>2022-10-19T06:26:18.000Z</time>
      </trkpt>
      <trkpt lat="43.52803" lon="5.64342">
        <ele>404</ele>
        <time>2022-10-19T06:26:19.000Z</time>
      </trkpt>
      <trkpt lat="43.52803" lon="5.64342">
        <ele>404</ele>
        <time>2022-10-19T06:26:20.000Z</time>
      </trkpt>
      <trkpt lat="43.52803" lon="5.64342">
        <ele>404</ele>
        <time>2022-10-19T06:26:21.000Z</time>
      </trkpt>
      <trkpt lat="43.52803" lon="5.64342">
        <ele>404</ele>
        <time>2022-10-19T06:26:22.000Z</time>
      </trkpt>
      <trkpt lat="43.52803" lon="5.64342">
        <ele>404</ele>
        <time>2022-10-19T06:26:23.000Z</time>
      </trkpt>
      <trkpt lat="43.52803" lon="5.64342">
        <ele>404</ele>
        <time>2022-10-19T06:26:24.000Z</time>
      </trkpt>
      <trkpt lat="43.52803" lon="5.64342">
        <ele>405</ele>
        <time>2022-10-19T06:26:25.000Z</time>
      </trkpt>
      <trkpt lat="43.52803" lon="5.64342">
        <ele>405</ele>
        <time>2022-10-19T06:26:26.000Z</time>
      </trkpt>
      <trkpt lat="43.52803" lon="5.64342">
        <ele>405</ele>
        <time>2022-10-19T06:26:27.000Z</time>
      </trkpt>
      <trkpt lat="43.52803" lon="5.64342">
        <ele>405</ele>
        <time>2022-10-19T06:26:28.000Z</time>
      </trkpt>
      <trkpt lat="43.52803" lon="5.64342">
        <ele>405</ele>
        <time>2022-10-19T06:26:29.000Z</time>
      </trkpt>
      <trkpt lat="43.52803" lon="5.64342">
        <ele>405</ele>
        <time>2022-10-19T06:26:30.000Z</time>
      </trkpt>
      <trkpt lat="43.52803" lon="5.64342">
        <ele>405</ele>
        <time>2022-10-19T06:26:31.000Z</time>
      </trkpt>
      <trkpt lat="43.52803" lon="5.64342">
        <ele>405</ele>
        <time>2022-10-19T06:26:32.000Z</time>
      </trkpt>
      <trkpt lat="43.52803" lon="5.64342">
        <ele>405</ele>
        <time>2022-10-19T06:26:33.000Z</time>
      </trkpt>
      <trkpt lat="43.52803" lon="5.64342">
        <ele>405</ele>
        <time>2022-10-19T06:26:34.000Z</time>
      </trkpt>
      <trkpt lat="43.52803" lon="5.64342">
        <ele>405</ele>
        <time>2022-10-19T06:26:35.000Z</time>
      </trkpt>
      <trkpt lat="43.52803" lon="5.64342">
        <ele>405</ele>
        <time>2022-10-19T06:26:36.000Z</time>
      </trkpt>
      <trkpt lat="43.52803" lon="5.64342">
        <ele>405</ele>
        <time>2022-10-19T06:26:37.000Z</time>
      </trkpt>
      <trkpt lat="43.52803" lon="5.64342">
        <ele>405</ele>
        <time>2022-10-19T06:26:38.000Z</time>
      </trkpt>
      <trkpt lat="43.52803" lon="5.64342">
        <ele>405</ele>
        <time>2022-10-19T06:26:39.000Z</time>
      </trkpt>
      <trkpt lat="43.52803" lon="5.64342">
        <ele>405</ele>
        <time>2022-10-19T06:26:40.000Z</time>
      </trkpt>
      <trkpt lat="43.52803" lon="5.64342">
        <ele>405</ele>
        <time>2022-10-19T06:26:41.000Z</time>
      </trkpt>
      <trkpt lat="43.52803" lon="5.64342">
        <ele>405</ele>
        <time>2022-10-19T06:26:42.000Z</time>
      </trkpt>
      <trkpt lat="43.52803" lon="5.64342">
        <ele>405</ele>
        <time>2022-10-19T06:26:43.000Z</time>
      </trkpt>
      <trkpt lat="43.52803" lon="5.64342">
        <ele>405</ele>
        <time>2022-10-19T06:26:44.000Z</time>
      </trkpt>
      <trkpt lat="43.52803" lon="5.64342">
        <ele>405</ele>
        <time>2022-10-19T06:26:45.000Z</time>
      </trkpt>
      <trkpt lat="43.52803" lon="5.64342">
        <ele>405</ele>
        <time>2022-10-19T06:26:46.000Z</time>
      </trkpt>
      <trkpt lat="43.52802" lon="5.64342">
        <ele>405</ele>
        <time>2022-10-19T06:26:47.000Z</time>
      </trkpt>
      <trkpt lat="43.52802" lon="5.64343">
        <ele>405</ele>
        <time>2022-10-19T06:26:48.000Z</time>
      </trkpt>
      <trkpt lat="43.52802" lon="5.64343">
        <ele>405</ele>
        <time>2022-10-19T06:26:49.000Z</time>
      </trkpt>
      <trkpt lat="43.52802" lon="5.64343">
        <ele>405</ele>
        <time>2022-10-19T06:26:50.000Z</time>
      </trkpt>
      <trkpt lat="43.52802" lon="5.64343">
        <ele>405</ele>
        <time>2022-10-19T06:26:51.000Z</time>
      </trkpt>
      <trkpt lat="43.52802" lon="5.64343">
        <ele>405</ele>
        <time>2022-10-19T06:26:52.000Z</time>
      </trkpt>
      <trkpt lat="43.52802" lon="5.64343">
        <ele>405</ele>
        <time>2022-10-19T06:26:53.000Z</time>
      </trkpt>
      <trkpt lat="43.52802" lon="5.64343">
        <ele>405</ele>
        <time>2022-10-19T06:26:54.000Z</time>
      </trkpt>
      <trkpt lat="43.52802" lon="5.64343">
        <ele>405</ele>
        <time>2022-10-19T06:26:55.000Z</time>
      </trkpt>
      <trkpt lat="43.52802" lon="5.64343">
        <ele>405</ele>
        <time>2022-10-19T06:26:56.000Z</time>
      </trkpt>
      <trkpt lat="43.52802" lon="5.64343">
        <ele>405</ele>
        <time>2022-10-19T06:26:57.000Z</time>
      </trkpt>
      <trkpt lat="43.52802" lon="5.64343">
        <ele>405</ele>
        <time>2022-10-19T06:26:58.000Z</time>
      </trkpt>
      <trkpt lat="43.52802" lon="5.64342">
        <ele>405</ele>
        <time>2022-10-19T06:26:59.000Z</time>
      </trkpt>
      <trkpt lat="43.52802" lon="5.64343">
        <ele>404</ele>
        <time>2022-10-19T06:27:00.000Z</time>
      </trkpt>
      <trkpt lat="43.52802" lon="5.64343">
        <ele>404</ele>
        <time>2022-10-19T06:27:01.000Z</time>
      </trkpt>
      <trkpt lat="43.52802" lon="5.64343">
        <ele>404</ele>
        <time>2022-10-19T06:27:02.000Z</time>
      </trkpt>
      <trkpt lat="43.52802" lon="5.64343">
        <ele>404</ele>
        <time>2022-10-19T06:27:03.000Z</time>
      </trkpt>
      <trkpt lat="43.52802" lon="5.64343">
        <ele>404</ele>
        <time>2022-10-19T06:27:04.000Z</time>
      </trkpt>
      <trkpt lat="43.52802" lon="5.64343">
        <ele>404</ele>
        <time>2022-10-19T06:27:05.000Z</time>
      </trkpt>
      <trkpt lat="43.52802" lon="5.64343">
        <ele>404</ele>
        <time>2022-10-19T06:27:06.000Z</time>
      </trkpt>
      <trkpt lat="43.52802" lon="5.64343">
        <ele>404</ele>
        <time>2022-10-19T06:27:07.000Z</time>
      </trkpt>
      <trkpt lat="43.52802" lon="5.64343">
        <ele>404</ele>
        <time>2022-10-19T06:27:08.000Z</time>
      </trkpt>
      <trkpt lat="43.52802" lon="5.64343">
        <ele>404</ele>
        <time>2022-10-19T06:27:09.000Z</time>
      </trkpt>
      <trkpt lat="43.52802" lon="5.64343">
        <ele>404</ele>
        <time>2022-10-19T06:27:10.000Z</time>
      </trkpt>
      <trkpt lat="43.52802" lon="5.64343">
        <ele>404</ele>
        <time>2022-10-19T06:27:11.000Z</time>
      </trkpt>
      <trkpt lat="43.52802" lon="5.64343">
        <ele>404</ele>
        <time>2022-10-19T06:27:12.000Z</time>
      </trkpt>
      <trkpt lat="43.52802" lon="5.64343">
        <ele>404</ele>
        <time>2022-10-19T06:27:13.000Z</time>
      </trkpt>
      <trkpt lat="43.52802" lon="5.64343">
        <ele>404</ele>
        <time>2022-10-19T06:27:14.000Z</time>
      </trkpt>
      <trkpt lat="43.52802" lon="5.64343">
        <ele>404</ele>
        <time>2022-10-19T06:27:15.000Z</time>
      </trkpt>
      <trkpt lat="43.52802" lon="5.64343">
        <ele>404</ele>
        <time>2022-10-19T06:27:16.000Z</time>
      </trkpt>
      <trkpt lat="43.52802" lon="5.64343">
        <ele>404</ele>
        <time>2022-10-19T06:27:17.000Z</time>
      </trkpt>
      <trkpt lat="43.52802" lon="5.64343">
        <ele>404</ele>
        <time>2022-10-19T06:27:18.000Z</time>
      </trkpt>
      <trkpt lat="43.52802" lon="5.64343">
        <ele>404</ele>
        <time>2022-10-19T06:27:19.000Z</time>
      </trkpt>
      <trkpt lat="43.52802" lon="5.64343">
        <ele>404</ele>
        <time>2022-10-19T06:27:20.000Z</time>
      </trkpt>
      <trkpt lat="43.52802" lon="5.64343">
        <ele>404</ele>
        <time>2022-10-19T06:27:21.000Z</time>
      </trkpt>
      <trkpt lat="43.52802" lon="5.64343">
        <ele>404</ele>
        <time>2022-10-19T06:27:22.000Z</time>
      </trkpt>
      <trkpt lat="43.52802" lon="5.64343">
        <ele>404</ele>
        <time>2022-10-19T06:27:23.000Z</time>
      </trkpt>
      <trkpt lat="43.52802" lon="5.64343">
        <ele>404</ele>
        <time>2022-10-19T06:27:24.000Z</time>
      </trkpt>
      <trkpt lat="43.52802" lon="5.64343">
        <ele>404</ele>
        <time>2022-10-19T06:27:25.000Z</time>
      </trkpt>
      <trkpt lat="43.52802" lon="5.64343">
        <ele>404</ele>
        <time>2022-10-19T06:27:26.000Z</time>
      </trkpt>
      <trkpt lat="43.52802" lon="5.64343">
        <ele>404</ele>
        <time>2022-10-19T06:27:27.000Z</time>
      </trkpt>
      <trkpt lat="43.52802" lon="5.64342">
        <ele>404</ele>
        <time>2022-10-19T06:27:28.000Z</time>
      </trkpt>
      <trkpt lat="43.52802" lon="5.64342">
        <ele>404</ele>
        <time>2022-10-19T06:27:29.000Z</time>
      </trkpt>
      <trkpt lat="43.52803" lon="5.64342">
        <ele>404</ele>
        <time>2022-10-19T06:27:30.000Z</time>
      </trkpt>
      <trkpt lat="43.52803" lon="5.64342">
        <ele>404</ele>
        <time>2022-10-19T06:27:31.000Z</time>
      </trkpt>
      <trkpt lat="43.52803" lon="5.64342">
        <ele>404</ele>
        <time>2022-10-19T06:27:32.000Z</time>
      </trkpt>
      <trkpt lat="43.52802" lon="5.64342">
        <ele>404</ele>
        <time>2022-10-19T06:27:33.000Z</time>
      </trkpt>
      <trkpt lat="43.52802" lon="5.64342">
        <ele>404</ele>
        <time>2022-10-19T06:27:34.000Z</time>
      </trkpt>
      <trkpt lat="43.52802" lon="5.64342">
        <ele>404</ele>
        <time>2022-10-19T06:27:35.000Z</time>
      </trkpt>
      <trkpt lat="43.52803" lon="5.64342">
        <ele>404</ele>
        <time>2022-10-19T06:27:36.000Z</time>
      </trkpt>
      <trkpt lat="43.52802" lon="5.64341">
        <ele>404</ele>
        <time>2022-10-19T06:27:37.000Z</time>
      </trkpt>
      <trkpt lat="43.52802" lon="5.64342">
        <ele>404</ele>
        <time>2022-10-19T06:27:38.000Z</time>
      </trkpt>
      <trkpt lat="43.52802" lon="5.64341">
        <ele>404</ele>
        <time>2022-10-19T06:27:39.000Z</time>
      </trkpt>
      <trkpt lat="43.52803" lon="5.64341">
        <ele>404</ele>
        <time>2022-10-19T06:27:40.000Z</time>
      </trkpt>
      <trkpt lat="43.52803" lon="5.64341">
        <ele>404</ele>
        <time>2022-10-19T06:27:41.000Z</time>
      </trkpt>
      <trkpt lat="43.52803" lon="5.64341">
        <ele>404</ele>
        <time>2022-10-19T06:27:42.000Z</time>
      </trkpt>
      <trkpt lat="43.52803" lon="5.64341">
        <ele>404</ele>
        <time>2022-10-19T06:27:43.000Z</time>
      </trkpt>
      <trkpt lat="43.52802" lon="5.64341">
        <ele>404</ele>
        <time>2022-10-19T06:27:44.000Z</time>
      </trkpt>
      <trkpt lat="43.52802" lon="5.6434">
        <ele>404</ele>
        <time>2022-10-19T06:27:45.000Z</time>
      </trkpt>
      <trkpt lat="43.52801" lon="5.64339">
        <ele>404</ele>
        <time>2022-10-19T06:27:46.000Z</time>
      </trkpt>
      <trkpt lat="43.52801" lon="5.64339">
        <ele>404</ele>
        <time>2022-10-19T06:27:47.000Z</time>
      </trkpt>
      <trkpt lat="43.52801" lon="5.64339">
        <ele>404</ele>
        <time>2022-10-19T06:27:48.000Z</time>
      </trkpt>
      <trkpt lat="43.52801" lon="5.64339">
        <ele>404</ele>
        <time>2022-10-19T06:27:49.000Z</time>
      </trkpt>
      <trkpt lat="43.52801" lon="5.64339">
        <ele>404</ele>
        <time>2022-10-19T06:27:50.000Z</time>
      </trkpt>
      <trkpt lat="43.52801" lon="5.64339">
        <ele>404</ele>
        <time>2022-10-19T06:27:51.000Z</time>
      </trkpt>
      <trkpt lat="43.52801" lon="5.64339">
        <ele>404</ele>
        <time>2022-10-19T06:27:52.000Z</time>
      </trkpt>
      <trkpt lat="43.52801" lon="5.64339">
        <ele>404</ele>
        <time>2022-10-19T06:27:53.000Z</time>
      </trkpt>
      <trkpt lat="43.52801" lon="5.64339">
        <ele>404</ele>
        <time>2022-10-19T06:27:54.000Z</time>
      </trkpt>
      <trkpt lat="43.52801" lon="5.64339">
        <ele>404</ele>
        <time>2022-10-19T06:27:55.000Z</time>
      </trkpt>
      <trkpt lat="43.52801" lon="5.64339">
        <ele>404</ele>
        <time>2022-10-19T06:27:56.000Z</time>
      </trkpt>
      <trkpt lat="43.52801" lon="5.64339">
        <ele>404</ele>
        <time>2022-10-19T06:27:57.000Z</time>
      </trkpt>
      <trkpt lat="43.52801" lon="5.64339">
        <ele>404</ele>
        <time>2022-10-19T06:27:58.000Z</time>
      </trkpt>
      <trkpt lat="43.52801" lon="5.64339">
        <ele>404</ele>
        <time>2022-10-19T06:27:59.000Z</time>
      </trkpt>
      <trkpt lat="43.52801" lon="5.64339">
        <ele>404</ele>
        <time>2022-10-19T06:28:00.000Z</time>
      </trkpt>
      <trkpt lat="43.528" lon="5.64339">
        <ele>404</ele>
        <time>2022-10-19T06:28:01.000Z</time>
      </trkpt>
      <trkpt lat="43.528" lon="5.64339">
        <ele>404</ele>
        <time>2022-10-19T06:28:02.000Z</time>
      </trkpt>
      <trkpt lat="43.528" lon="5.64339">
        <ele>404</ele>
        <time>2022-10-19T06:28:03.000Z</time>
      </trkpt>
      <trkpt lat="43.528" lon="5.64339">
        <ele>404</ele>
        <time>2022-10-19T06:28:04.000Z</time>
      </trkpt>
      <trkpt lat="43.528" lon="5.64339">
        <ele>404</ele>
        <time>2022-10-19T06:28:05.000Z</time>
      </trkpt>
      <trkpt lat="43.528" lon="5.64339">
        <ele>404</ele>
        <time>2022-10-19T06:28:06.000Z</time>
      </trkpt>
      <trkpt lat="43.528" lon="5.64339">
        <ele>404</ele>
        <time>2022-10-19T06:28:07.000Z</time>
      </trkpt>
      <trkpt lat="43.528" lon="5.64339">
        <ele>404</ele>
        <time>2022-10-19T06:28:08.000Z</time>
      </trkpt>
      <trkpt lat="43.528" lon="5.64339">
        <ele>404</ele>
        <time>2022-10-19T06:28:09.000Z</time>
      </trkpt>
      <trkpt lat="43.528" lon="5.64339">
        <ele>404</ele>
        <time>2022-10-19T06:28:10.000Z</time>
      </trkpt>
      <trkpt lat="43.528" lon="5.64339">
        <ele>404</ele>
        <time>2022-10-19T06:28:11.000Z</time>
      </trkpt>
      <trkpt lat="43.528" lon="5.64339">
        <ele>404</ele>
        <time>2022-10-19T06:28:12.000Z</time>
      </trkpt>
      <trkpt lat="43.528" lon="5.64339">
        <ele>404</ele>
        <time>2022-10-19T06:28:13.000Z</time>
      </trkpt>
      <trkpt lat="43.528" lon="5.64339">
        <ele>404</ele>
        <time>2022-10-19T06:28:14.000Z</time>
      </trkpt>
      <trkpt lat="43.528" lon="5.64339">
        <ele>404</ele>
        <time>2022-10-19T06:28:15.000Z</time>
      </trkpt>
      <trkpt lat="43.528" lon="5.64339">
        <ele>404</ele>
        <time>2022-10-19T06:28:16.000Z</time>
      </trkpt>
      <trkpt lat="43.528" lon="5.64339">
        <ele>404</ele>
        <time>2022-10-19T06:28:17.000Z</time>
      </trkpt>
      <trkpt lat="43.528" lon="5.64339">
        <ele>404</ele>
        <time>2022-10-19T06:28:18.000Z</time>
      </trkpt>
      <trkpt lat="43.528" lon="5.64339">
        <ele>404</ele>
        <time>2022-10-19T06:28:19.000Z</time>
      </trkpt>
      <trkpt lat="43.528" lon="5.64339">
        <ele>404</ele>
        <time>2022-10-19T06:28:20.000Z</time>
      </trkpt>
      <trkpt lat="43.528" lon="5.64339">
        <ele>404</ele>
        <time>2022-10-19T06:28:21.000Z</time>
      </trkpt>
      <trkpt lat="43.528" lon="5.64339">
        <ele>404</ele>
        <time>2022-10-19T06:28:22.000Z</time>
      </trkpt>
      <trkpt lat="43.528" lon="5.64339">
        <ele>404</ele>
        <time>2022-10-19T06:28:23.000Z</time>
      </trkpt>
      <trkpt lat="43.528" lon="5.64339">
        <ele>404</ele>
        <time>2022-10-19T06:28:24.000Z</time>
      </trkpt>
      <trkpt lat="43.528" lon="5.64339">
        <ele>404</ele>
        <time>2022-10-19T06:28:25.000Z</time>
      </trkpt>
      <trkpt lat="43.528" lon="5.64339">
        <ele>404</ele>
        <time>2022-10-19T06:28:26.000Z</time>
      </trkpt>
      <trkpt lat="43.528" lon="5.64339">
        <ele>404</ele>
        <time>2022-10-19T06:28:27.000Z</time>
      </trkpt>
      <trkpt lat="43.528" lon="5.64339">
        <ele>404</ele>
        <time>2022-10-19T06:28:28.000Z</time>
      </trkpt>
      <trkpt lat="43.528" lon="5.64338">
        <ele>404</ele>
        <time>2022-10-19T06:28:29.000Z</time>
      </trkpt>
      <trkpt lat="43.528" lon="5.64338">
        <ele>404</ele>
        <time>2022-10-19T06:28:30.000Z</time>
      </trkpt>
      <trkpt lat="43.528" lon="5.64338">
        <ele>404</ele>
        <time>2022-10-19T06:28:31.000Z</time>
      </trkpt>
      <trkpt lat="43.528" lon="5.64338">
        <ele>404</ele>
        <time>2022-10-19T06:28:32.000Z</time>
      </trkpt>
      <trkpt lat="43.528" lon="5.64339">
        <ele>404</ele>
        <time>2022-10-19T06:28:33.000Z</time>
      </trkpt>
      <trkpt lat="43.528" lon="5.64339">
        <ele>404</ele>
        <time>2022-10-19T06:28:34.000Z</time>
      </trkpt>
      <trkpt lat="43.528" lon="5.64339">
        <ele>404</ele>
        <time>2022-10-19T06:28:35.000Z</time>
      </trkpt>
      <trkpt lat="43.528" lon="5.64339">
        <ele>404</ele>
        <time>2022-10-19T06:28:36.000Z</time>
      </trkpt>
      <trkpt lat="43.528" lon="5.64339">
        <ele>404</ele>
        <time>2022-10-19T06:28:37.000Z</time>
      </trkpt>
      <trkpt lat="43.528" lon="5.64339">
        <ele>404</ele>
        <time>2022-10-19T06:28:38.000Z</time>
      </trkpt>
      <trkpt lat="43.528" lon="5.64339">
        <ele>404</ele>
        <time>2022-10-19T06:28:39.000Z</time>
      </trkpt>
      <trkpt lat="43.528" lon="5.64339">
        <ele>404</ele>
        <time>2022-10-19T06:28:40.000Z</time>
      </trkpt>
      <trkpt lat="43.528" lon="5.64339">
        <ele>404</ele>
        <time>2022-10-19T06:28:41.000Z</time>
      </trkpt>
      <trkpt lat="43.528" lon="5.64339">
        <ele>403</ele>
        <time>2022-10-19T06:28:42.000Z</time>
      </trkpt>
      <trkpt lat="43.528" lon="5.64339">
        <ele>403</ele>
        <time>2022-10-19T06:28:43.000Z</time>
      </trkpt>
      <trkpt lat="43.528" lon="5.64339">
        <ele>403</ele>
        <time>2022-10-19T06:28:44.000Z</time>
      </trkpt>
      <trkpt lat="43.528" lon="5.64339">
        <ele>403</ele>
        <time>2022-10-19T06:28:45.000Z</time>
      </trkpt>
      <trkpt lat="43.528" lon="5.64339">
        <ele>403</ele>
        <time>2022-10-19T06:28:46.000Z</time>
      </trkpt>
      <trkpt lat="43.52801" lon="5.64339">
        <ele>403</ele>
        <time>2022-10-19T06:28:47.000Z</time>
      </trkpt>
      <trkpt lat="43.52801" lon="5.64339">
        <ele>403</ele>
        <time>2022-10-19T06:28:48.000Z</time>
      </trkpt>
      <trkpt lat="43.52801" lon="5.64339">
        <ele>403</ele>
        <time>2022-10-19T06:28:49.000Z</time>
      </trkpt>
      <trkpt lat="43.52801" lon="5.64339">
        <ele>403</ele>
        <time>2022-10-19T06:28:50.000Z</time>
      </trkpt>
      <trkpt lat="43.52801" lon="5.64339">
        <ele>403</ele>
        <time>2022-10-19T06:28:51.000Z</time>
      </trkpt>
      <trkpt lat="43.52801" lon="5.64339">
        <ele>403</ele>
        <time>2022-10-19T06:28:52.000Z</time>
      </trkpt>
      <trkpt lat="43.52801" lon="5.64339">
        <ele>403</ele>
        <time>2022-10-19T06:28:53.000Z</time>
      </trkpt>
      <trkpt lat="43.52801" lon="5.6434">
        <ele>403</ele>
        <time>2022-10-19T06:28:54.000Z</time>
      </trkpt>
      <trkpt lat="43.52802" lon="5.6434">
        <ele>403</ele>
        <time>2022-10-19T06:28:55.000Z</time>
      </trkpt>
      <trkpt lat="43.52802" lon="5.6434">
        <ele>403</ele>
        <time>2022-10-19T06:28:56.000Z</time>
      </trkpt>
      <trkpt lat="43.52802" lon="5.6434">
        <ele>403</ele>
        <time>2022-10-19T06:28:57.000Z</time>
      </trkpt>
      <trkpt lat="43.52802" lon="5.6434">
        <ele>403</ele>
        <time>2022-10-19T06:28:58.000Z</time>
      </trkpt>
      <trkpt lat="43.52801" lon="5.6434">
        <ele>403</ele>
        <time>2022-10-19T06:28:59.000Z</time>
      </trkpt>
      <trkpt lat="43.52801" lon="5.6434">
        <ele>403</ele>
        <time>2022-10-19T06:29:00.000Z</time>
      </trkpt>
      <trkpt lat="43.52801" lon="5.6434">
        <ele>403</ele>
        <time>2022-10-19T06:29:01.000Z</time>
      </trkpt>
      <trkpt lat="43.52801" lon="5.6434">
        <ele>403</ele>
        <time>2022-10-19T06:29:02.000Z</time>
      </trkpt>
      <trkpt lat="43.52801" lon="5.6434">
        <ele>403</ele>
        <time>2022-10-19T06:29:03.000Z</time>
      </trkpt>
      <trkpt lat="43.52801" lon="5.6434">
        <ele>403</ele>
        <time>2022-10-19T06:29:04.000Z</time>
      </trkpt>
      <trkpt lat="43.52801" lon="5.6434">
        <ele>403</ele>
        <time>2022-10-19T06:29:05.000Z</time>
      </trkpt>
      <trkpt lat="43.52801" lon="5.6434">
        <ele>403</ele>
        <time>2022-10-19T06:29:06.000Z</time>
      </trkpt>
      <trkpt lat="43.52801" lon="5.6434">
        <ele>403</ele>
        <time>2022-10-19T06:29:07.000Z</time>
      </trkpt>
      <trkpt lat="43.52801" lon="5.6434">
        <ele>403</ele>
        <time>2022-10-19T06:29:08.000Z</time>
      </trkpt>
      <trkpt lat="43.52801" lon="5.6434">
        <ele>403</ele>
        <time>2022-10-19T06:29:09.000Z</time>
      </trkpt>
      <trkpt lat="43.52801" lon="5.6434">
        <ele>403</ele>
        <time>2022-10-19T06:29:10.000Z</time>
      </trkpt>
      <trkpt lat="43.52801" lon="5.6434">
        <ele>403</ele>
        <time>2022-10-19T06:29:11.000Z</time>
      </trkpt>
      <trkpt lat="43.52801" lon="5.6434">
        <ele>403</ele>
        <time>2022-10-19T06:29:12.000Z</time>
      </trkpt>
      <trkpt lat="43.52801" lon="5.6434">
        <ele>403</ele>
        <time>2022-10-19T06:29:13.000Z</time>
      </trkpt>
      <trkpt lat="43.52801" lon="5.6434">
        <ele>403</ele>
        <time>2022-10-19T06:29:14.000Z</time>
      </trkpt>
      <trkpt lat="43.52801" lon="5.6434">
        <ele>403</ele>
        <time>2022-10-19T06:29:15.000Z</time>
      </trkpt>
      <trkpt lat="43.52801" lon="5.6434">
        <ele>403</ele>
        <time>2022-10-19T06:29:16.000Z</time>
      </trkpt>
      <trkpt lat="43.52801" lon="5.6434">
        <ele>403</ele>
        <time>2022-10-19T06:29:17.000Z</time>
      </trkpt>
      <trkpt lat="43.52801" lon="5.6434">
        <ele>403</ele>
        <time>2022-10-19T06:29:18.000Z</time>
      </trkpt>
      <trkpt lat="43.52801" lon="5.6434">
        <ele>403</ele>
        <time>2022-10-19T06:29:19.000Z</time>
      </trkpt>
      <trkpt lat="43.52801" lon="5.6434">
        <ele>403</ele>
        <time>2022-10-19T06:29:20.000Z</time>
      </trkpt>
      <trkpt lat="43.52801" lon="5.6434">
        <ele>403</ele>
        <time>2022-10-19T06:29:21.000Z</time>
      </trkpt>
      <trkpt lat="43.52801" lon="5.64341">
        <ele>403</ele>
        <time>2022-10-19T06:29:22.000Z</time>
      </trkpt>
      <trkpt lat="43.52801" lon="5.64341">
        <ele>403</ele>
        <time>2022-10-19T06:29:23.000Z</time>
      </trkpt>
      <trkpt lat="43.52801" lon="5.6434">
        <ele>403</ele>
        <time>2022-10-19T06:29:24.000Z</time>
      </trkpt>
      <trkpt lat="43.52801" lon="5.6434">
        <ele>403</ele>
        <time>2022-10-19T06:29:25.000Z</time>
      </trkpt>
      <trkpt lat="43.52801" lon="5.6434">
        <ele>403</ele>
        <time>2022-10-19T06:29:26.000Z</time>
      </trkpt>
      <trkpt lat="43.52801" lon="5.6434">
        <ele>403</ele>
        <time>2022-10-19T06:29:27.000Z</time>
      </trkpt>
      <trkpt lat="43.52801" lon="5.6434">
        <ele>403</ele>
        <time>2022-10-19T06:29:28.000Z</time>
      </trkpt>
      <trkpt lat="43.52801" lon="5.6434">
        <ele>403</ele>
        <time>2022-10-19T06:29:29.000Z</time>
      </trkpt>
      <trkpt lat="43.52801" lon="5.6434">
        <ele>403</ele>
        <time>2022-10-19T06:29:30.000Z</time>
      </trkpt>
      <trkpt lat="43.52801" lon="5.6434">
        <ele>403</ele>
        <time>2022-10-19T06:29:31.000Z</time>
      </trkpt>
      <trkpt lat="43.52801" lon="5.6434">
        <ele>403</ele>
        <time>2022-10-19T06:29:32.000Z</time>
      </trkpt>
      <trkpt lat="43.52801" lon="5.6434">
        <ele>403</ele>
        <time>2022-10-19T06:29:33.000Z</time>
      </trkpt>
      <trkpt lat="43.52801" lon="5.6434">
        <ele>403</ele>
        <time>2022-10-19T06:29:34.000Z</time>
      </trkpt>
      <trkpt lat="43.52801" lon="5.6434">
        <ele>403</ele>
        <time>2022-10-19T06:29:35.000Z</time>
      </trkpt>
      <trkpt lat="43.52801" lon="5.6434">
        <ele>403</ele>
        <time>2022-10-19T06:29:36.000Z</time>
      </trkpt>
      <trkpt lat="43.52801" lon="5.6434">
        <ele>403</ele>
        <time>2022-10-19T06:29:37.000Z</time>
      </trkpt>
      <trkpt lat="43.52801" lon="5.6434">
        <ele>403</ele>
        <time>2022-10-19T06:29:38.000Z</time>
      </trkpt>
      <trkpt lat="43.52801" lon="5.6434">
        <ele>403</ele>
        <time>2022-10-19T06:29:39.000Z</time>
      </trkpt>
      <trkpt lat="43.52801" lon="5.64339">
        <ele>403</ele>
        <time>2022-10-19T06:29:40.000Z</time>
      </trkpt>
      <trkpt lat="43.52801" lon="5.64339">
        <ele>403</ele>
        <time>2022-10-19T06:29:41.000Z</time>
      </trkpt>
      <trkpt lat="43.52801" lon="5.64339">
        <ele>403</ele>
        <time>2022-10-19T06:29:42.000Z</time>
      </trkpt>
      <trkpt lat="43.52801" lon="5.64339">
        <ele>403</ele>
        <time>2022-10-19T06:29:43.000Z</time>
      </trkpt>
      <trkpt lat="43.52801" lon="5.64339">
        <ele>403</ele>
        <time>2022-10-19T06:29:44.000Z</time>
      </trkpt>
      <trkpt lat="43.52801" lon="5.6434">
        <ele>404</ele>
        <time>2022-10-19T06:29:45.000Z</time>
      </trkpt>
      <trkpt lat="43.52801" lon="5.6434">
        <ele>404</ele>
        <time>2022-10-19T06:29:46.000Z</time>
      </trkpt>
      <trkpt lat="43.52801" lon="5.64339">
        <ele>404</ele>
        <time>2022-10-19T06:29:47.000Z</time>
      </trkpt>
      <trkpt lat="43.52801" lon="5.64339">
        <ele>404</ele>
        <time>2022-10-19T06:29:48.000Z</time>
      </trkpt>
      <trkpt lat="43.52801" lon="5.6434">
        <ele>404</ele>
        <time>2022-10-19T06:29:49.000Z</time>
      </trkpt>
      <trkpt lat="43.52801" lon="5.6434">
        <ele>404</ele>
        <time>2022-10-19T06:29:50.000Z</time>
      </trkpt>
      <trkpt lat="43.52801" lon="5.6434">
        <ele>404</ele>
        <time>2022-10-19T06:29:51.000Z</time>
      </trkpt>
      <trkpt lat="43.52801" lon="5.6434">
        <ele>404</ele>
        <time>2022-10-19T06:29:52.000Z</time>
      </trkpt>
      <trkpt lat="43.52801" lon="5.6434">
        <ele>404</ele>
        <time>2022-10-19T06:29:53.000Z</time>
      </trkpt>
      <trkpt lat="43.52801" lon="5.6434">
        <ele>404</ele>
        <time>2022-10-19T06:29:54.000Z</time>
      </trkpt>
      <trkpt lat="43.52801" lon="5.6434">
        <ele>404</ele>
        <time>2022-10-19T06:29:55.000Z</time>
      </trkpt>
      <trkpt lat="43.52801" lon="5.6434">
        <ele>404</ele>
        <time>2022-10-19T06:29:56.000Z</time>
      </trkpt>
      <trkpt lat="43.52801" lon="5.6434">
        <ele>404</ele>
        <time>2022-10-19T06:29:57.000Z</time>
      </trkpt>
      <trkpt lat="43.52801" lon="5.6434">
        <ele>404</ele>
        <time>2022-10-19T06:29:58.000Z</time>
      </trkpt>
      <trkpt lat="43.52801" lon="5.64341">
        <ele>404</ele>
        <time>2022-10-19T06:29:59.000Z</time>
      </trkpt>
      <trkpt lat="43.52801" lon="5.64341">
        <ele>404</ele>
        <time>2022-10-19T06:30:00.000Z</time>
      </trkpt>
      <trkpt lat="43.52802" lon="5.64341">
        <ele>404</ele>
        <time>2022-10-19T06:30:01.000Z</time>
      </trkpt>
      <trkpt lat="43.52802" lon="5.64341">
        <ele>404</ele>
        <time>2022-10-19T06:30:02.000Z</time>
      </trkpt>
      <trkpt lat="43.52802" lon="5.64342">
        <ele>404</ele>
        <time>2022-10-19T06:30:03.000Z</time>
      </trkpt>
      <trkpt lat="43.52802" lon="5.64342">
        <ele>404</ele>
        <time>2022-10-19T06:30:04.000Z</time>
      </trkpt>
      <trkpt lat="43.52802" lon="5.64342">
        <ele>404</ele>
        <time>2022-10-19T06:30:05.000Z</time>
      </trkpt>
      <trkpt lat="43.52802" lon="5.64342">
        <ele>404</ele>
        <time>2022-10-19T06:30:06.000Z</time>
      </trkpt>
      <trkpt lat="43.52802" lon="5.64342">
        <ele>404</ele>
        <time>2022-10-19T06:30:07.000Z</time>
      </trkpt>
      <trkpt lat="43.52802" lon="5.64342">
        <ele>404</ele>
        <time>2022-10-19T06:30:08.000Z</time>
      </trkpt>
      <trkpt lat="43.52802" lon="5.64341">
        <ele>404</ele>
        <time>2022-10-19T06:30:09.000Z</time>
      </trkpt>
      <trkpt lat="43.52802" lon="5.64341">
        <ele>404</ele>
        <time>2022-10-19T06:30:10.000Z</time>
      </trkpt>
      <trkpt lat="43.52801" lon="5.64342">
        <ele>404</ele>
        <time>2022-10-19T06:30:11.000Z</time>
      </trkpt>
      <trkpt lat="43.52801" lon="5.64341">
        <ele>404</ele>
        <time>2022-10-19T06:30:12.000Z</time>
      </trkpt>
      <trkpt lat="43.528" lon="5.64341">
        <ele>404</ele>
        <time>2022-10-19T06:30:13.000Z</time>
      </trkpt>
      <trkpt lat="43.528" lon="5.6434">
        <ele>404</ele>
        <time>2022-10-19T06:30:14.000Z</time>
      </trkpt>
      <trkpt lat="43.528" lon="5.6434">
        <ele>404</ele>
        <time>2022-10-19T06:30:15.000Z</time>
      </trkpt>
      <trkpt lat="43.528" lon="5.6434">
        <ele>404</ele>
        <time>2022-10-19T06:30:16.000Z</time>
      </trkpt>
      <trkpt lat="43.528" lon="5.6434">
        <ele>404</ele>
        <time>2022-10-19T06:30:17.000Z</time>
      </trkpt>
      <trkpt lat="43.528" lon="5.6434">
        <ele>404</ele>
        <time>2022-10-19T06:30:18.000Z</time>
      </trkpt>
      <trkpt lat="43.528" lon="5.64341">
        <ele>404</ele>
        <time>2022-10-19T06:30:19.000Z</time>
      </trkpt>
      <trkpt lat="43.528" lon="5.64341">
        <ele>404</ele>
        <time>2022-10-19T06:30:20.000Z</time>
      </trkpt>
      <trkpt lat="43.528" lon="5.64342">
        <ele>404</ele>
        <time>2022-10-19T06:30:21.000Z</time>
      </trkpt>
      <trkpt lat="43.528" lon="5.64342">
        <ele>404</ele>
        <time>2022-10-19T06:30:22.000Z</time>
      </trkpt>
      <trkpt lat="43.528" lon="5.64342">
        <ele>404</ele>
        <time>2022-10-19T06:30:23.000Z</time>
      </trkpt>
      <trkpt lat="43.528" lon="5.64342">
        <ele>404</ele>
        <time>2022-10-19T06:30:24.000Z</time>
      </trkpt>
      <trkpt lat="43.52801" lon="5.64342">
        <ele>404</ele>
        <time>2022-10-19T06:30:25.000Z</time>
      </trkpt>
      <trkpt lat="43.52801" lon="5.64342">
        <ele>404</ele>
        <time>2022-10-19T06:30:26.000Z</time>
      </trkpt>
      <trkpt lat="43.52801" lon="5.64342">
        <ele>404</ele>
        <time>2022-10-19T06:30:27.000Z</time>
      </trkpt>
      <trkpt lat="43.52801" lon="5.64342">
        <ele>404</ele>
        <time>2022-10-19T06:30:28.000Z</time>
      </trkpt>
      <trkpt lat="43.52801" lon="5.64342">
        <ele>404</ele>
        <time>2022-10-19T06:30:29.000Z</time>
      </trkpt>
      <trkpt lat="43.52801" lon="5.64342">
        <ele>404</ele>
        <time>2022-10-19T06:30:30.000Z</time>
      </trkpt>
      <trkpt lat="43.528" lon="5.64342">
        <ele>404</ele>
        <time>2022-10-19T06:30:31.000Z</time>
      </trkpt>
      <trkpt lat="43.52801" lon="5.64342">
        <ele>404</ele>
        <time>2022-10-19T06:30:32.000Z</time>
      </trkpt>
      <trkpt lat="43.52801" lon="5.64342">
        <ele>404</ele>
        <time>2022-10-19T06:30:33.000Z</time>
      </trkpt>
      <trkpt lat="43.52801" lon="5.64342">
        <ele>404</ele>
        <time>2022-10-19T06:30:34.000Z</time>
      </trkpt>
      <trkpt lat="43.528" lon="5.64342">
        <ele>404</ele>
        <time>2022-10-19T06:30:35.000Z</time>
      </trkpt>
      <trkpt lat="43.52799" lon="5.64342">
        <ele>404</ele>
        <time>2022-10-19T06:30:36.000Z</time>
      </trkpt>
      <trkpt lat="43.52799" lon="5.64341">
        <ele>404</ele>
        <time>2022-10-19T06:30:37.000Z</time>
      </trkpt>
      <trkpt lat="43.52799" lon="5.6434">
        <ele>404</ele>
        <time>2022-10-19T06:30:38.000Z</time>
      </trkpt>
      <trkpt lat="43.52799" lon="5.64339">
        <ele>404</ele>
        <time>2022-10-19T06:30:39.000Z</time>
      </trkpt>
      <trkpt lat="43.52799" lon="5.64339">
        <ele>404</ele>
        <time>2022-10-19T06:30:40.000Z</time>
      </trkpt>
      <trkpt lat="43.52799" lon="5.64339">
        <ele>404</ele>
        <time>2022-10-19T06:30:41.000Z</time>
      </trkpt>
      <trkpt lat="43.52799" lon="5.64339">
        <ele>403</ele>
        <time>2022-10-19T06:30:42.000Z</time>
      </trkpt>
      <trkpt lat="43.52799" lon="5.64339">
        <ele>403</ele>
        <time>2022-10-19T06:30:43.000Z</time>
      </trkpt>
      <trkpt lat="43.52799" lon="5.64339">
        <ele>403</ele>
        <time>2022-10-19T06:30:44.000Z</time>
      </trkpt>
      <trkpt lat="43.528" lon="5.64339">
        <ele>403</ele>
        <time>2022-10-19T06:30:45.000Z</time>
      </trkpt>
      <trkpt lat="43.528" lon="5.64339">
        <ele>403</ele>
        <time>2022-10-19T06:30:46.000Z</time>
      </trkpt>
      <trkpt lat="43.52799" lon="5.6434">
        <ele>403</ele>
        <time>2022-10-19T06:30:47.000Z</time>
      </trkpt>
      <trkpt lat="43.528" lon="5.6434">
        <ele>403</ele>
        <time>2022-10-19T06:30:48.000Z</time>
      </trkpt>
      <trkpt lat="43.528" lon="5.64341">
        <ele>403</ele>
        <time>2022-10-19T06:30:49.000Z</time>
      </trkpt>
      <trkpt lat="43.52799" lon="5.64341">
        <ele>403</ele>
        <time>2022-10-19T06:30:50.000Z</time>
      </trkpt>
      <trkpt lat="43.52799" lon="5.64341">
        <ele>403</ele>
        <time>2022-10-19T06:30:51.000Z</time>
      </trkpt>
      <trkpt lat="43.52799" lon="5.64341">
        <ele>403</ele>
        <time>2022-10-19T06:30:52.000Z</time>
      </trkpt>
      <trkpt lat="43.52799" lon="5.64341">
        <ele>403</ele>
        <time>2022-10-19T06:30:53.000Z</time>
      </trkpt>
      <trkpt lat="43.528" lon="5.64341">
        <ele>403</ele>
        <time>2022-10-19T06:30:54.000Z</time>
      </trkpt>
      <trkpt lat="43.528" lon="5.64341">
        <ele>403</ele>
        <time>2022-10-19T06:30:55.000Z</time>
      </trkpt>
      <trkpt lat="43.52799" lon="5.64341">
        <ele>403</ele>
        <time>2022-10-19T06:30:56.000Z</time>
      </trkpt>
      <trkpt lat="43.52799" lon="5.64341">
        <ele>403</ele>
        <time>2022-10-19T06:30:57.000Z</time>
      </trkpt>
      <trkpt lat="43.52799" lon="5.64342">
        <ele>403</ele>
        <time>2022-10-19T06:30:58.000Z</time>
      </trkpt>
      <trkpt lat="43.52799" lon="5.64341">
        <ele>403</ele>
        <time>2022-10-19T06:30:59.000Z</time>
      </trkpt>
      <trkpt lat="43.52799" lon="5.64341">
        <ele>403</ele>
        <time>2022-10-19T06:31:00.000Z</time>
      </trkpt>
      <trkpt lat="43.52799" lon="5.64341">
        <ele>403</ele>
        <time>2022-10-19T06:31:01.000Z</time>
      </trkpt>
      <trkpt lat="43.52799" lon="5.64341">
        <ele>403</ele>
        <time>2022-10-19T06:31:02.000Z</time>
      </trkpt>
      <trkpt lat="43.52799" lon="5.64341">
        <ele>403</ele>
        <time>2022-10-19T06:31:03.000Z</time>
      </trkpt>
      <trkpt lat="43.52798" lon="5.64341">
        <ele>403</ele>
        <time>2022-10-19T06:31:04.000Z</time>
      </trkpt>
      <trkpt lat="43.52798" lon="5.64341">
        <ele>403</ele>
        <time>2022-10-19T06:31:05.000Z</time>
      </trkpt>
      <trkpt lat="43.52798" lon="5.6434">
        <ele>403</ele>
        <time>2022-10-19T06:31:06.000Z</time>
      </trkpt>
      <trkpt lat="43.52799" lon="5.6434">
        <ele>403</ele>
        <time>2022-10-19T06:31:07.000Z</time>
      </trkpt>
      <trkpt lat="43.52799" lon="5.6434">
        <ele>403</ele>
        <time>2022-10-19T06:31:08.000Z</time>
      </trkpt>
      <trkpt lat="43.52799" lon="5.64339">
        <ele>403</ele>
        <time>2022-10-19T06:31:09.000Z</time>
      </trkpt>
      <trkpt lat="43.52799" lon="5.64338">
        <ele>403</ele>
        <time>2022-10-19T06:31:10.000Z</time>
      </trkpt>
      <trkpt lat="43.52799" lon="5.64337">
        <ele>403</ele>
        <time>2022-10-19T06:31:11.000Z</time>
      </trkpt>
      <trkpt lat="43.52799" lon="5.64337">
        <ele>403</ele>
        <time>2022-10-19T06:31:12.000Z</time>
      </trkpt>
      <trkpt lat="43.52799" lon="5.64337">
        <ele>403</ele>
        <time>2022-10-19T06:31:13.000Z</time>
      </trkpt>
      <trkpt lat="43.52799" lon="5.64337">
        <ele>403</ele>
        <time>2022-10-19T06:31:14.000Z</time>
      </trkpt>
      <trkpt lat="43.52799" lon="5.64337">
        <ele>403</ele>
        <time>2022-10-19T06:31:15.000Z</time>
      </trkpt>
      <trkpt lat="43.52799" lon="5.64337">
        <ele>403</ele>
        <time>2022-10-19T06:31:16.000Z</time>
      </trkpt>
      <trkpt lat="43.52799" lon="5.64337">
        <ele>403</ele>
        <time>2022-10-19T06:31:17.000Z</time>
      </trkpt>
      <trkpt lat="43.52799" lon="5.64337">
        <ele>403</ele>
        <time>2022-10-19T06:31:18.000Z</time>
      </trkpt>
      <trkpt lat="43.52799" lon="5.64337">
        <ele>403</ele>
        <time>2022-10-19T06:31:19.000Z</time>
      </trkpt>
      <trkpt lat="43.52799" lon="5.64337">
        <ele>403</ele>
        <time>2022-10-19T06:31:20.000Z</time>
      </trkpt>
      <trkpt lat="43.52799" lon="5.64337">
        <ele>403</ele>
        <time>2022-10-19T06:31:21.000Z</time>
      </trkpt>
      <trkpt lat="43.52799" lon="5.64337">
        <ele>403</ele>
        <time>2022-10-19T06:31:22.000Z</time>
      </trkpt>
      <trkpt lat="43.52799" lon="5.64337">
        <ele>403</ele>
        <time>2022-10-19T06:31:23.000Z</time>
      </trkpt>
      <trkpt lat="43.52799" lon="5.64337">
        <ele>403</ele>
        <time>2022-10-19T06:31:24.000Z</time>
      </trkpt>
      <trkpt lat="43.52799" lon="5.64336">
        <ele>403</ele>
        <time>2022-10-19T06:31:25.000Z</time>
      </trkpt>
      <trkpt lat="43.52799" lon="5.64336">
        <ele>403</ele>
        <time>2022-10-19T06:31:26.000Z</time>
      </trkpt>
      <trkpt lat="43.52798" lon="5.64336">
        <ele>403</ele>
        <time>2022-10-19T06:31:27.000Z</time>
      </trkpt>
      <trkpt lat="43.52798" lon="5.64336">
        <ele>403</ele>
        <time>2022-10-19T06:31:28.000Z</time>
      </trkpt>
      <trkpt lat="43.52799" lon="5.64336">
        <ele>403</ele>
        <time>2022-10-19T06:31:29.000Z</time>
      </trkpt>
      <trkpt lat="43.52799" lon="5.64336">
        <ele>403</ele>
        <time>2022-10-19T06:31:30.000Z</time>
      </trkpt>
      <trkpt lat="43.52799" lon="5.64336">
        <ele>403</ele>
        <time>2022-10-19T06:31:31.000Z</time>
      </trkpt>
      <trkpt lat="43.52799" lon="5.64337">
        <ele>403</ele>
        <time>2022-10-19T06:31:32.000Z</time>
      </trkpt>
      <trkpt lat="43.52799" lon="5.64336">
        <ele>403</ele>
        <time>2022-10-19T06:31:33.000Z</time>
      </trkpt>
      <trkpt lat="43.52799" lon="5.64336">
        <ele>403</ele>
        <time>2022-10-19T06:31:34.000Z</time>
      </trkpt>
      <trkpt lat="43.528" lon="5.64337">
        <ele>403</ele>
        <time>2022-10-19T06:31:35.000Z</time>
      </trkpt>
      <trkpt lat="43.528" lon="5.64337">
        <ele>403</ele>
        <time>2022-10-19T06:31:36.000Z</time>
      </trkpt>
      <trkpt lat="43.52801" lon="5.64337">
        <ele>403</ele>
        <time>2022-10-19T06:31:37.000Z</time>
      </trkpt>
      <trkpt lat="43.52802" lon="5.64337">
        <ele>403</ele>
        <time>2022-10-19T06:31:38.000Z</time>
      </trkpt>
      <trkpt lat="43.52802" lon="5.64337">
        <ele>403</ele>
        <time>2022-10-19T06:31:39.000Z</time>
      </trkpt>
      <trkpt lat="43.52803" lon="5.64337">
        <ele>403</ele>
        <time>2022-10-19T06:31:40.000Z</time>
      </trkpt>
      <trkpt lat="43.52803" lon="5.64336">
        <ele>403</ele>
        <time>2022-10-19T06:31:41.000Z</time>
      </trkpt>
      <trkpt lat="43.52804" lon="5.64336">
        <ele>403</ele>
        <time>2022-10-19T06:31:42.000Z</time>
      </trkpt>
      <trkpt lat="43.52805" lon="5.64336">
        <ele>403</ele>
        <time>2022-10-19T06:31:43.000Z</time>
      </trkpt>
      <trkpt lat="43.52805" lon="5.64335">
        <ele>403</ele>
        <time>2022-10-19T06:31:44.000Z</time>
      </trkpt>
      <trkpt lat="43.52806" lon="5.64335">
        <ele>403</ele>
        <time>2022-10-19T06:31:45.000Z</time>
      </trkpt>
      <trkpt lat="43.52807" lon="5.64334">
        <ele>403</ele>
        <time>2022-10-19T06:31:46.000Z</time>
      </trkpt>
      <trkpt lat="43.52808" lon="5.64334">
        <ele>403</ele>
        <time>2022-10-19T06:31:47.000Z</time>
      </trkpt>
      <trkpt lat="43.52809" lon="5.64334">
        <ele>403</ele>
        <time>2022-10-19T06:31:48.000Z</time>
      </trkpt>
      <trkpt lat="43.5281" lon="5.64335">
        <ele>403</ele>
        <time>2022-10-19T06:31:49.000Z</time>
      </trkpt>
      <trkpt lat="43.5281" lon="5.64335">
        <ele>403</ele>
        <time>2022-10-19T06:31:50.000Z</time>
      </trkpt>
      <trkpt lat="43.5281" lon="5.64335">
        <ele>403</ele>
        <time>2022-10-19T06:31:51.000Z</time>
      </trkpt>
      <trkpt lat="43.5281" lon="5.64335">
        <ele>403</ele>
        <time>2022-10-19T06:31:52.000Z</time>
      </trkpt>
      <trkpt lat="43.5281" lon="5.64336">
        <ele>404</ele>
        <time>2022-10-19T06:31:53.000Z</time>
      </trkpt>
      <trkpt lat="43.5281" lon="5.64336">
        <ele>404</ele>
        <time>2022-10-19T06:31:54.000Z</time>
      </trkpt>
      <trkpt lat="43.5281" lon="5.64335">
        <ele>404</ele>
        <time>2022-10-19T06:31:55.000Z</time>
      </trkpt>
      <trkpt lat="43.52809" lon="5.64336">
        <ele>404</ele>
        <time>2022-10-19T06:31:56.000Z</time>
      </trkpt>
      <trkpt lat="43.52809" lon="5.64336">
        <ele>404</ele>
        <time>2022-10-19T06:31:57.000Z</time>
      </trkpt>
      <trkpt lat="43.52808" lon="5.64336">
        <ele>404</ele>
        <time>2022-10-19T06:31:58.000Z</time>
      </trkpt>
      <trkpt lat="43.52808" lon="5.64336">
        <ele>404</ele>
        <time>2022-10-19T06:31:59.000Z</time>
      </trkpt>
      <trkpt lat="43.52808" lon="5.64337">
        <ele>404</ele>
        <time>2022-10-19T06:32:00.000Z</time>
      </trkpt>
      <trkpt lat="43.52807" lon="5.64337">
        <ele>404</ele>
        <time>2022-10-19T06:32:01.000Z</time>
      </trkpt>
      <trkpt lat="43.52807" lon="5.64337">
        <ele>405</ele>
        <time>2022-10-19T06:32:02.000Z</time>
      </trkpt>
      <trkpt lat="43.52807" lon="5.64337">
        <ele>405</ele>
        <time>2022-10-19T06:32:03.000Z</time>
      </trkpt>
      <trkpt lat="43.52807" lon="5.64337">
        <ele>405</ele>
        <time>2022-10-19T06:32:04.000Z</time>
      </trkpt>
      <trkpt lat="43.52807" lon="5.64337">
        <ele>405</ele>
        <time>2022-10-19T06:32:05.000Z</time>
      </trkpt>
      <trkpt lat="43.52807" lon="5.64337">
        <ele>405</ele>
        <time>2022-10-19T06:32:06.000Z</time>
      </trkpt>
      <trkpt lat="43.52806" lon="5.64337">
        <ele>405</ele>
        <time>2022-10-19T06:32:07.000Z</time>
      </trkpt>
      <trkpt lat="43.52806" lon="5.64337">
        <ele>406</ele>
        <time>2022-10-19T06:32:08.000Z</time>
      </trkpt>
      <trkpt lat="43.52806" lon="5.64337">
        <ele>406</ele>
        <time>2022-10-19T06:32:09.000Z</time>
      </trkpt>
      <trkpt lat="43.52806" lon="5.64337">
        <ele>406</ele>
        <time>2022-10-19T06:32:10.000Z</time>
      </trkpt>
      <trkpt lat="43.52805" lon="5.64337">
        <ele>406</ele>
        <time>2022-10-19T06:32:11.000Z</time>
      </trkpt>
      <trkpt lat="43.52805" lon="5.64337">
        <ele>406</ele>
        <time>2022-10-19T06:32:12.000Z</time>
      </trkpt>
      <trkpt lat="43.52805" lon="5.64337">
        <ele>406</ele>
        <time>2022-10-19T06:32:13.000Z</time>
      </trkpt>
      <trkpt lat="43.52805" lon="5.64337">
        <ele>406</ele>
        <time>2022-10-19T06:32:14.000Z</time>
      </trkpt>
      <trkpt lat="43.52804" lon="5.64338">
        <ele>406</ele>
        <time>2022-10-19T06:32:15.000Z</time>
      </trkpt>
      <trkpt lat="43.52804" lon="5.64338">
        <ele>406</ele>
        <time>2022-10-19T06:32:16.000Z</time>
      </trkpt>
      <trkpt lat="43.52804" lon="5.64338">
        <ele>406</ele>
        <time>2022-10-19T06:32:17.000Z</time>
      </trkpt>
      <trkpt lat="43.52804" lon="5.64338">
        <ele>406</ele>
        <time>2022-10-19T06:32:18.000Z</time>
      </trkpt>
      <trkpt lat="43.52804" lon="5.64338">
        <ele>406</ele>
        <time>2022-10-19T06:32:19.000Z</time>
      </trkpt>
      <trkpt lat="43.52804" lon="5.64338">
        <ele>406</ele>
        <time>2022-10-19T06:32:20.000Z</time>
      </trkpt>
      <trkpt lat="43.52803" lon="5.64338">
        <ele>406</ele>
        <time>2022-10-19T06:32:21.000Z</time>
      </trkpt>
      <trkpt lat="43.52804" lon="5.64338">
        <ele>406</ele>
        <time>2022-10-19T06:32:22.000Z</time>
      </trkpt>
      <trkpt lat="43.52804" lon="5.64338">
        <ele>406</ele>
        <time>2022-10-19T06:32:23.000Z</time>
      </trkpt>
      <trkpt lat="43.52804" lon="5.64338">
        <ele>407</ele>
        <time>2022-10-19T06:32:24.000Z</time>
      </trkpt>
      <trkpt lat="43.52804" lon="5.64338">
        <ele>407</ele>
        <time>2022-10-19T06:32:25.000Z</time>
      </trkpt>
      <trkpt lat="43.52803" lon="5.64339">
        <ele>407</ele>
        <time>2022-10-19T06:32:26.000Z</time>
      </trkpt>
      <trkpt lat="43.52803" lon="5.64339">
        <ele>407</ele>
        <time>2022-10-19T06:32:27.000Z</time>
      </trkpt>
      <trkpt lat="43.52803" lon="5.64339">
        <ele>407</ele>
        <time>2022-10-19T06:32:28.000Z</time>
      </trkpt>
      <trkpt lat="43.52803" lon="5.64339">
        <ele>407</ele>
        <time>2022-10-19T06:32:29.000Z</time>
      </trkpt>
      <trkpt lat="43.52803" lon="5.64339">
        <ele>407</ele>
        <time>2022-10-19T06:32:30.000Z</time>
      </trkpt>
      <trkpt lat="43.52803" lon="5.64339">
        <ele>407</ele>
        <time>2022-10-19T06:32:31.000Z</time>
      </trkpt>
      <trkpt lat="43.52803" lon="5.64339">
        <ele>407</ele>
        <time>2022-10-19T06:32:32.000Z</time>
      </trkpt>
      <trkpt lat="43.52803" lon="5.64339">
        <ele>407</ele>
        <time>2022-10-19T06:32:33.000Z</time>
      </trkpt>
      <trkpt lat="43.52803" lon="5.64339">
        <ele>407</ele>
        <time>2022-10-19T06:32:34.000Z</time>
      </trkpt>
      <trkpt lat="43.52803" lon="5.64339">
        <ele>407</ele>
        <time>2022-10-19T06:32:35.000Z</time>
      </trkpt>
      <trkpt lat="43.52803" lon="5.64339">
        <ele>407</ele>
        <time>2022-10-19T06:32:36.000Z</time>
      </trkpt>
      <trkpt lat="43.52803" lon="5.64339">
        <ele>407</ele>
        <time>2022-10-19T06:32:37.000Z</time>
      </trkpt>
      <trkpt lat="43.52803" lon="5.64339">
        <ele>407</ele>
        <time>2022-10-19T06:32:38.000Z</time>
      </trkpt>
      <trkpt lat="43.52803" lon="5.64339">
        <ele>407</ele>
        <time>2022-10-19T06:32:39.000Z</time>
      </trkpt>
      <trkpt lat="43.52803" lon="5.64339">
        <ele>407</ele>
        <time>2022-10-19T06:32:40.000Z</time>
      </trkpt>
      <trkpt lat="43.52803" lon="5.64339">
        <ele>407</ele>
        <time>2022-10-19T06:32:41.000Z</time>
      </trkpt>
      <trkpt lat="43.52803" lon="5.64339">
        <ele>407</ele>
        <time>2022-10-19T06:32:42.000Z</time>
      </trkpt>
      <trkpt lat="43.52803" lon="5.6434">
        <ele>407</ele>
        <time>2022-10-19T06:32:43.000Z</time>
      </trkpt>
      <trkpt lat="43.52803" lon="5.6434">
        <ele>407</ele>
        <time>2022-10-19T06:32:44.000Z</time>
      </trkpt>
      <trkpt lat="43.52803" lon="5.6434">
        <ele>407</ele>
        <time>2022-10-19T06:32:45.000Z</time>
      </trkpt>
      <trkpt lat="43.52803" lon="5.6434">
        <ele>407</ele>
        <time>2022-10-19T06:32:46.000Z</time>
      </trkpt>
      <trkpt lat="43.52803" lon="5.6434">
        <ele>407</ele>
        <time>2022-10-19T06:32:47.000Z</time>
      </trkpt>
      <trkpt lat="43.52802" lon="5.6434">
        <ele>407</ele>
        <time>2022-10-19T06:32:48.000Z</time>
      </trkpt>
      <trkpt lat="43.52802" lon="5.6434">
        <ele>407</ele>
        <time>2022-10-19T06:32:49.000Z</time>
      </trkpt>
      <trkpt lat="43.52802" lon="5.6434">
        <ele>407</ele>
        <time>2022-10-19T06:32:50.000Z</time>
      </trkpt>
      <trkpt lat="43.52802" lon="5.64339">
        <ele>407</ele>
        <time>2022-10-19T06:32:51.000Z</time>
      </trkpt>
      <trkpt lat="43.52802" lon="5.64339">
        <ele>407</ele>
        <time>2022-10-19T06:32:52.000Z</time>
      </trkpt>
      <trkpt lat="43.52802" lon="5.64339">
        <ele>407</ele>
        <time>2022-10-19T06:32:53.000Z</time>
      </trkpt>
      <trkpt lat="43.52802" lon="5.64339">
        <ele>407</ele>
        <time>2022-10-19T06:32:54.000Z</time>
      </trkpt>
      <trkpt lat="43.52802" lon="5.64339">
        <ele>407</ele>
        <time>2022-10-19T06:32:55.000Z</time>
      </trkpt>
      <trkpt lat="43.52802" lon="5.6434">
        <ele>407</ele>
        <time>2022-10-19T06:32:56.000Z</time>
      </trkpt>
      <trkpt lat="43.52802" lon="5.6434">
        <ele>407</ele>
        <time>2022-10-19T06:32:57.000Z</time>
      </trkpt>
      <trkpt lat="43.52802" lon="5.6434">
        <ele>406</ele>
        <time>2022-10-19T06:32:58.000Z</time>
      </trkpt>
      <trkpt lat="43.52802" lon="5.6434">
        <ele>406</ele>
        <time>2022-10-19T06:32:59.000Z</time>
      </trkpt>
      <trkpt lat="43.52802" lon="5.6434">
        <ele>406</ele>
        <time>2022-10-19T06:33:00.000Z</time>
      </trkpt>
      <trkpt lat="43.52802" lon="5.6434">
        <ele>406</ele>
        <time>2022-10-19T06:33:01.000Z</time>
      </trkpt>
      <trkpt lat="43.52802" lon="5.6434">
        <ele>406</ele>
        <time>2022-10-19T06:33:02.000Z</time>
      </trkpt>
      <trkpt lat="43.52802" lon="5.6434">
        <ele>406</ele>
        <time>2022-10-19T06:33:03.000Z</time>
      </trkpt>
      <trkpt lat="43.52802" lon="5.6434">
        <ele>406</ele>
        <time>2022-10-19T06:33:04.000Z</time>
      </trkpt>
      <trkpt lat="43.52802" lon="5.6434">
        <ele>406</ele>
        <time>2022-10-19T06:33:05.000Z</time>
      </trkpt>
      <trkpt lat="43.52802" lon="5.6434">
        <ele>406</ele>
        <time>2022-10-19T06:33:06.000Z</time>
      </trkpt>
      <trkpt lat="43.52802" lon="5.6434">
        <ele>406</ele>
        <time>2022-10-19T06:33:07.000Z</time>
      </trkpt>
      <trkpt lat="43.52802" lon="5.6434">
        <ele>406</ele>
        <time>2022-10-19T06:33:08.000Z</time>
      </trkpt>
      <trkpt lat="43.52802" lon="5.6434">
        <ele>406</ele>
        <time>2022-10-19T06:33:09.000Z</time>
      </trkpt>
      <trkpt lat="43.52802" lon="5.6434">
        <ele>406</ele>
        <time>2022-10-19T06:33:10.000Z</time>
      </trkpt>
      <trkpt lat="43.52802" lon="5.6434">
        <ele>406</ele>
        <time>2022-10-19T06:33:11.000Z</time>
      </trkpt>
      <trkpt lat="43.52802" lon="5.6434">
        <ele>406</ele>
        <time>2022-10-19T06:33:12.000Z</time>
      </trkpt>
      <trkpt lat="43.52802" lon="5.6434">
        <ele>406</ele>
        <time>2022-10-19T06:33:13.000Z</time>
      </trkpt>
      <trkpt lat="43.52802" lon="5.64339">
        <ele>406</ele>
        <time>2022-10-19T06:33:14.000Z</time>
      </trkpt>
      <trkpt lat="43.52802" lon="5.64339">
        <ele>406</ele>
        <time>2022-10-19T06:33:15.000Z</time>
      </trkpt>
      <trkpt lat="43.52802" lon="5.64339">
        <ele>406</ele>
        <time>2022-10-19T06:33:16.000Z</time>
      </trkpt>
      <trkpt lat="43.52802" lon="5.64339">
        <ele>406</ele>
        <time>2022-10-19T06:33:17.000Z</time>
      </trkpt>
      <trkpt lat="43.52802" lon="5.64339">
        <ele>406</ele>
        <time>2022-10-19T06:33:18.000Z</time>
      </trkpt>
      <trkpt lat="43.52802" lon="5.64339">
        <ele>406</ele>
        <time>2022-10-19T06:33:19.000Z</time>
      </trkpt>
      <trkpt lat="43.52802" lon="5.64339">
        <ele>406</ele>
        <time>2022-10-19T06:33:20.000Z</time>
      </trkpt>
      <trkpt lat="43.52802" lon="5.64339">
        <ele>406</ele>
        <time>2022-10-19T06:33:21.000Z</time>
      </trkpt>
      <trkpt lat="43.52802" lon="5.64339">
        <ele>406</ele>
        <time>2022-10-19T06:33:22.000Z</time>
      </trkpt>
      <trkpt lat="43.52801" lon="5.64339">
        <ele>406</ele>
        <time>2022-10-19T06:33:23.000Z</time>
      </trkpt>
      <trkpt lat="43.52801" lon="5.64339">
        <ele>406</ele>
        <time>2022-10-19T06:33:24.000Z</time>
      </trkpt>
      <trkpt lat="43.52801" lon="5.64339">
        <ele>406</ele>
        <time>2022-10-19T06:33:25.000Z</time>
      </trkpt>
      <trkpt lat="43.52801" lon="5.64339">
        <ele>406</ele>
        <time>2022-10-19T06:33:26.000Z</time>
      </trkpt>
      <trkpt lat="43.52801" lon="5.64339">
        <ele>406</ele>
        <time>2022-10-19T06:33:27.000Z</time>
      </trkpt>
      <trkpt lat="43.52801" lon="5.64339">
        <ele>406</ele>
        <time>2022-10-19T06:33:28.000Z</time>
      </trkpt>
      <trkpt lat="43.52801" lon="5.64339">
        <ele>406</ele>
        <time>2022-10-19T06:33:29.000Z</time>
      </trkpt>
      <trkpt lat="43.52801" lon="5.64339">
        <ele>406</ele>
        <time>2022-10-19T06:33:30.000Z</time>
      </trkpt>
      <trkpt lat="43.52801" lon="5.64339">
        <ele>406</ele>
        <time>2022-10-19T06:33:31.000Z</time>
      </trkpt>
      <trkpt lat="43.52801" lon="5.64339">
        <ele>406</ele>
        <time>2022-10-19T06:33:32.000Z</time>
      </trkpt>
      <trkpt lat="43.52801" lon="5.64339">
        <ele>406</ele>
        <time>2022-10-19T06:33:33.000Z</time>
      </trkpt>
      <trkpt lat="43.52801" lon="5.64339">
        <ele>406</ele>
        <time>2022-10-19T06:33:34.000Z</time>
      </trkpt>
      <trkpt lat="43.52801" lon="5.64339">
        <ele>406</ele>
        <time>2022-10-19T06:33:35.000Z</time>
      </trkpt>
      <trkpt lat="43.52801" lon="5.64339">
        <ele>406</ele>
        <time>2022-10-19T06:33:36.000Z</time>
      </trkpt>
      <trkpt lat="43.52801" lon="5.6434">
        <ele>406</ele>
        <time>2022-10-19T06:33:37.000Z</time>
      </trkpt>
      <trkpt lat="43.52801" lon="5.6434">
        <ele>406</ele>
        <time>2022-10-19T06:33:38.000Z</time>
      </trkpt>
      <trkpt lat="43.52801" lon="5.64339">
        <ele>406</ele>
        <time>2022-10-19T06:33:39.000Z</time>
      </trkpt>
      <trkpt lat="43.52801" lon="5.64339">
        <ele>406</ele>
        <time>2022-10-19T06:33:40.000Z</time>
      </trkpt>
      <trkpt lat="43.52801" lon="5.64339">
        <ele>406</ele>
        <time>2022-10-19T06:33:41.000Z</time>
      </trkpt>
      <trkpt lat="43.52801" lon="5.64339">
        <ele>406</ele>
        <time>2022-10-19T06:33:42.000Z</time>
      </trkpt>
      <trkpt lat="43.52801" lon="5.64339">
        <ele>406</ele>
        <time>2022-10-19T06:33:43.000Z</time>
      </trkpt>
      <trkpt lat="43.52801" lon="5.64339">
        <ele>406</ele>
        <time>2022-10-19T06:33:44.000Z</time>
      </trkpt>
      <trkpt lat="43.52801" lon="5.64339">
        <ele>406</ele>
        <time>2022-10-19T06:33:45.000Z</time>
      </trkpt>
      <trkpt lat="43.52801" lon="5.64339">
        <ele>406</ele>
        <time>2022-10-19T06:33:46.000Z</time>
      </trkpt>
      <trkpt lat="43.52801" lon="5.64339">
        <ele>406</ele>
        <time>2022-10-19T06:33:47.000Z</time>
      </trkpt>
      <trkpt lat="43.52801" lon="5.64339">
        <ele>406</ele>
        <time>2022-10-19T06:33:48.000Z</time>
      </trkpt>
      <trkpt lat="43.52801" lon="5.64339">
        <ele>406</ele>
        <time>2022-10-19T06:33:49.000Z</time>
      </trkpt>
      <trkpt lat="43.52801" lon="5.64339">
        <ele>405</ele>
        <time>2022-10-19T06:33:50.000Z</time>
      </trkpt>
      <trkpt lat="43.52801" lon="5.64339">
        <ele>405</ele>
        <time>2022-10-19T06:33:51.000Z</time>
      </trkpt>
      <trkpt lat="43.52801" lon="5.64339">
        <ele>405</ele>
        <time>2022-10-19T06:33:52.000Z</time>
      </trkpt>
      <trkpt lat="43.52801" lon="5.64339">
        <ele>405</ele>
        <time>2022-10-19T06:33:53.000Z</time>
      </trkpt>
      <trkpt lat="43.52801" lon="5.64339">
        <ele>405</ele>
        <time>2022-10-19T06:33:54.000Z</time>
      </trkpt>
      <trkpt lat="43.52801" lon="5.64339">
        <ele>405</ele>
        <time>2022-10-19T06:33:55.000Z</time>
      </trkpt>
      <trkpt lat="43.52801" lon="5.64339">
        <ele>405</ele>
        <time>2022-10-19T06:33:56.000Z</time>
      </trkpt>
      <trkpt lat="43.52801" lon="5.64339">
        <ele>405</ele>
        <time>2022-10-19T06:33:57.000Z</time>
      </trkpt>
      <trkpt lat="43.52801" lon="5.64339">
        <ele>405</ele>
        <time>2022-10-19T06:33:58.000Z</time>
      </trkpt>
      <trkpt lat="43.52801" lon="5.64339">
        <ele>405</ele>
        <time>2022-10-19T06:33:59.000Z</time>
      </trkpt>
      <trkpt lat="43.52801" lon="5.64339">
        <ele>405</ele>
        <time>2022-10-19T06:34:00.000Z</time>
      </trkpt>
      <trkpt lat="43.52801" lon="5.64339">
        <ele>405</ele>
        <time>2022-10-19T06:34:01.000Z</time>
      </trkpt>
      <trkpt lat="43.52801" lon="5.64339">
        <ele>405</ele>
        <time>2022-10-19T06:34:02.000Z</time>
      </trkpt>
      <trkpt lat="43.52801" lon="5.64339">
        <ele>405</ele>
        <time>2022-10-19T06:34:03.000Z</time>
      </trkpt>
      <trkpt lat="43.52801" lon="5.64339">
        <ele>405</ele>
        <time>2022-10-19T06:34:04.000Z</time>
      </trkpt>
      <trkpt lat="43.52801" lon="5.64339">
        <ele>405</ele>
        <time>2022-10-19T06:34:05.000Z</time>
      </trkpt>
      <trkpt lat="43.52801" lon="5.64339">
        <ele>405</ele>
        <time>2022-10-19T06:34:06.000Z</time>
      </trkpt>
      <trkpt lat="43.52801" lon="5.64339">
        <ele>405</ele>
        <time>2022-10-19T06:34:07.000Z</time>
      </trkpt>
      <trkpt lat="43.52801" lon="5.64339">
        <ele>405</ele>
        <time>2022-10-19T06:34:08.000Z</time>
      </trkpt>
      <trkpt lat="43.52801" lon="5.64339">
        <ele>405</ele>
        <time>2022-10-19T06:34:09.000Z</time>
      </trkpt>
      <trkpt lat="43.52801" lon="5.64339">
        <ele>405</ele>
        <time>2022-10-19T06:34:10.000Z</time>
      </trkpt>
      <trkpt lat="43.52801" lon="5.64339">
        <ele>405</ele>
        <time>2022-10-19T06:34:11.000Z</time>
      </trkpt>
      <trkpt lat="43.52801" lon="5.64339">
        <ele>405</ele>
        <time>2022-10-19T06:34:12.000Z</time>
      </trkpt>
      <trkpt lat="43.52801" lon="5.64339">
        <ele>405</ele>
        <time>2022-10-19T06:34:13.000Z</time>
      </trkpt>
      <trkpt lat="43.52801" lon="5.64339">
        <ele>405</ele>
        <time>2022-10-19T06:34:14.000Z</time>
      </trkpt>
      <trkpt lat="43.52801" lon="5.64339">
        <ele>405</ele>
        <time>2022-10-19T06:34:15.000Z</time>
      </trkpt>
      <trkpt lat="43.52801" lon="5.64339">
        <ele>405</ele>
        <time>2022-10-19T06:34:16.000Z</time>
      </trkpt>
      <trkpt lat="43.52801" lon="5.64339">
        <ele>405</ele>
        <time>2022-10-19T06:34:17.000Z</time>
      </trkpt>
      <trkpt lat="43.52801" lon="5.64339">
        <ele>405</ele>
        <time>2022-10-19T06:34:18.000Z</time>
      </trkpt>
      <trkpt lat="43.52801" lon="5.64339">
        <ele>405</ele>
        <time>2022-10-19T06:34:19.000Z</time>
      </trkpt>
      <trkpt lat="43.52801" lon="5.64339">
        <ele>405</ele>
        <time>2022-10-19T06:34:20.000Z</time>
      </trkpt>
      <trkpt lat="43.52801" lon="5.64339">
        <ele>405</ele>
        <time>2022-10-19T06:34:21.000Z</time>
      </trkpt>
      <trkpt lat="43.52801" lon="5.64339">
        <ele>405</ele>
        <time>2022-10-19T06:34:22.000Z</time>
      </trkpt>
      <trkpt lat="43.52801" lon="5.64339">
        <ele>405</ele>
        <time>2022-10-19T06:34:23.000Z</time>
      </trkpt>
      <trkpt lat="43.52801" lon="5.64339">
        <ele>405</ele>
        <time>2022-10-19T06:34:24.000Z</time>
      </trkpt>
      <trkpt lat="43.52801" lon="5.64339">
        <ele>405</ele>
        <time>2022-10-19T06:34:25.000Z</time>
      </trkpt>
      <trkpt lat="43.52801" lon="5.64339">
        <ele>405</ele>
        <time>2022-10-19T06:34:26.000Z</time>
      </trkpt>
      <trkpt lat="43.52801" lon="5.64339">
        <ele>405</ele>
        <time>2022-10-19T06:34:27.000Z</time>
      </trkpt>
      <trkpt lat="43.52801" lon="5.64339">
        <ele>405</ele>
        <time>2022-10-19T06:34:28.000Z</time>
      </trkpt>
      <trkpt lat="43.52801" lon="5.64339">
        <ele>405</ele>
        <time>2022-10-19T06:34:29.000Z</time>
      </trkpt>
      <trkpt lat="43.52801" lon="5.64339">
        <ele>405</ele>
        <time>2022-10-19T06:34:30.000Z</time>
      </trkpt>
      <trkpt lat="43.52801" lon="5.64339">
        <ele>406</ele>
        <time>2022-10-19T06:34:31.000Z</time>
      </trkpt>
      <trkpt lat="43.52801" lon="5.64339">
        <ele>406</ele>
        <time>2022-10-19T06:34:32.000Z</time>
      </trkpt>
      <trkpt lat="43.52801" lon="5.64339">
        <ele>406</ele>
        <time>2022-10-19T06:34:33.000Z</time>
      </trkpt>
      <trkpt lat="43.52801" lon="5.64339">
        <ele>406</ele>
        <time>2022-10-19T06:34:34.000Z</time>
      </trkpt>
      <trkpt lat="43.52801" lon="5.64339">
        <ele>406</ele>
        <time>2022-10-19T06:34:35.000Z</time>
      </trkpt>
      <trkpt lat="43.52801" lon="5.64339">
        <ele>406</ele>
        <time>2022-10-19T06:34:36.000Z</time>
      </trkpt>
      <trkpt lat="43.52801" lon="5.64339">
        <ele>406</ele>
        <time>2022-10-19T06:34:37.000Z</time>
      </trkpt>
      <trkpt lat="43.52801" lon="5.64339">
        <ele>406</ele>
        <time>2022-10-19T06:34:38.000Z</time>
      </trkpt>
      <trkpt lat="43.52801" lon="5.64339">
        <ele>406</ele>
        <time>2022-10-19T06:34:39.000Z</time>
      </trkpt>
      <trkpt lat="43.52801" lon="5.64339">
        <ele>406</ele>
        <time>2022-10-19T06:34:40.000Z</time>
      </trkpt>
      <trkpt lat="43.52801" lon="5.64339">
        <ele>406</ele>
        <time>2022-10-19T06:34:41.000Z</time>
      </trkpt>
      <trkpt lat="43.52801" lon="5.64339">
        <ele>406</ele>
        <time>2022-10-19T06:34:42.000Z</time>
      </trkpt>
      <trkpt lat="43.52801" lon="5.64339">
        <ele>406</ele>
        <time>2022-10-19T06:34:43.000Z</time>
      </trkpt>
      <trkpt lat="43.52801" lon="5.64339">
        <ele>406</ele>
        <time>2022-10-19T06:34:44.000Z</time>
      </trkpt>
      <trkpt lat="43.52801" lon="5.64339">
        <ele>406</ele>
        <time>2022-10-19T06:34:45.000Z</time>
      </trkpt>
      <trkpt lat="43.52801" lon="5.64339">
        <ele>406</ele>
        <time>2022-10-19T06:34:46.000Z</time>
      </trkpt>
      <trkpt lat="43.52801" lon="5.64339">
        <ele>406</ele>
        <time>2022-10-19T06:34:47.000Z</time>
      </trkpt>
      <trkpt lat="43.52801" lon="5.64339">
        <ele>406</ele>
        <time>2022-10-19T06:34:48.000Z</time>
      </trkpt>
      <trkpt lat="43.52801" lon="5.64339">
        <ele>406</ele>
        <time>2022-10-19T06:34:49.000Z</time>
      </trkpt>
      <trkpt lat="43.52801" lon="5.64339">
        <ele>406</ele>
        <time>2022-10-19T06:34:50.000Z</time>
      </trkpt>
      <trkpt lat="43.52801" lon="5.64339">
        <ele>406</ele>
        <time>2022-10-19T06:34:51.000Z</time>
      </trkpt>
      <trkpt lat="43.52801" lon="5.64339">
        <ele>406</ele>
        <time>2022-10-19T06:34:52.000Z</time>
      </trkpt>
      <trkpt lat="43.52801" lon="5.64339">
        <ele>406</ele>
        <time>2022-10-19T06:34:53.000Z</time>
      </trkpt>
      <trkpt lat="43.52801" lon="5.64339">
        <ele>406</ele>
        <time>2022-10-19T06:34:54.000Z</time>
      </trkpt>
      <trkpt lat="43.52801" lon="5.64339">
        <ele>406</ele>
        <time>2022-10-19T06:34:55.000Z</time>
      </trkpt>
      <trkpt lat="43.52801" lon="5.64339">
        <ele>406</ele>
        <time>2022-10-19T06:34:56.000Z</time>
      </trkpt>
      <trkpt lat="43.52801" lon="5.64339">
        <ele>406</ele>
        <time>2022-10-19T06:34:57.000Z</time>
      </trkpt>
      <trkpt lat="43.52801" lon="5.64339">
        <ele>406</ele>
        <time>2022-10-19T06:34:58.000Z</time>
      </trkpt>
      <trkpt lat="43.52801" lon="5.64339">
        <ele>406</ele>
        <time>2022-10-19T06:34:59.000Z</time>
      </trkpt>
      <trkpt lat="43.52801" lon="5.64339">
        <ele>406</ele>
        <time>2022-10-19T06:35:00.000Z</time>
      </trkpt>
      <trkpt lat="43.52801" lon="5.64339">
        <ele>406</ele>
        <time>2022-10-19T06:35:01.000Z</time>
      </trkpt>
      <trkpt lat="43.52801" lon="5.64339">
        <ele>406</ele>
        <time>2022-10-19T06:35:02.000Z</time>
      </trkpt>
      <trkpt lat="43.52801" lon="5.64339">
        <ele>406</ele>
        <time>2022-10-19T06:35:03.000Z</time>
      </trkpt>
      <trkpt lat="43.52801" lon="5.64339">
        <ele>406</ele>
        <time>2022-10-19T06:35:04.000Z</time>
      </trkpt>
      <trkpt lat="43.52801" lon="5.64339">
        <ele>406</ele>
        <time>2022-10-19T06:35:05.000Z</time>
      </trkpt>
      <trkpt lat="43.52801" lon="5.64339">
        <ele>406</ele>
        <time>2022-10-19T06:35:06.000Z</time>
      </trkpt>
      <trkpt lat="43.52801" lon="5.64339">
        <ele>406</ele>
        <time>2022-10-19T06:35:07.000Z</time>
      </trkpt>
      <trkpt lat="43.52801" lon="5.64339">
        <ele>406</ele>
        <time>2022-10-19T06:35:08.000Z</time>
      </trkpt>
      <trkpt lat="43.52801" lon="5.64339">
        <ele>406</ele>
        <time>2022-10-19T06:35:09.000Z</time>
      </trkpt>
      <trkpt lat="43.52801" lon="5.64339">
        <ele>406</ele>
        <time>2022-10-19T06:35:10.000Z</time>
      </trkpt>
      <trkpt lat="43.52801" lon="5.64339">
        <ele>406</ele>
        <time>2022-10-19T06:35:11.000Z</time>
      </trkpt>
      <trkpt lat="43.528" lon="5.64339">
        <ele>406</ele>
        <time>2022-10-19T06:35:12.000Z</time>
      </trkpt>
      <trkpt lat="43.528" lon="5.64339">
        <ele>406</ele>
        <time>2022-10-19T06:35:13.000Z</time>
      </trkpt>
      <trkpt lat="43.528" lon="5.64339">
        <ele>406</ele>
        <time>2022-10-19T06:35:14.000Z</time>
      </trkpt>
      <trkpt lat="43.528" lon="5.64339">
        <ele>406</ele>
        <time>2022-10-19T06:35:15.000Z</time>
      </trkpt>
      <trkpt lat="43.528" lon="5.64339">
        <ele>406</ele>
        <time>2022-10-19T06:35:16.000Z</time>
      </trkpt>
      <trkpt lat="43.528" lon="5.64339">
        <ele>406</ele>
        <time>2022-10-19T06:35:17.000Z</time>
      </trkpt>
      <trkpt lat="43.528" lon="5.64338">
        <ele>406</ele>
        <time>2022-10-19T06:35:18.000Z</time>
      </trkpt>
      <trkpt lat="43.528" lon="5.64338">
        <ele>406</ele>
        <time>2022-10-19T06:35:19.000Z</time>
      </trkpt>
      <trkpt lat="43.528" lon="5.64338">
        <ele>406</ele>
        <time>2022-10-19T06:35:20.000Z</time>
      </trkpt>
      <trkpt lat="43.528" lon="5.64338">
        <ele>406</ele>
        <time>2022-10-19T06:35:21.000Z</time>
      </trkpt>
      <trkpt lat="43.528" lon="5.64338">
        <ele>406</ele>
        <time>2022-10-19T06:35:22.000Z</time>
      </trkpt>
      <trkpt lat="43.528" lon="5.64338">
        <ele>406</ele>
        <time>2022-10-19T06:35:23.000Z</time>
      </trkpt>
      <trkpt lat="43.528" lon="5.64338">
        <ele>406</ele>
        <time>2022-10-19T06:35:24.000Z</time>
      </trkpt>
      <trkpt lat="43.528" lon="5.64338">
        <ele>406</ele>
        <time>2022-10-19T06:35:25.000Z</time>
      </trkpt>
      <trkpt lat="43.528" lon="5.64338">
        <ele>406</ele>
        <time>2022-10-19T06:35:26.000Z</time>
      </trkpt>
      <trkpt lat="43.528" lon="5.64338">
        <ele>406</ele>
        <time>2022-10-19T06:35:27.000Z</time>
      </trkpt>
      <trkpt lat="43.528" lon="5.64339">
        <ele>406</ele>
        <time>2022-10-19T06:35:28.000Z</time>
      </trkpt>
      <trkpt lat="43.528" lon="5.64338">
        <ele>406</ele>
        <time>2022-10-19T06:35:29.000Z</time>
      </trkpt>
      <trkpt lat="43.528" lon="5.64339">
        <ele>406</ele>
        <time>2022-10-19T06:35:30.000Z</time>
      </trkpt>
      <trkpt lat="43.528" lon="5.64339">
        <ele>406</ele>
        <time>2022-10-19T06:35:31.000Z</time>
      </trkpt>
      <trkpt lat="43.528" lon="5.64339">
        <ele>406</ele>
        <time>2022-10-19T06:35:32.000Z</time>
      </trkpt>
      <trkpt lat="43.528" lon="5.64339">
        <ele>406</ele>
        <time>2022-10-19T06:35:33.000Z</time>
      </trkpt>
      <trkpt lat="43.528" lon="5.64338">
        <ele>406</ele>
        <time>2022-10-19T06:35:34.000Z</time>
      </trkpt>
      <trkpt lat="43.528" lon="5.64338">
        <ele>406</ele>
        <time>2022-10-19T06:35:35.000Z</time>
      </trkpt>
      <trkpt lat="43.52801" lon="5.64337">
        <ele>406</ele>
        <time>2022-10-19T06:35:36.000Z</time>
      </trkpt>
      <trkpt lat="43.52801" lon="5.64336">
        <ele>406</ele>
        <time>2022-10-19T06:35:37.000Z</time>
      </trkpt>
      <trkpt lat="43.52801" lon="5.64336">
        <ele>406</ele>
        <time>2022-10-19T06:35:38.000Z</time>
      </trkpt>
      <trkpt lat="43.52801" lon="5.64336">
        <ele>406</ele>
        <time>2022-10-19T06:35:39.000Z</time>
      </trkpt>
      <trkpt lat="43.52801" lon="5.64335">
        <ele>406</ele>
        <time>2022-10-19T06:35:40.000Z</time>
      </trkpt>
      <trkpt lat="43.52801" lon="5.64334">
        <ele>406</ele>
        <time>2022-10-19T06:35:41.000Z</time>
      </trkpt>
      <trkpt lat="43.52801" lon="5.64333">
        <ele>406</ele>
        <time>2022-10-19T06:35:42.000Z</time>
      </trkpt>
      <trkpt lat="43.52801" lon="5.64333">
        <ele>406</ele>
        <time>2022-10-19T06:35:43.000Z</time>
      </trkpt>
      <trkpt lat="43.52802" lon="5.64332">
        <ele>406</ele>
        <time>2022-10-19T06:35:44.000Z</time>
      </trkpt>
      <trkpt lat="43.52803" lon="5.64331">
        <ele>406</ele>
        <time>2022-10-19T06:35:45.000Z</time>
      </trkpt>
      <trkpt lat="43.52803" lon="5.64331">
        <ele>406</ele>
        <time>2022-10-19T06:35:46.000Z</time>
      </trkpt>
      <trkpt lat="43.52804" lon="5.6433">
        <ele>406</ele>
        <time>2022-10-19T06:35:47.000Z</time>
      </trkpt>
      <trkpt lat="43.52804" lon="5.64329">
        <ele>406</ele>
        <time>2022-10-19T06:35:48.000Z</time>
      </trkpt>
      <trkpt lat="43.52805" lon="5.64329">
        <ele>406</ele>
        <time>2022-10-19T06:35:49.000Z</time>
      </trkpt>
      <trkpt lat="43.52805" lon="5.64328">
        <ele>406</ele>
        <time>2022-10-19T06:35:50.000Z</time>
      </trkpt>
      <trkpt lat="43.52806" lon="5.64328">
        <ele>406</ele>
        <time>2022-10-19T06:35:51.000Z</time>
      </trkpt>
      <trkpt lat="43.52806" lon="5.64327">
        <ele>406</ele>
        <time>2022-10-19T06:35:52.000Z</time>
      </trkpt>
      <trkpt lat="43.52807" lon="5.64327">
        <ele>406</ele>
        <time>2022-10-19T06:35:53.000Z</time>
      </trkpt>
      <trkpt lat="43.52808" lon="5.64327">
        <ele>406</ele>
        <time>2022-10-19T06:35:54.000Z</time>
      </trkpt>
      <trkpt lat="43.52808" lon="5.64326">
        <ele>406</ele>
        <time>2022-10-19T06:35:55.000Z</time>
      </trkpt>
      <trkpt lat="43.52809" lon="5.64326">
        <ele>406</ele>
        <time>2022-10-19T06:35:56.000Z</time>
      </trkpt>
      <trkpt lat="43.52809" lon="5.64326">
        <ele>406</ele>
        <time>2022-10-19T06:35:57.000Z</time>
      </trkpt>
      <trkpt lat="43.52809" lon="5.64326">
        <ele>406</ele>
        <time>2022-10-19T06:35:58.000Z</time>
      </trkpt>
      <trkpt lat="43.52809" lon="5.64326">
        <ele>406</ele>
        <time>2022-10-19T06:35:59.000Z</time>
      </trkpt>
      <trkpt lat="43.52809" lon="5.64325">
        <ele>406</ele>
        <time>2022-10-19T06:36:00.000Z</time>
      </trkpt>
      <trkpt lat="43.52809" lon="5.64325">
        <ele>406</ele>
        <time>2022-10-19T06:36:01.000Z</time>
      </trkpt>
      <trkpt lat="43.52809" lon="5.64324">
        <ele>406</ele>
        <time>2022-10-19T06:36:02.000Z</time>
      </trkpt>
      <trkpt lat="43.52809" lon="5.64323">
        <ele>407</ele>
        <time>2022-10-19T06:36:03.000Z</time>
      </trkpt>
      <trkpt lat="43.5281" lon="5.64322">
        <ele>407</ele>
        <time>2022-10-19T06:36:04.000Z</time>
      </trkpt>
      <trkpt lat="43.5281" lon="5.64321">
        <ele>407</ele>
        <time>2022-10-19T06:36:05.000Z</time>
      </trkpt>
      <trkpt lat="43.52811" lon="5.64321">
        <ele>407</ele>
        <time>2022-10-19T06:36:06.000Z</time>
      </trkpt>
      <trkpt lat="43.52811" lon="5.6432">
        <ele>407</ele>
        <time>2022-10-19T06:36:07.000Z</time>
      </trkpt>
      <trkpt lat="43.52811" lon="5.64319">
        <ele>407</ele>
        <time>2022-10-19T06:36:08.000Z</time>
      </trkpt>
      <trkpt lat="43.52811" lon="5.64319">
        <ele>408</ele>
        <time>2022-10-19T06:36:09.000Z</time>
      </trkpt>
      <trkpt lat="43.52812" lon="5.64318">
        <ele>408</ele>
        <time>2022-10-19T06:36:10.000Z</time>
      </trkpt>
      <trkpt lat="43.52812" lon="5.64317">
        <ele>408</ele>
        <time>2022-10-19T06:36:11.000Z</time>
      </trkpt>
      <trkpt lat="43.52812" lon="5.64317">
        <ele>408</ele>
        <time>2022-10-19T06:36:12.000Z</time>
      </trkpt>
      <trkpt lat="43.52813" lon="5.64316">
        <ele>408</ele>
        <time>2022-10-19T06:36:13.000Z</time>
      </trkpt>
      <trkpt lat="43.52813" lon="5.64315">
        <ele>408</ele>
        <time>2022-10-19T06:36:14.000Z</time>
      </trkpt>
      <trkpt lat="43.52813" lon="5.64315">
        <ele>408</ele>
        <time>2022-10-19T06:36:15.000Z</time>
      </trkpt>
      <trkpt lat="43.52813" lon="5.64314">
        <ele>409</ele>
        <time>2022-10-19T06:36:16.000Z</time>
      </trkpt>
      <trkpt lat="43.52813" lon="5.64313">
        <ele>409</ele>
        <time>2022-10-19T06:36:17.000Z</time>
      </trkpt>
      <trkpt lat="43.52814" lon="5.64313">
        <ele>409</ele>
        <time>2022-10-19T06:36:18.000Z</time>
      </trkpt>
      <trkpt lat="43.52814" lon="5.64312">
        <ele>409</ele>
        <time>2022-10-19T06:36:19.000Z</time>
      </trkpt>
      <trkpt lat="43.52814" lon="5.64312">
        <ele>409</ele>
        <time>2022-10-19T06:36:20.000Z</time>
      </trkpt>
      <trkpt lat="43.52814" lon="5.64311">
        <ele>409</ele>
        <time>2022-10-19T06:36:21.000Z</time>
      </trkpt>
      <trkpt lat="43.52814" lon="5.6431">
        <ele>410</ele>
        <time>2022-10-19T06:36:22.000Z</time>
      </trkpt>
      <trkpt lat="43.52814" lon="5.6431">
        <ele>410</ele>
        <time>2022-10-19T06:36:23.000Z</time>
      </trkpt>
      <trkpt lat="43.52815" lon="5.6431">
        <ele>410</ele>
        <time>2022-10-19T06:36:24.000Z</time>
      </trkpt>
      <trkpt lat="43.52816" lon="5.64309">
        <ele>410</ele>
        <time>2022-10-19T06:36:25.000Z</time>
      </trkpt>
      <trkpt lat="43.52816" lon="5.64308">
        <ele>410</ele>
        <time>2022-10-19T06:36:26.000Z</time>
      </trkpt>
      <trkpt lat="43.52816" lon="5.64306">
        <ele>410</ele>
        <time>2022-10-19T06:36:27.000Z</time>
      </trkpt>
      <trkpt lat="43.52817" lon="5.64305">
        <ele>410</ele>
        <time>2022-10-19T06:36:28.000Z</time>
      </trkpt>
      <trkpt lat="43.52817" lon="5.64304">
        <ele>410</ele>
        <time>2022-10-19T06:36:29.000Z</time>
      </trkpt>
      <trkpt lat="43.52817" lon="5.64303">
        <ele>410</ele>
        <time>2022-10-19T06:36:30.000Z</time>
      </trkpt>
      <trkpt lat="43.52817" lon="5.64302">
        <ele>410</ele>
        <time>2022-10-19T06:36:31.000Z</time>
      </trkpt>
      <trkpt lat="43.52817" lon="5.643">
        <ele>410</ele>
        <time>2022-10-19T06:36:32.000Z</time>
      </trkpt>
      <trkpt lat="43.52817" lon="5.64299">
        <ele>410</ele>
        <time>2022-10-19T06:36:33.000Z</time>
      </trkpt>
      <trkpt lat="43.52818" lon="5.64298">
        <ele>410</ele>
        <time>2022-10-19T06:36:34.000Z</time>
      </trkpt>
      <trkpt lat="43.52818" lon="5.64296">
        <ele>410</ele>
        <time>2022-10-19T06:36:35.000Z</time>
      </trkpt>
      <trkpt lat="43.52818" lon="5.64295">
        <ele>410</ele>
        <time>2022-10-19T06:36:36.000Z</time>
      </trkpt>
      <trkpt lat="43.52818" lon="5.64294">
        <ele>410</ele>
        <time>2022-10-19T06:36:37.000Z</time>
      </trkpt>
      <trkpt lat="43.52819" lon="5.64293">
        <ele>410</ele>
        <time>2022-10-19T06:36:38.000Z</time>
      </trkpt>
      <trkpt lat="43.52819" lon="5.64292">
        <ele>410</ele>
        <time>2022-10-19T06:36:39.000Z</time>
      </trkpt>
      <trkpt lat="43.52819" lon="5.64291">
        <ele>411</ele>
        <time>2022-10-19T06:36:40.000Z</time>
      </trkpt>
      <trkpt lat="43.52819" lon="5.64289">
        <ele>411</ele>
        <time>2022-10-19T06:36:41.000Z</time>
      </trkpt>
      <trkpt lat="43.5282" lon="5.64288">
        <ele>411</ele>
        <time>2022-10-19T06:36:42.000Z</time>
      </trkpt>
      <trkpt lat="43.5282" lon="5.64287">
        <ele>411</ele>
        <time>2022-10-19T06:36:43.000Z</time>
      </trkpt>
      <trkpt lat="43.52821" lon="5.64286">
        <ele>411</ele>
        <time>2022-10-19T06:36:44.000Z</time>
      </trkpt>
      <trkpt lat="43.52822" lon="5.64284">
        <ele>411</ele>
        <time>2022-10-19T06:36:45.000Z</time>
      </trkpt>
      <trkpt lat="43.52822" lon="5.64284">
        <ele>411</ele>
        <time>2022-10-19T06:36:46.000Z</time>
      </trkpt>
      <trkpt lat="43.52823" lon="5.64282">
        <ele>411</ele>
        <time>2022-10-19T06:36:47.000Z</time>
      </trkpt>
      <trkpt lat="43.52824" lon="5.64281">
        <ele>411</ele>
        <time>2022-10-19T06:36:48.000Z</time>
      </trkpt>
      <trkpt lat="43.52825" lon="5.64281">
        <ele>411</ele>
        <time>2022-10-19T06:36:49.000Z</time>
      </trkpt>
      <trkpt lat="43.52825" lon="5.6428">
        <ele>411</ele>
        <time>2022-10-19T06:36:50.000Z</time>
      </trkpt>
      <trkpt lat="43.52826" lon="5.64279">
        <ele>411</ele>
        <time>2022-10-19T06:36:51.000Z</time>
      </trkpt>
      <trkpt lat="43.52827" lon="5.64278">
        <ele>411</ele>
        <time>2022-10-19T06:36:52.000Z</time>
      </trkpt>
      <trkpt lat="43.52828" lon="5.64278">
        <ele>411</ele>
        <time>2022-10-19T06:36:53.000Z</time>
      </trkpt>
      <trkpt lat="43.52829" lon="5.64277">
        <ele>411</ele>
        <time>2022-10-19T06:36:54.000Z</time>
      </trkpt>
      <trkpt lat="43.5283" lon="5.64276">
        <ele>412</ele>
        <time>2022-10-19T06:36:55.000Z</time>
      </trkpt>
      <trkpt lat="43.5283" lon="5.64276">
        <ele>412</ele>
        <time>2022-10-19T06:36:56.000Z</time>
      </trkpt>
      <trkpt lat="43.52831" lon="5.64276">
        <ele>412</ele>
        <time>2022-10-19T06:36:57.000Z</time>
      </trkpt>
      <trkpt lat="43.52831" lon="5.64276">
        <ele>412</ele>
        <time>2022-10-19T06:36:58.000Z</time>
      </trkpt>
      <trkpt lat="43.52831" lon="5.64276">
        <ele>412</ele>
        <time>2022-10-19T06:36:59.000Z</time>
      </trkpt>
      <trkpt lat="43.52831" lon="5.64276">
        <ele>412</ele>
        <time>2022-10-19T06:37:00.000Z</time>
      </trkpt>
      <trkpt lat="43.52831" lon="5.64276">
        <ele>412</ele>
        <time>2022-10-19T06:37:01.000Z</time>
      </trkpt>
      <trkpt lat="43.52831" lon="5.64276">
        <ele>412</ele>
        <time>2022-10-19T06:37:02.000Z</time>
      </trkpt>
      <trkpt lat="43.52831" lon="5.64276">
        <ele>412</ele>
        <time>2022-10-19T06:37:03.000Z</time>
      </trkpt>
      <trkpt lat="43.52832" lon="5.64275">
        <ele>412</ele>
        <time>2022-10-19T06:37:04.000Z</time>
      </trkpt>
      <trkpt lat="43.52833" lon="5.64274">
        <ele>412</ele>
        <time>2022-10-19T06:37:05.000Z</time>
      </trkpt>
      <trkpt lat="43.52833" lon="5.64273">
        <ele>412</ele>
        <time>2022-10-19T06:37:06.000Z</time>
      </trkpt>
      <trkpt lat="43.52834" lon="5.64272">
        <ele>412</ele>
        <time>2022-10-19T06:37:07.000Z</time>
      </trkpt>
      <trkpt lat="43.52835" lon="5.64272">
        <ele>412</ele>
        <time>2022-10-19T06:37:08.000Z</time>
      </trkpt>
      <trkpt lat="43.52836" lon="5.64271">
        <ele>413</ele>
        <time>2022-10-19T06:37:09.000Z</time>
      </trkpt>
      <trkpt lat="43.52837" lon="5.6427">
        <ele>413</ele>
        <time>2022-10-19T06:37:10.000Z</time>
      </trkpt>
      <trkpt lat="43.52838" lon="5.6427">
        <ele>413</ele>
        <time>2022-10-19T06:37:11.000Z</time>
      </trkpt>
      <trkpt lat="43.52839" lon="5.64269">
        <ele>413</ele>
        <time>2022-10-19T06:37:12.000Z</time>
      </trkpt>
      <trkpt lat="43.5284" lon="5.64269">
        <ele>413</ele>
        <time>2022-10-19T06:37:13.000Z</time>
      </trkpt>
      <trkpt lat="43.52841" lon="5.64268">
        <ele>413</ele>
        <time>2022-10-19T06:37:14.000Z</time>
      </trkpt>
      <trkpt lat="43.52842" lon="5.64268">
        <ele>413</ele>
        <time>2022-10-19T06:37:15.000Z</time>
      </trkpt>
      <trkpt lat="43.52843" lon="5.64268">
        <ele>414</ele>
        <time>2022-10-19T06:37:16.000Z</time>
      </trkpt>
      <trkpt lat="43.52844" lon="5.64267">
        <ele>414</ele>
        <time>2022-10-19T06:37:17.000Z</time>
      </trkpt>
      <trkpt lat="43.52845" lon="5.64267">
        <ele>414</ele>
        <time>2022-10-19T06:37:18.000Z</time>
      </trkpt>
      <trkpt lat="43.52846" lon="5.64266">
        <ele>414</ele>
        <time>2022-10-19T06:37:19.000Z</time>
      </trkpt>
      <trkpt lat="43.52847" lon="5.64266">
        <ele>414</ele>
        <time>2022-10-19T06:37:20.000Z</time>
      </trkpt>
      <trkpt lat="43.52847" lon="5.64266">
        <ele>414</ele>
        <time>2022-10-19T06:37:21.000Z</time>
      </trkpt>
      <trkpt lat="43.52848" lon="5.64265">
        <ele>414</ele>
        <time>2022-10-19T06:37:22.000Z</time>
      </trkpt>
      <trkpt lat="43.52849" lon="5.64265">
        <ele>414</ele>
        <time>2022-10-19T06:37:23.000Z</time>
      </trkpt>
      <trkpt lat="43.5285" lon="5.64265">
        <ele>414</ele>
        <time>2022-10-19T06:37:24.000Z</time>
      </trkpt>
      <trkpt lat="43.52851" lon="5.64264">
        <ele>414</ele>
        <time>2022-10-19T06:37:25.000Z</time>
      </trkpt>
      <trkpt lat="43.52852" lon="5.64264">
        <ele>414</ele>
        <time>2022-10-19T06:37:26.000Z</time>
      </trkpt>
      <trkpt lat="43.52853" lon="5.64264">
        <ele>414</ele>
        <time>2022-10-19T06:37:27.000Z</time>
      </trkpt>
      <trkpt lat="43.52854" lon="5.64264">
        <ele>414</ele>
        <time>2022-10-19T06:37:28.000Z</time>
      </trkpt>
      <trkpt lat="43.52855" lon="5.64263">
        <ele>415</ele>
        <time>2022-10-19T06:37:29.000Z</time>
      </trkpt>
      <trkpt lat="43.52856" lon="5.64263">
        <ele>415</ele>
        <time>2022-10-19T06:37:30.000Z</time>
      </trkpt>
      <trkpt lat="43.52857" lon="5.64263">
        <ele>415</ele>
        <time>2022-10-19T06:37:31.000Z</time>
      </trkpt>
      <trkpt lat="43.52858" lon="5.64263">
        <ele>415</ele>
        <time>2022-10-19T06:37:32.000Z</time>
      </trkpt>
      <trkpt lat="43.52859" lon="5.64262">
        <ele>415</ele>
        <time>2022-10-19T06:37:33.000Z</time>
      </trkpt>
      <trkpt lat="43.5286" lon="5.64262">
        <ele>415</ele>
        <time>2022-10-19T06:37:34.000Z</time>
      </trkpt>
      <trkpt lat="43.52861" lon="5.64262">
        <ele>415</ele>
        <time>2022-10-19T06:37:35.000Z</time>
      </trkpt>
      <trkpt lat="43.52862" lon="5.64262">
        <ele>415</ele>
        <time>2022-10-19T06:37:36.000Z</time>
      </trkpt>
      <trkpt lat="43.52862" lon="5.64262">
        <ele>415</ele>
        <time>2022-10-19T06:37:37.000Z</time>
      </trkpt>
      <trkpt lat="43.52863" lon="5.64262">
        <ele>415</ele>
        <time>2022-10-19T06:37:38.000Z</time>
      </trkpt>
      <trkpt lat="43.52864" lon="5.64262">
        <ele>415</ele>
        <time>2022-10-19T06:37:39.000Z</time>
      </trkpt>
      <trkpt lat="43.52865" lon="5.64262">
        <ele>415</ele>
        <time>2022-10-19T06:37:40.000Z</time>
      </trkpt>
      <trkpt lat="43.52866" lon="5.64261">
        <ele>415</ele>
        <time>2022-10-19T06:37:41.000Z</time>
      </trkpt>
      <trkpt lat="43.52867" lon="5.64261">
        <ele>415</ele>
        <time>2022-10-19T06:37:42.000Z</time>
      </trkpt>
      <trkpt lat="43.52868" lon="5.64261">
        <ele>416</ele>
        <time>2022-10-19T06:37:43.000Z</time>
      </trkpt>
      <trkpt lat="43.52869" lon="5.64261">
        <ele>416</ele>
        <time>2022-10-19T06:37:44.000Z</time>
      </trkpt>
      <trkpt lat="43.5287" lon="5.64261">
        <ele>416</ele>
        <time>2022-10-19T06:37:45.000Z</time>
      </trkpt>
      <trkpt lat="43.52871" lon="5.64261">
        <ele>416</ele>
        <time>2022-10-19T06:37:46.000Z</time>
      </trkpt>
      <trkpt lat="43.52872" lon="5.64261">
        <ele>416</ele>
        <time>2022-10-19T06:37:47.000Z</time>
      </trkpt>
      <trkpt lat="43.52873" lon="5.6426">
        <ele>416</ele>
        <time>2022-10-19T06:37:48.000Z</time>
      </trkpt>
      <trkpt lat="43.52874" lon="5.6426">
        <ele>416</ele>
        <time>2022-10-19T06:37:49.000Z</time>
      </trkpt>
      <trkpt lat="43.52875" lon="5.6426">
        <ele>416</ele>
        <time>2022-10-19T06:37:50.000Z</time>
      </trkpt>
      <trkpt lat="43.52876" lon="5.6426">
        <ele>416</ele>
        <time>2022-10-19T06:37:51.000Z</time>
      </trkpt>
      <trkpt lat="43.52876" lon="5.6426">
        <ele>416</ele>
        <time>2022-10-19T06:37:52.000Z</time>
      </trkpt>
      <trkpt lat="43.52877" lon="5.6426">
        <ele>416</ele>
        <time>2022-10-19T06:37:53.000Z</time>
      </trkpt>
      <trkpt lat="43.52878" lon="5.6426">
        <ele>416</ele>
        <time>2022-10-19T06:37:54.000Z</time>
      </trkpt>
      <trkpt lat="43.52879" lon="5.6426">
        <ele>416</ele>
        <time>2022-10-19T06:37:55.000Z</time>
      </trkpt>
      <trkpt lat="43.5288" lon="5.6426">
        <ele>416</ele>
        <time>2022-10-19T06:37:56.000Z</time>
      </trkpt>
      <trkpt lat="43.52881" lon="5.6426">
        <ele>416</ele>
        <time>2022-10-19T06:37:57.000Z</time>
      </trkpt>
      <trkpt lat="43.52882" lon="5.64259">
        <ele>416</ele>
        <time>2022-10-19T06:37:58.000Z</time>
      </trkpt>
      <trkpt lat="43.52883" lon="5.64259">
        <ele>416</ele>
        <time>2022-10-19T06:37:59.000Z</time>
      </trkpt>
      <trkpt lat="43.52883" lon="5.64259">
        <ele>416</ele>
        <time>2022-10-19T06:38:00.000Z</time>
      </trkpt>
      <trkpt lat="43.52884" lon="5.64259">
        <ele>416</ele>
        <time>2022-10-19T06:38:01.000Z</time>
      </trkpt>
      <trkpt lat="43.52885" lon="5.64259">
        <ele>416</ele>
        <time>2022-10-19T06:38:02.000Z</time>
      </trkpt>
      <trkpt lat="43.52886" lon="5.64259">
        <ele>417</ele>
        <time>2022-10-19T06:38:03.000Z</time>
      </trkpt>
      <trkpt lat="43.52887" lon="5.64259">
        <ele>417</ele>
        <time>2022-10-19T06:38:04.000Z</time>
      </trkpt>
      <trkpt lat="43.52888" lon="5.64259">
        <ele>417</ele>
        <time>2022-10-19T06:38:05.000Z</time>
      </trkpt>
      <trkpt lat="43.52889" lon="5.64259">
        <ele>417</ele>
        <time>2022-10-19T06:38:06.000Z</time>
      </trkpt>
      <trkpt lat="43.52889" lon="5.64259">
        <ele>417</ele>
        <time>2022-10-19T06:38:07.000Z</time>
      </trkpt>
      <trkpt lat="43.5289" lon="5.64259">
        <ele>417</ele>
        <time>2022-10-19T06:38:08.000Z</time>
      </trkpt>
      <trkpt lat="43.52891" lon="5.64259">
        <ele>417</ele>
        <time>2022-10-19T06:38:09.000Z</time>
      </trkpt>
      <trkpt lat="43.52892" lon="5.64259">
        <ele>417</ele>
        <time>2022-10-19T06:38:10.000Z</time>
      </trkpt>
      <trkpt lat="43.52893" lon="5.64259">
        <ele>418</ele>
        <time>2022-10-19T06:38:11.000Z</time>
      </trkpt>
      <trkpt lat="43.52894" lon="5.64259">
        <ele>418</ele>
        <time>2022-10-19T06:38:12.000Z</time>
      </trkpt>
      <trkpt lat="43.52895" lon="5.64259">
        <ele>418</ele>
        <time>2022-10-19T06:38:13.000Z</time>
      </trkpt>
      <trkpt lat="43.52896" lon="5.64259">
        <ele>418</ele>
        <time>2022-10-19T06:38:14.000Z</time>
      </trkpt>
      <trkpt lat="43.52897" lon="5.64259">
        <ele>418</ele>
        <time>2022-10-19T06:38:15.000Z</time>
      </trkpt>
      <trkpt lat="43.52898" lon="5.64259">
        <ele>418</ele>
        <time>2022-10-19T06:38:16.000Z</time>
      </trkpt>
      <trkpt lat="43.52899" lon="5.64259">
        <ele>418</ele>
        <time>2022-10-19T06:38:17.000Z</time>
      </trkpt>
      <trkpt lat="43.529" lon="5.64258">
        <ele>419</ele>
        <time>2022-10-19T06:38:18.000Z</time>
      </trkpt>
      <trkpt lat="43.52901" lon="5.64258">
        <ele>419</ele>
        <time>2022-10-19T06:38:19.000Z</time>
      </trkpt>
      <trkpt lat="43.52902" lon="5.64258">
        <ele>419</ele>
        <time>2022-10-19T06:38:20.000Z</time>
      </trkpt>
      <trkpt lat="43.52902" lon="5.64258">
        <ele>419</ele>
        <time>2022-10-19T06:38:21.000Z</time>
      </trkpt>
      <trkpt lat="43.52903" lon="5.64258">
        <ele>419</ele>
        <time>2022-10-19T06:38:22.000Z</time>
      </trkpt>
      <trkpt lat="43.52904" lon="5.64258">
        <ele>419</ele>
        <time>2022-10-19T06:38:23.000Z</time>
      </trkpt>
      <trkpt lat="43.52905" lon="5.64258">
        <ele>419</ele>
        <time>2022-10-19T06:38:24.000Z</time>
      </trkpt>
      <trkpt lat="43.52906" lon="5.64258">
        <ele>419</ele>
        <time>2022-10-19T06:38:25.000Z</time>
      </trkpt>
      <trkpt lat="43.52907" lon="5.64258">
        <ele>420</ele>
        <time>2022-10-19T06:38:26.000Z</time>
      </trkpt>
      <trkpt lat="43.52907" lon="5.64258">
        <ele>420</ele>
        <time>2022-10-19T06:38:27.000Z</time>
      </trkpt>
      <trkpt lat="43.52908" lon="5.64258">
        <ele>420</ele>
        <time>2022-10-19T06:38:28.000Z</time>
      </trkpt>
      <trkpt lat="43.52909" lon="5.64257">
        <ele>420</ele>
        <time>2022-10-19T06:38:29.000Z</time>
      </trkpt>
      <trkpt lat="43.5291" lon="5.64257">
        <ele>420</ele>
        <time>2022-10-19T06:38:30.000Z</time>
      </trkpt>
      <trkpt lat="43.52911" lon="5.64257">
        <ele>420</ele>
        <time>2022-10-19T06:38:31.000Z</time>
      </trkpt>
      <trkpt lat="43.52912" lon="5.64257">
        <ele>420</ele>
        <time>2022-10-19T06:38:32.000Z</time>
      </trkpt>
      <trkpt lat="43.52913" lon="5.64257">
        <ele>420</ele>
        <time>2022-10-19T06:38:33.000Z</time>
      </trkpt>
      <trkpt lat="43.52913" lon="5.64257">
        <ele>420</ele>
        <time>2022-10-19T06:38:34.000Z</time>
      </trkpt>
      <trkpt lat="43.52914" lon="5.64257">
        <ele>421</ele>
        <time>2022-10-19T06:38:35.000Z</time>
      </trkpt>
      <trkpt lat="43.52915" lon="5.64256">
        <ele>421</ele>
        <time>2022-10-19T06:38:36.000Z</time>
      </trkpt>
      <trkpt lat="43.52916" lon="5.64256">
        <ele>421</ele>
        <time>2022-10-19T06:38:37.000Z</time>
      </trkpt>
      <trkpt lat="43.52916" lon="5.64256">
        <ele>421</ele>
        <time>2022-10-19T06:38:38.000Z</time>
      </trkpt>
      <trkpt lat="43.52917" lon="5.64256">
        <ele>421</ele>
        <time>2022-10-19T06:38:39.000Z</time>
      </trkpt>
      <trkpt lat="43.52918" lon="5.64256">
        <ele>421</ele>
        <time>2022-10-19T06:38:40.000Z</time>
      </trkpt>
      <trkpt lat="43.52919" lon="5.64256">
        <ele>421</ele>
        <time>2022-10-19T06:38:41.000Z</time>
      </trkpt>
      <trkpt lat="43.5292" lon="5.64256">
        <ele>421</ele>
        <time>2022-10-19T06:38:42.000Z</time>
      </trkpt>
      <trkpt lat="43.52921" lon="5.64256">
        <ele>422</ele>
        <time>2022-10-19T06:38:43.000Z</time>
      </trkpt>
      <trkpt lat="43.52921" lon="5.64255">
        <ele>422</ele>
        <time>2022-10-19T06:38:44.000Z</time>
      </trkpt>
      <trkpt lat="43.52922" lon="5.64255">
        <ele>422</ele>
        <time>2022-10-19T06:38:45.000Z</time>
      </trkpt>
      <trkpt lat="43.52923" lon="5.64255">
        <ele>422</ele>
        <time>2022-10-19T06:38:46.000Z</time>
      </trkpt>
      <trkpt lat="43.52924" lon="5.64255">
        <ele>422</ele>
        <time>2022-10-19T06:38:47.000Z</time>
      </trkpt>
      <trkpt lat="43.52925" lon="5.64255">
        <ele>422</ele>
        <time>2022-10-19T06:38:48.000Z</time>
      </trkpt>
      <trkpt lat="43.52926" lon="5.64255">
        <ele>422</ele>
        <time>2022-10-19T06:38:49.000Z</time>
      </trkpt>
      <trkpt lat="43.52927" lon="5.64256">
        <ele>422</ele>
        <time>2022-10-19T06:38:50.000Z</time>
      </trkpt>
      <trkpt lat="43.52927" lon="5.64256">
        <ele>422</ele>
        <time>2022-10-19T06:38:51.000Z</time>
      </trkpt>
      <trkpt lat="43.52928" lon="5.64256">
        <ele>422</ele>
        <time>2022-10-19T06:38:52.000Z</time>
      </trkpt>
      <trkpt lat="43.52929" lon="5.64256">
        <ele>423</ele>
        <time>2022-10-19T06:38:53.000Z</time>
      </trkpt>
      <trkpt lat="43.52929" lon="5.64256">
        <ele>423</ele>
        <time>2022-10-19T06:38:54.000Z</time>
      </trkpt>
      <trkpt lat="43.5293" lon="5.64256">
        <ele>423</ele>
        <time>2022-10-19T06:38:55.000Z</time>
      </trkpt>
      <trkpt lat="43.52931" lon="5.64256">
        <ele>423</ele>
        <time>2022-10-19T06:38:56.000Z</time>
      </trkpt>
      <trkpt lat="43.52932" lon="5.64257">
        <ele>423</ele>
        <time>2022-10-19T06:38:57.000Z</time>
      </trkpt>
      <trkpt lat="43.52932" lon="5.64257">
        <ele>423</ele>
        <time>2022-10-19T06:38:58.000Z</time>
      </trkpt>
      <trkpt lat="43.52932" lon="5.64257">
        <ele>423</ele>
        <time>2022-10-19T06:38:59.000Z</time>
      </trkpt>
      <trkpt lat="43.52932" lon="5.64257">
        <ele>423</ele>
        <time>2022-10-19T06:39:00.000Z</time>
      </trkpt>
      <trkpt lat="43.52932" lon="5.64257">
        <ele>423</ele>
        <time>2022-10-19T06:39:01.000Z</time>
      </trkpt>
      <trkpt lat="43.52932" lon="5.64257">
        <ele>423</ele>
        <time>2022-10-19T06:39:02.000Z</time>
      </trkpt>
      <trkpt lat="43.52932" lon="5.64257">
        <ele>423</ele>
        <time>2022-10-19T06:39:03.000Z</time>
      </trkpt>
      <trkpt lat="43.52932" lon="5.64257">
        <ele>423</ele>
        <time>2022-10-19T06:39:04.000Z</time>
      </trkpt>
      <trkpt lat="43.52932" lon="5.64257">
        <ele>423</ele>
        <time>2022-10-19T06:39:05.000Z</time>
      </trkpt>
      <trkpt lat="43.52932" lon="5.64257">
        <ele>423</ele>
        <time>2022-10-19T06:39:06.000Z</time>
      </trkpt>
      <trkpt lat="43.52932" lon="5.64257">
        <ele>423</ele>
        <time>2022-10-19T06:39:07.000Z</time>
      </trkpt>
      <trkpt lat="43.52932" lon="5.64257">
        <ele>423</ele>
        <time>2022-10-19T06:39:08.000Z</time>
      </trkpt>
      <trkpt lat="43.52932" lon="5.64257">
        <ele>423</ele>
        <time>2022-10-19T06:39:09.000Z</time>
      </trkpt>
      <trkpt lat="43.52932" lon="5.64257">
        <ele>423</ele>
        <time>2022-10-19T06:39:10.000Z</time>
      </trkpt>
      <trkpt lat="43.52932" lon="5.64257">
        <ele>424</ele>
        <time>2022-10-19T06:39:11.000Z</time>
      </trkpt>
      <trkpt lat="43.52932" lon="5.64257">
        <ele>424</ele>
        <time>2022-10-19T06:39:12.000Z</time>
      </trkpt>
      <trkpt lat="43.52932" lon="5.64257">
        <ele>424</ele>
        <time>2022-10-19T06:39:13.000Z</time>
      </trkpt>
      <trkpt lat="43.52932" lon="5.64257">
        <ele>424</ele>
        <time>2022-10-19T06:39:14.000Z</time>
      </trkpt>
      <trkpt lat="43.52932" lon="5.64257">
        <ele>424</ele>
        <time>2022-10-19T06:39:15.000Z</time>
      </trkpt>
      <trkpt lat="43.52933" lon="5.64256">
        <ele>424</ele>
        <time>2022-10-19T06:39:16.000Z</time>
      </trkpt>
      <trkpt lat="43.52933" lon="5.64256">
        <ele>424</ele>
        <time>2022-10-19T06:39:17.000Z</time>
      </trkpt>
      <trkpt lat="43.52934" lon="5.64256">
        <ele>424</ele>
        <time>2022-10-19T06:39:18.000Z</time>
      </trkpt>
      <trkpt lat="43.52934" lon="5.64256">
        <ele>424</ele>
        <time>2022-10-19T06:39:19.000Z</time>
      </trkpt>
      <trkpt lat="43.52935" lon="5.64256">
        <ele>424</ele>
        <time>2022-10-19T06:39:20.000Z</time>
      </trkpt>
      <trkpt lat="43.52936" lon="5.64256">
        <ele>424</ele>
        <time>2022-10-19T06:39:21.000Z</time>
      </trkpt>
      <trkpt lat="43.52937" lon="5.64257">
        <ele>424</ele>
        <time>2022-10-19T06:39:22.000Z</time>
      </trkpt>
      <trkpt lat="43.52937" lon="5.64258">
        <ele>424</ele>
        <time>2022-10-19T06:39:23.000Z</time>
      </trkpt>
      <trkpt lat="43.52938" lon="5.64259">
        <ele>424</ele>
        <time>2022-10-19T06:39:24.000Z</time>
      </trkpt>
      <trkpt lat="43.52938" lon="5.6426">
        <ele>424</ele>
        <time>2022-10-19T06:39:25.000Z</time>
      </trkpt>
      <trkpt lat="43.52939" lon="5.64261">
        <ele>424</ele>
        <time>2022-10-19T06:39:26.000Z</time>
      </trkpt>
      <trkpt lat="43.52939" lon="5.64261">
        <ele>425</ele>
        <time>2022-10-19T06:39:27.000Z</time>
      </trkpt>
      <trkpt lat="43.5294" lon="5.64262">
        <ele>425</ele>
        <time>2022-10-19T06:39:28.000Z</time>
      </trkpt>
      <trkpt lat="43.5294" lon="5.64263">
        <ele>425</ele>
        <time>2022-10-19T06:39:29.000Z</time>
      </trkpt>
      <trkpt lat="43.52941" lon="5.64264">
        <ele>425</ele>
        <time>2022-10-19T06:39:30.000Z</time>
      </trkpt>
      <trkpt lat="43.52941" lon="5.64265">
        <ele>425</ele>
        <time>2022-10-19T06:39:31.000Z</time>
      </trkpt>
      <trkpt lat="43.52942" lon="5.64267">
        <ele>425</ele>
        <time>2022-10-19T06:39:32.000Z</time>
      </trkpt>
      <trkpt lat="43.52942" lon="5.64267">
        <ele>425</ele>
        <time>2022-10-19T06:39:33.000Z</time>
      </trkpt>
      <trkpt lat="43.52943" lon="5.64268">
        <ele>425</ele>
        <time>2022-10-19T06:39:34.000Z</time>
      </trkpt>
      <trkpt lat="43.52944" lon="5.64269">
        <ele>425</ele>
        <time>2022-10-19T06:39:35.000Z</time>
      </trkpt>
      <trkpt lat="43.52944" lon="5.64269">
        <ele>425</ele>
        <time>2022-10-19T06:39:36.000Z</time>
      </trkpt>
      <trkpt lat="43.52945" lon="5.64269">
        <ele>425</ele>
        <time>2022-10-19T06:39:37.000Z</time>
      </trkpt>
      <trkpt lat="43.52946" lon="5.64269">
        <ele>425</ele>
        <time>2022-10-19T06:39:38.000Z</time>
      </trkpt>
      <trkpt lat="43.52947" lon="5.64269">
        <ele>425</ele>
        <time>2022-10-19T06:39:39.000Z</time>
      </trkpt>
      <trkpt lat="43.52947" lon="5.64269">
        <ele>425</ele>
        <time>2022-10-19T06:39:40.000Z</time>
      </trkpt>
      <trkpt lat="43.52948" lon="5.64268">
        <ele>425</ele>
        <time>2022-10-19T06:39:41.000Z</time>
      </trkpt>
      <trkpt lat="43.52949" lon="5.64268">
        <ele>426</ele>
        <time>2022-10-19T06:39:42.000Z</time>
      </trkpt>
      <trkpt lat="43.52949" lon="5.64267">
        <ele>426</ele>
        <time>2022-10-19T06:39:43.000Z</time>
      </trkpt>
      <trkpt lat="43.5295" lon="5.64267">
        <ele>426</ele>
        <time>2022-10-19T06:39:44.000Z</time>
      </trkpt>
      <trkpt lat="43.52951" lon="5.64267">
        <ele>426</ele>
        <time>2022-10-19T06:39:45.000Z</time>
      </trkpt>
      <trkpt lat="43.52952" lon="5.64266">
        <ele>426</ele>
        <time>2022-10-19T06:39:46.000Z</time>
      </trkpt>
      <trkpt lat="43.52952" lon="5.64266">
        <ele>426</ele>
        <time>2022-10-19T06:39:47.000Z</time>
      </trkpt>
      <trkpt lat="43.52953" lon="5.64266">
        <ele>427</ele>
        <time>2022-10-19T06:39:48.000Z</time>
      </trkpt>
      <trkpt lat="43.52954" lon="5.64265">
        <ele>427</ele>
        <time>2022-10-19T06:39:49.000Z</time>
      </trkpt>
      <trkpt lat="43.52954" lon="5.64265">
        <ele>427</ele>
        <time>2022-10-19T06:39:50.000Z</time>
      </trkpt>
      <trkpt lat="43.52955" lon="5.64264">
        <ele>427</ele>
        <time>2022-10-19T06:39:51.000Z</time>
      </trkpt>
      <trkpt lat="43.52955" lon="5.64263">
        <ele>427</ele>
        <time>2022-10-19T06:39:52.000Z</time>
      </trkpt>
      <trkpt lat="43.52956" lon="5.64263">
        <ele>427</ele>
        <time>2022-10-19T06:39:53.000Z</time>
      </trkpt>
      <trkpt lat="43.52956" lon="5.64262">
        <ele>427</ele>
        <time>2022-10-19T06:39:54.000Z</time>
      </trkpt>
      <trkpt lat="43.52957" lon="5.64262">
        <ele>427</ele>
        <time>2022-10-19T06:39:55.000Z</time>
      </trkpt>
      <trkpt lat="43.52958" lon="5.64262">
        <ele>428</ele>
        <time>2022-10-19T06:39:56.000Z</time>
      </trkpt>
      <trkpt lat="43.52959" lon="5.64261">
        <ele>428</ele>
        <time>2022-10-19T06:39:57.000Z</time>
      </trkpt>
      <trkpt lat="43.52959" lon="5.64261">
        <ele>428</ele>
        <time>2022-10-19T06:39:58.000Z</time>
      </trkpt>
      <trkpt lat="43.5296" lon="5.6426">
        <ele>428</ele>
        <time>2022-10-19T06:39:59.000Z</time>
      </trkpt>
      <trkpt lat="43.5296" lon="5.6426">
        <ele>428</ele>
        <time>2022-10-19T06:40:00.000Z</time>
      </trkpt>
      <trkpt lat="43.52961" lon="5.64259">
        <ele>428</ele>
        <time>2022-10-19T06:40:01.000Z</time>
      </trkpt>
      <trkpt lat="43.52961" lon="5.64258">
        <ele>428</ele>
        <time>2022-10-19T06:40:02.000Z</time>
      </trkpt>
      <trkpt lat="43.52962" lon="5.64258">
        <ele>429</ele>
        <time>2022-10-19T06:40:03.000Z</time>
      </trkpt>
      <trkpt lat="43.52963" lon="5.64257">
        <ele>429</ele>
        <time>2022-10-19T06:40:04.000Z</time>
      </trkpt>
      <trkpt lat="43.52963" lon="5.64256">
        <ele>429</ele>
        <time>2022-10-19T06:40:05.000Z</time>
      </trkpt>
      <trkpt lat="43.52964" lon="5.64255">
        <ele>429</ele>
        <time>2022-10-19T06:40:06.000Z</time>
      </trkpt>
      <trkpt lat="43.52964" lon="5.64254">
        <ele>429</ele>
        <time>2022-10-19T06:40:07.000Z</time>
      </trkpt>
      <trkpt lat="43.52965" lon="5.64253">
        <ele>429</ele>
        <time>2022-10-19T06:40:08.000Z</time>
      </trkpt>
      <trkpt lat="43.52965" lon="5.64253">
        <ele>429</ele>
        <time>2022-10-19T06:40:09.000Z</time>
      </trkpt>
      <trkpt lat="43.52966" lon="5.64252">
        <ele>430</ele>
        <time>2022-10-19T06:40:10.000Z</time>
      </trkpt>
      <trkpt lat="43.52966" lon="5.64251">
        <ele>430</ele>
        <time>2022-10-19T06:40:11.000Z</time>
      </trkpt>
      <trkpt lat="43.52967" lon="5.6425">
        <ele>430</ele>
        <time>2022-10-19T06:40:12.000Z</time>
      </trkpt>
      <trkpt lat="43.52967" lon="5.6425">
        <ele>430</ele>
        <time>2022-10-19T06:40:13.000Z</time>
      </trkpt>
      <trkpt lat="43.52968" lon="5.6425">
        <ele>430</ele>
        <time>2022-10-19T06:40:14.000Z</time>
      </trkpt>
      <trkpt lat="43.52968" lon="5.64251">
        <ele>431</ele>
        <time>2022-10-19T06:40:15.000Z</time>
      </trkpt>
      <trkpt lat="43.52969" lon="5.64251">
        <ele>431</ele>
        <time>2022-10-19T06:40:16.000Z</time>
      </trkpt>
      <trkpt lat="43.52969" lon="5.64251">
        <ele>431</ele>
        <time>2022-10-19T06:40:17.000Z</time>
      </trkpt>
      <trkpt lat="43.52969" lon="5.64252">
        <ele>431</ele>
        <time>2022-10-19T06:40:18.000Z</time>
      </trkpt>
      <trkpt lat="43.5297" lon="5.64253">
        <ele>431</ele>
        <time>2022-10-19T06:40:19.000Z</time>
      </trkpt>
      <trkpt lat="43.5297" lon="5.64253">
        <ele>431</ele>
        <time>2022-10-19T06:40:20.000Z</time>
      </trkpt>
      <trkpt lat="43.52971" lon="5.64254">
        <ele>431</ele>
        <time>2022-10-19T06:40:21.000Z</time>
      </trkpt>
      <trkpt lat="43.52971" lon="5.64255">
        <ele>431</ele>
        <time>2022-10-19T06:40:22.000Z</time>
      </trkpt>
      <trkpt lat="43.52972" lon="5.64256">
        <ele>431</ele>
        <time>2022-10-19T06:40:23.000Z</time>
      </trkpt>
      <trkpt lat="43.52972" lon="5.64257">
        <ele>432</ele>
        <time>2022-10-19T06:40:24.000Z</time>
      </trkpt>
      <trkpt lat="43.52972" lon="5.64258">
        <ele>432</ele>
        <time>2022-10-19T06:40:25.000Z</time>
      </trkpt>
      <trkpt lat="43.52973" lon="5.64258">
        <ele>432</ele>
        <time>2022-10-19T06:40:26.000Z</time>
      </trkpt>
      <trkpt lat="43.52973" lon="5.64259">
        <ele>432</ele>
        <time>2022-10-19T06:40:27.000Z</time>
      </trkpt>
      <trkpt lat="43.52973" lon="5.6426">
        <ele>432</ele>
        <time>2022-10-19T06:40:28.000Z</time>
      </trkpt>
      <trkpt lat="43.52974" lon="5.6426">
        <ele>432</ele>
        <time>2022-10-19T06:40:29.000Z</time>
      </trkpt>
      <trkpt lat="43.52974" lon="5.64261">
        <ele>432</ele>
        <time>2022-10-19T06:40:30.000Z</time>
      </trkpt>
      <trkpt lat="43.52975" lon="5.64262">
        <ele>432</ele>
        <time>2022-10-19T06:40:31.000Z</time>
      </trkpt>
      <trkpt lat="43.52975" lon="5.64263">
        <ele>432</ele>
        <time>2022-10-19T06:40:32.000Z</time>
      </trkpt>
      <trkpt lat="43.52975" lon="5.64264">
        <ele>432</ele>
        <time>2022-10-19T06:40:33.000Z</time>
      </trkpt>
      <trkpt lat="43.52976" lon="5.64265">
        <ele>432</ele>
        <time>2022-10-19T06:40:34.000Z</time>
      </trkpt>
      <trkpt lat="43.52976" lon="5.64265">
        <ele>432</ele>
        <time>2022-10-19T06:40:35.000Z</time>
      </trkpt>
      <trkpt lat="43.52976" lon="5.64266">
        <ele>433</ele>
        <time>2022-10-19T06:40:36.000Z</time>
      </trkpt>
      <trkpt lat="43.52977" lon="5.64267">
        <ele>433</ele>
        <time>2022-10-19T06:40:37.000Z</time>
      </trkpt>
      <trkpt lat="43.52977" lon="5.64267">
        <ele>433</ele>
        <time>2022-10-19T06:40:38.000Z</time>
      </trkpt>
      <trkpt lat="43.52978" lon="5.64268">
        <ele>433</ele>
        <time>2022-10-19T06:40:39.000Z</time>
      </trkpt>
      <trkpt lat="43.52978" lon="5.64269">
        <ele>433</ele>
        <time>2022-10-19T06:40:40.000Z</time>
      </trkpt>
      <trkpt lat="43.52979" lon="5.64269">
        <ele>433</ele>
        <time>2022-10-19T06:40:41.000Z</time>
      </trkpt>
      <trkpt lat="43.52979" lon="5.6427">
        <ele>433</ele>
        <time>2022-10-19T06:40:42.000Z</time>
      </trkpt>
      <trkpt lat="43.5298" lon="5.64271">
        <ele>433</ele>
        <time>2022-10-19T06:40:43.000Z</time>
      </trkpt>
      <trkpt lat="43.5298" lon="5.64271">
        <ele>433</ele>
        <time>2022-10-19T06:40:44.000Z</time>
      </trkpt>
      <trkpt lat="43.52981" lon="5.64272">
        <ele>433</ele>
        <time>2022-10-19T06:40:45.000Z</time>
      </trkpt>
      <trkpt lat="43.52981" lon="5.64272">
        <ele>433</ele>
        <time>2022-10-19T06:40:46.000Z</time>
      </trkpt>
      <trkpt lat="43.52982" lon="5.64273">
        <ele>434</ele>
        <time>2022-10-19T06:40:47.000Z</time>
      </trkpt>
      <trkpt lat="43.52983" lon="5.64273">
        <ele>434</ele>
        <time>2022-10-19T06:40:48.000Z</time>
      </trkpt>
      <trkpt lat="43.52984" lon="5.64274">
        <ele>434</ele>
        <time>2022-10-19T06:40:49.000Z</time>
      </trkpt>
      <trkpt lat="43.52984" lon="5.64275">
        <ele>434</ele>
        <time>2022-10-19T06:40:50.000Z</time>
      </trkpt>
      <trkpt lat="43.52985" lon="5.64275">
        <ele>434</ele>
        <time>2022-10-19T06:40:51.000Z</time>
      </trkpt>
      <trkpt lat="43.52985" lon="5.64276">
        <ele>434</ele>
        <time>2022-10-19T06:40:52.000Z</time>
      </trkpt>
      <trkpt lat="43.52986" lon="5.64276">
        <ele>434</ele>
        <time>2022-10-19T06:40:53.000Z</time>
      </trkpt>
      <trkpt lat="43.52986" lon="5.64277">
        <ele>434</ele>
        <time>2022-10-19T06:40:54.000Z</time>
      </trkpt>
      <trkpt lat="43.52987" lon="5.64277">
        <ele>434</ele>
        <time>2022-10-19T06:40:55.000Z</time>
      </trkpt>
      <trkpt lat="43.52987" lon="5.64278">
        <ele>434</ele>
        <time>2022-10-19T06:40:56.000Z</time>
      </trkpt>
      <trkpt lat="43.52987" lon="5.64278">
        <ele>435</ele>
        <time>2022-10-19T06:40:57.000Z</time>
      </trkpt>
      <trkpt lat="43.52988" lon="5.64278">
        <ele>435</ele>
        <time>2022-10-19T06:40:58.000Z</time>
      </trkpt>
      <trkpt lat="43.52988" lon="5.64278">
        <ele>435</ele>
        <time>2022-10-19T06:40:59.000Z</time>
      </trkpt>
      <trkpt lat="43.52988" lon="5.64278">
        <ele>435</ele>
        <time>2022-10-19T06:41:00.000Z</time>
      </trkpt>
      <trkpt lat="43.52988" lon="5.64278">
        <ele>435</ele>
        <time>2022-10-19T06:41:01.000Z</time>
      </trkpt>
      <trkpt lat="43.52988" lon="5.64278">
        <ele>435</ele>
        <time>2022-10-19T06:41:02.000Z</time>
      </trkpt>
      <trkpt lat="43.52988" lon="5.64278">
        <ele>435</ele>
        <time>2022-10-19T06:41:03.000Z</time>
      </trkpt>
      <trkpt lat="43.52988" lon="5.64278">
        <ele>435</ele>
        <time>2022-10-19T06:41:04.000Z</time>
      </trkpt>
      <trkpt lat="43.52988" lon="5.64278">
        <ele>435</ele>
        <time>2022-10-19T06:41:05.000Z</time>
      </trkpt>
      <trkpt lat="43.52988" lon="5.64278">
        <ele>435</ele>
        <time>2022-10-19T06:41:06.000Z</time>
      </trkpt>
      <trkpt lat="43.52988" lon="5.64278">
        <ele>435</ele>
        <time>2022-10-19T06:41:07.000Z</time>
      </trkpt>
      <trkpt lat="43.52988" lon="5.64278">
        <ele>435</ele>
        <time>2022-10-19T06:41:08.000Z</time>
      </trkpt>
      <trkpt lat="43.52988" lon="5.64278">
        <ele>435</ele>
        <time>2022-10-19T06:41:09.000Z</time>
      </trkpt>
      <trkpt lat="43.52988" lon="5.64278">
        <ele>435</ele>
        <time>2022-10-19T06:41:10.000Z</time>
      </trkpt>
      <trkpt lat="43.52988" lon="5.64278">
        <ele>435</ele>
        <time>2022-10-19T06:41:11.000Z</time>
      </trkpt>
      <trkpt lat="43.52988" lon="5.64278">
        <ele>435</ele>
        <time>2022-10-19T06:41:12.000Z</time>
      </trkpt>
      <trkpt lat="43.52988" lon="5.64278">
        <ele>435</ele>
        <time>2022-10-19T06:41:13.000Z</time>
      </trkpt>
      <trkpt lat="43.52988" lon="5.64278">
        <ele>436</ele>
        <time>2022-10-19T06:41:14.000Z</time>
      </trkpt>
      <trkpt lat="43.52988" lon="5.64278">
        <ele>436</ele>
        <time>2022-10-19T06:41:15.000Z</time>
      </trkpt>
      <trkpt lat="43.52988" lon="5.64278">
        <ele>436</ele>
        <time>2022-10-19T06:41:16.000Z</time>
      </trkpt>
      <trkpt lat="43.52988" lon="5.64278">
        <ele>436</ele>
        <time>2022-10-19T06:41:17.000Z</time>
      </trkpt>
      <trkpt lat="43.52988" lon="5.64278">
        <ele>436</ele>
        <time>2022-10-19T06:41:18.000Z</time>
      </trkpt>
      <trkpt lat="43.52988" lon="5.64278">
        <ele>436</ele>
        <time>2022-10-19T06:41:19.000Z</time>
      </trkpt>
      <trkpt lat="43.52988" lon="5.64278">
        <ele>436</ele>
        <time>2022-10-19T06:41:20.000Z</time>
      </trkpt>
      <trkpt lat="43.52989" lon="5.64278">
        <ele>436</ele>
        <time>2022-10-19T06:41:21.000Z</time>
      </trkpt>
      <trkpt lat="43.52989" lon="5.64278">
        <ele>436</ele>
        <time>2022-10-19T06:41:22.000Z</time>
      </trkpt>
      <trkpt lat="43.5299" lon="5.64277">
        <ele>436</ele>
        <time>2022-10-19T06:41:23.000Z</time>
      </trkpt>
      <trkpt lat="43.52991" lon="5.64277">
        <ele>436</ele>
        <time>2022-10-19T06:41:24.000Z</time>
      </trkpt>
      <trkpt lat="43.52992" lon="5.64277">
        <ele>436</ele>
        <time>2022-10-19T06:41:25.000Z</time>
      </trkpt>
      <trkpt lat="43.52993" lon="5.64277">
        <ele>436</ele>
        <time>2022-10-19T06:41:26.000Z</time>
      </trkpt>
      <trkpt lat="43.52993" lon="5.64277">
        <ele>437</ele>
        <time>2022-10-19T06:41:27.000Z</time>
      </trkpt>
      <trkpt lat="43.52994" lon="5.64276">
        <ele>437</ele>
        <time>2022-10-19T06:41:28.000Z</time>
      </trkpt>
      <trkpt lat="43.52995" lon="5.64276">
        <ele>437</ele>
        <time>2022-10-19T06:41:29.000Z</time>
      </trkpt>
      <trkpt lat="43.52995" lon="5.64275">
        <ele>437</ele>
        <time>2022-10-19T06:41:30.000Z</time>
      </trkpt>
      <trkpt lat="43.52996" lon="5.64275">
        <ele>437</ele>
        <time>2022-10-19T06:41:31.000Z</time>
      </trkpt>
      <trkpt lat="43.52996" lon="5.64275">
        <ele>437</ele>
        <time>2022-10-19T06:41:32.000Z</time>
      </trkpt>
      <trkpt lat="43.52997" lon="5.64275">
        <ele>438</ele>
        <time>2022-10-19T06:41:33.000Z</time>
      </trkpt>
      <trkpt lat="43.52998" lon="5.64274">
        <ele>438</ele>
        <time>2022-10-19T06:41:34.000Z</time>
      </trkpt>
      <trkpt lat="43.52998" lon="5.64274">
        <ele>438</ele>
        <time>2022-10-19T06:41:35.000Z</time>
      </trkpt>
      <trkpt lat="43.52999" lon="5.64274">
        <ele>438</ele>
        <time>2022-10-19T06:41:36.000Z</time>
      </trkpt>
      <trkpt lat="43.53" lon="5.64273">
        <ele>439</ele>
        <time>2022-10-19T06:41:37.000Z</time>
      </trkpt>
      <trkpt lat="43.53" lon="5.64273">
        <ele>439</ele>
        <time>2022-10-19T06:41:38.000Z</time>
      </trkpt>
      <trkpt lat="43.53001" lon="5.64273">
        <ele>439</ele>
        <time>2022-10-19T06:41:39.000Z</time>
      </trkpt>
      <trkpt lat="43.53002" lon="5.64273">
        <ele>439</ele>
        <time>2022-10-19T06:41:40.000Z</time>
      </trkpt>
      <trkpt lat="43.53002" lon="5.64273">
        <ele>439</ele>
        <time>2022-10-19T06:41:41.000Z</time>
      </trkpt>
      <trkpt lat="43.53003" lon="5.64273">
        <ele>439</ele>
        <time>2022-10-19T06:41:42.000Z</time>
      </trkpt>
      <trkpt lat="43.53004" lon="5.64273">
        <ele>439</ele>
        <time>2022-10-19T06:41:43.000Z</time>
      </trkpt>
      <trkpt lat="43.53004" lon="5.64273">
        <ele>439</ele>
        <time>2022-10-19T06:41:44.000Z</time>
      </trkpt>
      <trkpt lat="43.53005" lon="5.64273">
        <ele>440</ele>
        <time>2022-10-19T06:41:45.000Z</time>
      </trkpt>
      <trkpt lat="43.53006" lon="5.64273">
        <ele>440</ele>
        <time>2022-10-19T06:41:46.000Z</time>
      </trkpt>
      <trkpt lat="43.53006" lon="5.64273">
        <ele>440</ele>
        <time>2022-10-19T06:41:47.000Z</time>
      </trkpt>
      <trkpt lat="43.53007" lon="5.64272">
        <ele>440</ele>
        <time>2022-10-19T06:41:48.000Z</time>
      </trkpt>
      <trkpt lat="43.53008" lon="5.64272">
        <ele>440</ele>
        <time>2022-10-19T06:41:49.000Z</time>
      </trkpt>
      <trkpt lat="43.53008" lon="5.64272">
        <ele>440</ele>
        <time>2022-10-19T06:41:50.000Z</time>
      </trkpt>
      <trkpt lat="43.53009" lon="5.64271">
        <ele>440</ele>
        <time>2022-10-19T06:41:51.000Z</time>
      </trkpt>
      <trkpt lat="43.5301" lon="5.6427">
        <ele>440</ele>
        <time>2022-10-19T06:41:52.000Z</time>
      </trkpt>
      <trkpt lat="43.5301" lon="5.6427">
        <ele>441</ele>
        <time>2022-10-19T06:41:53.000Z</time>
      </trkpt>
      <trkpt lat="43.53011" lon="5.64269">
        <ele>441</ele>
        <time>2022-10-19T06:41:54.000Z</time>
      </trkpt>
      <trkpt lat="43.53011" lon="5.64269">
        <ele>441</ele>
        <time>2022-10-19T06:41:55.000Z</time>
      </trkpt>
      <trkpt lat="43.53012" lon="5.64268">
        <ele>441</ele>
        <time>2022-10-19T06:41:56.000Z</time>
      </trkpt>
      <trkpt lat="43.53012" lon="5.64268">
        <ele>441</ele>
        <time>2022-10-19T06:41:57.000Z</time>
      </trkpt>
      <trkpt lat="43.53013" lon="5.64267">
        <ele>441</ele>
        <time>2022-10-19T06:41:58.000Z</time>
      </trkpt>
      <trkpt lat="43.53013" lon="5.64266">
        <ele>441</ele>
        <time>2022-10-19T06:41:59.000Z</time>
      </trkpt>
      <trkpt lat="43.53014" lon="5.64266">
        <ele>442</ele>
        <time>2022-10-19T06:42:00.000Z</time>
      </trkpt>
      <trkpt lat="43.53015" lon="5.64265">
        <ele>442</ele>
        <time>2022-10-19T06:42:01.000Z</time>
      </trkpt>
      <trkpt lat="43.53015" lon="5.64265">
        <ele>442</ele>
        <time>2022-10-19T06:42:02.000Z</time>
      </trkpt>
      <trkpt lat="43.53016" lon="5.64264">
        <ele>442</ele>
        <time>2022-10-19T06:42:03.000Z</time>
      </trkpt>
      <trkpt lat="43.53017" lon="5.64263">
        <ele>442</ele>
        <time>2022-10-19T06:42:04.000Z</time>
      </trkpt>
      <trkpt lat="43.53017" lon="5.64263">
        <ele>442</ele>
        <time>2022-10-19T06:42:05.000Z</time>
      </trkpt>
      <trkpt lat="43.53018" lon="5.64262">
        <ele>442</ele>
        <time>2022-10-19T06:42:06.000Z</time>
      </trkpt>
      <trkpt lat="43.53018" lon="5.64261">
        <ele>442</ele>
        <time>2022-10-19T06:42:07.000Z</time>
      </trkpt>
      <trkpt lat="43.53019" lon="5.6426">
        <ele>443</ele>
        <time>2022-10-19T06:42:08.000Z</time>
      </trkpt>
      <trkpt lat="43.53019" lon="5.6426">
        <ele>443</ele>
        <time>2022-10-19T06:42:09.000Z</time>
      </trkpt>
      <trkpt lat="43.5302" lon="5.64259">
        <ele>443</ele>
        <time>2022-10-19T06:42:10.000Z</time>
      </trkpt>
      <trkpt lat="43.53021" lon="5.64258">
        <ele>443</ele>
        <time>2022-10-19T06:42:11.000Z</time>
      </trkpt>
      <trkpt lat="43.53021" lon="5.64258">
        <ele>443</ele>
        <time>2022-10-19T06:42:12.000Z</time>
      </trkpt>
      <trkpt lat="43.53022" lon="5.64257">
        <ele>443</ele>
        <time>2022-10-19T06:42:13.000Z</time>
      </trkpt>
      <trkpt lat="43.53022" lon="5.64256">
        <ele>443</ele>
        <time>2022-10-19T06:42:14.000Z</time>
      </trkpt>
      <trkpt lat="43.53023" lon="5.64256">
        <ele>443</ele>
        <time>2022-10-19T06:42:15.000Z</time>
      </trkpt>
      <trkpt lat="43.53023" lon="5.64255">
        <ele>444</ele>
        <time>2022-10-19T06:42:16.000Z</time>
      </trkpt>
      <trkpt lat="43.53024" lon="5.64254">
        <ele>444</ele>
        <time>2022-10-19T06:42:17.000Z</time>
      </trkpt>
      <trkpt lat="43.53025" lon="5.64254">
        <ele>444</ele>
        <time>2022-10-19T06:42:18.000Z</time>
      </trkpt>
      <trkpt lat="43.53025" lon="5.64253">
        <ele>444</ele>
        <time>2022-10-19T06:42:19.000Z</time>
      </trkpt>
      <trkpt lat="43.53026" lon="5.64253">
        <ele>444</ele>
        <time>2022-10-19T06:42:20.000Z</time>
      </trkpt>
      <trkpt lat="43.53026" lon="5.64252">
        <ele>444</ele>
        <time>2022-10-19T06:42:21.000Z</time>
      </trkpt>
      <trkpt lat="43.53027" lon="5.64251">
        <ele>444</ele>
        <time>2022-10-19T06:42:22.000Z</time>
      </trkpt>
      <trkpt lat="43.53028" lon="5.64251">
        <ele>445</ele>
        <time>2022-10-19T06:42:23.000Z</time>
      </trkpt>
      <trkpt lat="43.53029" lon="5.6425">
        <ele>445</ele>
        <time>2022-10-19T06:42:24.000Z</time>
      </trkpt>
      <trkpt lat="43.53029" lon="5.6425">
        <ele>445</ele>
        <time>2022-10-19T06:42:25.000Z</time>
      </trkpt>
      <trkpt lat="43.5303" lon="5.6425">
        <ele>445</ele>
        <time>2022-10-19T06:42:26.000Z</time>
      </trkpt>
      <trkpt lat="43.53031" lon="5.6425">
        <ele>445</ele>
        <time>2022-10-19T06:42:27.000Z</time>
      </trkpt>
      <trkpt lat="43.53032" lon="5.64249">
        <ele>445</ele>
        <time>2022-10-19T06:42:28.000Z</time>
      </trkpt>
      <trkpt lat="43.53032" lon="5.64249">
        <ele>445</ele>
        <time>2022-10-19T06:42:29.000Z</time>
      </trkpt>
      <trkpt lat="43.53033" lon="5.64249">
        <ele>445</ele>
        <time>2022-10-19T06:42:30.000Z</time>
      </trkpt>
      <trkpt lat="43.53034" lon="5.64249">
        <ele>445</ele>
        <time>2022-10-19T06:42:31.000Z</time>
      </trkpt>
      <trkpt lat="43.53034" lon="5.64249">
        <ele>445</ele>
        <time>2022-10-19T06:42:32.000Z</time>
      </trkpt>
      <trkpt lat="43.53035" lon="5.64248">
        <ele>446</ele>
        <time>2022-10-19T06:42:33.000Z</time>
      </trkpt>
      <trkpt lat="43.53036" lon="5.64248">
        <ele>446</ele>
        <time>2022-10-19T06:42:34.000Z</time>
      </trkpt>
      <trkpt lat="43.53036" lon="5.64248">
        <ele>446</ele>
        <time>2022-10-19T06:42:35.000Z</time>
      </trkpt>
      <trkpt lat="43.53037" lon="5.64248">
        <ele>446</ele>
        <time>2022-10-19T06:42:36.000Z</time>
      </trkpt>
      <trkpt lat="43.53038" lon="5.64247">
        <ele>446</ele>
        <time>2022-10-19T06:42:37.000Z</time>
      </trkpt>
      <trkpt lat="43.53039" lon="5.64247">
        <ele>446</ele>
        <time>2022-10-19T06:42:38.000Z</time>
      </trkpt>
      <trkpt lat="43.53039" lon="5.64247">
        <ele>446</ele>
        <time>2022-10-19T06:42:39.000Z</time>
      </trkpt>
      <trkpt lat="43.5304" lon="5.64247">
        <ele>446</ele>
        <time>2022-10-19T06:42:40.000Z</time>
      </trkpt>
      <trkpt lat="43.53041" lon="5.64247">
        <ele>446</ele>
        <time>2022-10-19T06:42:41.000Z</time>
      </trkpt>
      <trkpt lat="43.53041" lon="5.64247">
        <ele>446</ele>
        <time>2022-10-19T06:42:42.000Z</time>
      </trkpt>
      <trkpt lat="43.53042" lon="5.64247">
        <ele>446</ele>
        <time>2022-10-19T06:42:43.000Z</time>
      </trkpt>
      <trkpt lat="43.53043" lon="5.64247">
        <ele>446</ele>
        <time>2022-10-19T06:42:44.000Z</time>
      </trkpt>
      <trkpt lat="43.53043" lon="5.64247">
        <ele>447</ele>
        <time>2022-10-19T06:42:45.000Z</time>
      </trkpt>
      <trkpt lat="43.53044" lon="5.64246">
        <ele>447</ele>
        <time>2022-10-19T06:42:46.000Z</time>
      </trkpt>
      <trkpt lat="43.53045" lon="5.64246">
        <ele>447</ele>
        <time>2022-10-19T06:42:47.000Z</time>
      </trkpt>
      <trkpt lat="43.53045" lon="5.64246">
        <ele>447</ele>
        <time>2022-10-19T06:42:48.000Z</time>
      </trkpt>
      <trkpt lat="43.53046" lon="5.64246">
        <ele>447</ele>
        <time>2022-10-19T06:42:49.000Z</time>
      </trkpt>
      <trkpt lat="43.53047" lon="5.64246">
        <ele>447</ele>
        <time>2022-10-19T06:42:50.000Z</time>
      </trkpt>
      <trkpt lat="43.53048" lon="5.64245">
        <ele>447</ele>
        <time>2022-10-19T06:42:51.000Z</time>
      </trkpt>
      <trkpt lat="43.53048" lon="5.64245">
        <ele>447</ele>
        <time>2022-10-19T06:42:52.000Z</time>
      </trkpt>
      <trkpt lat="43.53049" lon="5.64245">
        <ele>448</ele>
        <time>2022-10-19T06:42:53.000Z</time>
      </trkpt>
      <trkpt lat="43.5305" lon="5.64244">
        <ele>448</ele>
        <time>2022-10-19T06:42:54.000Z</time>
      </trkpt>
      <trkpt lat="43.5305" lon="5.64244">
        <ele>448</ele>
        <time>2022-10-19T06:42:55.000Z</time>
      </trkpt>
      <trkpt lat="43.53051" lon="5.64243">
        <ele>448</ele>
        <time>2022-10-19T06:42:56.000Z</time>
      </trkpt>
      <trkpt lat="43.53052" lon="5.64243">
        <ele>448</ele>
        <time>2022-10-19T06:42:57.000Z</time>
      </trkpt>
      <trkpt lat="43.53052" lon="5.64243">
        <ele>448</ele>
        <time>2022-10-19T06:42:58.000Z</time>
      </trkpt>
      <trkpt lat="43.53053" lon="5.64243">
        <ele>448</ele>
        <time>2022-10-19T06:42:59.000Z</time>
      </trkpt>
      <trkpt lat="43.53053" lon="5.64242">
        <ele>449</ele>
        <time>2022-10-19T06:43:00.000Z</time>
      </trkpt>
      <trkpt lat="43.53054" lon="5.64242">
        <ele>449</ele>
        <time>2022-10-19T06:43:01.000Z</time>
      </trkpt>
      <trkpt lat="43.53055" lon="5.64242">
        <ele>449</ele>
        <time>2022-10-19T06:43:02.000Z</time>
      </trkpt>
      <trkpt lat="43.53056" lon="5.64242">
        <ele>449</ele>
        <time>2022-10-19T06:43:03.000Z</time>
      </trkpt>
      <trkpt lat="43.53056" lon="5.64241">
        <ele>449</ele>
        <time>2022-10-19T06:43:04.000Z</time>
      </trkpt>
      <trkpt lat="43.53057" lon="5.64241">
        <ele>449</ele>
        <time>2022-10-19T06:43:05.000Z</time>
      </trkpt>
      <trkpt lat="43.53057" lon="5.64241">
        <ele>449</ele>
        <time>2022-10-19T06:43:06.000Z</time>
      </trkpt>
      <trkpt lat="43.53058" lon="5.64241">
        <ele>450</ele>
        <time>2022-10-19T06:43:07.000Z</time>
      </trkpt>
      <trkpt lat="43.53059" lon="5.64241">
        <ele>450</ele>
        <time>2022-10-19T06:43:08.000Z</time>
      </trkpt>
      <trkpt lat="43.5306" lon="5.64241">
        <ele>450</ele>
        <time>2022-10-19T06:43:09.000Z</time>
      </trkpt>
      <trkpt lat="43.5306" lon="5.6424">
        <ele>450</ele>
        <time>2022-10-19T06:43:10.000Z</time>
      </trkpt>
      <trkpt lat="43.53061" lon="5.6424">
        <ele>450</ele>
        <time>2022-10-19T06:43:11.000Z</time>
      </trkpt>
      <trkpt lat="43.53061" lon="5.6424">
        <ele>450</ele>
        <time>2022-10-19T06:43:12.000Z</time>
      </trkpt>
      <trkpt lat="43.53062" lon="5.64239">
        <ele>450</ele>
        <time>2022-10-19T06:43:13.000Z</time>
      </trkpt>
      <trkpt lat="43.53063" lon="5.64239">
        <ele>450</ele>
        <time>2022-10-19T06:43:14.000Z</time>
      </trkpt>
      <trkpt lat="43.53063" lon="5.64239">
        <ele>451</ele>
        <time>2022-10-19T06:43:15.000Z</time>
      </trkpt>
      <trkpt lat="43.53064" lon="5.64239">
        <ele>451</ele>
        <time>2022-10-19T06:43:16.000Z</time>
      </trkpt>
      <trkpt lat="43.53064" lon="5.64239">
        <ele>451</ele>
        <time>2022-10-19T06:43:17.000Z</time>
      </trkpt>
      <trkpt lat="43.53065" lon="5.64239">
        <ele>451</ele>
        <time>2022-10-19T06:43:18.000Z</time>
      </trkpt>
      <trkpt lat="43.53065" lon="5.64239">
        <ele>451</ele>
        <time>2022-10-19T06:43:19.000Z</time>
      </trkpt>
      <trkpt lat="43.53066" lon="5.64239">
        <ele>451</ele>
        <time>2022-10-19T06:43:20.000Z</time>
      </trkpt>
      <trkpt lat="43.53066" lon="5.64239">
        <ele>451</ele>
        <time>2022-10-19T06:43:21.000Z</time>
      </trkpt>
      <trkpt lat="43.53067" lon="5.64238">
        <ele>451</ele>
        <time>2022-10-19T06:43:22.000Z</time>
      </trkpt>
      <trkpt lat="43.53067" lon="5.64238">
        <ele>451</ele>
        <time>2022-10-19T06:43:23.000Z</time>
      </trkpt>
      <trkpt lat="43.53067" lon="5.64238">
        <ele>451</ele>
        <time>2022-10-19T06:43:24.000Z</time>
      </trkpt>
      <trkpt lat="43.53067" lon="5.64238">
        <ele>451</ele>
        <time>2022-10-19T06:43:25.000Z</time>
      </trkpt>
      <trkpt lat="43.53067" lon="5.64238">
        <ele>451</ele>
        <time>2022-10-19T06:43:26.000Z</time>
      </trkpt>
      <trkpt lat="43.53067" lon="5.64238">
        <ele>451</ele>
        <time>2022-10-19T06:43:27.000Z</time>
      </trkpt>
      <trkpt lat="43.53067" lon="5.64238">
        <ele>451</ele>
        <time>2022-10-19T06:43:28.000Z</time>
      </trkpt>
      <trkpt lat="43.53067" lon="5.64238">
        <ele>452</ele>
        <time>2022-10-19T06:43:29.000Z</time>
      </trkpt>
      <trkpt lat="43.53067" lon="5.64238">
        <ele>452</ele>
        <time>2022-10-19T06:43:30.000Z</time>
      </trkpt>
      <trkpt lat="43.53067" lon="5.64238">
        <ele>452</ele>
        <time>2022-10-19T06:43:31.000Z</time>
      </trkpt>
      <trkpt lat="43.53067" lon="5.64238">
        <ele>452</ele>
        <time>2022-10-19T06:43:32.000Z</time>
      </trkpt>
      <trkpt lat="43.53068" lon="5.64237">
        <ele>452</ele>
        <time>2022-10-19T06:43:33.000Z</time>
      </trkpt>
      <trkpt lat="43.53068" lon="5.64236">
        <ele>452</ele>
        <time>2022-10-19T06:43:34.000Z</time>
      </trkpt>
      <trkpt lat="43.53069" lon="5.64236">
        <ele>452</ele>
        <time>2022-10-19T06:43:35.000Z</time>
      </trkpt>
      <trkpt lat="43.53069" lon="5.64235">
        <ele>452</ele>
        <time>2022-10-19T06:43:36.000Z</time>
      </trkpt>
      <trkpt lat="43.5307" lon="5.64235">
        <ele>452</ele>
        <time>2022-10-19T06:43:37.000Z</time>
      </trkpt>
      <trkpt lat="43.5307" lon="5.64234">
        <ele>452</ele>
        <time>2022-10-19T06:43:38.000Z</time>
      </trkpt>
      <trkpt lat="43.53071" lon="5.64234">
        <ele>452</ele>
        <time>2022-10-19T06:43:39.000Z</time>
      </trkpt>
      <trkpt lat="43.53071" lon="5.64233">
        <ele>452</ele>
        <time>2022-10-19T06:43:40.000Z</time>
      </trkpt>
      <trkpt lat="43.53072" lon="5.64232">
        <ele>452</ele>
        <time>2022-10-19T06:43:41.000Z</time>
      </trkpt>
      <trkpt lat="43.53072" lon="5.64231">
        <ele>453</ele>
        <time>2022-10-19T06:43:42.000Z</time>
      </trkpt>
      <trkpt lat="43.53072" lon="5.6423">
        <ele>453</ele>
        <time>2022-10-19T06:43:43.000Z</time>
      </trkpt>
      <trkpt lat="43.53073" lon="5.6423">
        <ele>453</ele>
        <time>2022-10-19T06:43:44.000Z</time>
      </trkpt>
      <trkpt lat="43.53073" lon="5.64229">
        <ele>453</ele>
        <time>2022-10-19T06:43:45.000Z</time>
      </trkpt>
      <trkpt lat="43.53074" lon="5.64228">
        <ele>453</ele>
        <time>2022-10-19T06:43:46.000Z</time>
      </trkpt>
      <trkpt lat="43.53074" lon="5.64228">
        <ele>453</ele>
        <time>2022-10-19T06:43:47.000Z</time>
      </trkpt>
      <trkpt lat="43.53075" lon="5.64227">
        <ele>453</ele>
        <time>2022-10-19T06:43:48.000Z</time>
      </trkpt>
      <trkpt lat="43.53076" lon="5.64227">
        <ele>453</ele>
        <time>2022-10-19T06:43:49.000Z</time>
      </trkpt>
      <trkpt lat="43.53076" lon="5.64226">
        <ele>453</ele>
        <time>2022-10-19T06:43:50.000Z</time>
      </trkpt>
      <trkpt lat="43.53077" lon="5.64226">
        <ele>453</ele>
        <time>2022-10-19T06:43:51.000Z</time>
      </trkpt>
      <trkpt lat="43.53077" lon="5.64226">
        <ele>454</ele>
        <time>2022-10-19T06:43:52.000Z</time>
      </trkpt>
      <trkpt lat="43.53077" lon="5.64227">
        <ele>454</ele>
        <time>2022-10-19T06:43:53.000Z</time>
      </trkpt>
      <trkpt lat="43.53077" lon="5.64227">
        <ele>454</ele>
        <time>2022-10-19T06:43:54.000Z</time>
      </trkpt>
      <trkpt lat="43.53077" lon="5.64227">
        <ele>454</ele>
        <time>2022-10-19T06:43:55.000Z</time>
      </trkpt>
      <trkpt lat="43.53077" lon="5.64227">
        <ele>454</ele>
        <time>2022-10-19T06:43:56.000Z</time>
      </trkpt>
      <trkpt lat="43.53077" lon="5.64228">
        <ele>454</ele>
        <time>2022-10-19T06:43:57.000Z</time>
      </trkpt>
      <trkpt lat="43.53077" lon="5.64228">
        <ele>454</ele>
        <time>2022-10-19T06:43:58.000Z</time>
      </trkpt>
      <trkpt lat="43.53077" lon="5.64228">
        <ele>454</ele>
        <time>2022-10-19T06:43:59.000Z</time>
      </trkpt>
      <trkpt lat="43.53077" lon="5.64228">
        <ele>454</ele>
        <time>2022-10-19T06:44:00.000Z</time>
      </trkpt>
      <trkpt lat="43.53077" lon="5.64228">
        <ele>454</ele>
        <time>2022-10-19T06:44:01.000Z</time>
      </trkpt>
      <trkpt lat="43.53077" lon="5.64228">
        <ele>454</ele>
        <time>2022-10-19T06:44:02.000Z</time>
      </trkpt>
      <trkpt lat="43.53077" lon="5.64228">
        <ele>454</ele>
        <time>2022-10-19T06:44:03.000Z</time>
      </trkpt>
      <trkpt lat="43.53077" lon="5.64228">
        <ele>454</ele>
        <time>2022-10-19T06:44:04.000Z</time>
      </trkpt>
      <trkpt lat="43.53077" lon="5.64228">
        <ele>454</ele>
        <time>2022-10-19T06:44:05.000Z</time>
      </trkpt>
      <trkpt lat="43.53077" lon="5.64228">
        <ele>454</ele>
        <time>2022-10-19T06:44:06.000Z</time>
      </trkpt>
      <trkpt lat="43.53077" lon="5.64228">
        <ele>454</ele>
        <time>2022-10-19T06:44:07.000Z</time>
      </trkpt>
      <trkpt lat="43.53077" lon="5.64228">
        <ele>454</ele>
        <time>2022-10-19T06:44:08.000Z</time>
      </trkpt>
      <trkpt lat="43.53077" lon="5.64228">
        <ele>454</ele>
        <time>2022-10-19T06:44:09.000Z</time>
      </trkpt>
      <trkpt lat="43.53077" lon="5.64228">
        <ele>454</ele>
        <time>2022-10-19T06:44:10.000Z</time>
      </trkpt>
      <trkpt lat="43.53077" lon="5.64228">
        <ele>454</ele>
        <time>2022-10-19T06:44:11.000Z</time>
      </trkpt>
      <trkpt lat="43.53077" lon="5.64228">
        <ele>454</ele>
        <time>2022-10-19T06:44:12.000Z</time>
      </trkpt>
      <trkpt lat="43.53077" lon="5.64228">
        <ele>454</ele>
        <time>2022-10-19T06:44:13.000Z</time>
      </trkpt>
      <trkpt lat="43.53077" lon="5.64228">
        <ele>454</ele>
        <time>2022-10-19T06:44:14.000Z</time>
      </trkpt>
      <trkpt lat="43.53077" lon="5.64228">
        <ele>454</ele>
        <time>2022-10-19T06:44:15.000Z</time>
      </trkpt>
      <trkpt lat="43.53077" lon="5.64228">
        <ele>454</ele>
        <time>2022-10-19T06:44:16.000Z</time>
      </trkpt>
      <trkpt lat="43.53077" lon="5.64228">
        <ele>455</ele>
        <time>2022-10-19T06:44:17.000Z</time>
      </trkpt>
      <trkpt lat="43.53077" lon="5.64228">
        <ele>455</ele>
        <time>2022-10-19T06:44:18.000Z</time>
      </trkpt>
      <trkpt lat="43.53077" lon="5.64228">
        <ele>455</ele>
        <time>2022-10-19T06:44:19.000Z</time>
      </trkpt>
      <trkpt lat="43.53077" lon="5.64228">
        <ele>455</ele>
        <time>2022-10-19T06:44:20.000Z</time>
      </trkpt>
      <trkpt lat="43.53077" lon="5.64228">
        <ele>455</ele>
        <time>2022-10-19T06:44:21.000Z</time>
      </trkpt>
      <trkpt lat="43.53077" lon="5.64228">
        <ele>455</ele>
        <time>2022-10-19T06:44:22.000Z</time>
      </trkpt>
      <trkpt lat="43.53077" lon="5.64228">
        <ele>455</ele>
        <time>2022-10-19T06:44:23.000Z</time>
      </trkpt>
      <trkpt lat="43.53077" lon="5.64228">
        <ele>455</ele>
        <time>2022-10-19T06:44:24.000Z</time>
      </trkpt>
      <trkpt lat="43.53077" lon="5.64228">
        <ele>455</ele>
        <time>2022-10-19T06:44:25.000Z</time>
      </trkpt>
      <trkpt lat="43.53077" lon="5.64228">
        <ele>455</ele>
        <time>2022-10-19T06:44:26.000Z</time>
      </trkpt>
      <trkpt lat="43.53077" lon="5.64228">
        <ele>455</ele>
        <time>2022-10-19T06:44:27.000Z</time>
      </trkpt>
      <trkpt lat="43.53077" lon="5.64228">
        <ele>455</ele>
        <time>2022-10-19T06:44:28.000Z</time>
      </trkpt>
      <trkpt lat="43.53077" lon="5.64228">
        <ele>455</ele>
        <time>2022-10-19T06:44:29.000Z</time>
      </trkpt>
      <trkpt lat="43.53077" lon="5.64228">
        <ele>455</ele>
        <time>2022-10-19T06:44:30.000Z</time>
      </trkpt>
      <trkpt lat="43.53078" lon="5.64228">
        <ele>455</ele>
        <time>2022-10-19T06:44:31.000Z</time>
      </trkpt>
      <trkpt lat="43.53077" lon="5.64228">
        <ele>455</ele>
        <time>2022-10-19T06:44:32.000Z</time>
      </trkpt>
      <trkpt lat="43.53077" lon="5.64228">
        <ele>455</ele>
        <time>2022-10-19T06:44:33.000Z</time>
      </trkpt>
      <trkpt lat="43.53077" lon="5.64228">
        <ele>455</ele>
        <time>2022-10-19T06:44:34.000Z</time>
      </trkpt>
      <trkpt lat="43.53077" lon="5.64227">
        <ele>455</ele>
        <time>2022-10-19T06:44:35.000Z</time>
      </trkpt>
      <trkpt lat="43.53078" lon="5.64227">
        <ele>455</ele>
        <time>2022-10-19T06:44:36.000Z</time>
      </trkpt>
      <trkpt lat="43.53078" lon="5.64226">
        <ele>455</ele>
        <time>2022-10-19T06:44:37.000Z</time>
      </trkpt>
      <trkpt lat="43.53079" lon="5.64226">
        <ele>455</ele>
        <time>2022-10-19T06:44:38.000Z</time>
      </trkpt>
      <trkpt lat="43.53079" lon="5.64225">
        <ele>455</ele>
        <time>2022-10-19T06:44:39.000Z</time>
      </trkpt>
      <trkpt lat="43.5308" lon="5.64225">
        <ele>455</ele>
        <time>2022-10-19T06:44:40.000Z</time>
      </trkpt>
      <trkpt lat="43.5308" lon="5.64224">
        <ele>455</ele>
        <time>2022-10-19T06:44:41.000Z</time>
      </trkpt>
      <trkpt lat="43.53081" lon="5.64224">
        <ele>455</ele>
        <time>2022-10-19T06:44:42.000Z</time>
      </trkpt>
      <trkpt lat="43.53082" lon="5.64223">
        <ele>455</ele>
        <time>2022-10-19T06:44:43.000Z</time>
      </trkpt>
      <trkpt lat="43.53082" lon="5.64223">
        <ele>455</ele>
        <time>2022-10-19T06:44:44.000Z</time>
      </trkpt>
      <trkpt lat="43.53083" lon="5.64223">
        <ele>455</ele>
        <time>2022-10-19T06:44:45.000Z</time>
      </trkpt>
      <trkpt lat="43.53083" lon="5.64222">
        <ele>455</ele>
        <time>2022-10-19T06:44:46.000Z</time>
      </trkpt>
      <trkpt lat="43.53084" lon="5.64222">
        <ele>455</ele>
        <time>2022-10-19T06:44:47.000Z</time>
      </trkpt>
      <trkpt lat="43.53085" lon="5.64221">
        <ele>455</ele>
        <time>2022-10-19T06:44:48.000Z</time>
      </trkpt>
      <trkpt lat="43.53085" lon="5.6422">
        <ele>455</ele>
        <time>2022-10-19T06:44:49.000Z</time>
      </trkpt>
      <trkpt lat="43.53086" lon="5.6422">
        <ele>455</ele>
        <time>2022-10-19T06:44:50.000Z</time>
      </trkpt>
      <trkpt lat="43.53087" lon="5.64219">
        <ele>455</ele>
        <time>2022-10-19T06:44:51.000Z</time>
      </trkpt>
      <trkpt lat="43.53087" lon="5.64219">
        <ele>455</ele>
        <time>2022-10-19T06:44:52.000Z</time>
      </trkpt>
      <trkpt lat="43.53088" lon="5.64218">
        <ele>456</ele>
        <time>2022-10-19T06:44:53.000Z</time>
      </trkpt>
      <trkpt lat="43.53089" lon="5.64217">
        <ele>456</ele>
        <time>2022-10-19T06:44:54.000Z</time>
      </trkpt>
      <trkpt lat="43.53089" lon="5.64217">
        <ele>456</ele>
        <time>2022-10-19T06:44:55.000Z</time>
      </trkpt>
      <trkpt lat="43.5309" lon="5.64216">
        <ele>456</ele>
        <time>2022-10-19T06:44:56.000Z</time>
      </trkpt>
      <trkpt lat="43.53091" lon="5.64216">
        <ele>456</ele>
        <time>2022-10-19T06:44:57.000Z</time>
      </trkpt>
      <trkpt lat="43.53091" lon="5.64215">
        <ele>456</ele>
        <time>2022-10-19T06:44:58.000Z</time>
      </trkpt>
      <trkpt lat="43.53092" lon="5.64214">
        <ele>456</ele>
        <time>2022-10-19T06:44:59.000Z</time>
      </trkpt>
      <trkpt lat="43.53092" lon="5.64214">
        <ele>456</ele>
        <time>2022-10-19T06:45:00.000Z</time>
      </trkpt>
      <trkpt lat="43.53093" lon="5.64213">
        <ele>456</ele>
        <time>2022-10-19T06:45:01.000Z</time>
      </trkpt>
      <trkpt lat="43.53093" lon="5.64213">
        <ele>456</ele>
        <time>2022-10-19T06:45:02.000Z</time>
      </trkpt>
      <trkpt lat="43.53094" lon="5.64212">
        <ele>456</ele>
        <time>2022-10-19T06:45:03.000Z</time>
      </trkpt>
      <trkpt lat="43.53094" lon="5.64212">
        <ele>456</ele>
        <time>2022-10-19T06:45:04.000Z</time>
      </trkpt>
      <trkpt lat="43.53095" lon="5.64211">
        <ele>456</ele>
        <time>2022-10-19T06:45:05.000Z</time>
      </trkpt>
      <trkpt lat="43.53096" lon="5.64211">
        <ele>457</ele>
        <time>2022-10-19T06:45:06.000Z</time>
      </trkpt>
      <trkpt lat="43.53096" lon="5.6421">
        <ele>457</ele>
        <time>2022-10-19T06:45:07.000Z</time>
      </trkpt>
      <trkpt lat="43.53097" lon="5.6421">
        <ele>457</ele>
        <time>2022-10-19T06:45:08.000Z</time>
      </trkpt>
      <trkpt lat="43.53097" lon="5.64209">
        <ele>457</ele>
        <time>2022-10-19T06:45:09.000Z</time>
      </trkpt>
      <trkpt lat="43.53098" lon="5.64209">
        <ele>457</ele>
        <time>2022-10-19T06:45:10.000Z</time>
      </trkpt>
      <trkpt lat="43.53099" lon="5.64208">
        <ele>457</ele>
        <time>2022-10-19T06:45:11.000Z</time>
      </trkpt>
      <trkpt lat="43.53099" lon="5.64208">
        <ele>457</ele>
        <time>2022-10-19T06:45:12.000Z</time>
      </trkpt>
      <trkpt lat="43.531" lon="5.64207">
        <ele>457</ele>
        <time>2022-10-19T06:45:13.000Z</time>
      </trkpt>
      <trkpt lat="43.531" lon="5.64207">
        <ele>457</ele>
        <time>2022-10-19T06:45:14.000Z</time>
      </trkpt>
      <trkpt lat="43.53101" lon="5.64206">
        <ele>457</ele>
        <time>2022-10-19T06:45:15.000Z</time>
      </trkpt>
      <trkpt lat="43.53102" lon="5.64205">
        <ele>457</ele>
        <time>2022-10-19T06:45:16.000Z</time>
      </trkpt>
      <trkpt lat="43.53102" lon="5.64205">
        <ele>457</ele>
        <time>2022-10-19T06:45:17.000Z</time>
      </trkpt>
      <trkpt lat="43.53103" lon="5.64204">
        <ele>457</ele>
        <time>2022-10-19T06:45:18.000Z</time>
      </trkpt>
      <trkpt lat="43.53103" lon="5.64204">
        <ele>457</ele>
        <time>2022-10-19T06:45:19.000Z</time>
      </trkpt>
      <trkpt lat="43.53104" lon="5.64203">
        <ele>457</ele>
        <time>2022-10-19T06:45:20.000Z</time>
      </trkpt>
      <trkpt lat="43.53104" lon="5.64203">
        <ele>458</ele>
        <time>2022-10-19T06:45:21.000Z</time>
      </trkpt>
      <trkpt lat="43.53105" lon="5.64202">
        <ele>458</ele>
        <time>2022-10-19T06:45:22.000Z</time>
      </trkpt>
      <trkpt lat="43.53106" lon="5.64202">
        <ele>458</ele>
        <time>2022-10-19T06:45:23.000Z</time>
      </trkpt>
      <trkpt lat="43.53106" lon="5.64201">
        <ele>458</ele>
        <time>2022-10-19T06:45:24.000Z</time>
      </trkpt>
      <trkpt lat="43.53107" lon="5.64201">
        <ele>458</ele>
        <time>2022-10-19T06:45:25.000Z</time>
      </trkpt>
      <trkpt lat="43.53108" lon="5.642">
        <ele>458</ele>
        <time>2022-10-19T06:45:26.000Z</time>
      </trkpt>
      <trkpt lat="43.53108" lon="5.64199">
        <ele>458</ele>
        <time>2022-10-19T06:45:27.000Z</time>
      </trkpt>
      <trkpt lat="43.53109" lon="5.64199">
        <ele>458</ele>
        <time>2022-10-19T06:45:28.000Z</time>
      </trkpt>
      <trkpt lat="43.5311" lon="5.64198">
        <ele>458</ele>
        <time>2022-10-19T06:45:29.000Z</time>
      </trkpt>
      <trkpt lat="43.5311" lon="5.64197">
        <ele>458</ele>
        <time>2022-10-19T06:45:30.000Z</time>
      </trkpt>
      <trkpt lat="43.53111" lon="5.64197">
        <ele>458</ele>
        <time>2022-10-19T06:45:31.000Z</time>
      </trkpt>
      <trkpt lat="43.53112" lon="5.64196">
        <ele>458</ele>
        <time>2022-10-19T06:45:32.000Z</time>
      </trkpt>
      <trkpt lat="43.53112" lon="5.64195">
        <ele>458</ele>
        <time>2022-10-19T06:45:33.000Z</time>
      </trkpt>
      <trkpt lat="43.53113" lon="5.64195">
        <ele>458</ele>
        <time>2022-10-19T06:45:34.000Z</time>
      </trkpt>
      <trkpt lat="43.53114" lon="5.64194">
        <ele>458</ele>
        <time>2022-10-19T06:45:35.000Z</time>
      </trkpt>
      <trkpt lat="43.53114" lon="5.64193">
        <ele>458</ele>
        <time>2022-10-19T06:45:36.000Z</time>
      </trkpt>
      <trkpt lat="43.53115" lon="5.64192">
        <ele>459</ele>
        <time>2022-10-19T06:45:37.000Z</time>
      </trkpt>
      <trkpt lat="43.53116" lon="5.64192">
        <ele>459</ele>
        <time>2022-10-19T06:45:38.000Z</time>
      </trkpt>
      <trkpt lat="43.53116" lon="5.64191">
        <ele>459</ele>
        <time>2022-10-19T06:45:39.000Z</time>
      </trkpt>
      <trkpt lat="43.53117" lon="5.6419">
        <ele>459</ele>
        <time>2022-10-19T06:45:40.000Z</time>
      </trkpt>
      <trkpt lat="43.53118" lon="5.6419">
        <ele>459</ele>
        <time>2022-10-19T06:45:41.000Z</time>
      </trkpt>
      <trkpt lat="43.53119" lon="5.64188">
        <ele>459</ele>
        <time>2022-10-19T06:45:42.000Z</time>
      </trkpt>
      <trkpt lat="43.53119" lon="5.64187">
        <ele>459</ele>
        <time>2022-10-19T06:45:43.000Z</time>
      </trkpt>
      <trkpt lat="43.53119" lon="5.64186">
        <ele>459</ele>
        <time>2022-10-19T06:45:44.000Z</time>
      </trkpt>
      <trkpt lat="43.5312" lon="5.64185">
        <ele>459</ele>
        <time>2022-10-19T06:45:45.000Z</time>
      </trkpt>
      <trkpt lat="43.53121" lon="5.64184">
        <ele>459</ele>
        <time>2022-10-19T06:45:46.000Z</time>
      </trkpt>
      <trkpt lat="43.53121" lon="5.64183">
        <ele>459</ele>
        <time>2022-10-19T06:45:47.000Z</time>
      </trkpt>
      <trkpt lat="43.53122" lon="5.64182">
        <ele>459</ele>
        <time>2022-10-19T06:45:48.000Z</time>
      </trkpt>
      <trkpt lat="43.53122" lon="5.64181">
        <ele>459</ele>
        <time>2022-10-19T06:45:49.000Z</time>
      </trkpt>
      <trkpt lat="43.53123" lon="5.6418">
        <ele>459</ele>
        <time>2022-10-19T06:45:50.000Z</time>
      </trkpt>
      <trkpt lat="43.53124" lon="5.6418">
        <ele>459</ele>
        <time>2022-10-19T06:45:51.000Z</time>
      </trkpt>
      <trkpt lat="43.53124" lon="5.64179">
        <ele>459</ele>
        <time>2022-10-19T06:45:52.000Z</time>
      </trkpt>
      <trkpt lat="43.53125" lon="5.64178">
        <ele>460</ele>
        <time>2022-10-19T06:45:53.000Z</time>
      </trkpt>
      <trkpt lat="43.53126" lon="5.64177">
        <ele>460</ele>
        <time>2022-10-19T06:45:54.000Z</time>
      </trkpt>
      <trkpt lat="43.53127" lon="5.64177">
        <ele>460</ele>
        <time>2022-10-19T06:45:55.000Z</time>
      </trkpt>
      <trkpt lat="43.53128" lon="5.64176">
        <ele>460</ele>
        <time>2022-10-19T06:45:56.000Z</time>
      </trkpt>
      <trkpt lat="43.53128" lon="5.64176">
        <ele>460</ele>
        <time>2022-10-19T06:45:57.000Z</time>
      </trkpt>
      <trkpt lat="43.53129" lon="5.64175">
        <ele>460</ele>
        <time>2022-10-19T06:45:58.000Z</time>
      </trkpt>
      <trkpt lat="43.5313" lon="5.64175">
        <ele>460</ele>
        <time>2022-10-19T06:45:59.000Z</time>
      </trkpt>
      <trkpt lat="43.53131" lon="5.64174">
        <ele>460</ele>
        <time>2022-10-19T06:46:00.000Z</time>
      </trkpt>
      <trkpt lat="43.53132" lon="5.64174">
        <ele>460</ele>
        <time>2022-10-19T06:46:01.000Z</time>
      </trkpt>
      <trkpt lat="43.53133" lon="5.64174">
        <ele>460</ele>
        <time>2022-10-19T06:46:02.000Z</time>
      </trkpt>
      <trkpt lat="43.53134" lon="5.64174">
        <ele>460</ele>
        <time>2022-10-19T06:46:03.000Z</time>
      </trkpt>
      <trkpt lat="43.53134" lon="5.64174">
        <ele>460</ele>
        <time>2022-10-19T06:46:04.000Z</time>
      </trkpt>
      <trkpt lat="43.53135" lon="5.64174">
        <ele>460</ele>
        <time>2022-10-19T06:46:05.000Z</time>
      </trkpt>
      <trkpt lat="43.53136" lon="5.64173">
        <ele>461</ele>
        <time>2022-10-19T06:46:06.000Z</time>
      </trkpt>
      <trkpt lat="43.53137" lon="5.64173">
        <ele>461</ele>
        <time>2022-10-19T06:46:07.000Z</time>
      </trkpt>
      <trkpt lat="43.53137" lon="5.64174">
        <ele>461</ele>
        <time>2022-10-19T06:46:08.000Z</time>
      </trkpt>
      <trkpt lat="43.53138" lon="5.64173">
        <ele>461</ele>
        <time>2022-10-19T06:46:09.000Z</time>
      </trkpt>
      <trkpt lat="43.53139" lon="5.64173">
        <ele>461</ele>
        <time>2022-10-19T06:46:10.000Z</time>
      </trkpt>
      <trkpt lat="43.5314" lon="5.64173">
        <ele>461</ele>
        <time>2022-10-19T06:46:11.000Z</time>
      </trkpt>
      <trkpt lat="43.53141" lon="5.64173">
        <ele>462</ele>
        <time>2022-10-19T06:46:12.000Z</time>
      </trkpt>
      <trkpt lat="43.53141" lon="5.64173">
        <ele>462</ele>
        <time>2022-10-19T06:46:13.000Z</time>
      </trkpt>
      <trkpt lat="43.53142" lon="5.64173">
        <ele>462</ele>
        <time>2022-10-19T06:46:14.000Z</time>
      </trkpt>
      <trkpt lat="43.53143" lon="5.64173">
        <ele>462</ele>
        <time>2022-10-19T06:46:15.000Z</time>
      </trkpt>
      <trkpt lat="43.53144" lon="5.64173">
        <ele>462</ele>
        <time>2022-10-19T06:46:16.000Z</time>
      </trkpt>
      <trkpt lat="43.53144" lon="5.64173">
        <ele>462</ele>
        <time>2022-10-19T06:46:17.000Z</time>
      </trkpt>
      <trkpt lat="43.53145" lon="5.64173">
        <ele>462</ele>
        <time>2022-10-19T06:46:18.000Z</time>
      </trkpt>
      <trkpt lat="43.53146" lon="5.64173">
        <ele>462</ele>
        <time>2022-10-19T06:46:19.000Z</time>
      </trkpt>
      <trkpt lat="43.53147" lon="5.64173">
        <ele>462</ele>
        <time>2022-10-19T06:46:20.000Z</time>
      </trkpt>
      <trkpt lat="43.53148" lon="5.64173">
        <ele>462</ele>
        <time>2022-10-19T06:46:21.000Z</time>
      </trkpt>
      <trkpt lat="43.53149" lon="5.64173">
        <ele>462</ele>
        <time>2022-10-19T06:46:22.000Z</time>
      </trkpt>
      <trkpt lat="43.53149" lon="5.64173">
        <ele>462</ele>
        <time>2022-10-19T06:46:23.000Z</time>
      </trkpt>
      <trkpt lat="43.5315" lon="5.64173">
        <ele>462</ele>
        <time>2022-10-19T06:46:24.000Z</time>
      </trkpt>
      <trkpt lat="43.53151" lon="5.64173">
        <ele>462</ele>
        <time>2022-10-19T06:46:25.000Z</time>
      </trkpt>
      <trkpt lat="43.53151" lon="5.64172">
        <ele>462</ele>
        <time>2022-10-19T06:46:26.000Z</time>
      </trkpt>
      <trkpt lat="43.53152" lon="5.64172">
        <ele>463</ele>
        <time>2022-10-19T06:46:27.000Z</time>
      </trkpt>
      <trkpt lat="43.53153" lon="5.64172">
        <ele>463</ele>
        <time>2022-10-19T06:46:28.000Z</time>
      </trkpt>
      <trkpt lat="43.53153" lon="5.64172">
        <ele>463</ele>
        <time>2022-10-19T06:46:29.000Z</time>
      </trkpt>
      <trkpt lat="43.53154" lon="5.64172">
        <ele>463</ele>
        <time>2022-10-19T06:46:30.000Z</time>
      </trkpt>
      <trkpt lat="43.53155" lon="5.64171">
        <ele>463</ele>
        <time>2022-10-19T06:46:31.000Z</time>
      </trkpt>
      <trkpt lat="43.53155" lon="5.64171">
        <ele>463</ele>
        <time>2022-10-19T06:46:32.000Z</time>
      </trkpt>
      <trkpt lat="43.53156" lon="5.6417">
        <ele>463</ele>
        <time>2022-10-19T06:46:33.000Z</time>
      </trkpt>
      <trkpt lat="43.53157" lon="5.64169">
        <ele>463</ele>
        <time>2022-10-19T06:46:34.000Z</time>
      </trkpt>
      <trkpt lat="43.53157" lon="5.64169">
        <ele>463</ele>
        <time>2022-10-19T06:46:35.000Z</time>
      </trkpt>
      <trkpt lat="43.53158" lon="5.64168">
        <ele>464</ele>
        <time>2022-10-19T06:46:36.000Z</time>
      </trkpt>
      <trkpt lat="43.53159" lon="5.64168">
        <ele>464</ele>
        <time>2022-10-19T06:46:37.000Z</time>
      </trkpt>
      <trkpt lat="43.5316" lon="5.64167">
        <ele>464</ele>
        <time>2022-10-19T06:46:38.000Z</time>
      </trkpt>
      <trkpt lat="43.5316" lon="5.64167">
        <ele>464</ele>
        <time>2022-10-19T06:46:39.000Z</time>
      </trkpt>
      <trkpt lat="43.53161" lon="5.64166">
        <ele>464</ele>
        <time>2022-10-19T06:46:40.000Z</time>
      </trkpt>
      <trkpt lat="43.53161" lon="5.64165">
        <ele>464</ele>
        <time>2022-10-19T06:46:41.000Z</time>
      </trkpt>
      <trkpt lat="43.53162" lon="5.64165">
        <ele>464</ele>
        <time>2022-10-19T06:46:42.000Z</time>
      </trkpt>
      <trkpt lat="43.53162" lon="5.64164">
        <ele>464</ele>
        <time>2022-10-19T06:46:43.000Z</time>
      </trkpt>
      <trkpt lat="43.53163" lon="5.64163">
        <ele>464</ele>
        <time>2022-10-19T06:46:44.000Z</time>
      </trkpt>
      <trkpt lat="43.53163" lon="5.64162">
        <ele>464</ele>
        <time>2022-10-19T06:46:45.000Z</time>
      </trkpt>
      <trkpt lat="43.53164" lon="5.64161">
        <ele>464</ele>
        <time>2022-10-19T06:46:46.000Z</time>
      </trkpt>
      <trkpt lat="43.53164" lon="5.6416">
        <ele>465</ele>
        <time>2022-10-19T06:46:47.000Z</time>
      </trkpt>
      <trkpt lat="43.53164" lon="5.64159">
        <ele>465</ele>
        <time>2022-10-19T06:46:48.000Z</time>
      </trkpt>
      <trkpt lat="43.53164" lon="5.64158">
        <ele>465</ele>
        <time>2022-10-19T06:46:49.000Z</time>
      </trkpt>
      <trkpt lat="43.53165" lon="5.64157">
        <ele>465</ele>
        <time>2022-10-19T06:46:50.000Z</time>
      </trkpt>
      <trkpt lat="43.53165" lon="5.64155">
        <ele>465</ele>
        <time>2022-10-19T06:46:51.000Z</time>
      </trkpt>
      <trkpt lat="43.53165" lon="5.64154">
        <ele>465</ele>
        <time>2022-10-19T06:46:52.000Z</time>
      </trkpt>
      <trkpt lat="43.53165" lon="5.64153">
        <ele>465</ele>
        <time>2022-10-19T06:46:53.000Z</time>
      </trkpt>
      <trkpt lat="43.53165" lon="5.64152">
        <ele>465</ele>
        <time>2022-10-19T06:46:54.000Z</time>
      </trkpt>
      <trkpt lat="43.53165" lon="5.64151">
        <ele>465</ele>
        <time>2022-10-19T06:46:55.000Z</time>
      </trkpt>
      <trkpt lat="43.53165" lon="5.6415">
        <ele>465</ele>
        <time>2022-10-19T06:46:56.000Z</time>
      </trkpt>
      <trkpt lat="43.53166" lon="5.64149">
        <ele>465</ele>
        <time>2022-10-19T06:46:57.000Z</time>
      </trkpt>
      <trkpt lat="43.53166" lon="5.64148">
        <ele>465</ele>
        <time>2022-10-19T06:46:58.000Z</time>
      </trkpt>
      <trkpt lat="43.53166" lon="5.64146">
        <ele>465</ele>
        <time>2022-10-19T06:46:59.000Z</time>
      </trkpt>
      <trkpt lat="43.53166" lon="5.64145">
        <ele>465</ele>
        <time>2022-10-19T06:47:00.000Z</time>
      </trkpt>
      <trkpt lat="43.53166" lon="5.64144">
        <ele>466</ele>
        <time>2022-10-19T06:47:01.000Z</time>
      </trkpt>
      <trkpt lat="43.53166" lon="5.64143">
        <ele>466</ele>
        <time>2022-10-19T06:47:02.000Z</time>
      </trkpt>
      <trkpt lat="43.53166" lon="5.64141">
        <ele>466</ele>
        <time>2022-10-19T06:47:03.000Z</time>
      </trkpt>
      <trkpt lat="43.53166" lon="5.6414">
        <ele>466</ele>
        <time>2022-10-19T06:47:04.000Z</time>
      </trkpt>
      <trkpt lat="43.53166" lon="5.64139">
        <ele>466</ele>
        <time>2022-10-19T06:47:05.000Z</time>
      </trkpt>
      <trkpt lat="43.53166" lon="5.64138">
        <ele>466</ele>
        <time>2022-10-19T06:47:06.000Z</time>
      </trkpt>
      <trkpt lat="43.53166" lon="5.64136">
        <ele>466</ele>
        <time>2022-10-19T06:47:07.000Z</time>
      </trkpt>
      <trkpt lat="43.53166" lon="5.64135">
        <ele>466</ele>
        <time>2022-10-19T06:47:08.000Z</time>
      </trkpt>
      <trkpt lat="43.53166" lon="5.64134">
        <ele>466</ele>
        <time>2022-10-19T06:47:09.000Z</time>
      </trkpt>
      <trkpt lat="43.53166" lon="5.64133">
        <ele>467</ele>
        <time>2022-10-19T06:47:10.000Z</time>
      </trkpt>
      <trkpt lat="43.53166" lon="5.64131">
        <ele>467</ele>
        <time>2022-10-19T06:47:11.000Z</time>
      </trkpt>
      <trkpt lat="43.53166" lon="5.6413">
        <ele>467</ele>
        <time>2022-10-19T06:47:12.000Z</time>
      </trkpt>
      <trkpt lat="43.53165" lon="5.64129">
        <ele>467</ele>
        <time>2022-10-19T06:47:13.000Z</time>
      </trkpt>
      <trkpt lat="43.53165" lon="5.64127">
        <ele>467</ele>
        <time>2022-10-19T06:47:14.000Z</time>
      </trkpt>
      <trkpt lat="43.53165" lon="5.64126">
        <ele>468</ele>
        <time>2022-10-19T06:47:15.000Z</time>
      </trkpt>
      <trkpt lat="43.53165" lon="5.64125">
        <ele>468</ele>
        <time>2022-10-19T06:47:16.000Z</time>
      </trkpt>
      <trkpt lat="43.53165" lon="5.64124">
        <ele>468</ele>
        <time>2022-10-19T06:47:17.000Z</time>
      </trkpt>
      <trkpt lat="43.53165" lon="5.64123">
        <ele>468</ele>
        <time>2022-10-19T06:47:18.000Z</time>
      </trkpt>
      <trkpt lat="43.53165" lon="5.64122">
        <ele>468</ele>
        <time>2022-10-19T06:47:19.000Z</time>
      </trkpt>
      <trkpt lat="43.53165" lon="5.64121">
        <ele>469</ele>
        <time>2022-10-19T06:47:20.000Z</time>
      </trkpt>
      <trkpt lat="43.53166" lon="5.6412">
        <ele>469</ele>
        <time>2022-10-19T06:47:21.000Z</time>
      </trkpt>
      <trkpt lat="43.53166" lon="5.6412">
        <ele>469</ele>
        <time>2022-10-19T06:47:22.000Z</time>
      </trkpt>
      <trkpt lat="43.53166" lon="5.64119">
        <ele>469</ele>
        <time>2022-10-19T06:47:23.000Z</time>
      </trkpt>
      <trkpt lat="43.53165" lon="5.64118">
        <ele>469</ele>
        <time>2022-10-19T06:47:24.000Z</time>
      </trkpt>
      <trkpt lat="43.53165" lon="5.64116">
        <ele>469</ele>
        <time>2022-10-19T06:47:25.000Z</time>
      </trkpt>
      <trkpt lat="43.53165" lon="5.64115">
        <ele>469</ele>
        <time>2022-10-19T06:47:26.000Z</time>
      </trkpt>
      <trkpt lat="43.53165" lon="5.64114">
        <ele>469</ele>
        <time>2022-10-19T06:47:27.000Z</time>
      </trkpt>
      <trkpt lat="43.53165" lon="5.64113">
        <ele>469</ele>
        <time>2022-10-19T06:47:28.000Z</time>
      </trkpt>
      <trkpt lat="43.53165" lon="5.64112">
        <ele>470</ele>
        <time>2022-10-19T06:47:29.000Z</time>
      </trkpt>
      <trkpt lat="43.53165" lon="5.64111">
        <ele>470</ele>
        <time>2022-10-19T06:47:30.000Z</time>
      </trkpt>
      <trkpt lat="43.53165" lon="5.6411">
        <ele>470</ele>
        <time>2022-10-19T06:47:31.000Z</time>
      </trkpt>
      <trkpt lat="43.53165" lon="5.64109">
        <ele>470</ele>
        <time>2022-10-19T06:47:32.000Z</time>
      </trkpt>
      <trkpt lat="43.53165" lon="5.64108">
        <ele>470</ele>
        <time>2022-10-19T06:47:33.000Z</time>
      </trkpt>
      <trkpt lat="43.53165" lon="5.64108">
        <ele>470</ele>
        <time>2022-10-19T06:47:34.000Z</time>
      </trkpt>
      <trkpt lat="43.53165" lon="5.64107">
        <ele>470</ele>
        <time>2022-10-19T06:47:35.000Z</time>
      </trkpt>
      <trkpt lat="43.53164" lon="5.64106">
        <ele>470</ele>
        <time>2022-10-19T06:47:36.000Z</time>
      </trkpt>
      <trkpt lat="43.53164" lon="5.64105">
        <ele>471</ele>
        <time>2022-10-19T06:47:37.000Z</time>
      </trkpt>
      <trkpt lat="43.53163" lon="5.64104">
        <ele>471</ele>
        <time>2022-10-19T06:47:38.000Z</time>
      </trkpt>
      <trkpt lat="43.53163" lon="5.64103">
        <ele>471</ele>
        <time>2022-10-19T06:47:39.000Z</time>
      </trkpt>
      <trkpt lat="43.53163" lon="5.64103">
        <ele>471</ele>
        <time>2022-10-19T06:47:40.000Z</time>
      </trkpt>
      <trkpt lat="43.53162" lon="5.64101">
        <ele>471</ele>
        <time>2022-10-19T06:47:41.000Z</time>
      </trkpt>
      <trkpt lat="43.53162" lon="5.641">
        <ele>471</ele>
        <time>2022-10-19T06:47:42.000Z</time>
      </trkpt>
      <trkpt lat="43.53161" lon="5.64099">
        <ele>471</ele>
        <time>2022-10-19T06:47:43.000Z</time>
      </trkpt>
      <trkpt lat="43.53161" lon="5.64098">
        <ele>471</ele>
        <time>2022-10-19T06:47:44.000Z</time>
      </trkpt>
      <trkpt lat="43.53161" lon="5.64098">
        <ele>471</ele>
        <time>2022-10-19T06:47:45.000Z</time>
      </trkpt>
      <trkpt lat="43.53161" lon="5.64097">
        <ele>472</ele>
        <time>2022-10-19T06:47:46.000Z</time>
      </trkpt>
      <trkpt lat="43.53161" lon="5.64096">
        <ele>472</ele>
        <time>2022-10-19T06:47:47.000Z</time>
      </trkpt>
      <trkpt lat="43.5316" lon="5.64095">
        <ele>472</ele>
        <time>2022-10-19T06:47:48.000Z</time>
      </trkpt>
      <trkpt lat="43.5316" lon="5.64094">
        <ele>472</ele>
        <time>2022-10-19T06:47:49.000Z</time>
      </trkpt>
      <trkpt lat="43.5316" lon="5.64093">
        <ele>472</ele>
        <time>2022-10-19T06:47:50.000Z</time>
      </trkpt>
      <trkpt lat="43.5316" lon="5.64092">
        <ele>472</ele>
        <time>2022-10-19T06:47:51.000Z</time>
      </trkpt>
      <trkpt lat="43.5316" lon="5.64091">
        <ele>472</ele>
        <time>2022-10-19T06:47:52.000Z</time>
      </trkpt>
      <trkpt lat="43.5316" lon="5.64089">
        <ele>472</ele>
        <time>2022-10-19T06:47:53.000Z</time>
      </trkpt>
      <trkpt lat="43.5316" lon="5.64089">
        <ele>472</ele>
        <time>2022-10-19T06:47:54.000Z</time>
      </trkpt>
      <trkpt lat="43.5316" lon="5.64087">
        <ele>472</ele>
        <time>2022-10-19T06:47:55.000Z</time>
      </trkpt>
      <trkpt lat="43.5316" lon="5.64086">
        <ele>472</ele>
        <time>2022-10-19T06:47:56.000Z</time>
      </trkpt>
      <trkpt lat="43.5316" lon="5.64085">
        <ele>472</ele>
        <time>2022-10-19T06:47:57.000Z</time>
      </trkpt>
      <trkpt lat="43.53159" lon="5.64084">
        <ele>472</ele>
        <time>2022-10-19T06:47:58.000Z</time>
      </trkpt>
      <trkpt lat="43.53159" lon="5.64083">
        <ele>472</ele>
        <time>2022-10-19T06:47:59.000Z</time>
      </trkpt>
      <trkpt lat="43.53159" lon="5.64082">
        <ele>473</ele>
        <time>2022-10-19T06:48:00.000Z</time>
      </trkpt>
      <trkpt lat="43.53159" lon="5.64081">
        <ele>473</ele>
        <time>2022-10-19T06:48:01.000Z</time>
      </trkpt>
      <trkpt lat="43.53159" lon="5.6408">
        <ele>473</ele>
        <time>2022-10-19T06:48:02.000Z</time>
      </trkpt>
      <trkpt lat="43.53159" lon="5.64079">
        <ele>473</ele>
        <time>2022-10-19T06:48:03.000Z</time>
      </trkpt>
      <trkpt lat="43.53159" lon="5.64078">
        <ele>473</ele>
        <time>2022-10-19T06:48:04.000Z</time>
      </trkpt>
      <trkpt lat="43.53159" lon="5.64076">
        <ele>473</ele>
        <time>2022-10-19T06:48:05.000Z</time>
      </trkpt>
      <trkpt lat="43.53159" lon="5.64075">
        <ele>473</ele>
        <time>2022-10-19T06:48:06.000Z</time>
      </trkpt>
      <trkpt lat="43.53159" lon="5.64074">
        <ele>473</ele>
        <time>2022-10-19T06:48:07.000Z</time>
      </trkpt>
      <trkpt lat="43.53159" lon="5.64073">
        <ele>473</ele>
        <time>2022-10-19T06:48:08.000Z</time>
      </trkpt>
      <trkpt lat="43.5316" lon="5.64072">
        <ele>473</ele>
        <time>2022-10-19T06:48:09.000Z</time>
      </trkpt>
      <trkpt lat="43.5316" lon="5.6407">
        <ele>473</ele>
        <time>2022-10-19T06:48:10.000Z</time>
      </trkpt>
      <trkpt lat="43.5316" lon="5.64069">
        <ele>473</ele>
        <time>2022-10-19T06:48:11.000Z</time>
      </trkpt>
      <trkpt lat="43.5316" lon="5.64068">
        <ele>474</ele>
        <time>2022-10-19T06:48:12.000Z</time>
      </trkpt>
      <trkpt lat="43.5316" lon="5.64067">
        <ele>474</ele>
        <time>2022-10-19T06:48:13.000Z</time>
      </trkpt>
      <trkpt lat="43.5316" lon="5.64066">
        <ele>474</ele>
        <time>2022-10-19T06:48:14.000Z</time>
      </trkpt>
      <trkpt lat="43.5316" lon="5.64066">
        <ele>474</ele>
        <time>2022-10-19T06:48:15.000Z</time>
      </trkpt>
      <trkpt lat="43.5316" lon="5.64066">
        <ele>474</ele>
        <time>2022-10-19T06:48:16.000Z</time>
      </trkpt>
      <trkpt lat="43.5316" lon="5.64066">
        <ele>474</ele>
        <time>2022-10-19T06:48:17.000Z</time>
      </trkpt>
      <trkpt lat="43.5316" lon="5.64066">
        <ele>474</ele>
        <time>2022-10-19T06:48:18.000Z</time>
      </trkpt>
      <trkpt lat="43.5316" lon="5.64066">
        <ele>474</ele>
        <time>2022-10-19T06:48:19.000Z</time>
      </trkpt>
      <trkpt lat="43.5316" lon="5.64066">
        <ele>474</ele>
        <time>2022-10-19T06:48:20.000Z</time>
      </trkpt>
      <trkpt lat="43.5316" lon="5.64066">
        <ele>474</ele>
        <time>2022-10-19T06:48:21.000Z</time>
      </trkpt>
      <trkpt lat="43.5316" lon="5.64066">
        <ele>474</ele>
        <time>2022-10-19T06:48:22.000Z</time>
      </trkpt>
      <trkpt lat="43.5316" lon="5.64066">
        <ele>474</ele>
        <time>2022-10-19T06:48:23.000Z</time>
      </trkpt>
      <trkpt lat="43.5316" lon="5.64066">
        <ele>474</ele>
        <time>2022-10-19T06:48:24.000Z</time>
      </trkpt>
      <trkpt lat="43.5316" lon="5.64066">
        <ele>474</ele>
        <time>2022-10-19T06:48:25.000Z</time>
      </trkpt>
      <trkpt lat="43.5316" lon="5.64066">
        <ele>474</ele>
        <time>2022-10-19T06:48:26.000Z</time>
      </trkpt>
      <trkpt lat="43.5316" lon="5.64066">
        <ele>474</ele>
        <time>2022-10-19T06:48:27.000Z</time>
      </trkpt>
      <trkpt lat="43.5316" lon="5.64066">
        <ele>474</ele>
        <time>2022-10-19T06:48:28.000Z</time>
      </trkpt>
      <trkpt lat="43.5316" lon="5.64065">
        <ele>474</ele>
        <time>2022-10-19T06:48:29.000Z</time>
      </trkpt>
      <trkpt lat="43.53159" lon="5.64064">
        <ele>474</ele>
        <time>2022-10-19T06:48:30.000Z</time>
      </trkpt>
      <trkpt lat="43.53159" lon="5.64063">
        <ele>474</ele>
        <time>2022-10-19T06:48:31.000Z</time>
      </trkpt>
      <trkpt lat="43.53159" lon="5.64062">
        <ele>474</ele>
        <time>2022-10-19T06:48:32.000Z</time>
      </trkpt>
      <trkpt lat="43.53159" lon="5.6406">
        <ele>474</ele>
        <time>2022-10-19T06:48:33.000Z</time>
      </trkpt>
      <trkpt lat="43.53159" lon="5.6406">
        <ele>475</ele>
        <time>2022-10-19T06:48:34.000Z</time>
      </trkpt>
      <trkpt lat="43.53159" lon="5.64058">
        <ele>475</ele>
        <time>2022-10-19T06:48:35.000Z</time>
      </trkpt>
      <trkpt lat="43.5316" lon="5.64057">
        <ele>475</ele>
        <time>2022-10-19T06:48:36.000Z</time>
      </trkpt>
      <trkpt lat="43.5316" lon="5.64056">
        <ele>475</ele>
        <time>2022-10-19T06:48:37.000Z</time>
      </trkpt>
      <trkpt lat="43.5316" lon="5.64055">
        <ele>475</ele>
        <time>2022-10-19T06:48:38.000Z</time>
      </trkpt>
      <trkpt lat="43.5316" lon="5.64054">
        <ele>475</ele>
        <time>2022-10-19T06:48:39.000Z</time>
      </trkpt>
      <trkpt lat="43.53161" lon="5.64053">
        <ele>475</ele>
        <time>2022-10-19T06:48:40.000Z</time>
      </trkpt>
      <trkpt lat="43.53161" lon="5.64052">
        <ele>475</ele>
        <time>2022-10-19T06:48:41.000Z</time>
      </trkpt>
      <trkpt lat="43.5316" lon="5.64051">
        <ele>476</ele>
        <time>2022-10-19T06:48:42.000Z</time>
      </trkpt>
      <trkpt lat="43.5316" lon="5.6405">
        <ele>476</ele>
        <time>2022-10-19T06:48:43.000Z</time>
      </trkpt>
      <trkpt lat="43.5316" lon="5.64049">
        <ele>476</ele>
        <time>2022-10-19T06:48:44.000Z</time>
      </trkpt>
      <trkpt lat="43.53159" lon="5.64048">
        <ele>476</ele>
        <time>2022-10-19T06:48:45.000Z</time>
      </trkpt>
      <trkpt lat="43.53159" lon="5.64046">
        <ele>476</ele>
        <time>2022-10-19T06:48:46.000Z</time>
      </trkpt>
      <trkpt lat="43.53159" lon="5.64046">
        <ele>476</ele>
        <time>2022-10-19T06:48:47.000Z</time>
      </trkpt>
      <trkpt lat="43.53159" lon="5.64044">
        <ele>476</ele>
        <time>2022-10-19T06:48:48.000Z</time>
      </trkpt>
      <trkpt lat="43.53159" lon="5.64043">
        <ele>476</ele>
        <time>2022-10-19T06:48:49.000Z</time>
      </trkpt>
      <trkpt lat="43.53158" lon="5.64042">
        <ele>476</ele>
        <time>2022-10-19T06:48:50.000Z</time>
      </trkpt>
      <trkpt lat="43.53158" lon="5.64041">
        <ele>476</ele>
        <time>2022-10-19T06:48:51.000Z</time>
      </trkpt>
      <trkpt lat="43.53158" lon="5.6404">
        <ele>476</ele>
        <time>2022-10-19T06:48:52.000Z</time>
      </trkpt>
      <trkpt lat="43.53157" lon="5.64039">
        <ele>476</ele>
        <time>2022-10-19T06:48:53.000Z</time>
      </trkpt>
      <trkpt lat="43.53157" lon="5.64038">
        <ele>476</ele>
        <time>2022-10-19T06:48:54.000Z</time>
      </trkpt>
      <trkpt lat="43.53158" lon="5.64037">
        <ele>477</ele>
        <time>2022-10-19T06:48:55.000Z</time>
      </trkpt>
      <trkpt lat="43.53158" lon="5.64036">
        <ele>477</ele>
        <time>2022-10-19T06:48:56.000Z</time>
      </trkpt>
      <trkpt lat="43.53157" lon="5.64035">
        <ele>477</ele>
        <time>2022-10-19T06:48:57.000Z</time>
      </trkpt>
      <trkpt lat="43.53157" lon="5.64034">
        <ele>477</ele>
        <time>2022-10-19T06:48:58.000Z</time>
      </trkpt>
      <trkpt lat="43.53157" lon="5.64033">
        <ele>477</ele>
        <time>2022-10-19T06:48:59.000Z</time>
      </trkpt>
      <trkpt lat="43.53157" lon="5.64032">
        <ele>477</ele>
        <time>2022-10-19T06:49:00.000Z</time>
      </trkpt>
      <trkpt lat="43.53156" lon="5.64032">
        <ele>477</ele>
        <time>2022-10-19T06:49:01.000Z</time>
      </trkpt>
      <trkpt lat="43.53156" lon="5.64031">
        <ele>477</ele>
        <time>2022-10-19T06:49:02.000Z</time>
      </trkpt>
      <trkpt lat="43.53156" lon="5.64029">
        <ele>477</ele>
        <time>2022-10-19T06:49:03.000Z</time>
      </trkpt>
      <trkpt lat="43.53156" lon="5.64029">
        <ele>478</ele>
        <time>2022-10-19T06:49:04.000Z</time>
      </trkpt>
      <trkpt lat="43.53157" lon="5.64028">
        <ele>478</ele>
        <time>2022-10-19T06:49:05.000Z</time>
      </trkpt>
      <trkpt lat="43.53157" lon="5.64027">
        <ele>478</ele>
        <time>2022-10-19T06:49:06.000Z</time>
      </trkpt>
      <trkpt lat="43.53157" lon="5.64026">
        <ele>478</ele>
        <time>2022-10-19T06:49:07.000Z</time>
      </trkpt>
      <trkpt lat="43.53157" lon="5.64024">
        <ele>478</ele>
        <time>2022-10-19T06:49:08.000Z</time>
      </trkpt>
      <trkpt lat="43.53157" lon="5.64023">
        <ele>478</ele>
        <time>2022-10-19T06:49:09.000Z</time>
      </trkpt>
      <trkpt lat="43.53157" lon="5.64023">
        <ele>479</ele>
        <time>2022-10-19T06:49:10.000Z</time>
      </trkpt>
      <trkpt lat="43.53157" lon="5.64022">
        <ele>479</ele>
        <time>2022-10-19T06:49:11.000Z</time>
      </trkpt>
      <trkpt lat="43.53157" lon="5.64022">
        <ele>479</ele>
        <time>2022-10-19T06:49:12.000Z</time>
      </trkpt>
      <trkpt lat="43.53157" lon="5.64022">
        <ele>479</ele>
        <time>2022-10-19T06:49:13.000Z</time>
      </trkpt>
      <trkpt lat="43.53157" lon="5.64022">
        <ele>479</ele>
        <time>2022-10-19T06:49:14.000Z</time>
      </trkpt>
      <trkpt lat="43.53157" lon="5.64022">
        <ele>479</ele>
        <time>2022-10-19T06:49:15.000Z</time>
      </trkpt>
      <trkpt lat="43.53157" lon="5.64022">
        <ele>479</ele>
        <time>2022-10-19T06:49:16.000Z</time>
      </trkpt>
      <trkpt lat="43.53157" lon="5.64022">
        <ele>479</ele>
        <time>2022-10-19T06:49:17.000Z</time>
      </trkpt>
      <trkpt lat="43.53157" lon="5.64022">
        <ele>479</ele>
        <time>2022-10-19T06:49:18.000Z</time>
      </trkpt>
      <trkpt lat="43.53157" lon="5.64022">
        <ele>479</ele>
        <time>2022-10-19T06:49:19.000Z</time>
      </trkpt>
      <trkpt lat="43.53157" lon="5.64022">
        <ele>479</ele>
        <time>2022-10-19T06:49:20.000Z</time>
      </trkpt>
      <trkpt lat="43.53157" lon="5.64022">
        <ele>479</ele>
        <time>2022-10-19T06:49:21.000Z</time>
      </trkpt>
      <trkpt lat="43.53157" lon="5.64022">
        <ele>479</ele>
        <time>2022-10-19T06:49:22.000Z</time>
      </trkpt>
      <trkpt lat="43.53157" lon="5.64022">
        <ele>479</ele>
        <time>2022-10-19T06:49:23.000Z</time>
      </trkpt>
      <trkpt lat="43.53157" lon="5.64022">
        <ele>479</ele>
        <time>2022-10-19T06:49:24.000Z</time>
      </trkpt>
      <trkpt lat="43.53157" lon="5.64022">
        <ele>479</ele>
        <time>2022-10-19T06:49:25.000Z</time>
      </trkpt>
      <trkpt lat="43.53157" lon="5.64022">
        <ele>479</ele>
        <time>2022-10-19T06:49:26.000Z</time>
      </trkpt>
      <trkpt lat="43.53157" lon="5.64022">
        <ele>480</ele>
        <time>2022-10-19T06:49:27.000Z</time>
      </trkpt>
      <trkpt lat="43.53157" lon="5.64022">
        <ele>480</ele>
        <time>2022-10-19T06:49:28.000Z</time>
      </trkpt>
      <trkpt lat="43.53157" lon="5.64022">
        <ele>480</ele>
        <time>2022-10-19T06:49:29.000Z</time>
      </trkpt>
      <trkpt lat="43.53157" lon="5.64022">
        <ele>480</ele>
        <time>2022-10-19T06:49:30.000Z</time>
      </trkpt>
      <trkpt lat="43.53156" lon="5.64022">
        <ele>480</ele>
        <time>2022-10-19T06:49:31.000Z</time>
      </trkpt>
      <trkpt lat="43.53157" lon="5.64022">
        <ele>480</ele>
        <time>2022-10-19T06:49:32.000Z</time>
      </trkpt>
      <trkpt lat="43.53157" lon="5.64021">
        <ele>480</ele>
        <time>2022-10-19T06:49:33.000Z</time>
      </trkpt>
      <trkpt lat="43.53157" lon="5.64021">
        <ele>480</ele>
        <time>2022-10-19T06:49:34.000Z</time>
      </trkpt>
      <trkpt lat="43.53157" lon="5.6402">
        <ele>480</ele>
        <time>2022-10-19T06:49:35.000Z</time>
      </trkpt>
      <trkpt lat="43.53157" lon="5.64019">
        <ele>480</ele>
        <time>2022-10-19T06:49:36.000Z</time>
      </trkpt>
      <trkpt lat="43.53158" lon="5.64018">
        <ele>480</ele>
        <time>2022-10-19T06:49:37.000Z</time>
      </trkpt>
      <trkpt lat="43.53158" lon="5.64017">
        <ele>480</ele>
        <time>2022-10-19T06:49:38.000Z</time>
      </trkpt>
      <trkpt lat="43.53158" lon="5.64016">
        <ele>480</ele>
        <time>2022-10-19T06:49:39.000Z</time>
      </trkpt>
      <trkpt lat="43.53158" lon="5.64015">
        <ele>480</ele>
        <time>2022-10-19T06:49:40.000Z</time>
      </trkpt>
      <trkpt lat="43.53158" lon="5.64014">
        <ele>481</ele>
        <time>2022-10-19T06:49:41.000Z</time>
      </trkpt>
      <trkpt lat="43.53158" lon="5.64013">
        <ele>481</ele>
        <time>2022-10-19T06:49:42.000Z</time>
      </trkpt>
      <trkpt lat="43.53158" lon="5.64012">
        <ele>481</ele>
        <time>2022-10-19T06:49:43.000Z</time>
      </trkpt>
      <trkpt lat="43.53158" lon="5.64011">
        <ele>481</ele>
        <time>2022-10-19T06:49:44.000Z</time>
      </trkpt>
      <trkpt lat="43.53158" lon="5.6401">
        <ele>481</ele>
        <time>2022-10-19T06:49:45.000Z</time>
      </trkpt>
      <trkpt lat="43.53158" lon="5.64009">
        <ele>481</ele>
        <time>2022-10-19T06:49:46.000Z</time>
      </trkpt>
      <trkpt lat="43.53158" lon="5.64008">
        <ele>481</ele>
        <time>2022-10-19T06:49:47.000Z</time>
      </trkpt>
      <trkpt lat="43.53159" lon="5.64007">
        <ele>482</ele>
        <time>2022-10-19T06:49:48.000Z</time>
      </trkpt>
      <trkpt lat="43.5316" lon="5.64006">
        <ele>482</ele>
        <time>2022-10-19T06:49:49.000Z</time>
      </trkpt>
      <trkpt lat="43.5316" lon="5.64005">
        <ele>482</ele>
        <time>2022-10-19T06:49:50.000Z</time>
      </trkpt>
      <trkpt lat="43.53161" lon="5.64004">
        <ele>482</ele>
        <time>2022-10-19T06:49:51.000Z</time>
      </trkpt>
      <trkpt lat="43.53161" lon="5.64003">
        <ele>482</ele>
        <time>2022-10-19T06:49:52.000Z</time>
      </trkpt>
      <trkpt lat="43.53161" lon="5.64002">
        <ele>482</ele>
        <time>2022-10-19T06:49:53.000Z</time>
      </trkpt>
      <trkpt lat="43.53161" lon="5.64001">
        <ele>482</ele>
        <time>2022-10-19T06:49:54.000Z</time>
      </trkpt>
      <trkpt lat="43.53161" lon="5.64">
        <ele>482</ele>
        <time>2022-10-19T06:49:55.000Z</time>
      </trkpt>
      <trkpt lat="43.53162" lon="5.63999">
        <ele>482</ele>
        <time>2022-10-19T06:49:56.000Z</time>
      </trkpt>
      <trkpt lat="43.53162" lon="5.63998">
        <ele>483</ele>
        <time>2022-10-19T06:49:57.000Z</time>
      </trkpt>
      <trkpt lat="43.53162" lon="5.63997">
        <ele>483</ele>
        <time>2022-10-19T06:49:58.000Z</time>
      </trkpt>
      <trkpt lat="43.53162" lon="5.63996">
        <ele>483</ele>
        <time>2022-10-19T06:49:59.000Z</time>
      </trkpt>
      <trkpt lat="43.53162" lon="5.63995">
        <ele>483</ele>
        <time>2022-10-19T06:50:00.000Z</time>
      </trkpt>
      <trkpt lat="43.53163" lon="5.63994">
        <ele>483</ele>
        <time>2022-10-19T06:50:01.000Z</time>
      </trkpt>
      <trkpt lat="43.53163" lon="5.63994">
        <ele>483</ele>
        <time>2022-10-19T06:50:02.000Z</time>
      </trkpt>
      <trkpt lat="43.53163" lon="5.63993">
        <ele>483</ele>
        <time>2022-10-19T06:50:03.000Z</time>
      </trkpt>
      <trkpt lat="43.53163" lon="5.63993">
        <ele>483</ele>
        <time>2022-10-19T06:50:04.000Z</time>
      </trkpt>
      <trkpt lat="43.53163" lon="5.63993">
        <ele>483</ele>
        <time>2022-10-19T06:50:05.000Z</time>
      </trkpt>
      <trkpt lat="43.53163" lon="5.63993">
        <ele>483</ele>
        <time>2022-10-19T06:50:06.000Z</time>
      </trkpt>
      <trkpt lat="43.53163" lon="5.63993">
        <ele>483</ele>
        <time>2022-10-19T06:50:07.000Z</time>
      </trkpt>
      <trkpt lat="43.53163" lon="5.63993">
        <ele>484</ele>
        <time>2022-10-19T06:50:08.000Z</time>
      </trkpt>
      <trkpt lat="43.53163" lon="5.63993">
        <ele>484</ele>
        <time>2022-10-19T06:50:09.000Z</time>
      </trkpt>
      <trkpt lat="43.53163" lon="5.63993">
        <ele>484</ele>
        <time>2022-10-19T06:50:10.000Z</time>
      </trkpt>
      <trkpt lat="43.53163" lon="5.63993">
        <ele>484</ele>
        <time>2022-10-19T06:50:11.000Z</time>
      </trkpt>
      <trkpt lat="43.53163" lon="5.63993">
        <ele>484</ele>
        <time>2022-10-19T06:50:12.000Z</time>
      </trkpt>
      <trkpt lat="43.53163" lon="5.63993">
        <ele>484</ele>
        <time>2022-10-19T06:50:13.000Z</time>
      </trkpt>
      <trkpt lat="43.53163" lon="5.63993">
        <ele>484</ele>
        <time>2022-10-19T06:50:14.000Z</time>
      </trkpt>
      <trkpt lat="43.53163" lon="5.63993">
        <ele>484</ele>
        <time>2022-10-19T06:50:15.000Z</time>
      </trkpt>
      <trkpt lat="43.53163" lon="5.63993">
        <ele>484</ele>
        <time>2022-10-19T06:50:16.000Z</time>
      </trkpt>
      <trkpt lat="43.53163" lon="5.63993">
        <ele>484</ele>
        <time>2022-10-19T06:50:17.000Z</time>
      </trkpt>
      <trkpt lat="43.53163" lon="5.63993">
        <ele>484</ele>
        <time>2022-10-19T06:50:18.000Z</time>
      </trkpt>
      <trkpt lat="43.53164" lon="5.63993">
        <ele>484</ele>
        <time>2022-10-19T06:50:19.000Z</time>
      </trkpt>
      <trkpt lat="43.53164" lon="5.63994">
        <ele>484</ele>
        <time>2022-10-19T06:50:20.000Z</time>
      </trkpt>
      <trkpt lat="43.53164" lon="5.63994">
        <ele>484</ele>
        <time>2022-10-19T06:50:21.000Z</time>
      </trkpt>
      <trkpt lat="43.53164" lon="5.63994">
        <ele>484</ele>
        <time>2022-10-19T06:50:22.000Z</time>
      </trkpt>
      <trkpt lat="43.53164" lon="5.63994">
        <ele>484</ele>
        <time>2022-10-19T06:50:23.000Z</time>
      </trkpt>
      <trkpt lat="43.53164" lon="5.63994">
        <ele>484</ele>
        <time>2022-10-19T06:50:24.000Z</time>
      </trkpt>
      <trkpt lat="43.53165" lon="5.63995">
        <ele>484</ele>
        <time>2022-10-19T06:50:25.000Z</time>
      </trkpt>
      <trkpt lat="43.53166" lon="5.63996">
        <ele>484</ele>
        <time>2022-10-19T06:50:26.000Z</time>
      </trkpt>
      <trkpt lat="43.53166" lon="5.63997">
        <ele>484</ele>
        <time>2022-10-19T06:50:27.000Z</time>
      </trkpt>
      <trkpt lat="43.53166" lon="5.63998">
        <ele>484</ele>
        <time>2022-10-19T06:50:28.000Z</time>
      </trkpt>
      <trkpt lat="43.53167" lon="5.63999">
        <ele>484</ele>
        <time>2022-10-19T06:50:29.000Z</time>
      </trkpt>
      <trkpt lat="43.53167" lon="5.63999">
        <ele>484</ele>
        <time>2022-10-19T06:50:30.000Z</time>
      </trkpt>
      <trkpt lat="43.53167" lon="5.64">
        <ele>485</ele>
        <time>2022-10-19T06:50:31.000Z</time>
      </trkpt>
      <trkpt lat="43.53168" lon="5.64001">
        <ele>485</ele>
        <time>2022-10-19T06:50:32.000Z</time>
      </trkpt>
      <trkpt lat="43.53168" lon="5.64002">
        <ele>485</ele>
        <time>2022-10-19T06:50:33.000Z</time>
      </trkpt>
      <trkpt lat="43.53168" lon="5.64003">
        <ele>485</ele>
        <time>2022-10-19T06:50:34.000Z</time>
      </trkpt>
      <trkpt lat="43.53168" lon="5.64004">
        <ele>485</ele>
        <time>2022-10-19T06:50:35.000Z</time>
      </trkpt>
      <trkpt lat="43.53168" lon="5.64004">
        <ele>485</ele>
        <time>2022-10-19T06:50:36.000Z</time>
      </trkpt>
      <trkpt lat="43.53168" lon="5.64005">
        <ele>485</ele>
        <time>2022-10-19T06:50:37.000Z</time>
      </trkpt>
      <trkpt lat="43.53168" lon="5.64006">
        <ele>485</ele>
        <time>2022-10-19T06:50:38.000Z</time>
      </trkpt>
      <trkpt lat="43.53168" lon="5.64007">
        <ele>486</ele>
        <time>2022-10-19T06:50:39.000Z</time>
      </trkpt>
      <trkpt lat="43.53169" lon="5.64007">
        <ele>486</ele>
        <time>2022-10-19T06:50:40.000Z</time>
      </trkpt>
      <trkpt lat="43.53169" lon="5.64008">
        <ele>486</ele>
        <time>2022-10-19T06:50:41.000Z</time>
      </trkpt>
      <trkpt lat="43.5317" lon="5.64009">
        <ele>486</ele>
        <time>2022-10-19T06:50:42.000Z</time>
      </trkpt>
      <trkpt lat="43.5317" lon="5.64009">
        <ele>486</ele>
        <time>2022-10-19T06:50:43.000Z</time>
      </trkpt>
      <trkpt lat="43.53171" lon="5.64009">
        <ele>486</ele>
        <time>2022-10-19T06:50:44.000Z</time>
      </trkpt>
      <trkpt lat="43.53171" lon="5.64009">
        <ele>486</ele>
        <time>2022-10-19T06:50:45.000Z</time>
      </trkpt>
      <trkpt lat="43.53171" lon="5.6401">
        <ele>486</ele>
        <time>2022-10-19T06:50:46.000Z</time>
      </trkpt>
      <trkpt lat="43.53172" lon="5.64011">
        <ele>486</ele>
        <time>2022-10-19T06:50:47.000Z</time>
      </trkpt>
      <trkpt lat="43.53172" lon="5.64011">
        <ele>486</ele>
        <time>2022-10-19T06:50:48.000Z</time>
      </trkpt>
      <trkpt lat="43.53172" lon="5.64011">
        <ele>487</ele>
        <time>2022-10-19T06:50:49.000Z</time>
      </trkpt>
      <trkpt lat="43.53173" lon="5.64012">
        <ele>487</ele>
        <time>2022-10-19T06:50:50.000Z</time>
      </trkpt>
      <trkpt lat="43.53174" lon="5.64012">
        <ele>487</ele>
        <time>2022-10-19T06:50:51.000Z</time>
      </trkpt>
      <trkpt lat="43.53174" lon="5.64013">
        <ele>487</ele>
        <time>2022-10-19T06:50:52.000Z</time>
      </trkpt>
      <trkpt lat="43.53175" lon="5.64014">
        <ele>487</ele>
        <time>2022-10-19T06:50:53.000Z</time>
      </trkpt>
      <trkpt lat="43.53175" lon="5.64015">
        <ele>487</ele>
        <time>2022-10-19T06:50:54.000Z</time>
      </trkpt>
      <trkpt lat="43.53175" lon="5.64015">
        <ele>487</ele>
        <time>2022-10-19T06:50:55.000Z</time>
      </trkpt>
      <trkpt lat="43.53176" lon="5.64016">
        <ele>487</ele>
        <time>2022-10-19T06:50:56.000Z</time>
      </trkpt>
      <trkpt lat="43.53176" lon="5.64017">
        <ele>488</ele>
        <time>2022-10-19T06:50:57.000Z</time>
      </trkpt>
      <trkpt lat="43.53176" lon="5.64018">
        <ele>488</ele>
        <time>2022-10-19T06:50:58.000Z</time>
      </trkpt>
      <trkpt lat="43.53176" lon="5.64018">
        <ele>488</ele>
        <time>2022-10-19T06:50:59.000Z</time>
      </trkpt>
      <trkpt lat="43.53176" lon="5.64019">
        <ele>488</ele>
        <time>2022-10-19T06:51:00.000Z</time>
      </trkpt>
      <trkpt lat="43.53177" lon="5.6402">
        <ele>488</ele>
        <time>2022-10-19T06:51:01.000Z</time>
      </trkpt>
      <trkpt lat="43.53177" lon="5.64021">
        <ele>488</ele>
        <time>2022-10-19T06:51:02.000Z</time>
      </trkpt>
      <trkpt lat="43.53178" lon="5.64021">
        <ele>488</ele>
        <time>2022-10-19T06:51:03.000Z</time>
      </trkpt>
      <trkpt lat="43.53178" lon="5.64022">
        <ele>488</ele>
        <time>2022-10-19T06:51:04.000Z</time>
      </trkpt>
      <trkpt lat="43.53179" lon="5.64023">
        <ele>488</ele>
        <time>2022-10-19T06:51:05.000Z</time>
      </trkpt>
      <trkpt lat="43.5318" lon="5.64023">
        <ele>488</ele>
        <time>2022-10-19T06:51:06.000Z</time>
      </trkpt>
      <trkpt lat="43.53181" lon="5.64024">
        <ele>489</ele>
        <time>2022-10-19T06:51:07.000Z</time>
      </trkpt>
      <trkpt lat="43.53181" lon="5.64024">
        <ele>489</ele>
        <time>2022-10-19T06:51:08.000Z</time>
      </trkpt>
      <trkpt lat="43.53182" lon="5.64025">
        <ele>489</ele>
        <time>2022-10-19T06:51:09.000Z</time>
      </trkpt>
      <trkpt lat="43.53182" lon="5.64025">
        <ele>489</ele>
        <time>2022-10-19T06:51:10.000Z</time>
      </trkpt>
      <trkpt lat="43.53183" lon="5.64025">
        <ele>489</ele>
        <time>2022-10-19T06:51:11.000Z</time>
      </trkpt>
      <trkpt lat="43.53183" lon="5.64024">
        <ele>489</ele>
        <time>2022-10-19T06:51:12.000Z</time>
      </trkpt>
      <trkpt lat="43.53183" lon="5.64023">
        <ele>489</ele>
        <time>2022-10-19T06:51:13.000Z</time>
      </trkpt>
      <trkpt lat="43.53184" lon="5.64022">
        <ele>489</ele>
        <time>2022-10-19T06:51:14.000Z</time>
      </trkpt>
      <trkpt lat="43.53184" lon="5.64022">
        <ele>489</ele>
        <time>2022-10-19T06:51:15.000Z</time>
      </trkpt>
      <trkpt lat="43.53184" lon="5.64021">
        <ele>489</ele>
        <time>2022-10-19T06:51:16.000Z</time>
      </trkpt>
      <trkpt lat="43.53184" lon="5.6402">
        <ele>490</ele>
        <time>2022-10-19T06:51:17.000Z</time>
      </trkpt>
      <trkpt lat="43.53184" lon="5.64019">
        <ele>490</ele>
        <time>2022-10-19T06:51:18.000Z</time>
      </trkpt>
      <trkpt lat="43.53184" lon="5.64019">
        <ele>490</ele>
        <time>2022-10-19T06:51:19.000Z</time>
      </trkpt>
      <trkpt lat="43.53183" lon="5.64018">
        <ele>490</ele>
        <time>2022-10-19T06:51:20.000Z</time>
      </trkpt>
      <trkpt lat="43.53183" lon="5.64017">
        <ele>490</ele>
        <time>2022-10-19T06:51:21.000Z</time>
      </trkpt>
      <trkpt lat="43.53183" lon="5.64016">
        <ele>491</ele>
        <time>2022-10-19T06:51:22.000Z</time>
      </trkpt>
      <trkpt lat="43.53182" lon="5.64015">
        <ele>491</ele>
        <time>2022-10-19T06:51:23.000Z</time>
      </trkpt>
      <trkpt lat="43.53182" lon="5.64014">
        <ele>491</ele>
        <time>2022-10-19T06:51:24.000Z</time>
      </trkpt>
      <trkpt lat="43.53182" lon="5.64013">
        <ele>491</ele>
        <time>2022-10-19T06:51:25.000Z</time>
      </trkpt>
      <trkpt lat="43.53182" lon="5.64012">
        <ele>491</ele>
        <time>2022-10-19T06:51:26.000Z</time>
      </trkpt>
      <trkpt lat="43.53183" lon="5.64011">
        <ele>491</ele>
        <time>2022-10-19T06:51:27.000Z</time>
      </trkpt>
      <trkpt lat="43.53183" lon="5.64011">
        <ele>491</ele>
        <time>2022-10-19T06:51:28.000Z</time>
      </trkpt>
      <trkpt lat="43.53183" lon="5.6401">
        <ele>491</ele>
        <time>2022-10-19T06:51:29.000Z</time>
      </trkpt>
      <trkpt lat="43.53184" lon="5.6401">
        <ele>492</ele>
        <time>2022-10-19T06:51:30.000Z</time>
      </trkpt>
      <trkpt lat="43.53184" lon="5.6401">
        <ele>492</ele>
        <time>2022-10-19T06:51:31.000Z</time>
      </trkpt>
      <trkpt lat="43.53184" lon="5.6401">
        <ele>492</ele>
        <time>2022-10-19T06:51:32.000Z</time>
      </trkpt>
      <trkpt lat="43.53184" lon="5.6401">
        <ele>492</ele>
        <time>2022-10-19T06:51:33.000Z</time>
      </trkpt>
      <trkpt lat="43.53184" lon="5.64011">
        <ele>492</ele>
        <time>2022-10-19T06:51:34.000Z</time>
      </trkpt>
      <trkpt lat="43.53185" lon="5.64011">
        <ele>492</ele>
        <time>2022-10-19T06:51:35.000Z</time>
      </trkpt>
      <trkpt lat="43.53185" lon="5.64011">
        <ele>492</ele>
        <time>2022-10-19T06:51:36.000Z</time>
      </trkpt>
      <trkpt lat="43.53185" lon="5.64011">
        <ele>492</ele>
        <time>2022-10-19T06:51:37.000Z</time>
      </trkpt>
      <trkpt lat="43.53186" lon="5.64011">
        <ele>492</ele>
        <time>2022-10-19T06:51:38.000Z</time>
      </trkpt>
      <trkpt lat="43.53186" lon="5.6401">
        <ele>493</ele>
        <time>2022-10-19T06:51:39.000Z</time>
      </trkpt>
      <trkpt lat="43.53186" lon="5.64011">
        <ele>493</ele>
        <time>2022-10-19T06:51:40.000Z</time>
      </trkpt>
      <trkpt lat="43.53187" lon="5.64011">
        <ele>493</ele>
        <time>2022-10-19T06:51:41.000Z</time>
      </trkpt>
      <trkpt lat="43.53187" lon="5.64012">
        <ele>493</ele>
        <time>2022-10-19T06:51:42.000Z</time>
      </trkpt>
      <trkpt lat="43.53188" lon="5.64012">
        <ele>493</ele>
        <time>2022-10-19T06:51:43.000Z</time>
      </trkpt>
      <trkpt lat="43.53188" lon="5.64013">
        <ele>493</ele>
        <time>2022-10-19T06:51:44.000Z</time>
      </trkpt>
      <trkpt lat="43.53189" lon="5.64014">
        <ele>493</ele>
        <time>2022-10-19T06:51:45.000Z</time>
      </trkpt>
      <trkpt lat="43.53189" lon="5.64014">
        <ele>494</ele>
        <time>2022-10-19T06:51:46.000Z</time>
      </trkpt>
      <trkpt lat="43.5319" lon="5.64014">
        <ele>494</ele>
        <time>2022-10-19T06:51:47.000Z</time>
      </trkpt>
      <trkpt lat="43.5319" lon="5.64015">
        <ele>494</ele>
        <time>2022-10-19T06:51:48.000Z</time>
      </trkpt>
      <trkpt lat="43.53191" lon="5.64015">
        <ele>494</ele>
        <time>2022-10-19T06:51:49.000Z</time>
      </trkpt>
      <trkpt lat="43.53191" lon="5.64015">
        <ele>494</ele>
        <time>2022-10-19T06:51:50.000Z</time>
      </trkpt>
      <trkpt lat="43.53192" lon="5.64016">
        <ele>494</ele>
        <time>2022-10-19T06:51:51.000Z</time>
      </trkpt>
      <trkpt lat="43.53192" lon="5.64016">
        <ele>494</ele>
        <time>2022-10-19T06:51:52.000Z</time>
      </trkpt>
      <trkpt lat="43.53193" lon="5.64017">
        <ele>494</ele>
        <time>2022-10-19T06:51:53.000Z</time>
      </trkpt>
      <trkpt lat="43.53193" lon="5.64017">
        <ele>494</ele>
        <time>2022-10-19T06:51:54.000Z</time>
      </trkpt>
      <trkpt lat="43.53194" lon="5.64018">
        <ele>494</ele>
        <time>2022-10-19T06:51:55.000Z</time>
      </trkpt>
      <trkpt lat="43.53195" lon="5.64018">
        <ele>494</ele>
        <time>2022-10-19T06:51:56.000Z</time>
      </trkpt>
      <trkpt lat="43.53195" lon="5.64019">
        <ele>494</ele>
        <time>2022-10-19T06:51:57.000Z</time>
      </trkpt>
      <trkpt lat="43.53195" lon="5.64019">
        <ele>495</ele>
        <time>2022-10-19T06:51:58.000Z</time>
      </trkpt>
      <trkpt lat="43.53196" lon="5.6402">
        <ele>495</ele>
        <time>2022-10-19T06:51:59.000Z</time>
      </trkpt>
      <trkpt lat="43.53196" lon="5.6402">
        <ele>495</ele>
        <time>2022-10-19T06:52:00.000Z</time>
      </trkpt>
      <trkpt lat="43.53197" lon="5.6402">
        <ele>495</ele>
        <time>2022-10-19T06:52:01.000Z</time>
      </trkpt>
      <trkpt lat="43.53197" lon="5.64021">
        <ele>495</ele>
        <time>2022-10-19T06:52:02.000Z</time>
      </trkpt>
      <trkpt lat="43.53198" lon="5.64021">
        <ele>495</ele>
        <time>2022-10-19T06:52:03.000Z</time>
      </trkpt>
      <trkpt lat="43.53198" lon="5.64022">
        <ele>495</ele>
        <time>2022-10-19T06:52:04.000Z</time>
      </trkpt>
      <trkpt lat="43.53199" lon="5.64022">
        <ele>495</ele>
        <time>2022-10-19T06:52:05.000Z</time>
      </trkpt>
      <trkpt lat="43.53199" lon="5.64023">
        <ele>495</ele>
        <time>2022-10-19T06:52:06.000Z</time>
      </trkpt>
      <trkpt lat="43.53199" lon="5.64023">
        <ele>495</ele>
        <time>2022-10-19T06:52:07.000Z</time>
      </trkpt>
      <trkpt lat="43.532" lon="5.64024">
        <ele>495</ele>
        <time>2022-10-19T06:52:08.000Z</time>
      </trkpt>
      <trkpt lat="43.532" lon="5.64024">
        <ele>496</ele>
        <time>2022-10-19T06:52:09.000Z</time>
      </trkpt>
      <trkpt lat="43.53201" lon="5.64025">
        <ele>496</ele>
        <time>2022-10-19T06:52:10.000Z</time>
      </trkpt>
      <trkpt lat="43.53201" lon="5.64025">
        <ele>496</ele>
        <time>2022-10-19T06:52:11.000Z</time>
      </trkpt>
      <trkpt lat="43.53202" lon="5.64025">
        <ele>496</ele>
        <time>2022-10-19T06:52:12.000Z</time>
      </trkpt>
      <trkpt lat="43.53203" lon="5.64026">
        <ele>496</ele>
        <time>2022-10-19T06:52:13.000Z</time>
      </trkpt>
      <trkpt lat="43.53203" lon="5.64026">
        <ele>496</ele>
        <time>2022-10-19T06:52:14.000Z</time>
      </trkpt>
      <trkpt lat="43.53204" lon="5.64027">
        <ele>496</ele>
        <time>2022-10-19T06:52:15.000Z</time>
      </trkpt>
      <trkpt lat="43.53204" lon="5.64027">
        <ele>497</ele>
        <time>2022-10-19T06:52:16.000Z</time>
      </trkpt>
      <trkpt lat="43.53205" lon="5.64027">
        <ele>497</ele>
        <time>2022-10-19T06:52:17.000Z</time>
      </trkpt>
      <trkpt lat="43.53205" lon="5.64027">
        <ele>497</ele>
        <time>2022-10-19T06:52:18.000Z</time>
      </trkpt>
      <trkpt lat="43.53206" lon="5.64028">
        <ele>497</ele>
        <time>2022-10-19T06:52:19.000Z</time>
      </trkpt>
      <trkpt lat="43.53206" lon="5.64028">
        <ele>497</ele>
        <time>2022-10-19T06:52:20.000Z</time>
      </trkpt>
      <trkpt lat="43.53207" lon="5.64029">
        <ele>497</ele>
        <time>2022-10-19T06:52:21.000Z</time>
      </trkpt>
      <trkpt lat="43.53207" lon="5.64029">
        <ele>497</ele>
        <time>2022-10-19T06:52:22.000Z</time>
      </trkpt>
      <trkpt lat="43.53208" lon="5.6403">
        <ele>497</ele>
        <time>2022-10-19T06:52:23.000Z</time>
      </trkpt>
      <trkpt lat="43.53209" lon="5.64031">
        <ele>497</ele>
        <time>2022-10-19T06:52:24.000Z</time>
      </trkpt>
      <trkpt lat="43.53209" lon="5.64032">
        <ele>497</ele>
        <time>2022-10-19T06:52:25.000Z</time>
      </trkpt>
      <trkpt lat="43.5321" lon="5.64033">
        <ele>497</ele>
        <time>2022-10-19T06:52:26.000Z</time>
      </trkpt>
      <trkpt lat="43.5321" lon="5.64034">
        <ele>498</ele>
        <time>2022-10-19T06:52:27.000Z</time>
      </trkpt>
      <trkpt lat="43.5321" lon="5.64034">
        <ele>498</ele>
        <time>2022-10-19T06:52:28.000Z</time>
      </trkpt>
      <trkpt lat="43.53211" lon="5.64035">
        <ele>498</ele>
        <time>2022-10-19T06:52:29.000Z</time>
      </trkpt>
      <trkpt lat="43.53211" lon="5.64036">
        <ele>498</ele>
        <time>2022-10-19T06:52:30.000Z</time>
      </trkpt>
      <trkpt lat="43.53212" lon="5.64037">
        <ele>498</ele>
        <time>2022-10-19T06:52:31.000Z</time>
      </trkpt>
      <trkpt lat="43.53212" lon="5.64038">
        <ele>498</ele>
        <time>2022-10-19T06:52:32.000Z</time>
      </trkpt>
      <trkpt lat="43.53212" lon="5.64039">
        <ele>498</ele>
        <time>2022-10-19T06:52:33.000Z</time>
      </trkpt>
      <trkpt lat="43.53213" lon="5.64039">
        <ele>498</ele>
        <time>2022-10-19T06:52:34.000Z</time>
      </trkpt>
      <trkpt lat="43.53213" lon="5.6404">
        <ele>498</ele>
        <time>2022-10-19T06:52:35.000Z</time>
      </trkpt>
      <trkpt lat="43.53214" lon="5.64041">
        <ele>498</ele>
        <time>2022-10-19T06:52:36.000Z</time>
      </trkpt>
      <trkpt lat="43.53214" lon="5.64041">
        <ele>499</ele>
        <time>2022-10-19T06:52:37.000Z</time>
      </trkpt>
      <trkpt lat="43.53215" lon="5.64042">
        <ele>499</ele>
        <time>2022-10-19T06:52:38.000Z</time>
      </trkpt>
      <trkpt lat="43.53215" lon="5.64043">
        <ele>499</ele>
        <time>2022-10-19T06:52:39.000Z</time>
      </trkpt>
      <trkpt lat="43.53216" lon="5.64043">
        <ele>499</ele>
        <time>2022-10-19T06:52:40.000Z</time>
      </trkpt>
      <trkpt lat="43.53216" lon="5.64044">
        <ele>499</ele>
        <time>2022-10-19T06:52:41.000Z</time>
      </trkpt>
      <trkpt lat="43.53216" lon="5.64045">
        <ele>499</ele>
        <time>2022-10-19T06:52:42.000Z</time>
      </trkpt>
      <trkpt lat="43.53217" lon="5.64046">
        <ele>500</ele>
        <time>2022-10-19T06:52:43.000Z</time>
      </trkpt>
      <trkpt lat="43.53217" lon="5.64047">
        <ele>500</ele>
        <time>2022-10-19T06:52:44.000Z</time>
      </trkpt>
      <trkpt lat="43.53217" lon="5.64048">
        <ele>500</ele>
        <time>2022-10-19T06:52:45.000Z</time>
      </trkpt>
      <trkpt lat="43.53218" lon="5.64049">
        <ele>500</ele>
        <time>2022-10-19T06:52:46.000Z</time>
      </trkpt>
      <trkpt lat="43.53218" lon="5.6405">
        <ele>500</ele>
        <time>2022-10-19T06:52:47.000Z</time>
      </trkpt>
      <trkpt lat="43.53218" lon="5.64051">
        <ele>500</ele>
        <time>2022-10-19T06:52:48.000Z</time>
      </trkpt>
      <trkpt lat="43.53218" lon="5.64051">
        <ele>501</ele>
        <time>2022-10-19T06:52:49.000Z</time>
      </trkpt>
      <trkpt lat="43.53219" lon="5.64052">
        <ele>501</ele>
        <time>2022-10-19T06:52:50.000Z</time>
      </trkpt>
      <trkpt lat="43.53219" lon="5.64052">
        <ele>501</ele>
        <time>2022-10-19T06:52:51.000Z</time>
      </trkpt>
      <trkpt lat="43.5322" lon="5.64051">
        <ele>501</ele>
        <time>2022-10-19T06:52:52.000Z</time>
      </trkpt>
      <trkpt lat="43.53221" lon="5.64051">
        <ele>501</ele>
        <time>2022-10-19T06:52:53.000Z</time>
      </trkpt>
      <trkpt lat="43.53221" lon="5.64051">
        <ele>502</ele>
        <time>2022-10-19T06:52:54.000Z</time>
      </trkpt>
      <trkpt lat="43.53222" lon="5.6405">
        <ele>502</ele>
        <time>2022-10-19T06:52:55.000Z</time>
      </trkpt>
      <trkpt lat="43.53222" lon="5.6405">
        <ele>502</ele>
        <time>2022-10-19T06:52:56.000Z</time>
      </trkpt>
      <trkpt lat="43.53223" lon="5.64049">
        <ele>502</ele>
        <time>2022-10-19T06:52:57.000Z</time>
      </trkpt>
      <trkpt lat="43.53223" lon="5.64049">
        <ele>502</ele>
        <time>2022-10-19T06:52:58.000Z</time>
      </trkpt>
      <trkpt lat="43.53223" lon="5.64049">
        <ele>503</ele>
        <time>2022-10-19T06:52:59.000Z</time>
      </trkpt>
      <trkpt lat="43.53224" lon="5.64049">
        <ele>503</ele>
        <time>2022-10-19T06:53:00.000Z</time>
      </trkpt>
      <trkpt lat="43.53224" lon="5.64049">
        <ele>503</ele>
        <time>2022-10-19T06:53:01.000Z</time>
      </trkpt>
      <trkpt lat="43.53224" lon="5.64049">
        <ele>504</ele>
        <time>2022-10-19T06:53:02.000Z</time>
      </trkpt>
      <trkpt lat="43.53224" lon="5.64048">
        <ele>504</ele>
        <time>2022-10-19T06:53:03.000Z</time>
      </trkpt>
      <trkpt lat="43.53225" lon="5.64048">
        <ele>504</ele>
        <time>2022-10-19T06:53:04.000Z</time>
      </trkpt>
      <trkpt lat="43.53225" lon="5.64047">
        <ele>504</ele>
        <time>2022-10-19T06:53:05.000Z</time>
      </trkpt>
      <trkpt lat="43.53225" lon="5.64046">
        <ele>504</ele>
        <time>2022-10-19T06:53:06.000Z</time>
      </trkpt>
      <trkpt lat="43.53225" lon="5.64045">
        <ele>504</ele>
        <time>2022-10-19T06:53:07.000Z</time>
      </trkpt>
      <trkpt lat="43.53225" lon="5.64044">
        <ele>505</ele>
        <time>2022-10-19T06:53:08.000Z</time>
      </trkpt>
      <trkpt lat="43.53225" lon="5.64044">
        <ele>505</ele>
        <time>2022-10-19T06:53:09.000Z</time>
      </trkpt>
      <trkpt lat="43.53226" lon="5.64043">
        <ele>505</ele>
        <time>2022-10-19T06:53:10.000Z</time>
      </trkpt>
      <trkpt lat="43.53226" lon="5.64043">
        <ele>505</ele>
        <time>2022-10-19T06:53:11.000Z</time>
      </trkpt>
      <trkpt lat="43.53226" lon="5.64042">
        <ele>505</ele>
        <time>2022-10-19T06:53:12.000Z</time>
      </trkpt>
      <trkpt lat="43.53226" lon="5.64042">
        <ele>506</ele>
        <time>2022-10-19T06:53:13.000Z</time>
      </trkpt>
      <trkpt lat="43.53226" lon="5.64041">
        <ele>506</ele>
        <time>2022-10-19T06:53:14.000Z</time>
      </trkpt>
      <trkpt lat="43.53227" lon="5.6404">
        <ele>506</ele>
        <time>2022-10-19T06:53:15.000Z</time>
      </trkpt>
      <trkpt lat="43.53227" lon="5.6404">
        <ele>506</ele>
        <time>2022-10-19T06:53:16.000Z</time>
      </trkpt>
      <trkpt lat="43.53227" lon="5.64039">
        <ele>506</ele>
        <time>2022-10-19T06:53:17.000Z</time>
      </trkpt>
      <trkpt lat="43.53227" lon="5.64039">
        <ele>506</ele>
        <time>2022-10-19T06:53:18.000Z</time>
      </trkpt>
      <trkpt lat="43.53227" lon="5.64038">
        <ele>506</ele>
        <time>2022-10-19T06:53:19.000Z</time>
      </trkpt>
      <trkpt lat="43.53228" lon="5.64038">
        <ele>507</ele>
        <time>2022-10-19T06:53:20.000Z</time>
      </trkpt>
      <trkpt lat="43.53228" lon="5.64037">
        <ele>507</ele>
        <time>2022-10-19T06:53:21.000Z</time>
      </trkpt>
      <trkpt lat="43.53228" lon="5.64037">
        <ele>507</ele>
        <time>2022-10-19T06:53:22.000Z</time>
      </trkpt>
      <trkpt lat="43.53228" lon="5.64036">
        <ele>507</ele>
        <time>2022-10-19T06:53:23.000Z</time>
      </trkpt>
      <trkpt lat="43.53228" lon="5.64036">
        <ele>507</ele>
        <time>2022-10-19T06:53:24.000Z</time>
      </trkpt>
      <trkpt lat="43.53228" lon="5.64035">
        <ele>508</ele>
        <time>2022-10-19T06:53:25.000Z</time>
      </trkpt>
      <trkpt lat="43.53229" lon="5.64034">
        <ele>508</ele>
        <time>2022-10-19T06:53:26.000Z</time>
      </trkpt>
      <trkpt lat="43.53229" lon="5.64033">
        <ele>508</ele>
        <time>2022-10-19T06:53:27.000Z</time>
      </trkpt>
      <trkpt lat="43.53229" lon="5.64032">
        <ele>508</ele>
        <time>2022-10-19T06:53:28.000Z</time>
      </trkpt>
      <trkpt lat="43.53229" lon="5.64031">
        <ele>508</ele>
        <time>2022-10-19T06:53:29.000Z</time>
      </trkpt>
      <trkpt lat="43.53229" lon="5.64031">
        <ele>508</ele>
        <time>2022-10-19T06:53:30.000Z</time>
      </trkpt>
      <trkpt lat="43.5323" lon="5.6403">
        <ele>508</ele>
        <time>2022-10-19T06:53:31.000Z</time>
      </trkpt>
      <trkpt lat="43.5323" lon="5.6403">
        <ele>509</ele>
        <time>2022-10-19T06:53:32.000Z</time>
      </trkpt>
      <trkpt lat="43.5323" lon="5.6403">
        <ele>509</ele>
        <time>2022-10-19T06:53:33.000Z</time>
      </trkpt>
      <trkpt lat="43.5323" lon="5.64029">
        <ele>509</ele>
        <time>2022-10-19T06:53:34.000Z</time>
      </trkpt>
      <trkpt lat="43.5323" lon="5.64029">
        <ele>509</ele>
        <time>2022-10-19T06:53:35.000Z</time>
      </trkpt>
      <trkpt lat="43.5323" lon="5.64028">
        <ele>509</ele>
        <time>2022-10-19T06:53:36.000Z</time>
      </trkpt>
      <trkpt lat="43.5323" lon="5.64027">
        <ele>509</ele>
        <time>2022-10-19T06:53:37.000Z</time>
      </trkpt>
      <trkpt lat="43.53229" lon="5.64026">
        <ele>509</ele>
        <time>2022-10-19T06:53:38.000Z</time>
      </trkpt>
      <trkpt lat="43.53229" lon="5.64025">
        <ele>509</ele>
        <time>2022-10-19T06:53:39.000Z</time>
      </trkpt>
      <trkpt lat="43.53229" lon="5.64025">
        <ele>509</ele>
        <time>2022-10-19T06:53:40.000Z</time>
      </trkpt>
      <trkpt lat="43.53229" lon="5.64024">
        <ele>510</ele>
        <time>2022-10-19T06:53:41.000Z</time>
      </trkpt>
      <trkpt lat="43.53229" lon="5.64023">
        <ele>510</ele>
        <time>2022-10-19T06:53:42.000Z</time>
      </trkpt>
      <trkpt lat="43.53229" lon="5.64022">
        <ele>510</ele>
        <time>2022-10-19T06:53:43.000Z</time>
      </trkpt>
      <trkpt lat="43.53229" lon="5.64021">
        <ele>510</ele>
        <time>2022-10-19T06:53:44.000Z</time>
      </trkpt>
      <trkpt lat="43.53229" lon="5.6402">
        <ele>510</ele>
        <time>2022-10-19T06:53:45.000Z</time>
      </trkpt>
      <trkpt lat="43.53229" lon="5.64019">
        <ele>510</ele>
        <time>2022-10-19T06:53:46.000Z</time>
      </trkpt>
      <trkpt lat="43.53228" lon="5.64018">
        <ele>510</ele>
        <time>2022-10-19T06:53:47.000Z</time>
      </trkpt>
      <trkpt lat="43.53228" lon="5.64017">
        <ele>511</ele>
        <time>2022-10-19T06:53:48.000Z</time>
      </trkpt>
      <trkpt lat="43.53228" lon="5.64017">
        <ele>511</ele>
        <time>2022-10-19T06:53:49.000Z</time>
      </trkpt>
      <trkpt lat="43.53228" lon="5.64016">
        <ele>511</ele>
        <time>2022-10-19T06:53:50.000Z</time>
      </trkpt>
      <trkpt lat="43.53228" lon="5.64015">
        <ele>511</ele>
        <time>2022-10-19T06:53:51.000Z</time>
      </trkpt>
      <trkpt lat="43.53227" lon="5.64014">
        <ele>511</ele>
        <time>2022-10-19T06:53:52.000Z</time>
      </trkpt>
      <trkpt lat="43.53227" lon="5.64014">
        <ele>511</ele>
        <time>2022-10-19T06:53:53.000Z</time>
      </trkpt>
      <trkpt lat="43.53227" lon="5.64013">
        <ele>511</ele>
        <time>2022-10-19T06:53:54.000Z</time>
      </trkpt>
      <trkpt lat="43.53227" lon="5.64012">
        <ele>511</ele>
        <time>2022-10-19T06:53:55.000Z</time>
      </trkpt>
      <trkpt lat="43.53227" lon="5.64011">
        <ele>512</ele>
        <time>2022-10-19T06:53:56.000Z</time>
      </trkpt>
      <trkpt lat="43.53226" lon="5.6401">
        <ele>512</ele>
        <time>2022-10-19T06:53:57.000Z</time>
      </trkpt>
      <trkpt lat="43.53226" lon="5.64009">
        <ele>512</ele>
        <time>2022-10-19T06:53:58.000Z</time>
      </trkpt>
      <trkpt lat="43.53226" lon="5.64008">
        <ele>512</ele>
        <time>2022-10-19T06:53:59.000Z</time>
      </trkpt>
      <trkpt lat="43.53226" lon="5.64007">
        <ele>512</ele>
        <time>2022-10-19T06:54:00.000Z</time>
      </trkpt>
      <trkpt lat="43.53226" lon="5.64006">
        <ele>512</ele>
        <time>2022-10-19T06:54:01.000Z</time>
      </trkpt>
      <trkpt lat="43.53226" lon="5.64006">
        <ele>512</ele>
        <time>2022-10-19T06:54:02.000Z</time>
      </trkpt>
      <trkpt lat="43.53226" lon="5.64005">
        <ele>512</ele>
        <time>2022-10-19T06:54:03.000Z</time>
      </trkpt>
      <trkpt lat="43.53225" lon="5.64004">
        <ele>512</ele>
        <time>2022-10-19T06:54:04.000Z</time>
      </trkpt>
      <trkpt lat="43.53225" lon="5.64004">
        <ele>512</ele>
        <time>2022-10-19T06:54:05.000Z</time>
      </trkpt>
      <trkpt lat="43.53225" lon="5.64002">
        <ele>513</ele>
        <time>2022-10-19T06:54:06.000Z</time>
      </trkpt>
      <trkpt lat="43.53225" lon="5.64001">
        <ele>513</ele>
        <time>2022-10-19T06:54:07.000Z</time>
      </trkpt>
      <trkpt lat="43.53224" lon="5.64001">
        <ele>513</ele>
        <time>2022-10-19T06:54:08.000Z</time>
      </trkpt>
      <trkpt lat="43.53224" lon="5.64">
        <ele>513</ele>
        <time>2022-10-19T06:54:09.000Z</time>
      </trkpt>
      <trkpt lat="43.53224" lon="5.63998">
        <ele>513</ele>
        <time>2022-10-19T06:54:10.000Z</time>
      </trkpt>
      <trkpt lat="43.53224" lon="5.63998">
        <ele>513</ele>
        <time>2022-10-19T06:54:11.000Z</time>
      </trkpt>
      <trkpt lat="43.53224" lon="5.63997">
        <ele>513</ele>
        <time>2022-10-19T06:54:12.000Z</time>
      </trkpt>
      <trkpt lat="43.53224" lon="5.63996">
        <ele>513</ele>
        <time>2022-10-19T06:54:13.000Z</time>
      </trkpt>
      <trkpt lat="43.53224" lon="5.63995">
        <ele>514</ele>
        <time>2022-10-19T06:54:14.000Z</time>
      </trkpt>
      <trkpt lat="43.53224" lon="5.63995">
        <ele>514</ele>
        <time>2022-10-19T06:54:15.000Z</time>
      </trkpt>
      <trkpt lat="43.53224" lon="5.63994">
        <ele>514</ele>
        <time>2022-10-19T06:54:16.000Z</time>
      </trkpt>
      <trkpt lat="43.53224" lon="5.63993">
        <ele>514</ele>
        <time>2022-10-19T06:54:17.000Z</time>
      </trkpt>
      <trkpt lat="43.53224" lon="5.63992">
        <ele>514</ele>
        <time>2022-10-19T06:54:18.000Z</time>
      </trkpt>
      <trkpt lat="43.53224" lon="5.63991">
        <ele>515</ele>
        <time>2022-10-19T06:54:19.000Z</time>
      </trkpt>
      <trkpt lat="43.53224" lon="5.6399">
        <ele>515</ele>
        <time>2022-10-19T06:54:20.000Z</time>
      </trkpt>
      <trkpt lat="43.53224" lon="5.63989">
        <ele>515</ele>
        <time>2022-10-19T06:54:21.000Z</time>
      </trkpt>
      <trkpt lat="43.53224" lon="5.63988">
        <ele>515</ele>
        <time>2022-10-19T06:54:22.000Z</time>
      </trkpt>
      <trkpt lat="43.53224" lon="5.63986">
        <ele>515</ele>
        <time>2022-10-19T06:54:23.000Z</time>
      </trkpt>
      <trkpt lat="43.53224" lon="5.63986">
        <ele>515</ele>
        <time>2022-10-19T06:54:24.000Z</time>
      </trkpt>
      <trkpt lat="43.53225" lon="5.63985">
        <ele>515</ele>
        <time>2022-10-19T06:54:25.000Z</time>
      </trkpt>
      <trkpt lat="43.53225" lon="5.63983">
        <ele>515</ele>
        <time>2022-10-19T06:54:26.000Z</time>
      </trkpt>
      <trkpt lat="43.53225" lon="5.63982">
        <ele>515</ele>
        <time>2022-10-19T06:54:27.000Z</time>
      </trkpt>
      <trkpt lat="43.53226" lon="5.63982">
        <ele>516</ele>
        <time>2022-10-19T06:54:28.000Z</time>
      </trkpt>
      <trkpt lat="43.53226" lon="5.6398">
        <ele>516</ele>
        <time>2022-10-19T06:54:29.000Z</time>
      </trkpt>
      <trkpt lat="43.53226" lon="5.63979">
        <ele>516</ele>
        <time>2022-10-19T06:54:30.000Z</time>
      </trkpt>
      <trkpt lat="43.53227" lon="5.63978">
        <ele>516</ele>
        <time>2022-10-19T06:54:31.000Z</time>
      </trkpt>
      <trkpt lat="43.53227" lon="5.63978">
        <ele>516</ele>
        <time>2022-10-19T06:54:32.000Z</time>
      </trkpt>
      <trkpt lat="43.53228" lon="5.63977">
        <ele>516</ele>
        <time>2022-10-19T06:54:33.000Z</time>
      </trkpt>
      <trkpt lat="43.53229" lon="5.63976">
        <ele>516</ele>
        <time>2022-10-19T06:54:34.000Z</time>
      </trkpt>
      <trkpt lat="43.53229" lon="5.63975">
        <ele>516</ele>
        <time>2022-10-19T06:54:35.000Z</time>
      </trkpt>
      <trkpt lat="43.5323" lon="5.63974">
        <ele>517</ele>
        <time>2022-10-19T06:54:36.000Z</time>
      </trkpt>
      <trkpt lat="43.5323" lon="5.63973">
        <ele>517</ele>
        <time>2022-10-19T06:54:37.000Z</time>
      </trkpt>
      <trkpt lat="43.5323" lon="5.63972">
        <ele>517</ele>
        <time>2022-10-19T06:54:38.000Z</time>
      </trkpt>
      <trkpt lat="43.53231" lon="5.63971">
        <ele>517</ele>
        <time>2022-10-19T06:54:39.000Z</time>
      </trkpt>
      <trkpt lat="43.53232" lon="5.6397">
        <ele>517</ele>
        <time>2022-10-19T06:54:40.000Z</time>
      </trkpt>
      <trkpt lat="43.53232" lon="5.63969">
        <ele>517</ele>
        <time>2022-10-19T06:54:41.000Z</time>
      </trkpt>
      <trkpt lat="43.53232" lon="5.63968">
        <ele>517</ele>
        <time>2022-10-19T06:54:42.000Z</time>
      </trkpt>
      <trkpt lat="43.53233" lon="5.63967">
        <ele>517</ele>
        <time>2022-10-19T06:54:43.000Z</time>
      </trkpt>
      <trkpt lat="43.53233" lon="5.63967">
        <ele>517</ele>
        <time>2022-10-19T06:54:44.000Z</time>
      </trkpt>
      <trkpt lat="43.53234" lon="5.63966">
        <ele>517</ele>
        <time>2022-10-19T06:54:45.000Z</time>
      </trkpt>
      <trkpt lat="43.53234" lon="5.63965">
        <ele>517</ele>
        <time>2022-10-19T06:54:46.000Z</time>
      </trkpt>
      <trkpt lat="43.53234" lon="5.63964">
        <ele>517</ele>
        <time>2022-10-19T06:54:47.000Z</time>
      </trkpt>
      <trkpt lat="43.53235" lon="5.63963">
        <ele>517</ele>
        <time>2022-10-19T06:54:48.000Z</time>
      </trkpt>
      <trkpt lat="43.53235" lon="5.63962">
        <ele>517</ele>
        <time>2022-10-19T06:54:49.000Z</time>
      </trkpt>
      <trkpt lat="43.53235" lon="5.63961">
        <ele>517</ele>
        <time>2022-10-19T06:54:50.000Z</time>
      </trkpt>
      <trkpt lat="43.53235" lon="5.6396">
        <ele>517</ele>
        <time>2022-10-19T06:54:51.000Z</time>
      </trkpt>
      <trkpt lat="43.53235" lon="5.63959">
        <ele>518</ele>
        <time>2022-10-19T06:54:52.000Z</time>
      </trkpt>
      <trkpt lat="43.53235" lon="5.63958">
        <ele>518</ele>
        <time>2022-10-19T06:54:53.000Z</time>
      </trkpt>
      <trkpt lat="43.53235" lon="5.63957">
        <ele>518</ele>
        <time>2022-10-19T06:54:54.000Z</time>
      </trkpt>
      <trkpt lat="43.53236" lon="5.63956">
        <ele>518</ele>
        <time>2022-10-19T06:54:55.000Z</time>
      </trkpt>
      <trkpt lat="43.53235" lon="5.63955">
        <ele>518</ele>
        <time>2022-10-19T06:54:56.000Z</time>
      </trkpt>
      <trkpt lat="43.53235" lon="5.63954">
        <ele>518</ele>
        <time>2022-10-19T06:54:57.000Z</time>
      </trkpt>
      <trkpt lat="43.53235" lon="5.63952">
        <ele>519</ele>
        <time>2022-10-19T06:54:58.000Z</time>
      </trkpt>
      <trkpt lat="43.53235" lon="5.63951">
        <ele>519</ele>
        <time>2022-10-19T06:54:59.000Z</time>
      </trkpt>
      <trkpt lat="43.53235" lon="5.6395">
        <ele>519</ele>
        <time>2022-10-19T06:55:00.000Z</time>
      </trkpt>
      <trkpt lat="43.53235" lon="5.63949">
        <ele>519</ele>
        <time>2022-10-19T06:55:01.000Z</time>
      </trkpt>
      <trkpt lat="43.53236" lon="5.63948">
        <ele>519</ele>
        <time>2022-10-19T06:55:02.000Z</time>
      </trkpt>
      <trkpt lat="43.53236" lon="5.63947">
        <ele>519</ele>
        <time>2022-10-19T06:55:03.000Z</time>
      </trkpt>
      <trkpt lat="43.53237" lon="5.63946">
        <ele>520</ele>
        <time>2022-10-19T06:55:04.000Z</time>
      </trkpt>
      <trkpt lat="43.53237" lon="5.63946">
        <ele>520</ele>
        <time>2022-10-19T06:55:05.000Z</time>
      </trkpt>
      <trkpt lat="43.53238" lon="5.63945">
        <ele>520</ele>
        <time>2022-10-19T06:55:06.000Z</time>
      </trkpt>
      <trkpt lat="43.53238" lon="5.63945">
        <ele>520</ele>
        <time>2022-10-19T06:55:07.000Z</time>
      </trkpt>
      <trkpt lat="43.53239" lon="5.63945">
        <ele>520</ele>
        <time>2022-10-19T06:55:08.000Z</time>
      </trkpt>
      <trkpt lat="43.53239" lon="5.63944">
        <ele>520</ele>
        <time>2022-10-19T06:55:09.000Z</time>
      </trkpt>
      <trkpt lat="43.5324" lon="5.63943">
        <ele>520</ele>
        <time>2022-10-19T06:55:10.000Z</time>
      </trkpt>
      <trkpt lat="43.5324" lon="5.63943">
        <ele>520</ele>
        <time>2022-10-19T06:55:11.000Z</time>
      </trkpt>
      <trkpt lat="43.53241" lon="5.63942">
        <ele>520</ele>
        <time>2022-10-19T06:55:12.000Z</time>
      </trkpt>
      <trkpt lat="43.53241" lon="5.63942">
        <ele>520</ele>
        <time>2022-10-19T06:55:13.000Z</time>
      </trkpt>
      <trkpt lat="43.53242" lon="5.63941">
        <ele>520</ele>
        <time>2022-10-19T06:55:14.000Z</time>
      </trkpt>
      <trkpt lat="43.53242" lon="5.6394">
        <ele>520</ele>
        <time>2022-10-19T06:55:15.000Z</time>
      </trkpt>
      <trkpt lat="43.53242" lon="5.63939">
        <ele>521</ele>
        <time>2022-10-19T06:55:16.000Z</time>
      </trkpt>
      <trkpt lat="43.53243" lon="5.63939">
        <ele>521</ele>
        <time>2022-10-19T06:55:17.000Z</time>
      </trkpt>
      <trkpt lat="43.53243" lon="5.63938">
        <ele>521</ele>
        <time>2022-10-19T06:55:18.000Z</time>
      </trkpt>
      <trkpt lat="43.53244" lon="5.63938">
        <ele>521</ele>
        <time>2022-10-19T06:55:19.000Z</time>
      </trkpt>
      <trkpt lat="43.53244" lon="5.63937">
        <ele>521</ele>
        <time>2022-10-19T06:55:20.000Z</time>
      </trkpt>
      <trkpt lat="43.53245" lon="5.63937">
        <ele>521</ele>
        <time>2022-10-19T06:55:21.000Z</time>
      </trkpt>
      <trkpt lat="43.53245" lon="5.63936">
        <ele>521</ele>
        <time>2022-10-19T06:55:22.000Z</time>
      </trkpt>
      <trkpt lat="43.53245" lon="5.63935">
        <ele>520</ele>
        <time>2022-10-19T06:55:23.000Z</time>
      </trkpt>
      <trkpt lat="43.53246" lon="5.63934">
        <ele>520</ele>
        <time>2022-10-19T06:55:24.000Z</time>
      </trkpt>
      <trkpt lat="43.53246" lon="5.63933">
        <ele>520</ele>
        <time>2022-10-19T06:55:25.000Z</time>
      </trkpt>
      <trkpt lat="43.53246" lon="5.63932">
        <ele>520</ele>
        <time>2022-10-19T06:55:26.000Z</time>
      </trkpt>
      <trkpt lat="43.53247" lon="5.63931">
        <ele>520</ele>
        <time>2022-10-19T06:55:27.000Z</time>
      </trkpt>
      <trkpt lat="43.53247" lon="5.63931">
        <ele>520</ele>
        <time>2022-10-19T06:55:28.000Z</time>
      </trkpt>
      <trkpt lat="43.53248" lon="5.6393">
        <ele>520</ele>
        <time>2022-10-19T06:55:29.000Z</time>
      </trkpt>
      <trkpt lat="43.53248" lon="5.63929">
        <ele>520</ele>
        <time>2022-10-19T06:55:30.000Z</time>
      </trkpt>
      <trkpt lat="43.53249" lon="5.63928">
        <ele>520</ele>
        <time>2022-10-19T06:55:31.000Z</time>
      </trkpt>
      <trkpt lat="43.53249" lon="5.63927">
        <ele>520</ele>
        <time>2022-10-19T06:55:32.000Z</time>
      </trkpt>
      <trkpt lat="43.5325" lon="5.63926">
        <ele>520</ele>
        <time>2022-10-19T06:55:33.000Z</time>
      </trkpt>
      <trkpt lat="43.5325" lon="5.63926">
        <ele>520</ele>
        <time>2022-10-19T06:55:34.000Z</time>
      </trkpt>
      <trkpt lat="43.53251" lon="5.63925">
        <ele>520</ele>
        <time>2022-10-19T06:55:35.000Z</time>
      </trkpt>
      <trkpt lat="43.53252" lon="5.63924">
        <ele>520</ele>
        <time>2022-10-19T06:55:36.000Z</time>
      </trkpt>
      <trkpt lat="43.53253" lon="5.63923">
        <ele>520</ele>
        <time>2022-10-19T06:55:37.000Z</time>
      </trkpt>
      <trkpt lat="43.53253" lon="5.63922">
        <ele>520</ele>
        <time>2022-10-19T06:55:38.000Z</time>
      </trkpt>
      <trkpt lat="43.53254" lon="5.63922">
        <ele>520</ele>
        <time>2022-10-19T06:55:39.000Z</time>
      </trkpt>
      <trkpt lat="43.53255" lon="5.6392">
        <ele>520</ele>
        <time>2022-10-19T06:55:40.000Z</time>
      </trkpt>
      <trkpt lat="43.53255" lon="5.63919">
        <ele>520</ele>
        <time>2022-10-19T06:55:41.000Z</time>
      </trkpt>
      <trkpt lat="43.53256" lon="5.63919">
        <ele>520</ele>
        <time>2022-10-19T06:55:42.000Z</time>
      </trkpt>
      <trkpt lat="43.53257" lon="5.63918">
        <ele>520</ele>
        <time>2022-10-19T06:55:43.000Z</time>
      </trkpt>
      <trkpt lat="43.53257" lon="5.63917">
        <ele>520</ele>
        <time>2022-10-19T06:55:44.000Z</time>
      </trkpt>
      <trkpt lat="43.53258" lon="5.63916">
        <ele>520</ele>
        <time>2022-10-19T06:55:45.000Z</time>
      </trkpt>
      <trkpt lat="43.53258" lon="5.63915">
        <ele>520</ele>
        <time>2022-10-19T06:55:46.000Z</time>
      </trkpt>
      <trkpt lat="43.53259" lon="5.63914">
        <ele>520</ele>
        <time>2022-10-19T06:55:47.000Z</time>
      </trkpt>
      <trkpt lat="43.53259" lon="5.63913">
        <ele>519</ele>
        <time>2022-10-19T06:55:48.000Z</time>
      </trkpt>
      <trkpt lat="43.5326" lon="5.63912">
        <ele>519</ele>
        <time>2022-10-19T06:55:49.000Z</time>
      </trkpt>
      <trkpt lat="43.53261" lon="5.63911">
        <ele>519</ele>
        <time>2022-10-19T06:55:50.000Z</time>
      </trkpt>
      <trkpt lat="43.53262" lon="5.6391">
        <ele>519</ele>
        <time>2022-10-19T06:55:51.000Z</time>
      </trkpt>
      <trkpt lat="43.53262" lon="5.6391">
        <ele>519</ele>
        <time>2022-10-19T06:55:52.000Z</time>
      </trkpt>
      <trkpt lat="43.53263" lon="5.63909">
        <ele>519</ele>
        <time>2022-10-19T06:55:53.000Z</time>
      </trkpt>
      <trkpt lat="43.53264" lon="5.63908">
        <ele>519</ele>
        <time>2022-10-19T06:55:54.000Z</time>
      </trkpt>
      <trkpt lat="43.53264" lon="5.63907">
        <ele>519</ele>
        <time>2022-10-19T06:55:55.000Z</time>
      </trkpt>
      <trkpt lat="43.53265" lon="5.63907">
        <ele>519</ele>
        <time>2022-10-19T06:55:56.000Z</time>
      </trkpt>
      <trkpt lat="43.53265" lon="5.63906">
        <ele>519</ele>
        <time>2022-10-19T06:55:57.000Z</time>
      </trkpt>
      <trkpt lat="43.53266" lon="5.63905">
        <ele>519</ele>
        <time>2022-10-19T06:55:58.000Z</time>
      </trkpt>
      <trkpt lat="43.53267" lon="5.63904">
        <ele>519</ele>
        <time>2022-10-19T06:55:59.000Z</time>
      </trkpt>
      <trkpt lat="43.53267" lon="5.63903">
        <ele>519</ele>
        <time>2022-10-19T06:56:00.000Z</time>
      </trkpt>
      <trkpt lat="43.53268" lon="5.63902">
        <ele>519</ele>
        <time>2022-10-19T06:56:01.000Z</time>
      </trkpt>
      <trkpt lat="43.53269" lon="5.63901">
        <ele>519</ele>
        <time>2022-10-19T06:56:02.000Z</time>
      </trkpt>
      <trkpt lat="43.53269" lon="5.63901">
        <ele>519</ele>
        <time>2022-10-19T06:56:03.000Z</time>
      </trkpt>
      <trkpt lat="43.5327" lon="5.639">
        <ele>519</ele>
        <time>2022-10-19T06:56:04.000Z</time>
      </trkpt>
      <trkpt lat="43.53271" lon="5.63899">
        <ele>519</ele>
        <time>2022-10-19T06:56:05.000Z</time>
      </trkpt>
      <trkpt lat="43.53271" lon="5.63898">
        <ele>519</ele>
        <time>2022-10-19T06:56:06.000Z</time>
      </trkpt>
      <trkpt lat="43.53272" lon="5.63897">
        <ele>519</ele>
        <time>2022-10-19T06:56:07.000Z</time>
      </trkpt>
      <trkpt lat="43.53272" lon="5.63896">
        <ele>519</ele>
        <time>2022-10-19T06:56:08.000Z</time>
      </trkpt>
      <trkpt lat="43.53273" lon="5.63895">
        <ele>519</ele>
        <time>2022-10-19T06:56:09.000Z</time>
      </trkpt>
      <trkpt lat="43.53274" lon="5.63894">
        <ele>519</ele>
        <time>2022-10-19T06:56:10.000Z</time>
      </trkpt>
      <trkpt lat="43.53274" lon="5.63893">
        <ele>519</ele>
        <time>2022-10-19T06:56:11.000Z</time>
      </trkpt>
      <trkpt lat="43.53275" lon="5.63891">
        <ele>519</ele>
        <time>2022-10-19T06:56:12.000Z</time>
      </trkpt>
      <trkpt lat="43.53275" lon="5.6389">
        <ele>519</ele>
        <time>2022-10-19T06:56:13.000Z</time>
      </trkpt>
      <trkpt lat="43.53275" lon="5.63889">
        <ele>519</ele>
        <time>2022-10-19T06:56:14.000Z</time>
      </trkpt>
      <trkpt lat="43.53275" lon="5.63887">
        <ele>519</ele>
        <time>2022-10-19T06:56:15.000Z</time>
      </trkpt>
      <trkpt lat="43.53275" lon="5.63886">
        <ele>519</ele>
        <time>2022-10-19T06:56:16.000Z</time>
      </trkpt>
      <trkpt lat="43.53275" lon="5.63885">
        <ele>519</ele>
        <time>2022-10-19T06:56:17.000Z</time>
      </trkpt>
      <trkpt lat="43.53274" lon="5.63884">
        <ele>519</ele>
        <time>2022-10-19T06:56:18.000Z</time>
      </trkpt>
      <trkpt lat="43.53274" lon="5.63883">
        <ele>519</ele>
        <time>2022-10-19T06:56:19.000Z</time>
      </trkpt>
      <trkpt lat="43.53274" lon="5.63882">
        <ele>520</ele>
        <time>2022-10-19T06:56:20.000Z</time>
      </trkpt>
      <trkpt lat="43.53274" lon="5.6388">
        <ele>520</ele>
        <time>2022-10-19T06:56:21.000Z</time>
      </trkpt>
      <trkpt lat="43.53274" lon="5.63879">
        <ele>520</ele>
        <time>2022-10-19T06:56:22.000Z</time>
      </trkpt>
      <trkpt lat="43.53274" lon="5.63878">
        <ele>520</ele>
        <time>2022-10-19T06:56:23.000Z</time>
      </trkpt>
      <trkpt lat="43.53274" lon="5.63877">
        <ele>520</ele>
        <time>2022-10-19T06:56:24.000Z</time>
      </trkpt>
      <trkpt lat="43.53274" lon="5.63875">
        <ele>520</ele>
        <time>2022-10-19T06:56:25.000Z</time>
      </trkpt>
      <trkpt lat="43.53274" lon="5.63874">
        <ele>520</ele>
        <time>2022-10-19T06:56:26.000Z</time>
      </trkpt>
      <trkpt lat="43.53274" lon="5.63873">
        <ele>521</ele>
        <time>2022-10-19T06:56:27.000Z</time>
      </trkpt>
      <trkpt lat="43.53274" lon="5.63872">
        <ele>521</ele>
        <time>2022-10-19T06:56:28.000Z</time>
      </trkpt>
      <trkpt lat="43.53274" lon="5.63871">
        <ele>521</ele>
        <time>2022-10-19T06:56:29.000Z</time>
      </trkpt>
      <trkpt lat="43.53274" lon="5.6387">
        <ele>521</ele>
        <time>2022-10-19T06:56:30.000Z</time>
      </trkpt>
      <trkpt lat="43.53274" lon="5.63869">
        <ele>521</ele>
        <time>2022-10-19T06:56:31.000Z</time>
      </trkpt>
      <trkpt lat="43.53274" lon="5.63868">
        <ele>521</ele>
        <time>2022-10-19T06:56:32.000Z</time>
      </trkpt>
      <trkpt lat="43.53274" lon="5.63868">
        <ele>521</ele>
        <time>2022-10-19T06:56:33.000Z</time>
      </trkpt>
      <trkpt lat="43.53274" lon="5.63868">
        <ele>521</ele>
        <time>2022-10-19T06:56:34.000Z</time>
      </trkpt>
      <trkpt lat="43.53274" lon="5.63868">
        <ele>521</ele>
        <time>2022-10-19T06:56:35.000Z</time>
      </trkpt>
      <trkpt lat="43.53274" lon="5.63868">
        <ele>521</ele>
        <time>2022-10-19T06:56:36.000Z</time>
      </trkpt>
      <trkpt lat="43.53274" lon="5.63868">
        <ele>521</ele>
        <time>2022-10-19T06:56:37.000Z</time>
      </trkpt>
      <trkpt lat="43.53274" lon="5.63867">
        <ele>521</ele>
        <time>2022-10-19T06:56:38.000Z</time>
      </trkpt>
      <trkpt lat="43.53274" lon="5.63867">
        <ele>521</ele>
        <time>2022-10-19T06:56:39.000Z</time>
      </trkpt>
      <trkpt lat="43.53274" lon="5.63866">
        <ele>521</ele>
        <time>2022-10-19T06:56:40.000Z</time>
      </trkpt>
      <trkpt lat="43.53274" lon="5.63865">
        <ele>521</ele>
        <time>2022-10-19T06:56:41.000Z</time>
      </trkpt>
      <trkpt lat="43.53274" lon="5.63864">
        <ele>521</ele>
        <time>2022-10-19T06:56:42.000Z</time>
      </trkpt>
      <trkpt lat="43.53275" lon="5.63863">
        <ele>521</ele>
        <time>2022-10-19T06:56:43.000Z</time>
      </trkpt>
      <trkpt lat="43.53275" lon="5.63861">
        <ele>521</ele>
        <time>2022-10-19T06:56:44.000Z</time>
      </trkpt>
      <trkpt lat="43.53275" lon="5.63859">
        <ele>521</ele>
        <time>2022-10-19T06:56:45.000Z</time>
      </trkpt>
      <trkpt lat="43.53275" lon="5.63858">
        <ele>521</ele>
        <time>2022-10-19T06:56:46.000Z</time>
      </trkpt>
      <trkpt lat="43.53275" lon="5.63857">
        <ele>521</ele>
        <time>2022-10-19T06:56:47.000Z</time>
      </trkpt>
      <trkpt lat="43.53276" lon="5.63855">
        <ele>521</ele>
        <time>2022-10-19T06:56:48.000Z</time>
      </trkpt>
      <trkpt lat="43.53276" lon="5.63854">
        <ele>521</ele>
        <time>2022-10-19T06:56:49.000Z</time>
      </trkpt>
      <trkpt lat="43.53276" lon="5.63852">
        <ele>521</ele>
        <time>2022-10-19T06:56:50.000Z</time>
      </trkpt>
      <trkpt lat="43.53276" lon="5.63851">
        <ele>521</ele>
        <time>2022-10-19T06:56:51.000Z</time>
      </trkpt>
      <trkpt lat="43.53276" lon="5.6385">
        <ele>521</ele>
        <time>2022-10-19T06:56:52.000Z</time>
      </trkpt>
      <trkpt lat="43.53277" lon="5.63848">
        <ele>521</ele>
        <time>2022-10-19T06:56:53.000Z</time>
      </trkpt>
      <trkpt lat="43.53277" lon="5.63847">
        <ele>521</ele>
        <time>2022-10-19T06:56:54.000Z</time>
      </trkpt>
      <trkpt lat="43.53277" lon="5.63845">
        <ele>522</ele>
        <time>2022-10-19T06:56:55.000Z</time>
      </trkpt>
      <trkpt lat="43.53277" lon="5.63844">
        <ele>522</ele>
        <time>2022-10-19T06:56:56.000Z</time>
      </trkpt>
      <trkpt lat="43.53277" lon="5.63842">
        <ele>522</ele>
        <time>2022-10-19T06:56:57.000Z</time>
      </trkpt>
      <trkpt lat="43.53278" lon="5.63841">
        <ele>522</ele>
        <time>2022-10-19T06:56:58.000Z</time>
      </trkpt>
      <trkpt lat="43.53278" lon="5.63839">
        <ele>522</ele>
        <time>2022-10-19T06:56:59.000Z</time>
      </trkpt>
      <trkpt lat="43.53278" lon="5.63838">
        <ele>522</ele>
        <time>2022-10-19T06:57:00.000Z</time>
      </trkpt>
      <trkpt lat="43.53278" lon="5.63836">
        <ele>522</ele>
        <time>2022-10-19T06:57:01.000Z</time>
      </trkpt>
      <trkpt lat="43.53278" lon="5.63835">
        <ele>522</ele>
        <time>2022-10-19T06:57:02.000Z</time>
      </trkpt>
      <trkpt lat="43.53278" lon="5.63833">
        <ele>522</ele>
        <time>2022-10-19T06:57:03.000Z</time>
      </trkpt>
      <trkpt lat="43.53278" lon="5.63832">
        <ele>522</ele>
        <time>2022-10-19T06:57:04.000Z</time>
      </trkpt>
      <trkpt lat="43.53278" lon="5.63831">
        <ele>522</ele>
        <time>2022-10-19T06:57:05.000Z</time>
      </trkpt>
      <trkpt lat="43.53278" lon="5.6383">
        <ele>522</ele>
        <time>2022-10-19T06:57:06.000Z</time>
      </trkpt>
      <trkpt lat="43.53278" lon="5.63829">
        <ele>522</ele>
        <time>2022-10-19T06:57:07.000Z</time>
      </trkpt>
      <trkpt lat="43.53278" lon="5.63828">
        <ele>522</ele>
        <time>2022-10-19T06:57:08.000Z</time>
      </trkpt>
      <trkpt lat="43.53277" lon="5.63827">
        <ele>522</ele>
        <time>2022-10-19T06:57:09.000Z</time>
      </trkpt>
      <trkpt lat="43.53277" lon="5.63826">
        <ele>522</ele>
        <time>2022-10-19T06:57:10.000Z</time>
      </trkpt>
      <trkpt lat="43.53276" lon="5.63825">
        <ele>522</ele>
        <time>2022-10-19T06:57:11.000Z</time>
      </trkpt>
      <trkpt lat="43.53276" lon="5.63824">
        <ele>522</ele>
        <time>2022-10-19T06:57:12.000Z</time>
      </trkpt>
      <trkpt lat="43.53275" lon="5.63823">
        <ele>522</ele>
        <time>2022-10-19T06:57:13.000Z</time>
      </trkpt>
      <trkpt lat="43.53274" lon="5.63822">
        <ele>522</ele>
        <time>2022-10-19T06:57:14.000Z</time>
      </trkpt>
      <trkpt lat="43.53274" lon="5.63821">
        <ele>522</ele>
        <time>2022-10-19T06:57:15.000Z</time>
      </trkpt>
      <trkpt lat="43.53274" lon="5.6382">
        <ele>522</ele>
        <time>2022-10-19T06:57:16.000Z</time>
      </trkpt>
      <trkpt lat="43.53274" lon="5.63819">
        <ele>522</ele>
        <time>2022-10-19T06:57:17.000Z</time>
      </trkpt>
      <trkpt lat="43.53273" lon="5.63818">
        <ele>522</ele>
        <time>2022-10-19T06:57:18.000Z</time>
      </trkpt>
      <trkpt lat="43.53273" lon="5.63816">
        <ele>522</ele>
        <time>2022-10-19T06:57:19.000Z</time>
      </trkpt>
      <trkpt lat="43.53273" lon="5.63815">
        <ele>522</ele>
        <time>2022-10-19T06:57:20.000Z</time>
      </trkpt>
      <trkpt lat="43.53273" lon="5.63814">
        <ele>522</ele>
        <time>2022-10-19T06:57:21.000Z</time>
      </trkpt>
      <trkpt lat="43.53273" lon="5.63813">
        <ele>522</ele>
        <time>2022-10-19T06:57:22.000Z</time>
      </trkpt>
      <trkpt lat="43.53273" lon="5.63812">
        <ele>522</ele>
        <time>2022-10-19T06:57:23.000Z</time>
      </trkpt>
      <trkpt lat="43.53273" lon="5.63811">
        <ele>522</ele>
        <time>2022-10-19T06:57:24.000Z</time>
      </trkpt>
      <trkpt lat="43.53274" lon="5.6381">
        <ele>522</ele>
        <time>2022-10-19T06:57:25.000Z</time>
      </trkpt>
      <trkpt lat="43.53274" lon="5.63809">
        <ele>522</ele>
        <time>2022-10-19T06:57:26.000Z</time>
      </trkpt>
      <trkpt lat="43.53274" lon="5.63808">
        <ele>522</ele>
        <time>2022-10-19T06:57:27.000Z</time>
      </trkpt>
      <trkpt lat="43.53274" lon="5.63807">
        <ele>522</ele>
        <time>2022-10-19T06:57:28.000Z</time>
      </trkpt>
      <trkpt lat="43.53275" lon="5.63806">
        <ele>522</ele>
        <time>2022-10-19T06:57:29.000Z</time>
      </trkpt>
      <trkpt lat="43.53275" lon="5.63805">
        <ele>522</ele>
        <time>2022-10-19T06:57:30.000Z</time>
      </trkpt>
      <trkpt lat="43.53275" lon="5.63804">
        <ele>522</ele>
        <time>2022-10-19T06:57:31.000Z</time>
      </trkpt>
      <trkpt lat="43.53276" lon="5.63803">
        <ele>522</ele>
        <time>2022-10-19T06:57:32.000Z</time>
      </trkpt>
      <trkpt lat="43.53276" lon="5.63802">
        <ele>522</ele>
        <time>2022-10-19T06:57:33.000Z</time>
      </trkpt>
      <trkpt lat="43.53277" lon="5.63801">
        <ele>522</ele>
        <time>2022-10-19T06:57:34.000Z</time>
      </trkpt>
      <trkpt lat="43.53277" lon="5.63801">
        <ele>522</ele>
        <time>2022-10-19T06:57:35.000Z</time>
      </trkpt>
      <trkpt lat="43.53277" lon="5.638">
        <ele>522</ele>
        <time>2022-10-19T06:57:36.000Z</time>
      </trkpt>
      <trkpt lat="43.53278" lon="5.63799">
        <ele>522</ele>
        <time>2022-10-19T06:57:37.000Z</time>
      </trkpt>
      <trkpt lat="43.53278" lon="5.63798">
        <ele>522</ele>
        <time>2022-10-19T06:57:38.000Z</time>
      </trkpt>
      <trkpt lat="43.53278" lon="5.63797">
        <ele>522</ele>
        <time>2022-10-19T06:57:39.000Z</time>
      </trkpt>
      <trkpt lat="43.53279" lon="5.63796">
        <ele>522</ele>
        <time>2022-10-19T06:57:40.000Z</time>
      </trkpt>
      <trkpt lat="43.53279" lon="5.63795">
        <ele>522</ele>
        <time>2022-10-19T06:57:41.000Z</time>
      </trkpt>
      <trkpt lat="43.53279" lon="5.63795">
        <ele>522</ele>
        <time>2022-10-19T06:57:42.000Z</time>
      </trkpt>
      <trkpt lat="43.5328" lon="5.63794">
        <ele>522</ele>
        <time>2022-10-19T06:57:43.000Z</time>
      </trkpt>
      <trkpt lat="43.5328" lon="5.63793">
        <ele>522</ele>
        <time>2022-10-19T06:57:44.000Z</time>
      </trkpt>
      <trkpt lat="43.5328" lon="5.63792">
        <ele>522</ele>
        <time>2022-10-19T06:57:45.000Z</time>
      </trkpt>
      <trkpt lat="43.53281" lon="5.63791">
        <ele>522</ele>
        <time>2022-10-19T06:57:46.000Z</time>
      </trkpt>
      <trkpt lat="43.53281" lon="5.6379">
        <ele>522</ele>
        <time>2022-10-19T06:57:47.000Z</time>
      </trkpt>
      <trkpt lat="43.53282" lon="5.63789">
        <ele>522</ele>
        <time>2022-10-19T06:57:48.000Z</time>
      </trkpt>
      <trkpt lat="43.53282" lon="5.63789">
        <ele>522</ele>
        <time>2022-10-19T06:57:49.000Z</time>
      </trkpt>
      <trkpt lat="43.53282" lon="5.63788">
        <ele>522</ele>
        <time>2022-10-19T06:57:50.000Z</time>
      </trkpt>
      <trkpt lat="43.53282" lon="5.63788">
        <ele>522</ele>
        <time>2022-10-19T06:57:51.000Z</time>
      </trkpt>
      <trkpt lat="43.53283" lon="5.63787">
        <ele>522</ele>
        <time>2022-10-19T06:57:52.000Z</time>
      </trkpt>
      <trkpt lat="43.53283" lon="5.63786">
        <ele>522</ele>
        <time>2022-10-19T06:57:53.000Z</time>
      </trkpt>
      <trkpt lat="43.53283" lon="5.63785">
        <ele>523</ele>
        <time>2022-10-19T06:57:54.000Z</time>
      </trkpt>
      <trkpt lat="43.53284" lon="5.63785">
        <ele>523</ele>
        <time>2022-10-19T06:57:55.000Z</time>
      </trkpt>
      <trkpt lat="43.53284" lon="5.63784">
        <ele>523</ele>
        <time>2022-10-19T06:57:56.000Z</time>
      </trkpt>
      <trkpt lat="43.53285" lon="5.63784">
        <ele>523</ele>
        <time>2022-10-19T06:57:57.000Z</time>
      </trkpt>
      <trkpt lat="43.53285" lon="5.63783">
        <ele>523</ele>
        <time>2022-10-19T06:57:58.000Z</time>
      </trkpt>
      <trkpt lat="43.53286" lon="5.63782">
        <ele>523</ele>
        <time>2022-10-19T06:57:59.000Z</time>
      </trkpt>
      <trkpt lat="43.53286" lon="5.63782">
        <ele>523</ele>
        <time>2022-10-19T06:58:00.000Z</time>
      </trkpt>
      <trkpt lat="43.53286" lon="5.63781">
        <ele>523</ele>
        <time>2022-10-19T06:58:01.000Z</time>
      </trkpt>
      <trkpt lat="43.53286" lon="5.63779">
        <ele>524</ele>
        <time>2022-10-19T06:58:02.000Z</time>
      </trkpt>
      <trkpt lat="43.53287" lon="5.63779">
        <ele>524</ele>
        <time>2022-10-19T06:58:03.000Z</time>
      </trkpt>
      <trkpt lat="43.53287" lon="5.63777">
        <ele>524</ele>
        <time>2022-10-19T06:58:04.000Z</time>
      </trkpt>
      <trkpt lat="43.53287" lon="5.63777">
        <ele>524</ele>
        <time>2022-10-19T06:58:05.000Z</time>
      </trkpt>
      <trkpt lat="43.53287" lon="5.63776">
        <ele>524</ele>
        <time>2022-10-19T06:58:06.000Z</time>
      </trkpt>
      <trkpt lat="43.53288" lon="5.63775">
        <ele>524</ele>
        <time>2022-10-19T06:58:07.000Z</time>
      </trkpt>
      <trkpt lat="43.53288" lon="5.63775">
        <ele>524</ele>
        <time>2022-10-19T06:58:08.000Z</time>
      </trkpt>
      <trkpt lat="43.53288" lon="5.63774">
        <ele>524</ele>
        <time>2022-10-19T06:58:09.000Z</time>
      </trkpt>
      <trkpt lat="43.53289" lon="5.63773">
        <ele>524</ele>
        <time>2022-10-19T06:58:10.000Z</time>
      </trkpt>
      <trkpt lat="43.53289" lon="5.63772">
        <ele>524</ele>
        <time>2022-10-19T06:58:11.000Z</time>
      </trkpt>
      <trkpt lat="43.5329" lon="5.63772">
        <ele>524</ele>
        <time>2022-10-19T06:58:12.000Z</time>
      </trkpt>
      <trkpt lat="43.53291" lon="5.63771">
        <ele>524</ele>
        <time>2022-10-19T06:58:13.000Z</time>
      </trkpt>
      <trkpt lat="43.53291" lon="5.63772">
        <ele>524</ele>
        <time>2022-10-19T06:58:14.000Z</time>
      </trkpt>
      <trkpt lat="43.53292" lon="5.63772">
        <ele>524</ele>
        <time>2022-10-19T06:58:15.000Z</time>
      </trkpt>
      <trkpt lat="43.53292" lon="5.63773">
        <ele>525</ele>
        <time>2022-10-19T06:58:16.000Z</time>
      </trkpt>
      <trkpt lat="43.53293" lon="5.63773">
        <ele>525</ele>
        <time>2022-10-19T06:58:17.000Z</time>
      </trkpt>
      <trkpt lat="43.53293" lon="5.63774">
        <ele>525</ele>
        <time>2022-10-19T06:58:18.000Z</time>
      </trkpt>
      <trkpt lat="43.53293" lon="5.63775">
        <ele>525</ele>
        <time>2022-10-19T06:58:19.000Z</time>
      </trkpt>
      <trkpt lat="43.53293" lon="5.63775">
        <ele>525</ele>
        <time>2022-10-19T06:58:20.000Z</time>
      </trkpt>
      <trkpt lat="43.53293" lon="5.63776">
        <ele>525</ele>
        <time>2022-10-19T06:58:21.000Z</time>
      </trkpt>
      <trkpt lat="43.53294" lon="5.63776">
        <ele>525</ele>
        <time>2022-10-19T06:58:22.000Z</time>
      </trkpt>
      <trkpt lat="43.53294" lon="5.63777">
        <ele>525</ele>
        <time>2022-10-19T06:58:23.000Z</time>
      </trkpt>
      <trkpt lat="43.53294" lon="5.63778">
        <ele>525</ele>
        <time>2022-10-19T06:58:24.000Z</time>
      </trkpt>
      <trkpt lat="43.53295" lon="5.63778">
        <ele>525</ele>
        <time>2022-10-19T06:58:25.000Z</time>
      </trkpt>
      <trkpt lat="43.53295" lon="5.63779">
        <ele>525</ele>
        <time>2022-10-19T06:58:26.000Z</time>
      </trkpt>
      <trkpt lat="43.53295" lon="5.6378">
        <ele>526</ele>
        <time>2022-10-19T06:58:27.000Z</time>
      </trkpt>
      <trkpt lat="43.53296" lon="5.63781">
        <ele>526</ele>
        <time>2022-10-19T06:58:28.000Z</time>
      </trkpt>
      <trkpt lat="43.53296" lon="5.63782">
        <ele>526</ele>
        <time>2022-10-19T06:58:29.000Z</time>
      </trkpt>
      <trkpt lat="43.53296" lon="5.63782">
        <ele>526</ele>
        <time>2022-10-19T06:58:30.000Z</time>
      </trkpt>
      <trkpt lat="43.53297" lon="5.63783">
        <ele>526</ele>
        <time>2022-10-19T06:58:31.000Z</time>
      </trkpt>
      <trkpt lat="43.53297" lon="5.63783">
        <ele>526</ele>
        <time>2022-10-19T06:58:32.000Z</time>
      </trkpt>
      <trkpt lat="43.53297" lon="5.63784">
        <ele>526</ele>
        <time>2022-10-19T06:58:33.000Z</time>
      </trkpt>
      <trkpt lat="43.53298" lon="5.63784">
        <ele>526</ele>
        <time>2022-10-19T06:58:34.000Z</time>
      </trkpt>
      <trkpt lat="43.53298" lon="5.63783">
        <ele>526</ele>
        <time>2022-10-19T06:58:35.000Z</time>
      </trkpt>
      <trkpt lat="43.53299" lon="5.63783">
        <ele>527</ele>
        <time>2022-10-19T06:58:36.000Z</time>
      </trkpt>
      <trkpt lat="43.53299" lon="5.63783">
        <ele>527</ele>
        <time>2022-10-19T06:58:37.000Z</time>
      </trkpt>
      <trkpt lat="43.533" lon="5.63783">
        <ele>527</ele>
        <time>2022-10-19T06:58:38.000Z</time>
      </trkpt>
      <trkpt lat="43.533" lon="5.63782">
        <ele>527</ele>
        <time>2022-10-19T06:58:39.000Z</time>
      </trkpt>
      <trkpt lat="43.533" lon="5.63782">
        <ele>527</ele>
        <time>2022-10-19T06:58:40.000Z</time>
      </trkpt>
      <trkpt lat="43.53301" lon="5.63782">
        <ele>527</ele>
        <time>2022-10-19T06:58:41.000Z</time>
      </trkpt>
      <trkpt lat="43.53301" lon="5.63781">
        <ele>527</ele>
        <time>2022-10-19T06:58:42.000Z</time>
      </trkpt>
      <trkpt lat="43.53301" lon="5.6378">
        <ele>528</ele>
        <time>2022-10-19T06:58:43.000Z</time>
      </trkpt>
      <trkpt lat="43.53301" lon="5.63779">
        <ele>528</ele>
        <time>2022-10-19T06:58:44.000Z</time>
      </trkpt>
      <trkpt lat="43.53302" lon="5.63779">
        <ele>528</ele>
        <time>2022-10-19T06:58:45.000Z</time>
      </trkpt>
      <trkpt lat="43.53302" lon="5.63778">
        <ele>528</ele>
        <time>2022-10-19T06:58:46.000Z</time>
      </trkpt>
      <trkpt lat="43.53302" lon="5.63778">
        <ele>528</ele>
        <time>2022-10-19T06:58:47.000Z</time>
      </trkpt>
      <trkpt lat="43.53302" lon="5.63777">
        <ele>528</ele>
        <time>2022-10-19T06:58:48.000Z</time>
      </trkpt>
      <trkpt lat="43.53303" lon="5.63777">
        <ele>528</ele>
        <time>2022-10-19T06:58:49.000Z</time>
      </trkpt>
      <trkpt lat="43.53303" lon="5.63776">
        <ele>529</ele>
        <time>2022-10-19T06:58:50.000Z</time>
      </trkpt>
      <trkpt lat="43.53303" lon="5.63775">
        <ele>529</ele>
        <time>2022-10-19T06:58:51.000Z</time>
      </trkpt>
      <trkpt lat="43.53304" lon="5.63775">
        <ele>529</ele>
        <time>2022-10-19T06:58:52.000Z</time>
      </trkpt>
      <trkpt lat="43.53304" lon="5.63774">
        <ele>529</ele>
        <time>2022-10-19T06:58:53.000Z</time>
      </trkpt>
      <trkpt lat="43.53304" lon="5.63773">
        <ele>529</ele>
        <time>2022-10-19T06:58:54.000Z</time>
      </trkpt>
      <trkpt lat="43.53304" lon="5.63772">
        <ele>529</ele>
        <time>2022-10-19T06:58:55.000Z</time>
      </trkpt>
      <trkpt lat="43.53305" lon="5.63772">
        <ele>529</ele>
        <time>2022-10-19T06:58:56.000Z</time>
      </trkpt>
      <trkpt lat="43.53305" lon="5.63771">
        <ele>529</ele>
        <time>2022-10-19T06:58:57.000Z</time>
      </trkpt>
      <trkpt lat="43.53305" lon="5.6377">
        <ele>529</ele>
        <time>2022-10-19T06:58:58.000Z</time>
      </trkpt>
      <trkpt lat="43.53305" lon="5.6377">
        <ele>530</ele>
        <time>2022-10-19T06:58:59.000Z</time>
      </trkpt>
      <trkpt lat="43.53306" lon="5.63769">
        <ele>530</ele>
        <time>2022-10-19T06:59:00.000Z</time>
      </trkpt>
      <trkpt lat="43.53306" lon="5.63768">
        <ele>530</ele>
        <time>2022-10-19T06:59:01.000Z</time>
      </trkpt>
      <trkpt lat="43.53306" lon="5.63768">
        <ele>530</ele>
        <time>2022-10-19T06:59:02.000Z</time>
      </trkpt>
      <trkpt lat="43.53306" lon="5.63767">
        <ele>531</ele>
        <time>2022-10-19T06:59:03.000Z</time>
      </trkpt>
      <trkpt lat="43.53306" lon="5.63766">
        <ele>531</ele>
        <time>2022-10-19T06:59:04.000Z</time>
      </trkpt>
      <trkpt lat="43.53306" lon="5.63766">
        <ele>531</ele>
        <time>2022-10-19T06:59:05.000Z</time>
      </trkpt>
      <trkpt lat="43.53306" lon="5.63765">
        <ele>531</ele>
        <time>2022-10-19T06:59:06.000Z</time>
      </trkpt>
      <trkpt lat="43.53307" lon="5.63764">
        <ele>531</ele>
        <time>2022-10-19T06:59:07.000Z</time>
      </trkpt>
      <trkpt lat="43.53307" lon="5.63764">
        <ele>531</ele>
        <time>2022-10-19T06:59:08.000Z</time>
      </trkpt>
      <trkpt lat="43.53307" lon="5.63764">
        <ele>532</ele>
        <time>2022-10-19T06:59:09.000Z</time>
      </trkpt>
      <trkpt lat="43.53307" lon="5.63763">
        <ele>532</ele>
        <time>2022-10-19T06:59:10.000Z</time>
      </trkpt>
      <trkpt lat="43.53307" lon="5.63762">
        <ele>532</ele>
        <time>2022-10-19T06:59:11.000Z</time>
      </trkpt>
      <trkpt lat="43.53307" lon="5.63762">
        <ele>532</ele>
        <time>2022-10-19T06:59:12.000Z</time>
      </trkpt>
      <trkpt lat="43.53307" lon="5.63761">
        <ele>532</ele>
        <time>2022-10-19T06:59:13.000Z</time>
      </trkpt>
      <trkpt lat="43.53307" lon="5.63761">
        <ele>532</ele>
        <time>2022-10-19T06:59:14.000Z</time>
      </trkpt>
      <trkpt lat="43.53306" lon="5.6376">
        <ele>532</ele>
        <time>2022-10-19T06:59:15.000Z</time>
      </trkpt>
      <trkpt lat="43.53307" lon="5.63758">
        <ele>533</ele>
        <time>2022-10-19T06:59:16.000Z</time>
      </trkpt>
      <trkpt lat="43.53307" lon="5.63757">
        <ele>533</ele>
        <time>2022-10-19T06:59:17.000Z</time>
      </trkpt>
      <trkpt lat="43.53307" lon="5.63756">
        <ele>533</ele>
        <time>2022-10-19T06:59:18.000Z</time>
      </trkpt>
      <trkpt lat="43.53307" lon="5.63755">
        <ele>533</ele>
        <time>2022-10-19T06:59:19.000Z</time>
      </trkpt>
      <trkpt lat="43.53307" lon="5.63754">
        <ele>533</ele>
        <time>2022-10-19T06:59:20.000Z</time>
      </trkpt>
      <trkpt lat="43.53307" lon="5.63753">
        <ele>533</ele>
        <time>2022-10-19T06:59:21.000Z</time>
      </trkpt>
      <trkpt lat="43.53307" lon="5.63752">
        <ele>533</ele>
        <time>2022-10-19T06:59:22.000Z</time>
      </trkpt>
      <trkpt lat="43.53307" lon="5.63751">
        <ele>533</ele>
        <time>2022-10-19T06:59:23.000Z</time>
      </trkpt>
      <trkpt lat="43.53307" lon="5.6375">
        <ele>533</ele>
        <time>2022-10-19T06:59:24.000Z</time>
      </trkpt>
      <trkpt lat="43.53307" lon="5.63749">
        <ele>533</ele>
        <time>2022-10-19T06:59:25.000Z</time>
      </trkpt>
      <trkpt lat="43.53307" lon="5.63748">
        <ele>533</ele>
        <time>2022-10-19T06:59:26.000Z</time>
      </trkpt>
      <trkpt lat="43.53307" lon="5.63747">
        <ele>534</ele>
        <time>2022-10-19T06:59:27.000Z</time>
      </trkpt>
      <trkpt lat="43.53307" lon="5.63746">
        <ele>534</ele>
        <time>2022-10-19T06:59:28.000Z</time>
      </trkpt>
      <trkpt lat="43.53306" lon="5.63745">
        <ele>534</ele>
        <time>2022-10-19T06:59:29.000Z</time>
      </trkpt>
      <trkpt lat="43.53306" lon="5.63745">
        <ele>534</ele>
        <time>2022-10-19T06:59:30.000Z</time>
      </trkpt>
      <trkpt lat="43.53306" lon="5.63744">
        <ele>534</ele>
        <time>2022-10-19T06:59:31.000Z</time>
      </trkpt>
      <trkpt lat="43.53306" lon="5.63744">
        <ele>534</ele>
        <time>2022-10-19T06:59:32.000Z</time>
      </trkpt>
      <trkpt lat="43.53306" lon="5.63743">
        <ele>534</ele>
        <time>2022-10-19T06:59:33.000Z</time>
      </trkpt>
      <trkpt lat="43.53306" lon="5.63742">
        <ele>534</ele>
        <time>2022-10-19T06:59:34.000Z</time>
      </trkpt>
      <trkpt lat="43.53306" lon="5.63741">
        <ele>534</ele>
        <time>2022-10-19T06:59:35.000Z</time>
      </trkpt>
      <trkpt lat="43.53306" lon="5.6374">
        <ele>534</ele>
        <time>2022-10-19T06:59:36.000Z</time>
      </trkpt>
      <trkpt lat="43.53306" lon="5.63738">
        <ele>534</ele>
        <time>2022-10-19T06:59:37.000Z</time>
      </trkpt>
      <trkpt lat="43.53306" lon="5.63738">
        <ele>534</ele>
        <time>2022-10-19T06:59:38.000Z</time>
      </trkpt>
      <trkpt lat="43.53306" lon="5.63737">
        <ele>535</ele>
        <time>2022-10-19T06:59:39.000Z</time>
      </trkpt>
      <trkpt lat="43.53306" lon="5.63736">
        <ele>535</ele>
        <time>2022-10-19T06:59:40.000Z</time>
      </trkpt>
      <trkpt lat="43.53306" lon="5.63735">
        <ele>535</ele>
        <time>2022-10-19T06:59:41.000Z</time>
      </trkpt>
      <trkpt lat="43.53305" lon="5.63733">
        <ele>535</ele>
        <time>2022-10-19T06:59:42.000Z</time>
      </trkpt>
      <trkpt lat="43.53305" lon="5.63732">
        <ele>535</ele>
        <time>2022-10-19T06:59:43.000Z</time>
      </trkpt>
      <trkpt lat="43.53305" lon="5.63731">
        <ele>535</ele>
        <time>2022-10-19T06:59:44.000Z</time>
      </trkpt>
      <trkpt lat="43.53305" lon="5.6373">
        <ele>535</ele>
        <time>2022-10-19T06:59:45.000Z</time>
      </trkpt>
      <trkpt lat="43.53305" lon="5.63729">
        <ele>535</ele>
        <time>2022-10-19T06:59:46.000Z</time>
      </trkpt>
      <trkpt lat="43.53304" lon="5.63728">
        <ele>535</ele>
        <time>2022-10-19T06:59:47.000Z</time>
      </trkpt>
      <trkpt lat="43.53304" lon="5.63727">
        <ele>536</ele>
        <time>2022-10-19T06:59:48.000Z</time>
      </trkpt>
      <trkpt lat="43.53304" lon="5.63726">
        <ele>536</ele>
        <time>2022-10-19T06:59:49.000Z</time>
      </trkpt>
      <trkpt lat="43.53303" lon="5.63725">
        <ele>536</ele>
        <time>2022-10-19T06:59:50.000Z</time>
      </trkpt>
      <trkpt lat="43.53303" lon="5.63724">
        <ele>536</ele>
        <time>2022-10-19T06:59:51.000Z</time>
      </trkpt>
      <trkpt lat="43.53303" lon="5.63723">
        <ele>536</ele>
        <time>2022-10-19T06:59:52.000Z</time>
      </trkpt>
      <trkpt lat="43.53302" lon="5.63722">
        <ele>536</ele>
        <time>2022-10-19T06:59:53.000Z</time>
      </trkpt>
      <trkpt lat="43.53302" lon="5.6372">
        <ele>537</ele>
        <time>2022-10-19T06:59:54.000Z</time>
      </trkpt>
      <trkpt lat="43.53302" lon="5.6372">
        <ele>537</ele>
        <time>2022-10-19T06:59:55.000Z</time>
      </trkpt>
      <trkpt lat="43.53301" lon="5.63719">
        <ele>537</ele>
        <time>2022-10-19T06:59:56.000Z</time>
      </trkpt>
      <trkpt lat="43.53301" lon="5.63718">
        <ele>537</ele>
        <time>2022-10-19T06:59:57.000Z</time>
      </trkpt>
      <trkpt lat="43.53301" lon="5.63717">
        <ele>537</ele>
        <time>2022-10-19T06:59:58.000Z</time>
      </trkpt>
      <trkpt lat="43.533" lon="5.63716">
        <ele>537</ele>
        <time>2022-10-19T06:59:59.000Z</time>
      </trkpt>
      <trkpt lat="43.533" lon="5.63716">
        <ele>538</ele>
        <time>2022-10-19T07:00:00.000Z</time>
      </trkpt>
      <trkpt lat="43.53299" lon="5.63715">
        <ele>538</ele>
        <time>2022-10-19T07:00:01.000Z</time>
      </trkpt>
      <trkpt lat="43.53299" lon="5.63714">
        <ele>538</ele>
        <time>2022-10-19T07:00:02.000Z</time>
      </trkpt>
      <trkpt lat="43.53298" lon="5.63713">
        <ele>538</ele>
        <time>2022-10-19T07:00:03.000Z</time>
      </trkpt>
      <trkpt lat="43.53298" lon="5.63712">
        <ele>538</ele>
        <time>2022-10-19T07:00:04.000Z</time>
      </trkpt>
      <trkpt lat="43.53297" lon="5.63711">
        <ele>539</ele>
        <time>2022-10-19T07:00:05.000Z</time>
      </trkpt>
      <trkpt lat="43.53297" lon="5.6371">
        <ele>539</ele>
        <time>2022-10-19T07:00:06.000Z</time>
      </trkpt>
      <trkpt lat="43.53296" lon="5.63709">
        <ele>539</ele>
        <time>2022-10-19T07:00:07.000Z</time>
      </trkpt>
      <trkpt lat="43.53296" lon="5.63708">
        <ele>539</ele>
        <time>2022-10-19T07:00:08.000Z</time>
      </trkpt>
      <trkpt lat="43.53295" lon="5.63707">
        <ele>539</ele>
        <time>2022-10-19T07:00:09.000Z</time>
      </trkpt>
      <trkpt lat="43.53295" lon="5.63706">
        <ele>539</ele>
        <time>2022-10-19T07:00:10.000Z</time>
      </trkpt>
      <trkpt lat="43.53295" lon="5.63706">
        <ele>540</ele>
        <time>2022-10-19T07:00:11.000Z</time>
      </trkpt>
      <trkpt lat="43.53294" lon="5.63705">
        <ele>540</ele>
        <time>2022-10-19T07:00:12.000Z</time>
      </trkpt>
      <trkpt lat="43.53294" lon="5.63704">
        <ele>540</ele>
        <time>2022-10-19T07:00:13.000Z</time>
      </trkpt>
      <trkpt lat="43.53293" lon="5.63703">
        <ele>540</ele>
        <time>2022-10-19T07:00:14.000Z</time>
      </trkpt>
      <trkpt lat="43.53293" lon="5.63702">
        <ele>540</ele>
        <time>2022-10-19T07:00:15.000Z</time>
      </trkpt>
      <trkpt lat="43.53292" lon="5.63702">
        <ele>541</ele>
        <time>2022-10-19T07:00:16.000Z</time>
      </trkpt>
      <trkpt lat="43.53292" lon="5.63701">
        <ele>541</ele>
        <time>2022-10-19T07:00:17.000Z</time>
      </trkpt>
      <trkpt lat="43.53291" lon="5.637">
        <ele>541</ele>
        <time>2022-10-19T07:00:18.000Z</time>
      </trkpt>
      <trkpt lat="43.53291" lon="5.63699">
        <ele>541</ele>
        <time>2022-10-19T07:00:19.000Z</time>
      </trkpt>
      <trkpt lat="43.5329" lon="5.63698">
        <ele>541</ele>
        <time>2022-10-19T07:00:20.000Z</time>
      </trkpt>
      <trkpt lat="43.5329" lon="5.63698">
        <ele>541</ele>
        <time>2022-10-19T07:00:21.000Z</time>
      </trkpt>
      <trkpt lat="43.53289" lon="5.63697">
        <ele>541</ele>
        <time>2022-10-19T07:00:22.000Z</time>
      </trkpt>
      <trkpt lat="43.53289" lon="5.63696">
        <ele>542</ele>
        <time>2022-10-19T07:00:23.000Z</time>
      </trkpt>
      <trkpt lat="43.53288" lon="5.63696">
        <ele>542</ele>
        <time>2022-10-19T07:00:24.000Z</time>
      </trkpt>
      <trkpt lat="43.53288" lon="5.63696">
        <ele>542</ele>
        <time>2022-10-19T07:00:25.000Z</time>
      </trkpt>
      <trkpt lat="43.53288" lon="5.63695">
        <ele>542</ele>
        <time>2022-10-19T07:00:26.000Z</time>
      </trkpt>
      <trkpt lat="43.53288" lon="5.63695">
        <ele>542</ele>
        <time>2022-10-19T07:00:27.000Z</time>
      </trkpt>
      <trkpt lat="43.53288" lon="5.63695">
        <ele>542</ele>
        <time>2022-10-19T07:00:28.000Z</time>
      </trkpt>
      <trkpt lat="43.53288" lon="5.63695">
        <ele>542</ele>
        <time>2022-10-19T07:00:29.000Z</time>
      </trkpt>
      <trkpt lat="43.53288" lon="5.63695">
        <ele>542</ele>
        <time>2022-10-19T07:00:30.000Z</time>
      </trkpt>
      <trkpt lat="43.53288" lon="5.63695">
        <ele>542</ele>
        <time>2022-10-19T07:00:31.000Z</time>
      </trkpt>
      <trkpt lat="43.53288" lon="5.63695">
        <ele>542</ele>
        <time>2022-10-19T07:00:32.000Z</time>
      </trkpt>
      <trkpt lat="43.53287" lon="5.63695">
        <ele>542</ele>
        <time>2022-10-19T07:00:33.000Z</time>
      </trkpt>
      <trkpt lat="43.53287" lon="5.63695">
        <ele>542</ele>
        <time>2022-10-19T07:00:34.000Z</time>
      </trkpt>
      <trkpt lat="43.53287" lon="5.63695">
        <ele>543</ele>
        <time>2022-10-19T07:00:35.000Z</time>
      </trkpt>
      <trkpt lat="43.53287" lon="5.63695">
        <ele>543</ele>
        <time>2022-10-19T07:00:36.000Z</time>
      </trkpt>
      <trkpt lat="43.53287" lon="5.63695">
        <ele>543</ele>
        <time>2022-10-19T07:00:37.000Z</time>
      </trkpt>
      <trkpt lat="43.53287" lon="5.63695">
        <ele>543</ele>
        <time>2022-10-19T07:00:38.000Z</time>
      </trkpt>
      <trkpt lat="43.53287" lon="5.63695">
        <ele>543</ele>
        <time>2022-10-19T07:00:39.000Z</time>
      </trkpt>
      <trkpt lat="43.53287" lon="5.63695">
        <ele>543</ele>
        <time>2022-10-19T07:00:40.000Z</time>
      </trkpt>
      <trkpt lat="43.53287" lon="5.63695">
        <ele>543</ele>
        <time>2022-10-19T07:00:41.000Z</time>
      </trkpt>
      <trkpt lat="43.53286" lon="5.63694">
        <ele>543</ele>
        <time>2022-10-19T07:00:42.000Z</time>
      </trkpt>
      <trkpt lat="43.53286" lon="5.63694">
        <ele>543</ele>
        <time>2022-10-19T07:00:43.000Z</time>
      </trkpt>
      <trkpt lat="43.53286" lon="5.63693">
        <ele>543</ele>
        <time>2022-10-19T07:00:44.000Z</time>
      </trkpt>
      <trkpt lat="43.53285" lon="5.63693">
        <ele>543</ele>
        <time>2022-10-19T07:00:45.000Z</time>
      </trkpt>
      <trkpt lat="43.53285" lon="5.63692">
        <ele>543</ele>
        <time>2022-10-19T07:00:46.000Z</time>
      </trkpt>
      <trkpt lat="43.53285" lon="5.63691">
        <ele>543</ele>
        <time>2022-10-19T07:00:47.000Z</time>
      </trkpt>
      <trkpt lat="43.53284" lon="5.6369">
        <ele>543</ele>
        <time>2022-10-19T07:00:48.000Z</time>
      </trkpt>
      <trkpt lat="43.53284" lon="5.63689">
        <ele>543</ele>
        <time>2022-10-19T07:00:49.000Z</time>
      </trkpt>
      <trkpt lat="43.53284" lon="5.63689">
        <ele>543</ele>
        <time>2022-10-19T07:00:50.000Z</time>
      </trkpt>
      <trkpt lat="43.53283" lon="5.63688">
        <ele>544</ele>
        <time>2022-10-19T07:00:51.000Z</time>
      </trkpt>
      <trkpt lat="43.53283" lon="5.63687">
        <ele>544</ele>
        <time>2022-10-19T07:00:52.000Z</time>
      </trkpt>
      <trkpt lat="43.53282" lon="5.63686">
        <ele>544</ele>
        <time>2022-10-19T07:00:53.000Z</time>
      </trkpt>
      <trkpt lat="43.53282" lon="5.63685">
        <ele>544</ele>
        <time>2022-10-19T07:00:54.000Z</time>
      </trkpt>
      <trkpt lat="43.53282" lon="5.63685">
        <ele>544</ele>
        <time>2022-10-19T07:00:55.000Z</time>
      </trkpt>
      <trkpt lat="43.53282" lon="5.63684">
        <ele>544</ele>
        <time>2022-10-19T07:00:56.000Z</time>
      </trkpt>
      <trkpt lat="43.53282" lon="5.63684">
        <ele>544</ele>
        <time>2022-10-19T07:00:57.000Z</time>
      </trkpt>
      <trkpt lat="43.53282" lon="5.63684">
        <ele>544</ele>
        <time>2022-10-19T07:00:58.000Z</time>
      </trkpt>
      <trkpt lat="43.53282" lon="5.63684">
        <ele>544</ele>
        <time>2022-10-19T07:00:59.000Z</time>
      </trkpt>
      <trkpt lat="43.53282" lon="5.63684">
        <ele>545</ele>
        <time>2022-10-19T07:01:00.000Z</time>
      </trkpt>
      <trkpt lat="43.53282" lon="5.63684">
        <ele>545</ele>
        <time>2022-10-19T07:01:01.000Z</time>
      </trkpt>
      <trkpt lat="43.53282" lon="5.63684">
        <ele>545</ele>
        <time>2022-10-19T07:01:02.000Z</time>
      </trkpt>
      <trkpt lat="43.53282" lon="5.63684">
        <ele>545</ele>
        <time>2022-10-19T07:01:03.000Z</time>
      </trkpt>
      <trkpt lat="43.53282" lon="5.63684">
        <ele>545</ele>
        <time>2022-10-19T07:01:04.000Z</time>
      </trkpt>
      <trkpt lat="43.53282" lon="5.63684">
        <ele>545</ele>
        <time>2022-10-19T07:01:05.000Z</time>
      </trkpt>
      <trkpt lat="43.53282" lon="5.63684">
        <ele>545</ele>
        <time>2022-10-19T07:01:06.000Z</time>
      </trkpt>
      <trkpt lat="43.53282" lon="5.63684">
        <ele>545</ele>
        <time>2022-10-19T07:01:07.000Z</time>
      </trkpt>
      <trkpt lat="43.53282" lon="5.63684">
        <ele>545</ele>
        <time>2022-10-19T07:01:08.000Z</time>
      </trkpt>
      <trkpt lat="43.53282" lon="5.63684">
        <ele>545</ele>
        <time>2022-10-19T07:01:09.000Z</time>
      </trkpt>
      <trkpt lat="43.53282" lon="5.63684">
        <ele>545</ele>
        <time>2022-10-19T07:01:10.000Z</time>
      </trkpt>
      <trkpt lat="43.53282" lon="5.63684">
        <ele>545</ele>
        <time>2022-10-19T07:01:11.000Z</time>
      </trkpt>
      <trkpt lat="43.53282" lon="5.63683">
        <ele>545</ele>
        <time>2022-10-19T07:01:12.000Z</time>
      </trkpt>
      <trkpt lat="43.53282" lon="5.63683">
        <ele>545</ele>
        <time>2022-10-19T07:01:13.000Z</time>
      </trkpt>
      <trkpt lat="43.53282" lon="5.63683">
        <ele>545</ele>
        <time>2022-10-19T07:01:14.000Z</time>
      </trkpt>
      <trkpt lat="43.53282" lon="5.63683">
        <ele>545</ele>
        <time>2022-10-19T07:01:15.000Z</time>
      </trkpt>
      <trkpt lat="43.53282" lon="5.63683">
        <ele>545</ele>
        <time>2022-10-19T07:01:16.000Z</time>
      </trkpt>
      <trkpt lat="43.53282" lon="5.63683">
        <ele>545</ele>
        <time>2022-10-19T07:01:17.000Z</time>
      </trkpt>
      <trkpt lat="43.53282" lon="5.63683">
        <ele>545</ele>
        <time>2022-10-19T07:01:18.000Z</time>
      </trkpt>
      <trkpt lat="43.53282" lon="5.63683">
        <ele>545</ele>
        <time>2022-10-19T07:01:19.000Z</time>
      </trkpt>
      <trkpt lat="43.53282" lon="5.63683">
        <ele>545</ele>
        <time>2022-10-19T07:01:20.000Z</time>
      </trkpt>
      <trkpt lat="43.53282" lon="5.63683">
        <ele>545</ele>
        <time>2022-10-19T07:01:21.000Z</time>
      </trkpt>
      <trkpt lat="43.53282" lon="5.63683">
        <ele>545</ele>
        <time>2022-10-19T07:01:22.000Z</time>
      </trkpt>
      <trkpt lat="43.53282" lon="5.63683">
        <ele>545</ele>
        <time>2022-10-19T07:01:23.000Z</time>
      </trkpt>
      <trkpt lat="43.53282" lon="5.63684">
        <ele>545</ele>
        <time>2022-10-19T07:01:24.000Z</time>
      </trkpt>
      <trkpt lat="43.53282" lon="5.63684">
        <ele>545</ele>
        <time>2022-10-19T07:01:25.000Z</time>
      </trkpt>
      <trkpt lat="43.53282" lon="5.63684">
        <ele>545</ele>
        <time>2022-10-19T07:01:26.000Z</time>
      </trkpt>
      <trkpt lat="43.53282" lon="5.63684">
        <ele>545</ele>
        <time>2022-10-19T07:01:27.000Z</time>
      </trkpt>
      <trkpt lat="43.53282" lon="5.63684">
        <ele>545</ele>
        <time>2022-10-19T07:01:28.000Z</time>
      </trkpt>
      <trkpt lat="43.53282" lon="5.63684">
        <ele>545</ele>
        <time>2022-10-19T07:01:29.000Z</time>
      </trkpt>
      <trkpt lat="43.53282" lon="5.63685">
        <ele>545</ele>
        <time>2022-10-19T07:01:30.000Z</time>
      </trkpt>
      <trkpt lat="43.53282" lon="5.63685">
        <ele>546</ele>
        <time>2022-10-19T07:01:31.000Z</time>
      </trkpt>
      <trkpt lat="43.53282" lon="5.63685">
        <ele>546</ele>
        <time>2022-10-19T07:01:32.000Z</time>
      </trkpt>
      <trkpt lat="43.53282" lon="5.63685">
        <ele>546</ele>
        <time>2022-10-19T07:01:33.000Z</time>
      </trkpt>
      <trkpt lat="43.53282" lon="5.63685">
        <ele>546</ele>
        <time>2022-10-19T07:01:34.000Z</time>
      </trkpt>
      <trkpt lat="43.53281" lon="5.63685">
        <ele>546</ele>
        <time>2022-10-19T07:01:35.000Z</time>
      </trkpt>
      <trkpt lat="43.53281" lon="5.63685">
        <ele>546</ele>
        <time>2022-10-19T07:01:36.000Z</time>
      </trkpt>
      <trkpt lat="43.53281" lon="5.63685">
        <ele>546</ele>
        <time>2022-10-19T07:01:37.000Z</time>
      </trkpt>
      <trkpt lat="43.53281" lon="5.63685">
        <ele>546</ele>
        <time>2022-10-19T07:01:38.000Z</time>
      </trkpt>
      <trkpt lat="43.53281" lon="5.63685">
        <ele>546</ele>
        <time>2022-10-19T07:01:39.000Z</time>
      </trkpt>
      <trkpt lat="43.53281" lon="5.63685">
        <ele>547</ele>
        <time>2022-10-19T07:01:40.000Z</time>
      </trkpt>
      <trkpt lat="43.53281" lon="5.63685">
        <ele>547</ele>
        <time>2022-10-19T07:01:41.000Z</time>
      </trkpt>
      <trkpt lat="43.53281" lon="5.63685">
        <ele>547</ele>
        <time>2022-10-19T07:01:42.000Z</time>
      </trkpt>
      <trkpt lat="43.53281" lon="5.63685">
        <ele>547</ele>
        <time>2022-10-19T07:01:43.000Z</time>
      </trkpt>
      <trkpt lat="43.53281" lon="5.63685">
        <ele>547</ele>
        <time>2022-10-19T07:01:44.000Z</time>
      </trkpt>
      <trkpt lat="43.53281" lon="5.63685">
        <ele>547</ele>
        <time>2022-10-19T07:01:45.000Z</time>
      </trkpt>
      <trkpt lat="43.53281" lon="5.63684">
        <ele>547</ele>
        <time>2022-10-19T07:01:46.000Z</time>
      </trkpt>
      <trkpt lat="43.53281" lon="5.63684">
        <ele>547</ele>
        <time>2022-10-19T07:01:47.000Z</time>
      </trkpt>
      <trkpt lat="43.53281" lon="5.63684">
        <ele>547</ele>
        <time>2022-10-19T07:01:48.000Z</time>
      </trkpt>
      <trkpt lat="43.53281" lon="5.63684">
        <ele>547</ele>
        <time>2022-10-19T07:01:49.000Z</time>
      </trkpt>
      <trkpt lat="43.53281" lon="5.63684">
        <ele>547</ele>
        <time>2022-10-19T07:01:50.000Z</time>
      </trkpt>
      <trkpt lat="43.53281" lon="5.63684">
        <ele>547</ele>
        <time>2022-10-19T07:01:51.000Z</time>
      </trkpt>
      <trkpt lat="43.53281" lon="5.63684">
        <ele>547</ele>
        <time>2022-10-19T07:01:52.000Z</time>
      </trkpt>
      <trkpt lat="43.53281" lon="5.63684">
        <ele>547</ele>
        <time>2022-10-19T07:01:53.000Z</time>
      </trkpt>
      <trkpt lat="43.53281" lon="5.63684">
        <ele>547</ele>
        <time>2022-10-19T07:01:54.000Z</time>
      </trkpt>
      <trkpt lat="43.53281" lon="5.63684">
        <ele>547</ele>
        <time>2022-10-19T07:01:55.000Z</time>
      </trkpt>
      <trkpt lat="43.53281" lon="5.63684">
        <ele>547</ele>
        <time>2022-10-19T07:01:56.000Z</time>
      </trkpt>
      <trkpt lat="43.53281" lon="5.63685">
        <ele>547</ele>
        <time>2022-10-19T07:01:57.000Z</time>
      </trkpt>
      <trkpt lat="43.53281" lon="5.63685">
        <ele>547</ele>
        <time>2022-10-19T07:01:58.000Z</time>
      </trkpt>
      <trkpt lat="43.53281" lon="5.63685">
        <ele>547</ele>
        <time>2022-10-19T07:01:59.000Z</time>
      </trkpt>
      <trkpt lat="43.53281" lon="5.63685">
        <ele>547</ele>
        <time>2022-10-19T07:02:00.000Z</time>
      </trkpt>
      <trkpt lat="43.53281" lon="5.63685">
        <ele>547</ele>
        <time>2022-10-19T07:02:01.000Z</time>
      </trkpt>
      <trkpt lat="43.53281" lon="5.63685">
        <ele>547</ele>
        <time>2022-10-19T07:02:02.000Z</time>
      </trkpt>
      <trkpt lat="43.53281" lon="5.63685">
        <ele>547</ele>
        <time>2022-10-19T07:02:03.000Z</time>
      </trkpt>
      <trkpt lat="43.53281" lon="5.63685">
        <ele>547</ele>
        <time>2022-10-19T07:02:04.000Z</time>
      </trkpt>
      <trkpt lat="43.53281" lon="5.63685">
        <ele>547</ele>
        <time>2022-10-19T07:02:05.000Z</time>
      </trkpt>
      <trkpt lat="43.53281" lon="5.63685">
        <ele>547</ele>
        <time>2022-10-19T07:02:06.000Z</time>
      </trkpt>
      <trkpt lat="43.53281" lon="5.63685">
        <ele>547</ele>
        <time>2022-10-19T07:02:07.000Z</time>
      </trkpt>
      <trkpt lat="43.53281" lon="5.63685">
        <ele>547</ele>
        <time>2022-10-19T07:02:08.000Z</time>
      </trkpt>
      <trkpt lat="43.53281" lon="5.63685">
        <ele>547</ele>
        <time>2022-10-19T07:02:09.000Z</time>
      </trkpt>
      <trkpt lat="43.53281" lon="5.63685">
        <ele>547</ele>
        <time>2022-10-19T07:02:10.000Z</time>
      </trkpt>
      <trkpt lat="43.53281" lon="5.63685">
        <ele>547</ele>
        <time>2022-10-19T07:02:11.000Z</time>
      </trkpt>
      <trkpt lat="43.53281" lon="5.63685">
        <ele>547</ele>
        <time>2022-10-19T07:02:12.000Z</time>
      </trkpt>
      <trkpt lat="43.53281" lon="5.63685">
        <ele>547</ele>
        <time>2022-10-19T07:02:13.000Z</time>
      </trkpt>
      <trkpt lat="43.53281" lon="5.63685">
        <ele>547</ele>
        <time>2022-10-19T07:02:14.000Z</time>
      </trkpt>
      <trkpt lat="43.53281" lon="5.63685">
        <ele>547</ele>
        <time>2022-10-19T07:02:15.000Z</time>
      </trkpt>
      <trkpt lat="43.53281" lon="5.63685">
        <ele>547</ele>
        <time>2022-10-19T07:02:16.000Z</time>
      </trkpt>
      <trkpt lat="43.53281" lon="5.63685">
        <ele>547</ele>
        <time>2022-10-19T07:02:17.000Z</time>
      </trkpt>
      <trkpt lat="43.53281" lon="5.63685">
        <ele>547</ele>
        <time>2022-10-19T07:02:18.000Z</time>
      </trkpt>
      <trkpt lat="43.53281" lon="5.63685">
        <ele>547</ele>
        <time>2022-10-19T07:02:19.000Z</time>
      </trkpt>
      <trkpt lat="43.53281" lon="5.63685">
        <ele>547</ele>
        <time>2022-10-19T07:02:20.000Z</time>
      </trkpt>
      <trkpt lat="43.53281" lon="5.63684">
        <ele>547</ele>
        <time>2022-10-19T07:02:21.000Z</time>
      </trkpt>
      <trkpt lat="43.53281" lon="5.63684">
        <ele>547</ele>
        <time>2022-10-19T07:02:22.000Z</time>
      </trkpt>
      <trkpt lat="43.53281" lon="5.63684">
        <ele>547</ele>
        <time>2022-10-19T07:02:23.000Z</time>
      </trkpt>
      <trkpt lat="43.53281" lon="5.63684">
        <ele>547</ele>
        <time>2022-10-19T07:02:24.000Z</time>
      </trkpt>
      <trkpt lat="43.53281" lon="5.63684">
        <ele>547</ele>
        <time>2022-10-19T07:02:25.000Z</time>
      </trkpt>
      <trkpt lat="43.53281" lon="5.63684">
        <ele>547</ele>
        <time>2022-10-19T07:02:26.000Z</time>
      </trkpt>
      <trkpt lat="43.53281" lon="5.63684">
        <ele>547</ele>
        <time>2022-10-19T07:02:27.000Z</time>
      </trkpt>
      <trkpt lat="43.53281" lon="5.63684">
        <ele>547</ele>
        <time>2022-10-19T07:02:28.000Z</time>
      </trkpt>
      <trkpt lat="43.53281" lon="5.63684">
        <ele>547</ele>
        <time>2022-10-19T07:02:29.000Z</time>
      </trkpt>
      <trkpt lat="43.53281" lon="5.63683">
        <ele>547</ele>
        <time>2022-10-19T07:02:30.000Z</time>
      </trkpt>
      <trkpt lat="43.53281" lon="5.63683">
        <ele>547</ele>
        <time>2022-10-19T07:02:31.000Z</time>
      </trkpt>
      <trkpt lat="43.53281" lon="5.63683">
        <ele>547</ele>
        <time>2022-10-19T07:02:32.000Z</time>
      </trkpt>
      <trkpt lat="43.53281" lon="5.63683">
        <ele>547</ele>
        <time>2022-10-19T07:02:33.000Z</time>
      </trkpt>
      <trkpt lat="43.53281" lon="5.63683">
        <ele>547</ele>
        <time>2022-10-19T07:02:34.000Z</time>
      </trkpt>
      <trkpt lat="43.53281" lon="5.63683">
        <ele>547</ele>
        <time>2022-10-19T07:02:35.000Z</time>
      </trkpt>
      <trkpt lat="43.53281" lon="5.63683">
        <ele>547</ele>
        <time>2022-10-19T07:02:36.000Z</time>
      </trkpt>
      <trkpt lat="43.53281" lon="5.63683">
        <ele>547</ele>
        <time>2022-10-19T07:02:37.000Z</time>
      </trkpt>
      <trkpt lat="43.53281" lon="5.63683">
        <ele>547</ele>
        <time>2022-10-19T07:02:38.000Z</time>
      </trkpt>
      <trkpt lat="43.53281" lon="5.63683">
        <ele>547</ele>
        <time>2022-10-19T07:02:39.000Z</time>
      </trkpt>
      <trkpt lat="43.53281" lon="5.63683">
        <ele>547</ele>
        <time>2022-10-19T07:02:40.000Z</time>
      </trkpt>
      <trkpt lat="43.53281" lon="5.63683">
        <ele>547</ele>
        <time>2022-10-19T07:02:41.000Z</time>
      </trkpt>
      <trkpt lat="43.53281" lon="5.63682">
        <ele>547</ele>
        <time>2022-10-19T07:02:42.000Z</time>
      </trkpt>
      <trkpt lat="43.53281" lon="5.63682">
        <ele>547</ele>
        <time>2022-10-19T07:02:43.000Z</time>
      </trkpt>
      <trkpt lat="43.53281" lon="5.63682">
        <ele>547</ele>
        <time>2022-10-19T07:02:44.000Z</time>
      </trkpt>
      <trkpt lat="43.53281" lon="5.63682">
        <ele>547</ele>
        <time>2022-10-19T07:02:45.000Z</time>
      </trkpt>
      <trkpt lat="43.53281" lon="5.63682">
        <ele>547</ele>
        <time>2022-10-19T07:02:46.000Z</time>
      </trkpt>
      <trkpt lat="43.53281" lon="5.63682">
        <ele>547</ele>
        <time>2022-10-19T07:02:47.000Z</time>
      </trkpt>
      <trkpt lat="43.53281" lon="5.63682">
        <ele>547</ele>
        <time>2022-10-19T07:02:48.000Z</time>
      </trkpt>
      <trkpt lat="43.53281" lon="5.63682">
        <ele>547</ele>
        <time>2022-10-19T07:02:49.000Z</time>
      </trkpt>
      <trkpt lat="43.53281" lon="5.63682">
        <ele>547</ele>
        <time>2022-10-19T07:02:50.000Z</time>
      </trkpt>
      <trkpt lat="43.53281" lon="5.63682">
        <ele>547</ele>
        <time>2022-10-19T07:02:51.000Z</time>
      </trkpt>
      <trkpt lat="43.53281" lon="5.63682">
        <ele>547</ele>
        <time>2022-10-19T07:02:52.000Z</time>
      </trkpt>
      <trkpt lat="43.53281" lon="5.63682">
        <ele>547</ele>
        <time>2022-10-19T07:02:53.000Z</time>
      </trkpt>
      <trkpt lat="43.53281" lon="5.63682">
        <ele>547</ele>
        <time>2022-10-19T07:02:54.000Z</time>
      </trkpt>
      <trkpt lat="43.53281" lon="5.63682">
        <ele>547</ele>
        <time>2022-10-19T07:02:55.000Z</time>
      </trkpt>
      <trkpt lat="43.53281" lon="5.63682">
        <ele>547</ele>
        <time>2022-10-19T07:02:56.000Z</time>
      </trkpt>
      <trkpt lat="43.53281" lon="5.63681">
        <ele>547</ele>
        <time>2022-10-19T07:02:57.000Z</time>
      </trkpt>
      <trkpt lat="43.53281" lon="5.63681">
        <ele>547</ele>
        <time>2022-10-19T07:02:58.000Z</time>
      </trkpt>
      <trkpt lat="43.53281" lon="5.63681">
        <ele>547</ele>
        <time>2022-10-19T07:02:59.000Z</time>
      </trkpt>
      <trkpt lat="43.53281" lon="5.63681">
        <ele>547</ele>
        <time>2022-10-19T07:03:00.000Z</time>
      </trkpt>
      <trkpt lat="43.53281" lon="5.63681">
        <ele>547</ele>
        <time>2022-10-19T07:03:01.000Z</time>
      </trkpt>
      <trkpt lat="43.53281" lon="5.63681">
        <ele>547</ele>
        <time>2022-10-19T07:03:02.000Z</time>
      </trkpt>
      <trkpt lat="43.53281" lon="5.63681">
        <ele>547</ele>
        <time>2022-10-19T07:03:03.000Z</time>
      </trkpt>
      <trkpt lat="43.53281" lon="5.63681">
        <ele>547</ele>
        <time>2022-10-19T07:03:04.000Z</time>
      </trkpt>
      <trkpt lat="43.53281" lon="5.63681">
        <ele>547</ele>
        <time>2022-10-19T07:03:05.000Z</time>
      </trkpt>
      <trkpt lat="43.53281" lon="5.6368">
        <ele>547</ele>
        <time>2022-10-19T07:03:06.000Z</time>
      </trkpt>
      <trkpt lat="43.53281" lon="5.6368">
        <ele>547</ele>
        <time>2022-10-19T07:03:07.000Z</time>
      </trkpt>
      <trkpt lat="43.5328" lon="5.63678">
        <ele>547</ele>
        <time>2022-10-19T07:03:08.000Z</time>
      </trkpt>
      <trkpt lat="43.53281" lon="5.63677">
        <ele>547</ele>
        <time>2022-10-19T07:03:09.000Z</time>
      </trkpt>
      <trkpt lat="43.53281" lon="5.63676">
        <ele>547</ele>
        <time>2022-10-19T07:03:10.000Z</time>
      </trkpt>
      <trkpt lat="43.53281" lon="5.63676">
        <ele>547</ele>
        <time>2022-10-19T07:03:11.000Z</time>
      </trkpt>
      <trkpt lat="43.53281" lon="5.63675">
        <ele>547</ele>
        <time>2022-10-19T07:03:12.000Z</time>
      </trkpt>
      <trkpt lat="43.53281" lon="5.63674">
        <ele>547</ele>
        <time>2022-10-19T07:03:13.000Z</time>
      </trkpt>
      <trkpt lat="43.53281" lon="5.63673">
        <ele>547</ele>
        <time>2022-10-19T07:03:14.000Z</time>
      </trkpt>
      <trkpt lat="43.53281" lon="5.63672">
        <ele>547</ele>
        <time>2022-10-19T07:03:15.000Z</time>
      </trkpt>
      <trkpt lat="43.53282" lon="5.63671">
        <ele>547</ele>
        <time>2022-10-19T07:03:16.000Z</time>
      </trkpt>
      <trkpt lat="43.53282" lon="5.6367">
        <ele>547</ele>
        <time>2022-10-19T07:03:17.000Z</time>
      </trkpt>
      <trkpt lat="43.53282" lon="5.63669">
        <ele>547</ele>
        <time>2022-10-19T07:03:18.000Z</time>
      </trkpt>
      <trkpt lat="43.53282" lon="5.63667">
        <ele>547</ele>
        <time>2022-10-19T07:03:19.000Z</time>
      </trkpt>
      <trkpt lat="43.53283" lon="5.63666">
        <ele>547</ele>
        <time>2022-10-19T07:03:20.000Z</time>
      </trkpt>
      <trkpt lat="43.53283" lon="5.63665">
        <ele>547</ele>
        <time>2022-10-19T07:03:21.000Z</time>
      </trkpt>
      <trkpt lat="43.53283" lon="5.63664">
        <ele>547</ele>
        <time>2022-10-19T07:03:22.000Z</time>
      </trkpt>
      <trkpt lat="43.53283" lon="5.63663">
        <ele>547</ele>
        <time>2022-10-19T07:03:23.000Z</time>
      </trkpt>
      <trkpt lat="43.53284" lon="5.63663">
        <ele>547</ele>
        <time>2022-10-19T07:03:24.000Z</time>
      </trkpt>
      <trkpt lat="43.53284" lon="5.63661">
        <ele>547</ele>
        <time>2022-10-19T07:03:25.000Z</time>
      </trkpt>
      <trkpt lat="43.53284" lon="5.6366">
        <ele>547</ele>
        <time>2022-10-19T07:03:26.000Z</time>
      </trkpt>
      <trkpt lat="43.53284" lon="5.63659">
        <ele>547</ele>
        <time>2022-10-19T07:03:27.000Z</time>
      </trkpt>
      <trkpt lat="43.53285" lon="5.63659">
        <ele>547</ele>
        <time>2022-10-19T07:03:28.000Z</time>
      </trkpt>
      <trkpt lat="43.53285" lon="5.63657">
        <ele>547</ele>
        <time>2022-10-19T07:03:29.000Z</time>
      </trkpt>
      <trkpt lat="43.53285" lon="5.63656">
        <ele>547</ele>
        <time>2022-10-19T07:03:30.000Z</time>
      </trkpt>
      <trkpt lat="43.53285" lon="5.63655">
        <ele>548</ele>
        <time>2022-10-19T07:03:31.000Z</time>
      </trkpt>
      <trkpt lat="43.53286" lon="5.63654">
        <ele>548</ele>
        <time>2022-10-19T07:03:32.000Z</time>
      </trkpt>
      <trkpt lat="43.53286" lon="5.63653">
        <ele>548</ele>
        <time>2022-10-19T07:03:33.000Z</time>
      </trkpt>
      <trkpt lat="43.53286" lon="5.63653">
        <ele>548</ele>
        <time>2022-10-19T07:03:34.000Z</time>
      </trkpt>
      <trkpt lat="43.53287" lon="5.63652">
        <ele>548</ele>
        <time>2022-10-19T07:03:35.000Z</time>
      </trkpt>
      <trkpt lat="43.53287" lon="5.63651">
        <ele>548</ele>
        <time>2022-10-19T07:03:36.000Z</time>
      </trkpt>
      <trkpt lat="43.53287" lon="5.63651">
        <ele>548</ele>
        <time>2022-10-19T07:03:37.000Z</time>
      </trkpt>
      <trkpt lat="43.53287" lon="5.6365">
        <ele>548</ele>
        <time>2022-10-19T07:03:38.000Z</time>
      </trkpt>
      <trkpt lat="43.53288" lon="5.63649">
        <ele>548</ele>
        <time>2022-10-19T07:03:39.000Z</time>
      </trkpt>
      <trkpt lat="43.53289" lon="5.63649">
        <ele>548</ele>
        <time>2022-10-19T07:03:40.000Z</time>
      </trkpt>
      <trkpt lat="43.53289" lon="5.63648">
        <ele>548</ele>
        <time>2022-10-19T07:03:41.000Z</time>
      </trkpt>
      <trkpt lat="43.5329" lon="5.63648">
        <ele>549</ele>
        <time>2022-10-19T07:03:42.000Z</time>
      </trkpt>
      <trkpt lat="43.5329" lon="5.63647">
        <ele>549</ele>
        <time>2022-10-19T07:03:43.000Z</time>
      </trkpt>
      <trkpt lat="43.53291" lon="5.63647">
        <ele>549</ele>
        <time>2022-10-19T07:03:44.000Z</time>
      </trkpt>
      <trkpt lat="43.53291" lon="5.63646">
        <ele>549</ele>
        <time>2022-10-19T07:03:45.000Z</time>
      </trkpt>
      <trkpt lat="43.53292" lon="5.63645">
        <ele>549</ele>
        <time>2022-10-19T07:03:46.000Z</time>
      </trkpt>
      <trkpt lat="43.53292" lon="5.63645">
        <ele>549</ele>
        <time>2022-10-19T07:03:47.000Z</time>
      </trkpt>
      <trkpt lat="43.53293" lon="5.63645">
        <ele>549</ele>
        <time>2022-10-19T07:03:48.000Z</time>
      </trkpt>
      <trkpt lat="43.53293" lon="5.63645">
        <ele>549</ele>
        <time>2022-10-19T07:03:49.000Z</time>
      </trkpt>
      <trkpt lat="43.53293" lon="5.63645">
        <ele>549</ele>
        <time>2022-10-19T07:03:50.000Z</time>
      </trkpt>
      <trkpt lat="43.53294" lon="5.63644">
        <ele>549</ele>
        <time>2022-10-19T07:03:51.000Z</time>
      </trkpt>
      <trkpt lat="43.53294" lon="5.63644">
        <ele>549</ele>
        <time>2022-10-19T07:03:52.000Z</time>
      </trkpt>
      <trkpt lat="43.53295" lon="5.63643">
        <ele>549</ele>
        <time>2022-10-19T07:03:53.000Z</time>
      </trkpt>
      <trkpt lat="43.53295" lon="5.63643">
        <ele>549</ele>
        <time>2022-10-19T07:03:54.000Z</time>
      </trkpt>
      <trkpt lat="43.53296" lon="5.63642">
        <ele>549</ele>
        <time>2022-10-19T07:03:55.000Z</time>
      </trkpt>
      <trkpt lat="43.53296" lon="5.63642">
        <ele>549</ele>
        <time>2022-10-19T07:03:56.000Z</time>
      </trkpt>
      <trkpt lat="43.53298" lon="5.63641">
        <ele>550</ele>
        <time>2022-10-19T07:03:57.000Z</time>
      </trkpt>
      <trkpt lat="43.53298" lon="5.63641">
        <ele>550</ele>
        <time>2022-10-19T07:03:58.000Z</time>
      </trkpt>
      <trkpt lat="43.53299" lon="5.63642">
        <ele>550</ele>
        <time>2022-10-19T07:03:59.000Z</time>
      </trkpt>
      <trkpt lat="43.53299" lon="5.63642">
        <ele>550</ele>
        <time>2022-10-19T07:04:00.000Z</time>
      </trkpt>
      <trkpt lat="43.533" lon="5.63643">
        <ele>550</ele>
        <time>2022-10-19T07:04:01.000Z</time>
      </trkpt>
      <trkpt lat="43.533" lon="5.63643">
        <ele>550</ele>
        <time>2022-10-19T07:04:02.000Z</time>
      </trkpt>
      <trkpt lat="43.533" lon="5.63643">
        <ele>550</ele>
        <time>2022-10-19T07:04:03.000Z</time>
      </trkpt>
      <trkpt lat="43.53301" lon="5.63644">
        <ele>550</ele>
        <time>2022-10-19T07:04:04.000Z</time>
      </trkpt>
      <trkpt lat="43.53301" lon="5.63644">
        <ele>550</ele>
        <time>2022-10-19T07:04:05.000Z</time>
      </trkpt>
      <trkpt lat="43.53301" lon="5.63645">
        <ele>551</ele>
        <time>2022-10-19T07:04:06.000Z</time>
      </trkpt>
      <trkpt lat="43.53302" lon="5.63645">
        <ele>551</ele>
        <time>2022-10-19T07:04:07.000Z</time>
      </trkpt>
      <trkpt lat="43.53302" lon="5.63645">
        <ele>551</ele>
        <time>2022-10-19T07:04:08.000Z</time>
      </trkpt>
      <trkpt lat="43.53302" lon="5.63645">
        <ele>551</ele>
        <time>2022-10-19T07:04:09.000Z</time>
      </trkpt>
      <trkpt lat="43.53302" lon="5.63645">
        <ele>551</ele>
        <time>2022-10-19T07:04:10.000Z</time>
      </trkpt>
      <trkpt lat="43.53303" lon="5.63645">
        <ele>551</ele>
        <time>2022-10-19T07:04:11.000Z</time>
      </trkpt>
      <trkpt lat="43.53303" lon="5.63644">
        <ele>551</ele>
        <time>2022-10-19T07:04:12.000Z</time>
      </trkpt>
      <trkpt lat="43.53304" lon="5.63644">
        <ele>551</ele>
        <time>2022-10-19T07:04:13.000Z</time>
      </trkpt>
      <trkpt lat="43.53304" lon="5.63643">
        <ele>551</ele>
        <time>2022-10-19T07:04:14.000Z</time>
      </trkpt>
      <trkpt lat="43.53305" lon="5.63643">
        <ele>551</ele>
        <time>2022-10-19T07:04:15.000Z</time>
      </trkpt>
      <trkpt lat="43.53305" lon="5.63642">
        <ele>552</ele>
        <time>2022-10-19T07:04:16.000Z</time>
      </trkpt>
      <trkpt lat="43.53305" lon="5.63641">
        <ele>552</ele>
        <time>2022-10-19T07:04:17.000Z</time>
      </trkpt>
      <trkpt lat="43.53305" lon="5.6364">
        <ele>552</ele>
        <time>2022-10-19T07:04:18.000Z</time>
      </trkpt>
      <trkpt lat="43.53306" lon="5.63639">
        <ele>552</ele>
        <time>2022-10-19T07:04:19.000Z</time>
      </trkpt>
      <trkpt lat="43.53306" lon="5.63638">
        <ele>552</ele>
        <time>2022-10-19T07:04:20.000Z</time>
      </trkpt>
      <trkpt lat="43.53306" lon="5.63637">
        <ele>552</ele>
        <time>2022-10-19T07:04:21.000Z</time>
      </trkpt>
      <trkpt lat="43.53307" lon="5.63636">
        <ele>552</ele>
        <time>2022-10-19T07:04:22.000Z</time>
      </trkpt>
      <trkpt lat="43.53307" lon="5.63635">
        <ele>552</ele>
        <time>2022-10-19T07:04:23.000Z</time>
      </trkpt>
      <trkpt lat="43.53308" lon="5.63634">
        <ele>552</ele>
        <time>2022-10-19T07:04:24.000Z</time>
      </trkpt>
      <trkpt lat="43.53308" lon="5.63633">
        <ele>552</ele>
        <time>2022-10-19T07:04:25.000Z</time>
      </trkpt>
      <trkpt lat="43.53308" lon="5.63632">
        <ele>553</ele>
        <time>2022-10-19T07:04:26.000Z</time>
      </trkpt>
      <trkpt lat="43.53308" lon="5.63631">
        <ele>553</ele>
        <time>2022-10-19T07:04:27.000Z</time>
      </trkpt>
      <trkpt lat="43.53309" lon="5.6363">
        <ele>553</ele>
        <time>2022-10-19T07:04:28.000Z</time>
      </trkpt>
      <trkpt lat="43.53309" lon="5.63629">
        <ele>553</ele>
        <time>2022-10-19T07:04:29.000Z</time>
      </trkpt>
      <trkpt lat="43.5331" lon="5.63629">
        <ele>553</ele>
        <time>2022-10-19T07:04:30.000Z</time>
      </trkpt>
      <trkpt lat="43.5331" lon="5.63628">
        <ele>553</ele>
        <time>2022-10-19T07:04:31.000Z</time>
      </trkpt>
      <trkpt lat="43.53311" lon="5.63628">
        <ele>553</ele>
        <time>2022-10-19T07:04:32.000Z</time>
      </trkpt>
      <trkpt lat="43.53311" lon="5.63627">
        <ele>554</ele>
        <time>2022-10-19T07:04:33.000Z</time>
      </trkpt>
      <trkpt lat="43.53312" lon="5.63626">
        <ele>554</ele>
        <time>2022-10-19T07:04:34.000Z</time>
      </trkpt>
      <trkpt lat="43.53312" lon="5.63626">
        <ele>554</ele>
        <time>2022-10-19T07:04:35.000Z</time>
      </trkpt>
      <trkpt lat="43.53313" lon="5.63625">
        <ele>554</ele>
        <time>2022-10-19T07:04:36.000Z</time>
      </trkpt>
      <trkpt lat="43.53314" lon="5.63624">
        <ele>555</ele>
        <time>2022-10-19T07:04:37.000Z</time>
      </trkpt>
      <trkpt lat="43.53314" lon="5.63624">
        <ele>555</ele>
        <time>2022-10-19T07:04:38.000Z</time>
      </trkpt>
      <trkpt lat="43.53315" lon="5.63623">
        <ele>555</ele>
        <time>2022-10-19T07:04:39.000Z</time>
      </trkpt>
      <trkpt lat="43.53315" lon="5.63623">
        <ele>555</ele>
        <time>2022-10-19T07:04:40.000Z</time>
      </trkpt>
      <trkpt lat="43.53315" lon="5.63622">
        <ele>555</ele>
        <time>2022-10-19T07:04:41.000Z</time>
      </trkpt>
      <trkpt lat="43.53315" lon="5.63622">
        <ele>555</ele>
        <time>2022-10-19T07:04:42.000Z</time>
      </trkpt>
      <trkpt lat="43.53316" lon="5.63621">
        <ele>556</ele>
        <time>2022-10-19T07:04:43.000Z</time>
      </trkpt>
      <trkpt lat="43.53316" lon="5.63621">
        <ele>556</ele>
        <time>2022-10-19T07:04:44.000Z</time>
      </trkpt>
      <trkpt lat="43.53316" lon="5.6362">
        <ele>556</ele>
        <time>2022-10-19T07:04:45.000Z</time>
      </trkpt>
      <trkpt lat="43.53317" lon="5.6362">
        <ele>556</ele>
        <time>2022-10-19T07:04:46.000Z</time>
      </trkpt>
      <trkpt lat="43.53317" lon="5.63619">
        <ele>556</ele>
        <time>2022-10-19T07:04:47.000Z</time>
      </trkpt>
      <trkpt lat="43.53317" lon="5.63619">
        <ele>556</ele>
        <time>2022-10-19T07:04:48.000Z</time>
      </trkpt>
      <trkpt lat="43.53318" lon="5.63618">
        <ele>556</ele>
        <time>2022-10-19T07:04:49.000Z</time>
      </trkpt>
      <trkpt lat="43.53318" lon="5.63617">
        <ele>557</ele>
        <time>2022-10-19T07:04:50.000Z</time>
      </trkpt>
      <trkpt lat="43.53319" lon="5.63617">
        <ele>557</ele>
        <time>2022-10-19T07:04:51.000Z</time>
      </trkpt>
      <trkpt lat="43.53319" lon="5.63616">
        <ele>557</ele>
        <time>2022-10-19T07:04:52.000Z</time>
      </trkpt>
      <trkpt lat="43.5332" lon="5.63616">
        <ele>557</ele>
        <time>2022-10-19T07:04:53.000Z</time>
      </trkpt>
      <trkpt lat="43.5332" lon="5.63617">
        <ele>557</ele>
        <time>2022-10-19T07:04:54.000Z</time>
      </trkpt>
      <trkpt lat="43.53321" lon="5.63617">
        <ele>557</ele>
        <time>2022-10-19T07:04:55.000Z</time>
      </trkpt>
      <trkpt lat="43.53321" lon="5.63618">
        <ele>557</ele>
        <time>2022-10-19T07:04:56.000Z</time>
      </trkpt>
      <trkpt lat="43.5332" lon="5.63619">
        <ele>557</ele>
        <time>2022-10-19T07:04:57.000Z</time>
      </trkpt>
      <trkpt lat="43.5332" lon="5.63619">
        <ele>557</ele>
        <time>2022-10-19T07:04:58.000Z</time>
      </trkpt>
      <trkpt lat="43.5332" lon="5.6362">
        <ele>558</ele>
        <time>2022-10-19T07:04:59.000Z</time>
      </trkpt>
      <trkpt lat="43.5332" lon="5.63621">
        <ele>558</ele>
        <time>2022-10-19T07:05:00.000Z</time>
      </trkpt>
      <trkpt lat="43.5332" lon="5.63622">
        <ele>558</ele>
        <time>2022-10-19T07:05:01.000Z</time>
      </trkpt>
      <trkpt lat="43.5332" lon="5.63623">
        <ele>558</ele>
        <time>2022-10-19T07:05:02.000Z</time>
      </trkpt>
      <trkpt lat="43.5332" lon="5.63623">
        <ele>558</ele>
        <time>2022-10-19T07:05:03.000Z</time>
      </trkpt>
      <trkpt lat="43.53321" lon="5.63624">
        <ele>558</ele>
        <time>2022-10-19T07:05:04.000Z</time>
      </trkpt>
      <trkpt lat="43.53321" lon="5.63625">
        <ele>558</ele>
        <time>2022-10-19T07:05:05.000Z</time>
      </trkpt>
      <trkpt lat="43.53321" lon="5.63626">
        <ele>559</ele>
        <time>2022-10-19T07:05:06.000Z</time>
      </trkpt>
      <trkpt lat="43.53321" lon="5.63627">
        <ele>559</ele>
        <time>2022-10-19T07:05:07.000Z</time>
      </trkpt>
      <trkpt lat="43.53321" lon="5.63628">
        <ele>559</ele>
        <time>2022-10-19T07:05:08.000Z</time>
      </trkpt>
      <trkpt lat="43.53322" lon="5.63628">
        <ele>559</ele>
        <time>2022-10-19T07:05:09.000Z</time>
      </trkpt>
      <trkpt lat="43.53322" lon="5.63629">
        <ele>559</ele>
        <time>2022-10-19T07:05:10.000Z</time>
      </trkpt>
      <trkpt lat="43.53322" lon="5.6363">
        <ele>559</ele>
        <time>2022-10-19T07:05:11.000Z</time>
      </trkpt>
      <trkpt lat="43.53322" lon="5.63631">
        <ele>560</ele>
        <time>2022-10-19T07:05:12.000Z</time>
      </trkpt>
      <trkpt lat="43.53323" lon="5.63632">
        <ele>560</ele>
        <time>2022-10-19T07:05:13.000Z</time>
      </trkpt>
      <trkpt lat="43.53323" lon="5.63632">
        <ele>560</ele>
        <time>2022-10-19T07:05:14.000Z</time>
      </trkpt>
      <trkpt lat="43.53324" lon="5.63633">
        <ele>560</ele>
        <time>2022-10-19T07:05:15.000Z</time>
      </trkpt>
      <trkpt lat="43.53324" lon="5.63634">
        <ele>560</ele>
        <time>2022-10-19T07:05:16.000Z</time>
      </trkpt>
      <trkpt lat="43.53325" lon="5.63634">
        <ele>560</ele>
        <time>2022-10-19T07:05:17.000Z</time>
      </trkpt>
      <trkpt lat="43.53325" lon="5.63635">
        <ele>560</ele>
        <time>2022-10-19T07:05:18.000Z</time>
      </trkpt>
      <trkpt lat="43.53325" lon="5.63636">
        <ele>560</ele>
        <time>2022-10-19T07:05:19.000Z</time>
      </trkpt>
      <trkpt lat="43.53325" lon="5.63638">
        <ele>560</ele>
        <time>2022-10-19T07:05:20.000Z</time>
      </trkpt>
      <trkpt lat="43.53325" lon="5.63638">
        <ele>561</ele>
        <time>2022-10-19T07:05:21.000Z</time>
      </trkpt>
      <trkpt lat="43.53326" lon="5.6364">
        <ele>561</ele>
        <time>2022-10-19T07:05:22.000Z</time>
      </trkpt>
      <trkpt lat="43.53326" lon="5.63641">
        <ele>561</ele>
        <time>2022-10-19T07:05:23.000Z</time>
      </trkpt>
      <trkpt lat="43.53326" lon="5.63642">
        <ele>561</ele>
        <time>2022-10-19T07:05:24.000Z</time>
      </trkpt>
      <trkpt lat="43.53326" lon="5.63643">
        <ele>561</ele>
        <time>2022-10-19T07:05:25.000Z</time>
      </trkpt>
      <trkpt lat="43.53326" lon="5.63644">
        <ele>561</ele>
        <time>2022-10-19T07:05:26.000Z</time>
      </trkpt>
      <trkpt lat="43.53326" lon="5.63645">
        <ele>561</ele>
        <time>2022-10-19T07:05:27.000Z</time>
      </trkpt>
      <trkpt lat="43.53327" lon="5.63646">
        <ele>561</ele>
        <time>2022-10-19T07:05:28.000Z</time>
      </trkpt>
      <trkpt lat="43.53327" lon="5.63648">
        <ele>562</ele>
        <time>2022-10-19T07:05:29.000Z</time>
      </trkpt>
      <trkpt lat="43.53327" lon="5.63649">
        <ele>562</ele>
        <time>2022-10-19T07:05:30.000Z</time>
      </trkpt>
      <trkpt lat="43.53327" lon="5.6365">
        <ele>562</ele>
        <time>2022-10-19T07:05:31.000Z</time>
      </trkpt>
      <trkpt lat="43.53327" lon="5.63651">
        <ele>562</ele>
        <time>2022-10-19T07:05:32.000Z</time>
      </trkpt>
      <trkpt lat="43.53327" lon="5.63653">
        <ele>562</ele>
        <time>2022-10-19T07:05:33.000Z</time>
      </trkpt>
      <trkpt lat="43.53327" lon="5.63654">
        <ele>563</ele>
        <time>2022-10-19T07:05:34.000Z</time>
      </trkpt>
      <trkpt lat="43.53327" lon="5.63655">
        <ele>563</ele>
        <time>2022-10-19T07:05:35.000Z</time>
      </trkpt>
      <trkpt lat="43.53328" lon="5.63656">
        <ele>563</ele>
        <time>2022-10-19T07:05:36.000Z</time>
      </trkpt>
      <trkpt lat="43.53328" lon="5.63657">
        <ele>563</ele>
        <time>2022-10-19T07:05:37.000Z</time>
      </trkpt>
      <trkpt lat="43.53328" lon="5.63659">
        <ele>563</ele>
        <time>2022-10-19T07:05:38.000Z</time>
      </trkpt>
      <trkpt lat="43.53328" lon="5.63659">
        <ele>563</ele>
        <time>2022-10-19T07:05:39.000Z</time>
      </trkpt>
      <trkpt lat="43.53329" lon="5.63661">
        <ele>563</ele>
        <time>2022-10-19T07:05:40.000Z</time>
      </trkpt>
      <trkpt lat="43.53329" lon="5.63662">
        <ele>564</ele>
        <time>2022-10-19T07:05:41.000Z</time>
      </trkpt>
      <trkpt lat="43.53329" lon="5.63663">
        <ele>564</ele>
        <time>2022-10-19T07:05:42.000Z</time>
      </trkpt>
      <trkpt lat="43.53329" lon="5.63664">
        <ele>564</ele>
        <time>2022-10-19T07:05:43.000Z</time>
      </trkpt>
      <trkpt lat="43.53329" lon="5.63665">
        <ele>564</ele>
        <time>2022-10-19T07:05:44.000Z</time>
      </trkpt>
      <trkpt lat="43.5333" lon="5.63666">
        <ele>564</ele>
        <time>2022-10-19T07:05:45.000Z</time>
      </trkpt>
      <trkpt lat="43.5333" lon="5.63667">
        <ele>565</ele>
        <time>2022-10-19T07:05:46.000Z</time>
      </trkpt>
      <trkpt lat="43.5333" lon="5.63669">
        <ele>565</ele>
        <time>2022-10-19T07:05:47.000Z</time>
      </trkpt>
      <trkpt lat="43.5333" lon="5.6367">
        <ele>565</ele>
        <time>2022-10-19T07:05:48.000Z</time>
      </trkpt>
      <trkpt lat="43.53331" lon="5.63671">
        <ele>565</ele>
        <time>2022-10-19T07:05:49.000Z</time>
      </trkpt>
      <trkpt lat="43.53331" lon="5.63672">
        <ele>565</ele>
        <time>2022-10-19T07:05:50.000Z</time>
      </trkpt>
      <trkpt lat="43.53332" lon="5.63673">
        <ele>565</ele>
        <time>2022-10-19T07:05:51.000Z</time>
      </trkpt>
      <trkpt lat="43.53332" lon="5.63674">
        <ele>565</ele>
        <time>2022-10-19T07:05:52.000Z</time>
      </trkpt>
      <trkpt lat="43.53332" lon="5.63674">
        <ele>565</ele>
        <time>2022-10-19T07:05:53.000Z</time>
      </trkpt>
      <trkpt lat="43.53333" lon="5.63675">
        <ele>565</ele>
        <time>2022-10-19T07:05:54.000Z</time>
      </trkpt>
      <trkpt lat="43.53333" lon="5.63676">
        <ele>565</ele>
        <time>2022-10-19T07:05:55.000Z</time>
      </trkpt>
      <trkpt lat="43.53334" lon="5.63677">
        <ele>565</ele>
        <time>2022-10-19T07:05:56.000Z</time>
      </trkpt>
      <trkpt lat="43.53334" lon="5.63678">
        <ele>566</ele>
        <time>2022-10-19T07:05:57.000Z</time>
      </trkpt>
      <trkpt lat="43.53334" lon="5.63678">
        <ele>566</ele>
        <time>2022-10-19T07:05:58.000Z</time>
      </trkpt>
      <trkpt lat="43.53335" lon="5.63679">
        <ele>566</ele>
        <time>2022-10-19T07:05:59.000Z</time>
      </trkpt>
      <trkpt lat="43.53335" lon="5.6368">
        <ele>566</ele>
        <time>2022-10-19T07:06:00.000Z</time>
      </trkpt>
      <trkpt lat="43.53336" lon="5.6368">
        <ele>566</ele>
        <time>2022-10-19T07:06:01.000Z</time>
      </trkpt>
      <trkpt lat="43.53336" lon="5.63681">
        <ele>566</ele>
        <time>2022-10-19T07:06:02.000Z</time>
      </trkpt>
      <trkpt lat="43.53336" lon="5.63682">
        <ele>566</ele>
        <time>2022-10-19T07:06:03.000Z</time>
      </trkpt>
      <trkpt lat="43.53337" lon="5.63682">
        <ele>566</ele>
        <time>2022-10-19T07:06:04.000Z</time>
      </trkpt>
      <trkpt lat="43.53337" lon="5.63682">
        <ele>566</ele>
        <time>2022-10-19T07:06:05.000Z</time>
      </trkpt>
      <trkpt lat="43.53338" lon="5.63683">
        <ele>566</ele>
        <time>2022-10-19T07:06:06.000Z</time>
      </trkpt>
      <trkpt lat="43.53338" lon="5.63683">
        <ele>567</ele>
        <time>2022-10-19T07:06:07.000Z</time>
      </trkpt>
      <trkpt lat="43.53339" lon="5.63684">
        <ele>567</ele>
        <time>2022-10-19T07:06:08.000Z</time>
      </trkpt>
      <trkpt lat="43.5334" lon="5.63684">
        <ele>567</ele>
        <time>2022-10-19T07:06:09.000Z</time>
      </trkpt>
      <trkpt lat="43.5334" lon="5.63684">
        <ele>567</ele>
        <time>2022-10-19T07:06:10.000Z</time>
      </trkpt>
      <trkpt lat="43.53341" lon="5.63685">
        <ele>567</ele>
        <time>2022-10-19T07:06:11.000Z</time>
      </trkpt>
      <trkpt lat="43.53341" lon="5.63686">
        <ele>567</ele>
        <time>2022-10-19T07:06:12.000Z</time>
      </trkpt>
      <trkpt lat="43.53341" lon="5.63686">
        <ele>567</ele>
        <time>2022-10-19T07:06:13.000Z</time>
      </trkpt>
      <trkpt lat="43.53342" lon="5.63687">
        <ele>567</ele>
        <time>2022-10-19T07:06:14.000Z</time>
      </trkpt>
      <trkpt lat="43.53342" lon="5.63687">
        <ele>567</ele>
        <time>2022-10-19T07:06:15.000Z</time>
      </trkpt>
      <trkpt lat="43.53343" lon="5.63687">
        <ele>567</ele>
        <time>2022-10-19T07:06:16.000Z</time>
      </trkpt>
      <trkpt lat="43.53343" lon="5.63688">
        <ele>567</ele>
        <time>2022-10-19T07:06:17.000Z</time>
      </trkpt>
      <trkpt lat="43.53343" lon="5.63689">
        <ele>567</ele>
        <time>2022-10-19T07:06:18.000Z</time>
      </trkpt>
      <trkpt lat="43.53343" lon="5.6369">
        <ele>567</ele>
        <time>2022-10-19T07:06:19.000Z</time>
      </trkpt>
      <trkpt lat="43.53343" lon="5.63691">
        <ele>568</ele>
        <time>2022-10-19T07:06:20.000Z</time>
      </trkpt>
      <trkpt lat="43.53343" lon="5.63692">
        <ele>568</ele>
        <time>2022-10-19T07:06:21.000Z</time>
      </trkpt>
      <trkpt lat="43.53343" lon="5.63693">
        <ele>568</ele>
        <time>2022-10-19T07:06:22.000Z</time>
      </trkpt>
      <trkpt lat="43.53342" lon="5.63694">
        <ele>568</ele>
        <time>2022-10-19T07:06:23.000Z</time>
      </trkpt>
      <trkpt lat="43.53342" lon="5.63694">
        <ele>568</ele>
        <time>2022-10-19T07:06:24.000Z</time>
      </trkpt>
      <trkpt lat="43.53342" lon="5.63694">
        <ele>569</ele>
        <time>2022-10-19T07:06:25.000Z</time>
      </trkpt>
      <trkpt lat="43.53342" lon="5.63694">
        <ele>569</ele>
        <time>2022-10-19T07:06:26.000Z</time>
      </trkpt>
      <trkpt lat="43.53342" lon="5.63695">
        <ele>569</ele>
        <time>2022-10-19T07:06:27.000Z</time>
      </trkpt>
      <trkpt lat="43.53342" lon="5.63695">
        <ele>569</ele>
        <time>2022-10-19T07:06:28.000Z</time>
      </trkpt>
      <trkpt lat="43.53342" lon="5.63695">
        <ele>569</ele>
        <time>2022-10-19T07:06:29.000Z</time>
      </trkpt>
      <trkpt lat="43.53342" lon="5.63695">
        <ele>569</ele>
        <time>2022-10-19T07:06:30.000Z</time>
      </trkpt>
      <trkpt lat="43.53342" lon="5.63696">
        <ele>570</ele>
        <time>2022-10-19T07:06:31.000Z</time>
      </trkpt>
      <trkpt lat="43.53342" lon="5.63697">
        <ele>570</ele>
        <time>2022-10-19T07:06:32.000Z</time>
      </trkpt>
      <trkpt lat="43.53342" lon="5.63698">
        <ele>570</ele>
        <time>2022-10-19T07:06:33.000Z</time>
      </trkpt>
      <trkpt lat="43.53342" lon="5.63699">
        <ele>570</ele>
        <time>2022-10-19T07:06:34.000Z</time>
      </trkpt>
      <trkpt lat="43.53342" lon="5.637">
        <ele>570</ele>
        <time>2022-10-19T07:06:35.000Z</time>
      </trkpt>
      <trkpt lat="43.53342" lon="5.637">
        <ele>570</ele>
        <time>2022-10-19T07:06:36.000Z</time>
      </trkpt>
      <trkpt lat="43.53341" lon="5.637">
        <ele>570</ele>
        <time>2022-10-19T07:06:37.000Z</time>
      </trkpt>
      <trkpt lat="43.53341" lon="5.637">
        <ele>571</ele>
        <time>2022-10-19T07:06:38.000Z</time>
      </trkpt>
      <trkpt lat="43.53341" lon="5.637">
        <ele>571</ele>
        <time>2022-10-19T07:06:39.000Z</time>
      </trkpt>
      <trkpt lat="43.53341" lon="5.637">
        <ele>571</ele>
        <time>2022-10-19T07:06:40.000Z</time>
      </trkpt>
      <trkpt lat="43.53341" lon="5.63701">
        <ele>571</ele>
        <time>2022-10-19T07:06:41.000Z</time>
      </trkpt>
      <trkpt lat="43.53341" lon="5.63701">
        <ele>571</ele>
        <time>2022-10-19T07:06:42.000Z</time>
      </trkpt>
      <trkpt lat="43.53341" lon="5.63701">
        <ele>571</ele>
        <time>2022-10-19T07:06:43.000Z</time>
      </trkpt>
      <trkpt lat="43.53341" lon="5.63701">
        <ele>571</ele>
        <time>2022-10-19T07:06:44.000Z</time>
      </trkpt>
      <trkpt lat="43.53341" lon="5.63701">
        <ele>571</ele>
        <time>2022-10-19T07:06:45.000Z</time>
      </trkpt>
      <trkpt lat="43.53341" lon="5.63701">
        <ele>571</ele>
        <time>2022-10-19T07:06:46.000Z</time>
      </trkpt>
      <trkpt lat="43.5334" lon="5.63701">
        <ele>571</ele>
        <time>2022-10-19T07:06:47.000Z</time>
      </trkpt>
      <trkpt lat="43.5334" lon="5.63701">
        <ele>571</ele>
        <time>2022-10-19T07:06:48.000Z</time>
      </trkpt>
      <trkpt lat="43.5334" lon="5.63701">
        <ele>572</ele>
        <time>2022-10-19T07:06:49.000Z</time>
      </trkpt>
      <trkpt lat="43.5334" lon="5.63701">
        <ele>572</ele>
        <time>2022-10-19T07:06:50.000Z</time>
      </trkpt>
      <trkpt lat="43.5334" lon="5.63701">
        <ele>572</ele>
        <time>2022-10-19T07:06:51.000Z</time>
      </trkpt>
      <trkpt lat="43.5334" lon="5.63701">
        <ele>572</ele>
        <time>2022-10-19T07:06:52.000Z</time>
      </trkpt>
      <trkpt lat="43.5334" lon="5.63701">
        <ele>572</ele>
        <time>2022-10-19T07:06:53.000Z</time>
      </trkpt>
      <trkpt lat="43.5334" lon="5.63701">
        <ele>572</ele>
        <time>2022-10-19T07:06:54.000Z</time>
      </trkpt>
      <trkpt lat="43.5334" lon="5.63702">
        <ele>572</ele>
        <time>2022-10-19T07:06:55.000Z</time>
      </trkpt>
      <trkpt lat="43.5334" lon="5.63702">
        <ele>572</ele>
        <time>2022-10-19T07:06:56.000Z</time>
      </trkpt>
      <trkpt lat="43.5334" lon="5.63702">
        <ele>572</ele>
        <time>2022-10-19T07:06:57.000Z</time>
      </trkpt>
      <trkpt lat="43.5334" lon="5.63702">
        <ele>572</ele>
        <time>2022-10-19T07:06:58.000Z</time>
      </trkpt>
      <trkpt lat="43.53339" lon="5.63702">
        <ele>572</ele>
        <time>2022-10-19T07:06:59.000Z</time>
      </trkpt>
      <trkpt lat="43.53339" lon="5.63702">
        <ele>572</ele>
        <time>2022-10-19T07:07:00.000Z</time>
      </trkpt>
      <trkpt lat="43.53339" lon="5.63702">
        <ele>573</ele>
        <time>2022-10-19T07:07:01.000Z</time>
      </trkpt>
      <trkpt lat="43.53339" lon="5.63702">
        <ele>573</ele>
        <time>2022-10-19T07:07:02.000Z</time>
      </trkpt>
      <trkpt lat="43.53339" lon="5.63702">
        <ele>573</ele>
        <time>2022-10-19T07:07:03.000Z</time>
      </trkpt>
      <trkpt lat="43.53339" lon="5.63703">
        <ele>573</ele>
        <time>2022-10-19T07:07:04.000Z</time>
      </trkpt>
      <trkpt lat="43.53339" lon="5.63703">
        <ele>573</ele>
        <time>2022-10-19T07:07:05.000Z</time>
      </trkpt>
      <trkpt lat="43.53339" lon="5.63703">
        <ele>573</ele>
        <time>2022-10-19T07:07:06.000Z</time>
      </trkpt>
      <trkpt lat="43.53339" lon="5.63703">
        <ele>573</ele>
        <time>2022-10-19T07:07:07.000Z</time>
      </trkpt>
      <trkpt lat="43.53339" lon="5.63703">
        <ele>573</ele>
        <time>2022-10-19T07:07:08.000Z</time>
      </trkpt>
      <trkpt lat="43.53339" lon="5.63704">
        <ele>573</ele>
        <time>2022-10-19T07:07:09.000Z</time>
      </trkpt>
      <trkpt lat="43.53339" lon="5.63705">
        <ele>573</ele>
        <time>2022-10-19T07:07:10.000Z</time>
      </trkpt>
      <trkpt lat="43.53339" lon="5.63706">
        <ele>573</ele>
        <time>2022-10-19T07:07:11.000Z</time>
      </trkpt>
      <trkpt lat="43.53339" lon="5.63707">
        <ele>573</ele>
        <time>2022-10-19T07:07:12.000Z</time>
      </trkpt>
      <trkpt lat="43.5334" lon="5.63708">
        <ele>573</ele>
        <time>2022-10-19T07:07:13.000Z</time>
      </trkpt>
      <trkpt lat="43.5334" lon="5.63709">
        <ele>573</ele>
        <time>2022-10-19T07:07:14.000Z</time>
      </trkpt>
      <trkpt lat="43.5334" lon="5.6371">
        <ele>574</ele>
        <time>2022-10-19T07:07:15.000Z</time>
      </trkpt>
      <trkpt lat="43.5334" lon="5.63711">
        <ele>574</ele>
        <time>2022-10-19T07:07:16.000Z</time>
      </trkpt>
      <trkpt lat="43.53341" lon="5.63712">
        <ele>574</ele>
        <time>2022-10-19T07:07:17.000Z</time>
      </trkpt>
      <trkpt lat="43.53341" lon="5.63713">
        <ele>574</ele>
        <time>2022-10-19T07:07:18.000Z</time>
      </trkpt>
      <trkpt lat="43.53341" lon="5.63713">
        <ele>574</ele>
        <time>2022-10-19T07:07:19.000Z</time>
      </trkpt>
      <trkpt lat="43.53341" lon="5.63714">
        <ele>574</ele>
        <time>2022-10-19T07:07:20.000Z</time>
      </trkpt>
      <trkpt lat="43.53341" lon="5.63715">
        <ele>574</ele>
        <time>2022-10-19T07:07:21.000Z</time>
      </trkpt>
      <trkpt lat="43.53342" lon="5.63716">
        <ele>574</ele>
        <time>2022-10-19T07:07:22.000Z</time>
      </trkpt>
      <trkpt lat="43.53342" lon="5.63716">
        <ele>574</ele>
        <time>2022-10-19T07:07:23.000Z</time>
      </trkpt>
      <trkpt lat="43.53343" lon="5.63717">
        <ele>574</ele>
        <time>2022-10-19T07:07:24.000Z</time>
      </trkpt>
      <trkpt lat="43.53343" lon="5.63718">
        <ele>575</ele>
        <time>2022-10-19T07:07:25.000Z</time>
      </trkpt>
      <trkpt lat="43.53343" lon="5.63719">
        <ele>575</ele>
        <time>2022-10-19T07:07:26.000Z</time>
      </trkpt>
      <trkpt lat="43.53344" lon="5.6372">
        <ele>575</ele>
        <time>2022-10-19T07:07:27.000Z</time>
      </trkpt>
      <trkpt lat="43.53344" lon="5.6372">
        <ele>575</ele>
        <time>2022-10-19T07:07:28.000Z</time>
      </trkpt>
      <trkpt lat="43.53345" lon="5.63721">
        <ele>575</ele>
        <time>2022-10-19T07:07:29.000Z</time>
      </trkpt>
      <trkpt lat="43.53345" lon="5.63721">
        <ele>575</ele>
        <time>2022-10-19T07:07:30.000Z</time>
      </trkpt>
      <trkpt lat="43.53346" lon="5.63722">
        <ele>575</ele>
        <time>2022-10-19T07:07:31.000Z</time>
      </trkpt>
      <trkpt lat="43.53346" lon="5.63723">
        <ele>575</ele>
        <time>2022-10-19T07:07:32.000Z</time>
      </trkpt>
      <trkpt lat="43.53347" lon="5.63724">
        <ele>575</ele>
        <time>2022-10-19T07:07:33.000Z</time>
      </trkpt>
      <trkpt lat="43.53347" lon="5.63725">
        <ele>575</ele>
        <time>2022-10-19T07:07:34.000Z</time>
      </trkpt>
      <trkpt lat="43.53347" lon="5.63726">
        <ele>575</ele>
        <time>2022-10-19T07:07:35.000Z</time>
      </trkpt>
      <trkpt lat="43.53348" lon="5.63727">
        <ele>575</ele>
        <time>2022-10-19T07:07:36.000Z</time>
      </trkpt>
      <trkpt lat="43.53348" lon="5.63728">
        <ele>575</ele>
        <time>2022-10-19T07:07:37.000Z</time>
      </trkpt>
      <trkpt lat="43.53348" lon="5.63729">
        <ele>575</ele>
        <time>2022-10-19T07:07:38.000Z</time>
      </trkpt>
      <trkpt lat="43.53348" lon="5.6373">
        <ele>575</ele>
        <time>2022-10-19T07:07:39.000Z</time>
      </trkpt>
      <trkpt lat="43.53348" lon="5.63731">
        <ele>576</ele>
        <time>2022-10-19T07:07:40.000Z</time>
      </trkpt>
      <trkpt lat="43.53348" lon="5.63732">
        <ele>576</ele>
        <time>2022-10-19T07:07:41.000Z</time>
      </trkpt>
      <trkpt lat="43.53348" lon="5.63732">
        <ele>576</ele>
        <time>2022-10-19T07:07:42.000Z</time>
      </trkpt>
      <trkpt lat="43.53349" lon="5.63733">
        <ele>576</ele>
        <time>2022-10-19T07:07:43.000Z</time>
      </trkpt>
      <trkpt lat="43.53349" lon="5.63734">
        <ele>576</ele>
        <time>2022-10-19T07:07:44.000Z</time>
      </trkpt>
      <trkpt lat="43.53349" lon="5.63735">
        <ele>576</ele>
        <time>2022-10-19T07:07:45.000Z</time>
      </trkpt>
      <trkpt lat="43.53349" lon="5.63736">
        <ele>576</ele>
        <time>2022-10-19T07:07:46.000Z</time>
      </trkpt>
      <trkpt lat="43.53349" lon="5.63737">
        <ele>577</ele>
        <time>2022-10-19T07:07:47.000Z</time>
      </trkpt>
      <trkpt lat="43.53349" lon="5.63738">
        <ele>577</ele>
        <time>2022-10-19T07:07:48.000Z</time>
      </trkpt>
      <trkpt lat="43.5335" lon="5.63739">
        <ele>577</ele>
        <time>2022-10-19T07:07:49.000Z</time>
      </trkpt>
      <trkpt lat="43.5335" lon="5.6374">
        <ele>577</ele>
        <time>2022-10-19T07:07:50.000Z</time>
      </trkpt>
      <trkpt lat="43.5335" lon="5.63741">
        <ele>577</ele>
        <time>2022-10-19T07:07:51.000Z</time>
      </trkpt>
      <trkpt lat="43.5335" lon="5.63742">
        <ele>577</ele>
        <time>2022-10-19T07:07:52.000Z</time>
      </trkpt>
      <trkpt lat="43.5335" lon="5.63743">
        <ele>577</ele>
        <time>2022-10-19T07:07:53.000Z</time>
      </trkpt>
      <trkpt lat="43.53351" lon="5.63743">
        <ele>577</ele>
        <time>2022-10-19T07:07:54.000Z</time>
      </trkpt>
      <trkpt lat="43.53351" lon="5.63744">
        <ele>578</ele>
        <time>2022-10-19T07:07:55.000Z</time>
      </trkpt>
      <trkpt lat="43.53351" lon="5.63745">
        <ele>578</ele>
        <time>2022-10-19T07:07:56.000Z</time>
      </trkpt>
      <trkpt lat="43.53352" lon="5.63746">
        <ele>578</ele>
        <time>2022-10-19T07:07:57.000Z</time>
      </trkpt>
      <trkpt lat="43.53352" lon="5.63747">
        <ele>578</ele>
        <time>2022-10-19T07:07:58.000Z</time>
      </trkpt>
      <trkpt lat="43.53352" lon="5.63748">
        <ele>578</ele>
        <time>2022-10-19T07:07:59.000Z</time>
      </trkpt>
      <trkpt lat="43.53352" lon="5.63748">
        <ele>578</ele>
        <time>2022-10-19T07:08:00.000Z</time>
      </trkpt>
      <trkpt lat="43.53352" lon="5.63749">
        <ele>578</ele>
        <time>2022-10-19T07:08:01.000Z</time>
      </trkpt>
      <trkpt lat="43.53353" lon="5.6375">
        <ele>578</ele>
        <time>2022-10-19T07:08:02.000Z</time>
      </trkpt>
      <trkpt lat="43.53353" lon="5.6375">
        <ele>579</ele>
        <time>2022-10-19T07:08:03.000Z</time>
      </trkpt>
      <trkpt lat="43.53353" lon="5.63751">
        <ele>579</ele>
        <time>2022-10-19T07:08:04.000Z</time>
      </trkpt>
      <trkpt lat="43.53353" lon="5.63751">
        <ele>579</ele>
        <time>2022-10-19T07:08:05.000Z</time>
      </trkpt>
      <trkpt lat="43.53354" lon="5.63751">
        <ele>579</ele>
        <time>2022-10-19T07:08:06.000Z</time>
      </trkpt>
      <trkpt lat="43.53354" lon="5.6375">
        <ele>579</ele>
        <time>2022-10-19T07:08:07.000Z</time>
      </trkpt>
      <trkpt lat="43.53355" lon="5.6375">
        <ele>579</ele>
        <time>2022-10-19T07:08:08.000Z</time>
      </trkpt>
      <trkpt lat="43.53355" lon="5.6375">
        <ele>579</ele>
        <time>2022-10-19T07:08:09.000Z</time>
      </trkpt>
      <trkpt lat="43.53355" lon="5.63749">
        <ele>579</ele>
        <time>2022-10-19T07:08:10.000Z</time>
      </trkpt>
      <trkpt lat="43.53355" lon="5.63749">
        <ele>579</ele>
        <time>2022-10-19T07:08:11.000Z</time>
      </trkpt>
      <trkpt lat="43.53356" lon="5.63748">
        <ele>579</ele>
        <time>2022-10-19T07:08:12.000Z</time>
      </trkpt>
      <trkpt lat="43.53356" lon="5.63748">
        <ele>579</ele>
        <time>2022-10-19T07:08:13.000Z</time>
      </trkpt>
      <trkpt lat="43.53356" lon="5.63747">
        <ele>579</ele>
        <time>2022-10-19T07:08:14.000Z</time>
      </trkpt>
      <trkpt lat="43.53356" lon="5.63747">
        <ele>579</ele>
        <time>2022-10-19T07:08:15.000Z</time>
      </trkpt>
      <trkpt lat="43.53356" lon="5.63746">
        <ele>579</ele>
        <time>2022-10-19T07:08:16.000Z</time>
      </trkpt>
      <trkpt lat="43.53356" lon="5.63746">
        <ele>580</ele>
        <time>2022-10-19T07:08:17.000Z</time>
      </trkpt>
      <trkpt lat="43.53355" lon="5.63745">
        <ele>580</ele>
        <time>2022-10-19T07:08:18.000Z</time>
      </trkpt>
      <trkpt lat="43.53355" lon="5.63745">
        <ele>580</ele>
        <time>2022-10-19T07:08:19.000Z</time>
      </trkpt>
      <trkpt lat="43.53355" lon="5.63744">
        <ele>580</ele>
        <time>2022-10-19T07:08:20.000Z</time>
      </trkpt>
      <trkpt lat="43.53355" lon="5.63743">
        <ele>581</ele>
        <time>2022-10-19T07:08:21.000Z</time>
      </trkpt>
      <trkpt lat="43.53355" lon="5.63743">
        <ele>581</ele>
        <time>2022-10-19T07:08:22.000Z</time>
      </trkpt>
      <trkpt lat="43.53355" lon="5.63743">
        <ele>581</ele>
        <time>2022-10-19T07:08:23.000Z</time>
      </trkpt>
      <trkpt lat="43.53355" lon="5.63742">
        <ele>581</ele>
        <time>2022-10-19T07:08:24.000Z</time>
      </trkpt>
      <trkpt lat="43.53355" lon="5.63742">
        <ele>581</ele>
        <time>2022-10-19T07:08:25.000Z</time>
      </trkpt>
      <trkpt lat="43.53355" lon="5.63742">
        <ele>581</ele>
        <time>2022-10-19T07:08:26.000Z</time>
      </trkpt>
      <trkpt lat="43.53355" lon="5.63741">
        <ele>582</ele>
        <time>2022-10-19T07:08:27.000Z</time>
      </trkpt>
      <trkpt lat="43.53356" lon="5.63741">
        <ele>582</ele>
        <time>2022-10-19T07:08:28.000Z</time>
      </trkpt>
      <trkpt lat="43.53356" lon="5.6374">
        <ele>582</ele>
        <time>2022-10-19T07:08:29.000Z</time>
      </trkpt>
      <trkpt lat="43.53356" lon="5.63739">
        <ele>582</ele>
        <time>2022-10-19T07:08:30.000Z</time>
      </trkpt>
      <trkpt lat="43.53356" lon="5.63739">
        <ele>582</ele>
        <time>2022-10-19T07:08:31.000Z</time>
      </trkpt>
      <trkpt lat="43.53356" lon="5.63738">
        <ele>582</ele>
        <time>2022-10-19T07:08:32.000Z</time>
      </trkpt>
      <trkpt lat="43.53357" lon="5.63737">
        <ele>582</ele>
        <time>2022-10-19T07:08:33.000Z</time>
      </trkpt>
      <trkpt lat="43.53357" lon="5.63737">
        <ele>583</ele>
        <time>2022-10-19T07:08:34.000Z</time>
      </trkpt>
      <trkpt lat="43.53357" lon="5.63736">
        <ele>583</ele>
        <time>2022-10-19T07:08:35.000Z</time>
      </trkpt>
      <trkpt lat="43.53357" lon="5.63735">
        <ele>583</ele>
        <time>2022-10-19T07:08:36.000Z</time>
      </trkpt>
      <trkpt lat="43.53357" lon="5.63734">
        <ele>583</ele>
        <time>2022-10-19T07:08:37.000Z</time>
      </trkpt>
      <trkpt lat="43.53356" lon="5.63733">
        <ele>583</ele>
        <time>2022-10-19T07:08:38.000Z</time>
      </trkpt>
      <trkpt lat="43.53356" lon="5.63732">
        <ele>583</ele>
        <time>2022-10-19T07:08:39.000Z</time>
      </trkpt>
      <trkpt lat="43.53356" lon="5.63731">
        <ele>583</ele>
        <time>2022-10-19T07:08:40.000Z</time>
      </trkpt>
      <trkpt lat="43.53356" lon="5.6373">
        <ele>583</ele>
        <time>2022-10-19T07:08:41.000Z</time>
      </trkpt>
      <trkpt lat="43.53355" lon="5.63729">
        <ele>584</ele>
        <time>2022-10-19T07:08:42.000Z</time>
      </trkpt>
      <trkpt lat="43.53356" lon="5.63727">
        <ele>584</ele>
        <time>2022-10-19T07:08:43.000Z</time>
      </trkpt>
      <trkpt lat="43.53356" lon="5.63726">
        <ele>584</ele>
        <time>2022-10-19T07:08:44.000Z</time>
      </trkpt>
      <trkpt lat="43.53356" lon="5.63725">
        <ele>584</ele>
        <time>2022-10-19T07:08:45.000Z</time>
      </trkpt>
      <trkpt lat="43.53355" lon="5.63724">
        <ele>584</ele>
        <time>2022-10-19T07:08:46.000Z</time>
      </trkpt>
      <trkpt lat="43.53355" lon="5.63723">
        <ele>584</ele>
        <time>2022-10-19T07:08:47.000Z</time>
      </trkpt>
      <trkpt lat="43.53355" lon="5.63722">
        <ele>584</ele>
        <time>2022-10-19T07:08:48.000Z</time>
      </trkpt>
      <trkpt lat="43.53355" lon="5.63721">
        <ele>585</ele>
        <time>2022-10-19T07:08:49.000Z</time>
      </trkpt>
      <trkpt lat="43.53355" lon="5.6372">
        <ele>585</ele>
        <time>2022-10-19T07:08:50.000Z</time>
      </trkpt>
      <trkpt lat="43.53355" lon="5.63719">
        <ele>585</ele>
        <time>2022-10-19T07:08:51.000Z</time>
      </trkpt>
      <trkpt lat="43.53355" lon="5.63717">
        <ele>585</ele>
        <time>2022-10-19T07:08:52.000Z</time>
      </trkpt>
      <trkpt lat="43.53355" lon="5.63717">
        <ele>585</ele>
        <time>2022-10-19T07:08:53.000Z</time>
      </trkpt>
      <trkpt lat="43.53355" lon="5.63716">
        <ele>585</ele>
        <time>2022-10-19T07:08:54.000Z</time>
      </trkpt>
      <trkpt lat="43.53355" lon="5.63715">
        <ele>586</ele>
        <time>2022-10-19T07:08:55.000Z</time>
      </trkpt>
      <trkpt lat="43.53355" lon="5.63714">
        <ele>586</ele>
        <time>2022-10-19T07:08:56.000Z</time>
      </trkpt>
      <trkpt lat="43.53355" lon="5.63713">
        <ele>586</ele>
        <time>2022-10-19T07:08:57.000Z</time>
      </trkpt>
      <trkpt lat="43.53355" lon="5.63712">
        <ele>586</ele>
        <time>2022-10-19T07:08:58.000Z</time>
      </trkpt>
      <trkpt lat="43.53355" lon="5.63711">
        <ele>586</ele>
        <time>2022-10-19T07:08:59.000Z</time>
      </trkpt>
      <trkpt lat="43.53355" lon="5.63711">
        <ele>587</ele>
        <time>2022-10-19T07:09:00.000Z</time>
      </trkpt>
      <trkpt lat="43.53355" lon="5.6371">
        <ele>587</ele>
        <time>2022-10-19T07:09:01.000Z</time>
      </trkpt>
      <trkpt lat="43.53355" lon="5.63709">
        <ele>587</ele>
        <time>2022-10-19T07:09:02.000Z</time>
      </trkpt>
      <trkpt lat="43.53355" lon="5.63708">
        <ele>587</ele>
        <time>2022-10-19T07:09:03.000Z</time>
      </trkpt>
      <trkpt lat="43.53355" lon="5.63707">
        <ele>587</ele>
        <time>2022-10-19T07:09:04.000Z</time>
      </trkpt>
      <trkpt lat="43.53355" lon="5.63706">
        <ele>587</ele>
        <time>2022-10-19T07:09:05.000Z</time>
      </trkpt>
      <trkpt lat="43.53355" lon="5.63705">
        <ele>587</ele>
        <time>2022-10-19T07:09:06.000Z</time>
      </trkpt>
      <trkpt lat="43.53355" lon="5.63705">
        <ele>587</ele>
        <time>2022-10-19T07:09:07.000Z</time>
      </trkpt>
      <trkpt lat="43.53355" lon="5.63704">
        <ele>588</ele>
        <time>2022-10-19T07:09:08.000Z</time>
      </trkpt>
      <trkpt lat="43.53355" lon="5.63703">
        <ele>588</ele>
        <time>2022-10-19T07:09:09.000Z</time>
      </trkpt>
      <trkpt lat="43.53355" lon="5.63702">
        <ele>588</ele>
        <time>2022-10-19T07:09:10.000Z</time>
      </trkpt>
      <trkpt lat="43.53355" lon="5.63701">
        <ele>588</ele>
        <time>2022-10-19T07:09:11.000Z</time>
      </trkpt>
      <trkpt lat="43.53355" lon="5.637">
        <ele>588</ele>
        <time>2022-10-19T07:09:12.000Z</time>
      </trkpt>
      <trkpt lat="43.53355" lon="5.637">
        <ele>588</ele>
        <time>2022-10-19T07:09:13.000Z</time>
      </trkpt>
      <trkpt lat="43.53355" lon="5.63699">
        <ele>588</ele>
        <time>2022-10-19T07:09:14.000Z</time>
      </trkpt>
      <trkpt lat="43.53355" lon="5.63698">
        <ele>588</ele>
        <time>2022-10-19T07:09:15.000Z</time>
      </trkpt>
      <trkpt lat="43.53355" lon="5.63697">
        <ele>588</ele>
        <time>2022-10-19T07:09:16.000Z</time>
      </trkpt>
      <trkpt lat="43.53355" lon="5.63696">
        <ele>589</ele>
        <time>2022-10-19T07:09:17.000Z</time>
      </trkpt>
      <trkpt lat="43.53355" lon="5.63695">
        <ele>589</ele>
        <time>2022-10-19T07:09:18.000Z</time>
      </trkpt>
      <trkpt lat="43.53355" lon="5.63694">
        <ele>589</ele>
        <time>2022-10-19T07:09:19.000Z</time>
      </trkpt>
      <trkpt lat="43.53355" lon="5.63693">
        <ele>589</ele>
        <time>2022-10-19T07:09:20.000Z</time>
      </trkpt>
      <trkpt lat="43.53355" lon="5.63692">
        <ele>589</ele>
        <time>2022-10-19T07:09:21.000Z</time>
      </trkpt>
      <trkpt lat="43.53355" lon="5.63692">
        <ele>589</ele>
        <time>2022-10-19T07:09:22.000Z</time>
      </trkpt>
      <trkpt lat="43.53355" lon="5.63691">
        <ele>589</ele>
        <time>2022-10-19T07:09:23.000Z</time>
      </trkpt>
      <trkpt lat="43.53355" lon="5.6369">
        <ele>589</ele>
        <time>2022-10-19T07:09:24.000Z</time>
      </trkpt>
      <trkpt lat="43.53355" lon="5.63689">
        <ele>590</ele>
        <time>2022-10-19T07:09:25.000Z</time>
      </trkpt>
      <trkpt lat="43.53354" lon="5.63688">
        <ele>590</ele>
        <time>2022-10-19T07:09:26.000Z</time>
      </trkpt>
      <trkpt lat="43.53354" lon="5.63687">
        <ele>590</ele>
        <time>2022-10-19T07:09:27.000Z</time>
      </trkpt>
      <trkpt lat="43.53355" lon="5.63686">
        <ele>590</ele>
        <time>2022-10-19T07:09:28.000Z</time>
      </trkpt>
      <trkpt lat="43.53354" lon="5.63685">
        <ele>590</ele>
        <time>2022-10-19T07:09:29.000Z</time>
      </trkpt>
      <trkpt lat="43.53355" lon="5.63684">
        <ele>590</ele>
        <time>2022-10-19T07:09:30.000Z</time>
      </trkpt>
      <trkpt lat="43.53355" lon="5.63684">
        <ele>591</ele>
        <time>2022-10-19T07:09:31.000Z</time>
      </trkpt>
      <trkpt lat="43.53355" lon="5.63683">
        <ele>591</ele>
        <time>2022-10-19T07:09:32.000Z</time>
      </trkpt>
      <trkpt lat="43.53355" lon="5.63682">
        <ele>591</ele>
        <time>2022-10-19T07:09:33.000Z</time>
      </trkpt>
      <trkpt lat="43.53355" lon="5.63682">
        <ele>591</ele>
        <time>2022-10-19T07:09:34.000Z</time>
      </trkpt>
      <trkpt lat="43.53355" lon="5.63681">
        <ele>591</ele>
        <time>2022-10-19T07:09:35.000Z</time>
      </trkpt>
      <trkpt lat="43.53355" lon="5.63681">
        <ele>591</ele>
        <time>2022-10-19T07:09:36.000Z</time>
      </trkpt>
      <trkpt lat="43.53355" lon="5.6368">
        <ele>591</ele>
        <time>2022-10-19T07:09:37.000Z</time>
      </trkpt>
      <trkpt lat="43.53355" lon="5.63679">
        <ele>592</ele>
        <time>2022-10-19T07:09:38.000Z</time>
      </trkpt>
      <trkpt lat="43.53355" lon="5.63678">
        <ele>592</ele>
        <time>2022-10-19T07:09:39.000Z</time>
      </trkpt>
      <trkpt lat="43.53355" lon="5.63677">
        <ele>592</ele>
        <time>2022-10-19T07:09:40.000Z</time>
      </trkpt>
      <trkpt lat="43.53354" lon="5.63677">
        <ele>592</ele>
        <time>2022-10-19T07:09:41.000Z</time>
      </trkpt>
      <trkpt lat="43.53354" lon="5.63676">
        <ele>592</ele>
        <time>2022-10-19T07:09:42.000Z</time>
      </trkpt>
      <trkpt lat="43.53354" lon="5.63675">
        <ele>592</ele>
        <time>2022-10-19T07:09:43.000Z</time>
      </trkpt>
      <trkpt lat="43.53354" lon="5.63674">
        <ele>593</ele>
        <time>2022-10-19T07:09:44.000Z</time>
      </trkpt>
      <trkpt lat="43.53354" lon="5.63673">
        <ele>593</ele>
        <time>2022-10-19T07:09:45.000Z</time>
      </trkpt>
      <trkpt lat="43.53355" lon="5.63672">
        <ele>593</ele>
        <time>2022-10-19T07:09:46.000Z</time>
      </trkpt>
      <trkpt lat="43.53355" lon="5.63672">
        <ele>593</ele>
        <time>2022-10-19T07:09:47.000Z</time>
      </trkpt>
      <trkpt lat="43.53355" lon="5.63671">
        <ele>593</ele>
        <time>2022-10-19T07:09:48.000Z</time>
      </trkpt>
      <trkpt lat="43.53356" lon="5.63671">
        <ele>593</ele>
        <time>2022-10-19T07:09:49.000Z</time>
      </trkpt>
      <trkpt lat="43.53356" lon="5.6367">
        <ele>593</ele>
        <time>2022-10-19T07:09:50.000Z</time>
      </trkpt>
      <trkpt lat="43.53356" lon="5.63669">
        <ele>594</ele>
        <time>2022-10-19T07:09:51.000Z</time>
      </trkpt>
      <trkpt lat="43.53356" lon="5.63668">
        <ele>594</ele>
        <time>2022-10-19T07:09:52.000Z</time>
      </trkpt>
      <trkpt lat="43.53356" lon="5.63667">
        <ele>594</ele>
        <time>2022-10-19T07:09:53.000Z</time>
      </trkpt>
      <trkpt lat="43.53355" lon="5.63666">
        <ele>594</ele>
        <time>2022-10-19T07:09:54.000Z</time>
      </trkpt>
      <trkpt lat="43.53355" lon="5.63665">
        <ele>594</ele>
        <time>2022-10-19T07:09:55.000Z</time>
      </trkpt>
      <trkpt lat="43.53355" lon="5.63664">
        <ele>595</ele>
        <time>2022-10-19T07:09:56.000Z</time>
      </trkpt>
      <trkpt lat="43.53355" lon="5.63662">
        <ele>595</ele>
        <time>2022-10-19T07:09:57.000Z</time>
      </trkpt>
      <trkpt lat="43.53355" lon="5.63662">
        <ele>595</ele>
        <time>2022-10-19T07:09:58.000Z</time>
      </trkpt>
      <trkpt lat="43.53355" lon="5.63661">
        <ele>595</ele>
        <time>2022-10-19T07:09:59.000Z</time>
      </trkpt>
      <trkpt lat="43.53355" lon="5.63659">
        <ele>595</ele>
        <time>2022-10-19T07:10:00.000Z</time>
      </trkpt>
      <trkpt lat="43.53355" lon="5.63659">
        <ele>595</ele>
        <time>2022-10-19T07:10:01.000Z</time>
      </trkpt>
      <trkpt lat="43.53355" lon="5.63658">
        <ele>595</ele>
        <time>2022-10-19T07:10:02.000Z</time>
      </trkpt>
      <trkpt lat="43.53355" lon="5.63657">
        <ele>595</ele>
        <time>2022-10-19T07:10:03.000Z</time>
      </trkpt>
      <trkpt lat="43.53355" lon="5.63656">
        <ele>595</ele>
        <time>2022-10-19T07:10:04.000Z</time>
      </trkpt>
      <trkpt lat="43.53356" lon="5.63656">
        <ele>595</ele>
        <time>2022-10-19T07:10:05.000Z</time>
      </trkpt>
      <trkpt lat="43.53357" lon="5.63656">
        <ele>595</ele>
        <time>2022-10-19T07:10:06.000Z</time>
      </trkpt>
      <trkpt lat="43.53357" lon="5.63656">
        <ele>595</ele>
        <time>2022-10-19T07:10:07.000Z</time>
      </trkpt>
      <trkpt lat="43.53358" lon="5.63656">
        <ele>596</ele>
        <time>2022-10-19T07:10:08.000Z</time>
      </trkpt>
      <trkpt lat="43.53358" lon="5.63657">
        <ele>596</ele>
        <time>2022-10-19T07:10:09.000Z</time>
      </trkpt>
      <trkpt lat="43.53359" lon="5.63657">
        <ele>596</ele>
        <time>2022-10-19T07:10:10.000Z</time>
      </trkpt>
      <trkpt lat="43.53359" lon="5.63658">
        <ele>596</ele>
        <time>2022-10-19T07:10:11.000Z</time>
      </trkpt>
      <trkpt lat="43.53359" lon="5.63659">
        <ele>596</ele>
        <time>2022-10-19T07:10:12.000Z</time>
      </trkpt>
      <trkpt lat="43.5336" lon="5.63659">
        <ele>596</ele>
        <time>2022-10-19T07:10:13.000Z</time>
      </trkpt>
      <trkpt lat="43.5336" lon="5.6366">
        <ele>596</ele>
        <time>2022-10-19T07:10:14.000Z</time>
      </trkpt>
      <trkpt lat="43.5336" lon="5.6366">
        <ele>596</ele>
        <time>2022-10-19T07:10:15.000Z</time>
      </trkpt>
      <trkpt lat="43.5336" lon="5.63661">
        <ele>596</ele>
        <time>2022-10-19T07:10:16.000Z</time>
      </trkpt>
      <trkpt lat="43.53361" lon="5.63662">
        <ele>596</ele>
        <time>2022-10-19T07:10:17.000Z</time>
      </trkpt>
      <trkpt lat="43.53361" lon="5.63663">
        <ele>596</ele>
        <time>2022-10-19T07:10:18.000Z</time>
      </trkpt>
      <trkpt lat="43.53361" lon="5.63664">
        <ele>596</ele>
        <time>2022-10-19T07:10:19.000Z</time>
      </trkpt>
      <trkpt lat="43.53361" lon="5.63665">
        <ele>596</ele>
        <time>2022-10-19T07:10:20.000Z</time>
      </trkpt>
      <trkpt lat="43.53362" lon="5.63666">
        <ele>596</ele>
        <time>2022-10-19T07:10:21.000Z</time>
      </trkpt>
      <trkpt lat="43.53362" lon="5.63667">
        <ele>596</ele>
        <time>2022-10-19T07:10:22.000Z</time>
      </trkpt>
      <trkpt lat="43.53362" lon="5.63668">
        <ele>596</ele>
        <time>2022-10-19T07:10:23.000Z</time>
      </trkpt>
      <trkpt lat="43.53362" lon="5.63669">
        <ele>596</ele>
        <time>2022-10-19T07:10:24.000Z</time>
      </trkpt>
      <trkpt lat="43.53362" lon="5.63669">
        <ele>596</ele>
        <time>2022-10-19T07:10:25.000Z</time>
      </trkpt>
      <trkpt lat="43.53363" lon="5.6367">
        <ele>597</ele>
        <time>2022-10-19T07:10:26.000Z</time>
      </trkpt>
      <trkpt lat="43.53363" lon="5.63672">
        <ele>597</ele>
        <time>2022-10-19T07:10:27.000Z</time>
      </trkpt>
      <trkpt lat="43.53363" lon="5.63672">
        <ele>597</ele>
        <time>2022-10-19T07:10:28.000Z</time>
      </trkpt>
      <trkpt lat="43.53363" lon="5.63673">
        <ele>597</ele>
        <time>2022-10-19T07:10:29.000Z</time>
      </trkpt>
      <trkpt lat="43.53363" lon="5.63674">
        <ele>597</ele>
        <time>2022-10-19T07:10:30.000Z</time>
      </trkpt>
      <trkpt lat="43.53363" lon="5.63675">
        <ele>597</ele>
        <time>2022-10-19T07:10:31.000Z</time>
      </trkpt>
      <trkpt lat="43.53363" lon="5.63676">
        <ele>597</ele>
        <time>2022-10-19T07:10:32.000Z</time>
      </trkpt>
      <trkpt lat="43.53363" lon="5.63676">
        <ele>597</ele>
        <time>2022-10-19T07:10:33.000Z</time>
      </trkpt>
      <trkpt lat="43.53364" lon="5.63676">
        <ele>597</ele>
        <time>2022-10-19T07:10:34.000Z</time>
      </trkpt>
      <trkpt lat="43.53364" lon="5.63677">
        <ele>598</ele>
        <time>2022-10-19T07:10:35.000Z</time>
      </trkpt>
      <trkpt lat="43.53364" lon="5.63677">
        <ele>598</ele>
        <time>2022-10-19T07:10:36.000Z</time>
      </trkpt>
      <trkpt lat="43.53363" lon="5.63677">
        <ele>598</ele>
        <time>2022-10-19T07:10:37.000Z</time>
      </trkpt>
      <trkpt lat="43.53363" lon="5.63677">
        <ele>598</ele>
        <time>2022-10-19T07:10:38.000Z</time>
      </trkpt>
      <trkpt lat="43.53363" lon="5.63677">
        <ele>598</ele>
        <time>2022-10-19T07:10:39.000Z</time>
      </trkpt>
      <trkpt lat="43.53364" lon="5.63677">
        <ele>598</ele>
        <time>2022-10-19T07:10:40.000Z</time>
      </trkpt>
      <trkpt lat="43.53363" lon="5.63677">
        <ele>598</ele>
        <time>2022-10-19T07:10:41.000Z</time>
      </trkpt>
      <trkpt lat="43.53363" lon="5.63677">
        <ele>598</ele>
        <time>2022-10-19T07:10:42.000Z</time>
      </trkpt>
      <trkpt lat="43.53363" lon="5.63677">
        <ele>598</ele>
        <time>2022-10-19T07:10:43.000Z</time>
      </trkpt>
      <trkpt lat="43.53363" lon="5.63677">
        <ele>598</ele>
        <time>2022-10-19T07:10:44.000Z</time>
      </trkpt>
      <trkpt lat="43.53364" lon="5.63678">
        <ele>598</ele>
        <time>2022-10-19T07:10:45.000Z</time>
      </trkpt>
      <trkpt lat="43.53364" lon="5.63678">
        <ele>598</ele>
        <time>2022-10-19T07:10:46.000Z</time>
      </trkpt>
      <trkpt lat="43.53364" lon="5.63679">
        <ele>598</ele>
        <time>2022-10-19T07:10:47.000Z</time>
      </trkpt>
      <trkpt lat="43.53364" lon="5.6368">
        <ele>599</ele>
        <time>2022-10-19T07:10:48.000Z</time>
      </trkpt>
      <trkpt lat="43.53365" lon="5.63681">
        <ele>599</ele>
        <time>2022-10-19T07:10:49.000Z</time>
      </trkpt>
      <trkpt lat="43.53365" lon="5.63682">
        <ele>599</ele>
        <time>2022-10-19T07:10:50.000Z</time>
      </trkpt>
      <trkpt lat="43.53366" lon="5.63683">
        <ele>599</ele>
        <time>2022-10-19T07:10:51.000Z</time>
      </trkpt>
      <trkpt lat="43.53366" lon="5.63683">
        <ele>599</ele>
        <time>2022-10-19T07:10:52.000Z</time>
      </trkpt>
      <trkpt lat="43.53367" lon="5.63684">
        <ele>599</ele>
        <time>2022-10-19T07:10:53.000Z</time>
      </trkpt>
      <trkpt lat="43.53367" lon="5.63685">
        <ele>599</ele>
        <time>2022-10-19T07:10:54.000Z</time>
      </trkpt>
      <trkpt lat="43.53367" lon="5.63686">
        <ele>599</ele>
        <time>2022-10-19T07:10:55.000Z</time>
      </trkpt>
      <trkpt lat="43.53368" lon="5.63686">
        <ele>599</ele>
        <time>2022-10-19T07:10:56.000Z</time>
      </trkpt>
      <trkpt lat="43.53368" lon="5.63687">
        <ele>599</ele>
        <time>2022-10-19T07:10:57.000Z</time>
      </trkpt>
      <trkpt lat="43.53369" lon="5.63688">
        <ele>599</ele>
        <time>2022-10-19T07:10:58.000Z</time>
      </trkpt>
      <trkpt lat="43.53369" lon="5.63688">
        <ele>599</ele>
        <time>2022-10-19T07:10:59.000Z</time>
      </trkpt>
      <trkpt lat="43.5337" lon="5.63689">
        <ele>599</ele>
        <time>2022-10-19T07:11:00.000Z</time>
      </trkpt>
      <trkpt lat="43.53371" lon="5.6369">
        <ele>599</ele>
        <time>2022-10-19T07:11:01.000Z</time>
      </trkpt>
      <trkpt lat="43.53371" lon="5.6369">
        <ele>599</ele>
        <time>2022-10-19T07:11:02.000Z</time>
      </trkpt>
      <trkpt lat="43.53371" lon="5.63691">
        <ele>599</ele>
        <time>2022-10-19T07:11:03.000Z</time>
      </trkpt>
      <trkpt lat="43.53372" lon="5.63691">
        <ele>599</ele>
        <time>2022-10-19T07:11:04.000Z</time>
      </trkpt>
      <trkpt lat="43.53372" lon="5.63692">
        <ele>599</ele>
        <time>2022-10-19T07:11:05.000Z</time>
      </trkpt>
      <trkpt lat="43.53372" lon="5.63693">
        <ele>599</ele>
        <time>2022-10-19T07:11:06.000Z</time>
      </trkpt>
      <trkpt lat="43.53373" lon="5.63694">
        <ele>599</ele>
        <time>2022-10-19T07:11:07.000Z</time>
      </trkpt>
      <trkpt lat="43.53373" lon="5.63694">
        <ele>599</ele>
        <time>2022-10-19T07:11:08.000Z</time>
      </trkpt>
      <trkpt lat="43.53373" lon="5.63695">
        <ele>599</ele>
        <time>2022-10-19T07:11:09.000Z</time>
      </trkpt>
      <trkpt lat="43.53373" lon="5.63695">
        <ele>599</ele>
        <time>2022-10-19T07:11:10.000Z</time>
      </trkpt>
      <trkpt lat="43.53373" lon="5.63696">
        <ele>599</ele>
        <time>2022-10-19T07:11:11.000Z</time>
      </trkpt>
      <trkpt lat="43.53373" lon="5.63697">
        <ele>599</ele>
        <time>2022-10-19T07:11:12.000Z</time>
      </trkpt>
      <trkpt lat="43.53373" lon="5.63698">
        <ele>599</ele>
        <time>2022-10-19T07:11:13.000Z</time>
      </trkpt>
      <trkpt lat="43.53373" lon="5.63699">
        <ele>599</ele>
        <time>2022-10-19T07:11:14.000Z</time>
      </trkpt>
      <trkpt lat="43.53373" lon="5.637">
        <ele>599</ele>
        <time>2022-10-19T07:11:15.000Z</time>
      </trkpt>
      <trkpt lat="43.53373" lon="5.63701">
        <ele>599</ele>
        <time>2022-10-19T07:11:16.000Z</time>
      </trkpt>
      <trkpt lat="43.53373" lon="5.63702">
        <ele>599</ele>
        <time>2022-10-19T07:11:17.000Z</time>
      </trkpt>
      <trkpt lat="43.53373" lon="5.63703">
        <ele>600</ele>
        <time>2022-10-19T07:11:18.000Z</time>
      </trkpt>
      <trkpt lat="43.53373" lon="5.63703">
        <ele>600</ele>
        <time>2022-10-19T07:11:19.000Z</time>
      </trkpt>
      <trkpt lat="43.53373" lon="5.63703">
        <ele>600</ele>
        <time>2022-10-19T07:11:20.000Z</time>
      </trkpt>
      <trkpt lat="43.53373" lon="5.63704">
        <ele>600</ele>
        <time>2022-10-19T07:11:21.000Z</time>
      </trkpt>
      <trkpt lat="43.53373" lon="5.63704">
        <ele>600</ele>
        <time>2022-10-19T07:11:22.000Z</time>
      </trkpt>
      <trkpt lat="43.53373" lon="5.63704">
        <ele>600</ele>
        <time>2022-10-19T07:11:23.000Z</time>
      </trkpt>
      <trkpt lat="43.53373" lon="5.63704">
        <ele>600</ele>
        <time>2022-10-19T07:11:24.000Z</time>
      </trkpt>
      <trkpt lat="43.53373" lon="5.63704">
        <ele>600</ele>
        <time>2022-10-19T07:11:25.000Z</time>
      </trkpt>
      <trkpt lat="43.53373" lon="5.63705">
        <ele>600</ele>
        <time>2022-10-19T07:11:26.000Z</time>
      </trkpt>
      <trkpt lat="43.53373" lon="5.63705">
        <ele>600</ele>
        <time>2022-10-19T07:11:27.000Z</time>
      </trkpt>
      <trkpt lat="43.53373" lon="5.63705">
        <ele>600</ele>
        <time>2022-10-19T07:11:28.000Z</time>
      </trkpt>
      <trkpt lat="43.53374" lon="5.63705">
        <ele>600</ele>
        <time>2022-10-19T07:11:29.000Z</time>
      </trkpt>
      <trkpt lat="43.53374" lon="5.63705">
        <ele>600</ele>
        <time>2022-10-19T07:11:30.000Z</time>
      </trkpt>
      <trkpt lat="43.53374" lon="5.63705">
        <ele>601</ele>
        <time>2022-10-19T07:11:31.000Z</time>
      </trkpt>
      <trkpt lat="43.53374" lon="5.63706">
        <ele>601</ele>
        <time>2022-10-19T07:11:32.000Z</time>
      </trkpt>
      <trkpt lat="43.53373" lon="5.63706">
        <ele>601</ele>
        <time>2022-10-19T07:11:33.000Z</time>
      </trkpt>
      <trkpt lat="43.53373" lon="5.63706">
        <ele>601</ele>
        <time>2022-10-19T07:11:34.000Z</time>
      </trkpt>
      <trkpt lat="43.53373" lon="5.63706">
        <ele>601</ele>
        <time>2022-10-19T07:11:35.000Z</time>
      </trkpt>
      <trkpt lat="43.53373" lon="5.63706">
        <ele>601</ele>
        <time>2022-10-19T07:11:36.000Z</time>
      </trkpt>
      <trkpt lat="43.53373" lon="5.63706">
        <ele>601</ele>
        <time>2022-10-19T07:11:37.000Z</time>
      </trkpt>
      <trkpt lat="43.53373" lon="5.63706">
        <ele>601</ele>
        <time>2022-10-19T07:11:38.000Z</time>
      </trkpt>
      <trkpt lat="43.53373" lon="5.63706">
        <ele>601</ele>
        <time>2022-10-19T07:11:39.000Z</time>
      </trkpt>
      <trkpt lat="43.53374" lon="5.63706">
        <ele>601</ele>
        <time>2022-10-19T07:11:40.000Z</time>
      </trkpt>
      <trkpt lat="43.53374" lon="5.63706">
        <ele>601</ele>
        <time>2022-10-19T07:11:41.000Z</time>
      </trkpt>
      <trkpt lat="43.53374" lon="5.63706">
        <ele>601</ele>
        <time>2022-10-19T07:11:42.000Z</time>
      </trkpt>
      <trkpt lat="43.53374" lon="5.63706">
        <ele>601</ele>
        <time>2022-10-19T07:11:43.000Z</time>
      </trkpt>
      <trkpt lat="43.53374" lon="5.63706">
        <ele>601</ele>
        <time>2022-10-19T07:11:44.000Z</time>
      </trkpt>
      <trkpt lat="43.53374" lon="5.63706">
        <ele>602</ele>
        <time>2022-10-19T07:11:45.000Z</time>
      </trkpt>
      <trkpt lat="43.53374" lon="5.63706">
        <ele>602</ele>
        <time>2022-10-19T07:11:46.000Z</time>
      </trkpt>
      <trkpt lat="43.53374" lon="5.63706">
        <ele>602</ele>
        <time>2022-10-19T07:11:47.000Z</time>
      </trkpt>
      <trkpt lat="43.53374" lon="5.63706">
        <ele>602</ele>
        <time>2022-10-19T07:11:48.000Z</time>
      </trkpt>
      <trkpt lat="43.53374" lon="5.63706">
        <ele>602</ele>
        <time>2022-10-19T07:11:49.000Z</time>
      </trkpt>
      <trkpt lat="43.53374" lon="5.63706">
        <ele>602</ele>
        <time>2022-10-19T07:11:50.000Z</time>
      </trkpt>
      <trkpt lat="43.53373" lon="5.63706">
        <ele>602</ele>
        <time>2022-10-19T07:11:51.000Z</time>
      </trkpt>
      <trkpt lat="43.53373" lon="5.63706">
        <ele>602</ele>
        <time>2022-10-19T07:11:52.000Z</time>
      </trkpt>
      <trkpt lat="43.53373" lon="5.63706">
        <ele>602</ele>
        <time>2022-10-19T07:11:53.000Z</time>
      </trkpt>
      <trkpt lat="43.53373" lon="5.63706">
        <ele>602</ele>
        <time>2022-10-19T07:11:54.000Z</time>
      </trkpt>
      <trkpt lat="43.53373" lon="5.63706">
        <ele>602</ele>
        <time>2022-10-19T07:11:55.000Z</time>
      </trkpt>
      <trkpt lat="43.53373" lon="5.63706">
        <ele>602</ele>
        <time>2022-10-19T07:11:56.000Z</time>
      </trkpt>
      <trkpt lat="43.53373" lon="5.63706">
        <ele>602</ele>
        <time>2022-10-19T07:11:57.000Z</time>
      </trkpt>
      <trkpt lat="43.53373" lon="5.63706">
        <ele>602</ele>
        <time>2022-10-19T07:11:58.000Z</time>
      </trkpt>
      <trkpt lat="43.53373" lon="5.63706">
        <ele>602</ele>
        <time>2022-10-19T07:11:59.000Z</time>
      </trkpt>
      <trkpt lat="43.53373" lon="5.63706">
        <ele>602</ele>
        <time>2022-10-19T07:12:00.000Z</time>
      </trkpt>
      <trkpt lat="43.53373" lon="5.63706">
        <ele>602</ele>
        <time>2022-10-19T07:12:01.000Z</time>
      </trkpt>
      <trkpt lat="43.53373" lon="5.63706">
        <ele>602</ele>
        <time>2022-10-19T07:12:02.000Z</time>
      </trkpt>
      <trkpt lat="43.53373" lon="5.63707">
        <ele>602</ele>
        <time>2022-10-19T07:12:03.000Z</time>
      </trkpt>
      <trkpt lat="43.53373" lon="5.63707">
        <ele>602</ele>
        <time>2022-10-19T07:12:04.000Z</time>
      </trkpt>
      <trkpt lat="43.53373" lon="5.63707">
        <ele>602</ele>
        <time>2022-10-19T07:12:05.000Z</time>
      </trkpt>
      <trkpt lat="43.53373" lon="5.63707">
        <ele>602</ele>
        <time>2022-10-19T07:12:06.000Z</time>
      </trkpt>
      <trkpt lat="43.53373" lon="5.63707">
        <ele>602</ele>
        <time>2022-10-19T07:12:07.000Z</time>
      </trkpt>
      <trkpt lat="43.53373" lon="5.63707">
        <ele>602</ele>
        <time>2022-10-19T07:12:08.000Z</time>
      </trkpt>
      <trkpt lat="43.53373" lon="5.63707">
        <ele>602</ele>
        <time>2022-10-19T07:12:09.000Z</time>
      </trkpt>
      <trkpt lat="43.53373" lon="5.63707">
        <ele>602</ele>
        <time>2022-10-19T07:12:10.000Z</time>
      </trkpt>
      <trkpt lat="43.53373" lon="5.63707">
        <ele>602</ele>
        <time>2022-10-19T07:12:11.000Z</time>
      </trkpt>
      <trkpt lat="43.53373" lon="5.63707">
        <ele>602</ele>
        <time>2022-10-19T07:12:12.000Z</time>
      </trkpt>
      <trkpt lat="43.53373" lon="5.63707">
        <ele>602</ele>
        <time>2022-10-19T07:12:13.000Z</time>
      </trkpt>
      <trkpt lat="43.53373" lon="5.63707">
        <ele>602</ele>
        <time>2022-10-19T07:12:14.000Z</time>
      </trkpt>
      <trkpt lat="43.53373" lon="5.63707">
        <ele>602</ele>
        <time>2022-10-19T07:12:15.000Z</time>
      </trkpt>
      <trkpt lat="43.53373" lon="5.63707">
        <ele>602</ele>
        <time>2022-10-19T07:12:16.000Z</time>
      </trkpt>
      <trkpt lat="43.53373" lon="5.63708">
        <ele>602</ele>
        <time>2022-10-19T07:12:17.000Z</time>
      </trkpt>
      <trkpt lat="43.53373" lon="5.63708">
        <ele>602</ele>
        <time>2022-10-19T07:12:18.000Z</time>
      </trkpt>
      <trkpt lat="43.53373" lon="5.63708">
        <ele>602</ele>
        <time>2022-10-19T07:12:19.000Z</time>
      </trkpt>
      <trkpt lat="43.53373" lon="5.63708">
        <ele>602</ele>
        <time>2022-10-19T07:12:20.000Z</time>
      </trkpt>
      <trkpt lat="43.53373" lon="5.63708">
        <ele>602</ele>
        <time>2022-10-19T07:12:21.000Z</time>
      </trkpt>
      <trkpt lat="43.53373" lon="5.63708">
        <ele>602</ele>
        <time>2022-10-19T07:12:22.000Z</time>
      </trkpt>
      <trkpt lat="43.53373" lon="5.63708">
        <ele>602</ele>
        <time>2022-10-19T07:12:23.000Z</time>
      </trkpt>
      <trkpt lat="43.53373" lon="5.63708">
        <ele>602</ele>
        <time>2022-10-19T07:12:24.000Z</time>
      </trkpt>
      <trkpt lat="43.53373" lon="5.63708">
        <ele>602</ele>
        <time>2022-10-19T07:12:25.000Z</time>
      </trkpt>
      <trkpt lat="43.53373" lon="5.63707">
        <ele>602</ele>
        <time>2022-10-19T07:12:26.000Z</time>
      </trkpt>
      <trkpt lat="43.53373" lon="5.63707">
        <ele>602</ele>
        <time>2022-10-19T07:12:27.000Z</time>
      </trkpt>
      <trkpt lat="43.53373" lon="5.63707">
        <ele>602</ele>
        <time>2022-10-19T07:12:28.000Z</time>
      </trkpt>
      <trkpt lat="43.53373" lon="5.63707">
        <ele>602</ele>
        <time>2022-10-19T07:12:29.000Z</time>
      </trkpt>
      <trkpt lat="43.53373" lon="5.63707">
        <ele>602</ele>
        <time>2022-10-19T07:12:30.000Z</time>
      </trkpt>
      <trkpt lat="43.53372" lon="5.63707">
        <ele>602</ele>
        <time>2022-10-19T07:12:31.000Z</time>
      </trkpt>
      <trkpt lat="43.53372" lon="5.63707">
        <ele>602</ele>
        <time>2022-10-19T07:12:32.000Z</time>
      </trkpt>
      <trkpt lat="43.53372" lon="5.63707">
        <ele>602</ele>
        <time>2022-10-19T07:12:33.000Z</time>
      </trkpt>
      <trkpt lat="43.53372" lon="5.63707">
        <ele>602</ele>
        <time>2022-10-19T07:12:34.000Z</time>
      </trkpt>
      <trkpt lat="43.53372" lon="5.63708">
        <ele>602</ele>
        <time>2022-10-19T07:12:35.000Z</time>
      </trkpt>
      <trkpt lat="43.53372" lon="5.63708">
        <ele>602</ele>
        <time>2022-10-19T07:12:36.000Z</time>
      </trkpt>
      <trkpt lat="43.53372" lon="5.63707">
        <ele>602</ele>
        <time>2022-10-19T07:12:37.000Z</time>
      </trkpt>
      <trkpt lat="43.53372" lon="5.63707">
        <ele>602</ele>
        <time>2022-10-19T07:12:38.000Z</time>
      </trkpt>
      <trkpt lat="43.53372" lon="5.63708">
        <ele>602</ele>
        <time>2022-10-19T07:12:39.000Z</time>
      </trkpt>
      <trkpt lat="43.53372" lon="5.63708">
        <ele>602</ele>
        <time>2022-10-19T07:12:40.000Z</time>
      </trkpt>
      <trkpt lat="43.53372" lon="5.63708">
        <ele>603</ele>
        <time>2022-10-19T07:12:41.000Z</time>
      </trkpt>
      <trkpt lat="43.53372" lon="5.63707">
        <ele>603</ele>
        <time>2022-10-19T07:12:42.000Z</time>
      </trkpt>
      <trkpt lat="43.53372" lon="5.63707">
        <ele>603</ele>
        <time>2022-10-19T07:12:43.000Z</time>
      </trkpt>
      <trkpt lat="43.53372" lon="5.63707">
        <ele>603</ele>
        <time>2022-10-19T07:12:44.000Z</time>
      </trkpt>
      <trkpt lat="43.53372" lon="5.63707">
        <ele>603</ele>
        <time>2022-10-19T07:12:45.000Z</time>
      </trkpt>
      <trkpt lat="43.53372" lon="5.63708">
        <ele>603</ele>
        <time>2022-10-19T07:12:46.000Z</time>
      </trkpt>
      <trkpt lat="43.53372" lon="5.63708">
        <ele>603</ele>
        <time>2022-10-19T07:12:47.000Z</time>
      </trkpt>
      <trkpt lat="43.53372" lon="5.63707">
        <ele>603</ele>
        <time>2022-10-19T07:12:48.000Z</time>
      </trkpt>
      <trkpt lat="43.53372" lon="5.63707">
        <ele>603</ele>
        <time>2022-10-19T07:12:49.000Z</time>
      </trkpt>
      <trkpt lat="43.53372" lon="5.63707">
        <ele>603</ele>
        <time>2022-10-19T07:12:50.000Z</time>
      </trkpt>
      <trkpt lat="43.53372" lon="5.63707">
        <ele>603</ele>
        <time>2022-10-19T07:12:51.000Z</time>
      </trkpt>
      <trkpt lat="43.53372" lon="5.63707">
        <ele>603</ele>
        <time>2022-10-19T07:12:52.000Z</time>
      </trkpt>
      <trkpt lat="43.53372" lon="5.63707">
        <ele>603</ele>
        <time>2022-10-19T07:12:53.000Z</time>
      </trkpt>
      <trkpt lat="43.53372" lon="5.63707">
        <ele>603</ele>
        <time>2022-10-19T07:12:54.000Z</time>
      </trkpt>
      <trkpt lat="43.53372" lon="5.63707">
        <ele>603</ele>
        <time>2022-10-19T07:12:55.000Z</time>
      </trkpt>
      <trkpt lat="43.53372" lon="5.63707">
        <ele>603</ele>
        <time>2022-10-19T07:12:56.000Z</time>
      </trkpt>
      <trkpt lat="43.53372" lon="5.63707">
        <ele>603</ele>
        <time>2022-10-19T07:12:57.000Z</time>
      </trkpt>
      <trkpt lat="43.53372" lon="5.63707">
        <ele>603</ele>
        <time>2022-10-19T07:12:58.000Z</time>
      </trkpt>
      <trkpt lat="43.53372" lon="5.63707">
        <ele>603</ele>
        <time>2022-10-19T07:12:59.000Z</time>
      </trkpt>
      <trkpt lat="43.53372" lon="5.63707">
        <ele>603</ele>
        <time>2022-10-19T07:13:00.000Z</time>
      </trkpt>
      <trkpt lat="43.53372" lon="5.63707">
        <ele>603</ele>
        <time>2022-10-19T07:13:01.000Z</time>
      </trkpt>
      <trkpt lat="43.53372" lon="5.63707">
        <ele>603</ele>
        <time>2022-10-19T07:13:02.000Z</time>
      </trkpt>
      <trkpt lat="43.53372" lon="5.63707">
        <ele>603</ele>
        <time>2022-10-19T07:13:03.000Z</time>
      </trkpt>
      <trkpt lat="43.53372" lon="5.63707">
        <ele>603</ele>
        <time>2022-10-19T07:13:04.000Z</time>
      </trkpt>
      <trkpt lat="43.53371" lon="5.63708">
        <ele>603</ele>
        <time>2022-10-19T07:13:05.000Z</time>
      </trkpt>
      <trkpt lat="43.53371" lon="5.63708">
        <ele>603</ele>
        <time>2022-10-19T07:13:06.000Z</time>
      </trkpt>
      <trkpt lat="43.53371" lon="5.63708">
        <ele>603</ele>
        <time>2022-10-19T07:13:07.000Z</time>
      </trkpt>
      <trkpt lat="43.53371" lon="5.63708">
        <ele>603</ele>
        <time>2022-10-19T07:13:08.000Z</time>
      </trkpt>
      <trkpt lat="43.53371" lon="5.63708">
        <ele>603</ele>
        <time>2022-10-19T07:13:09.000Z</time>
      </trkpt>
      <trkpt lat="43.53371" lon="5.63708">
        <ele>603</ele>
        <time>2022-10-19T07:13:10.000Z</time>
      </trkpt>
      <trkpt lat="43.53371" lon="5.63708">
        <ele>603</ele>
        <time>2022-10-19T07:13:11.000Z</time>
      </trkpt>
      <trkpt lat="43.53371" lon="5.63708">
        <ele>603</ele>
        <time>2022-10-19T07:13:12.000Z</time>
      </trkpt>
      <trkpt lat="43.53371" lon="5.63708">
        <ele>603</ele>
        <time>2022-10-19T07:13:13.000Z</time>
      </trkpt>
      <trkpt lat="43.53371" lon="5.63708">
        <ele>603</ele>
        <time>2022-10-19T07:13:14.000Z</time>
      </trkpt>
      <trkpt lat="43.53371" lon="5.63708">
        <ele>603</ele>
        <time>2022-10-19T07:13:15.000Z</time>
      </trkpt>
      <trkpt lat="43.53371" lon="5.63708">
        <ele>603</ele>
        <time>2022-10-19T07:13:16.000Z</time>
      </trkpt>
      <trkpt lat="43.53371" lon="5.63708">
        <ele>603</ele>
        <time>2022-10-19T07:13:17.000Z</time>
      </trkpt>
      <trkpt lat="43.53371" lon="5.63708">
        <ele>603</ele>
        <time>2022-10-19T07:13:18.000Z</time>
      </trkpt>
      <trkpt lat="43.53371" lon="5.63708">
        <ele>603</ele>
        <time>2022-10-19T07:13:19.000Z</time>
      </trkpt>
      <trkpt lat="43.53372" lon="5.63708">
        <ele>603</ele>
        <time>2022-10-19T07:13:20.000Z</time>
      </trkpt>
      <trkpt lat="43.53372" lon="5.63709">
        <ele>603</ele>
        <time>2022-10-19T07:13:21.000Z</time>
      </trkpt>
      <trkpt lat="43.53372" lon="5.63708">
        <ele>603</ele>
        <time>2022-10-19T07:13:22.000Z</time>
      </trkpt>
      <trkpt lat="43.53372" lon="5.63709">
        <ele>603</ele>
        <time>2022-10-19T07:13:23.000Z</time>
      </trkpt>
      <trkpt lat="43.53372" lon="5.63709">
        <ele>603</ele>
        <time>2022-10-19T07:13:24.000Z</time>
      </trkpt>
      <trkpt lat="43.53372" lon="5.63709">
        <ele>603</ele>
        <time>2022-10-19T07:13:25.000Z</time>
      </trkpt>
      <trkpt lat="43.53372" lon="5.63709">
        <ele>603</ele>
        <time>2022-10-19T07:13:26.000Z</time>
      </trkpt>
      <trkpt lat="43.53372" lon="5.63709">
        <ele>603</ele>
        <time>2022-10-19T07:13:27.000Z</time>
      </trkpt>
      <trkpt lat="43.53372" lon="5.63709">
        <ele>603</ele>
        <time>2022-10-19T07:13:28.000Z</time>
      </trkpt>
      <trkpt lat="43.53372" lon="5.63709">
        <ele>603</ele>
        <time>2022-10-19T07:13:29.000Z</time>
      </trkpt>
      <trkpt lat="43.53372" lon="5.63709">
        <ele>603</ele>
        <time>2022-10-19T07:13:30.000Z</time>
      </trkpt>
      <trkpt lat="43.53372" lon="5.63709">
        <ele>603</ele>
        <time>2022-10-19T07:13:31.000Z</time>
      </trkpt>
      <trkpt lat="43.53372" lon="5.63708">
        <ele>603</ele>
        <time>2022-10-19T07:13:32.000Z</time>
      </trkpt>
      <trkpt lat="43.53372" lon="5.63708">
        <ele>603</ele>
        <time>2022-10-19T07:13:33.000Z</time>
      </trkpt>
      <trkpt lat="43.53372" lon="5.63708">
        <ele>603</ele>
        <time>2022-10-19T07:13:34.000Z</time>
      </trkpt>
      <trkpt lat="43.53372" lon="5.63708">
        <ele>603</ele>
        <time>2022-10-19T07:13:35.000Z</time>
      </trkpt>
      <trkpt lat="43.53372" lon="5.63708">
        <ele>603</ele>
        <time>2022-10-19T07:13:36.000Z</time>
      </trkpt>
      <trkpt lat="43.53372" lon="5.63708">
        <ele>603</ele>
        <time>2022-10-19T07:13:37.000Z</time>
      </trkpt>
      <trkpt lat="43.53372" lon="5.63708">
        <ele>604</ele>
        <time>2022-10-19T07:13:38.000Z</time>
      </trkpt>
      <trkpt lat="43.53372" lon="5.63708">
        <ele>604</ele>
        <time>2022-10-19T07:13:39.000Z</time>
      </trkpt>
      <trkpt lat="43.53372" lon="5.63708">
        <ele>604</ele>
        <time>2022-10-19T07:13:40.000Z</time>
      </trkpt>
      <trkpt lat="43.53372" lon="5.63708">
        <ele>604</ele>
        <time>2022-10-19T07:13:41.000Z</time>
      </trkpt>
      <trkpt lat="43.53372" lon="5.63708">
        <ele>604</ele>
        <time>2022-10-19T07:13:42.000Z</time>
      </trkpt>
      <trkpt lat="43.53372" lon="5.63709">
        <ele>604</ele>
        <time>2022-10-19T07:13:43.000Z</time>
      </trkpt>
      <trkpt lat="43.53372" lon="5.63709">
        <ele>604</ele>
        <time>2022-10-19T07:13:44.000Z</time>
      </trkpt>
      <trkpt lat="43.53372" lon="5.63709">
        <ele>604</ele>
        <time>2022-10-19T07:13:45.000Z</time>
      </trkpt>
      <trkpt lat="43.53372" lon="5.63709">
        <ele>604</ele>
        <time>2022-10-19T07:13:46.000Z</time>
      </trkpt>
      <trkpt lat="43.53372" lon="5.63709">
        <ele>604</ele>
        <time>2022-10-19T07:13:47.000Z</time>
      </trkpt>
      <trkpt lat="43.53372" lon="5.63709">
        <ele>604</ele>
        <time>2022-10-19T07:13:48.000Z</time>
      </trkpt>
      <trkpt lat="43.53372" lon="5.63709">
        <ele>604</ele>
        <time>2022-10-19T07:13:49.000Z</time>
      </trkpt>
      <trkpt lat="43.53372" lon="5.63709">
        <ele>604</ele>
        <time>2022-10-19T07:13:50.000Z</time>
      </trkpt>
      <trkpt lat="43.53372" lon="5.63709">
        <ele>604</ele>
        <time>2022-10-19T07:13:51.000Z</time>
      </trkpt>
      <trkpt lat="43.53372" lon="5.63709">
        <ele>604</ele>
        <time>2022-10-19T07:13:52.000Z</time>
      </trkpt>
      <trkpt lat="43.53372" lon="5.63709">
        <ele>604</ele>
        <time>2022-10-19T07:13:53.000Z</time>
      </trkpt>
      <trkpt lat="43.53372" lon="5.63709">
        <ele>604</ele>
        <time>2022-10-19T07:13:54.000Z</time>
      </trkpt>
      <trkpt lat="43.53372" lon="5.63709">
        <ele>604</ele>
        <time>2022-10-19T07:13:55.000Z</time>
      </trkpt>
      <trkpt lat="43.53372" lon="5.63709">
        <ele>604</ele>
        <time>2022-10-19T07:13:56.000Z</time>
      </trkpt>
      <trkpt lat="43.53372" lon="5.63709">
        <ele>604</ele>
        <time>2022-10-19T07:13:57.000Z</time>
      </trkpt>
      <trkpt lat="43.53372" lon="5.63709">
        <ele>604</ele>
        <time>2022-10-19T07:13:58.000Z</time>
      </trkpt>
      <trkpt lat="43.53372" lon="5.63709">
        <ele>603</ele>
        <time>2022-10-19T07:13:59.000Z</time>
      </trkpt>
      <trkpt lat="43.53372" lon="5.63709">
        <ele>603</ele>
        <time>2022-10-19T07:14:00.000Z</time>
      </trkpt>
      <trkpt lat="43.53372" lon="5.63709">
        <ele>604</ele>
        <time>2022-10-19T07:14:01.000Z</time>
      </trkpt>
      <trkpt lat="43.53372" lon="5.63709">
        <ele>604</ele>
        <time>2022-10-19T07:14:02.000Z</time>
      </trkpt>
      <trkpt lat="43.53372" lon="5.63709">
        <ele>604</ele>
        <time>2022-10-19T07:14:03.000Z</time>
      </trkpt>
      <trkpt lat="43.53372" lon="5.63709">
        <ele>604</ele>
        <time>2022-10-19T07:14:04.000Z</time>
      </trkpt>
      <trkpt lat="43.53372" lon="5.63709">
        <ele>604</ele>
        <time>2022-10-19T07:14:05.000Z</time>
      </trkpt>
      <trkpt lat="43.53372" lon="5.63709">
        <ele>604</ele>
        <time>2022-10-19T07:14:06.000Z</time>
      </trkpt>
      <trkpt lat="43.53372" lon="5.6371">
        <ele>604</ele>
        <time>2022-10-19T07:14:07.000Z</time>
      </trkpt>
      <trkpt lat="43.53372" lon="5.6371">
        <ele>604</ele>
        <time>2022-10-19T07:14:08.000Z</time>
      </trkpt>
      <trkpt lat="43.53372" lon="5.63711">
        <ele>604</ele>
        <time>2022-10-19T07:14:09.000Z</time>
      </trkpt>
      <trkpt lat="43.53372" lon="5.63711">
        <ele>604</ele>
        <time>2022-10-19T07:14:10.000Z</time>
      </trkpt>
      <trkpt lat="43.53373" lon="5.63712">
        <ele>604</ele>
        <time>2022-10-19T07:14:11.000Z</time>
      </trkpt>
      <trkpt lat="43.53373" lon="5.63713">
        <ele>604</ele>
        <time>2022-10-19T07:14:12.000Z</time>
      </trkpt>
      <trkpt lat="43.53373" lon="5.63713">
        <ele>604</ele>
        <time>2022-10-19T07:14:13.000Z</time>
      </trkpt>
      <trkpt lat="43.53373" lon="5.63714">
        <ele>604</ele>
        <time>2022-10-19T07:14:14.000Z</time>
      </trkpt>
      <trkpt lat="43.53373" lon="5.63714">
        <ele>604</ele>
        <time>2022-10-19T07:14:15.000Z</time>
      </trkpt>
      <trkpt lat="43.53374" lon="5.63714">
        <ele>604</ele>
        <time>2022-10-19T07:14:16.000Z</time>
      </trkpt>
      <trkpt lat="43.53374" lon="5.63714">
        <ele>604</ele>
        <time>2022-10-19T07:14:17.000Z</time>
      </trkpt>
      <trkpt lat="43.53374" lon="5.63714">
        <ele>604</ele>
        <time>2022-10-19T07:14:18.000Z</time>
      </trkpt>
      <trkpt lat="43.53374" lon="5.63714">
        <ele>604</ele>
        <time>2022-10-19T07:14:19.000Z</time>
      </trkpt>
      <trkpt lat="43.53374" lon="5.63714">
        <ele>604</ele>
        <time>2022-10-19T07:14:20.000Z</time>
      </trkpt>
      <trkpt lat="43.53374" lon="5.63714">
        <ele>604</ele>
        <time>2022-10-19T07:14:21.000Z</time>
      </trkpt>
      <trkpt lat="43.53374" lon="5.63714">
        <ele>604</ele>
        <time>2022-10-19T07:14:22.000Z</time>
      </trkpt>
      <trkpt lat="43.53374" lon="5.63714">
        <ele>604</ele>
        <time>2022-10-19T07:14:23.000Z</time>
      </trkpt>
      <trkpt lat="43.53374" lon="5.63714">
        <ele>604</ele>
        <time>2022-10-19T07:14:24.000Z</time>
      </trkpt>
      <trkpt lat="43.53374" lon="5.63714">
        <ele>604</ele>
        <time>2022-10-19T07:14:25.000Z</time>
      </trkpt>
      <trkpt lat="43.53374" lon="5.63714">
        <ele>604</ele>
        <time>2022-10-19T07:14:26.000Z</time>
      </trkpt>
      <trkpt lat="43.53374" lon="5.63714">
        <ele>604</ele>
        <time>2022-10-19T07:14:27.000Z</time>
      </trkpt>
      <trkpt lat="43.53374" lon="5.63714">
        <ele>604</ele>
        <time>2022-10-19T07:14:28.000Z</time>
      </trkpt>
      <trkpt lat="43.53374" lon="5.63714">
        <ele>604</ele>
        <time>2022-10-19T07:14:29.000Z</time>
      </trkpt>
      <trkpt lat="43.53374" lon="5.63714">
        <ele>604</ele>
        <time>2022-10-19T07:14:30.000Z</time>
      </trkpt>
      <trkpt lat="43.53374" lon="5.63714">
        <ele>604</ele>
        <time>2022-10-19T07:14:31.000Z</time>
      </trkpt>
      <trkpt lat="43.53374" lon="5.63714">
        <ele>605</ele>
        <time>2022-10-19T07:14:32.000Z</time>
      </trkpt>
      <trkpt lat="43.53375" lon="5.63713">
        <ele>605</ele>
        <time>2022-10-19T07:14:33.000Z</time>
      </trkpt>
      <trkpt lat="43.53375" lon="5.63714">
        <ele>605</ele>
        <time>2022-10-19T07:14:34.000Z</time>
      </trkpt>
      <trkpt lat="43.53376" lon="5.63714">
        <ele>605</ele>
        <time>2022-10-19T07:14:35.000Z</time>
      </trkpt>
      <trkpt lat="43.53376" lon="5.63714">
        <ele>605</ele>
        <time>2022-10-19T07:14:36.000Z</time>
      </trkpt>
      <trkpt lat="43.53376" lon="5.63715">
        <ele>605</ele>
        <time>2022-10-19T07:14:37.000Z</time>
      </trkpt>
      <trkpt lat="43.53376" lon="5.63716">
        <ele>605</ele>
        <time>2022-10-19T07:14:38.000Z</time>
      </trkpt>
      <trkpt lat="43.53376" lon="5.63716">
        <ele>605</ele>
        <time>2022-10-19T07:14:39.000Z</time>
      </trkpt>
      <trkpt lat="43.53377" lon="5.63717">
        <ele>605</ele>
        <time>2022-10-19T07:14:40.000Z</time>
      </trkpt>
      <trkpt lat="43.53377" lon="5.63718">
        <ele>605</ele>
        <time>2022-10-19T07:14:41.000Z</time>
      </trkpt>
      <trkpt lat="43.53377" lon="5.63718">
        <ele>605</ele>
        <time>2022-10-19T07:14:42.000Z</time>
      </trkpt>
      <trkpt lat="43.53377" lon="5.63719">
        <ele>605</ele>
        <time>2022-10-19T07:14:43.000Z</time>
      </trkpt>
      <trkpt lat="43.53377" lon="5.63719">
        <ele>605</ele>
        <time>2022-10-19T07:14:44.000Z</time>
      </trkpt>
      <trkpt lat="43.53377" lon="5.6372">
        <ele>605</ele>
        <time>2022-10-19T07:14:45.000Z</time>
      </trkpt>
      <trkpt lat="43.53378" lon="5.6372">
        <ele>605</ele>
        <time>2022-10-19T07:14:46.000Z</time>
      </trkpt>
      <trkpt lat="43.53378" lon="5.6372">
        <ele>605</ele>
        <time>2022-10-19T07:14:47.000Z</time>
      </trkpt>
      <trkpt lat="43.53378" lon="5.63721">
        <ele>605</ele>
        <time>2022-10-19T07:14:48.000Z</time>
      </trkpt>
      <trkpt lat="43.53378" lon="5.63722">
        <ele>605</ele>
        <time>2022-10-19T07:14:49.000Z</time>
      </trkpt>
      <trkpt lat="43.53378" lon="5.63722">
        <ele>605</ele>
        <time>2022-10-19T07:14:50.000Z</time>
      </trkpt>
      <trkpt lat="43.53377" lon="5.63723">
        <ele>605</ele>
        <time>2022-10-19T07:14:51.000Z</time>
      </trkpt>
      <trkpt lat="43.53376" lon="5.63723">
        <ele>605</ele>
        <time>2022-10-19T07:14:52.000Z</time>
      </trkpt>
      <trkpt lat="43.53376" lon="5.63723">
        <ele>605</ele>
        <time>2022-10-19T07:14:53.000Z</time>
      </trkpt>
      <trkpt lat="43.53375" lon="5.63722">
        <ele>605</ele>
        <time>2022-10-19T07:14:54.000Z</time>
      </trkpt>
      <trkpt lat="43.53375" lon="5.63722">
        <ele>605</ele>
        <time>2022-10-19T07:14:55.000Z</time>
      </trkpt>
      <trkpt lat="43.53374" lon="5.63722">
        <ele>605</ele>
        <time>2022-10-19T07:14:56.000Z</time>
      </trkpt>
      <trkpt lat="43.53373" lon="5.63723">
        <ele>605</ele>
        <time>2022-10-19T07:14:57.000Z</time>
      </trkpt>
      <trkpt lat="43.53373" lon="5.63723">
        <ele>606</ele>
        <time>2022-10-19T07:14:58.000Z</time>
      </trkpt>
      <trkpt lat="43.53373" lon="5.63724">
        <ele>606</ele>
        <time>2022-10-19T07:14:59.000Z</time>
      </trkpt>
      <trkpt lat="43.53373" lon="5.63724">
        <ele>606</ele>
        <time>2022-10-19T07:15:00.000Z</time>
      </trkpt>
      <trkpt lat="43.53373" lon="5.63725">
        <ele>607</ele>
        <time>2022-10-19T07:15:01.000Z</time>
      </trkpt>
      <trkpt lat="43.53373" lon="5.63726">
        <ele>607</ele>
        <time>2022-10-19T07:15:02.000Z</time>
      </trkpt>
      <trkpt lat="43.53373" lon="5.63726">
        <ele>607</ele>
        <time>2022-10-19T07:15:03.000Z</time>
      </trkpt>
      <trkpt lat="43.53373" lon="5.63727">
        <ele>607</ele>
        <time>2022-10-19T07:15:04.000Z</time>
      </trkpt>
      <trkpt lat="43.53373" lon="5.63728">
        <ele>608</ele>
        <time>2022-10-19T07:15:05.000Z</time>
      </trkpt>
      <trkpt lat="43.53374" lon="5.63729">
        <ele>608</ele>
        <time>2022-10-19T07:15:06.000Z</time>
      </trkpt>
      <trkpt lat="43.53374" lon="5.6373">
        <ele>608</ele>
        <time>2022-10-19T07:15:07.000Z</time>
      </trkpt>
      <trkpt lat="43.53374" lon="5.6373">
        <ele>608</ele>
        <time>2022-10-19T07:15:08.000Z</time>
      </trkpt>
      <trkpt lat="43.53374" lon="5.63731">
        <ele>608</ele>
        <time>2022-10-19T07:15:09.000Z</time>
      </trkpt>
      <trkpt lat="43.53374" lon="5.63732">
        <ele>609</ele>
        <time>2022-10-19T07:15:10.000Z</time>
      </trkpt>
      <trkpt lat="43.53374" lon="5.63733">
        <ele>609</ele>
        <time>2022-10-19T07:15:11.000Z</time>
      </trkpt>
      <trkpt lat="43.53374" lon="5.63734">
        <ele>609</ele>
        <time>2022-10-19T07:15:12.000Z</time>
      </trkpt>
      <trkpt lat="43.53375" lon="5.63734">
        <ele>610</ele>
        <time>2022-10-19T07:15:13.000Z</time>
      </trkpt>
      <trkpt lat="43.53375" lon="5.63735">
        <ele>610</ele>
        <time>2022-10-19T07:15:14.000Z</time>
      </trkpt>
      <trkpt lat="43.53375" lon="5.63735">
        <ele>610</ele>
        <time>2022-10-19T07:15:15.000Z</time>
      </trkpt>
      <trkpt lat="43.53375" lon="5.63736">
        <ele>610</ele>
        <time>2022-10-19T07:15:16.000Z</time>
      </trkpt>
      <trkpt lat="43.53375" lon="5.63737">
        <ele>611</ele>
        <time>2022-10-19T07:15:17.000Z</time>
      </trkpt>
      <trkpt lat="43.53375" lon="5.63737">
        <ele>611</ele>
        <time>2022-10-19T07:15:18.000Z</time>
      </trkpt>
      <trkpt lat="43.53375" lon="5.63737">
        <ele>611</ele>
        <time>2022-10-19T07:15:19.000Z</time>
      </trkpt>
      <trkpt lat="43.53376" lon="5.63737">
        <ele>611</ele>
        <time>2022-10-19T07:15:20.000Z</time>
      </trkpt>
      <trkpt lat="43.53376" lon="5.63737">
        <ele>611</ele>
        <time>2022-10-19T07:15:21.000Z</time>
      </trkpt>
      <trkpt lat="43.53376" lon="5.63737">
        <ele>611</ele>
        <time>2022-10-19T07:15:22.000Z</time>
      </trkpt>
      <trkpt lat="43.53376" lon="5.63737">
        <ele>611</ele>
        <time>2022-10-19T07:15:23.000Z</time>
      </trkpt>
      <trkpt lat="43.53376" lon="5.63737">
        <ele>611</ele>
        <time>2022-10-19T07:15:24.000Z</time>
      </trkpt>
      <trkpt lat="43.53376" lon="5.63737">
        <ele>612</ele>
        <time>2022-10-19T07:15:25.000Z</time>
      </trkpt>
      <trkpt lat="43.53376" lon="5.63738">
        <ele>612</ele>
        <time>2022-10-19T07:15:26.000Z</time>
      </trkpt>
      <trkpt lat="43.53376" lon="5.63738">
        <ele>612</ele>
        <time>2022-10-19T07:15:27.000Z</time>
      </trkpt>
      <trkpt lat="43.53376" lon="5.63738">
        <ele>612</ele>
        <time>2022-10-19T07:15:28.000Z</time>
      </trkpt>
      <trkpt lat="43.53376" lon="5.63738">
        <ele>612</ele>
        <time>2022-10-19T07:15:29.000Z</time>
      </trkpt>
      <trkpt lat="43.53376" lon="5.63739">
        <ele>612</ele>
        <time>2022-10-19T07:15:30.000Z</time>
      </trkpt>
      <trkpt lat="43.53376" lon="5.63739">
        <ele>612</ele>
        <time>2022-10-19T07:15:31.000Z</time>
      </trkpt>
      <trkpt lat="43.53376" lon="5.6374">
        <ele>612</ele>
        <time>2022-10-19T07:15:32.000Z</time>
      </trkpt>
      <trkpt lat="43.53376" lon="5.63741">
        <ele>612</ele>
        <time>2022-10-19T07:15:33.000Z</time>
      </trkpt>
      <trkpt lat="43.53376" lon="5.63742">
        <ele>612</ele>
        <time>2022-10-19T07:15:34.000Z</time>
      </trkpt>
      <trkpt lat="43.53376" lon="5.63743">
        <ele>612</ele>
        <time>2022-10-19T07:15:35.000Z</time>
      </trkpt>
      <trkpt lat="43.53376" lon="5.63743">
        <ele>612</ele>
        <time>2022-10-19T07:15:36.000Z</time>
      </trkpt>
      <trkpt lat="43.53376" lon="5.63744">
        <ele>613</ele>
        <time>2022-10-19T07:15:37.000Z</time>
      </trkpt>
      <trkpt lat="43.53377" lon="5.63745">
        <ele>613</ele>
        <time>2022-10-19T07:15:38.000Z</time>
      </trkpt>
      <trkpt lat="43.53377" lon="5.63746">
        <ele>613</ele>
        <time>2022-10-19T07:15:39.000Z</time>
      </trkpt>
      <trkpt lat="43.53377" lon="5.63747">
        <ele>613</ele>
        <time>2022-10-19T07:15:40.000Z</time>
      </trkpt>
      <trkpt lat="43.53377" lon="5.63748">
        <ele>613</ele>
        <time>2022-10-19T07:15:41.000Z</time>
      </trkpt>
      <trkpt lat="43.53377" lon="5.63748">
        <ele>613</ele>
        <time>2022-10-19T07:15:42.000Z</time>
      </trkpt>
      <trkpt lat="43.53377" lon="5.63749">
        <ele>613</ele>
        <time>2022-10-19T07:15:43.000Z</time>
      </trkpt>
      <trkpt lat="43.53377" lon="5.6375">
        <ele>613</ele>
        <time>2022-10-19T07:15:44.000Z</time>
      </trkpt>
      <trkpt lat="43.53377" lon="5.6375">
        <ele>613</ele>
        <time>2022-10-19T07:15:45.000Z</time>
      </trkpt>
      <trkpt lat="43.53377" lon="5.63751">
        <ele>613</ele>
        <time>2022-10-19T07:15:46.000Z</time>
      </trkpt>
      <trkpt lat="43.53378" lon="5.63752">
        <ele>613</ele>
        <time>2022-10-19T07:15:47.000Z</time>
      </trkpt>
      <trkpt lat="43.53378" lon="5.63753">
        <ele>614</ele>
        <time>2022-10-19T07:15:48.000Z</time>
      </trkpt>
      <trkpt lat="43.53378" lon="5.63753">
        <ele>614</ele>
        <time>2022-10-19T07:15:49.000Z</time>
      </trkpt>
      <trkpt lat="43.53378" lon="5.63754">
        <ele>614</ele>
        <time>2022-10-19T07:15:50.000Z</time>
      </trkpt>
      <trkpt lat="43.53378" lon="5.63754">
        <ele>614</ele>
        <time>2022-10-19T07:15:51.000Z</time>
      </trkpt>
      <trkpt lat="43.53378" lon="5.63755">
        <ele>614</ele>
        <time>2022-10-19T07:15:52.000Z</time>
      </trkpt>
      <trkpt lat="43.53379" lon="5.63756">
        <ele>614</ele>
        <time>2022-10-19T07:15:53.000Z</time>
      </trkpt>
      <trkpt lat="43.53379" lon="5.63757">
        <ele>615</ele>
        <time>2022-10-19T07:15:54.000Z</time>
      </trkpt>
      <trkpt lat="43.53379" lon="5.63757">
        <ele>615</ele>
        <time>2022-10-19T07:15:55.000Z</time>
      </trkpt>
      <trkpt lat="43.53379" lon="5.63758">
        <ele>615</ele>
        <time>2022-10-19T07:15:56.000Z</time>
      </trkpt>
      <trkpt lat="43.53378" lon="5.63759">
        <ele>615</ele>
        <time>2022-10-19T07:15:57.000Z</time>
      </trkpt>
      <trkpt lat="43.53378" lon="5.6376">
        <ele>616</ele>
        <time>2022-10-19T07:15:58.000Z</time>
      </trkpt>
      <trkpt lat="43.53378" lon="5.6376">
        <ele>616</ele>
        <time>2022-10-19T07:15:59.000Z</time>
      </trkpt>
      <trkpt lat="43.53378" lon="5.63761">
        <ele>616</ele>
        <time>2022-10-19T07:16:00.000Z</time>
      </trkpt>
      <trkpt lat="43.53378" lon="5.63762">
        <ele>616</ele>
        <time>2022-10-19T07:16:01.000Z</time>
      </trkpt>
      <trkpt lat="43.53378" lon="5.63763">
        <ele>617</ele>
        <time>2022-10-19T07:16:02.000Z</time>
      </trkpt>
      <trkpt lat="43.53379" lon="5.63764">
        <ele>617</ele>
        <time>2022-10-19T07:16:03.000Z</time>
      </trkpt>
      <trkpt lat="43.53378" lon="5.63765">
        <ele>617</ele>
        <time>2022-10-19T07:16:04.000Z</time>
      </trkpt>
      <trkpt lat="43.53378" lon="5.63766">
        <ele>617</ele>
        <time>2022-10-19T07:16:05.000Z</time>
      </trkpt>
      <trkpt lat="43.53377" lon="5.63767">
        <ele>617</ele>
        <time>2022-10-19T07:16:06.000Z</time>
      </trkpt>
      <trkpt lat="43.53376" lon="5.63768">
        <ele>617</ele>
        <time>2022-10-19T07:16:07.000Z</time>
      </trkpt>
      <trkpt lat="43.53376" lon="5.63768">
        <ele>617</ele>
        <time>2022-10-19T07:16:08.000Z</time>
      </trkpt>
      <trkpt lat="43.53375" lon="5.63769">
        <ele>617</ele>
        <time>2022-10-19T07:16:09.000Z</time>
      </trkpt>
      <trkpt lat="43.53375" lon="5.6377">
        <ele>617</ele>
        <time>2022-10-19T07:16:10.000Z</time>
      </trkpt>
      <trkpt lat="43.53375" lon="5.63771">
        <ele>617</ele>
        <time>2022-10-19T07:16:11.000Z</time>
      </trkpt>
      <trkpt lat="43.53375" lon="5.63772">
        <ele>617</ele>
        <time>2022-10-19T07:16:12.000Z</time>
      </trkpt>
      <trkpt lat="43.53375" lon="5.63772">
        <ele>617</ele>
        <time>2022-10-19T07:16:13.000Z</time>
      </trkpt>
      <trkpt lat="43.53375" lon="5.63772">
        <ele>617</ele>
        <time>2022-10-19T07:16:14.000Z</time>
      </trkpt>
      <trkpt lat="43.53375" lon="5.63773">
        <ele>617</ele>
        <time>2022-10-19T07:16:15.000Z</time>
      </trkpt>
      <trkpt lat="43.53374" lon="5.63773">
        <ele>618</ele>
        <time>2022-10-19T07:16:16.000Z</time>
      </trkpt>
      <trkpt lat="43.53374" lon="5.63773">
        <ele>618</ele>
        <time>2022-10-19T07:16:17.000Z</time>
      </trkpt>
      <trkpt lat="43.53374" lon="5.63773">
        <ele>618</ele>
        <time>2022-10-19T07:16:18.000Z</time>
      </trkpt>
      <trkpt lat="43.53374" lon="5.63773">
        <ele>618</ele>
        <time>2022-10-19T07:16:19.000Z</time>
      </trkpt>
      <trkpt lat="43.53374" lon="5.63773">
        <ele>618</ele>
        <time>2022-10-19T07:16:20.000Z</time>
      </trkpt>
      <trkpt lat="43.53374" lon="5.63773">
        <ele>618</ele>
        <time>2022-10-19T07:16:21.000Z</time>
      </trkpt>
      <trkpt lat="43.53374" lon="5.63773">
        <ele>618</ele>
        <time>2022-10-19T07:16:22.000Z</time>
      </trkpt>
      <trkpt lat="43.53374" lon="5.63773">
        <ele>618</ele>
        <time>2022-10-19T07:16:23.000Z</time>
      </trkpt>
      <trkpt lat="43.53374" lon="5.63773">
        <ele>618</ele>
        <time>2022-10-19T07:16:24.000Z</time>
      </trkpt>
      <trkpt lat="43.53374" lon="5.63773">
        <ele>618</ele>
        <time>2022-10-19T07:16:25.000Z</time>
      </trkpt>
      <trkpt lat="43.53374" lon="5.63773">
        <ele>618</ele>
        <time>2022-10-19T07:16:26.000Z</time>
      </trkpt>
      <trkpt lat="43.53374" lon="5.63773">
        <ele>618</ele>
        <time>2022-10-19T07:16:27.000Z</time>
      </trkpt>
      <trkpt lat="43.53374" lon="5.63773">
        <ele>618</ele>
        <time>2022-10-19T07:16:28.000Z</time>
      </trkpt>
      <trkpt lat="43.53374" lon="5.63774">
        <ele>618</ele>
        <time>2022-10-19T07:16:29.000Z</time>
      </trkpt>
      <trkpt lat="43.53373" lon="5.63774">
        <ele>618</ele>
        <time>2022-10-19T07:16:30.000Z</time>
      </trkpt>
      <trkpt lat="43.53373" lon="5.63774">
        <ele>618</ele>
        <time>2022-10-19T07:16:31.000Z</time>
      </trkpt>
      <trkpt lat="43.53373" lon="5.63774">
        <ele>618</ele>
        <time>2022-10-19T07:16:32.000Z</time>
      </trkpt>
      <trkpt lat="43.53373" lon="5.63774">
        <ele>618</ele>
        <time>2022-10-19T07:16:33.000Z</time>
      </trkpt>
      <trkpt lat="43.53373" lon="5.63774">
        <ele>618</ele>
        <time>2022-10-19T07:16:34.000Z</time>
      </trkpt>
      <trkpt lat="43.53373" lon="5.63774">
        <ele>618</ele>
        <time>2022-10-19T07:16:35.000Z</time>
      </trkpt>
      <trkpt lat="43.53373" lon="5.63774">
        <ele>618</ele>
        <time>2022-10-19T07:16:36.000Z</time>
      </trkpt>
      <trkpt lat="43.53373" lon="5.63774">
        <ele>618</ele>
        <time>2022-10-19T07:16:37.000Z</time>
      </trkpt>
      <trkpt lat="43.53373" lon="5.63774">
        <ele>618</ele>
        <time>2022-10-19T07:16:38.000Z</time>
      </trkpt>
      <trkpt lat="43.53373" lon="5.63774">
        <ele>618</ele>
        <time>2022-10-19T07:16:39.000Z</time>
      </trkpt>
      <trkpt lat="43.53373" lon="5.63774">
        <ele>618</ele>
        <time>2022-10-19T07:16:40.000Z</time>
      </trkpt>
      <trkpt lat="43.53373" lon="5.63774">
        <ele>618</ele>
        <time>2022-10-19T07:16:41.000Z</time>
      </trkpt>
      <trkpt lat="43.53373" lon="5.63773">
        <ele>618</ele>
        <time>2022-10-19T07:16:42.000Z</time>
      </trkpt>
      <trkpt lat="43.53373" lon="5.63773">
        <ele>618</ele>
        <time>2022-10-19T07:16:43.000Z</time>
      </trkpt>
      <trkpt lat="43.53373" lon="5.63773">
        <ele>618</ele>
        <time>2022-10-19T07:16:44.000Z</time>
      </trkpt>
      <trkpt lat="43.53373" lon="5.63773">
        <ele>618</ele>
        <time>2022-10-19T07:16:45.000Z</time>
      </trkpt>
      <trkpt lat="43.53373" lon="5.63773">
        <ele>618</ele>
        <time>2022-10-19T07:16:46.000Z</time>
      </trkpt>
      <trkpt lat="43.53373" lon="5.63773">
        <ele>618</ele>
        <time>2022-10-19T07:16:47.000Z</time>
      </trkpt>
      <trkpt lat="43.53373" lon="5.63773">
        <ele>618</ele>
        <time>2022-10-19T07:16:48.000Z</time>
      </trkpt>
      <trkpt lat="43.53373" lon="5.63773">
        <ele>618</ele>
        <time>2022-10-19T07:16:49.000Z</time>
      </trkpt>
      <trkpt lat="43.53373" lon="5.63773">
        <ele>618</ele>
        <time>2022-10-19T07:16:50.000Z</time>
      </trkpt>
      <trkpt lat="43.53373" lon="5.63773">
        <ele>617</ele>
        <time>2022-10-19T07:16:51.000Z</time>
      </trkpt>
      <trkpt lat="43.53373" lon="5.63773">
        <ele>617</ele>
        <time>2022-10-19T07:16:52.000Z</time>
      </trkpt>
      <trkpt lat="43.53373" lon="5.63773">
        <ele>617</ele>
        <time>2022-10-19T07:16:53.000Z</time>
      </trkpt>
      <trkpt lat="43.53373" lon="5.63773">
        <ele>617</ele>
        <time>2022-10-19T07:16:54.000Z</time>
      </trkpt>
      <trkpt lat="43.53373" lon="5.63773">
        <ele>617</ele>
        <time>2022-10-19T07:16:55.000Z</time>
      </trkpt>
      <trkpt lat="43.53373" lon="5.63772">
        <ele>617</ele>
        <time>2022-10-19T07:16:56.000Z</time>
      </trkpt>
      <trkpt lat="43.53373" lon="5.63772">
        <ele>617</ele>
        <time>2022-10-19T07:16:57.000Z</time>
      </trkpt>
      <trkpt lat="43.53373" lon="5.63772">
        <ele>617</ele>
        <time>2022-10-19T07:16:58.000Z</time>
      </trkpt>
      <trkpt lat="43.53373" lon="5.63772">
        <ele>617</ele>
        <time>2022-10-19T07:16:59.000Z</time>
      </trkpt>
      <trkpt lat="43.53373" lon="5.63772">
        <ele>617</ele>
        <time>2022-10-19T07:17:00.000Z</time>
      </trkpt>
      <trkpt lat="43.53373" lon="5.63772">
        <ele>617</ele>
        <time>2022-10-19T07:17:01.000Z</time>
      </trkpt>
      <trkpt lat="43.53373" lon="5.63772">
        <ele>617</ele>
        <time>2022-10-19T07:17:02.000Z</time>
      </trkpt>
      <trkpt lat="43.53373" lon="5.63772">
        <ele>617</ele>
        <time>2022-10-19T07:17:03.000Z</time>
      </trkpt>
      <trkpt lat="43.53373" lon="5.63772">
        <ele>617</ele>
        <time>2022-10-19T07:17:04.000Z</time>
      </trkpt>
      <trkpt lat="43.53373" lon="5.63772">
        <ele>617</ele>
        <time>2022-10-19T07:17:05.000Z</time>
      </trkpt>
      <trkpt lat="43.53373" lon="5.63772">
        <ele>617</ele>
        <time>2022-10-19T07:17:06.000Z</time>
      </trkpt>
      <trkpt lat="43.53373" lon="5.63772">
        <ele>617</ele>
        <time>2022-10-19T07:17:07.000Z</time>
      </trkpt>
      <trkpt lat="43.53373" lon="5.63772">
        <ele>617</ele>
        <time>2022-10-19T07:17:08.000Z</time>
      </trkpt>
      <trkpt lat="43.53373" lon="5.63772">
        <ele>617</ele>
        <time>2022-10-19T07:17:09.000Z</time>
      </trkpt>
      <trkpt lat="43.53373" lon="5.63772">
        <ele>617</ele>
        <time>2022-10-19T07:17:10.000Z</time>
      </trkpt>
      <trkpt lat="43.53373" lon="5.63772">
        <ele>617</ele>
        <time>2022-10-19T07:17:11.000Z</time>
      </trkpt>
      <trkpt lat="43.53373" lon="5.63772">
        <ele>617</ele>
        <time>2022-10-19T07:17:12.000Z</time>
      </trkpt>
      <trkpt lat="43.53373" lon="5.63772">
        <ele>617</ele>
        <time>2022-10-19T07:17:13.000Z</time>
      </trkpt>
      <trkpt lat="43.53373" lon="5.63772">
        <ele>617</ele>
        <time>2022-10-19T07:17:14.000Z</time>
      </trkpt>
      <trkpt lat="43.53373" lon="5.63772">
        <ele>617</ele>
        <time>2022-10-19T07:17:15.000Z</time>
      </trkpt>
      <trkpt lat="43.53373" lon="5.63772">
        <ele>617</ele>
        <time>2022-10-19T07:17:16.000Z</time>
      </trkpt>
      <trkpt lat="43.53373" lon="5.63772">
        <ele>617</ele>
        <time>2022-10-19T07:17:17.000Z</time>
      </trkpt>
      <trkpt lat="43.53373" lon="5.63772">
        <ele>617</ele>
        <time>2022-10-19T07:17:18.000Z</time>
      </trkpt>
      <trkpt lat="43.53373" lon="5.63772">
        <ele>617</ele>
        <time>2022-10-19T07:17:19.000Z</time>
      </trkpt>
      <trkpt lat="43.53373" lon="5.63772">
        <ele>617</ele>
        <time>2022-10-19T07:17:20.000Z</time>
      </trkpt>
      <trkpt lat="43.53373" lon="5.63772">
        <ele>617</ele>
        <time>2022-10-19T07:17:21.000Z</time>
      </trkpt>
      <trkpt lat="43.53373" lon="5.63771">
        <ele>617</ele>
        <time>2022-10-19T07:17:22.000Z</time>
      </trkpt>
      <trkpt lat="43.53373" lon="5.63771">
        <ele>617</ele>
        <time>2022-10-19T07:17:23.000Z</time>
      </trkpt>
      <trkpt lat="43.53373" lon="5.63771">
        <ele>617</ele>
        <time>2022-10-19T07:17:24.000Z</time>
      </trkpt>
      <trkpt lat="43.53373" lon="5.63771">
        <ele>617</ele>
        <time>2022-10-19T07:17:25.000Z</time>
      </trkpt>
      <trkpt lat="43.53374" lon="5.63771">
        <ele>617</ele>
        <time>2022-10-19T07:17:26.000Z</time>
      </trkpt>
      <trkpt lat="43.53374" lon="5.63771">
        <ele>617</ele>
        <time>2022-10-19T07:17:27.000Z</time>
      </trkpt>
      <trkpt lat="43.53374" lon="5.63771">
        <ele>617</ele>
        <time>2022-10-19T07:17:28.000Z</time>
      </trkpt>
      <trkpt lat="43.53374" lon="5.63771">
        <ele>617</ele>
        <time>2022-10-19T07:17:29.000Z</time>
      </trkpt>
      <trkpt lat="43.53374" lon="5.63771">
        <ele>617</ele>
        <time>2022-10-19T07:17:30.000Z</time>
      </trkpt>
      <trkpt lat="43.53374" lon="5.63771">
        <ele>617</ele>
        <time>2022-10-19T07:17:31.000Z</time>
      </trkpt>
      <trkpt lat="43.53374" lon="5.63771">
        <ele>617</ele>
        <time>2022-10-19T07:17:32.000Z</time>
      </trkpt>
      <trkpt lat="43.53374" lon="5.63771">
        <ele>616</ele>
        <time>2022-10-19T07:17:33.000Z</time>
      </trkpt>
      <trkpt lat="43.53374" lon="5.63771">
        <ele>616</ele>
        <time>2022-10-19T07:17:34.000Z</time>
      </trkpt>
      <trkpt lat="43.53374" lon="5.63771">
        <ele>616</ele>
        <time>2022-10-19T07:17:35.000Z</time>
      </trkpt>
      <trkpt lat="43.53374" lon="5.63771">
        <ele>616</ele>
        <time>2022-10-19T07:17:36.000Z</time>
      </trkpt>
      <trkpt lat="43.53374" lon="5.63771">
        <ele>616</ele>
        <time>2022-10-19T07:17:37.000Z</time>
      </trkpt>
      <trkpt lat="43.53374" lon="5.63771">
        <ele>616</ele>
        <time>2022-10-19T07:17:38.000Z</time>
      </trkpt>
      <trkpt lat="43.53374" lon="5.63771">
        <ele>616</ele>
        <time>2022-10-19T07:17:39.000Z</time>
      </trkpt>
      <trkpt lat="43.53374" lon="5.63771">
        <ele>616</ele>
        <time>2022-10-19T07:17:40.000Z</time>
      </trkpt>
      <trkpt lat="43.53374" lon="5.63771">
        <ele>616</ele>
        <time>2022-10-19T07:17:41.000Z</time>
      </trkpt>
      <trkpt lat="43.53374" lon="5.63771">
        <ele>616</ele>
        <time>2022-10-19T07:17:42.000Z</time>
      </trkpt>
      <trkpt lat="43.53374" lon="5.63771">
        <ele>616</ele>
        <time>2022-10-19T07:17:43.000Z</time>
      </trkpt>
      <trkpt lat="43.53374" lon="5.63771">
        <ele>616</ele>
        <time>2022-10-19T07:17:44.000Z</time>
      </trkpt>
      <trkpt lat="43.53374" lon="5.63771">
        <ele>616</ele>
        <time>2022-10-19T07:17:45.000Z</time>
      </trkpt>
      <trkpt lat="43.53374" lon="5.63771">
        <ele>616</ele>
        <time>2022-10-19T07:17:46.000Z</time>
      </trkpt>
      <trkpt lat="43.53374" lon="5.63771">
        <ele>616</ele>
        <time>2022-10-19T07:17:47.000Z</time>
      </trkpt>
      <trkpt lat="43.53374" lon="5.63771">
        <ele>616</ele>
        <time>2022-10-19T07:17:48.000Z</time>
      </trkpt>
      <trkpt lat="43.53374" lon="5.63771">
        <ele>616</ele>
        <time>2022-10-19T07:17:49.000Z</time>
      </trkpt>
      <trkpt lat="43.53374" lon="5.63771">
        <ele>616</ele>
        <time>2022-10-19T07:17:50.000Z</time>
      </trkpt>
      <trkpt lat="43.53375" lon="5.63771">
        <ele>617</ele>
        <time>2022-10-19T07:17:51.000Z</time>
      </trkpt>
      <trkpt lat="43.53375" lon="5.63771">
        <ele>617</ele>
        <time>2022-10-19T07:17:52.000Z</time>
      </trkpt>
      <trkpt lat="43.53375" lon="5.63771">
        <ele>617</ele>
        <time>2022-10-19T07:17:53.000Z</time>
      </trkpt>
      <trkpt lat="43.53375" lon="5.63771">
        <ele>617</ele>
        <time>2022-10-19T07:17:54.000Z</time>
      </trkpt>
      <trkpt lat="43.53375" lon="5.63771">
        <ele>616</ele>
        <time>2022-10-19T07:17:55.000Z</time>
      </trkpt>
      <trkpt lat="43.53375" lon="5.63771">
        <ele>616</ele>
        <time>2022-10-19T07:17:56.000Z</time>
      </trkpt>
      <trkpt lat="43.53375" lon="5.63771">
        <ele>616</ele>
        <time>2022-10-19T07:17:57.000Z</time>
      </trkpt>
      <trkpt lat="43.53375" lon="5.63771">
        <ele>616</ele>
        <time>2022-10-19T07:17:58.000Z</time>
      </trkpt>
      <trkpt lat="43.53375" lon="5.63771">
        <ele>616</ele>
        <time>2022-10-19T07:17:59.000Z</time>
      </trkpt>
      <trkpt lat="43.53375" lon="5.63771">
        <ele>616</ele>
        <time>2022-10-19T07:18:00.000Z</time>
      </trkpt>
      <trkpt lat="43.53375" lon="5.63771">
        <ele>616</ele>
        <time>2022-10-19T07:18:01.000Z</time>
      </trkpt>
      <trkpt lat="43.53375" lon="5.63771">
        <ele>616</ele>
        <time>2022-10-19T07:18:02.000Z</time>
      </trkpt>
      <trkpt lat="43.53375" lon="5.63771">
        <ele>616</ele>
        <time>2022-10-19T07:18:03.000Z</time>
      </trkpt>
      <trkpt lat="43.53375" lon="5.63771">
        <ele>616</ele>
        <time>2022-10-19T07:18:04.000Z</time>
      </trkpt>
      <trkpt lat="43.53375" lon="5.63771">
        <ele>616</ele>
        <time>2022-10-19T07:18:05.000Z</time>
      </trkpt>
      <trkpt lat="43.53375" lon="5.63771">
        <ele>616</ele>
        <time>2022-10-19T07:18:06.000Z</time>
      </trkpt>
      <trkpt lat="43.53375" lon="5.63771">
        <ele>616</ele>
        <time>2022-10-19T07:18:07.000Z</time>
      </trkpt>
      <trkpt lat="43.53375" lon="5.63771">
        <ele>616</ele>
        <time>2022-10-19T07:18:08.000Z</time>
      </trkpt>
      <trkpt lat="43.53375" lon="5.63771">
        <ele>616</ele>
        <time>2022-10-19T07:18:09.000Z</time>
      </trkpt>
      <trkpt lat="43.53374" lon="5.63771">
        <ele>616</ele>
        <time>2022-10-19T07:18:10.000Z</time>
      </trkpt>
      <trkpt lat="43.53374" lon="5.63771">
        <ele>616</ele>
        <time>2022-10-19T07:18:11.000Z</time>
      </trkpt>
      <trkpt lat="43.53374" lon="5.63771">
        <ele>616</ele>
        <time>2022-10-19T07:18:12.000Z</time>
      </trkpt>
      <trkpt lat="43.53374" lon="5.63771">
        <ele>617</ele>
        <time>2022-10-19T07:18:13.000Z</time>
      </trkpt>
      <trkpt lat="43.53374" lon="5.63771">
        <ele>617</ele>
        <time>2022-10-19T07:18:14.000Z</time>
      </trkpt>
      <trkpt lat="43.53374" lon="5.63771">
        <ele>617</ele>
        <time>2022-10-19T07:18:15.000Z</time>
      </trkpt>
      <trkpt lat="43.53374" lon="5.63772">
        <ele>617</ele>
        <time>2022-10-19T07:18:16.000Z</time>
      </trkpt>
      <trkpt lat="43.53374" lon="5.63772">
        <ele>617</ele>
        <time>2022-10-19T07:18:17.000Z</time>
      </trkpt>
      <trkpt lat="43.53374" lon="5.63772">
        <ele>617</ele>
        <time>2022-10-19T07:18:18.000Z</time>
      </trkpt>
      <trkpt lat="43.53374" lon="5.63771">
        <ele>617</ele>
        <time>2022-10-19T07:18:19.000Z</time>
      </trkpt>
      <trkpt lat="43.53374" lon="5.63771">
        <ele>617</ele>
        <time>2022-10-19T07:18:20.000Z</time>
      </trkpt>
      <trkpt lat="43.53375" lon="5.6377">
        <ele>617</ele>
        <time>2022-10-19T07:18:21.000Z</time>
      </trkpt>
      <trkpt lat="43.53375" lon="5.63769">
        <ele>617</ele>
        <time>2022-10-19T07:18:22.000Z</time>
      </trkpt>
      <trkpt lat="43.53376" lon="5.63769">
        <ele>617</ele>
        <time>2022-10-19T07:18:23.000Z</time>
      </trkpt>
      <trkpt lat="43.53377" lon="5.63769">
        <ele>617</ele>
        <time>2022-10-19T07:18:24.000Z</time>
      </trkpt>
      <trkpt lat="43.53378" lon="5.63769">
        <ele>617</ele>
        <time>2022-10-19T07:18:25.000Z</time>
      </trkpt>
      <trkpt lat="43.53379" lon="5.63769">
        <ele>617</ele>
        <time>2022-10-19T07:18:26.000Z</time>
      </trkpt>
      <trkpt lat="43.5338" lon="5.6377">
        <ele>617</ele>
        <time>2022-10-19T07:18:27.000Z</time>
      </trkpt>
      <trkpt lat="43.53381" lon="5.6377">
        <ele>617</ele>
        <time>2022-10-19T07:18:28.000Z</time>
      </trkpt>
      <trkpt lat="43.53382" lon="5.6377">
        <ele>617</ele>
        <time>2022-10-19T07:18:29.000Z</time>
      </trkpt>
      <trkpt lat="43.53383" lon="5.6377">
        <ele>617</ele>
        <time>2022-10-19T07:18:30.000Z</time>
      </trkpt>
      <trkpt lat="43.53384" lon="5.63771">
        <ele>617</ele>
        <time>2022-10-19T07:18:31.000Z</time>
      </trkpt>
      <trkpt lat="43.53385" lon="5.63771">
        <ele>617</ele>
        <time>2022-10-19T07:18:32.000Z</time>
      </trkpt>
      <trkpt lat="43.53386" lon="5.63771">
        <ele>617</ele>
        <time>2022-10-19T07:18:33.000Z</time>
      </trkpt>
      <trkpt lat="43.53387" lon="5.63772">
        <ele>617</ele>
        <time>2022-10-19T07:18:34.000Z</time>
      </trkpt>
      <trkpt lat="43.53387" lon="5.63772">
        <ele>618</ele>
        <time>2022-10-19T07:18:35.000Z</time>
      </trkpt>
      <trkpt lat="43.53388" lon="5.63772">
        <ele>618</ele>
        <time>2022-10-19T07:18:36.000Z</time>
      </trkpt>
      <trkpt lat="43.53389" lon="5.63772">
        <ele>618</ele>
        <time>2022-10-19T07:18:37.000Z</time>
      </trkpt>
      <trkpt lat="43.5339" lon="5.63772">
        <ele>618</ele>
        <time>2022-10-19T07:18:38.000Z</time>
      </trkpt>
      <trkpt lat="43.5339" lon="5.63772">
        <ele>618</ele>
        <time>2022-10-19T07:18:39.000Z</time>
      </trkpt>
      <trkpt lat="43.53391" lon="5.63773">
        <ele>618</ele>
        <time>2022-10-19T07:18:40.000Z</time>
      </trkpt>
      <trkpt lat="43.53392" lon="5.63773">
        <ele>619</ele>
        <time>2022-10-19T07:18:41.000Z</time>
      </trkpt>
      <trkpt lat="43.53392" lon="5.63773">
        <ele>619</ele>
        <time>2022-10-19T07:18:42.000Z</time>
      </trkpt>
      <trkpt lat="43.53393" lon="5.63773">
        <ele>619</ele>
        <time>2022-10-19T07:18:43.000Z</time>
      </trkpt>
      <trkpt lat="43.53394" lon="5.63773">
        <ele>619</ele>
        <time>2022-10-19T07:18:44.000Z</time>
      </trkpt>
      <trkpt lat="43.53394" lon="5.63773">
        <ele>619</ele>
        <time>2022-10-19T07:18:45.000Z</time>
      </trkpt>
      <trkpt lat="43.53394" lon="5.63773">
        <ele>619</ele>
        <time>2022-10-19T07:18:46.000Z</time>
      </trkpt>
      <trkpt lat="43.53394" lon="5.63773">
        <ele>619</ele>
        <time>2022-10-19T07:18:47.000Z</time>
      </trkpt>
      <trkpt lat="43.53395" lon="5.63773">
        <ele>620</ele>
        <time>2022-10-19T07:18:48.000Z</time>
      </trkpt>
      <trkpt lat="43.53395" lon="5.63774">
        <ele>620</ele>
        <time>2022-10-19T07:18:49.000Z</time>
      </trkpt>
      <trkpt lat="43.53396" lon="5.63774">
        <ele>620</ele>
        <time>2022-10-19T07:18:50.000Z</time>
      </trkpt>
      <trkpt lat="43.53396" lon="5.63775">
        <ele>620</ele>
        <time>2022-10-19T07:18:51.000Z</time>
      </trkpt>
      <trkpt lat="43.53397" lon="5.63775">
        <ele>620</ele>
        <time>2022-10-19T07:18:52.000Z</time>
      </trkpt>
      <trkpt lat="43.53398" lon="5.63776">
        <ele>620</ele>
        <time>2022-10-19T07:18:53.000Z</time>
      </trkpt>
      <trkpt lat="43.53398" lon="5.63776">
        <ele>620</ele>
        <time>2022-10-19T07:18:54.000Z</time>
      </trkpt>
      <trkpt lat="43.53399" lon="5.63776">
        <ele>620</ele>
        <time>2022-10-19T07:18:55.000Z</time>
      </trkpt>
      <trkpt lat="43.534" lon="5.63777">
        <ele>620</ele>
        <time>2022-10-19T07:18:56.000Z</time>
      </trkpt>
      <trkpt lat="43.534" lon="5.63777">
        <ele>620</ele>
        <time>2022-10-19T07:18:57.000Z</time>
      </trkpt>
      <trkpt lat="43.534" lon="5.63777">
        <ele>620</ele>
        <time>2022-10-19T07:18:58.000Z</time>
      </trkpt>
      <trkpt lat="43.53401" lon="5.63777">
        <ele>620</ele>
        <time>2022-10-19T07:18:59.000Z</time>
      </trkpt>
      <trkpt lat="43.53402" lon="5.63778">
        <ele>620</ele>
        <time>2022-10-19T07:19:00.000Z</time>
      </trkpt>
      <trkpt lat="43.53402" lon="5.63778">
        <ele>620</ele>
        <time>2022-10-19T07:19:01.000Z</time>
      </trkpt>
      <trkpt lat="43.53402" lon="5.63778">
        <ele>620</ele>
        <time>2022-10-19T07:19:02.000Z</time>
      </trkpt>
      <trkpt lat="43.53403" lon="5.63779">
        <ele>620</ele>
        <time>2022-10-19T07:19:03.000Z</time>
      </trkpt>
      <trkpt lat="43.53403" lon="5.63779">
        <ele>621</ele>
        <time>2022-10-19T07:19:04.000Z</time>
      </trkpt>
      <trkpt lat="43.53404" lon="5.63779">
        <ele>621</ele>
        <time>2022-10-19T07:19:05.000Z</time>
      </trkpt>
      <trkpt lat="43.53404" lon="5.63778">
        <ele>621</ele>
        <time>2022-10-19T07:19:06.000Z</time>
      </trkpt>
      <trkpt lat="43.53405" lon="5.63778">
        <ele>621</ele>
        <time>2022-10-19T07:19:07.000Z</time>
      </trkpt>
      <trkpt lat="43.53405" lon="5.63778">
        <ele>621</ele>
        <time>2022-10-19T07:19:08.000Z</time>
      </trkpt>
      <trkpt lat="43.53406" lon="5.63778">
        <ele>621</ele>
        <time>2022-10-19T07:19:09.000Z</time>
      </trkpt>
      <trkpt lat="43.53406" lon="5.63779">
        <ele>621</ele>
        <time>2022-10-19T07:19:10.000Z</time>
      </trkpt>
      <trkpt lat="43.53407" lon="5.63778">
        <ele>622</ele>
        <time>2022-10-19T07:19:11.000Z</time>
      </trkpt>
      <trkpt lat="43.53407" lon="5.63778">
        <ele>622</ele>
        <time>2022-10-19T07:19:12.000Z</time>
      </trkpt>
      <trkpt lat="43.53408" lon="5.63778">
        <ele>622</ele>
        <time>2022-10-19T07:19:13.000Z</time>
      </trkpt>
      <trkpt lat="43.53408" lon="5.63778">
        <ele>622</ele>
        <time>2022-10-19T07:19:14.000Z</time>
      </trkpt>
      <trkpt lat="43.53409" lon="5.63778">
        <ele>622</ele>
        <time>2022-10-19T07:19:15.000Z</time>
      </trkpt>
      <trkpt lat="43.53409" lon="5.63778">
        <ele>622</ele>
        <time>2022-10-19T07:19:16.000Z</time>
      </trkpt>
      <trkpt lat="43.5341" lon="5.63778">
        <ele>622</ele>
        <time>2022-10-19T07:19:17.000Z</time>
      </trkpt>
      <trkpt lat="43.5341" lon="5.63778">
        <ele>622</ele>
        <time>2022-10-19T07:19:18.000Z</time>
      </trkpt>
      <trkpt lat="43.5341" lon="5.63778">
        <ele>622</ele>
        <time>2022-10-19T07:19:19.000Z</time>
      </trkpt>
      <trkpt lat="43.5341" lon="5.63778">
        <ele>622</ele>
        <time>2022-10-19T07:19:20.000Z</time>
      </trkpt>
      <trkpt lat="43.53411" lon="5.63779">
        <ele>622</ele>
        <time>2022-10-19T07:19:21.000Z</time>
      </trkpt>
      <trkpt lat="43.53411" lon="5.63779">
        <ele>622</ele>
        <time>2022-10-19T07:19:22.000Z</time>
      </trkpt>
      <trkpt lat="43.53411" lon="5.63778">
        <ele>623</ele>
        <time>2022-10-19T07:19:23.000Z</time>
      </trkpt>
      <trkpt lat="43.53411" lon="5.63778">
        <ele>623</ele>
        <time>2022-10-19T07:19:24.000Z</time>
      </trkpt>
      <trkpt lat="43.53411" lon="5.63778">
        <ele>623</ele>
        <time>2022-10-19T07:19:25.000Z</time>
      </trkpt>
      <trkpt lat="43.5341" lon="5.63778">
        <ele>623</ele>
        <time>2022-10-19T07:19:26.000Z</time>
      </trkpt>
      <trkpt lat="43.5341" lon="5.63778">
        <ele>623</ele>
        <time>2022-10-19T07:19:27.000Z</time>
      </trkpt>
      <trkpt lat="43.53409" lon="5.63777">
        <ele>623</ele>
        <time>2022-10-19T07:19:28.000Z</time>
      </trkpt>
      <trkpt lat="43.53409" lon="5.63776">
        <ele>623</ele>
        <time>2022-10-19T07:19:29.000Z</time>
      </trkpt>
      <trkpt lat="43.53408" lon="5.63776">
        <ele>623</ele>
        <time>2022-10-19T07:19:30.000Z</time>
      </trkpt>
      <trkpt lat="43.53408" lon="5.63775">
        <ele>623</ele>
        <time>2022-10-19T07:19:31.000Z</time>
      </trkpt>
      <trkpt lat="43.53408" lon="5.63774">
        <ele>623</ele>
        <time>2022-10-19T07:19:32.000Z</time>
      </trkpt>
      <trkpt lat="43.53407" lon="5.63774">
        <ele>624</ele>
        <time>2022-10-19T07:19:33.000Z</time>
      </trkpt>
      <trkpt lat="43.53407" lon="5.63773">
        <ele>624</ele>
        <time>2022-10-19T07:19:34.000Z</time>
      </trkpt>
      <trkpt lat="43.53407" lon="5.63774">
        <ele>624</ele>
        <time>2022-10-19T07:19:35.000Z</time>
      </trkpt>
      <trkpt lat="43.53407" lon="5.63774">
        <ele>624</ele>
        <time>2022-10-19T07:19:36.000Z</time>
      </trkpt>
      <trkpt lat="43.53407" lon="5.63774">
        <ele>624</ele>
        <time>2022-10-19T07:19:37.000Z</time>
      </trkpt>
      <trkpt lat="43.53407" lon="5.63774">
        <ele>624</ele>
        <time>2022-10-19T07:19:38.000Z</time>
      </trkpt>
      <trkpt lat="43.53407" lon="5.63773">
        <ele>624</ele>
        <time>2022-10-19T07:19:39.000Z</time>
      </trkpt>
      <trkpt lat="43.53407" lon="5.63773">
        <ele>624</ele>
        <time>2022-10-19T07:19:40.000Z</time>
      </trkpt>
      <trkpt lat="43.53407" lon="5.63772">
        <ele>624</ele>
        <time>2022-10-19T07:19:41.000Z</time>
      </trkpt>
      <trkpt lat="43.53407" lon="5.63771">
        <ele>624</ele>
        <time>2022-10-19T07:19:42.000Z</time>
      </trkpt>
      <trkpt lat="43.53407" lon="5.63771">
        <ele>624</ele>
        <time>2022-10-19T07:19:43.000Z</time>
      </trkpt>
      <trkpt lat="43.53408" lon="5.63771">
        <ele>624</ele>
        <time>2022-10-19T07:19:44.000Z</time>
      </trkpt>
      <trkpt lat="43.53408" lon="5.63771">
        <ele>624</ele>
        <time>2022-10-19T07:19:45.000Z</time>
      </trkpt>
      <trkpt lat="43.53409" lon="5.6377">
        <ele>625</ele>
        <time>2022-10-19T07:19:46.000Z</time>
      </trkpt>
      <trkpt lat="43.5341" lon="5.6377">
        <ele>625</ele>
        <time>2022-10-19T07:19:47.000Z</time>
      </trkpt>
      <trkpt lat="43.5341" lon="5.6377">
        <ele>625</ele>
        <time>2022-10-19T07:19:48.000Z</time>
      </trkpt>
      <trkpt lat="43.53411" lon="5.6377">
        <ele>625</ele>
        <time>2022-10-19T07:19:49.000Z</time>
      </trkpt>
      <trkpt lat="43.53411" lon="5.6377">
        <ele>625</ele>
        <time>2022-10-19T07:19:50.000Z</time>
      </trkpt>
      <trkpt lat="43.53411" lon="5.6377">
        <ele>625</ele>
        <time>2022-10-19T07:19:51.000Z</time>
      </trkpt>
      <trkpt lat="43.53411" lon="5.6377">
        <ele>625</ele>
        <time>2022-10-19T07:19:52.000Z</time>
      </trkpt>
      <trkpt lat="43.53411" lon="5.63769">
        <ele>625</ele>
        <time>2022-10-19T07:19:53.000Z</time>
      </trkpt>
      <trkpt lat="43.53411" lon="5.63769">
        <ele>625</ele>
        <time>2022-10-19T07:19:54.000Z</time>
      </trkpt>
      <trkpt lat="43.53411" lon="5.63769">
        <ele>625</ele>
        <time>2022-10-19T07:19:55.000Z</time>
      </trkpt>
      <trkpt lat="43.53412" lon="5.6377">
        <ele>625</ele>
        <time>2022-10-19T07:19:56.000Z</time>
      </trkpt>
      <trkpt lat="43.53412" lon="5.6377">
        <ele>625</ele>
        <time>2022-10-19T07:19:57.000Z</time>
      </trkpt>
      <trkpt lat="43.53412" lon="5.63769">
        <ele>625</ele>
        <time>2022-10-19T07:19:58.000Z</time>
      </trkpt>
      <trkpt lat="43.53412" lon="5.63769">
        <ele>625</ele>
        <time>2022-10-19T07:19:59.000Z</time>
      </trkpt>
      <trkpt lat="43.53412" lon="5.63769">
        <ele>625</ele>
        <time>2022-10-19T07:20:00.000Z</time>
      </trkpt>
      <trkpt lat="43.53412" lon="5.63769">
        <ele>625</ele>
        <time>2022-10-19T07:20:01.000Z</time>
      </trkpt>
      <trkpt lat="43.53412" lon="5.63769">
        <ele>625</ele>
        <time>2022-10-19T07:20:02.000Z</time>
      </trkpt>
      <trkpt lat="43.53412" lon="5.63769">
        <ele>625</ele>
        <time>2022-10-19T07:20:03.000Z</time>
      </trkpt>
      <trkpt lat="43.53412" lon="5.63769">
        <ele>625</ele>
        <time>2022-10-19T07:20:04.000Z</time>
      </trkpt>
      <trkpt lat="43.53412" lon="5.63769">
        <ele>625</ele>
        <time>2022-10-19T07:20:05.000Z</time>
      </trkpt>
      <trkpt lat="43.53412" lon="5.63769">
        <ele>625</ele>
        <time>2022-10-19T07:20:06.000Z</time>
      </trkpt>
      <trkpt lat="43.53412" lon="5.63769">
        <ele>625</ele>
        <time>2022-10-19T07:20:07.000Z</time>
      </trkpt>
      <trkpt lat="43.53412" lon="5.63769">
        <ele>625</ele>
        <time>2022-10-19T07:20:08.000Z</time>
      </trkpt>
      <trkpt lat="43.53412" lon="5.63769">
        <ele>625</ele>
        <time>2022-10-19T07:20:09.000Z</time>
      </trkpt>
      <trkpt lat="43.53412" lon="5.63769">
        <ele>625</ele>
        <time>2022-10-19T07:20:10.000Z</time>
      </trkpt>
      <trkpt lat="43.53412" lon="5.63769">
        <ele>625</ele>
        <time>2022-10-19T07:20:11.000Z</time>
      </trkpt>
      <trkpt lat="43.53412" lon="5.63769">
        <ele>625</ele>
        <time>2022-10-19T07:20:12.000Z</time>
      </trkpt>
      <trkpt lat="43.53412" lon="5.63769">
        <ele>625</ele>
        <time>2022-10-19T07:20:13.000Z</time>
      </trkpt>
      <trkpt lat="43.53413" lon="5.63769">
        <ele>625</ele>
        <time>2022-10-19T07:20:14.000Z</time>
      </trkpt>
      <trkpt lat="43.53413" lon="5.63769">
        <ele>625</ele>
        <time>2022-10-19T07:20:15.000Z</time>
      </trkpt>
      <trkpt lat="43.53413" lon="5.63769">
        <ele>625</ele>
        <time>2022-10-19T07:20:16.000Z</time>
      </trkpt>
      <trkpt lat="43.53413" lon="5.63769">
        <ele>625</ele>
        <time>2022-10-19T07:20:17.000Z</time>
      </trkpt>
      <trkpt lat="43.53413" lon="5.63769">
        <ele>625</ele>
        <time>2022-10-19T07:20:18.000Z</time>
      </trkpt>
      <trkpt lat="43.53413" lon="5.63769">
        <ele>625</ele>
        <time>2022-10-19T07:20:19.000Z</time>
      </trkpt>
      <trkpt lat="43.53413" lon="5.63769">
        <ele>625</ele>
        <time>2022-10-19T07:20:20.000Z</time>
      </trkpt>
      <trkpt lat="43.53413" lon="5.63769">
        <ele>625</ele>
        <time>2022-10-19T07:20:21.000Z</time>
      </trkpt>
      <trkpt lat="43.53413" lon="5.6377">
        <ele>625</ele>
        <time>2022-10-19T07:20:22.000Z</time>
      </trkpt>
      <trkpt lat="43.53413" lon="5.6377">
        <ele>625</ele>
        <time>2022-10-19T07:20:23.000Z</time>
      </trkpt>
      <trkpt lat="43.53413" lon="5.6377">
        <ele>625</ele>
        <time>2022-10-19T07:20:24.000Z</time>
      </trkpt>
      <trkpt lat="43.53414" lon="5.6377">
        <ele>625</ele>
        <time>2022-10-19T07:20:25.000Z</time>
      </trkpt>
      <trkpt lat="43.53414" lon="5.6377">
        <ele>625</ele>
        <time>2022-10-19T07:20:26.000Z</time>
      </trkpt>
      <trkpt lat="43.53415" lon="5.6377">
        <ele>626</ele>
        <time>2022-10-19T07:20:27.000Z</time>
      </trkpt>
      <trkpt lat="43.53415" lon="5.6377">
        <ele>626</ele>
        <time>2022-10-19T07:20:28.000Z</time>
      </trkpt>
      <trkpt lat="43.53416" lon="5.6377">
        <ele>626</ele>
        <time>2022-10-19T07:20:29.000Z</time>
      </trkpt>
      <trkpt lat="43.53416" lon="5.6377">
        <ele>626</ele>
        <time>2022-10-19T07:20:30.000Z</time>
      </trkpt>
      <trkpt lat="43.53416" lon="5.6377">
        <ele>626</ele>
        <time>2022-10-19T07:20:31.000Z</time>
      </trkpt>
      <trkpt lat="43.53417" lon="5.63771">
        <ele>626</ele>
        <time>2022-10-19T07:20:32.000Z</time>
      </trkpt>
      <trkpt lat="43.53417" lon="5.63771">
        <ele>626</ele>
        <time>2022-10-19T07:20:33.000Z</time>
      </trkpt>
      <trkpt lat="43.53418" lon="5.63771">
        <ele>626</ele>
        <time>2022-10-19T07:20:34.000Z</time>
      </trkpt>
      <trkpt lat="43.53418" lon="5.6377">
        <ele>626</ele>
        <time>2022-10-19T07:20:35.000Z</time>
      </trkpt>
      <trkpt lat="43.53419" lon="5.6377">
        <ele>626</ele>
        <time>2022-10-19T07:20:36.000Z</time>
      </trkpt>
      <trkpt lat="43.53419" lon="5.6377">
        <ele>626</ele>
        <time>2022-10-19T07:20:37.000Z</time>
      </trkpt>
      <trkpt lat="43.53419" lon="5.6377">
        <ele>626</ele>
        <time>2022-10-19T07:20:38.000Z</time>
      </trkpt>
      <trkpt lat="43.5342" lon="5.6377">
        <ele>626</ele>
        <time>2022-10-19T07:20:39.000Z</time>
      </trkpt>
      <trkpt lat="43.5342" lon="5.63771">
        <ele>626</ele>
        <time>2022-10-19T07:20:40.000Z</time>
      </trkpt>
      <trkpt lat="43.53421" lon="5.63771">
        <ele>626</ele>
        <time>2022-10-19T07:20:41.000Z</time>
      </trkpt>
      <trkpt lat="43.53421" lon="5.63772">
        <ele>626</ele>
        <time>2022-10-19T07:20:42.000Z</time>
      </trkpt>
      <trkpt lat="43.53421" lon="5.63773">
        <ele>626</ele>
        <time>2022-10-19T07:20:43.000Z</time>
      </trkpt>
      <trkpt lat="43.53421" lon="5.63773">
        <ele>626</ele>
        <time>2022-10-19T07:20:44.000Z</time>
      </trkpt>
      <trkpt lat="43.53421" lon="5.63774">
        <ele>626</ele>
        <time>2022-10-19T07:20:45.000Z</time>
      </trkpt>
      <trkpt lat="43.53422" lon="5.63774">
        <ele>626</ele>
        <time>2022-10-19T07:20:46.000Z</time>
      </trkpt>
      <trkpt lat="43.53422" lon="5.63774">
        <ele>626</ele>
        <time>2022-10-19T07:20:47.000Z</time>
      </trkpt>
      <trkpt lat="43.53423" lon="5.63774">
        <ele>626</ele>
        <time>2022-10-19T07:20:48.000Z</time>
      </trkpt>
      <trkpt lat="43.53423" lon="5.63774">
        <ele>626</ele>
        <time>2022-10-19T07:20:49.000Z</time>
      </trkpt>
      <trkpt lat="43.53423" lon="5.63774">
        <ele>626</ele>
        <time>2022-10-19T07:20:50.000Z</time>
      </trkpt>
      <trkpt lat="43.53424" lon="5.63774">
        <ele>626</ele>
        <time>2022-10-19T07:20:51.000Z</time>
      </trkpt>
      <trkpt lat="43.53424" lon="5.63773">
        <ele>627</ele>
        <time>2022-10-19T07:20:52.000Z</time>
      </trkpt>
      <trkpt lat="43.53425" lon="5.63773">
        <ele>627</ele>
        <time>2022-10-19T07:20:53.000Z</time>
      </trkpt>
      <trkpt lat="43.53425" lon="5.63772">
        <ele>627</ele>
        <time>2022-10-19T07:20:54.000Z</time>
      </trkpt>
      <trkpt lat="43.53425" lon="5.63772">
        <ele>627</ele>
        <time>2022-10-19T07:20:55.000Z</time>
      </trkpt>
      <trkpt lat="43.53425" lon="5.63771">
        <ele>627</ele>
        <time>2022-10-19T07:20:56.000Z</time>
      </trkpt>
      <trkpt lat="43.53425" lon="5.63771">
        <ele>627</ele>
        <time>2022-10-19T07:20:57.000Z</time>
      </trkpt>
      <trkpt lat="43.53425" lon="5.63771">
        <ele>627</ele>
        <time>2022-10-19T07:20:58.000Z</time>
      </trkpt>
      <trkpt lat="43.53425" lon="5.6377">
        <ele>627</ele>
        <time>2022-10-19T07:20:59.000Z</time>
      </trkpt>
      <trkpt lat="43.53425" lon="5.6377">
        <ele>627</ele>
        <time>2022-10-19T07:21:00.000Z</time>
      </trkpt>
      <trkpt lat="43.53426" lon="5.6377">
        <ele>627</ele>
        <time>2022-10-19T07:21:01.000Z</time>
      </trkpt>
      <trkpt lat="43.53426" lon="5.6377">
        <ele>627</ele>
        <time>2022-10-19T07:21:02.000Z</time>
      </trkpt>
      <trkpt lat="43.53426" lon="5.6377">
        <ele>628</ele>
        <time>2022-10-19T07:21:03.000Z</time>
      </trkpt>
      <trkpt lat="43.53426" lon="5.6377">
        <ele>628</ele>
        <time>2022-10-19T07:21:04.000Z</time>
      </trkpt>
      <trkpt lat="43.53426" lon="5.6377">
        <ele>628</ele>
        <time>2022-10-19T07:21:05.000Z</time>
      </trkpt>
      <trkpt lat="43.53426" lon="5.6377">
        <ele>628</ele>
        <time>2022-10-19T07:21:06.000Z</time>
      </trkpt>
      <trkpt lat="43.53426" lon="5.6377">
        <ele>628</ele>
        <time>2022-10-19T07:21:07.000Z</time>
      </trkpt>
      <trkpt lat="43.53426" lon="5.6377">
        <ele>628</ele>
        <time>2022-10-19T07:21:08.000Z</time>
      </trkpt>
      <trkpt lat="43.53426" lon="5.6377">
        <ele>629</ele>
        <time>2022-10-19T07:21:09.000Z</time>
      </trkpt>
      <trkpt lat="43.53426" lon="5.6377">
        <ele>629</ele>
        <time>2022-10-19T07:21:10.000Z</time>
      </trkpt>
      <trkpt lat="43.53427" lon="5.6377">
        <ele>629</ele>
        <time>2022-10-19T07:21:11.000Z</time>
      </trkpt>
      <trkpt lat="43.53427" lon="5.6377">
        <ele>629</ele>
        <time>2022-10-19T07:21:12.000Z</time>
      </trkpt>
      <trkpt lat="43.53427" lon="5.6377">
        <ele>629</ele>
        <time>2022-10-19T07:21:13.000Z</time>
      </trkpt>
      <trkpt lat="43.53427" lon="5.6377">
        <ele>629</ele>
        <time>2022-10-19T07:21:14.000Z</time>
      </trkpt>
      <trkpt lat="43.53427" lon="5.6377">
        <ele>629</ele>
        <time>2022-10-19T07:21:15.000Z</time>
      </trkpt>
      <trkpt lat="43.53427" lon="5.6377">
        <ele>629</ele>
        <time>2022-10-19T07:21:16.000Z</time>
      </trkpt>
      <trkpt lat="43.53427" lon="5.6377">
        <ele>629</ele>
        <time>2022-10-19T07:21:17.000Z</time>
      </trkpt>
      <trkpt lat="43.53427" lon="5.6377">
        <ele>629</ele>
        <time>2022-10-19T07:21:18.000Z</time>
      </trkpt>
      <trkpt lat="43.53427" lon="5.6377">
        <ele>629</ele>
        <time>2022-10-19T07:21:19.000Z</time>
      </trkpt>
      <trkpt lat="43.53427" lon="5.6377">
        <ele>629</ele>
        <time>2022-10-19T07:21:20.000Z</time>
      </trkpt>
      <trkpt lat="43.53427" lon="5.6377">
        <ele>629</ele>
        <time>2022-10-19T07:21:21.000Z</time>
      </trkpt>
      <trkpt lat="43.53428" lon="5.6377">
        <ele>629</ele>
        <time>2022-10-19T07:21:22.000Z</time>
      </trkpt>
      <trkpt lat="43.53428" lon="5.6377">
        <ele>629</ele>
        <time>2022-10-19T07:21:23.000Z</time>
      </trkpt>
      <trkpt lat="43.53428" lon="5.63769">
        <ele>629</ele>
        <time>2022-10-19T07:21:24.000Z</time>
      </trkpt>
      <trkpt lat="43.53428" lon="5.63769">
        <ele>629</ele>
        <time>2022-10-19T07:21:25.000Z</time>
      </trkpt>
      <trkpt lat="43.53428" lon="5.63769">
        <ele>629</ele>
        <time>2022-10-19T07:21:26.000Z</time>
      </trkpt>
      <trkpt lat="43.53428" lon="5.63769">
        <ele>629</ele>
        <time>2022-10-19T07:21:27.000Z</time>
      </trkpt>
      <trkpt lat="43.53428" lon="5.63769">
        <ele>629</ele>
        <time>2022-10-19T07:21:28.000Z</time>
      </trkpt>
      <trkpt lat="43.53428" lon="5.63769">
        <ele>629</ele>
        <time>2022-10-19T07:21:29.000Z</time>
      </trkpt>
      <trkpt lat="43.53428" lon="5.6377">
        <ele>629</ele>
        <time>2022-10-19T07:21:30.000Z</time>
      </trkpt>
      <trkpt lat="43.53428" lon="5.6377">
        <ele>629</ele>
        <time>2022-10-19T07:21:31.000Z</time>
      </trkpt>
      <trkpt lat="43.53428" lon="5.6377">
        <ele>629</ele>
        <time>2022-10-19T07:21:32.000Z</time>
      </trkpt>
      <trkpt lat="43.5342" lon="5.63777">
        <ele>634</ele>
        <time>2022-10-19T07:27:34.410Z</time>
      </trkpt>
      <trkpt lat="43.5342" lon="5.63777">
        <ele>634</ele>
        <time>2022-10-19T07:27:35.410Z</time>
      </trkpt>
      <trkpt lat="43.5342" lon="5.63777">
        <ele>634</ele>
        <time>2022-10-19T07:27:36.410Z</time>
      </trkpt>
      <trkpt lat="43.53421" lon="5.63777">
        <ele>634</ele>
        <time>2022-10-19T07:27:37.410Z</time>
      </trkpt>
      <trkpt lat="43.53421" lon="5.63777">
        <ele>634</ele>
        <time>2022-10-19T07:27:38.410Z</time>
      </trkpt>
      <trkpt lat="43.53421" lon="5.63777">
        <ele>634</ele>
        <time>2022-10-19T07:27:39.410Z</time>
      </trkpt>
      <trkpt lat="43.53421" lon="5.63776">
        <ele>634</ele>
        <time>2022-10-19T07:27:40.410Z</time>
      </trkpt>
      <trkpt lat="43.53421" lon="5.63776">
        <ele>634</ele>
        <time>2022-10-19T07:27:41.410Z</time>
      </trkpt>
      <trkpt lat="43.53421" lon="5.63776">
        <ele>634</ele>
        <time>2022-10-19T07:27:42.410Z</time>
      </trkpt>
      <trkpt lat="43.53421" lon="5.63776">
        <ele>634</ele>
        <time>2022-10-19T07:27:43.410Z</time>
      </trkpt>
      <trkpt lat="43.53421" lon="5.63776">
        <ele>634</ele>
        <time>2022-10-19T07:27:44.410Z</time>
      </trkpt>
      <trkpt lat="43.53421" lon="5.63775">
        <ele>634</ele>
        <time>2022-10-19T07:27:45.410Z</time>
      </trkpt>
      <trkpt lat="43.53421" lon="5.63775">
        <ele>634</ele>
        <time>2022-10-19T07:27:46.410Z</time>
      </trkpt>
      <trkpt lat="43.53421" lon="5.63775">
        <ele>634</ele>
        <time>2022-10-19T07:27:47.410Z</time>
      </trkpt>
      <trkpt lat="43.53421" lon="5.63775">
        <ele>634</ele>
        <time>2022-10-19T07:27:48.410Z</time>
      </trkpt>
      <trkpt lat="43.53421" lon="5.63775">
        <ele>634</ele>
        <time>2022-10-19T07:27:49.410Z</time>
      </trkpt>
      <trkpt lat="43.53421" lon="5.63775">
        <ele>634</ele>
        <time>2022-10-19T07:27:50.410Z</time>
      </trkpt>
      <trkpt lat="43.53421" lon="5.63775">
        <ele>635</ele>
        <time>2022-10-19T07:27:51.410Z</time>
      </trkpt>
      <trkpt lat="43.53421" lon="5.63775">
        <ele>635</ele>
        <time>2022-10-19T07:27:52.410Z</time>
      </trkpt>
      <trkpt lat="43.53421" lon="5.63775">
        <ele>635</ele>
        <time>2022-10-19T07:27:53.410Z</time>
      </trkpt>
      <trkpt lat="43.53421" lon="5.63775">
        <ele>635</ele>
        <time>2022-10-19T07:27:54.410Z</time>
      </trkpt>
      <trkpt lat="43.53421" lon="5.63775">
        <ele>635</ele>
        <time>2022-10-19T07:27:55.410Z</time>
      </trkpt>
      <trkpt lat="43.53421" lon="5.63774">
        <ele>635</ele>
        <time>2022-10-19T07:27:56.410Z</time>
      </trkpt>
      <trkpt lat="43.53421" lon="5.63774">
        <ele>635</ele>
        <time>2022-10-19T07:27:57.410Z</time>
      </trkpt>
      <trkpt lat="43.53421" lon="5.63774">
        <ele>635</ele>
        <time>2022-10-19T07:27:58.410Z</time>
      </trkpt>
      <trkpt lat="43.53421" lon="5.63774">
        <ele>636</ele>
        <time>2022-10-19T07:27:59.410Z</time>
      </trkpt>
      <trkpt lat="43.53421" lon="5.63774">
        <ele>636</ele>
        <time>2022-10-19T07:28:00.410Z</time>
      </trkpt>
      <trkpt lat="43.53421" lon="5.63774">
        <ele>636</ele>
        <time>2022-10-19T07:28:01.410Z</time>
      </trkpt>
      <trkpt lat="43.5342" lon="5.63774">
        <ele>636</ele>
        <time>2022-10-19T07:28:02.410Z</time>
      </trkpt>
      <trkpt lat="43.5342" lon="5.63774">
        <ele>636</ele>
        <time>2022-10-19T07:28:03.410Z</time>
      </trkpt>
      <trkpt lat="43.5342" lon="5.63774">
        <ele>637</ele>
        <time>2022-10-19T07:28:04.410Z</time>
      </trkpt>
      <trkpt lat="43.5342" lon="5.63774">
        <ele>637</ele>
        <time>2022-10-19T07:28:05.410Z</time>
      </trkpt>
      <trkpt lat="43.5342" lon="5.63773">
        <ele>637</ele>
        <time>2022-10-19T07:28:06.410Z</time>
      </trkpt>
      <trkpt lat="43.5342" lon="5.63773">
        <ele>637</ele>
        <time>2022-10-19T07:28:07.410Z</time>
      </trkpt>
      <trkpt lat="43.5342" lon="5.63773">
        <ele>637</ele>
        <time>2022-10-19T07:28:08.410Z</time>
      </trkpt>
      <trkpt lat="43.5342" lon="5.63773">
        <ele>637</ele>
        <time>2022-10-19T07:28:09.410Z</time>
      </trkpt>
      <trkpt lat="43.5342" lon="5.63773">
        <ele>637</ele>
        <time>2022-10-19T07:28:10.410Z</time>
      </trkpt>
      <trkpt lat="43.5342" lon="5.63773">
        <ele>637</ele>
        <time>2022-10-19T07:28:11.410Z</time>
      </trkpt>
      <trkpt lat="43.5342" lon="5.63773">
        <ele>637</ele>
        <time>2022-10-19T07:28:12.410Z</time>
      </trkpt>
      <trkpt lat="43.5342" lon="5.63772">
        <ele>637</ele>
        <time>2022-10-19T07:28:13.410Z</time>
      </trkpt>
      <trkpt lat="43.5342" lon="5.63772">
        <ele>637</ele>
        <time>2022-10-19T07:28:14.410Z</time>
      </trkpt>
      <trkpt lat="43.5342" lon="5.63772">
        <ele>637</ele>
        <time>2022-10-19T07:28:15.410Z</time>
      </trkpt>
      <trkpt lat="43.5342" lon="5.63772">
        <ele>637</ele>
        <time>2022-10-19T07:28:16.410Z</time>
      </trkpt>
      <trkpt lat="43.5342" lon="5.63772">
        <ele>637</ele>
        <time>2022-10-19T07:28:17.410Z</time>
      </trkpt>
      <trkpt lat="43.5342" lon="5.63772">
        <ele>637</ele>
        <time>2022-10-19T07:28:18.410Z</time>
      </trkpt>
      <trkpt lat="43.5342" lon="5.63772">
        <ele>637</ele>
        <time>2022-10-19T07:28:19.410Z</time>
      </trkpt>
      <trkpt lat="43.5342" lon="5.63772">
        <ele>637</ele>
        <time>2022-10-19T07:28:20.410Z</time>
      </trkpt>
      <trkpt lat="43.5342" lon="5.63772">
        <ele>637</ele>
        <time>2022-10-19T07:28:21.410Z</time>
      </trkpt>
      <trkpt lat="43.5342" lon="5.63772">
        <ele>637</ele>
        <time>2022-10-19T07:28:22.410Z</time>
      </trkpt>
      <trkpt lat="43.5342" lon="5.63772">
        <ele>637</ele>
        <time>2022-10-19T07:28:23.410Z</time>
      </trkpt>
      <trkpt lat="43.5342" lon="5.63772">
        <ele>637</ele>
        <time>2022-10-19T07:28:24.410Z</time>
      </trkpt>
      <trkpt lat="43.53419" lon="5.63772">
        <ele>637</ele>
        <time>2022-10-19T07:28:25.410Z</time>
      </trkpt>
      <trkpt lat="43.53419" lon="5.63772">
        <ele>638</ele>
        <time>2022-10-19T07:28:26.410Z</time>
      </trkpt>
      <trkpt lat="43.53419" lon="5.63772">
        <ele>638</ele>
        <time>2022-10-19T07:28:27.410Z</time>
      </trkpt>
      <trkpt lat="43.53419" lon="5.63772">
        <ele>638</ele>
        <time>2022-10-19T07:28:28.410Z</time>
      </trkpt>
      <trkpt lat="43.53419" lon="5.63772">
        <ele>638</ele>
        <time>2022-10-19T07:28:29.410Z</time>
      </trkpt>
      <trkpt lat="43.53419" lon="5.63772">
        <ele>638</ele>
        <time>2022-10-19T07:28:30.410Z</time>
      </trkpt>
      <trkpt lat="43.53419" lon="5.63772">
        <ele>638</ele>
        <time>2022-10-19T07:28:31.410Z</time>
      </trkpt>
      <trkpt lat="43.53419" lon="5.63772">
        <ele>638</ele>
        <time>2022-10-19T07:28:32.410Z</time>
      </trkpt>
      <trkpt lat="43.53419" lon="5.63772">
        <ele>638</ele>
        <time>2022-10-19T07:28:33.410Z</time>
      </trkpt>
      <trkpt lat="43.53419" lon="5.63772">
        <ele>638</ele>
        <time>2022-10-19T07:28:34.410Z</time>
      </trkpt>
      <trkpt lat="43.53419" lon="5.63772">
        <ele>638</ele>
        <time>2022-10-19T07:28:35.410Z</time>
      </trkpt>
      <trkpt lat="43.53419" lon="5.63772">
        <ele>638</ele>
        <time>2022-10-19T07:28:36.410Z</time>
      </trkpt>
      <trkpt lat="43.53419" lon="5.63772">
        <ele>638</ele>
        <time>2022-10-19T07:28:37.410Z</time>
      </trkpt>
      <trkpt lat="43.53419" lon="5.63772">
        <ele>638</ele>
        <time>2022-10-19T07:28:38.410Z</time>
      </trkpt>
      <trkpt lat="43.53419" lon="5.63772">
        <ele>638</ele>
        <time>2022-10-19T07:28:39.410Z</time>
      </trkpt>
      <trkpt lat="43.53419" lon="5.63772">
        <ele>637</ele>
        <time>2022-10-19T07:28:40.410Z</time>
      </trkpt>
      <trkpt lat="43.53419" lon="5.63772">
        <ele>637</ele>
        <time>2022-10-19T07:28:41.410Z</time>
      </trkpt>
      <trkpt lat="43.53419" lon="5.63772">
        <ele>637</ele>
        <time>2022-10-19T07:28:42.410Z</time>
      </trkpt>
      <trkpt lat="43.53419" lon="5.63772">
        <ele>637</ele>
        <time>2022-10-19T07:28:43.410Z</time>
      </trkpt>
      <trkpt lat="43.53419" lon="5.63772">
        <ele>637</ele>
        <time>2022-10-19T07:28:44.410Z</time>
      </trkpt>
      <trkpt lat="43.53419" lon="5.63772">
        <ele>637</ele>
        <time>2022-10-19T07:28:45.410Z</time>
      </trkpt>
      <trkpt lat="43.53419" lon="5.63772">
        <ele>637</ele>
        <time>2022-10-19T07:28:46.410Z</time>
      </trkpt>
      <trkpt lat="43.5342" lon="5.63772">
        <ele>637</ele>
        <time>2022-10-19T07:28:47.410Z</time>
      </trkpt>
      <trkpt lat="43.53419" lon="5.63772">
        <ele>637</ele>
        <time>2022-10-19T07:28:48.410Z</time>
      </trkpt>
      <trkpt lat="43.5342" lon="5.63772">
        <ele>637</ele>
        <time>2022-10-19T07:28:49.410Z</time>
      </trkpt>
      <trkpt lat="43.5342" lon="5.63773">
        <ele>637</ele>
        <time>2022-10-19T07:28:50.410Z</time>
      </trkpt>
      <trkpt lat="43.5342" lon="5.63773">
        <ele>637</ele>
        <time>2022-10-19T07:28:51.410Z</time>
      </trkpt>
      <trkpt lat="43.5342" lon="5.63773">
        <ele>637</ele>
        <time>2022-10-19T07:28:52.410Z</time>
      </trkpt>
      <trkpt lat="43.5342" lon="5.63773">
        <ele>637</ele>
        <time>2022-10-19T07:28:53.410Z</time>
      </trkpt>
      <trkpt lat="43.5342" lon="5.63773">
        <ele>637</ele>
        <time>2022-10-19T07:28:54.410Z</time>
      </trkpt>
      <trkpt lat="43.5342" lon="5.63773">
        <ele>637</ele>
        <time>2022-10-19T07:28:55.410Z</time>
      </trkpt>
      <trkpt lat="43.5342" lon="5.63773">
        <ele>637</ele>
        <time>2022-10-19T07:28:56.410Z</time>
      </trkpt>
      <trkpt lat="43.5342" lon="5.63773">
        <ele>637</ele>
        <time>2022-10-19T07:28:57.410Z</time>
      </trkpt>
      <trkpt lat="43.5342" lon="5.63773">
        <ele>637</ele>
        <time>2022-10-19T07:28:58.410Z</time>
      </trkpt>
      <trkpt lat="43.5342" lon="5.63773">
        <ele>637</ele>
        <time>2022-10-19T07:28:59.410Z</time>
      </trkpt>
      <trkpt lat="43.5342" lon="5.63774">
        <ele>637</ele>
        <time>2022-10-19T07:29:00.410Z</time>
      </trkpt>
      <trkpt lat="43.5342" lon="5.63774">
        <ele>637</ele>
        <time>2022-10-19T07:29:01.410Z</time>
      </trkpt>
      <trkpt lat="43.5342" lon="5.63774">
        <ele>637</ele>
        <time>2022-10-19T07:29:02.410Z</time>
      </trkpt>
      <trkpt lat="43.5342" lon="5.63774">
        <ele>637</ele>
        <time>2022-10-19T07:29:03.410Z</time>
      </trkpt>
      <trkpt lat="43.5342" lon="5.63774">
        <ele>637</ele>
        <time>2022-10-19T07:29:04.410Z</time>
      </trkpt>
      <trkpt lat="43.5342" lon="5.63774">
        <ele>637</ele>
        <time>2022-10-19T07:29:05.410Z</time>
      </trkpt>
      <trkpt lat="43.5342" lon="5.63774">
        <ele>637</ele>
        <time>2022-10-19T07:29:06.410Z</time>
      </trkpt>
      <trkpt lat="43.5342" lon="5.63774">
        <ele>637</ele>
        <time>2022-10-19T07:29:07.410Z</time>
      </trkpt>
      <trkpt lat="43.5342" lon="5.63774">
        <ele>637</ele>
        <time>2022-10-19T07:29:08.410Z</time>
      </trkpt>
      <trkpt lat="43.5342" lon="5.63774">
        <ele>637</ele>
        <time>2022-10-19T07:29:09.410Z</time>
      </trkpt>
      <trkpt lat="43.5342" lon="5.63773">
        <ele>637</ele>
        <time>2022-10-19T07:29:10.410Z</time>
      </trkpt>
      <trkpt lat="43.5342" lon="5.63773">
        <ele>637</ele>
        <time>2022-10-19T07:29:11.410Z</time>
      </trkpt>
      <trkpt lat="43.5342" lon="5.63773">
        <ele>637</ele>
        <time>2022-10-19T07:29:12.410Z</time>
      </trkpt>
      <trkpt lat="43.5342" lon="5.63773">
        <ele>637</ele>
        <time>2022-10-19T07:29:13.410Z</time>
      </trkpt>
      <trkpt lat="43.5342" lon="5.63773">
        <ele>637</ele>
        <time>2022-10-19T07:29:14.410Z</time>
      </trkpt>
      <trkpt lat="43.5342" lon="5.63773">
        <ele>637</ele>
        <time>2022-10-19T07:29:15.410Z</time>
      </trkpt>
      <trkpt lat="43.5342" lon="5.63773">
        <ele>637</ele>
        <time>2022-10-19T07:29:16.410Z</time>
      </trkpt>
      <trkpt lat="43.5342" lon="5.63773">
        <ele>637</ele>
        <time>2022-10-19T07:29:17.410Z</time>
      </trkpt>
      <trkpt lat="43.5342" lon="5.63773">
        <ele>637</ele>
        <time>2022-10-19T07:29:18.410Z</time>
      </trkpt>
      <trkpt lat="43.5342" lon="5.63773">
        <ele>637</ele>
        <time>2022-10-19T07:29:19.410Z</time>
      </trkpt>
      <trkpt lat="43.5342" lon="5.63773">
        <ele>637</ele>
        <time>2022-10-19T07:29:20.410Z</time>
      </trkpt>
      <trkpt lat="43.5342" lon="5.63773">
        <ele>637</ele>
        <time>2022-10-19T07:29:21.410Z</time>
      </trkpt>
      <trkpt lat="43.5342" lon="5.63773">
        <ele>637</ele>
        <time>2022-10-19T07:29:22.410Z</time>
      </trkpt>
      <trkpt lat="43.5342" lon="5.63773">
        <ele>637</ele>
        <time>2022-10-19T07:29:23.410Z</time>
      </trkpt>
      <trkpt lat="43.5342" lon="5.63773">
        <ele>637</ele>
        <time>2022-10-19T07:29:24.410Z</time>
      </trkpt>
      <trkpt lat="43.5342" lon="5.63773">
        <ele>637</ele>
        <time>2022-10-19T07:29:25.410Z</time>
      </trkpt>
      <trkpt lat="43.5342" lon="5.63773">
        <ele>637</ele>
        <time>2022-10-19T07:29:26.410Z</time>
      </trkpt>
      <trkpt lat="43.5342" lon="5.63773">
        <ele>637</ele>
        <time>2022-10-19T07:29:27.410Z</time>
      </trkpt>
      <trkpt lat="43.5342" lon="5.63773">
        <ele>637</ele>
        <time>2022-10-19T07:29:28.410Z</time>
      </trkpt>
      <trkpt lat="43.5342" lon="5.63773">
        <ele>637</ele>
        <time>2022-10-19T07:29:29.410Z</time>
      </trkpt>
      <trkpt lat="43.5342" lon="5.63774">
        <ele>637</ele>
        <time>2022-10-19T07:29:30.410Z</time>
      </trkpt>
      <trkpt lat="43.5342" lon="5.63774">
        <ele>637</ele>
        <time>2022-10-19T07:29:31.410Z</time>
      </trkpt>
      <trkpt lat="43.5342" lon="5.63774">
        <ele>637</ele>
        <time>2022-10-19T07:29:32.410Z</time>
      </trkpt>
      <trkpt lat="43.5342" lon="5.63774">
        <ele>637</ele>
        <time>2022-10-19T07:29:33.410Z</time>
      </trkpt>
      <trkpt lat="43.5342" lon="5.63774">
        <ele>637</ele>
        <time>2022-10-19T07:29:34.410Z</time>
      </trkpt>
      <trkpt lat="43.5342" lon="5.63774">
        <ele>637</ele>
        <time>2022-10-19T07:29:35.410Z</time>
      </trkpt>
      <trkpt lat="43.5342" lon="5.63774">
        <ele>637</ele>
        <time>2022-10-19T07:29:36.410Z</time>
      </trkpt>
      <trkpt lat="43.5342" lon="5.63774">
        <ele>637</ele>
        <time>2022-10-19T07:29:37.410Z</time>
      </trkpt>
      <trkpt lat="43.5342" lon="5.63774">
        <ele>637</ele>
        <time>2022-10-19T07:29:38.410Z</time>
      </trkpt>
      <trkpt lat="43.5342" lon="5.63774">
        <ele>637</ele>
        <time>2022-10-19T07:29:39.410Z</time>
      </trkpt>
      <trkpt lat="43.5342" lon="5.63773">
        <ele>637</ele>
        <time>2022-10-19T07:29:40.410Z</time>
      </trkpt>
      <trkpt lat="43.5342" lon="5.63773">
        <ele>637</ele>
        <time>2022-10-19T07:29:41.410Z</time>
      </trkpt>
      <trkpt lat="43.5342" lon="5.63773">
        <ele>637</ele>
        <time>2022-10-19T07:29:42.410Z</time>
      </trkpt>
      <trkpt lat="43.5342" lon="5.63773">
        <ele>637</ele>
        <time>2022-10-19T07:29:43.410Z</time>
      </trkpt>
      <trkpt lat="43.5342" lon="5.63773">
        <ele>637</ele>
        <time>2022-10-19T07:29:44.410Z</time>
      </trkpt>
      <trkpt lat="43.5342" lon="5.63773">
        <ele>637</ele>
        <time>2022-10-19T07:29:45.410Z</time>
      </trkpt>
      <trkpt lat="43.5342" lon="5.63773">
        <ele>637</ele>
        <time>2022-10-19T07:29:46.410Z</time>
      </trkpt>
      <trkpt lat="43.5342" lon="5.63773">
        <ele>637</ele>
        <time>2022-10-19T07:29:47.410Z</time>
      </trkpt>
      <trkpt lat="43.5342" lon="5.63773">
        <ele>637</ele>
        <time>2022-10-19T07:29:48.410Z</time>
      </trkpt>
      <trkpt lat="43.5342" lon="5.63773">
        <ele>637</ele>
        <time>2022-10-19T07:29:49.410Z</time>
      </trkpt>
      <trkpt lat="43.53419" lon="5.63773">
        <ele>637</ele>
        <time>2022-10-19T07:29:50.410Z</time>
      </trkpt>
      <trkpt lat="43.53419" lon="5.63772">
        <ele>637</ele>
        <time>2022-10-19T07:29:51.410Z</time>
      </trkpt>
      <trkpt lat="43.53418" lon="5.63771">
        <ele>637</ele>
        <time>2022-10-19T07:29:52.410Z</time>
      </trkpt>
      <trkpt lat="43.53418" lon="5.6377">
        <ele>637</ele>
        <time>2022-10-19T07:29:53.410Z</time>
      </trkpt>
      <trkpt lat="43.53417" lon="5.6377">
        <ele>637</ele>
        <time>2022-10-19T07:29:54.410Z</time>
      </trkpt>
      <trkpt lat="43.53417" lon="5.63768">
        <ele>637</ele>
        <time>2022-10-19T07:29:55.410Z</time>
      </trkpt>
      <trkpt lat="43.53417" lon="5.63767">
        <ele>637</ele>
        <time>2022-10-19T07:29:56.410Z</time>
      </trkpt>
      <trkpt lat="43.53417" lon="5.63766">
        <ele>637</ele>
        <time>2022-10-19T07:29:57.410Z</time>
      </trkpt>
      <trkpt lat="43.53417" lon="5.63765">
        <ele>637</ele>
        <time>2022-10-19T07:29:58.410Z</time>
      </trkpt>
      <trkpt lat="43.53416" lon="5.63765">
        <ele>637</ele>
        <time>2022-10-19T07:29:59.410Z</time>
      </trkpt>
      <trkpt lat="43.53416" lon="5.63764">
        <ele>637</ele>
        <time>2022-10-19T07:30:00.410Z</time>
      </trkpt>
      <trkpt lat="43.53417" lon="5.63764">
        <ele>637</ele>
        <time>2022-10-19T07:30:01.410Z</time>
      </trkpt>
      <trkpt lat="43.53417" lon="5.63764">
        <ele>637</ele>
        <time>2022-10-19T07:30:02.410Z</time>
      </trkpt>
      <trkpt lat="43.53417" lon="5.63764">
        <ele>637</ele>
        <time>2022-10-19T07:30:03.410Z</time>
      </trkpt>
      <trkpt lat="43.53417" lon="5.63764">
        <ele>637</ele>
        <time>2022-10-19T07:30:04.410Z</time>
      </trkpt>
      <trkpt lat="43.53417" lon="5.63764">
        <ele>637</ele>
        <time>2022-10-19T07:30:05.410Z</time>
      </trkpt>
      <trkpt lat="43.53417" lon="5.63764">
        <ele>637</ele>
        <time>2022-10-19T07:30:06.410Z</time>
      </trkpt>
      <trkpt lat="43.53417" lon="5.63764">
        <ele>637</ele>
        <time>2022-10-19T07:30:07.410Z</time>
      </trkpt>
      <trkpt lat="43.53417" lon="5.63764">
        <ele>637</ele>
        <time>2022-10-19T07:30:08.410Z</time>
      </trkpt>
      <trkpt lat="43.53417" lon="5.63764">
        <ele>637</ele>
        <time>2022-10-19T07:30:09.410Z</time>
      </trkpt>
      <trkpt lat="43.53417" lon="5.63764">
        <ele>637</ele>
        <time>2022-10-19T07:30:10.410Z</time>
      </trkpt>
      <trkpt lat="43.53417" lon="5.63764">
        <ele>637</ele>
        <time>2022-10-19T07:30:11.410Z</time>
      </trkpt>
      <trkpt lat="43.53417" lon="5.63764">
        <ele>637</ele>
        <time>2022-10-19T07:30:12.410Z</time>
      </trkpt>
      <trkpt lat="43.53417" lon="5.63764">
        <ele>637</ele>
        <time>2022-10-19T07:30:13.410Z</time>
      </trkpt>
      <trkpt lat="43.53417" lon="5.63764">
        <ele>637</ele>
        <time>2022-10-19T07:30:14.410Z</time>
      </trkpt>
      <trkpt lat="43.53417" lon="5.63764">
        <ele>637</ele>
        <time>2022-10-19T07:30:15.410Z</time>
      </trkpt>
      <trkpt lat="43.53417" lon="5.63764">
        <ele>637</ele>
        <time>2022-10-19T07:30:16.410Z</time>
      </trkpt>
      <trkpt lat="43.53417" lon="5.63764">
        <ele>637</ele>
        <time>2022-10-19T07:30:17.410Z</time>
      </trkpt>
      <trkpt lat="43.53417" lon="5.63764">
        <ele>637</ele>
        <time>2022-10-19T07:30:18.410Z</time>
      </trkpt>
      <trkpt lat="43.53417" lon="5.63763">
        <ele>637</ele>
        <time>2022-10-19T07:30:19.410Z</time>
      </trkpt>
      <trkpt lat="43.53418" lon="5.63764">
        <ele>637</ele>
        <time>2022-10-19T07:30:20.410Z</time>
      </trkpt>
      <trkpt lat="43.53418" lon="5.63764">
        <ele>637</ele>
        <time>2022-10-19T07:30:21.410Z</time>
      </trkpt>
      <trkpt lat="43.53418" lon="5.63764">
        <ele>636</ele>
        <time>2022-10-19T07:30:22.410Z</time>
      </trkpt>
      <trkpt lat="43.53418" lon="5.63764">
        <ele>636</ele>
        <time>2022-10-19T07:30:23.410Z</time>
      </trkpt>
      <trkpt lat="43.53418" lon="5.63765">
        <ele>636</ele>
        <time>2022-10-19T07:30:24.410Z</time>
      </trkpt>
      <trkpt lat="43.53418" lon="5.63765">
        <ele>636</ele>
        <time>2022-10-19T07:30:25.410Z</time>
      </trkpt>
      <trkpt lat="43.53419" lon="5.63766">
        <ele>636</ele>
        <time>2022-10-19T07:30:26.410Z</time>
      </trkpt>
      <trkpt lat="43.53419" lon="5.63767">
        <ele>636</ele>
        <time>2022-10-19T07:30:27.410Z</time>
      </trkpt>
      <trkpt lat="43.53419" lon="5.63768">
        <ele>636</ele>
        <time>2022-10-19T07:30:28.410Z</time>
      </trkpt>
      <trkpt lat="43.5342" lon="5.63768">
        <ele>636</ele>
        <time>2022-10-19T07:30:29.410Z</time>
      </trkpt>
      <trkpt lat="43.5342" lon="5.63769">
        <ele>636</ele>
        <time>2022-10-19T07:30:30.410Z</time>
      </trkpt>
      <trkpt lat="43.5342" lon="5.63769">
        <ele>636</ele>
        <time>2022-10-19T07:30:31.410Z</time>
      </trkpt>
      <trkpt lat="43.5342" lon="5.63769">
        <ele>636</ele>
        <time>2022-10-19T07:30:32.410Z</time>
      </trkpt>
      <trkpt lat="43.53421" lon="5.63769">
        <ele>636</ele>
        <time>2022-10-19T07:30:33.410Z</time>
      </trkpt>
      <trkpt lat="43.53421" lon="5.6377">
        <ele>636</ele>
        <time>2022-10-19T07:30:34.410Z</time>
      </trkpt>
      <trkpt lat="43.53421" lon="5.6377">
        <ele>636</ele>
        <time>2022-10-19T07:30:35.410Z</time>
      </trkpt>
      <trkpt lat="43.53422" lon="5.63771">
        <ele>636</ele>
        <time>2022-10-19T07:30:36.410Z</time>
      </trkpt>
      <trkpt lat="43.53422" lon="5.63771">
        <ele>636</ele>
        <time>2022-10-19T07:30:37.410Z</time>
      </trkpt>
      <trkpt lat="43.53422" lon="5.63771">
        <ele>636</ele>
        <time>2022-10-19T07:30:38.410Z</time>
      </trkpt>
      <trkpt lat="43.53422" lon="5.63772">
        <ele>636</ele>
        <time>2022-10-19T07:30:39.410Z</time>
      </trkpt>
      <trkpt lat="43.53422" lon="5.63772">
        <ele>636</ele>
        <time>2022-10-19T07:30:40.410Z</time>
      </trkpt>
      <trkpt lat="43.53422" lon="5.63772">
        <ele>636</ele>
        <time>2022-10-19T07:30:41.410Z</time>
      </trkpt>
      <trkpt lat="43.53422" lon="5.63772">
        <ele>636</ele>
        <time>2022-10-19T07:30:42.410Z</time>
      </trkpt>
      <trkpt lat="43.53422" lon="5.63772">
        <ele>636</ele>
        <time>2022-10-19T07:30:43.410Z</time>
      </trkpt>
      <trkpt lat="43.53422" lon="5.63773">
        <ele>636</ele>
        <time>2022-10-19T07:30:44.410Z</time>
      </trkpt>
      <trkpt lat="43.53422" lon="5.63773">
        <ele>636</ele>
        <time>2022-10-19T07:30:45.410Z</time>
      </trkpt>
      <trkpt lat="43.53422" lon="5.63773">
        <ele>636</ele>
        <time>2022-10-19T07:30:46.410Z</time>
      </trkpt>
      <trkpt lat="43.53422" lon="5.63773">
        <ele>637</ele>
        <time>2022-10-19T07:30:47.410Z</time>
      </trkpt>
      <trkpt lat="43.53422" lon="5.63773">
        <ele>637</ele>
        <time>2022-10-19T07:30:48.410Z</time>
      </trkpt>
      <trkpt lat="43.53422" lon="5.63773">
        <ele>637</ele>
        <time>2022-10-19T07:30:49.410Z</time>
      </trkpt>
      <trkpt lat="43.53423" lon="5.63773">
        <ele>637</ele>
        <time>2022-10-19T07:30:50.410Z</time>
      </trkpt>
      <trkpt lat="43.53423" lon="5.63773">
        <ele>637</ele>
        <time>2022-10-19T07:30:51.410Z</time>
      </trkpt>
      <trkpt lat="43.53423" lon="5.63773">
        <ele>637</ele>
        <time>2022-10-19T07:30:52.410Z</time>
      </trkpt>
      <trkpt lat="43.53423" lon="5.63774">
        <ele>637</ele>
        <time>2022-10-19T07:30:53.410Z</time>
      </trkpt>
      <trkpt lat="43.53423" lon="5.63774">
        <ele>637</ele>
        <time>2022-10-19T07:30:54.410Z</time>
      </trkpt>
      <trkpt lat="43.53423" lon="5.63775">
        <ele>637</ele>
        <time>2022-10-19T07:30:55.410Z</time>
      </trkpt>
      <trkpt lat="43.53423" lon="5.63775">
        <ele>637</ele>
        <time>2022-10-19T07:30:56.410Z</time>
      </trkpt>
      <trkpt lat="43.53423" lon="5.63775">
        <ele>638</ele>
        <time>2022-10-19T07:30:57.410Z</time>
      </trkpt>
      <trkpt lat="43.53423" lon="5.63775">
        <ele>638</ele>
        <time>2022-10-19T07:30:58.410Z</time>
      </trkpt>
      <trkpt lat="43.53424" lon="5.63775">
        <ele>638</ele>
        <time>2022-10-19T07:30:59.410Z</time>
      </trkpt>
      <trkpt lat="43.53424" lon="5.63775">
        <ele>638</ele>
        <time>2022-10-19T07:31:00.410Z</time>
      </trkpt>
      <trkpt lat="43.53424" lon="5.63775">
        <ele>638</ele>
        <time>2022-10-19T07:31:01.410Z</time>
      </trkpt>
      <trkpt lat="43.53424" lon="5.63775">
        <ele>638</ele>
        <time>2022-10-19T07:31:02.410Z</time>
      </trkpt>
      <trkpt lat="43.53424" lon="5.63775">
        <ele>638</ele>
        <time>2022-10-19T07:31:03.410Z</time>
      </trkpt>
      <trkpt lat="43.53424" lon="5.63775">
        <ele>638</ele>
        <time>2022-10-19T07:31:04.410Z</time>
      </trkpt>
      <trkpt lat="43.53424" lon="5.63775">
        <ele>638</ele>
        <time>2022-10-19T07:31:05.410Z</time>
      </trkpt>
      <trkpt lat="43.53424" lon="5.63775">
        <ele>638</ele>
        <time>2022-10-19T07:31:06.410Z</time>
      </trkpt>
      <trkpt lat="43.53423" lon="5.63776">
        <ele>638</ele>
        <time>2022-10-19T07:31:07.410Z</time>
      </trkpt>
      <trkpt lat="43.53423" lon="5.63776">
        <ele>638</ele>
        <time>2022-10-19T07:31:08.410Z</time>
      </trkpt>
      <trkpt lat="43.53423" lon="5.63777">
        <ele>638</ele>
        <time>2022-10-19T07:31:09.410Z</time>
      </trkpt>
      <trkpt lat="43.53423" lon="5.63778">
        <ele>638</ele>
        <time>2022-10-19T07:31:10.410Z</time>
      </trkpt>
      <trkpt lat="43.53422" lon="5.63778">
        <ele>638</ele>
        <time>2022-10-19T07:31:11.410Z</time>
      </trkpt>
      <trkpt lat="43.53421" lon="5.63778">
        <ele>638</ele>
        <time>2022-10-19T07:31:12.410Z</time>
      </trkpt>
      <trkpt lat="43.53421" lon="5.63778">
        <ele>638</ele>
        <time>2022-10-19T07:31:13.410Z</time>
      </trkpt>
      <trkpt lat="43.5342" lon="5.63777">
        <ele>638</ele>
        <time>2022-10-19T07:31:14.410Z</time>
      </trkpt>
      <trkpt lat="43.5342" lon="5.63777">
        <ele>638</ele>
        <time>2022-10-19T07:31:15.410Z</time>
      </trkpt>
      <trkpt lat="43.5342" lon="5.63777">
        <ele>638</ele>
        <time>2022-10-19T07:31:16.410Z</time>
      </trkpt>
      <trkpt lat="43.53419" lon="5.63776">
        <ele>638</ele>
        <time>2022-10-19T07:31:17.410Z</time>
      </trkpt>
      <trkpt lat="43.53419" lon="5.63776">
        <ele>638</ele>
        <time>2022-10-19T07:31:18.410Z</time>
      </trkpt>
      <trkpt lat="43.53419" lon="5.63775">
        <ele>638</ele>
        <time>2022-10-19T07:31:19.410Z</time>
      </trkpt>
      <trkpt lat="43.53419" lon="5.63774">
        <ele>638</ele>
        <time>2022-10-19T07:31:20.410Z</time>
      </trkpt>
      <trkpt lat="43.53418" lon="5.63773">
        <ele>638</ele>
        <time>2022-10-19T07:31:21.410Z</time>
      </trkpt>
      <trkpt lat="43.53418" lon="5.63772">
        <ele>638</ele>
        <time>2022-10-19T07:31:22.410Z</time>
      </trkpt>
      <trkpt lat="43.53418" lon="5.63771">
        <ele>638</ele>
        <time>2022-10-19T07:31:23.410Z</time>
      </trkpt>
      <trkpt lat="43.53418" lon="5.63771">
        <ele>638</ele>
        <time>2022-10-19T07:31:24.410Z</time>
      </trkpt>
      <trkpt lat="43.53418" lon="5.6377">
        <ele>638</ele>
        <time>2022-10-19T07:31:25.410Z</time>
      </trkpt>
      <trkpt lat="43.53417" lon="5.6377">
        <ele>638</ele>
        <time>2022-10-19T07:31:26.410Z</time>
      </trkpt>
      <trkpt lat="43.53417" lon="5.6377">
        <ele>638</ele>
        <time>2022-10-19T07:31:27.410Z</time>
      </trkpt>
      <trkpt lat="43.53417" lon="5.6377">
        <ele>638</ele>
        <time>2022-10-19T07:31:28.410Z</time>
      </trkpt>
      <trkpt lat="43.53416" lon="5.6377">
        <ele>638</ele>
        <time>2022-10-19T07:31:29.410Z</time>
      </trkpt>
      <trkpt lat="43.53416" lon="5.6377">
        <ele>638</ele>
        <time>2022-10-19T07:31:30.410Z</time>
      </trkpt>
      <trkpt lat="43.53415" lon="5.6377">
        <ele>638</ele>
        <time>2022-10-19T07:31:31.410Z</time>
      </trkpt>
      <trkpt lat="43.53415" lon="5.6377">
        <ele>638</ele>
        <time>2022-10-19T07:31:32.410Z</time>
      </trkpt>
      <trkpt lat="43.53414" lon="5.6377">
        <ele>638</ele>
        <time>2022-10-19T07:31:33.410Z</time>
      </trkpt>
      <trkpt lat="43.53413" lon="5.6377">
        <ele>638</ele>
        <time>2022-10-19T07:31:34.410Z</time>
      </trkpt>
      <trkpt lat="43.53412" lon="5.6377">
        <ele>637</ele>
        <time>2022-10-19T07:31:35.410Z</time>
      </trkpt>
      <trkpt lat="43.53411" lon="5.6377">
        <ele>637</ele>
        <time>2022-10-19T07:31:36.410Z</time>
      </trkpt>
      <trkpt lat="43.5341" lon="5.6377">
        <ele>637</ele>
        <time>2022-10-19T07:31:37.410Z</time>
      </trkpt>
      <trkpt lat="43.5341" lon="5.6377">
        <ele>637</ele>
        <time>2022-10-19T07:31:38.410Z</time>
      </trkpt>
      <trkpt lat="43.53409" lon="5.6377">
        <ele>637</ele>
        <time>2022-10-19T07:31:39.410Z</time>
      </trkpt>
      <trkpt lat="43.53409" lon="5.6377">
        <ele>637</ele>
        <time>2022-10-19T07:31:40.410Z</time>
      </trkpt>
      <trkpt lat="43.53408" lon="5.6377">
        <ele>636</ele>
        <time>2022-10-19T07:31:41.410Z</time>
      </trkpt>
      <trkpt lat="43.53408" lon="5.6377">
        <ele>636</ele>
        <time>2022-10-19T07:31:42.410Z</time>
      </trkpt>
      <trkpt lat="43.53408" lon="5.63771">
        <ele>636</ele>
        <time>2022-10-19T07:31:43.410Z</time>
      </trkpt>
      <trkpt lat="43.53407" lon="5.63772">
        <ele>636</ele>
        <time>2022-10-19T07:31:44.410Z</time>
      </trkpt>
      <trkpt lat="43.53407" lon="5.63773">
        <ele>635</ele>
        <time>2022-10-19T07:31:45.410Z</time>
      </trkpt>
      <trkpt lat="43.53407" lon="5.63774">
        <ele>635</ele>
        <time>2022-10-19T07:31:46.410Z</time>
      </trkpt>
      <trkpt lat="43.53407" lon="5.63775">
        <ele>635</ele>
        <time>2022-10-19T07:31:47.410Z</time>
      </trkpt>
      <trkpt lat="43.53407" lon="5.63776">
        <ele>634</ele>
        <time>2022-10-19T07:31:48.410Z</time>
      </trkpt>
      <trkpt lat="43.53408" lon="5.63777">
        <ele>634</ele>
        <time>2022-10-19T07:31:49.410Z</time>
      </trkpt>
      <trkpt lat="43.53408" lon="5.63778">
        <ele>634</ele>
        <time>2022-10-19T07:31:50.410Z</time>
      </trkpt>
      <trkpt lat="43.53409" lon="5.63778">
        <ele>634</ele>
        <time>2022-10-19T07:31:51.410Z</time>
      </trkpt>
      <trkpt lat="43.5341" lon="5.63779">
        <ele>634</ele>
        <time>2022-10-19T07:31:52.410Z</time>
      </trkpt>
      <trkpt lat="43.5341" lon="5.63779">
        <ele>634</ele>
        <time>2022-10-19T07:31:53.410Z</time>
      </trkpt>
      <trkpt lat="43.53411" lon="5.6378">
        <ele>633</ele>
        <time>2022-10-19T07:31:54.410Z</time>
      </trkpt>
      <trkpt lat="43.53412" lon="5.63781">
        <ele>633</ele>
        <time>2022-10-19T07:31:55.410Z</time>
      </trkpt>
      <trkpt lat="43.53412" lon="5.63782">
        <ele>633</ele>
        <time>2022-10-19T07:31:56.410Z</time>
      </trkpt>
      <trkpt lat="43.53412" lon="5.63782">
        <ele>633</ele>
        <time>2022-10-19T07:31:57.410Z</time>
      </trkpt>
      <trkpt lat="43.53411" lon="5.63782">
        <ele>633</ele>
        <time>2022-10-19T07:31:58.410Z</time>
      </trkpt>
      <trkpt lat="43.5341" lon="5.63782">
        <ele>632</ele>
        <time>2022-10-19T07:31:59.410Z</time>
      </trkpt>
      <trkpt lat="43.53409" lon="5.63782">
        <ele>632</ele>
        <time>2022-10-19T07:32:00.410Z</time>
      </trkpt>
      <trkpt lat="43.53408" lon="5.63782">
        <ele>632</ele>
        <time>2022-10-19T07:32:01.410Z</time>
      </trkpt>
      <trkpt lat="43.53407" lon="5.63782">
        <ele>632</ele>
        <time>2022-10-19T07:32:02.410Z</time>
      </trkpt>
      <trkpt lat="43.53406" lon="5.63782">
        <ele>631</ele>
        <time>2022-10-19T07:32:03.410Z</time>
      </trkpt>
      <trkpt lat="43.53405" lon="5.63781">
        <ele>631</ele>
        <time>2022-10-19T07:32:04.410Z</time>
      </trkpt>
      <trkpt lat="43.53404" lon="5.63782">
        <ele>631</ele>
        <time>2022-10-19T07:32:05.410Z</time>
      </trkpt>
      <trkpt lat="43.53403" lon="5.63782">
        <ele>630</ele>
        <time>2022-10-19T07:32:06.410Z</time>
      </trkpt>
      <trkpt lat="43.53402" lon="5.63782">
        <ele>630</ele>
        <time>2022-10-19T07:32:07.410Z</time>
      </trkpt>
      <trkpt lat="43.53401" lon="5.63782">
        <ele>630</ele>
        <time>2022-10-19T07:32:08.410Z</time>
      </trkpt>
      <trkpt lat="43.53401" lon="5.63781">
        <ele>629</ele>
        <time>2022-10-19T07:32:09.410Z</time>
      </trkpt>
      <trkpt lat="43.534" lon="5.63781">
        <ele>629</ele>
        <time>2022-10-19T07:32:10.410Z</time>
      </trkpt>
      <trkpt lat="43.53399" lon="5.63781">
        <ele>629</ele>
        <time>2022-10-19T07:32:11.410Z</time>
      </trkpt>
      <trkpt lat="43.53398" lon="5.6378">
        <ele>628</ele>
        <time>2022-10-19T07:32:12.410Z</time>
      </trkpt>
      <trkpt lat="43.53397" lon="5.6378">
        <ele>628</ele>
        <time>2022-10-19T07:32:13.410Z</time>
      </trkpt>
      <trkpt lat="43.53397" lon="5.63779">
        <ele>628</ele>
        <time>2022-10-19T07:32:14.410Z</time>
      </trkpt>
      <trkpt lat="43.53396" lon="5.63779">
        <ele>627</ele>
        <time>2022-10-19T07:32:15.410Z</time>
      </trkpt>
      <trkpt lat="43.53395" lon="5.63778">
        <ele>627</ele>
        <time>2022-10-19T07:32:16.410Z</time>
      </trkpt>
      <trkpt lat="43.53394" lon="5.63778">
        <ele>627</ele>
        <time>2022-10-19T07:32:17.410Z</time>
      </trkpt>
      <trkpt lat="43.53393" lon="5.63777">
        <ele>627</ele>
        <time>2022-10-19T07:32:18.410Z</time>
      </trkpt>
      <trkpt lat="43.53392" lon="5.63777">
        <ele>626</ele>
        <time>2022-10-19T07:32:19.410Z</time>
      </trkpt>
      <trkpt lat="43.53391" lon="5.63777">
        <ele>626</ele>
        <time>2022-10-19T07:32:20.410Z</time>
      </trkpt>
      <trkpt lat="43.5339" lon="5.63776">
        <ele>626</ele>
        <time>2022-10-19T07:32:21.410Z</time>
      </trkpt>
      <trkpt lat="43.53389" lon="5.63776">
        <ele>625</ele>
        <time>2022-10-19T07:32:22.410Z</time>
      </trkpt>
      <trkpt lat="43.53388" lon="5.63776">
        <ele>625</ele>
        <time>2022-10-19T07:32:23.410Z</time>
      </trkpt>
      <trkpt lat="43.53387" lon="5.63776">
        <ele>625</ele>
        <time>2022-10-19T07:32:24.410Z</time>
      </trkpt>
      <trkpt lat="43.53386" lon="5.63776">
        <ele>625</ele>
        <time>2022-10-19T07:32:25.410Z</time>
      </trkpt>
      <trkpt lat="43.53385" lon="5.63776">
        <ele>624</ele>
        <time>2022-10-19T07:32:26.410Z</time>
      </trkpt>
      <trkpt lat="43.53384" lon="5.63776">
        <ele>624</ele>
        <time>2022-10-19T07:32:27.410Z</time>
      </trkpt>
      <trkpt lat="43.53383" lon="5.63776">
        <ele>624</ele>
        <time>2022-10-19T07:32:28.410Z</time>
      </trkpt>
      <trkpt lat="43.53382" lon="5.63776">
        <ele>624</ele>
        <time>2022-10-19T07:32:29.410Z</time>
      </trkpt>
      <trkpt lat="43.5338" lon="5.63775">
        <ele>624</ele>
        <time>2022-10-19T07:32:30.410Z</time>
      </trkpt>
      <trkpt lat="43.53379" lon="5.63775">
        <ele>624</ele>
        <time>2022-10-19T07:32:31.410Z</time>
      </trkpt>
      <trkpt lat="43.53378" lon="5.63775">
        <ele>624</ele>
        <time>2022-10-19T07:32:32.410Z</time>
      </trkpt>
      <trkpt lat="43.53377" lon="5.63775">
        <ele>623</ele>
        <time>2022-10-19T07:32:33.410Z</time>
      </trkpt>
      <trkpt lat="43.53376" lon="5.63774">
        <ele>623</ele>
        <time>2022-10-19T07:32:34.410Z</time>
      </trkpt>
      <trkpt lat="43.53375" lon="5.63774">
        <ele>623</ele>
        <time>2022-10-19T07:32:35.410Z</time>
      </trkpt>
      <trkpt lat="43.53375" lon="5.63773">
        <ele>623</ele>
        <time>2022-10-19T07:32:36.410Z</time>
      </trkpt>
      <trkpt lat="43.53374" lon="5.63773">
        <ele>623</ele>
        <time>2022-10-19T07:32:37.410Z</time>
      </trkpt>
      <trkpt lat="43.53373" lon="5.63772">
        <ele>623</ele>
        <time>2022-10-19T07:32:38.410Z</time>
      </trkpt>
      <trkpt lat="43.53373" lon="5.63771">
        <ele>622</ele>
        <time>2022-10-19T07:32:39.410Z</time>
      </trkpt>
      <trkpt lat="43.53373" lon="5.63769">
        <ele>622</ele>
        <time>2022-10-19T07:32:40.410Z</time>
      </trkpt>
      <trkpt lat="43.53372" lon="5.63768">
        <ele>622</ele>
        <time>2022-10-19T07:32:41.410Z</time>
      </trkpt>
      <trkpt lat="43.53372" lon="5.63768">
        <ele>622</ele>
        <time>2022-10-19T07:32:42.410Z</time>
      </trkpt>
      <trkpt lat="43.53372" lon="5.63767">
        <ele>622</ele>
        <time>2022-10-19T07:32:43.410Z</time>
      </trkpt>
      <trkpt lat="43.53372" lon="5.63766">
        <ele>622</ele>
        <time>2022-10-19T07:32:44.410Z</time>
      </trkpt>
      <trkpt lat="43.53372" lon="5.63765">
        <ele>622</ele>
        <time>2022-10-19T07:32:45.410Z</time>
      </trkpt>
      <trkpt lat="43.53372" lon="5.63764">
        <ele>622</ele>
        <time>2022-10-19T07:32:46.410Z</time>
      </trkpt>
      <trkpt lat="43.53372" lon="5.63763">
        <ele>622</ele>
        <time>2022-10-19T07:32:47.410Z</time>
      </trkpt>
      <trkpt lat="43.53372" lon="5.63763">
        <ele>621</ele>
        <time>2022-10-19T07:32:48.410Z</time>
      </trkpt>
      <trkpt lat="43.53372" lon="5.63762">
        <ele>621</ele>
        <time>2022-10-19T07:32:49.410Z</time>
      </trkpt>
      <trkpt lat="43.53372" lon="5.63761">
        <ele>621</ele>
        <time>2022-10-19T07:32:50.410Z</time>
      </trkpt>
      <trkpt lat="43.53372" lon="5.6376">
        <ele>621</ele>
        <time>2022-10-19T07:32:51.410Z</time>
      </trkpt>
      <trkpt lat="43.53372" lon="5.6376">
        <ele>621</ele>
        <time>2022-10-19T07:32:52.410Z</time>
      </trkpt>
      <trkpt lat="43.53372" lon="5.63759">
        <ele>621</ele>
        <time>2022-10-19T07:32:53.410Z</time>
      </trkpt>
      <trkpt lat="43.53372" lon="5.63759">
        <ele>621</ele>
        <time>2022-10-19T07:32:54.410Z</time>
      </trkpt>
      <trkpt lat="43.53372" lon="5.63759">
        <ele>620</ele>
        <time>2022-10-19T07:32:55.410Z</time>
      </trkpt>
      <trkpt lat="43.53372" lon="5.63758">
        <ele>620</ele>
        <time>2022-10-19T07:32:56.410Z</time>
      </trkpt>
      <trkpt lat="43.53372" lon="5.63758">
        <ele>620</ele>
        <time>2022-10-19T07:32:57.410Z</time>
      </trkpt>
      <trkpt lat="43.53371" lon="5.63757">
        <ele>620</ele>
        <time>2022-10-19T07:32:58.410Z</time>
      </trkpt>
      <trkpt lat="43.53371" lon="5.63756">
        <ele>620</ele>
        <time>2022-10-19T07:32:59.410Z</time>
      </trkpt>
      <trkpt lat="43.53371" lon="5.63755">
        <ele>620</ele>
        <time>2022-10-19T07:33:00.410Z</time>
      </trkpt>
      <trkpt lat="43.53372" lon="5.63754">
        <ele>619</ele>
        <time>2022-10-19T07:33:01.410Z</time>
      </trkpt>
      <trkpt lat="43.53372" lon="5.63753">
        <ele>619</ele>
        <time>2022-10-19T07:33:02.410Z</time>
      </trkpt>
      <trkpt lat="43.53372" lon="5.63752">
        <ele>619</ele>
        <time>2022-10-19T07:33:03.410Z</time>
      </trkpt>
      <trkpt lat="43.53372" lon="5.63751">
        <ele>619</ele>
        <time>2022-10-19T07:33:04.410Z</time>
      </trkpt>
      <trkpt lat="43.53372" lon="5.63751">
        <ele>619</ele>
        <time>2022-10-19T07:33:05.410Z</time>
      </trkpt>
      <trkpt lat="43.53372" lon="5.6375">
        <ele>619</ele>
        <time>2022-10-19T07:33:06.410Z</time>
      </trkpt>
      <trkpt lat="43.53372" lon="5.6375">
        <ele>618</ele>
        <time>2022-10-19T07:33:07.410Z</time>
      </trkpt>
      <trkpt lat="43.53372" lon="5.63749">
        <ele>618</ele>
        <time>2022-10-19T07:33:08.410Z</time>
      </trkpt>
      <trkpt lat="43.53371" lon="5.63748">
        <ele>618</ele>
        <time>2022-10-19T07:33:09.410Z</time>
      </trkpt>
      <trkpt lat="43.53371" lon="5.63748">
        <ele>618</ele>
        <time>2022-10-19T07:33:10.410Z</time>
      </trkpt>
      <trkpt lat="43.53371" lon="5.63746">
        <ele>618</ele>
        <time>2022-10-19T07:33:11.410Z</time>
      </trkpt>
      <trkpt lat="43.53371" lon="5.63746">
        <ele>617</ele>
        <time>2022-10-19T07:33:12.410Z</time>
      </trkpt>
      <trkpt lat="43.53371" lon="5.63745">
        <ele>617</ele>
        <time>2022-10-19T07:33:13.410Z</time>
      </trkpt>
      <trkpt lat="43.53371" lon="5.63745">
        <ele>617</ele>
        <time>2022-10-19T07:33:14.410Z</time>
      </trkpt>
      <trkpt lat="43.53371" lon="5.63745">
        <ele>617</ele>
        <time>2022-10-19T07:33:15.410Z</time>
      </trkpt>
      <trkpt lat="43.53371" lon="5.63745">
        <ele>617</ele>
        <time>2022-10-19T07:33:16.410Z</time>
      </trkpt>
      <trkpt lat="43.53371" lon="5.63745">
        <ele>617</ele>
        <time>2022-10-19T07:33:17.410Z</time>
      </trkpt>
      <trkpt lat="43.53371" lon="5.63745">
        <ele>617</ele>
        <time>2022-10-19T07:33:18.410Z</time>
      </trkpt>
      <trkpt lat="43.53371" lon="5.63745">
        <ele>617</ele>
        <time>2022-10-19T07:33:19.410Z</time>
      </trkpt>
      <trkpt lat="43.53371" lon="5.63744">
        <ele>617</ele>
        <time>2022-10-19T07:33:20.410Z</time>
      </trkpt>
      <trkpt lat="43.53371" lon="5.63744">
        <ele>617</ele>
        <time>2022-10-19T07:33:21.410Z</time>
      </trkpt>
      <trkpt lat="43.53371" lon="5.63744">
        <ele>617</ele>
        <time>2022-10-19T07:33:22.410Z</time>
      </trkpt>
      <trkpt lat="43.53371" lon="5.63744">
        <ele>617</ele>
        <time>2022-10-19T07:33:23.410Z</time>
      </trkpt>
      <trkpt lat="43.53371" lon="5.63743">
        <ele>617</ele>
        <time>2022-10-19T07:33:24.410Z</time>
      </trkpt>
      <trkpt lat="43.5337" lon="5.63742">
        <ele>617</ele>
        <time>2022-10-19T07:33:25.410Z</time>
      </trkpt>
      <trkpt lat="43.5337" lon="5.63742">
        <ele>617</ele>
        <time>2022-10-19T07:33:26.410Z</time>
      </trkpt>
      <trkpt lat="43.5337" lon="5.63741">
        <ele>616</ele>
        <time>2022-10-19T07:33:27.410Z</time>
      </trkpt>
      <trkpt lat="43.53369" lon="5.6374">
        <ele>616</ele>
        <time>2022-10-19T07:33:28.410Z</time>
      </trkpt>
      <trkpt lat="43.53369" lon="5.6374">
        <ele>616</ele>
        <time>2022-10-19T07:33:29.410Z</time>
      </trkpt>
      <trkpt lat="43.53369" lon="5.6374">
        <ele>616</ele>
        <time>2022-10-19T07:33:30.410Z</time>
      </trkpt>
      <trkpt lat="43.53369" lon="5.63739">
        <ele>616</ele>
        <time>2022-10-19T07:33:31.410Z</time>
      </trkpt>
      <trkpt lat="43.53369" lon="5.63739">
        <ele>616</ele>
        <time>2022-10-19T07:33:32.410Z</time>
      </trkpt>
      <trkpt lat="43.53369" lon="5.63738">
        <ele>616</ele>
        <time>2022-10-19T07:33:33.410Z</time>
      </trkpt>
      <trkpt lat="43.53369" lon="5.63738">
        <ele>616</ele>
        <time>2022-10-19T07:33:34.410Z</time>
      </trkpt>
      <trkpt lat="43.53369" lon="5.63738">
        <ele>616</ele>
        <time>2022-10-19T07:33:35.410Z</time>
      </trkpt>
      <trkpt lat="43.5337" lon="5.63737">
        <ele>616</ele>
        <time>2022-10-19T07:33:36.410Z</time>
      </trkpt>
      <trkpt lat="43.5337" lon="5.63737">
        <ele>616</ele>
        <time>2022-10-19T07:33:37.410Z</time>
      </trkpt>
      <trkpt lat="43.5337" lon="5.63737">
        <ele>616</ele>
        <time>2022-10-19T07:33:38.410Z</time>
      </trkpt>
      <trkpt lat="43.5337" lon="5.63737">
        <ele>616</ele>
        <time>2022-10-19T07:33:39.410Z</time>
      </trkpt>
      <trkpt lat="43.5337" lon="5.63737">
        <ele>616</ele>
        <time>2022-10-19T07:33:40.410Z</time>
      </trkpt>
      <trkpt lat="43.5337" lon="5.63737">
        <ele>616</ele>
        <time>2022-10-19T07:33:41.410Z</time>
      </trkpt>
      <trkpt lat="43.5337" lon="5.63737">
        <ele>616</ele>
        <time>2022-10-19T07:33:42.410Z</time>
      </trkpt>
      <trkpt lat="43.53369" lon="5.63737">
        <ele>616</ele>
        <time>2022-10-19T07:33:43.410Z</time>
      </trkpt>
      <trkpt lat="43.53369" lon="5.63736">
        <ele>616</ele>
        <time>2022-10-19T07:33:44.410Z</time>
      </trkpt>
      <trkpt lat="43.53368" lon="5.63735">
        <ele>616</ele>
        <time>2022-10-19T07:33:45.410Z</time>
      </trkpt>
      <trkpt lat="43.53368" lon="5.63735">
        <ele>616</ele>
        <time>2022-10-19T07:33:46.410Z</time>
      </trkpt>
      <trkpt lat="43.53368" lon="5.63734">
        <ele>615</ele>
        <time>2022-10-19T07:33:47.410Z</time>
      </trkpt>
      <trkpt lat="43.53368" lon="5.63733">
        <ele>615</ele>
        <time>2022-10-19T07:33:48.410Z</time>
      </trkpt>
      <trkpt lat="43.53368" lon="5.63732">
        <ele>615</ele>
        <time>2022-10-19T07:33:49.410Z</time>
      </trkpt>
      <trkpt lat="43.53367" lon="5.63731">
        <ele>615</ele>
        <time>2022-10-19T07:33:50.410Z</time>
      </trkpt>
      <trkpt lat="43.53367" lon="5.6373">
        <ele>615</ele>
        <time>2022-10-19T07:33:51.410Z</time>
      </trkpt>
      <trkpt lat="43.53367" lon="5.63729">
        <ele>615</ele>
        <time>2022-10-19T07:33:52.410Z</time>
      </trkpt>
      <trkpt lat="43.53367" lon="5.63727">
        <ele>615</ele>
        <time>2022-10-19T07:33:53.410Z</time>
      </trkpt>
      <trkpt lat="43.53368" lon="5.63726">
        <ele>615</ele>
        <time>2022-10-19T07:33:54.410Z</time>
      </trkpt>
      <trkpt lat="43.53368" lon="5.63726">
        <ele>615</ele>
        <time>2022-10-19T07:33:55.410Z</time>
      </trkpt>
      <trkpt lat="43.53369" lon="5.63725">
        <ele>615</ele>
        <time>2022-10-19T07:33:56.410Z</time>
      </trkpt>
      <trkpt lat="43.5337" lon="5.63725">
        <ele>615</ele>
        <time>2022-10-19T07:33:57.410Z</time>
      </trkpt>
      <trkpt lat="43.5337" lon="5.63724">
        <ele>615</ele>
        <time>2022-10-19T07:33:58.410Z</time>
      </trkpt>
      <trkpt lat="43.53371" lon="5.63724">
        <ele>614</ele>
        <time>2022-10-19T07:33:59.410Z</time>
      </trkpt>
      <trkpt lat="43.53371" lon="5.63724">
        <ele>614</ele>
        <time>2022-10-19T07:34:00.410Z</time>
      </trkpt>
      <trkpt lat="43.53372" lon="5.63724">
        <ele>614</ele>
        <time>2022-10-19T07:34:01.410Z</time>
      </trkpt>
      <trkpt lat="43.53372" lon="5.63724">
        <ele>614</ele>
        <time>2022-10-19T07:34:02.410Z</time>
      </trkpt>
      <trkpt lat="43.53372" lon="5.63724">
        <ele>614</ele>
        <time>2022-10-19T07:34:03.410Z</time>
      </trkpt>
      <trkpt lat="43.53372" lon="5.63724">
        <ele>614</ele>
        <time>2022-10-19T07:34:04.410Z</time>
      </trkpt>
      <trkpt lat="43.53372" lon="5.63724">
        <ele>614</ele>
        <time>2022-10-19T07:34:05.410Z</time>
      </trkpt>
      <trkpt lat="43.53372" lon="5.63724">
        <ele>614</ele>
        <time>2022-10-19T07:34:06.410Z</time>
      </trkpt>
      <trkpt lat="43.53372" lon="5.63724">
        <ele>614</ele>
        <time>2022-10-19T07:34:07.410Z</time>
      </trkpt>
      <trkpt lat="43.53372" lon="5.63724">
        <ele>614</ele>
        <time>2022-10-19T07:34:08.410Z</time>
      </trkpt>
      <trkpt lat="43.53372" lon="5.63724">
        <ele>614</ele>
        <time>2022-10-19T07:34:09.410Z</time>
      </trkpt>
      <trkpt lat="43.53372" lon="5.63724">
        <ele>614</ele>
        <time>2022-10-19T07:34:10.410Z</time>
      </trkpt>
      <trkpt lat="43.53372" lon="5.63724">
        <ele>614</ele>
        <time>2022-10-19T07:34:11.410Z</time>
      </trkpt>
      <trkpt lat="43.53373" lon="5.63723">
        <ele>614</ele>
        <time>2022-10-19T07:34:12.410Z</time>
      </trkpt>
      <trkpt lat="43.53373" lon="5.63723">
        <ele>614</ele>
        <time>2022-10-19T07:34:13.410Z</time>
      </trkpt>
      <trkpt lat="43.53373" lon="5.63723">
        <ele>614</ele>
        <time>2022-10-19T07:34:14.410Z</time>
      </trkpt>
      <trkpt lat="43.53373" lon="5.63722">
        <ele>614</ele>
        <time>2022-10-19T07:34:15.410Z</time>
      </trkpt>
      <trkpt lat="43.53373" lon="5.63722">
        <ele>614</ele>
        <time>2022-10-19T07:34:16.410Z</time>
      </trkpt>
      <trkpt lat="43.53372" lon="5.63721">
        <ele>614</ele>
        <time>2022-10-19T07:34:17.410Z</time>
      </trkpt>
      <trkpt lat="43.53372" lon="5.63721">
        <ele>614</ele>
        <time>2022-10-19T07:34:18.410Z</time>
      </trkpt>
      <trkpt lat="43.53372" lon="5.63721">
        <ele>614</ele>
        <time>2022-10-19T07:34:19.410Z</time>
      </trkpt>
      <trkpt lat="43.53372" lon="5.6372">
        <ele>614</ele>
        <time>2022-10-19T07:34:20.410Z</time>
      </trkpt>
      <trkpt lat="43.53372" lon="5.6372">
        <ele>614</ele>
        <time>2022-10-19T07:34:21.410Z</time>
      </trkpt>
      <trkpt lat="43.53372" lon="5.63719">
        <ele>614</ele>
        <time>2022-10-19T07:34:22.410Z</time>
      </trkpt>
      <trkpt lat="43.53372" lon="5.63718">
        <ele>614</ele>
        <time>2022-10-19T07:34:23.410Z</time>
      </trkpt>
      <trkpt lat="43.53372" lon="5.63718">
        <ele>614</ele>
        <time>2022-10-19T07:34:24.410Z</time>
      </trkpt>
      <trkpt lat="43.53372" lon="5.63717">
        <ele>613</ele>
        <time>2022-10-19T07:34:25.410Z</time>
      </trkpt>
      <trkpt lat="43.53372" lon="5.63717">
        <ele>613</ele>
        <time>2022-10-19T07:34:26.410Z</time>
      </trkpt>
      <trkpt lat="43.53372" lon="5.63717">
        <ele>613</ele>
        <time>2022-10-19T07:34:27.410Z</time>
      </trkpt>
      <trkpt lat="43.53372" lon="5.63717">
        <ele>613</ele>
        <time>2022-10-19T07:34:28.410Z</time>
      </trkpt>
      <trkpt lat="43.53372" lon="5.63717">
        <ele>613</ele>
        <time>2022-10-19T07:34:29.410Z</time>
      </trkpt>
      <trkpt lat="43.53372" lon="5.63717">
        <ele>613</ele>
        <time>2022-10-19T07:34:30.410Z</time>
      </trkpt>
      <trkpt lat="43.53372" lon="5.63717">
        <ele>613</ele>
        <time>2022-10-19T07:34:31.410Z</time>
      </trkpt>
      <trkpt lat="43.53372" lon="5.63717">
        <ele>613</ele>
        <time>2022-10-19T07:34:32.410Z</time>
      </trkpt>
      <trkpt lat="43.53372" lon="5.63716">
        <ele>613</ele>
        <time>2022-10-19T07:34:33.410Z</time>
      </trkpt>
      <trkpt lat="43.53372" lon="5.63716">
        <ele>613</ele>
        <time>2022-10-19T07:34:34.410Z</time>
      </trkpt>
      <trkpt lat="43.53372" lon="5.63716">
        <ele>613</ele>
        <time>2022-10-19T07:34:35.410Z</time>
      </trkpt>
      <trkpt lat="43.53372" lon="5.63716">
        <ele>613</ele>
        <time>2022-10-19T07:34:36.410Z</time>
      </trkpt>
      <trkpt lat="43.53372" lon="5.63716">
        <ele>613</ele>
        <time>2022-10-19T07:34:37.410Z</time>
      </trkpt>
      <trkpt lat="43.53372" lon="5.63716">
        <ele>613</ele>
        <time>2022-10-19T07:34:38.410Z</time>
      </trkpt>
      <trkpt lat="43.53372" lon="5.63716">
        <ele>613</ele>
        <time>2022-10-19T07:34:39.410Z</time>
      </trkpt>
      <trkpt lat="43.53372" lon="5.63716">
        <ele>613</ele>
        <time>2022-10-19T07:34:40.410Z</time>
      </trkpt>
      <trkpt lat="43.53372" lon="5.63716">
        <ele>613</ele>
        <time>2022-10-19T07:34:41.410Z</time>
      </trkpt>
      <trkpt lat="43.53372" lon="5.63716">
        <ele>613</ele>
        <time>2022-10-19T07:34:42.410Z</time>
      </trkpt>
      <trkpt lat="43.53372" lon="5.63716">
        <ele>613</ele>
        <time>2022-10-19T07:34:43.410Z</time>
      </trkpt>
      <trkpt lat="43.53372" lon="5.63716">
        <ele>613</ele>
        <time>2022-10-19T07:34:44.410Z</time>
      </trkpt>
      <trkpt lat="43.53372" lon="5.63716">
        <ele>613</ele>
        <time>2022-10-19T07:34:45.410Z</time>
      </trkpt>
      <trkpt lat="43.53372" lon="5.63716">
        <ele>613</ele>
        <time>2022-10-19T07:34:46.410Z</time>
      </trkpt>
      <trkpt lat="43.53372" lon="5.63716">
        <ele>613</ele>
        <time>2022-10-19T07:34:47.410Z</time>
      </trkpt>
      <trkpt lat="43.53372" lon="5.63716">
        <ele>613</ele>
        <time>2022-10-19T07:34:48.410Z</time>
      </trkpt>
      <trkpt lat="43.53372" lon="5.63716">
        <ele>613</ele>
        <time>2022-10-19T07:34:49.410Z</time>
      </trkpt>
      <trkpt lat="43.53372" lon="5.63716">
        <ele>613</ele>
        <time>2022-10-19T07:34:50.410Z</time>
      </trkpt>
      <trkpt lat="43.53372" lon="5.63716">
        <ele>613</ele>
        <time>2022-10-19T07:34:51.410Z</time>
      </trkpt>
      <trkpt lat="43.53372" lon="5.63715">
        <ele>613</ele>
        <time>2022-10-19T07:34:52.410Z</time>
      </trkpt>
      <trkpt lat="43.53372" lon="5.63715">
        <ele>613</ele>
        <time>2022-10-19T07:34:53.410Z</time>
      </trkpt>
      <trkpt lat="43.53372" lon="5.63715">
        <ele>613</ele>
        <time>2022-10-19T07:34:54.410Z</time>
      </trkpt>
      <trkpt lat="43.53372" lon="5.63715">
        <ele>613</ele>
        <time>2022-10-19T07:34:55.410Z</time>
      </trkpt>
      <trkpt lat="43.53372" lon="5.63715">
        <ele>613</ele>
        <time>2022-10-19T07:34:56.410Z</time>
      </trkpt>
      <trkpt lat="43.53372" lon="5.63715">
        <ele>613</ele>
        <time>2022-10-19T07:34:57.410Z</time>
      </trkpt>
      <trkpt lat="43.53372" lon="5.63715">
        <ele>613</ele>
        <time>2022-10-19T07:34:58.410Z</time>
      </trkpt>
      <trkpt lat="43.53372" lon="5.63715">
        <ele>613</ele>
        <time>2022-10-19T07:34:59.410Z</time>
      </trkpt>
      <trkpt lat="43.53372" lon="5.63715">
        <ele>613</ele>
        <time>2022-10-19T07:35:00.410Z</time>
      </trkpt>
      <trkpt lat="43.53372" lon="5.63715">
        <ele>613</ele>
        <time>2022-10-19T07:35:01.410Z</time>
      </trkpt>
      <trkpt lat="43.53372" lon="5.63715">
        <ele>613</ele>
        <time>2022-10-19T07:35:02.410Z</time>
      </trkpt>
      <trkpt lat="43.53372" lon="5.63715">
        <ele>613</ele>
        <time>2022-10-19T07:35:03.410Z</time>
      </trkpt>
      <trkpt lat="43.53372" lon="5.63715">
        <ele>613</ele>
        <time>2022-10-19T07:35:04.410Z</time>
      </trkpt>
      <trkpt lat="43.53372" lon="5.63715">
        <ele>613</ele>
        <time>2022-10-19T07:35:05.410Z</time>
      </trkpt>
      <trkpt lat="43.53372" lon="5.63714">
        <ele>613</ele>
        <time>2022-10-19T07:35:06.410Z</time>
      </trkpt>
      <trkpt lat="43.53372" lon="5.63714">
        <ele>613</ele>
        <time>2022-10-19T07:35:07.410Z</time>
      </trkpt>
      <trkpt lat="43.53372" lon="5.63713">
        <ele>613</ele>
        <time>2022-10-19T07:35:08.410Z</time>
      </trkpt>
      <trkpt lat="43.53372" lon="5.63712">
        <ele>613</ele>
        <time>2022-10-19T07:35:09.410Z</time>
      </trkpt>
      <trkpt lat="43.53372" lon="5.63711">
        <ele>613</ele>
        <time>2022-10-19T07:35:10.410Z</time>
      </trkpt>
      <trkpt lat="43.53372" lon="5.63711">
        <ele>612</ele>
        <time>2022-10-19T07:35:11.410Z</time>
      </trkpt>
      <trkpt lat="43.53372" lon="5.6371">
        <ele>612</ele>
        <time>2022-10-19T07:35:12.410Z</time>
      </trkpt>
      <trkpt lat="43.53372" lon="5.63709">
        <ele>612</ele>
        <time>2022-10-19T07:35:13.410Z</time>
      </trkpt>
      <trkpt lat="43.53372" lon="5.63708">
        <ele>612</ele>
        <time>2022-10-19T07:35:14.410Z</time>
      </trkpt>
      <trkpt lat="43.53372" lon="5.63707">
        <ele>612</ele>
        <time>2022-10-19T07:35:15.410Z</time>
      </trkpt>
      <trkpt lat="43.53372" lon="5.63706">
        <ele>612</ele>
        <time>2022-10-19T07:35:16.410Z</time>
      </trkpt>
      <trkpt lat="43.53373" lon="5.63705">
        <ele>612</ele>
        <time>2022-10-19T07:35:17.410Z</time>
      </trkpt>
      <trkpt lat="43.53373" lon="5.63705">
        <ele>612</ele>
        <time>2022-10-19T07:35:18.410Z</time>
      </trkpt>
      <trkpt lat="43.53373" lon="5.63704">
        <ele>612</ele>
        <time>2022-10-19T07:35:19.410Z</time>
      </trkpt>
      <trkpt lat="43.53373" lon="5.63704">
        <ele>612</ele>
        <time>2022-10-19T07:35:20.410Z</time>
      </trkpt>
      <trkpt lat="43.53373" lon="5.63703">
        <ele>612</ele>
        <time>2022-10-19T07:35:21.410Z</time>
      </trkpt>
      <trkpt lat="43.53373" lon="5.63703">
        <ele>612</ele>
        <time>2022-10-19T07:35:22.410Z</time>
      </trkpt>
      <trkpt lat="43.53374" lon="5.63702">
        <ele>612</ele>
        <time>2022-10-19T07:35:23.410Z</time>
      </trkpt>
      <trkpt lat="43.53374" lon="5.63701">
        <ele>612</ele>
        <time>2022-10-19T07:35:24.410Z</time>
      </trkpt>
      <trkpt lat="43.53374" lon="5.637">
        <ele>611</ele>
        <time>2022-10-19T07:35:25.410Z</time>
      </trkpt>
      <trkpt lat="43.53374" lon="5.63699">
        <ele>611</ele>
        <time>2022-10-19T07:35:26.410Z</time>
      </trkpt>
      <trkpt lat="43.53374" lon="5.63697">
        <ele>611</ele>
        <time>2022-10-19T07:35:27.410Z</time>
      </trkpt>
      <trkpt lat="43.53375" lon="5.63696">
        <ele>611</ele>
        <time>2022-10-19T07:35:28.410Z</time>
      </trkpt>
      <trkpt lat="43.53375" lon="5.63696">
        <ele>611</ele>
        <time>2022-10-19T07:35:29.410Z</time>
      </trkpt>
      <trkpt lat="43.53376" lon="5.63695">
        <ele>611</ele>
        <time>2022-10-19T07:35:30.410Z</time>
      </trkpt>
      <trkpt lat="43.53376" lon="5.63694">
        <ele>611</ele>
        <time>2022-10-19T07:35:31.410Z</time>
      </trkpt>
      <trkpt lat="43.53376" lon="5.63694">
        <ele>611</ele>
        <time>2022-10-19T07:35:32.410Z</time>
      </trkpt>
      <trkpt lat="43.53377" lon="5.63693">
        <ele>611</ele>
        <time>2022-10-19T07:35:33.410Z</time>
      </trkpt>
      <trkpt lat="43.53377" lon="5.63692">
        <ele>611</ele>
        <time>2022-10-19T07:35:34.410Z</time>
      </trkpt>
      <trkpt lat="43.53377" lon="5.63691">
        <ele>611</ele>
        <time>2022-10-19T07:35:35.410Z</time>
      </trkpt>
      <trkpt lat="43.53377" lon="5.6369">
        <ele>611</ele>
        <time>2022-10-19T07:35:36.410Z</time>
      </trkpt>
      <trkpt lat="43.53377" lon="5.6369">
        <ele>611</ele>
        <time>2022-10-19T07:35:37.410Z</time>
      </trkpt>
      <trkpt lat="43.53377" lon="5.63688">
        <ele>611</ele>
        <time>2022-10-19T07:35:38.410Z</time>
      </trkpt>
      <trkpt lat="43.53377" lon="5.63688">
        <ele>611</ele>
        <time>2022-10-19T07:35:39.410Z</time>
      </trkpt>
      <trkpt lat="43.53377" lon="5.63687">
        <ele>611</ele>
        <time>2022-10-19T07:35:40.410Z</time>
      </trkpt>
      <trkpt lat="43.53377" lon="5.63686">
        <ele>610</ele>
        <time>2022-10-19T07:35:41.410Z</time>
      </trkpt>
      <trkpt lat="43.53377" lon="5.63686">
        <ele>610</ele>
        <time>2022-10-19T07:35:42.410Z</time>
      </trkpt>
      <trkpt lat="43.53377" lon="5.63685">
        <ele>610</ele>
        <time>2022-10-19T07:35:43.410Z</time>
      </trkpt>
      <trkpt lat="43.53377" lon="5.63684">
        <ele>610</ele>
        <time>2022-10-19T07:35:44.410Z</time>
      </trkpt>
      <trkpt lat="43.53377" lon="5.63684">
        <ele>610</ele>
        <time>2022-10-19T07:35:45.410Z</time>
      </trkpt>
      <trkpt lat="43.53377" lon="5.63683">
        <ele>610</ele>
        <time>2022-10-19T07:35:46.410Z</time>
      </trkpt>
      <trkpt lat="43.53377" lon="5.63682">
        <ele>610</ele>
        <time>2022-10-19T07:35:47.410Z</time>
      </trkpt>
      <trkpt lat="43.53378" lon="5.63682">
        <ele>610</ele>
        <time>2022-10-19T07:35:48.410Z</time>
      </trkpt>
      <trkpt lat="43.53378" lon="5.63681">
        <ele>611</ele>
        <time>2022-10-19T07:35:49.410Z</time>
      </trkpt>
      <trkpt lat="43.53378" lon="5.63681">
        <ele>611</ele>
        <time>2022-10-19T07:35:50.410Z</time>
      </trkpt>
      <trkpt lat="43.53378" lon="5.63681">
        <ele>611</ele>
        <time>2022-10-19T07:35:51.410Z</time>
      </trkpt>
      <trkpt lat="43.53378" lon="5.63681">
        <ele>611</ele>
        <time>2022-10-19T07:35:52.410Z</time>
      </trkpt>
      <trkpt lat="43.53378" lon="5.63681">
        <ele>611</ele>
        <time>2022-10-19T07:35:53.410Z</time>
      </trkpt>
      <trkpt lat="43.53378" lon="5.63681">
        <ele>611</ele>
        <time>2022-10-19T07:35:54.410Z</time>
      </trkpt>
      <trkpt lat="43.53377" lon="5.63681">
        <ele>611</ele>
        <time>2022-10-19T07:35:55.410Z</time>
      </trkpt>
      <trkpt lat="43.53377" lon="5.6368">
        <ele>611</ele>
        <time>2022-10-19T07:35:56.410Z</time>
      </trkpt>
      <trkpt lat="43.53378" lon="5.6368">
        <ele>611</ele>
        <time>2022-10-19T07:35:57.410Z</time>
      </trkpt>
      <trkpt lat="43.53378" lon="5.63679">
        <ele>611</ele>
        <time>2022-10-19T07:35:58.410Z</time>
      </trkpt>
      <trkpt lat="43.53378" lon="5.63678">
        <ele>611</ele>
        <time>2022-10-19T07:35:59.410Z</time>
      </trkpt>
      <trkpt lat="43.53378" lon="5.63677">
        <ele>611</ele>
        <time>2022-10-19T07:36:00.410Z</time>
      </trkpt>
      <trkpt lat="43.53378" lon="5.63676">
        <ele>611</ele>
        <time>2022-10-19T07:36:01.410Z</time>
      </trkpt>
      <trkpt lat="43.53378" lon="5.63675">
        <ele>611</ele>
        <time>2022-10-19T07:36:02.410Z</time>
      </trkpt>
      <trkpt lat="43.53378" lon="5.63674">
        <ele>611</ele>
        <time>2022-10-19T07:36:03.410Z</time>
      </trkpt>
      <trkpt lat="43.53378" lon="5.63673">
        <ele>611</ele>
        <time>2022-10-19T07:36:04.410Z</time>
      </trkpt>
      <trkpt lat="43.53378" lon="5.63672">
        <ele>611</ele>
        <time>2022-10-19T07:36:05.410Z</time>
      </trkpt>
      <trkpt lat="43.53378" lon="5.63671">
        <ele>611</ele>
        <time>2022-10-19T07:36:06.410Z</time>
      </trkpt>
      <trkpt lat="43.53378" lon="5.6367">
        <ele>611</ele>
        <time>2022-10-19T07:36:07.410Z</time>
      </trkpt>
      <trkpt lat="43.53378" lon="5.6367">
        <ele>611</ele>
        <time>2022-10-19T07:36:08.410Z</time>
      </trkpt>
      <trkpt lat="43.53378" lon="5.63669">
        <ele>611</ele>
        <time>2022-10-19T07:36:09.410Z</time>
      </trkpt>
      <trkpt lat="43.53378" lon="5.63668">
        <ele>611</ele>
        <time>2022-10-19T07:36:10.410Z</time>
      </trkpt>
      <trkpt lat="43.53378" lon="5.63666">
        <ele>611</ele>
        <time>2022-10-19T07:36:11.410Z</time>
      </trkpt>
      <trkpt lat="43.53378" lon="5.63665">
        <ele>611</ele>
        <time>2022-10-19T07:36:12.410Z</time>
      </trkpt>
      <trkpt lat="43.53378" lon="5.63664">
        <ele>611</ele>
        <time>2022-10-19T07:36:13.410Z</time>
      </trkpt>
      <trkpt lat="43.53378" lon="5.63664">
        <ele>611</ele>
        <time>2022-10-19T07:36:14.410Z</time>
      </trkpt>
      <trkpt lat="43.53378" lon="5.63663">
        <ele>611</ele>
        <time>2022-10-19T07:36:15.410Z</time>
      </trkpt>
      <trkpt lat="43.53378" lon="5.63662">
        <ele>611</ele>
        <time>2022-10-19T07:36:16.410Z</time>
      </trkpt>
      <trkpt lat="43.53378" lon="5.6366">
        <ele>611</ele>
        <time>2022-10-19T07:36:17.410Z</time>
      </trkpt>
      <trkpt lat="43.53378" lon="5.63659">
        <ele>611</ele>
        <time>2022-10-19T07:36:18.410Z</time>
      </trkpt>
      <trkpt lat="43.53378" lon="5.63658">
        <ele>612</ele>
        <time>2022-10-19T07:36:19.410Z</time>
      </trkpt>
      <trkpt lat="43.53378" lon="5.63657">
        <ele>612</ele>
        <time>2022-10-19T07:36:20.410Z</time>
      </trkpt>
      <trkpt lat="43.53378" lon="5.63655">
        <ele>612</ele>
        <time>2022-10-19T07:36:21.410Z</time>
      </trkpt>
      <trkpt lat="43.53377" lon="5.63654">
        <ele>612</ele>
        <time>2022-10-19T07:36:22.410Z</time>
      </trkpt>
      <trkpt lat="43.53377" lon="5.63653">
        <ele>612</ele>
        <time>2022-10-19T07:36:23.410Z</time>
      </trkpt>
      <trkpt lat="43.53377" lon="5.63652">
        <ele>613</ele>
        <time>2022-10-19T07:36:24.410Z</time>
      </trkpt>
      <trkpt lat="43.53377" lon="5.63651">
        <ele>613</ele>
        <time>2022-10-19T07:36:25.410Z</time>
      </trkpt>
      <trkpt lat="43.53377" lon="5.63649">
        <ele>613</ele>
        <time>2022-10-19T07:36:26.410Z</time>
      </trkpt>
      <trkpt lat="43.53376" lon="5.63648">
        <ele>613</ele>
        <time>2022-10-19T07:36:27.410Z</time>
      </trkpt>
      <trkpt lat="43.53376" lon="5.63647">
        <ele>613</ele>
        <time>2022-10-19T07:36:28.410Z</time>
      </trkpt>
      <trkpt lat="43.53376" lon="5.63646">
        <ele>613</ele>
        <time>2022-10-19T07:36:29.410Z</time>
      </trkpt>
      <trkpt lat="43.53376" lon="5.63644">
        <ele>613</ele>
        <time>2022-10-19T07:36:30.410Z</time>
      </trkpt>
      <trkpt lat="43.53377" lon="5.63643">
        <ele>614</ele>
        <time>2022-10-19T07:36:31.410Z</time>
      </trkpt>
      <trkpt lat="43.53377" lon="5.63642">
        <ele>614</ele>
        <time>2022-10-19T07:36:32.410Z</time>
      </trkpt>
      <trkpt lat="43.53377" lon="5.63641">
        <ele>614</ele>
        <time>2022-10-19T07:36:33.410Z</time>
      </trkpt>
      <trkpt lat="43.53377" lon="5.6364">
        <ele>614</ele>
        <time>2022-10-19T07:36:34.410Z</time>
      </trkpt>
      <trkpt lat="43.53377" lon="5.63639">
        <ele>614</ele>
        <time>2022-10-19T07:36:35.410Z</time>
      </trkpt>
      <trkpt lat="43.53377" lon="5.63637">
        <ele>614</ele>
        <time>2022-10-19T07:36:36.410Z</time>
      </trkpt>
      <trkpt lat="43.53377" lon="5.63636">
        <ele>614</ele>
        <time>2022-10-19T07:36:37.410Z</time>
      </trkpt>
      <trkpt lat="43.53377" lon="5.63635">
        <ele>614</ele>
        <time>2022-10-19T07:36:38.410Z</time>
      </trkpt>
      <trkpt lat="43.53377" lon="5.63634">
        <ele>614</ele>
        <time>2022-10-19T07:36:39.410Z</time>
      </trkpt>
      <trkpt lat="43.53377" lon="5.63633">
        <ele>614</ele>
        <time>2022-10-19T07:36:40.410Z</time>
      </trkpt>
      <trkpt lat="43.53377" lon="5.63632">
        <ele>614</ele>
        <time>2022-10-19T07:36:41.410Z</time>
      </trkpt>
      <trkpt lat="43.53377" lon="5.63631">
        <ele>614</ele>
        <time>2022-10-19T07:36:42.410Z</time>
      </trkpt>
      <trkpt lat="43.53377" lon="5.63629">
        <ele>614</ele>
        <time>2022-10-19T07:36:43.410Z</time>
      </trkpt>
      <trkpt lat="43.53378" lon="5.63628">
        <ele>615</ele>
        <time>2022-10-19T07:36:44.410Z</time>
      </trkpt>
      <trkpt lat="43.53378" lon="5.63627">
        <ele>615</ele>
        <time>2022-10-19T07:36:45.410Z</time>
      </trkpt>
      <trkpt lat="43.53378" lon="5.63626">
        <ele>615</ele>
        <time>2022-10-19T07:36:46.410Z</time>
      </trkpt>
      <trkpt lat="43.53378" lon="5.63625">
        <ele>615</ele>
        <time>2022-10-19T07:36:47.410Z</time>
      </trkpt>
      <trkpt lat="43.53379" lon="5.63624">
        <ele>615</ele>
        <time>2022-10-19T07:36:48.410Z</time>
      </trkpt>
      <trkpt lat="43.53379" lon="5.63623">
        <ele>615</ele>
        <time>2022-10-19T07:36:49.410Z</time>
      </trkpt>
      <trkpt lat="43.53379" lon="5.63622">
        <ele>615</ele>
        <time>2022-10-19T07:36:50.410Z</time>
      </trkpt>
      <trkpt lat="43.53379" lon="5.63621">
        <ele>615</ele>
        <time>2022-10-19T07:36:51.410Z</time>
      </trkpt>
      <trkpt lat="43.53379" lon="5.6362">
        <ele>615</ele>
        <time>2022-10-19T07:36:52.410Z</time>
      </trkpt>
      <trkpt lat="43.53379" lon="5.63618">
        <ele>615</ele>
        <time>2022-10-19T07:36:53.410Z</time>
      </trkpt>
      <trkpt lat="43.5338" lon="5.63617">
        <ele>615</ele>
        <time>2022-10-19T07:36:54.410Z</time>
      </trkpt>
      <trkpt lat="43.5338" lon="5.63616">
        <ele>615</ele>
        <time>2022-10-19T07:36:55.410Z</time>
      </trkpt>
      <trkpt lat="43.5338" lon="5.63615">
        <ele>616</ele>
        <time>2022-10-19T07:36:56.410Z</time>
      </trkpt>
      <trkpt lat="43.5338" lon="5.63615">
        <ele>616</ele>
        <time>2022-10-19T07:36:57.410Z</time>
      </trkpt>
      <trkpt lat="43.5338" lon="5.63614">
        <ele>616</ele>
        <time>2022-10-19T07:36:58.410Z</time>
      </trkpt>
      <trkpt lat="43.5338" lon="5.63612">
        <ele>616</ele>
        <time>2022-10-19T07:36:59.410Z</time>
      </trkpt>
      <trkpt lat="43.5338" lon="5.63611">
        <ele>616</ele>
        <time>2022-10-19T07:37:00.410Z</time>
      </trkpt>
      <trkpt lat="43.5338" lon="5.6361">
        <ele>616</ele>
        <time>2022-10-19T07:37:01.410Z</time>
      </trkpt>
      <trkpt lat="43.5338" lon="5.63609">
        <ele>616</ele>
        <time>2022-10-19T07:37:02.410Z</time>
      </trkpt>
      <trkpt lat="43.5338" lon="5.63608">
        <ele>616</ele>
        <time>2022-10-19T07:37:03.410Z</time>
      </trkpt>
      <trkpt lat="43.5338" lon="5.63606">
        <ele>616</ele>
        <time>2022-10-19T07:37:04.410Z</time>
      </trkpt>
      <trkpt lat="43.5338" lon="5.63605">
        <ele>616</ele>
        <time>2022-10-19T07:37:05.410Z</time>
      </trkpt>
      <trkpt lat="43.5338" lon="5.63604">
        <ele>616</ele>
        <time>2022-10-19T07:37:06.410Z</time>
      </trkpt>
      <trkpt lat="43.5338" lon="5.63602">
        <ele>616</ele>
        <time>2022-10-19T07:37:07.410Z</time>
      </trkpt>
      <trkpt lat="43.5338" lon="5.63601">
        <ele>616</ele>
        <time>2022-10-19T07:37:08.410Z</time>
      </trkpt>
      <trkpt lat="43.5338" lon="5.63599">
        <ele>616</ele>
        <time>2022-10-19T07:37:09.410Z</time>
      </trkpt>
      <trkpt lat="43.5338" lon="5.63598">
        <ele>616</ele>
        <time>2022-10-19T07:37:10.410Z</time>
      </trkpt>
      <trkpt lat="43.5338" lon="5.63597">
        <ele>616</ele>
        <time>2022-10-19T07:37:11.410Z</time>
      </trkpt>
      <trkpt lat="43.5338" lon="5.63595">
        <ele>616</ele>
        <time>2022-10-19T07:37:12.410Z</time>
      </trkpt>
      <trkpt lat="43.5338" lon="5.63594">
        <ele>616</ele>
        <time>2022-10-19T07:37:13.410Z</time>
      </trkpt>
      <trkpt lat="43.5338" lon="5.63593">
        <ele>616</ele>
        <time>2022-10-19T07:37:14.410Z</time>
      </trkpt>
      <trkpt lat="43.53381" lon="5.63591">
        <ele>616</ele>
        <time>2022-10-19T07:37:15.410Z</time>
      </trkpt>
      <trkpt lat="43.5338" lon="5.6359">
        <ele>616</ele>
        <time>2022-10-19T07:37:16.410Z</time>
      </trkpt>
      <trkpt lat="43.5338" lon="5.63589">
        <ele>616</ele>
        <time>2022-10-19T07:37:17.410Z</time>
      </trkpt>
      <trkpt lat="43.5338" lon="5.63587">
        <ele>616</ele>
        <time>2022-10-19T07:37:18.410Z</time>
      </trkpt>
      <trkpt lat="43.5338" lon="5.63586">
        <ele>616</ele>
        <time>2022-10-19T07:37:19.410Z</time>
      </trkpt>
      <trkpt lat="43.5338" lon="5.63584">
        <ele>616</ele>
        <time>2022-10-19T07:37:20.410Z</time>
      </trkpt>
      <trkpt lat="43.5338" lon="5.63583">
        <ele>616</ele>
        <time>2022-10-19T07:37:21.410Z</time>
      </trkpt>
      <trkpt lat="43.5338" lon="5.63582">
        <ele>617</ele>
        <time>2022-10-19T07:37:22.410Z</time>
      </trkpt>
      <trkpt lat="43.5338" lon="5.63581">
        <ele>617</ele>
        <time>2022-10-19T07:37:23.410Z</time>
      </trkpt>
      <trkpt lat="43.5338" lon="5.63579">
        <ele>617</ele>
        <time>2022-10-19T07:37:24.410Z</time>
      </trkpt>
      <trkpt lat="43.5338" lon="5.63578">
        <ele>617</ele>
        <time>2022-10-19T07:37:25.410Z</time>
      </trkpt>
      <trkpt lat="43.5338" lon="5.63576">
        <ele>617</ele>
        <time>2022-10-19T07:37:26.410Z</time>
      </trkpt>
      <trkpt lat="43.53379" lon="5.63575">
        <ele>617</ele>
        <time>2022-10-19T07:37:27.410Z</time>
      </trkpt>
      <trkpt lat="43.53379" lon="5.63574">
        <ele>617</ele>
        <time>2022-10-19T07:37:28.410Z</time>
      </trkpt>
      <trkpt lat="43.53379" lon="5.63573">
        <ele>617</ele>
        <time>2022-10-19T07:37:29.410Z</time>
      </trkpt>
      <trkpt lat="43.53379" lon="5.63571">
        <ele>617</ele>
        <time>2022-10-19T07:37:30.410Z</time>
      </trkpt>
      <trkpt lat="43.53379" lon="5.6357">
        <ele>617</ele>
        <time>2022-10-19T07:37:31.410Z</time>
      </trkpt>
      <trkpt lat="43.53379" lon="5.63569">
        <ele>617</ele>
        <time>2022-10-19T07:37:32.410Z</time>
      </trkpt>
      <trkpt lat="43.53379" lon="5.63567">
        <ele>617</ele>
        <time>2022-10-19T07:37:33.410Z</time>
      </trkpt>
      <trkpt lat="43.53379" lon="5.63566">
        <ele>617</ele>
        <time>2022-10-19T07:37:34.410Z</time>
      </trkpt>
      <trkpt lat="43.53378" lon="5.63565">
        <ele>617</ele>
        <time>2022-10-19T07:37:35.410Z</time>
      </trkpt>
      <trkpt lat="43.53379" lon="5.63564">
        <ele>617</ele>
        <time>2022-10-19T07:37:36.410Z</time>
      </trkpt>
      <trkpt lat="43.53379" lon="5.63562">
        <ele>617</ele>
        <time>2022-10-19T07:37:37.410Z</time>
      </trkpt>
      <trkpt lat="43.53379" lon="5.63561">
        <ele>617</ele>
        <time>2022-10-19T07:37:38.410Z</time>
      </trkpt>
      <trkpt lat="43.53379" lon="5.6356">
        <ele>617</ele>
        <time>2022-10-19T07:37:39.410Z</time>
      </trkpt>
      <trkpt lat="43.53379" lon="5.63559">
        <ele>617</ele>
        <time>2022-10-19T07:37:40.410Z</time>
      </trkpt>
      <trkpt lat="43.53379" lon="5.63558">
        <ele>617</ele>
        <time>2022-10-19T07:37:41.410Z</time>
      </trkpt>
      <trkpt lat="43.53379" lon="5.63557">
        <ele>617</ele>
        <time>2022-10-19T07:37:42.410Z</time>
      </trkpt>
      <trkpt lat="43.53379" lon="5.63556">
        <ele>617</ele>
        <time>2022-10-19T07:37:43.410Z</time>
      </trkpt>
      <trkpt lat="43.53379" lon="5.63555">
        <ele>617</ele>
        <time>2022-10-19T07:37:44.410Z</time>
      </trkpt>
      <trkpt lat="43.53379" lon="5.63553">
        <ele>617</ele>
        <time>2022-10-19T07:37:45.410Z</time>
      </trkpt>
      <trkpt lat="43.53378" lon="5.63552">
        <ele>616</ele>
        <time>2022-10-19T07:37:46.410Z</time>
      </trkpt>
      <trkpt lat="43.53378" lon="5.6355">
        <ele>616</ele>
        <time>2022-10-19T07:37:47.410Z</time>
      </trkpt>
      <trkpt lat="43.53378" lon="5.63549">
        <ele>616</ele>
        <time>2022-10-19T07:37:48.410Z</time>
      </trkpt>
      <trkpt lat="43.53377" lon="5.63548">
        <ele>616</ele>
        <time>2022-10-19T07:37:49.410Z</time>
      </trkpt>
      <trkpt lat="43.53377" lon="5.63547">
        <ele>616</ele>
        <time>2022-10-19T07:37:50.410Z</time>
      </trkpt>
      <trkpt lat="43.53377" lon="5.63546">
        <ele>616</ele>
        <time>2022-10-19T07:37:51.410Z</time>
      </trkpt>
      <trkpt lat="43.53376" lon="5.63545">
        <ele>616</ele>
        <time>2022-10-19T07:37:52.410Z</time>
      </trkpt>
      <trkpt lat="43.53376" lon="5.63544">
        <ele>616</ele>
        <time>2022-10-19T07:37:53.410Z</time>
      </trkpt>
      <trkpt lat="43.53375" lon="5.63543">
        <ele>616</ele>
        <time>2022-10-19T07:37:54.410Z</time>
      </trkpt>
      <trkpt lat="43.53375" lon="5.63542">
        <ele>616</ele>
        <time>2022-10-19T07:37:55.410Z</time>
      </trkpt>
      <trkpt lat="43.53374" lon="5.6354">
        <ele>616</ele>
        <time>2022-10-19T07:37:56.410Z</time>
      </trkpt>
      <trkpt lat="43.53374" lon="5.63539">
        <ele>616</ele>
        <time>2022-10-19T07:37:57.410Z</time>
      </trkpt>
      <trkpt lat="43.53373" lon="5.63537">
        <ele>616</ele>
        <time>2022-10-19T07:37:58.410Z</time>
      </trkpt>
      <trkpt lat="43.53373" lon="5.63536">
        <ele>616</ele>
        <time>2022-10-19T07:37:59.410Z</time>
      </trkpt>
      <trkpt lat="43.53373" lon="5.63535">
        <ele>616</ele>
        <time>2022-10-19T07:38:00.410Z</time>
      </trkpt>
      <trkpt lat="43.53372" lon="5.63533">
        <ele>615</ele>
        <time>2022-10-19T07:38:01.410Z</time>
      </trkpt>
      <trkpt lat="43.53372" lon="5.63532">
        <ele>615</ele>
        <time>2022-10-19T07:38:02.410Z</time>
      </trkpt>
      <trkpt lat="43.53373" lon="5.63531">
        <ele>615</ele>
        <time>2022-10-19T07:38:03.410Z</time>
      </trkpt>
      <trkpt lat="43.53372" lon="5.6353">
        <ele>615</ele>
        <time>2022-10-19T07:38:04.410Z</time>
      </trkpt>
      <trkpt lat="43.53372" lon="5.6353">
        <ele>615</ele>
        <time>2022-10-19T07:38:05.410Z</time>
      </trkpt>
      <trkpt lat="43.53372" lon="5.63528">
        <ele>615</ele>
        <time>2022-10-19T07:38:06.410Z</time>
      </trkpt>
      <trkpt lat="43.53373" lon="5.63527">
        <ele>615</ele>
        <time>2022-10-19T07:38:07.410Z</time>
      </trkpt>
      <trkpt lat="43.53373" lon="5.63526">
        <ele>615</ele>
        <time>2022-10-19T07:38:08.410Z</time>
      </trkpt>
      <trkpt lat="43.53373" lon="5.63525">
        <ele>616</ele>
        <time>2022-10-19T07:38:09.410Z</time>
      </trkpt>
      <trkpt lat="43.53373" lon="5.63524">
        <ele>616</ele>
        <time>2022-10-19T07:38:10.410Z</time>
      </trkpt>
      <trkpt lat="43.53374" lon="5.63523">
        <ele>616</ele>
        <time>2022-10-19T07:38:11.410Z</time>
      </trkpt>
      <trkpt lat="43.53374" lon="5.63522">
        <ele>616</ele>
        <time>2022-10-19T07:38:12.410Z</time>
      </trkpt>
      <trkpt lat="43.53374" lon="5.6352">
        <ele>616</ele>
        <time>2022-10-19T07:38:13.410Z</time>
      </trkpt>
      <trkpt lat="43.53374" lon="5.63519">
        <ele>616</ele>
        <time>2022-10-19T07:38:14.410Z</time>
      </trkpt>
      <trkpt lat="43.53374" lon="5.63518">
        <ele>616</ele>
        <time>2022-10-19T07:38:15.410Z</time>
      </trkpt>
      <trkpt lat="43.53374" lon="5.63516">
        <ele>616</ele>
        <time>2022-10-19T07:38:16.410Z</time>
      </trkpt>
      <trkpt lat="43.53374" lon="5.63515">
        <ele>616</ele>
        <time>2022-10-19T07:38:17.410Z</time>
      </trkpt>
      <trkpt lat="43.53374" lon="5.63514">
        <ele>616</ele>
        <time>2022-10-19T07:38:18.410Z</time>
      </trkpt>
      <trkpt lat="43.53373" lon="5.63512">
        <ele>616</ele>
        <time>2022-10-19T07:38:19.410Z</time>
      </trkpt>
      <trkpt lat="43.53373" lon="5.63511">
        <ele>616</ele>
        <time>2022-10-19T07:38:20.410Z</time>
      </trkpt>
      <trkpt lat="43.53373" lon="5.63509">
        <ele>616</ele>
        <time>2022-10-19T07:38:21.410Z</time>
      </trkpt>
      <trkpt lat="43.53373" lon="5.63508">
        <ele>616</ele>
        <time>2022-10-19T07:38:22.410Z</time>
      </trkpt>
      <trkpt lat="43.53373" lon="5.63507">
        <ele>616</ele>
        <time>2022-10-19T07:38:23.410Z</time>
      </trkpt>
      <trkpt lat="43.53374" lon="5.63506">
        <ele>616</ele>
        <time>2022-10-19T07:38:24.410Z</time>
      </trkpt>
      <trkpt lat="43.53374" lon="5.63505">
        <ele>616</ele>
        <time>2022-10-19T07:38:25.410Z</time>
      </trkpt>
      <trkpt lat="43.53374" lon="5.63504">
        <ele>616</ele>
        <time>2022-10-19T07:38:26.410Z</time>
      </trkpt>
      <trkpt lat="43.53374" lon="5.63502">
        <ele>616</ele>
        <time>2022-10-19T07:38:27.410Z</time>
      </trkpt>
      <trkpt lat="43.53374" lon="5.63501">
        <ele>616</ele>
        <time>2022-10-19T07:38:28.410Z</time>
      </trkpt>
      <trkpt lat="43.53374" lon="5.635">
        <ele>617</ele>
        <time>2022-10-19T07:38:29.410Z</time>
      </trkpt>
      <trkpt lat="43.53375" lon="5.63499">
        <ele>617</ele>
        <time>2022-10-19T07:38:30.410Z</time>
      </trkpt>
      <trkpt lat="43.53375" lon="5.63498">
        <ele>617</ele>
        <time>2022-10-19T07:38:31.410Z</time>
      </trkpt>
      <trkpt lat="43.53375" lon="5.63496">
        <ele>617</ele>
        <time>2022-10-19T07:38:32.410Z</time>
      </trkpt>
      <trkpt lat="43.53375" lon="5.63495">
        <ele>617</ele>
        <time>2022-10-19T07:38:33.410Z</time>
      </trkpt>
      <trkpt lat="43.53375" lon="5.63494">
        <ele>617</ele>
        <time>2022-10-19T07:38:34.410Z</time>
      </trkpt>
      <trkpt lat="43.53375" lon="5.63493">
        <ele>617</ele>
        <time>2022-10-19T07:38:35.410Z</time>
      </trkpt>
      <trkpt lat="43.53376" lon="5.63491">
        <ele>617</ele>
        <time>2022-10-19T07:38:36.410Z</time>
      </trkpt>
      <trkpt lat="43.53376" lon="5.6349">
        <ele>617</ele>
        <time>2022-10-19T07:38:37.410Z</time>
      </trkpt>
      <trkpt lat="43.53376" lon="5.63489">
        <ele>617</ele>
        <time>2022-10-19T07:38:38.410Z</time>
      </trkpt>
      <trkpt lat="43.53376" lon="5.63488">
        <ele>617</ele>
        <time>2022-10-19T07:38:39.410Z</time>
      </trkpt>
      <trkpt lat="43.53376" lon="5.63487">
        <ele>617</ele>
        <time>2022-10-19T07:38:40.410Z</time>
      </trkpt>
      <trkpt lat="43.53376" lon="5.63486">
        <ele>617</ele>
        <time>2022-10-19T07:38:41.410Z</time>
      </trkpt>
      <trkpt lat="43.53377" lon="5.63485">
        <ele>617</ele>
        <time>2022-10-19T07:38:42.410Z</time>
      </trkpt>
      <trkpt lat="43.53377" lon="5.63484">
        <ele>617</ele>
        <time>2022-10-19T07:38:43.410Z</time>
      </trkpt>
      <trkpt lat="43.53377" lon="5.63483">
        <ele>617</ele>
        <time>2022-10-19T07:38:44.410Z</time>
      </trkpt>
      <trkpt lat="43.53377" lon="5.63481">
        <ele>617</ele>
        <time>2022-10-19T07:38:45.410Z</time>
      </trkpt>
      <trkpt lat="43.53378" lon="5.6348">
        <ele>617</ele>
        <time>2022-10-19T07:38:46.410Z</time>
      </trkpt>
      <trkpt lat="43.53378" lon="5.63479">
        <ele>617</ele>
        <time>2022-10-19T07:38:47.410Z</time>
      </trkpt>
      <trkpt lat="43.53378" lon="5.63477">
        <ele>617</ele>
        <time>2022-10-19T07:38:48.410Z</time>
      </trkpt>
      <trkpt lat="43.53379" lon="5.63476">
        <ele>617</ele>
        <time>2022-10-19T07:38:49.410Z</time>
      </trkpt>
      <trkpt lat="43.53379" lon="5.63475">
        <ele>617</ele>
        <time>2022-10-19T07:38:50.410Z</time>
      </trkpt>
      <trkpt lat="43.53379" lon="5.63473">
        <ele>617</ele>
        <time>2022-10-19T07:38:51.410Z</time>
      </trkpt>
      <trkpt lat="43.53378" lon="5.63472">
        <ele>617</ele>
        <time>2022-10-19T07:38:52.410Z</time>
      </trkpt>
      <trkpt lat="43.53378" lon="5.63471">
        <ele>617</ele>
        <time>2022-10-19T07:38:53.410Z</time>
      </trkpt>
      <trkpt lat="43.53378" lon="5.63469">
        <ele>617</ele>
        <time>2022-10-19T07:38:54.410Z</time>
      </trkpt>
      <trkpt lat="43.53378" lon="5.63468">
        <ele>617</ele>
        <time>2022-10-19T07:38:55.410Z</time>
      </trkpt>
      <trkpt lat="43.53378" lon="5.63466">
        <ele>617</ele>
        <time>2022-10-19T07:38:56.410Z</time>
      </trkpt>
      <trkpt lat="43.53379" lon="5.63464">
        <ele>617</ele>
        <time>2022-10-19T07:38:57.410Z</time>
      </trkpt>
      <trkpt lat="43.53379" lon="5.63463">
        <ele>617</ele>
        <time>2022-10-19T07:38:58.410Z</time>
      </trkpt>
      <trkpt lat="43.53379" lon="5.63461">
        <ele>617</ele>
        <time>2022-10-19T07:38:59.410Z</time>
      </trkpt>
      <trkpt lat="43.53379" lon="5.6346">
        <ele>617</ele>
        <time>2022-10-19T07:39:00.410Z</time>
      </trkpt>
      <trkpt lat="43.53379" lon="5.63459">
        <ele>618</ele>
        <time>2022-10-19T07:39:01.410Z</time>
      </trkpt>
      <trkpt lat="43.53379" lon="5.63457">
        <ele>618</ele>
        <time>2022-10-19T07:39:02.410Z</time>
      </trkpt>
      <trkpt lat="43.53379" lon="5.63456">
        <ele>618</ele>
        <time>2022-10-19T07:39:03.410Z</time>
      </trkpt>
      <trkpt lat="43.53379" lon="5.63454">
        <ele>618</ele>
        <time>2022-10-19T07:39:04.410Z</time>
      </trkpt>
      <trkpt lat="43.5338" lon="5.63453">
        <ele>618</ele>
        <time>2022-10-19T07:39:05.410Z</time>
      </trkpt>
      <trkpt lat="43.5338" lon="5.63451">
        <ele>618</ele>
        <time>2022-10-19T07:39:06.410Z</time>
      </trkpt>
      <trkpt lat="43.5338" lon="5.6345">
        <ele>618</ele>
        <time>2022-10-19T07:39:07.410Z</time>
      </trkpt>
      <trkpt lat="43.5338" lon="5.63449">
        <ele>618</ele>
        <time>2022-10-19T07:39:08.410Z</time>
      </trkpt>
      <trkpt lat="43.5338" lon="5.63447">
        <ele>618</ele>
        <time>2022-10-19T07:39:09.410Z</time>
      </trkpt>
      <trkpt lat="43.53381" lon="5.63446">
        <ele>618</ele>
        <time>2022-10-19T07:39:10.410Z</time>
      </trkpt>
      <trkpt lat="43.53381" lon="5.63444">
        <ele>618</ele>
        <time>2022-10-19T07:39:11.410Z</time>
      </trkpt>
      <trkpt lat="43.53381" lon="5.63442">
        <ele>618</ele>
        <time>2022-10-19T07:39:12.410Z</time>
      </trkpt>
      <trkpt lat="43.53381" lon="5.63441">
        <ele>618</ele>
        <time>2022-10-19T07:39:13.410Z</time>
      </trkpt>
      <trkpt lat="43.53382" lon="5.6344">
        <ele>618</ele>
        <time>2022-10-19T07:39:14.410Z</time>
      </trkpt>
      <trkpt lat="43.53383" lon="5.63439">
        <ele>618</ele>
        <time>2022-10-19T07:39:15.410Z</time>
      </trkpt>
      <trkpt lat="43.53383" lon="5.63438">
        <ele>618</ele>
        <time>2022-10-19T07:39:16.410Z</time>
      </trkpt>
      <trkpt lat="43.53384" lon="5.63437">
        <ele>618</ele>
        <time>2022-10-19T07:39:17.410Z</time>
      </trkpt>
      <trkpt lat="43.53384" lon="5.63436">
        <ele>618</ele>
        <time>2022-10-19T07:39:18.410Z</time>
      </trkpt>
      <trkpt lat="43.53385" lon="5.63435">
        <ele>618</ele>
        <time>2022-10-19T07:39:19.410Z</time>
      </trkpt>
      <trkpt lat="43.53385" lon="5.63434">
        <ele>618</ele>
        <time>2022-10-19T07:39:20.410Z</time>
      </trkpt>
      <trkpt lat="43.53386" lon="5.63433">
        <ele>618</ele>
        <time>2022-10-19T07:39:21.410Z</time>
      </trkpt>
      <trkpt lat="43.53386" lon="5.63431">
        <ele>618</ele>
        <time>2022-10-19T07:39:22.410Z</time>
      </trkpt>
      <trkpt lat="43.53386" lon="5.6343">
        <ele>618</ele>
        <time>2022-10-19T07:39:23.410Z</time>
      </trkpt>
      <trkpt lat="43.53386" lon="5.63428">
        <ele>618</ele>
        <time>2022-10-19T07:39:24.410Z</time>
      </trkpt>
      <trkpt lat="43.53387" lon="5.63428">
        <ele>618</ele>
        <time>2022-10-19T07:39:25.410Z</time>
      </trkpt>
      <trkpt lat="43.53387" lon="5.63427">
        <ele>618</ele>
        <time>2022-10-19T07:39:26.410Z</time>
      </trkpt>
      <trkpt lat="43.53387" lon="5.63426">
        <ele>618</ele>
        <time>2022-10-19T07:39:27.410Z</time>
      </trkpt>
      <trkpt lat="43.53388" lon="5.63425">
        <ele>618</ele>
        <time>2022-10-19T07:39:28.410Z</time>
      </trkpt>
      <trkpt lat="43.53387" lon="5.63424">
        <ele>618</ele>
        <time>2022-10-19T07:39:29.410Z</time>
      </trkpt>
      <trkpt lat="43.53387" lon="5.63423">
        <ele>618</ele>
        <time>2022-10-19T07:39:30.410Z</time>
      </trkpt>
      <trkpt lat="43.53387" lon="5.63422">
        <ele>617</ele>
        <time>2022-10-19T07:39:31.410Z</time>
      </trkpt>
      <trkpt lat="43.53386" lon="5.6342">
        <ele>617</ele>
        <time>2022-10-19T07:39:32.410Z</time>
      </trkpt>
      <trkpt lat="43.53386" lon="5.63419">
        <ele>617</ele>
        <time>2022-10-19T07:39:33.410Z</time>
      </trkpt>
      <trkpt lat="43.53386" lon="5.63417">
        <ele>617</ele>
        <time>2022-10-19T07:39:34.410Z</time>
      </trkpt>
      <trkpt lat="43.53387" lon="5.63416">
        <ele>617</ele>
        <time>2022-10-19T07:39:35.410Z</time>
      </trkpt>
      <trkpt lat="43.53387" lon="5.63415">
        <ele>617</ele>
        <time>2022-10-19T07:39:36.410Z</time>
      </trkpt>
      <trkpt lat="43.53387" lon="5.63414">
        <ele>617</ele>
        <time>2022-10-19T07:39:37.410Z</time>
      </trkpt>
      <trkpt lat="43.53388" lon="5.63414">
        <ele>617</ele>
        <time>2022-10-19T07:39:38.410Z</time>
      </trkpt>
      <trkpt lat="43.53388" lon="5.63413">
        <ele>617</ele>
        <time>2022-10-19T07:39:39.410Z</time>
      </trkpt>
      <trkpt lat="43.53389" lon="5.63412">
        <ele>617</ele>
        <time>2022-10-19T07:39:40.410Z</time>
      </trkpt>
      <trkpt lat="43.53389" lon="5.63412">
        <ele>617</ele>
        <time>2022-10-19T07:39:41.410Z</time>
      </trkpt>
      <trkpt lat="43.53389" lon="5.63411">
        <ele>617</ele>
        <time>2022-10-19T07:39:42.410Z</time>
      </trkpt>
      <trkpt lat="43.5339" lon="5.6341">
        <ele>617</ele>
        <time>2022-10-19T07:39:43.410Z</time>
      </trkpt>
      <trkpt lat="43.5339" lon="5.63409">
        <ele>617</ele>
        <time>2022-10-19T07:39:44.410Z</time>
      </trkpt>
      <trkpt lat="43.5339" lon="5.63408">
        <ele>617</ele>
        <time>2022-10-19T07:39:45.410Z</time>
      </trkpt>
      <trkpt lat="43.5339" lon="5.63407">
        <ele>618</ele>
        <time>2022-10-19T07:39:46.410Z</time>
      </trkpt>
      <trkpt lat="43.5339" lon="5.63406">
        <ele>618</ele>
        <time>2022-10-19T07:39:47.410Z</time>
      </trkpt>
      <trkpt lat="43.5339" lon="5.63404">
        <ele>618</ele>
        <time>2022-10-19T07:39:48.410Z</time>
      </trkpt>
      <trkpt lat="43.5339" lon="5.63402">
        <ele>618</ele>
        <time>2022-10-19T07:39:49.410Z</time>
      </trkpt>
      <trkpt lat="43.5339" lon="5.63401">
        <ele>618</ele>
        <time>2022-10-19T07:39:50.410Z</time>
      </trkpt>
      <trkpt lat="43.53391" lon="5.634">
        <ele>618</ele>
        <time>2022-10-19T07:39:51.410Z</time>
      </trkpt>
      <trkpt lat="43.53391" lon="5.63399">
        <ele>618</ele>
        <time>2022-10-19T07:39:52.410Z</time>
      </trkpt>
      <trkpt lat="43.53391" lon="5.63398">
        <ele>618</ele>
        <time>2022-10-19T07:39:53.410Z</time>
      </trkpt>
      <trkpt lat="43.53391" lon="5.63397">
        <ele>618</ele>
        <time>2022-10-19T07:39:54.410Z</time>
      </trkpt>
      <trkpt lat="43.53391" lon="5.63396">
        <ele>618</ele>
        <time>2022-10-19T07:39:55.410Z</time>
      </trkpt>
      <trkpt lat="43.5339" lon="5.63394">
        <ele>618</ele>
        <time>2022-10-19T07:39:56.410Z</time>
      </trkpt>
      <trkpt lat="43.53391" lon="5.63393">
        <ele>618</ele>
        <time>2022-10-19T07:39:57.410Z</time>
      </trkpt>
      <trkpt lat="43.53391" lon="5.63391">
        <ele>618</ele>
        <time>2022-10-19T07:39:58.410Z</time>
      </trkpt>
      <trkpt lat="43.53391" lon="5.6339">
        <ele>618</ele>
        <time>2022-10-19T07:39:59.410Z</time>
      </trkpt>
      <trkpt lat="43.53391" lon="5.63389">
        <ele>618</ele>
        <time>2022-10-19T07:40:00.410Z</time>
      </trkpt>
      <trkpt lat="43.53391" lon="5.63388">
        <ele>618</ele>
        <time>2022-10-19T07:40:01.410Z</time>
      </trkpt>
      <trkpt lat="43.53391" lon="5.63387">
        <ele>617</ele>
        <time>2022-10-19T07:40:02.410Z</time>
      </trkpt>
      <trkpt lat="43.53391" lon="5.63386">
        <ele>617</ele>
        <time>2022-10-19T07:40:03.410Z</time>
      </trkpt>
      <trkpt lat="43.53391" lon="5.63384">
        <ele>617</ele>
        <time>2022-10-19T07:40:04.410Z</time>
      </trkpt>
      <trkpt lat="43.53391" lon="5.63383">
        <ele>617</ele>
        <time>2022-10-19T07:40:05.410Z</time>
      </trkpt>
      <trkpt lat="43.53391" lon="5.63382">
        <ele>617</ele>
        <time>2022-10-19T07:40:06.410Z</time>
      </trkpt>
      <trkpt lat="43.53391" lon="5.6338">
        <ele>617</ele>
        <time>2022-10-19T07:40:07.410Z</time>
      </trkpt>
      <trkpt lat="43.53392" lon="5.63379">
        <ele>617</ele>
        <time>2022-10-19T07:40:08.410Z</time>
      </trkpt>
      <trkpt lat="43.53392" lon="5.63378">
        <ele>617</ele>
        <time>2022-10-19T07:40:09.410Z</time>
      </trkpt>
      <trkpt lat="43.53393" lon="5.63377">
        <ele>617</ele>
        <time>2022-10-19T07:40:10.410Z</time>
      </trkpt>
      <trkpt lat="43.53394" lon="5.63376">
        <ele>617</ele>
        <time>2022-10-19T07:40:11.410Z</time>
      </trkpt>
      <trkpt lat="43.53394" lon="5.63375">
        <ele>617</ele>
        <time>2022-10-19T07:40:12.410Z</time>
      </trkpt>
      <trkpt lat="43.53395" lon="5.63374">
        <ele>617</ele>
        <time>2022-10-19T07:40:13.410Z</time>
      </trkpt>
      <trkpt lat="43.53395" lon="5.63373">
        <ele>617</ele>
        <time>2022-10-19T07:40:14.410Z</time>
      </trkpt>
      <trkpt lat="43.53396" lon="5.63372">
        <ele>617</ele>
        <time>2022-10-19T07:40:15.410Z</time>
      </trkpt>
      <trkpt lat="43.53396" lon="5.6337">
        <ele>617</ele>
        <time>2022-10-19T07:40:16.410Z</time>
      </trkpt>
      <trkpt lat="43.53396" lon="5.63369">
        <ele>617</ele>
        <time>2022-10-19T07:40:17.410Z</time>
      </trkpt>
      <trkpt lat="43.53397" lon="5.63368">
        <ele>617</ele>
        <time>2022-10-19T07:40:18.410Z</time>
      </trkpt>
      <trkpt lat="43.53397" lon="5.63367">
        <ele>617</ele>
        <time>2022-10-19T07:40:19.410Z</time>
      </trkpt>
      <trkpt lat="43.53398" lon="5.63366">
        <ele>617</ele>
        <time>2022-10-19T07:40:20.410Z</time>
      </trkpt>
      <trkpt lat="43.53399" lon="5.63366">
        <ele>617</ele>
        <time>2022-10-19T07:40:21.410Z</time>
      </trkpt>
      <trkpt lat="43.534" lon="5.63365">
        <ele>616</ele>
        <time>2022-10-19T07:40:22.410Z</time>
      </trkpt>
      <trkpt lat="43.534" lon="5.63364">
        <ele>616</ele>
        <time>2022-10-19T07:40:23.410Z</time>
      </trkpt>
      <trkpt lat="43.53401" lon="5.63363">
        <ele>616</ele>
        <time>2022-10-19T07:40:24.410Z</time>
      </trkpt>
      <trkpt lat="43.53401" lon="5.63362">
        <ele>616</ele>
        <time>2022-10-19T07:40:25.410Z</time>
      </trkpt>
      <trkpt lat="43.53401" lon="5.63361">
        <ele>616</ele>
        <time>2022-10-19T07:40:26.410Z</time>
      </trkpt>
      <trkpt lat="43.53401" lon="5.6336">
        <ele>616</ele>
        <time>2022-10-19T07:40:27.410Z</time>
      </trkpt>
      <trkpt lat="43.53401" lon="5.63359">
        <ele>616</ele>
        <time>2022-10-19T07:40:28.410Z</time>
      </trkpt>
      <trkpt lat="43.53401" lon="5.63358">
        <ele>616</ele>
        <time>2022-10-19T07:40:29.410Z</time>
      </trkpt>
      <trkpt lat="43.53401" lon="5.63357">
        <ele>616</ele>
        <time>2022-10-19T07:40:30.410Z</time>
      </trkpt>
      <trkpt lat="43.53401" lon="5.63356">
        <ele>616</ele>
        <time>2022-10-19T07:40:31.410Z</time>
      </trkpt>
      <trkpt lat="43.534" lon="5.63355">
        <ele>616</ele>
        <time>2022-10-19T07:40:32.410Z</time>
      </trkpt>
      <trkpt lat="43.534" lon="5.63355">
        <ele>616</ele>
        <time>2022-10-19T07:40:33.410Z</time>
      </trkpt>
      <trkpt lat="43.534" lon="5.63354">
        <ele>616</ele>
        <time>2022-10-19T07:40:34.410Z</time>
      </trkpt>
      <trkpt lat="43.53399" lon="5.63353">
        <ele>616</ele>
        <time>2022-10-19T07:40:35.410Z</time>
      </trkpt>
      <trkpt lat="43.53399" lon="5.63352">
        <ele>616</ele>
        <time>2022-10-19T07:40:36.410Z</time>
      </trkpt>
      <trkpt lat="43.53399" lon="5.6335">
        <ele>616</ele>
        <time>2022-10-19T07:40:37.410Z</time>
      </trkpt>
      <trkpt lat="43.53399" lon="5.63349">
        <ele>616</ele>
        <time>2022-10-19T07:40:38.410Z</time>
      </trkpt>
      <trkpt lat="43.53398" lon="5.63348">
        <ele>616</ele>
        <time>2022-10-19T07:40:39.410Z</time>
      </trkpt>
      <trkpt lat="43.53398" lon="5.63346">
        <ele>616</ele>
        <time>2022-10-19T07:40:40.410Z</time>
      </trkpt>
      <trkpt lat="43.53397" lon="5.63345">
        <ele>616</ele>
        <time>2022-10-19T07:40:41.410Z</time>
      </trkpt>
      <trkpt lat="43.53396" lon="5.63345">
        <ele>616</ele>
        <time>2022-10-19T07:40:42.410Z</time>
      </trkpt>
      <trkpt lat="43.53396" lon="5.63344">
        <ele>616</ele>
        <time>2022-10-19T07:40:43.410Z</time>
      </trkpt>
      <trkpt lat="43.53396" lon="5.63343">
        <ele>616</ele>
        <time>2022-10-19T07:40:44.410Z</time>
      </trkpt>
      <trkpt lat="43.53395" lon="5.63343">
        <ele>616</ele>
        <time>2022-10-19T07:40:45.410Z</time>
      </trkpt>
      <trkpt lat="43.53395" lon="5.63342">
        <ele>616</ele>
        <time>2022-10-19T07:40:46.410Z</time>
      </trkpt>
      <trkpt lat="43.53395" lon="5.63341">
        <ele>616</ele>
        <time>2022-10-19T07:40:47.410Z</time>
      </trkpt>
      <trkpt lat="43.53394" lon="5.6334">
        <ele>616</ele>
        <time>2022-10-19T07:40:48.410Z</time>
      </trkpt>
      <trkpt lat="43.53393" lon="5.63339">
        <ele>616</ele>
        <time>2022-10-19T07:40:49.410Z</time>
      </trkpt>
      <trkpt lat="43.53393" lon="5.63338">
        <ele>616</ele>
        <time>2022-10-19T07:40:50.410Z</time>
      </trkpt>
      <trkpt lat="43.53392" lon="5.63338">
        <ele>616</ele>
        <time>2022-10-19T07:40:51.410Z</time>
      </trkpt>
      <trkpt lat="43.53391" lon="5.63337">
        <ele>616</ele>
        <time>2022-10-19T07:40:52.410Z</time>
      </trkpt>
      <trkpt lat="43.5339" lon="5.63336">
        <ele>616</ele>
        <time>2022-10-19T07:40:53.410Z</time>
      </trkpt>
      <trkpt lat="43.5339" lon="5.63335">
        <ele>616</ele>
        <time>2022-10-19T07:40:54.410Z</time>
      </trkpt>
      <trkpt lat="43.53389" lon="5.63334">
        <ele>616</ele>
        <time>2022-10-19T07:40:55.410Z</time>
      </trkpt>
      <trkpt lat="43.53389" lon="5.63333">
        <ele>616</ele>
        <time>2022-10-19T07:40:56.410Z</time>
      </trkpt>
      <trkpt lat="43.53388" lon="5.63332">
        <ele>616</ele>
        <time>2022-10-19T07:40:57.410Z</time>
      </trkpt>
      <trkpt lat="43.53388" lon="5.63331">
        <ele>616</ele>
        <time>2022-10-19T07:40:58.410Z</time>
      </trkpt>
      <trkpt lat="43.53387" lon="5.6333">
        <ele>616</ele>
        <time>2022-10-19T07:40:59.410Z</time>
      </trkpt>
      <trkpt lat="43.53387" lon="5.63329">
        <ele>616</ele>
        <time>2022-10-19T07:41:00.410Z</time>
      </trkpt>
      <trkpt lat="43.53386" lon="5.63329">
        <ele>616</ele>
        <time>2022-10-19T07:41:01.410Z</time>
      </trkpt>
      <trkpt lat="43.53386" lon="5.63328">
        <ele>616</ele>
        <time>2022-10-19T07:41:02.410Z</time>
      </trkpt>
      <trkpt lat="43.53386" lon="5.63328">
        <ele>616</ele>
        <time>2022-10-19T07:41:03.410Z</time>
      </trkpt>
      <trkpt lat="43.53385" lon="5.63328">
        <ele>616</ele>
        <time>2022-10-19T07:41:04.410Z</time>
      </trkpt>
      <trkpt lat="43.53384" lon="5.63327">
        <ele>616</ele>
        <time>2022-10-19T07:41:05.410Z</time>
      </trkpt>
      <trkpt lat="43.53383" lon="5.63326">
        <ele>616</ele>
        <time>2022-10-19T07:41:06.410Z</time>
      </trkpt>
      <trkpt lat="43.53383" lon="5.63325">
        <ele>616</ele>
        <time>2022-10-19T07:41:07.410Z</time>
      </trkpt>
      <trkpt lat="43.53383" lon="5.63325">
        <ele>616</ele>
        <time>2022-10-19T07:41:08.410Z</time>
      </trkpt>
      <trkpt lat="43.53382" lon="5.63324">
        <ele>616</ele>
        <time>2022-10-19T07:41:09.410Z</time>
      </trkpt>
      <trkpt lat="43.53382" lon="5.63324">
        <ele>616</ele>
        <time>2022-10-19T07:41:10.410Z</time>
      </trkpt>
      <trkpt lat="43.53382" lon="5.63323">
        <ele>616</ele>
        <time>2022-10-19T07:41:11.410Z</time>
      </trkpt>
      <trkpt lat="43.53382" lon="5.63324">
        <ele>616</ele>
        <time>2022-10-19T07:41:12.410Z</time>
      </trkpt>
      <trkpt lat="43.53381" lon="5.63324">
        <ele>616</ele>
        <time>2022-10-19T07:41:13.410Z</time>
      </trkpt>
      <trkpt lat="43.53381" lon="5.63324">
        <ele>616</ele>
        <time>2022-10-19T07:41:14.410Z</time>
      </trkpt>
      <trkpt lat="43.53381" lon="5.63324">
        <ele>616</ele>
        <time>2022-10-19T07:41:15.410Z</time>
      </trkpt>
      <trkpt lat="43.5338" lon="5.63323">
        <ele>616</ele>
        <time>2022-10-19T07:41:16.410Z</time>
      </trkpt>
      <trkpt lat="43.53379" lon="5.63323">
        <ele>616</ele>
        <time>2022-10-19T07:41:17.410Z</time>
      </trkpt>
      <trkpt lat="43.53378" lon="5.63322">
        <ele>615</ele>
        <time>2022-10-19T07:41:18.410Z</time>
      </trkpt>
      <trkpt lat="43.53377" lon="5.63321">
        <ele>615</ele>
        <time>2022-10-19T07:41:19.410Z</time>
      </trkpt>
      <trkpt lat="43.53377" lon="5.63321">
        <ele>615</ele>
        <time>2022-10-19T07:41:20.410Z</time>
      </trkpt>
      <trkpt lat="43.53376" lon="5.6332">
        <ele>615</ele>
        <time>2022-10-19T07:41:21.410Z</time>
      </trkpt>
      <trkpt lat="43.53375" lon="5.6332">
        <ele>615</ele>
        <time>2022-10-19T07:41:22.410Z</time>
      </trkpt>
      <trkpt lat="43.53374" lon="5.63319">
        <ele>615</ele>
        <time>2022-10-19T07:41:23.410Z</time>
      </trkpt>
      <trkpt lat="43.53374" lon="5.63319">
        <ele>615</ele>
        <time>2022-10-19T07:41:24.410Z</time>
      </trkpt>
      <trkpt lat="43.53373" lon="5.63318">
        <ele>615</ele>
        <time>2022-10-19T07:41:25.410Z</time>
      </trkpt>
      <trkpt lat="43.53373" lon="5.63317">
        <ele>615</ele>
        <time>2022-10-19T07:41:26.410Z</time>
      </trkpt>
      <trkpt lat="43.53373" lon="5.63316">
        <ele>615</ele>
        <time>2022-10-19T07:41:27.410Z</time>
      </trkpt>
      <trkpt lat="43.53373" lon="5.63316">
        <ele>615</ele>
        <time>2022-10-19T07:41:28.410Z</time>
      </trkpt>
      <trkpt lat="43.53372" lon="5.63316">
        <ele>615</ele>
        <time>2022-10-19T07:41:29.410Z</time>
      </trkpt>
      <trkpt lat="43.53372" lon="5.63315">
        <ele>614</ele>
        <time>2022-10-19T07:41:30.410Z</time>
      </trkpt>
      <trkpt lat="43.53372" lon="5.63315">
        <ele>614</ele>
        <time>2022-10-19T07:41:31.410Z</time>
      </trkpt>
      <trkpt lat="43.53372" lon="5.63313">
        <ele>614</ele>
        <time>2022-10-19T07:41:32.410Z</time>
      </trkpt>
      <trkpt lat="43.53372" lon="5.63313">
        <ele>614</ele>
        <time>2022-10-19T07:41:33.410Z</time>
      </trkpt>
      <trkpt lat="43.53371" lon="5.63312">
        <ele>614</ele>
        <time>2022-10-19T07:41:34.410Z</time>
      </trkpt>
      <trkpt lat="43.53371" lon="5.6331">
        <ele>614</ele>
        <time>2022-10-19T07:41:35.410Z</time>
      </trkpt>
      <trkpt lat="43.5337" lon="5.63309">
        <ele>614</ele>
        <time>2022-10-19T07:41:36.410Z</time>
      </trkpt>
      <trkpt lat="43.5337" lon="5.63308">
        <ele>614</ele>
        <time>2022-10-19T07:41:37.410Z</time>
      </trkpt>
      <trkpt lat="43.5337" lon="5.63308">
        <ele>614</ele>
        <time>2022-10-19T07:41:38.410Z</time>
      </trkpt>
      <trkpt lat="43.5337" lon="5.63308">
        <ele>614</ele>
        <time>2022-10-19T07:41:39.410Z</time>
      </trkpt>
      <trkpt lat="43.5337" lon="5.63308">
        <ele>614</ele>
        <time>2022-10-19T07:41:40.410Z</time>
      </trkpt>
      <trkpt lat="43.5337" lon="5.63307">
        <ele>614</ele>
        <time>2022-10-19T07:41:41.410Z</time>
      </trkpt>
      <trkpt lat="43.5337" lon="5.63307">
        <ele>614</ele>
        <time>2022-10-19T07:41:42.410Z</time>
      </trkpt>
      <trkpt lat="43.5337" lon="5.63307">
        <ele>614</ele>
        <time>2022-10-19T07:41:43.410Z</time>
      </trkpt>
      <trkpt lat="43.53371" lon="5.63307">
        <ele>614</ele>
        <time>2022-10-19T07:41:44.410Z</time>
      </trkpt>
      <trkpt lat="43.53371" lon="5.63307">
        <ele>614</ele>
        <time>2022-10-19T07:41:45.410Z</time>
      </trkpt>
      <trkpt lat="43.53371" lon="5.63307">
        <ele>614</ele>
        <time>2022-10-19T07:41:46.410Z</time>
      </trkpt>
      <trkpt lat="43.53371" lon="5.63307">
        <ele>614</ele>
        <time>2022-10-19T07:41:47.410Z</time>
      </trkpt>
      <trkpt lat="43.53371" lon="5.63307">
        <ele>614</ele>
        <time>2022-10-19T07:41:48.410Z</time>
      </trkpt>
      <trkpt lat="43.53371" lon="5.63307">
        <ele>614</ele>
        <time>2022-10-19T07:41:49.410Z</time>
      </trkpt>
      <trkpt lat="43.53371" lon="5.63307">
        <ele>614</ele>
        <time>2022-10-19T07:41:50.410Z</time>
      </trkpt>
      <trkpt lat="43.53371" lon="5.63307">
        <ele>614</ele>
        <time>2022-10-19T07:41:51.410Z</time>
      </trkpt>
      <trkpt lat="43.53371" lon="5.63307">
        <ele>614</ele>
        <time>2022-10-19T07:41:52.410Z</time>
      </trkpt>
      <trkpt lat="43.53371" lon="5.63307">
        <ele>614</ele>
        <time>2022-10-19T07:41:53.410Z</time>
      </trkpt>
      <trkpt lat="43.53371" lon="5.63307">
        <ele>614</ele>
        <time>2022-10-19T07:41:54.410Z</time>
      </trkpt>
      <trkpt lat="43.53371" lon="5.63307">
        <ele>614</ele>
        <time>2022-10-19T07:41:55.410Z</time>
      </trkpt>
      <trkpt lat="43.53371" lon="5.63306">
        <ele>614</ele>
        <time>2022-10-19T07:41:56.410Z</time>
      </trkpt>
      <trkpt lat="43.53371" lon="5.63306">
        <ele>614</ele>
        <time>2022-10-19T07:41:57.410Z</time>
      </trkpt>
      <trkpt lat="43.53371" lon="5.63306">
        <ele>614</ele>
        <time>2022-10-19T07:41:58.410Z</time>
      </trkpt>
      <trkpt lat="43.53371" lon="5.63306">
        <ele>614</ele>
        <time>2022-10-19T07:41:59.410Z</time>
      </trkpt>
      <trkpt lat="43.53371" lon="5.63306">
        <ele>614</ele>
        <time>2022-10-19T07:42:00.410Z</time>
      </trkpt>
      <trkpt lat="43.53371" lon="5.63307">
        <ele>614</ele>
        <time>2022-10-19T07:42:01.410Z</time>
      </trkpt>
      <trkpt lat="43.53371" lon="5.63307">
        <ele>614</ele>
        <time>2022-10-19T07:42:02.410Z</time>
      </trkpt>
      <trkpt lat="43.53371" lon="5.63307">
        <ele>614</ele>
        <time>2022-10-19T07:42:03.410Z</time>
      </trkpt>
      <trkpt lat="43.53371" lon="5.63307">
        <ele>614</ele>
        <time>2022-10-19T07:42:04.410Z</time>
      </trkpt>
      <trkpt lat="43.53371" lon="5.63307">
        <ele>614</ele>
        <time>2022-10-19T07:42:05.410Z</time>
      </trkpt>
      <trkpt lat="43.53371" lon="5.63306">
        <ele>614</ele>
        <time>2022-10-19T07:42:06.410Z</time>
      </trkpt>
      <trkpt lat="43.53371" lon="5.63306">
        <ele>614</ele>
        <time>2022-10-19T07:42:07.410Z</time>
      </trkpt>
      <trkpt lat="43.53371" lon="5.63305">
        <ele>614</ele>
        <time>2022-10-19T07:42:08.410Z</time>
      </trkpt>
      <trkpt lat="43.5337" lon="5.63305">
        <ele>614</ele>
        <time>2022-10-19T07:42:09.410Z</time>
      </trkpt>
      <trkpt lat="43.5337" lon="5.63304">
        <ele>614</ele>
        <time>2022-10-19T07:42:10.410Z</time>
      </trkpt>
      <trkpt lat="43.5337" lon="5.63303">
        <ele>614</ele>
        <time>2022-10-19T07:42:11.410Z</time>
      </trkpt>
      <trkpt lat="43.5337" lon="5.63303">
        <ele>614</ele>
        <time>2022-10-19T07:42:12.410Z</time>
      </trkpt>
      <trkpt lat="43.5337" lon="5.63302">
        <ele>614</ele>
        <time>2022-10-19T07:42:13.410Z</time>
      </trkpt>
      <trkpt lat="43.53369" lon="5.63301">
        <ele>614</ele>
        <time>2022-10-19T07:42:14.410Z</time>
      </trkpt>
      <trkpt lat="43.53369" lon="5.633">
        <ele>614</ele>
        <time>2022-10-19T07:42:15.410Z</time>
      </trkpt>
      <trkpt lat="43.53369" lon="5.63299">
        <ele>614</ele>
        <time>2022-10-19T07:42:16.410Z</time>
      </trkpt>
      <trkpt lat="43.53369" lon="5.63298">
        <ele>614</ele>
        <time>2022-10-19T07:42:17.410Z</time>
      </trkpt>
      <trkpt lat="43.53368" lon="5.63297">
        <ele>614</ele>
        <time>2022-10-19T07:42:18.410Z</time>
      </trkpt>
      <trkpt lat="43.53368" lon="5.63297">
        <ele>614</ele>
        <time>2022-10-19T07:42:19.410Z</time>
      </trkpt>
      <trkpt lat="43.53367" lon="5.63296">
        <ele>614</ele>
        <time>2022-10-19T07:42:20.410Z</time>
      </trkpt>
      <trkpt lat="43.53367" lon="5.63295">
        <ele>614</ele>
        <time>2022-10-19T07:42:21.410Z</time>
      </trkpt>
      <trkpt lat="43.53366" lon="5.63294">
        <ele>614</ele>
        <time>2022-10-19T07:42:22.410Z</time>
      </trkpt>
      <trkpt lat="43.53366" lon="5.63293">
        <ele>614</ele>
        <time>2022-10-19T07:42:23.410Z</time>
      </trkpt>
      <trkpt lat="43.53366" lon="5.63292">
        <ele>614</ele>
        <time>2022-10-19T07:42:24.410Z</time>
      </trkpt>
      <trkpt lat="43.53365" lon="5.63292">
        <ele>614</ele>
        <time>2022-10-19T07:42:25.410Z</time>
      </trkpt>
      <trkpt lat="43.53365" lon="5.63291">
        <ele>615</ele>
        <time>2022-10-19T07:42:26.410Z</time>
      </trkpt>
      <trkpt lat="43.53364" lon="5.63291">
        <ele>614</ele>
        <time>2022-10-19T07:42:27.410Z</time>
      </trkpt>
      <trkpt lat="43.53363" lon="5.6329">
        <ele>614</ele>
        <time>2022-10-19T07:42:28.410Z</time>
      </trkpt>
      <trkpt lat="43.53363" lon="5.6329">
        <ele>614</ele>
        <time>2022-10-19T07:42:29.410Z</time>
      </trkpt>
      <trkpt lat="43.53362" lon="5.6329">
        <ele>614</ele>
        <time>2022-10-19T07:42:30.410Z</time>
      </trkpt>
      <trkpt lat="43.53361" lon="5.63289">
        <ele>614</ele>
        <time>2022-10-19T07:42:31.410Z</time>
      </trkpt>
      <trkpt lat="43.53361" lon="5.63288">
        <ele>614</ele>
        <time>2022-10-19T07:42:32.410Z</time>
      </trkpt>
      <trkpt lat="43.5336" lon="5.63288">
        <ele>614</ele>
        <time>2022-10-19T07:42:33.410Z</time>
      </trkpt>
      <trkpt lat="43.5336" lon="5.63287">
        <ele>614</ele>
        <time>2022-10-19T07:42:34.410Z</time>
      </trkpt>
      <trkpt lat="43.53359" lon="5.63287">
        <ele>614</ele>
        <time>2022-10-19T07:42:35.410Z</time>
      </trkpt>
      <trkpt lat="43.53359" lon="5.63288">
        <ele>614</ele>
        <time>2022-10-19T07:42:36.410Z</time>
      </trkpt>
      <trkpt lat="43.53358" lon="5.63288">
        <ele>614</ele>
        <time>2022-10-19T07:42:37.410Z</time>
      </trkpt>
      <trkpt lat="43.53357" lon="5.63287">
        <ele>614</ele>
        <time>2022-10-19T07:42:38.410Z</time>
      </trkpt>
      <trkpt lat="43.53356" lon="5.63286">
        <ele>614</ele>
        <time>2022-10-19T07:42:39.410Z</time>
      </trkpt>
      <trkpt lat="43.53356" lon="5.63285">
        <ele>614</ele>
        <time>2022-10-19T07:42:40.410Z</time>
      </trkpt>
      <trkpt lat="43.53355" lon="5.63284">
        <ele>613</ele>
        <time>2022-10-19T07:42:41.410Z</time>
      </trkpt>
      <trkpt lat="43.53354" lon="5.63283">
        <ele>613</ele>
        <time>2022-10-19T07:42:42.410Z</time>
      </trkpt>
      <trkpt lat="43.53355" lon="5.63282">
        <ele>613</ele>
        <time>2022-10-19T07:42:43.410Z</time>
      </trkpt>
      <trkpt lat="43.53355" lon="5.63281">
        <ele>614</ele>
        <time>2022-10-19T07:42:44.410Z</time>
      </trkpt>
      <trkpt lat="43.53354" lon="5.6328">
        <ele>614</ele>
        <time>2022-10-19T07:42:45.410Z</time>
      </trkpt>
      <trkpt lat="43.53354" lon="5.63279">
        <ele>614</ele>
        <time>2022-10-19T07:42:46.410Z</time>
      </trkpt>
      <trkpt lat="43.53354" lon="5.63278">
        <ele>614</ele>
        <time>2022-10-19T07:42:47.410Z</time>
      </trkpt>
      <trkpt lat="43.53354" lon="5.63277">
        <ele>614</ele>
        <time>2022-10-19T07:42:48.410Z</time>
      </trkpt>
      <trkpt lat="43.53354" lon="5.63276">
        <ele>614</ele>
        <time>2022-10-19T07:42:49.410Z</time>
      </trkpt>
      <trkpt lat="43.53354" lon="5.63275">
        <ele>614</ele>
        <time>2022-10-19T07:42:50.410Z</time>
      </trkpt>
      <trkpt lat="43.53354" lon="5.63274">
        <ele>614</ele>
        <time>2022-10-19T07:42:51.410Z</time>
      </trkpt>
      <trkpt lat="43.53354" lon="5.63274">
        <ele>614</ele>
        <time>2022-10-19T07:42:52.410Z</time>
      </trkpt>
      <trkpt lat="43.53353" lon="5.63274">
        <ele>613</ele>
        <time>2022-10-19T07:42:53.410Z</time>
      </trkpt>
      <trkpt lat="43.53352" lon="5.63273">
        <ele>613</ele>
        <time>2022-10-19T07:42:54.410Z</time>
      </trkpt>
      <trkpt lat="43.53352" lon="5.63273">
        <ele>613</ele>
        <time>2022-10-19T07:42:55.410Z</time>
      </trkpt>
      <trkpt lat="43.53351" lon="5.63271">
        <ele>613</ele>
        <time>2022-10-19T07:42:56.410Z</time>
      </trkpt>
      <trkpt lat="43.53351" lon="5.6327">
        <ele>613</ele>
        <time>2022-10-19T07:42:57.410Z</time>
      </trkpt>
      <trkpt lat="43.5335" lon="5.63269">
        <ele>613</ele>
        <time>2022-10-19T07:42:58.410Z</time>
      </trkpt>
      <trkpt lat="43.5335" lon="5.63268">
        <ele>613</ele>
        <time>2022-10-19T07:42:59.410Z</time>
      </trkpt>
      <trkpt lat="43.53349" lon="5.63267">
        <ele>613</ele>
        <time>2022-10-19T07:43:00.410Z</time>
      </trkpt>
      <trkpt lat="43.53349" lon="5.63267">
        <ele>613</ele>
        <time>2022-10-19T07:43:01.410Z</time>
      </trkpt>
      <trkpt lat="43.53348" lon="5.63266">
        <ele>613</ele>
        <time>2022-10-19T07:43:02.410Z</time>
      </trkpt>
      <trkpt lat="43.53347" lon="5.63265">
        <ele>613</ele>
        <time>2022-10-19T07:43:03.410Z</time>
      </trkpt>
      <trkpt lat="43.53347" lon="5.63264">
        <ele>613</ele>
        <time>2022-10-19T07:43:04.410Z</time>
      </trkpt>
      <trkpt lat="43.53346" lon="5.63263">
        <ele>613</ele>
        <time>2022-10-19T07:43:05.410Z</time>
      </trkpt>
      <trkpt lat="43.53346" lon="5.63262">
        <ele>613</ele>
        <time>2022-10-19T07:43:06.410Z</time>
      </trkpt>
      <trkpt lat="43.53345" lon="5.63261">
        <ele>613</ele>
        <time>2022-10-19T07:43:07.410Z</time>
      </trkpt>
      <trkpt lat="43.53345" lon="5.6326">
        <ele>613</ele>
        <time>2022-10-19T07:43:08.410Z</time>
      </trkpt>
      <trkpt lat="43.53344" lon="5.63259">
        <ele>613</ele>
        <time>2022-10-19T07:43:09.410Z</time>
      </trkpt>
      <trkpt lat="43.53343" lon="5.63258">
        <ele>613</ele>
        <time>2022-10-19T07:43:10.410Z</time>
      </trkpt>
      <trkpt lat="43.53343" lon="5.63257">
        <ele>613</ele>
        <time>2022-10-19T07:43:11.410Z</time>
      </trkpt>
      <trkpt lat="43.53342" lon="5.63256">
        <ele>613</ele>
        <time>2022-10-19T07:43:12.410Z</time>
      </trkpt>
      <trkpt lat="43.53341" lon="5.63255">
        <ele>613</ele>
        <time>2022-10-19T07:43:13.410Z</time>
      </trkpt>
      <trkpt lat="43.53341" lon="5.63254">
        <ele>613</ele>
        <time>2022-10-19T07:43:14.410Z</time>
      </trkpt>
      <trkpt lat="43.53341" lon="5.63253">
        <ele>613</ele>
        <time>2022-10-19T07:43:15.410Z</time>
      </trkpt>
      <trkpt lat="43.5334" lon="5.63252">
        <ele>613</ele>
        <time>2022-10-19T07:43:16.410Z</time>
      </trkpt>
      <trkpt lat="43.5334" lon="5.63251">
        <ele>613</ele>
        <time>2022-10-19T07:43:17.410Z</time>
      </trkpt>
      <trkpt lat="43.53339" lon="5.6325">
        <ele>613</ele>
        <time>2022-10-19T07:43:18.410Z</time>
      </trkpt>
      <trkpt lat="43.53339" lon="5.6325">
        <ele>613</ele>
        <time>2022-10-19T07:43:19.410Z</time>
      </trkpt>
      <trkpt lat="43.53338" lon="5.63249">
        <ele>613</ele>
        <time>2022-10-19T07:43:20.410Z</time>
      </trkpt>
      <trkpt lat="43.53337" lon="5.63247">
        <ele>613</ele>
        <time>2022-10-19T07:43:21.410Z</time>
      </trkpt>
      <trkpt lat="43.53336" lon="5.63247">
        <ele>613</ele>
        <time>2022-10-19T07:43:22.410Z</time>
      </trkpt>
      <trkpt lat="43.53336" lon="5.63245">
        <ele>613</ele>
        <time>2022-10-19T07:43:23.410Z</time>
      </trkpt>
      <trkpt lat="43.53336" lon="5.63244">
        <ele>613</ele>
        <time>2022-10-19T07:43:24.410Z</time>
      </trkpt>
      <trkpt lat="43.53336" lon="5.63243">
        <ele>613</ele>
        <time>2022-10-19T07:43:25.410Z</time>
      </trkpt>
      <trkpt lat="43.53336" lon="5.63242">
        <ele>613</ele>
        <time>2022-10-19T07:43:26.410Z</time>
      </trkpt>
      <trkpt lat="43.53336" lon="5.63242">
        <ele>612</ele>
        <time>2022-10-19T07:43:27.410Z</time>
      </trkpt>
      <trkpt lat="43.53336" lon="5.63241">
        <ele>612</ele>
        <time>2022-10-19T07:43:28.410Z</time>
      </trkpt>
      <trkpt lat="43.53336" lon="5.6324">
        <ele>612</ele>
        <time>2022-10-19T07:43:29.410Z</time>
      </trkpt>
      <trkpt lat="43.53336" lon="5.63239">
        <ele>612</ele>
        <time>2022-10-19T07:43:30.410Z</time>
      </trkpt>
      <trkpt lat="43.53335" lon="5.63238">
        <ele>612</ele>
        <time>2022-10-19T07:43:31.410Z</time>
      </trkpt>
      <trkpt lat="43.53336" lon="5.63237">
        <ele>613</ele>
        <time>2022-10-19T07:43:32.410Z</time>
      </trkpt>
      <trkpt lat="43.53335" lon="5.63237">
        <ele>613</ele>
        <time>2022-10-19T07:43:33.410Z</time>
      </trkpt>
      <trkpt lat="43.53336" lon="5.63236">
        <ele>613</ele>
        <time>2022-10-19T07:43:34.410Z</time>
      </trkpt>
      <trkpt lat="43.53335" lon="5.63235">
        <ele>613</ele>
        <time>2022-10-19T07:43:35.410Z</time>
      </trkpt>
      <trkpt lat="43.53335" lon="5.63235">
        <ele>613</ele>
        <time>2022-10-19T07:43:36.410Z</time>
      </trkpt>
      <trkpt lat="43.53334" lon="5.63233">
        <ele>613</ele>
        <time>2022-10-19T07:43:37.410Z</time>
      </trkpt>
      <trkpt lat="43.53334" lon="5.63233">
        <ele>613</ele>
        <time>2022-10-19T07:43:38.410Z</time>
      </trkpt>
      <trkpt lat="43.53334" lon="5.63232">
        <ele>613</ele>
        <time>2022-10-19T07:43:39.410Z</time>
      </trkpt>
      <trkpt lat="43.53333" lon="5.63231">
        <ele>613</ele>
        <time>2022-10-19T07:43:40.410Z</time>
      </trkpt>
      <trkpt lat="43.53333" lon="5.6323">
        <ele>613</ele>
        <time>2022-10-19T07:43:41.410Z</time>
      </trkpt>
      <trkpt lat="43.53333" lon="5.6323">
        <ele>613</ele>
        <time>2022-10-19T07:43:42.410Z</time>
      </trkpt>
      <trkpt lat="43.53333" lon="5.63229">
        <ele>612</ele>
        <time>2022-10-19T07:43:43.410Z</time>
      </trkpt>
      <trkpt lat="43.53333" lon="5.63229">
        <ele>612</ele>
        <time>2022-10-19T07:43:44.410Z</time>
      </trkpt>
      <trkpt lat="43.53333" lon="5.63229">
        <ele>612</ele>
        <time>2022-10-19T07:43:45.410Z</time>
      </trkpt>
      <trkpt lat="43.53332" lon="5.63228">
        <ele>612</ele>
        <time>2022-10-19T07:43:46.410Z</time>
      </trkpt>
      <trkpt lat="43.53332" lon="5.63226">
        <ele>612</ele>
        <time>2022-10-19T07:43:47.410Z</time>
      </trkpt>
      <trkpt lat="43.53331" lon="5.63225">
        <ele>612</ele>
        <time>2022-10-19T07:43:48.410Z</time>
      </trkpt>
      <trkpt lat="43.53331" lon="5.63224">
        <ele>612</ele>
        <time>2022-10-19T07:43:49.410Z</time>
      </trkpt>
      <trkpt lat="43.5333" lon="5.63222">
        <ele>612</ele>
        <time>2022-10-19T07:43:50.410Z</time>
      </trkpt>
      <trkpt lat="43.5333" lon="5.63222">
        <ele>612</ele>
        <time>2022-10-19T07:43:51.410Z</time>
      </trkpt>
      <trkpt lat="43.53329" lon="5.63221">
        <ele>612</ele>
        <time>2022-10-19T07:43:52.410Z</time>
      </trkpt>
      <trkpt lat="43.53328" lon="5.6322">
        <ele>612</ele>
        <time>2022-10-19T07:43:53.410Z</time>
      </trkpt>
      <trkpt lat="43.53327" lon="5.63219">
        <ele>612</ele>
        <time>2022-10-19T07:43:54.410Z</time>
      </trkpt>
      <trkpt lat="43.53326" lon="5.63218">
        <ele>612</ele>
        <time>2022-10-19T07:43:55.410Z</time>
      </trkpt>
      <trkpt lat="43.53325" lon="5.63217">
        <ele>612</ele>
        <time>2022-10-19T07:43:56.410Z</time>
      </trkpt>
      <trkpt lat="43.53325" lon="5.63216">
        <ele>612</ele>
        <time>2022-10-19T07:43:57.410Z</time>
      </trkpt>
      <trkpt lat="43.53324" lon="5.63215">
        <ele>612</ele>
        <time>2022-10-19T07:43:58.410Z</time>
      </trkpt>
      <trkpt lat="43.53323" lon="5.63213">
        <ele>612</ele>
        <time>2022-10-19T07:43:59.410Z</time>
      </trkpt>
      <trkpt lat="43.53323" lon="5.63212">
        <ele>612</ele>
        <time>2022-10-19T07:44:00.410Z</time>
      </trkpt>
      <trkpt lat="43.53323" lon="5.63211">
        <ele>612</ele>
        <time>2022-10-19T07:44:01.410Z</time>
      </trkpt>
      <trkpt lat="43.53322" lon="5.6321">
        <ele>612</ele>
        <time>2022-10-19T07:44:02.410Z</time>
      </trkpt>
      <trkpt lat="43.53321" lon="5.63209">
        <ele>612</ele>
        <time>2022-10-19T07:44:03.410Z</time>
      </trkpt>
      <trkpt lat="43.5332" lon="5.63208">
        <ele>612</ele>
        <time>2022-10-19T07:44:04.410Z</time>
      </trkpt>
      <trkpt lat="43.53319" lon="5.63206">
        <ele>612</ele>
        <time>2022-10-19T07:44:05.410Z</time>
      </trkpt>
      <trkpt lat="43.53319" lon="5.63206">
        <ele>612</ele>
        <time>2022-10-19T07:44:06.410Z</time>
      </trkpt>
      <trkpt lat="43.53318" lon="5.63205">
        <ele>612</ele>
        <time>2022-10-19T07:44:07.410Z</time>
      </trkpt>
      <trkpt lat="43.53317" lon="5.63204">
        <ele>612</ele>
        <time>2022-10-19T07:44:08.410Z</time>
      </trkpt>
      <trkpt lat="43.53317" lon="5.63202">
        <ele>612</ele>
        <time>2022-10-19T07:44:09.410Z</time>
      </trkpt>
      <trkpt lat="43.53316" lon="5.63201">
        <ele>612</ele>
        <time>2022-10-19T07:44:10.410Z</time>
      </trkpt>
      <trkpt lat="43.53315" lon="5.632">
        <ele>612</ele>
        <time>2022-10-19T07:44:11.410Z</time>
      </trkpt>
      <trkpt lat="43.53315" lon="5.63199">
        <ele>612</ele>
        <time>2022-10-19T07:44:12.410Z</time>
      </trkpt>
      <trkpt lat="43.53314" lon="5.63198">
        <ele>612</ele>
        <time>2022-10-19T07:44:13.410Z</time>
      </trkpt>
      <trkpt lat="43.53314" lon="5.63197">
        <ele>612</ele>
        <time>2022-10-19T07:44:14.410Z</time>
      </trkpt>
      <trkpt lat="43.53313" lon="5.63196">
        <ele>612</ele>
        <time>2022-10-19T07:44:15.410Z</time>
      </trkpt>
      <trkpt lat="43.53313" lon="5.63195">
        <ele>612</ele>
        <time>2022-10-19T07:44:16.410Z</time>
      </trkpt>
      <trkpt lat="43.53313" lon="5.63194">
        <ele>612</ele>
        <time>2022-10-19T07:44:17.410Z</time>
      </trkpt>
      <trkpt lat="43.53313" lon="5.63194">
        <ele>612</ele>
        <time>2022-10-19T07:44:18.410Z</time>
      </trkpt>
      <trkpt lat="43.53313" lon="5.63194">
        <ele>612</ele>
        <time>2022-10-19T07:44:19.410Z</time>
      </trkpt>
      <trkpt lat="43.53313" lon="5.63194">
        <ele>612</ele>
        <time>2022-10-19T07:44:20.410Z</time>
      </trkpt>
      <trkpt lat="43.53313" lon="5.63194">
        <ele>612</ele>
        <time>2022-10-19T07:44:21.410Z</time>
      </trkpt>
      <trkpt lat="43.53313" lon="5.63194">
        <ele>612</ele>
        <time>2022-10-19T07:44:22.410Z</time>
      </trkpt>
      <trkpt lat="43.53312" lon="5.63193">
        <ele>612</ele>
        <time>2022-10-19T07:44:23.410Z</time>
      </trkpt>
      <trkpt lat="43.53312" lon="5.63192">
        <ele>612</ele>
        <time>2022-10-19T07:44:24.410Z</time>
      </trkpt>
      <trkpt lat="43.53312" lon="5.63191">
        <ele>612</ele>
        <time>2022-10-19T07:44:25.410Z</time>
      </trkpt>
      <trkpt lat="43.53312" lon="5.63191">
        <ele>612</ele>
        <time>2022-10-19T07:44:26.410Z</time>
      </trkpt>
      <trkpt lat="43.53311" lon="5.6319">
        <ele>612</ele>
        <time>2022-10-19T07:44:27.410Z</time>
      </trkpt>
      <trkpt lat="43.5331" lon="5.63188">
        <ele>612</ele>
        <time>2022-10-19T07:44:28.410Z</time>
      </trkpt>
      <trkpt lat="43.5331" lon="5.63187">
        <ele>612</ele>
        <time>2022-10-19T07:44:29.410Z</time>
      </trkpt>
      <trkpt lat="43.53309" lon="5.63186">
        <ele>612</ele>
        <time>2022-10-19T07:44:30.410Z</time>
      </trkpt>
      <trkpt lat="43.53309" lon="5.63185">
        <ele>612</ele>
        <time>2022-10-19T07:44:31.410Z</time>
      </trkpt>
      <trkpt lat="43.53309" lon="5.63184">
        <ele>612</ele>
        <time>2022-10-19T07:44:32.410Z</time>
      </trkpt>
      <trkpt lat="43.53308" lon="5.63183">
        <ele>612</ele>
        <time>2022-10-19T07:44:33.410Z</time>
      </trkpt>
      <trkpt lat="43.53308" lon="5.63181">
        <ele>612</ele>
        <time>2022-10-19T07:44:34.410Z</time>
      </trkpt>
      <trkpt lat="43.53308" lon="5.6318">
        <ele>612</ele>
        <time>2022-10-19T07:44:35.410Z</time>
      </trkpt>
      <trkpt lat="43.53307" lon="5.63179">
        <ele>612</ele>
        <time>2022-10-19T07:44:36.410Z</time>
      </trkpt>
      <trkpt lat="43.53307" lon="5.63177">
        <ele>612</ele>
        <time>2022-10-19T07:44:37.410Z</time>
      </trkpt>
      <trkpt lat="43.53306" lon="5.63175">
        <ele>612</ele>
        <time>2022-10-19T07:44:38.410Z</time>
      </trkpt>
      <trkpt lat="43.53306" lon="5.63174">
        <ele>612</ele>
        <time>2022-10-19T07:44:39.410Z</time>
      </trkpt>
      <trkpt lat="43.53306" lon="5.63173">
        <ele>612</ele>
        <time>2022-10-19T07:44:40.410Z</time>
      </trkpt>
      <trkpt lat="43.53305" lon="5.63172">
        <ele>613</ele>
        <time>2022-10-19T07:44:41.410Z</time>
      </trkpt>
      <trkpt lat="43.53304" lon="5.63171">
        <ele>612</ele>
        <time>2022-10-19T07:44:42.410Z</time>
      </trkpt>
      <trkpt lat="43.53303" lon="5.6317">
        <ele>612</ele>
        <time>2022-10-19T07:44:43.410Z</time>
      </trkpt>
      <trkpt lat="43.53303" lon="5.63168">
        <ele>612</ele>
        <time>2022-10-19T07:44:44.410Z</time>
      </trkpt>
      <trkpt lat="43.53302" lon="5.63167">
        <ele>612</ele>
        <time>2022-10-19T07:44:45.410Z</time>
      </trkpt>
      <trkpt lat="43.53302" lon="5.63166">
        <ele>613</ele>
        <time>2022-10-19T07:44:46.410Z</time>
      </trkpt>
      <trkpt lat="43.53301" lon="5.63165">
        <ele>613</ele>
        <time>2022-10-19T07:44:47.410Z</time>
      </trkpt>
      <trkpt lat="43.53301" lon="5.63164">
        <ele>612</ele>
        <time>2022-10-19T07:44:48.410Z</time>
      </trkpt>
      <trkpt lat="43.533" lon="5.63162">
        <ele>613</ele>
        <time>2022-10-19T07:44:49.410Z</time>
      </trkpt>
      <trkpt lat="43.533" lon="5.63161">
        <ele>613</ele>
        <time>2022-10-19T07:44:50.410Z</time>
      </trkpt>
      <trkpt lat="43.53299" lon="5.6316">
        <ele>612</ele>
        <time>2022-10-19T07:44:51.410Z</time>
      </trkpt>
      <trkpt lat="43.53299" lon="5.63159">
        <ele>612</ele>
        <time>2022-10-19T07:44:52.410Z</time>
      </trkpt>
      <trkpt lat="43.53298" lon="5.63159">
        <ele>612</ele>
        <time>2022-10-19T07:44:53.410Z</time>
      </trkpt>
      <trkpt lat="43.53297" lon="5.63158">
        <ele>612</ele>
        <time>2022-10-19T07:44:54.410Z</time>
      </trkpt>
      <trkpt lat="43.53296" lon="5.63157">
        <ele>612</ele>
        <time>2022-10-19T07:44:55.410Z</time>
      </trkpt>
      <trkpt lat="43.53295" lon="5.63155">
        <ele>612</ele>
        <time>2022-10-19T07:44:56.410Z</time>
      </trkpt>
      <trkpt lat="43.53295" lon="5.63153">
        <ele>612</ele>
        <time>2022-10-19T07:44:57.410Z</time>
      </trkpt>
      <trkpt lat="43.53295" lon="5.63152">
        <ele>612</ele>
        <time>2022-10-19T07:44:58.410Z</time>
      </trkpt>
      <trkpt lat="43.53295" lon="5.63151">
        <ele>612</ele>
        <time>2022-10-19T07:44:59.410Z</time>
      </trkpt>
      <trkpt lat="43.53294" lon="5.63151">
        <ele>612</ele>
        <time>2022-10-19T07:45:00.410Z</time>
      </trkpt>
      <trkpt lat="43.53293" lon="5.6315">
        <ele>612</ele>
        <time>2022-10-19T07:45:01.410Z</time>
      </trkpt>
      <trkpt lat="43.53293" lon="5.63149">
        <ele>611</ele>
        <time>2022-10-19T07:45:02.410Z</time>
      </trkpt>
      <trkpt lat="43.53292" lon="5.63149">
        <ele>611</ele>
        <time>2022-10-19T07:45:03.410Z</time>
      </trkpt>
      <trkpt lat="43.53291" lon="5.63149">
        <ele>611</ele>
        <time>2022-10-19T07:45:04.410Z</time>
      </trkpt>
      <trkpt lat="43.53291" lon="5.63149">
        <ele>611</ele>
        <time>2022-10-19T07:45:05.410Z</time>
      </trkpt>
      <trkpt lat="43.5329" lon="5.63149">
        <ele>611</ele>
        <time>2022-10-19T07:45:06.410Z</time>
      </trkpt>
      <trkpt lat="43.53289" lon="5.63149">
        <ele>610</ele>
        <time>2022-10-19T07:45:07.410Z</time>
      </trkpt>
      <trkpt lat="43.53288" lon="5.63149">
        <ele>610</ele>
        <time>2022-10-19T07:45:08.410Z</time>
      </trkpt>
      <trkpt lat="43.53287" lon="5.63148">
        <ele>610</ele>
        <time>2022-10-19T07:45:09.410Z</time>
      </trkpt>
      <trkpt lat="43.53287" lon="5.63147">
        <ele>610</ele>
        <time>2022-10-19T07:45:10.410Z</time>
      </trkpt>
      <trkpt lat="43.53286" lon="5.63146">
        <ele>610</ele>
        <time>2022-10-19T07:45:11.410Z</time>
      </trkpt>
      <trkpt lat="43.53285" lon="5.63145">
        <ele>609</ele>
        <time>2022-10-19T07:45:12.410Z</time>
      </trkpt>
      <trkpt lat="43.53285" lon="5.63144">
        <ele>609</ele>
        <time>2022-10-19T07:45:13.410Z</time>
      </trkpt>
      <trkpt lat="43.53285" lon="5.63143">
        <ele>609</ele>
        <time>2022-10-19T07:45:14.410Z</time>
      </trkpt>
      <trkpt lat="43.53284" lon="5.63142">
        <ele>609</ele>
        <time>2022-10-19T07:45:15.410Z</time>
      </trkpt>
      <trkpt lat="43.53284" lon="5.63141">
        <ele>609</ele>
        <time>2022-10-19T07:45:16.410Z</time>
      </trkpt>
      <trkpt lat="43.53284" lon="5.6314">
        <ele>609</ele>
        <time>2022-10-19T07:45:17.410Z</time>
      </trkpt>
      <trkpt lat="43.53283" lon="5.6314">
        <ele>608</ele>
        <time>2022-10-19T07:45:18.410Z</time>
      </trkpt>
      <trkpt lat="43.53283" lon="5.63139">
        <ele>608</ele>
        <time>2022-10-19T07:45:19.410Z</time>
      </trkpt>
      <trkpt lat="43.53282" lon="5.63138">
        <ele>608</ele>
        <time>2022-10-19T07:45:20.410Z</time>
      </trkpt>
      <trkpt lat="43.53282" lon="5.63137">
        <ele>608</ele>
        <time>2022-10-19T07:45:21.410Z</time>
      </trkpt>
      <trkpt lat="43.53281" lon="5.63137">
        <ele>608</ele>
        <time>2022-10-19T07:45:22.410Z</time>
      </trkpt>
      <trkpt lat="43.5328" lon="5.63137">
        <ele>607</ele>
        <time>2022-10-19T07:45:23.410Z</time>
      </trkpt>
      <trkpt lat="43.5328" lon="5.63137">
        <ele>607</ele>
        <time>2022-10-19T07:45:24.410Z</time>
      </trkpt>
      <trkpt lat="43.53279" lon="5.63137">
        <ele>607</ele>
        <time>2022-10-19T07:45:25.410Z</time>
      </trkpt>
      <trkpt lat="43.53278" lon="5.63137">
        <ele>607</ele>
        <time>2022-10-19T07:45:26.410Z</time>
      </trkpt>
      <trkpt lat="43.53277" lon="5.63137">
        <ele>606</ele>
        <time>2022-10-19T07:45:27.410Z</time>
      </trkpt>
      <trkpt lat="43.53276" lon="5.63137">
        <ele>606</ele>
        <time>2022-10-19T07:45:28.410Z</time>
      </trkpt>
      <trkpt lat="43.53276" lon="5.63136">
        <ele>606</ele>
        <time>2022-10-19T07:45:29.410Z</time>
      </trkpt>
      <trkpt lat="43.53276" lon="5.63135">
        <ele>606</ele>
        <time>2022-10-19T07:45:30.410Z</time>
      </trkpt>
      <trkpt lat="43.53275" lon="5.63134">
        <ele>605</ele>
        <time>2022-10-19T07:45:31.410Z</time>
      </trkpt>
      <trkpt lat="43.53275" lon="5.63134">
        <ele>605</ele>
        <time>2022-10-19T07:45:32.410Z</time>
      </trkpt>
      <trkpt lat="43.53274" lon="5.63133">
        <ele>605</ele>
        <time>2022-10-19T07:45:33.410Z</time>
      </trkpt>
      <trkpt lat="43.53273" lon="5.63133">
        <ele>605</ele>
        <time>2022-10-19T07:45:34.410Z</time>
      </trkpt>
      <trkpt lat="43.53272" lon="5.63132">
        <ele>605</ele>
        <time>2022-10-19T07:45:35.410Z</time>
      </trkpt>
      <trkpt lat="43.53272" lon="5.63131">
        <ele>605</ele>
        <time>2022-10-19T07:45:36.410Z</time>
      </trkpt>
      <trkpt lat="43.53271" lon="5.63131">
        <ele>604</ele>
        <time>2022-10-19T07:45:37.410Z</time>
      </trkpt>
      <trkpt lat="43.5327" lon="5.63131">
        <ele>604</ele>
        <time>2022-10-19T07:45:38.410Z</time>
      </trkpt>
      <trkpt lat="43.53269" lon="5.63131">
        <ele>604</ele>
        <time>2022-10-19T07:45:39.410Z</time>
      </trkpt>
      <trkpt lat="43.53268" lon="5.63131">
        <ele>604</ele>
        <time>2022-10-19T07:45:40.410Z</time>
      </trkpt>
      <trkpt lat="43.53267" lon="5.63131">
        <ele>604</ele>
        <time>2022-10-19T07:45:41.410Z</time>
      </trkpt>
      <trkpt lat="43.53266" lon="5.63132">
        <ele>604</ele>
        <time>2022-10-19T07:45:42.410Z</time>
      </trkpt>
      <trkpt lat="43.53265" lon="5.63131">
        <ele>603</ele>
        <time>2022-10-19T07:45:43.410Z</time>
      </trkpt>
      <trkpt lat="43.53264" lon="5.6313">
        <ele>603</ele>
        <time>2022-10-19T07:45:44.410Z</time>
      </trkpt>
      <trkpt lat="43.53264" lon="5.63129">
        <ele>603</ele>
        <time>2022-10-19T07:45:45.410Z</time>
      </trkpt>
      <trkpt lat="43.53263" lon="5.63128">
        <ele>603</ele>
        <time>2022-10-19T07:45:46.410Z</time>
      </trkpt>
      <trkpt lat="43.53262" lon="5.63127">
        <ele>603</ele>
        <time>2022-10-19T07:45:47.410Z</time>
      </trkpt>
      <trkpt lat="43.53261" lon="5.63125">
        <ele>603</ele>
        <time>2022-10-19T07:45:48.410Z</time>
      </trkpt>
      <trkpt lat="43.53261" lon="5.63124">
        <ele>603</ele>
        <time>2022-10-19T07:45:49.410Z</time>
      </trkpt>
      <trkpt lat="43.5326" lon="5.63123">
        <ele>602</ele>
        <time>2022-10-19T07:45:50.410Z</time>
      </trkpt>
      <trkpt lat="43.53259" lon="5.63122">
        <ele>602</ele>
        <time>2022-10-19T07:45:51.410Z</time>
      </trkpt>
      <trkpt lat="43.53259" lon="5.63121">
        <ele>602</ele>
        <time>2022-10-19T07:45:52.410Z</time>
      </trkpt>
      <trkpt lat="43.53258" lon="5.6312">
        <ele>602</ele>
        <time>2022-10-19T07:45:53.410Z</time>
      </trkpt>
      <trkpt lat="43.53257" lon="5.63119">
        <ele>602</ele>
        <time>2022-10-19T07:45:54.410Z</time>
      </trkpt>
      <trkpt lat="43.53256" lon="5.63118">
        <ele>602</ele>
        <time>2022-10-19T07:45:55.410Z</time>
      </trkpt>
      <trkpt lat="43.53256" lon="5.63117">
        <ele>602</ele>
        <time>2022-10-19T07:45:56.410Z</time>
      </trkpt>
      <trkpt lat="43.53255" lon="5.63115">
        <ele>602</ele>
        <time>2022-10-19T07:45:57.410Z</time>
      </trkpt>
      <trkpt lat="43.53255" lon="5.63114">
        <ele>602</ele>
        <time>2022-10-19T07:45:58.410Z</time>
      </trkpt>
      <trkpt lat="43.53254" lon="5.63113">
        <ele>602</ele>
        <time>2022-10-19T07:45:59.410Z</time>
      </trkpt>
      <trkpt lat="43.53253" lon="5.63112">
        <ele>602</ele>
        <time>2022-10-19T07:46:00.410Z</time>
      </trkpt>
      <trkpt lat="43.53252" lon="5.63111">
        <ele>602</ele>
        <time>2022-10-19T07:46:01.410Z</time>
      </trkpt>
      <trkpt lat="43.53251" lon="5.6311">
        <ele>601</ele>
        <time>2022-10-19T07:46:02.410Z</time>
      </trkpt>
      <trkpt lat="43.53251" lon="5.63109">
        <ele>601</ele>
        <time>2022-10-19T07:46:03.410Z</time>
      </trkpt>
      <trkpt lat="43.5325" lon="5.63108">
        <ele>601</ele>
        <time>2022-10-19T07:46:04.410Z</time>
      </trkpt>
      <trkpt lat="43.53249" lon="5.63107">
        <ele>601</ele>
        <time>2022-10-19T07:46:05.410Z</time>
      </trkpt>
      <trkpt lat="43.53249" lon="5.63106">
        <ele>601</ele>
        <time>2022-10-19T07:46:06.410Z</time>
      </trkpt>
      <trkpt lat="43.53248" lon="5.63105">
        <ele>601</ele>
        <time>2022-10-19T07:46:07.410Z</time>
      </trkpt>
      <trkpt lat="43.53247" lon="5.63104">
        <ele>600</ele>
        <time>2022-10-19T07:46:08.410Z</time>
      </trkpt>
      <trkpt lat="43.53246" lon="5.63103">
        <ele>600</ele>
        <time>2022-10-19T07:46:09.410Z</time>
      </trkpt>
      <trkpt lat="43.53245" lon="5.63102">
        <ele>600</ele>
        <time>2022-10-19T07:46:10.410Z</time>
      </trkpt>
      <trkpt lat="43.53245" lon="5.631">
        <ele>600</ele>
        <time>2022-10-19T07:46:11.410Z</time>
      </trkpt>
      <trkpt lat="43.53245" lon="5.631">
        <ele>600</ele>
        <time>2022-10-19T07:46:12.410Z</time>
      </trkpt>
      <trkpt lat="43.53244" lon="5.63098">
        <ele>600</ele>
        <time>2022-10-19T07:46:13.410Z</time>
      </trkpt>
      <trkpt lat="43.53244" lon="5.63097">
        <ele>600</ele>
        <time>2022-10-19T07:46:14.410Z</time>
      </trkpt>
      <trkpt lat="43.53243" lon="5.63095">
        <ele>600</ele>
        <time>2022-10-19T07:46:15.410Z</time>
      </trkpt>
      <trkpt lat="43.53243" lon="5.63094">
        <ele>600</ele>
        <time>2022-10-19T07:46:16.410Z</time>
      </trkpt>
      <trkpt lat="43.53242" lon="5.63093">
        <ele>600</ele>
        <time>2022-10-19T07:46:17.410Z</time>
      </trkpt>
      <trkpt lat="43.53242" lon="5.63092">
        <ele>600</ele>
        <time>2022-10-19T07:46:18.410Z</time>
      </trkpt>
      <trkpt lat="43.53241" lon="5.6309">
        <ele>600</ele>
        <time>2022-10-19T07:46:19.410Z</time>
      </trkpt>
      <trkpt lat="43.5324" lon="5.63089">
        <ele>600</ele>
        <time>2022-10-19T07:46:20.410Z</time>
      </trkpt>
      <trkpt lat="43.5324" lon="5.63088">
        <ele>600</ele>
        <time>2022-10-19T07:46:21.410Z</time>
      </trkpt>
      <trkpt lat="43.53239" lon="5.63086">
        <ele>599</ele>
        <time>2022-10-19T07:46:22.410Z</time>
      </trkpt>
      <trkpt lat="43.53239" lon="5.63085">
        <ele>599</ele>
        <time>2022-10-19T07:46:23.410Z</time>
      </trkpt>
      <trkpt lat="43.53238" lon="5.63083">
        <ele>599</ele>
        <time>2022-10-19T07:46:24.410Z</time>
      </trkpt>
      <trkpt lat="43.53237" lon="5.63082">
        <ele>599</ele>
        <time>2022-10-19T07:46:25.410Z</time>
      </trkpt>
      <trkpt lat="43.53237" lon="5.63081">
        <ele>599</ele>
        <time>2022-10-19T07:46:26.410Z</time>
      </trkpt>
      <trkpt lat="43.53236" lon="5.63079">
        <ele>599</ele>
        <time>2022-10-19T07:46:27.410Z</time>
      </trkpt>
      <trkpt lat="43.53236" lon="5.63078">
        <ele>599</ele>
        <time>2022-10-19T07:46:28.410Z</time>
      </trkpt>
      <trkpt lat="43.53235" lon="5.63076">
        <ele>599</ele>
        <time>2022-10-19T07:46:29.410Z</time>
      </trkpt>
      <trkpt lat="43.53235" lon="5.63075">
        <ele>599</ele>
        <time>2022-10-19T07:46:30.410Z</time>
      </trkpt>
      <trkpt lat="43.53235" lon="5.63074">
        <ele>599</ele>
        <time>2022-10-19T07:46:31.410Z</time>
      </trkpt>
      <trkpt lat="43.53234" lon="5.63073">
        <ele>599</ele>
        <time>2022-10-19T07:46:32.410Z</time>
      </trkpt>
      <trkpt lat="43.53234" lon="5.63072">
        <ele>599</ele>
        <time>2022-10-19T07:46:33.410Z</time>
      </trkpt>
      <trkpt lat="43.53234" lon="5.6307">
        <ele>599</ele>
        <time>2022-10-19T07:46:34.410Z</time>
      </trkpt>
      <trkpt lat="43.53234" lon="5.63069">
        <ele>599</ele>
        <time>2022-10-19T07:46:35.410Z</time>
      </trkpt>
      <trkpt lat="43.53234" lon="5.63067">
        <ele>599</ele>
        <time>2022-10-19T07:46:36.410Z</time>
      </trkpt>
      <trkpt lat="43.53233" lon="5.63066">
        <ele>599</ele>
        <time>2022-10-19T07:46:37.410Z</time>
      </trkpt>
      <trkpt lat="43.53233" lon="5.63065">
        <ele>599</ele>
        <time>2022-10-19T07:46:38.410Z</time>
      </trkpt>
      <trkpt lat="43.53233" lon="5.63064">
        <ele>599</ele>
        <time>2022-10-19T07:46:39.410Z</time>
      </trkpt>
      <trkpt lat="43.53233" lon="5.63062">
        <ele>599</ele>
        <time>2022-10-19T07:46:40.410Z</time>
      </trkpt>
      <trkpt lat="43.53233" lon="5.63061">
        <ele>599</ele>
        <time>2022-10-19T07:46:41.410Z</time>
      </trkpt>
      <trkpt lat="43.53233" lon="5.63059">
        <ele>599</ele>
        <time>2022-10-19T07:46:42.410Z</time>
      </trkpt>
      <trkpt lat="43.53233" lon="5.63058">
        <ele>599</ele>
        <time>2022-10-19T07:46:43.410Z</time>
      </trkpt>
      <trkpt lat="43.53233" lon="5.63057">
        <ele>598</ele>
        <time>2022-10-19T07:46:44.410Z</time>
      </trkpt>
      <trkpt lat="43.53233" lon="5.63055">
        <ele>598</ele>
        <time>2022-10-19T07:46:45.410Z</time>
      </trkpt>
      <trkpt lat="43.53232" lon="5.63054">
        <ele>598</ele>
        <time>2022-10-19T07:46:46.410Z</time>
      </trkpt>
      <trkpt lat="43.53232" lon="5.63054">
        <ele>598</ele>
        <time>2022-10-19T07:46:47.410Z</time>
      </trkpt>
      <trkpt lat="43.53232" lon="5.63053">
        <ele>598</ele>
        <time>2022-10-19T07:46:48.410Z</time>
      </trkpt>
      <trkpt lat="43.53233" lon="5.63052">
        <ele>598</ele>
        <time>2022-10-19T07:46:49.410Z</time>
      </trkpt>
      <trkpt lat="43.53233" lon="5.63051">
        <ele>598</ele>
        <time>2022-10-19T07:46:50.410Z</time>
      </trkpt>
      <trkpt lat="43.53233" lon="5.6305">
        <ele>598</ele>
        <time>2022-10-19T07:46:51.410Z</time>
      </trkpt>
      <trkpt lat="43.53232" lon="5.63049">
        <ele>598</ele>
        <time>2022-10-19T07:46:52.410Z</time>
      </trkpt>
      <trkpt lat="43.53232" lon="5.63048">
        <ele>598</ele>
        <time>2022-10-19T07:46:53.410Z</time>
      </trkpt>
      <trkpt lat="43.53232" lon="5.63047">
        <ele>597</ele>
        <time>2022-10-19T07:46:54.410Z</time>
      </trkpt>
      <trkpt lat="43.53232" lon="5.63045">
        <ele>597</ele>
        <time>2022-10-19T07:46:55.410Z</time>
      </trkpt>
      <trkpt lat="43.53232" lon="5.63044">
        <ele>597</ele>
        <time>2022-10-19T07:46:56.410Z</time>
      </trkpt>
      <trkpt lat="43.53232" lon="5.63042">
        <ele>597</ele>
        <time>2022-10-19T07:46:57.410Z</time>
      </trkpt>
      <trkpt lat="43.53232" lon="5.6304">
        <ele>597</ele>
        <time>2022-10-19T07:46:58.410Z</time>
      </trkpt>
      <trkpt lat="43.53232" lon="5.63039">
        <ele>597</ele>
        <time>2022-10-19T07:46:59.410Z</time>
      </trkpt>
      <trkpt lat="43.53232" lon="5.63038">
        <ele>597</ele>
        <time>2022-10-19T07:47:00.410Z</time>
      </trkpt>
      <trkpt lat="43.53232" lon="5.63037">
        <ele>597</ele>
        <time>2022-10-19T07:47:01.410Z</time>
      </trkpt>
      <trkpt lat="43.53231" lon="5.63035">
        <ele>596</ele>
        <time>2022-10-19T07:47:02.410Z</time>
      </trkpt>
      <trkpt lat="43.53231" lon="5.63034">
        <ele>596</ele>
        <time>2022-10-19T07:47:03.410Z</time>
      </trkpt>
      <trkpt lat="43.53231" lon="5.63033">
        <ele>596</ele>
        <time>2022-10-19T07:47:04.410Z</time>
      </trkpt>
      <trkpt lat="43.53231" lon="5.63031">
        <ele>596</ele>
        <time>2022-10-19T07:47:05.410Z</time>
      </trkpt>
      <trkpt lat="43.53231" lon="5.6303">
        <ele>596</ele>
        <time>2022-10-19T07:47:06.410Z</time>
      </trkpt>
      <trkpt lat="43.53231" lon="5.63028">
        <ele>596</ele>
        <time>2022-10-19T07:47:07.410Z</time>
      </trkpt>
      <trkpt lat="43.53231" lon="5.63027">
        <ele>596</ele>
        <time>2022-10-19T07:47:08.410Z</time>
      </trkpt>
      <trkpt lat="43.53231" lon="5.63026">
        <ele>596</ele>
        <time>2022-10-19T07:47:09.410Z</time>
      </trkpt>
      <trkpt lat="43.53231" lon="5.63025">
        <ele>596</ele>
        <time>2022-10-19T07:47:10.410Z</time>
      </trkpt>
      <trkpt lat="43.53231" lon="5.63023">
        <ele>596</ele>
        <time>2022-10-19T07:47:11.410Z</time>
      </trkpt>
      <trkpt lat="43.53231" lon="5.63022">
        <ele>595</ele>
        <time>2022-10-19T07:47:12.410Z</time>
      </trkpt>
      <trkpt lat="43.53231" lon="5.6302">
        <ele>595</ele>
        <time>2022-10-19T07:47:13.410Z</time>
      </trkpt>
      <trkpt lat="43.5323" lon="5.63019">
        <ele>595</ele>
        <time>2022-10-19T07:47:14.410Z</time>
      </trkpt>
      <trkpt lat="43.53231" lon="5.63017">
        <ele>595</ele>
        <time>2022-10-19T07:47:15.410Z</time>
      </trkpt>
      <trkpt lat="43.53231" lon="5.63016">
        <ele>595</ele>
        <time>2022-10-19T07:47:16.410Z</time>
      </trkpt>
      <trkpt lat="43.53231" lon="5.63015">
        <ele>595</ele>
        <time>2022-10-19T07:47:17.410Z</time>
      </trkpt>
      <trkpt lat="43.53231" lon="5.63014">
        <ele>595</ele>
        <time>2022-10-19T07:47:18.410Z</time>
      </trkpt>
      <trkpt lat="43.53231" lon="5.63013">
        <ele>595</ele>
        <time>2022-10-19T07:47:19.410Z</time>
      </trkpt>
      <trkpt lat="43.53231" lon="5.63012">
        <ele>595</ele>
        <time>2022-10-19T07:47:20.410Z</time>
      </trkpt>
      <trkpt lat="43.53231" lon="5.6301">
        <ele>595</ele>
        <time>2022-10-19T07:47:21.410Z</time>
      </trkpt>
      <trkpt lat="43.5323" lon="5.63009">
        <ele>595</ele>
        <time>2022-10-19T07:47:22.410Z</time>
      </trkpt>
      <trkpt lat="43.5323" lon="5.63008">
        <ele>595</ele>
        <time>2022-10-19T07:47:23.410Z</time>
      </trkpt>
      <trkpt lat="43.5323" lon="5.63006">
        <ele>595</ele>
        <time>2022-10-19T07:47:24.410Z</time>
      </trkpt>
      <trkpt lat="43.5323" lon="5.63005">
        <ele>595</ele>
        <time>2022-10-19T07:47:25.410Z</time>
      </trkpt>
      <trkpt lat="43.53229" lon="5.63004">
        <ele>595</ele>
        <time>2022-10-19T07:47:26.410Z</time>
      </trkpt>
      <trkpt lat="43.53229" lon="5.63002">
        <ele>595</ele>
        <time>2022-10-19T07:47:27.410Z</time>
      </trkpt>
      <trkpt lat="43.53229" lon="5.63001">
        <ele>594</ele>
        <time>2022-10-19T07:47:28.410Z</time>
      </trkpt>
      <trkpt lat="43.5323" lon="5.62999">
        <ele>594</ele>
        <time>2022-10-19T07:47:29.410Z</time>
      </trkpt>
      <trkpt lat="43.5323" lon="5.62998">
        <ele>594</ele>
        <time>2022-10-19T07:47:30.410Z</time>
      </trkpt>
      <trkpt lat="43.5323" lon="5.62997">
        <ele>594</ele>
        <time>2022-10-19T07:47:31.410Z</time>
      </trkpt>
      <trkpt lat="43.5323" lon="5.62996">
        <ele>594</ele>
        <time>2022-10-19T07:47:32.410Z</time>
      </trkpt>
      <trkpt lat="43.53231" lon="5.62995">
        <ele>594</ele>
        <time>2022-10-19T07:47:33.410Z</time>
      </trkpt>
      <trkpt lat="43.53231" lon="5.62994">
        <ele>594</ele>
        <time>2022-10-19T07:47:34.410Z</time>
      </trkpt>
      <trkpt lat="43.53231" lon="5.62992">
        <ele>594</ele>
        <time>2022-10-19T07:47:35.410Z</time>
      </trkpt>
      <trkpt lat="43.53231" lon="5.62991">
        <ele>594</ele>
        <time>2022-10-19T07:47:36.410Z</time>
      </trkpt>
      <trkpt lat="43.53231" lon="5.62989">
        <ele>593</ele>
        <time>2022-10-19T07:47:37.410Z</time>
      </trkpt>
      <trkpt lat="43.53231" lon="5.62988">
        <ele>593</ele>
        <time>2022-10-19T07:47:38.410Z</time>
      </trkpt>
      <trkpt lat="43.53231" lon="5.62986">
        <ele>593</ele>
        <time>2022-10-19T07:47:39.410Z</time>
      </trkpt>
      <trkpt lat="43.53231" lon="5.62985">
        <ele>593</ele>
        <time>2022-10-19T07:47:40.410Z</time>
      </trkpt>
      <trkpt lat="43.53232" lon="5.62985">
        <ele>593</ele>
        <time>2022-10-19T07:47:41.410Z</time>
      </trkpt>
      <trkpt lat="43.53232" lon="5.62984">
        <ele>593</ele>
        <time>2022-10-19T07:47:42.410Z</time>
      </trkpt>
      <trkpt lat="43.53232" lon="5.62984">
        <ele>593</ele>
        <time>2022-10-19T07:47:43.410Z</time>
      </trkpt>
      <trkpt lat="43.53232" lon="5.62983">
        <ele>593</ele>
        <time>2022-10-19T07:47:44.410Z</time>
      </trkpt>
      <trkpt lat="43.53233" lon="5.62982">
        <ele>593</ele>
        <time>2022-10-19T07:47:45.410Z</time>
      </trkpt>
      <trkpt lat="43.53233" lon="5.6298">
        <ele>593</ele>
        <time>2022-10-19T07:47:46.410Z</time>
      </trkpt>
      <trkpt lat="43.53234" lon="5.62979">
        <ele>593</ele>
        <time>2022-10-19T07:47:47.410Z</time>
      </trkpt>
      <trkpt lat="43.53234" lon="5.62978">
        <ele>593</ele>
        <time>2022-10-19T07:47:48.410Z</time>
      </trkpt>
      <trkpt lat="43.53234" lon="5.62977">
        <ele>592</ele>
        <time>2022-10-19T07:47:49.410Z</time>
      </trkpt>
      <trkpt lat="43.53235" lon="5.62975">
        <ele>592</ele>
        <time>2022-10-19T07:47:50.410Z</time>
      </trkpt>
      <trkpt lat="43.53235" lon="5.62974">
        <ele>592</ele>
        <time>2022-10-19T07:47:51.410Z</time>
      </trkpt>
      <trkpt lat="43.53236" lon="5.62973">
        <ele>592</ele>
        <time>2022-10-19T07:47:52.410Z</time>
      </trkpt>
      <trkpt lat="43.53236" lon="5.62972">
        <ele>592</ele>
        <time>2022-10-19T07:47:53.410Z</time>
      </trkpt>
      <trkpt lat="43.53237" lon="5.62971">
        <ele>592</ele>
        <time>2022-10-19T07:47:54.410Z</time>
      </trkpt>
      <trkpt lat="43.53237" lon="5.62969">
        <ele>592</ele>
        <time>2022-10-19T07:47:55.410Z</time>
      </trkpt>
      <trkpt lat="43.53237" lon="5.62968">
        <ele>592</ele>
        <time>2022-10-19T07:47:56.410Z</time>
      </trkpt>
      <trkpt lat="43.53238" lon="5.62967">
        <ele>592</ele>
        <time>2022-10-19T07:47:57.410Z</time>
      </trkpt>
      <trkpt lat="43.53238" lon="5.62966">
        <ele>592</ele>
        <time>2022-10-19T07:47:58.410Z</time>
      </trkpt>
      <trkpt lat="43.53239" lon="5.62964">
        <ele>592</ele>
        <time>2022-10-19T07:47:59.410Z</time>
      </trkpt>
      <trkpt lat="43.53239" lon="5.62963">
        <ele>592</ele>
        <time>2022-10-19T07:48:00.410Z</time>
      </trkpt>
      <trkpt lat="43.5324" lon="5.62962">
        <ele>592</ele>
        <time>2022-10-19T07:48:01.410Z</time>
      </trkpt>
      <trkpt lat="43.5324" lon="5.62961">
        <ele>592</ele>
        <time>2022-10-19T07:48:02.410Z</time>
      </trkpt>
      <trkpt lat="43.53241" lon="5.6296">
        <ele>592</ele>
        <time>2022-10-19T07:48:03.410Z</time>
      </trkpt>
      <trkpt lat="43.53241" lon="5.62959">
        <ele>592</ele>
        <time>2022-10-19T07:48:04.410Z</time>
      </trkpt>
      <trkpt lat="43.53242" lon="5.62959">
        <ele>592</ele>
        <time>2022-10-19T07:48:05.410Z</time>
      </trkpt>
      <trkpt lat="43.53242" lon="5.62958">
        <ele>592</ele>
        <time>2022-10-19T07:48:06.410Z</time>
      </trkpt>
      <trkpt lat="43.53242" lon="5.62958">
        <ele>592</ele>
        <time>2022-10-19T07:48:07.410Z</time>
      </trkpt>
      <trkpt lat="43.53242" lon="5.62958">
        <ele>592</ele>
        <time>2022-10-19T07:48:08.410Z</time>
      </trkpt>
      <trkpt lat="43.53242" lon="5.62958">
        <ele>592</ele>
        <time>2022-10-19T07:48:09.410Z</time>
      </trkpt>
      <trkpt lat="43.53242" lon="5.62958">
        <ele>592</ele>
        <time>2022-10-19T07:48:10.410Z</time>
      </trkpt>
      <trkpt lat="43.53242" lon="5.62958">
        <ele>592</ele>
        <time>2022-10-19T07:48:11.410Z</time>
      </trkpt>
      <trkpt lat="43.53242" lon="5.62958">
        <ele>592</ele>
        <time>2022-10-19T07:48:12.410Z</time>
      </trkpt>
      <trkpt lat="43.53242" lon="5.62958">
        <ele>592</ele>
        <time>2022-10-19T07:48:13.410Z</time>
      </trkpt>
      <trkpt lat="43.53242" lon="5.62958">
        <ele>592</ele>
        <time>2022-10-19T07:48:14.410Z</time>
      </trkpt>
      <trkpt lat="43.53242" lon="5.62958">
        <ele>592</ele>
        <time>2022-10-19T07:48:15.410Z</time>
      </trkpt>
      <trkpt lat="43.53242" lon="5.62958">
        <ele>592</ele>
        <time>2022-10-19T07:48:16.410Z</time>
      </trkpt>
      <trkpt lat="43.53242" lon="5.62958">
        <ele>592</ele>
        <time>2022-10-19T07:48:17.410Z</time>
      </trkpt>
      <trkpt lat="43.53242" lon="5.62958">
        <ele>592</ele>
        <time>2022-10-19T07:48:18.410Z</time>
      </trkpt>
      <trkpt lat="43.53242" lon="5.62958">
        <ele>592</ele>
        <time>2022-10-19T07:48:19.410Z</time>
      </trkpt>
      <trkpt lat="43.53242" lon="5.62958">
        <ele>592</ele>
        <time>2022-10-19T07:48:20.410Z</time>
      </trkpt>
      <trkpt lat="43.53242" lon="5.62958">
        <ele>592</ele>
        <time>2022-10-19T07:48:21.410Z</time>
      </trkpt>
      <trkpt lat="43.53242" lon="5.62958">
        <ele>592</ele>
        <time>2022-10-19T07:48:22.410Z</time>
      </trkpt>
      <trkpt lat="43.53242" lon="5.62958">
        <ele>592</ele>
        <time>2022-10-19T07:48:23.410Z</time>
      </trkpt>
      <trkpt lat="43.53242" lon="5.62958">
        <ele>592</ele>
        <time>2022-10-19T07:48:24.410Z</time>
      </trkpt>
      <trkpt lat="43.53242" lon="5.62958">
        <ele>592</ele>
        <time>2022-10-19T07:48:25.410Z</time>
      </trkpt>
      <trkpt lat="43.53242" lon="5.62958">
        <ele>592</ele>
        <time>2022-10-19T07:48:26.410Z</time>
      </trkpt>
      <trkpt lat="43.53242" lon="5.62958">
        <ele>592</ele>
        <time>2022-10-19T07:48:27.410Z</time>
      </trkpt>
      <trkpt lat="43.53242" lon="5.62958">
        <ele>592</ele>
        <time>2022-10-19T07:48:28.410Z</time>
      </trkpt>
      <trkpt lat="43.53242" lon="5.62957">
        <ele>592</ele>
        <time>2022-10-19T07:48:29.410Z</time>
      </trkpt>
      <trkpt lat="43.53242" lon="5.62958">
        <ele>592</ele>
        <time>2022-10-19T07:48:30.410Z</time>
      </trkpt>
      <trkpt lat="43.53242" lon="5.62957">
        <ele>592</ele>
        <time>2022-10-19T07:48:31.410Z</time>
      </trkpt>
      <trkpt lat="43.53242" lon="5.62957">
        <ele>592</ele>
        <time>2022-10-19T07:48:32.410Z</time>
      </trkpt>
      <trkpt lat="43.53242" lon="5.62957">
        <ele>592</ele>
        <time>2022-10-19T07:48:33.410Z</time>
      </trkpt>
      <trkpt lat="43.53242" lon="5.62957">
        <ele>592</ele>
        <time>2022-10-19T07:48:34.410Z</time>
      </trkpt>
      <trkpt lat="43.53242" lon="5.62957">
        <ele>592</ele>
        <time>2022-10-19T07:48:35.410Z</time>
      </trkpt>
      <trkpt lat="43.53242" lon="5.62957">
        <ele>592</ele>
        <time>2022-10-19T07:48:36.410Z</time>
      </trkpt>
      <trkpt lat="43.53242" lon="5.62957">
        <ele>592</ele>
        <time>2022-10-19T07:48:37.410Z</time>
      </trkpt>
      <trkpt lat="43.53242" lon="5.62957">
        <ele>592</ele>
        <time>2022-10-19T07:48:38.410Z</time>
      </trkpt>
      <trkpt lat="43.53242" lon="5.62957">
        <ele>592</ele>
        <time>2022-10-19T07:48:39.410Z</time>
      </trkpt>
      <trkpt lat="43.53242" lon="5.62957">
        <ele>592</ele>
        <time>2022-10-19T07:48:40.410Z</time>
      </trkpt>
      <trkpt lat="43.53242" lon="5.62957">
        <ele>592</ele>
        <time>2022-10-19T07:48:41.410Z</time>
      </trkpt>
      <trkpt lat="43.53242" lon="5.62957">
        <ele>592</ele>
        <time>2022-10-19T07:48:42.410Z</time>
      </trkpt>
      <trkpt lat="43.53242" lon="5.62957">
        <ele>592</ele>
        <time>2022-10-19T07:48:43.410Z</time>
      </trkpt>
      <trkpt lat="43.53242" lon="5.62957">
        <ele>592</ele>
        <time>2022-10-19T07:48:44.410Z</time>
      </trkpt>
      <trkpt lat="43.53242" lon="5.62957">
        <ele>592</ele>
        <time>2022-10-19T07:48:45.410Z</time>
      </trkpt>
      <trkpt lat="43.53242" lon="5.62957">
        <ele>592</ele>
        <time>2022-10-19T07:48:46.410Z</time>
      </trkpt>
      <trkpt lat="43.53242" lon="5.62957">
        <ele>592</ele>
        <time>2022-10-19T07:48:47.410Z</time>
      </trkpt>
      <trkpt lat="43.53242" lon="5.62957">
        <ele>593</ele>
        <time>2022-10-19T07:48:48.410Z</time>
      </trkpt>
      <trkpt lat="43.53242" lon="5.62957">
        <ele>593</ele>
        <time>2022-10-19T07:48:49.410Z</time>
      </trkpt>
      <trkpt lat="43.53242" lon="5.62957">
        <ele>593</ele>
        <time>2022-10-19T07:48:50.410Z</time>
      </trkpt>
      <trkpt lat="43.53242" lon="5.62957">
        <ele>593</ele>
        <time>2022-10-19T07:48:51.410Z</time>
      </trkpt>
      <trkpt lat="43.53242" lon="5.62957">
        <ele>593</ele>
        <time>2022-10-19T07:48:52.410Z</time>
      </trkpt>
      <trkpt lat="43.53242" lon="5.62957">
        <ele>593</ele>
        <time>2022-10-19T07:48:53.410Z</time>
      </trkpt>
      <trkpt lat="43.53242" lon="5.62957">
        <ele>593</ele>
        <time>2022-10-19T07:48:54.410Z</time>
      </trkpt>
      <trkpt lat="43.53242" lon="5.62957">
        <ele>593</ele>
        <time>2022-10-19T07:48:55.410Z</time>
      </trkpt>
      <trkpt lat="43.53242" lon="5.62957">
        <ele>593</ele>
        <time>2022-10-19T07:48:56.410Z</time>
      </trkpt>
      <trkpt lat="43.53242" lon="5.62957">
        <ele>593</ele>
        <time>2022-10-19T07:48:57.410Z</time>
      </trkpt>
      <trkpt lat="43.53242" lon="5.62957">
        <ele>593</ele>
        <time>2022-10-19T07:48:58.410Z</time>
      </trkpt>
      <trkpt lat="43.53242" lon="5.62957">
        <ele>593</ele>
        <time>2022-10-19T07:48:59.410Z</time>
      </trkpt>
      <trkpt lat="43.53242" lon="5.62957">
        <ele>593</ele>
        <time>2022-10-19T07:49:00.410Z</time>
      </trkpt>
      <trkpt lat="43.53242" lon="5.62957">
        <ele>593</ele>
        <time>2022-10-19T07:49:01.410Z</time>
      </trkpt>
      <trkpt lat="43.53242" lon="5.62957">
        <ele>593</ele>
        <time>2022-10-19T07:49:02.410Z</time>
      </trkpt>
      <trkpt lat="43.53242" lon="5.62957">
        <ele>593</ele>
        <time>2022-10-19T07:49:03.410Z</time>
      </trkpt>
      <trkpt lat="43.53242" lon="5.62956">
        <ele>593</ele>
        <time>2022-10-19T07:49:04.410Z</time>
      </trkpt>
      <trkpt lat="43.53242" lon="5.62956">
        <ele>593</ele>
        <time>2022-10-19T07:49:05.410Z</time>
      </trkpt>
      <trkpt lat="43.53242" lon="5.62955">
        <ele>593</ele>
        <time>2022-10-19T07:49:06.410Z</time>
      </trkpt>
      <trkpt lat="43.53242" lon="5.62954">
        <ele>593</ele>
        <time>2022-10-19T07:49:07.410Z</time>
      </trkpt>
      <trkpt lat="43.53243" lon="5.62954">
        <ele>593</ele>
        <time>2022-10-19T07:49:08.410Z</time>
      </trkpt>
      <trkpt lat="43.53243" lon="5.62953">
        <ele>593</ele>
        <time>2022-10-19T07:49:09.410Z</time>
      </trkpt>
      <trkpt lat="43.53243" lon="5.62952">
        <ele>593</ele>
        <time>2022-10-19T07:49:10.410Z</time>
      </trkpt>
      <trkpt lat="43.53243" lon="5.62951">
        <ele>593</ele>
        <time>2022-10-19T07:49:11.410Z</time>
      </trkpt>
      <trkpt lat="43.53243" lon="5.6295">
        <ele>593</ele>
        <time>2022-10-19T07:49:12.410Z</time>
      </trkpt>
      <trkpt lat="43.53243" lon="5.62949">
        <ele>593</ele>
        <time>2022-10-19T07:49:13.410Z</time>
      </trkpt>
      <trkpt lat="43.53243" lon="5.62948">
        <ele>593</ele>
        <time>2022-10-19T07:49:14.410Z</time>
      </trkpt>
      <trkpt lat="43.53243" lon="5.62947">
        <ele>593</ele>
        <time>2022-10-19T07:49:15.410Z</time>
      </trkpt>
      <trkpt lat="43.53243" lon="5.62946">
        <ele>593</ele>
        <time>2022-10-19T07:49:16.410Z</time>
      </trkpt>
      <trkpt lat="43.53243" lon="5.62945">
        <ele>593</ele>
        <time>2022-10-19T07:49:17.410Z</time>
      </trkpt>
      <trkpt lat="43.53244" lon="5.62943">
        <ele>592</ele>
        <time>2022-10-19T07:49:18.410Z</time>
      </trkpt>
      <trkpt lat="43.53244" lon="5.62942">
        <ele>592</ele>
        <time>2022-10-19T07:49:19.410Z</time>
      </trkpt>
      <trkpt lat="43.53244" lon="5.62941">
        <ele>592</ele>
        <time>2022-10-19T07:49:20.410Z</time>
      </trkpt>
      <trkpt lat="43.53244" lon="5.6294">
        <ele>592</ele>
        <time>2022-10-19T07:49:21.410Z</time>
      </trkpt>
      <trkpt lat="43.53244" lon="5.62939">
        <ele>592</ele>
        <time>2022-10-19T07:49:22.410Z</time>
      </trkpt>
      <trkpt lat="43.53244" lon="5.62938">
        <ele>592</ele>
        <time>2022-10-19T07:49:23.410Z</time>
      </trkpt>
      <trkpt lat="43.53244" lon="5.62937">
        <ele>592</ele>
        <time>2022-10-19T07:49:24.410Z</time>
      </trkpt>
      <trkpt lat="43.53244" lon="5.62936">
        <ele>592</ele>
        <time>2022-10-19T07:49:25.410Z</time>
      </trkpt>
      <trkpt lat="43.53244" lon="5.62935">
        <ele>592</ele>
        <time>2022-10-19T07:49:26.410Z</time>
      </trkpt>
      <trkpt lat="43.53244" lon="5.62934">
        <ele>592</ele>
        <time>2022-10-19T07:49:27.410Z</time>
      </trkpt>
      <trkpt lat="43.53244" lon="5.62932">
        <ele>592</ele>
        <time>2022-10-19T07:49:28.410Z</time>
      </trkpt>
      <trkpt lat="43.53244" lon="5.62931">
        <ele>592</ele>
        <time>2022-10-19T07:49:29.410Z</time>
      </trkpt>
      <trkpt lat="43.53244" lon="5.6293">
        <ele>591</ele>
        <time>2022-10-19T07:49:30.410Z</time>
      </trkpt>
      <trkpt lat="43.53244" lon="5.62928">
        <ele>591</ele>
        <time>2022-10-19T07:49:31.410Z</time>
      </trkpt>
      <trkpt lat="43.53244" lon="5.62927">
        <ele>591</ele>
        <time>2022-10-19T07:49:32.410Z</time>
      </trkpt>
      <trkpt lat="43.53244" lon="5.62926">
        <ele>591</ele>
        <time>2022-10-19T07:49:33.410Z</time>
      </trkpt>
      <trkpt lat="43.53244" lon="5.62924">
        <ele>591</ele>
        <time>2022-10-19T07:49:34.410Z</time>
      </trkpt>
      <trkpt lat="43.53244" lon="5.62923">
        <ele>591</ele>
        <time>2022-10-19T07:49:35.410Z</time>
      </trkpt>
      <trkpt lat="43.53244" lon="5.62922">
        <ele>591</ele>
        <time>2022-10-19T07:49:36.410Z</time>
      </trkpt>
      <trkpt lat="43.53244" lon="5.62921">
        <ele>591</ele>
        <time>2022-10-19T07:49:37.410Z</time>
      </trkpt>
      <trkpt lat="43.53244" lon="5.62921">
        <ele>591</ele>
        <time>2022-10-19T07:49:38.410Z</time>
      </trkpt>
      <trkpt lat="43.53244" lon="5.6292">
        <ele>591</ele>
        <time>2022-10-19T07:49:39.410Z</time>
      </trkpt>
      <trkpt lat="43.53244" lon="5.62919">
        <ele>590</ele>
        <time>2022-10-19T07:49:40.410Z</time>
      </trkpt>
      <trkpt lat="43.53244" lon="5.62919">
        <ele>590</ele>
        <time>2022-10-19T07:49:41.410Z</time>
      </trkpt>
      <trkpt lat="43.53244" lon="5.62918">
        <ele>590</ele>
        <time>2022-10-19T07:49:42.410Z</time>
      </trkpt>
      <trkpt lat="43.53244" lon="5.62916">
        <ele>590</ele>
        <time>2022-10-19T07:49:43.410Z</time>
      </trkpt>
      <trkpt lat="43.53244" lon="5.62915">
        <ele>590</ele>
        <time>2022-10-19T07:49:44.410Z</time>
      </trkpt>
      <trkpt lat="43.53244" lon="5.62914">
        <ele>590</ele>
        <time>2022-10-19T07:49:45.410Z</time>
      </trkpt>
      <trkpt lat="43.53244" lon="5.62913">
        <ele>589</ele>
        <time>2022-10-19T07:49:46.410Z</time>
      </trkpt>
      <trkpt lat="43.53243" lon="5.62912">
        <ele>589</ele>
        <time>2022-10-19T07:49:47.410Z</time>
      </trkpt>
      <trkpt lat="43.53242" lon="5.6291">
        <ele>589</ele>
        <time>2022-10-19T07:49:48.410Z</time>
      </trkpt>
      <trkpt lat="43.53242" lon="5.62909">
        <ele>589</ele>
        <time>2022-10-19T07:49:49.410Z</time>
      </trkpt>
      <trkpt lat="43.53243" lon="5.62907">
        <ele>589</ele>
        <time>2022-10-19T07:49:50.410Z</time>
      </trkpt>
      <trkpt lat="43.53243" lon="5.62906">
        <ele>589</ele>
        <time>2022-10-19T07:49:51.410Z</time>
      </trkpt>
      <trkpt lat="43.53243" lon="5.62904">
        <ele>589</ele>
        <time>2022-10-19T07:49:52.410Z</time>
      </trkpt>
      <trkpt lat="43.53243" lon="5.62903">
        <ele>589</ele>
        <time>2022-10-19T07:49:53.410Z</time>
      </trkpt>
      <trkpt lat="43.53243" lon="5.62901">
        <ele>589</ele>
        <time>2022-10-19T07:49:54.410Z</time>
      </trkpt>
      <trkpt lat="43.53244" lon="5.629">
        <ele>588</ele>
        <time>2022-10-19T07:49:55.410Z</time>
      </trkpt>
      <trkpt lat="43.53244" lon="5.62898">
        <ele>588</ele>
        <time>2022-10-19T07:49:56.410Z</time>
      </trkpt>
      <trkpt lat="43.53245" lon="5.62897">
        <ele>588</ele>
        <time>2022-10-19T07:49:57.410Z</time>
      </trkpt>
      <trkpt lat="43.53245" lon="5.62896">
        <ele>588</ele>
        <time>2022-10-19T07:49:58.410Z</time>
      </trkpt>
      <trkpt lat="43.53245" lon="5.62895">
        <ele>588</ele>
        <time>2022-10-19T07:49:59.410Z</time>
      </trkpt>
      <trkpt lat="43.53245" lon="5.62894">
        <ele>588</ele>
        <time>2022-10-19T07:50:00.410Z</time>
      </trkpt>
      <trkpt lat="43.53246" lon="5.62892">
        <ele>588</ele>
        <time>2022-10-19T07:50:01.410Z</time>
      </trkpt>
      <trkpt lat="43.53246" lon="5.62891">
        <ele>588</ele>
        <time>2022-10-19T07:50:02.410Z</time>
      </trkpt>
      <trkpt lat="43.53246" lon="5.6289">
        <ele>588</ele>
        <time>2022-10-19T07:50:03.410Z</time>
      </trkpt>
      <trkpt lat="43.53246" lon="5.62889">
        <ele>588</ele>
        <time>2022-10-19T07:50:04.410Z</time>
      </trkpt>
      <trkpt lat="43.53246" lon="5.62887">
        <ele>588</ele>
        <time>2022-10-19T07:50:05.410Z</time>
      </trkpt>
      <trkpt lat="43.53246" lon="5.62886">
        <ele>588</ele>
        <time>2022-10-19T07:50:06.410Z</time>
      </trkpt>
      <trkpt lat="43.53247" lon="5.62884">
        <ele>588</ele>
        <time>2022-10-19T07:50:07.410Z</time>
      </trkpt>
      <trkpt lat="43.53247" lon="5.62883">
        <ele>588</ele>
        <time>2022-10-19T07:50:08.410Z</time>
      </trkpt>
      <trkpt lat="43.53247" lon="5.62881">
        <ele>588</ele>
        <time>2022-10-19T07:50:09.410Z</time>
      </trkpt>
      <trkpt lat="43.53248" lon="5.6288">
        <ele>588</ele>
        <time>2022-10-19T07:50:10.410Z</time>
      </trkpt>
      <trkpt lat="43.53248" lon="5.62879">
        <ele>587</ele>
        <time>2022-10-19T07:50:11.410Z</time>
      </trkpt>
      <trkpt lat="43.53248" lon="5.62878">
        <ele>587</ele>
        <time>2022-10-19T07:50:12.410Z</time>
      </trkpt>
      <trkpt lat="43.53248" lon="5.62876">
        <ele>587</ele>
        <time>2022-10-19T07:50:13.410Z</time>
      </trkpt>
      <trkpt lat="43.53247" lon="5.62875">
        <ele>587</ele>
        <time>2022-10-19T07:50:14.410Z</time>
      </trkpt>
      <trkpt lat="43.53247" lon="5.62873">
        <ele>587</ele>
        <time>2022-10-19T07:50:15.410Z</time>
      </trkpt>
      <trkpt lat="43.53247" lon="5.62871">
        <ele>587</ele>
        <time>2022-10-19T07:50:16.410Z</time>
      </trkpt>
      <trkpt lat="43.53247" lon="5.6287">
        <ele>587</ele>
        <time>2022-10-19T07:50:17.410Z</time>
      </trkpt>
      <trkpt lat="43.53247" lon="5.62869">
        <ele>587</ele>
        <time>2022-10-19T07:50:18.410Z</time>
      </trkpt>
      <trkpt lat="43.53247" lon="5.62867">
        <ele>587</ele>
        <time>2022-10-19T07:50:19.410Z</time>
      </trkpt>
      <trkpt lat="43.53247" lon="5.62866">
        <ele>587</ele>
        <time>2022-10-19T07:50:20.410Z</time>
      </trkpt>
      <trkpt lat="43.53247" lon="5.62865">
        <ele>587</ele>
        <time>2022-10-19T07:50:21.410Z</time>
      </trkpt>
      <trkpt lat="43.53247" lon="5.62863">
        <ele>587</ele>
        <time>2022-10-19T07:50:22.410Z</time>
      </trkpt>
      <trkpt lat="43.53248" lon="5.62862">
        <ele>587</ele>
        <time>2022-10-19T07:50:23.410Z</time>
      </trkpt>
      <trkpt lat="43.53248" lon="5.62861">
        <ele>587</ele>
        <time>2022-10-19T07:50:24.410Z</time>
      </trkpt>
      <trkpt lat="43.53248" lon="5.62859">
        <ele>587</ele>
        <time>2022-10-19T07:50:25.410Z</time>
      </trkpt>
      <trkpt lat="43.53248" lon="5.62858">
        <ele>587</ele>
        <time>2022-10-19T07:50:26.410Z</time>
      </trkpt>
      <trkpt lat="43.53248" lon="5.62857">
        <ele>587</ele>
        <time>2022-10-19T07:50:27.410Z</time>
      </trkpt>
      <trkpt lat="43.53248" lon="5.62855">
        <ele>587</ele>
        <time>2022-10-19T07:50:28.410Z</time>
      </trkpt>
      <trkpt lat="43.53248" lon="5.62854">
        <ele>587</ele>
        <time>2022-10-19T07:50:29.410Z</time>
      </trkpt>
      <trkpt lat="43.53249" lon="5.62852">
        <ele>587</ele>
        <time>2022-10-19T07:50:30.410Z</time>
      </trkpt>
      <trkpt lat="43.53249" lon="5.62851">
        <ele>587</ele>
        <time>2022-10-19T07:50:31.410Z</time>
      </trkpt>
      <trkpt lat="43.53249" lon="5.6285">
        <ele>587</ele>
        <time>2022-10-19T07:50:32.410Z</time>
      </trkpt>
      <trkpt lat="43.53249" lon="5.62849">
        <ele>587</ele>
        <time>2022-10-19T07:50:33.410Z</time>
      </trkpt>
      <trkpt lat="43.53249" lon="5.62848">
        <ele>587</ele>
        <time>2022-10-19T07:50:34.410Z</time>
      </trkpt>
      <trkpt lat="43.53249" lon="5.62847">
        <ele>587</ele>
        <time>2022-10-19T07:50:35.410Z</time>
      </trkpt>
      <trkpt lat="43.53248" lon="5.62846">
        <ele>587</ele>
        <time>2022-10-19T07:50:36.410Z</time>
      </trkpt>
      <trkpt lat="43.53248" lon="5.62845">
        <ele>587</ele>
        <time>2022-10-19T07:50:37.410Z</time>
      </trkpt>
      <trkpt lat="43.53248" lon="5.62844">
        <ele>587</ele>
        <time>2022-10-19T07:50:38.410Z</time>
      </trkpt>
      <trkpt lat="43.53248" lon="5.62843">
        <ele>587</ele>
        <time>2022-10-19T07:50:39.410Z</time>
      </trkpt>
      <trkpt lat="43.53247" lon="5.62842">
        <ele>587</ele>
        <time>2022-10-19T07:50:40.410Z</time>
      </trkpt>
      <trkpt lat="43.53247" lon="5.62841">
        <ele>588</ele>
        <time>2022-10-19T07:50:41.410Z</time>
      </trkpt>
      <trkpt lat="43.53247" lon="5.6284">
        <ele>588</ele>
        <time>2022-10-19T07:50:42.410Z</time>
      </trkpt>
      <trkpt lat="43.53247" lon="5.62839">
        <ele>588</ele>
        <time>2022-10-19T07:50:43.410Z</time>
      </trkpt>
      <trkpt lat="43.53246" lon="5.62838">
        <ele>588</ele>
        <time>2022-10-19T07:50:44.410Z</time>
      </trkpt>
      <trkpt lat="43.53246" lon="5.62838">
        <ele>588</ele>
        <time>2022-10-19T07:50:45.410Z</time>
      </trkpt>
      <trkpt lat="43.53245" lon="5.62837">
        <ele>588</ele>
        <time>2022-10-19T07:50:46.410Z</time>
      </trkpt>
      <trkpt lat="43.53245" lon="5.62836">
        <ele>588</ele>
        <time>2022-10-19T07:50:47.410Z</time>
      </trkpt>
      <trkpt lat="43.53244" lon="5.62835">
        <ele>588</ele>
        <time>2022-10-19T07:50:48.410Z</time>
      </trkpt>
      <trkpt lat="43.53244" lon="5.62834">
        <ele>588</ele>
        <time>2022-10-19T07:50:49.410Z</time>
      </trkpt>
      <trkpt lat="43.53243" lon="5.62833">
        <ele>588</ele>
        <time>2022-10-19T07:50:50.410Z</time>
      </trkpt>
      <trkpt lat="43.53243" lon="5.62832">
        <ele>588</ele>
        <time>2022-10-19T07:50:51.410Z</time>
      </trkpt>
      <trkpt lat="43.53242" lon="5.62831">
        <ele>588</ele>
        <time>2022-10-19T07:50:52.410Z</time>
      </trkpt>
      <trkpt lat="43.53241" lon="5.6283">
        <ele>588</ele>
        <time>2022-10-19T07:50:53.410Z</time>
      </trkpt>
      <trkpt lat="43.53241" lon="5.62829">
        <ele>588</ele>
        <time>2022-10-19T07:50:54.410Z</time>
      </trkpt>
      <trkpt lat="43.5324" lon="5.62828">
        <ele>588</ele>
        <time>2022-10-19T07:50:55.410Z</time>
      </trkpt>
      <trkpt lat="43.53239" lon="5.62827">
        <ele>588</ele>
        <time>2022-10-19T07:50:56.410Z</time>
      </trkpt>
      <trkpt lat="43.53238" lon="5.62826">
        <ele>588</ele>
        <time>2022-10-19T07:50:57.410Z</time>
      </trkpt>
      <trkpt lat="43.53238" lon="5.62825">
        <ele>588</ele>
        <time>2022-10-19T07:50:58.410Z</time>
      </trkpt>
      <trkpt lat="43.53237" lon="5.62824">
        <ele>588</ele>
        <time>2022-10-19T07:50:59.410Z</time>
      </trkpt>
      <trkpt lat="43.53237" lon="5.62824">
        <ele>588</ele>
        <time>2022-10-19T07:51:00.410Z</time>
      </trkpt>
      <trkpt lat="43.53236" lon="5.62823">
        <ele>588</ele>
        <time>2022-10-19T07:51:01.410Z</time>
      </trkpt>
      <trkpt lat="43.53235" lon="5.62822">
        <ele>588</ele>
        <time>2022-10-19T07:51:02.410Z</time>
      </trkpt>
      <trkpt lat="43.53235" lon="5.62822">
        <ele>588</ele>
        <time>2022-10-19T07:51:03.410Z</time>
      </trkpt>
      <trkpt lat="43.53234" lon="5.62821">
        <ele>589</ele>
        <time>2022-10-19T07:51:04.410Z</time>
      </trkpt>
      <trkpt lat="43.53233" lon="5.6282">
        <ele>588</ele>
        <time>2022-10-19T07:51:05.410Z</time>
      </trkpt>
      <trkpt lat="43.53232" lon="5.6282">
        <ele>589</ele>
        <time>2022-10-19T07:51:06.410Z</time>
      </trkpt>
      <trkpt lat="43.53231" lon="5.62819">
        <ele>589</ele>
        <time>2022-10-19T07:51:07.410Z</time>
      </trkpt>
      <trkpt lat="43.53231" lon="5.62818">
        <ele>589</ele>
        <time>2022-10-19T07:51:08.410Z</time>
      </trkpt>
      <trkpt lat="43.5323" lon="5.62817">
        <ele>589</ele>
        <time>2022-10-19T07:51:09.410Z</time>
      </trkpt>
      <trkpt lat="43.53229" lon="5.62817">
        <ele>589</ele>
        <time>2022-10-19T07:51:10.410Z</time>
      </trkpt>
      <trkpt lat="43.53228" lon="5.62816">
        <ele>589</ele>
        <time>2022-10-19T07:51:11.410Z</time>
      </trkpt>
      <trkpt lat="43.53228" lon="5.62815">
        <ele>589</ele>
        <time>2022-10-19T07:51:12.410Z</time>
      </trkpt>
      <trkpt lat="43.53227" lon="5.62814">
        <ele>589</ele>
        <time>2022-10-19T07:51:13.410Z</time>
      </trkpt>
      <trkpt lat="43.53226" lon="5.62813">
        <ele>589</ele>
        <time>2022-10-19T07:51:14.410Z</time>
      </trkpt>
      <trkpt lat="43.53226" lon="5.62812">
        <ele>589</ele>
        <time>2022-10-19T07:51:15.410Z</time>
      </trkpt>
      <trkpt lat="43.53225" lon="5.62811">
        <ele>589</ele>
        <time>2022-10-19T07:51:16.410Z</time>
      </trkpt>
      <trkpt lat="43.53224" lon="5.6281">
        <ele>589</ele>
        <time>2022-10-19T07:51:17.410Z</time>
      </trkpt>
      <trkpt lat="43.53224" lon="5.62809">
        <ele>589</ele>
        <time>2022-10-19T07:51:18.410Z</time>
      </trkpt>
      <trkpt lat="43.53223" lon="5.62808">
        <ele>589</ele>
        <time>2022-10-19T07:51:19.410Z</time>
      </trkpt>
      <trkpt lat="43.53223" lon="5.62806">
        <ele>589</ele>
        <time>2022-10-19T07:51:20.410Z</time>
      </trkpt>
      <trkpt lat="43.53222" lon="5.62805">
        <ele>589</ele>
        <time>2022-10-19T07:51:21.410Z</time>
      </trkpt>
      <trkpt lat="43.53222" lon="5.62804">
        <ele>589</ele>
        <time>2022-10-19T07:51:22.410Z</time>
      </trkpt>
      <trkpt lat="43.53221" lon="5.62803">
        <ele>589</ele>
        <time>2022-10-19T07:51:23.410Z</time>
      </trkpt>
      <trkpt lat="43.53221" lon="5.62801">
        <ele>589</ele>
        <time>2022-10-19T07:51:24.410Z</time>
      </trkpt>
      <trkpt lat="43.5322" lon="5.628">
        <ele>588</ele>
        <time>2022-10-19T07:51:25.410Z</time>
      </trkpt>
      <trkpt lat="43.5322" lon="5.62799">
        <ele>588</ele>
        <time>2022-10-19T07:51:26.410Z</time>
      </trkpt>
      <trkpt lat="43.53219" lon="5.62798">
        <ele>588</ele>
        <time>2022-10-19T07:51:27.410Z</time>
      </trkpt>
      <trkpt lat="43.53219" lon="5.62797">
        <ele>588</ele>
        <time>2022-10-19T07:51:28.410Z</time>
      </trkpt>
      <trkpt lat="43.53218" lon="5.62796">
        <ele>588</ele>
        <time>2022-10-19T07:51:29.410Z</time>
      </trkpt>
      <trkpt lat="43.53218" lon="5.62796">
        <ele>588</ele>
        <time>2022-10-19T07:51:30.410Z</time>
      </trkpt>
      <trkpt lat="43.53218" lon="5.62796">
        <ele>588</ele>
        <time>2022-10-19T07:51:31.410Z</time>
      </trkpt>
      <trkpt lat="43.53218" lon="5.62796">
        <ele>588</ele>
        <time>2022-10-19T07:51:32.410Z</time>
      </trkpt>
      <trkpt lat="43.53218" lon="5.62796">
        <ele>588</ele>
        <time>2022-10-19T07:51:33.410Z</time>
      </trkpt>
      <trkpt lat="43.53218" lon="5.62796">
        <ele>588</ele>
        <time>2022-10-19T07:51:34.410Z</time>
      </trkpt>
      <trkpt lat="43.53218" lon="5.62796">
        <ele>588</ele>
        <time>2022-10-19T07:51:35.410Z</time>
      </trkpt>
      <trkpt lat="43.53218" lon="5.62796">
        <ele>588</ele>
        <time>2022-10-19T07:51:36.410Z</time>
      </trkpt>
      <trkpt lat="43.53218" lon="5.62795">
        <ele>588</ele>
        <time>2022-10-19T07:51:37.410Z</time>
      </trkpt>
      <trkpt lat="43.53218" lon="5.62795">
        <ele>588</ele>
        <time>2022-10-19T07:51:38.410Z</time>
      </trkpt>
      <trkpt lat="43.53218" lon="5.62794">
        <ele>588</ele>
        <time>2022-10-19T07:51:39.410Z</time>
      </trkpt>
      <trkpt lat="43.53217" lon="5.62793">
        <ele>587</ele>
        <time>2022-10-19T07:51:40.410Z</time>
      </trkpt>
      <trkpt lat="43.53217" lon="5.62791">
        <ele>587</ele>
        <time>2022-10-19T07:51:41.410Z</time>
      </trkpt>
      <trkpt lat="43.53217" lon="5.6279">
        <ele>587</ele>
        <time>2022-10-19T07:51:42.410Z</time>
      </trkpt>
      <trkpt lat="43.53217" lon="5.62789">
        <ele>587</ele>
        <time>2022-10-19T07:51:43.410Z</time>
      </trkpt>
      <trkpt lat="43.53217" lon="5.62789">
        <ele>587</ele>
        <time>2022-10-19T07:51:44.410Z</time>
      </trkpt>
      <trkpt lat="43.53217" lon="5.62788">
        <ele>587</ele>
        <time>2022-10-19T07:51:45.410Z</time>
      </trkpt>
      <trkpt lat="43.53217" lon="5.62788">
        <ele>587</ele>
        <time>2022-10-19T07:51:46.410Z</time>
      </trkpt>
      <trkpt lat="43.53217" lon="5.62788">
        <ele>587</ele>
        <time>2022-10-19T07:51:47.410Z</time>
      </trkpt>
      <trkpt lat="43.53218" lon="5.62787">
        <ele>587</ele>
        <time>2022-10-19T07:51:48.410Z</time>
      </trkpt>
      <trkpt lat="43.53218" lon="5.62786">
        <ele>587</ele>
        <time>2022-10-19T07:51:49.410Z</time>
      </trkpt>
      <trkpt lat="43.53219" lon="5.62785">
        <ele>587</ele>
        <time>2022-10-19T07:51:50.410Z</time>
      </trkpt>
      <trkpt lat="43.53219" lon="5.62784">
        <ele>587</ele>
        <time>2022-10-19T07:51:51.410Z</time>
      </trkpt>
      <trkpt lat="43.53219" lon="5.62784">
        <ele>587</ele>
        <time>2022-10-19T07:51:52.410Z</time>
      </trkpt>
      <trkpt lat="43.53219" lon="5.62783">
        <ele>587</ele>
        <time>2022-10-19T07:51:53.410Z</time>
      </trkpt>
      <trkpt lat="43.5322" lon="5.62782">
        <ele>587</ele>
        <time>2022-10-19T07:51:54.410Z</time>
      </trkpt>
      <trkpt lat="43.5322" lon="5.62781">
        <ele>587</ele>
        <time>2022-10-19T07:51:55.410Z</time>
      </trkpt>
      <trkpt lat="43.5322" lon="5.62781">
        <ele>587</ele>
        <time>2022-10-19T07:51:56.410Z</time>
      </trkpt>
      <trkpt lat="43.5322" lon="5.6278">
        <ele>587</ele>
        <time>2022-10-19T07:51:57.410Z</time>
      </trkpt>
      <trkpt lat="43.5322" lon="5.62779">
        <ele>587</ele>
        <time>2022-10-19T07:51:58.410Z</time>
      </trkpt>
      <trkpt lat="43.53221" lon="5.62778">
        <ele>587</ele>
        <time>2022-10-19T07:51:59.410Z</time>
      </trkpt>
      <trkpt lat="43.53221" lon="5.62777">
        <ele>587</ele>
        <time>2022-10-19T07:52:00.410Z</time>
      </trkpt>
      <trkpt lat="43.53221" lon="5.62776">
        <ele>587</ele>
        <time>2022-10-19T07:52:01.410Z</time>
      </trkpt>
      <trkpt lat="43.53221" lon="5.62776">
        <ele>587</ele>
        <time>2022-10-19T07:52:02.410Z</time>
      </trkpt>
      <trkpt lat="43.53222" lon="5.62775">
        <ele>587</ele>
        <time>2022-10-19T07:52:03.410Z</time>
      </trkpt>
      <trkpt lat="43.53222" lon="5.62775">
        <ele>587</ele>
        <time>2022-10-19T07:52:04.410Z</time>
      </trkpt>
      <trkpt lat="43.53222" lon="5.62774">
        <ele>587</ele>
        <time>2022-10-19T07:52:05.410Z</time>
      </trkpt>
      <trkpt lat="43.53223" lon="5.62773">
        <ele>587</ele>
        <time>2022-10-19T07:52:06.410Z</time>
      </trkpt>
      <trkpt lat="43.53223" lon="5.62772">
        <ele>587</ele>
        <time>2022-10-19T07:52:07.410Z</time>
      </trkpt>
      <trkpt lat="43.53223" lon="5.62771">
        <ele>587</ele>
        <time>2022-10-19T07:52:08.410Z</time>
      </trkpt>
      <trkpt lat="43.53224" lon="5.62771">
        <ele>587</ele>
        <time>2022-10-19T07:52:09.410Z</time>
      </trkpt>
      <trkpt lat="43.53224" lon="5.6277">
        <ele>588</ele>
        <time>2022-10-19T07:52:10.410Z</time>
      </trkpt>
      <trkpt lat="43.53224" lon="5.62769">
        <ele>588</ele>
        <time>2022-10-19T07:52:11.410Z</time>
      </trkpt>
      <trkpt lat="43.53225" lon="5.62769">
        <ele>588</ele>
        <time>2022-10-19T07:52:12.410Z</time>
      </trkpt>
      <trkpt lat="43.53225" lon="5.62768">
        <ele>588</ele>
        <time>2022-10-19T07:52:13.410Z</time>
      </trkpt>
      <trkpt lat="43.53225" lon="5.62767">
        <ele>588</ele>
        <time>2022-10-19T07:52:14.410Z</time>
      </trkpt>
      <trkpt lat="43.53225" lon="5.62766">
        <ele>588</ele>
        <time>2022-10-19T07:52:15.410Z</time>
      </trkpt>
      <trkpt lat="43.53225" lon="5.62765">
        <ele>588</ele>
        <time>2022-10-19T07:52:16.410Z</time>
      </trkpt>
      <trkpt lat="43.53225" lon="5.62764">
        <ele>588</ele>
        <time>2022-10-19T07:52:17.410Z</time>
      </trkpt>
      <trkpt lat="43.53226" lon="5.62763">
        <ele>588</ele>
        <time>2022-10-19T07:52:18.410Z</time>
      </trkpt>
      <trkpt lat="43.53226" lon="5.62762">
        <ele>588</ele>
        <time>2022-10-19T07:52:19.410Z</time>
      </trkpt>
      <trkpt lat="43.53227" lon="5.62761">
        <ele>588</ele>
        <time>2022-10-19T07:52:20.410Z</time>
      </trkpt>
      <trkpt lat="43.53228" lon="5.62761">
        <ele>589</ele>
        <time>2022-10-19T07:52:21.410Z</time>
      </trkpt>
      <trkpt lat="43.53228" lon="5.6276">
        <ele>589</ele>
        <time>2022-10-19T07:52:22.410Z</time>
      </trkpt>
      <trkpt lat="43.53229" lon="5.62759">
        <ele>589</ele>
        <time>2022-10-19T07:52:23.410Z</time>
      </trkpt>
      <trkpt lat="43.53229" lon="5.62759">
        <ele>589</ele>
        <time>2022-10-19T07:52:24.410Z</time>
      </trkpt>
      <trkpt lat="43.53229" lon="5.62758">
        <ele>589</ele>
        <time>2022-10-19T07:52:25.410Z</time>
      </trkpt>
      <trkpt lat="43.5323" lon="5.62757">
        <ele>589</ele>
        <time>2022-10-19T07:52:26.410Z</time>
      </trkpt>
      <trkpt lat="43.5323" lon="5.62756">
        <ele>589</ele>
        <time>2022-10-19T07:52:27.410Z</time>
      </trkpt>
      <trkpt lat="43.5323" lon="5.62755">
        <ele>589</ele>
        <time>2022-10-19T07:52:28.410Z</time>
      </trkpt>
      <trkpt lat="43.53231" lon="5.62754">
        <ele>589</ele>
        <time>2022-10-19T07:52:29.410Z</time>
      </trkpt>
      <trkpt lat="43.53232" lon="5.62754">
        <ele>589</ele>
        <time>2022-10-19T07:52:30.410Z</time>
      </trkpt>
      <trkpt lat="43.53232" lon="5.62753">
        <ele>589</ele>
        <time>2022-10-19T07:52:31.410Z</time>
      </trkpt>
      <trkpt lat="43.53233" lon="5.62752">
        <ele>589</ele>
        <time>2022-10-19T07:52:32.410Z</time>
      </trkpt>
      <trkpt lat="43.53233" lon="5.62751">
        <ele>589</ele>
        <time>2022-10-19T07:52:33.410Z</time>
      </trkpt>
      <trkpt lat="43.53234" lon="5.6275">
        <ele>589</ele>
        <time>2022-10-19T07:52:34.410Z</time>
      </trkpt>
      <trkpt lat="43.53234" lon="5.62749">
        <ele>589</ele>
        <time>2022-10-19T07:52:35.410Z</time>
      </trkpt>
      <trkpt lat="43.53235" lon="5.62749">
        <ele>590</ele>
        <time>2022-10-19T07:52:36.410Z</time>
      </trkpt>
      <trkpt lat="43.53235" lon="5.62748">
        <ele>590</ele>
        <time>2022-10-19T07:52:37.410Z</time>
      </trkpt>
      <trkpt lat="43.53236" lon="5.62747">
        <ele>590</ele>
        <time>2022-10-19T07:52:38.410Z</time>
      </trkpt>
      <trkpt lat="43.53236" lon="5.62747">
        <ele>590</ele>
        <time>2022-10-19T07:52:39.410Z</time>
      </trkpt>
      <trkpt lat="43.53237" lon="5.62746">
        <ele>590</ele>
        <time>2022-10-19T07:52:40.410Z</time>
      </trkpt>
      <trkpt lat="43.53237" lon="5.62746">
        <ele>590</ele>
        <time>2022-10-19T07:52:41.410Z</time>
      </trkpt>
      <trkpt lat="43.53238" lon="5.62745">
        <ele>590</ele>
        <time>2022-10-19T07:52:42.410Z</time>
      </trkpt>
      <trkpt lat="43.53238" lon="5.62744">
        <ele>590</ele>
        <time>2022-10-19T07:52:43.410Z</time>
      </trkpt>
      <trkpt lat="43.53239" lon="5.62743">
        <ele>591</ele>
        <time>2022-10-19T07:52:44.410Z</time>
      </trkpt>
      <trkpt lat="43.53239" lon="5.62743">
        <ele>591</ele>
        <time>2022-10-19T07:52:45.410Z</time>
      </trkpt>
      <trkpt lat="43.5324" lon="5.62742">
        <ele>591</ele>
        <time>2022-10-19T07:52:46.410Z</time>
      </trkpt>
      <trkpt lat="43.5324" lon="5.62741">
        <ele>591</ele>
        <time>2022-10-19T07:52:47.410Z</time>
      </trkpt>
      <trkpt lat="43.53241" lon="5.62741">
        <ele>591</ele>
        <time>2022-10-19T07:52:48.410Z</time>
      </trkpt>
      <trkpt lat="43.53241" lon="5.6274">
        <ele>591</ele>
        <time>2022-10-19T07:52:49.410Z</time>
      </trkpt>
      <trkpt lat="43.53241" lon="5.62738">
        <ele>591</ele>
        <time>2022-10-19T07:52:50.410Z</time>
      </trkpt>
      <trkpt lat="43.53242" lon="5.62737">
        <ele>591</ele>
        <time>2022-10-19T07:52:51.410Z</time>
      </trkpt>
      <trkpt lat="43.53242" lon="5.62736">
        <ele>591</ele>
        <time>2022-10-19T07:52:52.410Z</time>
      </trkpt>
      <trkpt lat="43.53243" lon="5.62734">
        <ele>591</ele>
        <time>2022-10-19T07:52:53.410Z</time>
      </trkpt>
      <trkpt lat="43.53243" lon="5.62733">
        <ele>591</ele>
        <time>2022-10-19T07:52:54.410Z</time>
      </trkpt>
      <trkpt lat="43.53243" lon="5.62732">
        <ele>591</ele>
        <time>2022-10-19T07:52:55.410Z</time>
      </trkpt>
      <trkpt lat="43.53243" lon="5.6273">
        <ele>591</ele>
        <time>2022-10-19T07:52:56.410Z</time>
      </trkpt>
      <trkpt lat="43.53243" lon="5.62729">
        <ele>591</ele>
        <time>2022-10-19T07:52:57.410Z</time>
      </trkpt>
      <trkpt lat="43.53243" lon="5.62727">
        <ele>592</ele>
        <time>2022-10-19T07:52:58.410Z</time>
      </trkpt>
      <trkpt lat="43.53243" lon="5.62726">
        <ele>592</ele>
        <time>2022-10-19T07:52:59.410Z</time>
      </trkpt>
      <trkpt lat="43.53243" lon="5.62725">
        <ele>592</ele>
        <time>2022-10-19T07:53:00.410Z</time>
      </trkpt>
      <trkpt lat="43.53243" lon="5.62724">
        <ele>592</ele>
        <time>2022-10-19T07:53:01.410Z</time>
      </trkpt>
      <trkpt lat="43.53244" lon="5.62723">
        <ele>592</ele>
        <time>2022-10-19T07:53:02.410Z</time>
      </trkpt>
      <trkpt lat="43.53244" lon="5.62722">
        <ele>592</ele>
        <time>2022-10-19T07:53:03.410Z</time>
      </trkpt>
      <trkpt lat="43.53244" lon="5.62721">
        <ele>592</ele>
        <time>2022-10-19T07:53:04.410Z</time>
      </trkpt>
      <trkpt lat="43.53244" lon="5.6272">
        <ele>592</ele>
        <time>2022-10-19T07:53:05.410Z</time>
      </trkpt>
      <trkpt lat="43.53244" lon="5.62719">
        <ele>593</ele>
        <time>2022-10-19T07:53:06.410Z</time>
      </trkpt>
      <trkpt lat="43.53245" lon="5.62719">
        <ele>593</ele>
        <time>2022-10-19T07:53:07.410Z</time>
      </trkpt>
      <trkpt lat="43.53245" lon="5.62717">
        <ele>593</ele>
        <time>2022-10-19T07:53:08.410Z</time>
      </trkpt>
      <trkpt lat="43.53245" lon="5.62716">
        <ele>593</ele>
        <time>2022-10-19T07:53:09.410Z</time>
      </trkpt>
      <trkpt lat="43.53245" lon="5.62715">
        <ele>593</ele>
        <time>2022-10-19T07:53:10.410Z</time>
      </trkpt>
      <trkpt lat="43.53245" lon="5.62714">
        <ele>593</ele>
        <time>2022-10-19T07:53:11.410Z</time>
      </trkpt>
      <trkpt lat="43.53246" lon="5.62712">
        <ele>594</ele>
        <time>2022-10-19T07:53:12.410Z</time>
      </trkpt>
      <trkpt lat="43.53246" lon="5.62711">
        <ele>594</ele>
        <time>2022-10-19T07:53:13.410Z</time>
      </trkpt>
      <trkpt lat="43.53246" lon="5.62711">
        <ele>594</ele>
        <time>2022-10-19T07:53:14.410Z</time>
      </trkpt>
      <trkpt lat="43.53247" lon="5.6271">
        <ele>594</ele>
        <time>2022-10-19T07:53:15.410Z</time>
      </trkpt>
      <trkpt lat="43.53247" lon="5.6271">
        <ele>595</ele>
        <time>2022-10-19T07:53:16.410Z</time>
      </trkpt>
      <trkpt lat="43.53247" lon="5.62709">
        <ele>595</ele>
        <time>2022-10-19T07:53:17.410Z</time>
      </trkpt>
      <trkpt lat="43.53247" lon="5.62709">
        <ele>595</ele>
        <time>2022-10-19T07:53:18.410Z</time>
      </trkpt>
      <trkpt lat="43.53248" lon="5.62708">
        <ele>595</ele>
        <time>2022-10-19T07:53:19.410Z</time>
      </trkpt>
      <trkpt lat="43.53248" lon="5.62708">
        <ele>595</ele>
        <time>2022-10-19T07:53:20.410Z</time>
      </trkpt>
      <trkpt lat="43.53248" lon="5.62708">
        <ele>595</ele>
        <time>2022-10-19T07:53:21.410Z</time>
      </trkpt>
      <trkpt lat="43.53249" lon="5.62707">
        <ele>595</ele>
        <time>2022-10-19T07:53:22.410Z</time>
      </trkpt>
      <trkpt lat="43.53249" lon="5.62707">
        <ele>595</ele>
        <time>2022-10-19T07:53:23.410Z</time>
      </trkpt>
      <trkpt lat="43.53249" lon="5.62706">
        <ele>595</ele>
        <time>2022-10-19T07:53:24.410Z</time>
      </trkpt>
      <trkpt lat="43.5325" lon="5.62705">
        <ele>596</ele>
        <time>2022-10-19T07:53:25.410Z</time>
      </trkpt>
      <trkpt lat="43.5325" lon="5.62704">
        <ele>596</ele>
        <time>2022-10-19T07:53:26.410Z</time>
      </trkpt>
      <trkpt lat="43.5325" lon="5.62703">
        <ele>596</ele>
        <time>2022-10-19T07:53:27.410Z</time>
      </trkpt>
      <trkpt lat="43.53251" lon="5.62702">
        <ele>596</ele>
        <time>2022-10-19T07:53:28.410Z</time>
      </trkpt>
      <trkpt lat="43.53251" lon="5.62702">
        <ele>596</ele>
        <time>2022-10-19T07:53:29.410Z</time>
      </trkpt>
      <trkpt lat="43.53251" lon="5.62701">
        <ele>596</ele>
        <time>2022-10-19T07:53:30.410Z</time>
      </trkpt>
      <trkpt lat="43.53252" lon="5.627">
        <ele>596</ele>
        <time>2022-10-19T07:53:31.410Z</time>
      </trkpt>
      <trkpt lat="43.53252" lon="5.627">
        <ele>596</ele>
        <time>2022-10-19T07:53:32.410Z</time>
      </trkpt>
      <trkpt lat="43.53252" lon="5.62699">
        <ele>596</ele>
        <time>2022-10-19T07:53:33.410Z</time>
      </trkpt>
      <trkpt lat="43.53252" lon="5.62698">
        <ele>596</ele>
        <time>2022-10-19T07:53:34.410Z</time>
      </trkpt>
      <trkpt lat="43.53252" lon="5.62697">
        <ele>596</ele>
        <time>2022-10-19T07:53:35.410Z</time>
      </trkpt>
      <trkpt lat="43.53253" lon="5.62696">
        <ele>597</ele>
        <time>2022-10-19T07:53:36.410Z</time>
      </trkpt>
      <trkpt lat="43.53253" lon="5.62695">
        <ele>597</ele>
        <time>2022-10-19T07:53:37.410Z</time>
      </trkpt>
      <trkpt lat="43.53254" lon="5.62694">
        <ele>597</ele>
        <time>2022-10-19T07:53:38.410Z</time>
      </trkpt>
      <trkpt lat="43.53254" lon="5.62693">
        <ele>597</ele>
        <time>2022-10-19T07:53:39.410Z</time>
      </trkpt>
      <trkpt lat="43.53254" lon="5.62692">
        <ele>597</ele>
        <time>2022-10-19T07:53:40.410Z</time>
      </trkpt>
      <trkpt lat="43.53254" lon="5.62691">
        <ele>597</ele>
        <time>2022-10-19T07:53:41.410Z</time>
      </trkpt>
      <trkpt lat="43.53254" lon="5.6269">
        <ele>597</ele>
        <time>2022-10-19T07:53:42.410Z</time>
      </trkpt>
      <trkpt lat="43.53254" lon="5.62689">
        <ele>598</ele>
        <time>2022-10-19T07:53:43.410Z</time>
      </trkpt>
      <trkpt lat="43.53254" lon="5.62688">
        <ele>598</ele>
        <time>2022-10-19T07:53:44.410Z</time>
      </trkpt>
      <trkpt lat="43.53254" lon="5.62687">
        <ele>598</ele>
        <time>2022-10-19T07:53:45.410Z</time>
      </trkpt>
      <trkpt lat="43.53254" lon="5.62685">
        <ele>598</ele>
        <time>2022-10-19T07:53:46.410Z</time>
      </trkpt>
      <trkpt lat="43.53254" lon="5.62685">
        <ele>598</ele>
        <time>2022-10-19T07:53:47.410Z</time>
      </trkpt>
      <trkpt lat="43.53254" lon="5.62684">
        <ele>598</ele>
        <time>2022-10-19T07:53:48.410Z</time>
      </trkpt>
      <trkpt lat="43.53254" lon="5.62683">
        <ele>599</ele>
        <time>2022-10-19T07:53:49.410Z</time>
      </trkpt>
      <trkpt lat="43.53254" lon="5.62682">
        <ele>599</ele>
        <time>2022-10-19T07:53:50.410Z</time>
      </trkpt>
      <trkpt lat="43.53254" lon="5.62682">
        <ele>599</ele>
        <time>2022-10-19T07:53:51.410Z</time>
      </trkpt>
      <trkpt lat="43.53254" lon="5.62681">
        <ele>599</ele>
        <time>2022-10-19T07:53:52.410Z</time>
      </trkpt>
      <trkpt lat="43.53254" lon="5.6268">
        <ele>599</ele>
        <time>2022-10-19T07:53:53.410Z</time>
      </trkpt>
      <trkpt lat="43.53254" lon="5.6268">
        <ele>599</ele>
        <time>2022-10-19T07:53:54.410Z</time>
      </trkpt>
      <trkpt lat="43.53254" lon="5.62679">
        <ele>600</ele>
        <time>2022-10-19T07:53:55.410Z</time>
      </trkpt>
      <trkpt lat="43.53254" lon="5.62678">
        <ele>600</ele>
        <time>2022-10-19T07:53:56.410Z</time>
      </trkpt>
      <trkpt lat="43.53254" lon="5.62677">
        <ele>600</ele>
        <time>2022-10-19T07:53:57.410Z</time>
      </trkpt>
      <trkpt lat="43.53254" lon="5.62676">
        <ele>600</ele>
        <time>2022-10-19T07:53:58.410Z</time>
      </trkpt>
      <trkpt lat="43.53253" lon="5.62676">
        <ele>600</ele>
        <time>2022-10-19T07:53:59.410Z</time>
      </trkpt>
      <trkpt lat="43.53253" lon="5.62675">
        <ele>600</ele>
        <time>2022-10-19T07:54:00.410Z</time>
      </trkpt>
      <trkpt lat="43.53252" lon="5.62675">
        <ele>600</ele>
        <time>2022-10-19T07:54:01.410Z</time>
      </trkpt>
      <trkpt lat="43.53252" lon="5.62674">
        <ele>600</ele>
        <time>2022-10-19T07:54:02.410Z</time>
      </trkpt>
      <trkpt lat="43.53251" lon="5.62674">
        <ele>600</ele>
        <time>2022-10-19T07:54:03.410Z</time>
      </trkpt>
      <trkpt lat="43.53251" lon="5.62673">
        <ele>600</ele>
        <time>2022-10-19T07:54:04.410Z</time>
      </trkpt>
      <trkpt lat="43.5325" lon="5.62673">
        <ele>600</ele>
        <time>2022-10-19T07:54:05.410Z</time>
      </trkpt>
      <trkpt lat="43.5325" lon="5.62672">
        <ele>600</ele>
        <time>2022-10-19T07:54:06.410Z</time>
      </trkpt>
      <trkpt lat="43.53249" lon="5.62671">
        <ele>601</ele>
        <time>2022-10-19T07:54:07.410Z</time>
      </trkpt>
      <trkpt lat="43.53249" lon="5.62669">
        <ele>601</ele>
        <time>2022-10-19T07:54:08.410Z</time>
      </trkpt>
      <trkpt lat="43.53248" lon="5.62669">
        <ele>601</ele>
        <time>2022-10-19T07:54:09.410Z</time>
      </trkpt>
      <trkpt lat="43.53248" lon="5.62668">
        <ele>601</ele>
        <time>2022-10-19T07:54:10.410Z</time>
      </trkpt>
      <trkpt lat="43.53247" lon="5.62667">
        <ele>601</ele>
        <time>2022-10-19T07:54:11.410Z</time>
      </trkpt>
      <trkpt lat="43.53246" lon="5.62666">
        <ele>601</ele>
        <time>2022-10-19T07:54:12.410Z</time>
      </trkpt>
      <trkpt lat="43.53246" lon="5.62665">
        <ele>601</ele>
        <time>2022-10-19T07:54:13.410Z</time>
      </trkpt>
      <trkpt lat="43.53246" lon="5.62664">
        <ele>601</ele>
        <time>2022-10-19T07:54:14.410Z</time>
      </trkpt>
      <trkpt lat="43.53246" lon="5.62663">
        <ele>601</ele>
        <time>2022-10-19T07:54:15.410Z</time>
      </trkpt>
      <trkpt lat="43.53247" lon="5.62662">
        <ele>601</ele>
        <time>2022-10-19T07:54:16.410Z</time>
      </trkpt>
      <trkpt lat="43.53247" lon="5.62661">
        <ele>601</ele>
        <time>2022-10-19T07:54:17.410Z</time>
      </trkpt>
      <trkpt lat="43.53247" lon="5.62661">
        <ele>601</ele>
        <time>2022-10-19T07:54:18.410Z</time>
      </trkpt>
      <trkpt lat="43.53248" lon="5.6266">
        <ele>601</ele>
        <time>2022-10-19T07:54:19.410Z</time>
      </trkpt>
      <trkpt lat="43.53248" lon="5.6266">
        <ele>601</ele>
        <time>2022-10-19T07:54:20.410Z</time>
      </trkpt>
      <trkpt lat="43.53248" lon="5.62659">
        <ele>601</ele>
        <time>2022-10-19T07:54:21.410Z</time>
      </trkpt>
      <trkpt lat="43.53248" lon="5.62659">
        <ele>601</ele>
        <time>2022-10-19T07:54:22.410Z</time>
      </trkpt>
      <trkpt lat="43.53248" lon="5.62658">
        <ele>601</ele>
        <time>2022-10-19T07:54:23.410Z</time>
      </trkpt>
      <trkpt lat="43.53248" lon="5.62658">
        <ele>601</ele>
        <time>2022-10-19T07:54:24.410Z</time>
      </trkpt>
      <trkpt lat="43.53247" lon="5.62657">
        <ele>602</ele>
        <time>2022-10-19T07:54:25.410Z</time>
      </trkpt>
      <trkpt lat="43.53247" lon="5.62656">
        <ele>602</ele>
        <time>2022-10-19T07:54:26.410Z</time>
      </trkpt>
      <trkpt lat="43.53246" lon="5.62656">
        <ele>602</ele>
        <time>2022-10-19T07:54:27.410Z</time>
      </trkpt>
      <trkpt lat="43.53246" lon="5.62655">
        <ele>602</ele>
        <time>2022-10-19T07:54:28.410Z</time>
      </trkpt>
      <trkpt lat="43.53245" lon="5.62655">
        <ele>602</ele>
        <time>2022-10-19T07:54:29.410Z</time>
      </trkpt>
      <trkpt lat="43.53244" lon="5.62654">
        <ele>603</ele>
        <time>2022-10-19T07:54:30.410Z</time>
      </trkpt>
      <trkpt lat="43.53244" lon="5.62653">
        <ele>603</ele>
        <time>2022-10-19T07:54:31.410Z</time>
      </trkpt>
      <trkpt lat="43.53243" lon="5.62652">
        <ele>603</ele>
        <time>2022-10-19T07:54:32.410Z</time>
      </trkpt>
      <trkpt lat="43.53243" lon="5.62652">
        <ele>603</ele>
        <time>2022-10-19T07:54:33.410Z</time>
      </trkpt>
      <trkpt lat="43.53243" lon="5.62651">
        <ele>604</ele>
        <time>2022-10-19T07:54:34.410Z</time>
      </trkpt>
      <trkpt lat="43.53242" lon="5.6265">
        <ele>604</ele>
        <time>2022-10-19T07:54:35.410Z</time>
      </trkpt>
      <trkpt lat="43.53242" lon="5.62649">
        <ele>604</ele>
        <time>2022-10-19T07:54:36.410Z</time>
      </trkpt>
      <trkpt lat="43.53242" lon="5.62648">
        <ele>604</ele>
        <time>2022-10-19T07:54:37.410Z</time>
      </trkpt>
      <trkpt lat="43.53241" lon="5.62648">
        <ele>605</ele>
        <time>2022-10-19T07:54:38.410Z</time>
      </trkpt>
      <trkpt lat="43.53241" lon="5.62647">
        <ele>605</ele>
        <time>2022-10-19T07:54:39.410Z</time>
      </trkpt>
      <trkpt lat="43.5324" lon="5.62646">
        <ele>605</ele>
        <time>2022-10-19T07:54:40.410Z</time>
      </trkpt>
      <trkpt lat="43.5324" lon="5.62645">
        <ele>605</ele>
        <time>2022-10-19T07:54:41.410Z</time>
      </trkpt>
      <trkpt lat="43.5324" lon="5.62645">
        <ele>605</ele>
        <time>2022-10-19T07:54:42.410Z</time>
      </trkpt>
      <trkpt lat="43.5324" lon="5.62644">
        <ele>606</ele>
        <time>2022-10-19T07:54:43.410Z</time>
      </trkpt>
      <trkpt lat="43.5324" lon="5.62643">
        <ele>606</ele>
        <time>2022-10-19T07:54:44.410Z</time>
      </trkpt>
      <trkpt lat="43.5324" lon="5.62642">
        <ele>606</ele>
        <time>2022-10-19T07:54:45.410Z</time>
      </trkpt>
      <trkpt lat="43.5324" lon="5.62641">
        <ele>606</ele>
        <time>2022-10-19T07:54:46.410Z</time>
      </trkpt>
      <trkpt lat="43.53241" lon="5.6264">
        <ele>606</ele>
        <time>2022-10-19T07:54:47.410Z</time>
      </trkpt>
      <trkpt lat="43.5324" lon="5.6264">
        <ele>606</ele>
        <time>2022-10-19T07:54:48.410Z</time>
      </trkpt>
      <trkpt lat="43.53241" lon="5.62639">
        <ele>607</ele>
        <time>2022-10-19T07:54:49.410Z</time>
      </trkpt>
      <trkpt lat="43.53241" lon="5.62638">
        <ele>607</ele>
        <time>2022-10-19T07:54:50.410Z</time>
      </trkpt>
      <trkpt lat="43.53241" lon="5.62637">
        <ele>607</ele>
        <time>2022-10-19T07:54:51.410Z</time>
      </trkpt>
      <trkpt lat="43.53241" lon="5.62636">
        <ele>607</ele>
        <time>2022-10-19T07:54:52.410Z</time>
      </trkpt>
      <trkpt lat="43.53241" lon="5.62635">
        <ele>607</ele>
        <time>2022-10-19T07:54:53.410Z</time>
      </trkpt>
      <trkpt lat="43.53241" lon="5.62635">
        <ele>607</ele>
        <time>2022-10-19T07:54:54.410Z</time>
      </trkpt>
      <trkpt lat="43.53241" lon="5.62634">
        <ele>607</ele>
        <time>2022-10-19T07:54:55.410Z</time>
      </trkpt>
      <trkpt lat="43.53241" lon="5.62633">
        <ele>607</ele>
        <time>2022-10-19T07:54:56.410Z</time>
      </trkpt>
      <trkpt lat="43.53241" lon="5.62632">
        <ele>607</ele>
        <time>2022-10-19T07:54:57.410Z</time>
      </trkpt>
      <trkpt lat="43.53241" lon="5.62632">
        <ele>607</ele>
        <time>2022-10-19T07:54:58.410Z</time>
      </trkpt>
      <trkpt lat="43.53241" lon="5.62631">
        <ele>607</ele>
        <time>2022-10-19T07:54:59.410Z</time>
      </trkpt>
      <trkpt lat="43.53242" lon="5.6263">
        <ele>607</ele>
        <time>2022-10-19T07:55:00.410Z</time>
      </trkpt>
      <trkpt lat="43.53242" lon="5.62629">
        <ele>607</ele>
        <time>2022-10-19T07:55:01.410Z</time>
      </trkpt>
      <trkpt lat="43.53242" lon="5.62629">
        <ele>607</ele>
        <time>2022-10-19T07:55:02.410Z</time>
      </trkpt>
      <trkpt lat="43.53242" lon="5.62628">
        <ele>608</ele>
        <time>2022-10-19T07:55:03.410Z</time>
      </trkpt>
      <trkpt lat="43.53242" lon="5.62627">
        <ele>608</ele>
        <time>2022-10-19T07:55:04.410Z</time>
      </trkpt>
      <trkpt lat="43.53242" lon="5.62626">
        <ele>608</ele>
        <time>2022-10-19T07:55:05.410Z</time>
      </trkpt>
      <trkpt lat="43.53242" lon="5.62625">
        <ele>608</ele>
        <time>2022-10-19T07:55:06.410Z</time>
      </trkpt>
      <trkpt lat="43.53242" lon="5.62625">
        <ele>608</ele>
        <time>2022-10-19T07:55:07.410Z</time>
      </trkpt>
      <trkpt lat="43.53242" lon="5.62624">
        <ele>608</ele>
        <time>2022-10-19T07:55:08.410Z</time>
      </trkpt>
      <trkpt lat="43.53242" lon="5.62623">
        <ele>609</ele>
        <time>2022-10-19T07:55:09.410Z</time>
      </trkpt>
      <trkpt lat="43.53242" lon="5.62622">
        <ele>609</ele>
        <time>2022-10-19T07:55:10.410Z</time>
      </trkpt>
      <trkpt lat="43.53242" lon="5.62621">
        <ele>609</ele>
        <time>2022-10-19T07:55:11.410Z</time>
      </trkpt>
      <trkpt lat="43.53243" lon="5.62621">
        <ele>609</ele>
        <time>2022-10-19T07:55:12.410Z</time>
      </trkpt>
      <trkpt lat="43.53243" lon="5.6262">
        <ele>609</ele>
        <time>2022-10-19T07:55:13.410Z</time>
      </trkpt>
      <trkpt lat="43.53242" lon="5.62619">
        <ele>609</ele>
        <time>2022-10-19T07:55:14.410Z</time>
      </trkpt>
      <trkpt lat="43.53242" lon="5.62618">
        <ele>610</ele>
        <time>2022-10-19T07:55:15.410Z</time>
      </trkpt>
      <trkpt lat="43.53242" lon="5.62617">
        <ele>610</ele>
        <time>2022-10-19T07:55:16.410Z</time>
      </trkpt>
      <trkpt lat="43.53242" lon="5.62616">
        <ele>610</ele>
        <time>2022-10-19T07:55:17.410Z</time>
      </trkpt>
      <trkpt lat="43.53242" lon="5.62616">
        <ele>610</ele>
        <time>2022-10-19T07:55:18.410Z</time>
      </trkpt>
      <trkpt lat="43.53242" lon="5.62615">
        <ele>610</ele>
        <time>2022-10-19T07:55:19.410Z</time>
      </trkpt>
      <trkpt lat="43.53242" lon="5.62614">
        <ele>610</ele>
        <time>2022-10-19T07:55:20.410Z</time>
      </trkpt>
      <trkpt lat="43.53242" lon="5.62613">
        <ele>610</ele>
        <time>2022-10-19T07:55:21.410Z</time>
      </trkpt>
      <trkpt lat="43.53242" lon="5.62612">
        <ele>610</ele>
        <time>2022-10-19T07:55:22.410Z</time>
      </trkpt>
      <trkpt lat="43.53242" lon="5.62611">
        <ele>610</ele>
        <time>2022-10-19T07:55:23.410Z</time>
      </trkpt>
      <trkpt lat="43.53241" lon="5.6261">
        <ele>610</ele>
        <time>2022-10-19T07:55:24.410Z</time>
      </trkpt>
      <trkpt lat="43.53241" lon="5.62609">
        <ele>610</ele>
        <time>2022-10-19T07:55:25.410Z</time>
      </trkpt>
      <trkpt lat="43.53241" lon="5.62608">
        <ele>610</ele>
        <time>2022-10-19T07:55:26.410Z</time>
      </trkpt>
      <trkpt lat="43.53241" lon="5.62607">
        <ele>611</ele>
        <time>2022-10-19T07:55:27.410Z</time>
      </trkpt>
      <trkpt lat="43.53241" lon="5.62606">
        <ele>611</ele>
        <time>2022-10-19T07:55:28.410Z</time>
      </trkpt>
      <trkpt lat="43.53241" lon="5.62605">
        <ele>611</ele>
        <time>2022-10-19T07:55:29.410Z</time>
      </trkpt>
      <trkpt lat="43.53241" lon="5.62605">
        <ele>611</ele>
        <time>2022-10-19T07:55:30.410Z</time>
      </trkpt>
      <trkpt lat="43.5324" lon="5.62604">
        <ele>611</ele>
        <time>2022-10-19T07:55:31.410Z</time>
      </trkpt>
      <trkpt lat="43.5324" lon="5.62603">
        <ele>611</ele>
        <time>2022-10-19T07:55:32.410Z</time>
      </trkpt>
      <trkpt lat="43.5324" lon="5.62602">
        <ele>611</ele>
        <time>2022-10-19T07:55:33.410Z</time>
      </trkpt>
      <trkpt lat="43.53239" lon="5.62601">
        <ele>611</ele>
        <time>2022-10-19T07:55:34.410Z</time>
      </trkpt>
      <trkpt lat="43.53239" lon="5.626">
        <ele>611</ele>
        <time>2022-10-19T07:55:35.410Z</time>
      </trkpt>
      <trkpt lat="43.53239" lon="5.62599">
        <ele>612</ele>
        <time>2022-10-19T07:55:36.410Z</time>
      </trkpt>
      <trkpt lat="43.53238" lon="5.62598">
        <ele>612</ele>
        <time>2022-10-19T07:55:37.410Z</time>
      </trkpt>
      <trkpt lat="43.53238" lon="5.62597">
        <ele>612</ele>
        <time>2022-10-19T07:55:38.410Z</time>
      </trkpt>
      <trkpt lat="43.53238" lon="5.62596">
        <ele>612</ele>
        <time>2022-10-19T07:55:39.410Z</time>
      </trkpt>
      <trkpt lat="43.53238" lon="5.62595">
        <ele>612</ele>
        <time>2022-10-19T07:55:40.410Z</time>
      </trkpt>
      <trkpt lat="43.53238" lon="5.62595">
        <ele>612</ele>
        <time>2022-10-19T07:55:41.410Z</time>
      </trkpt>
      <trkpt lat="43.53239" lon="5.62594">
        <ele>612</ele>
        <time>2022-10-19T07:55:42.410Z</time>
      </trkpt>
      <trkpt lat="43.53238" lon="5.62593">
        <ele>612</ele>
        <time>2022-10-19T07:55:43.410Z</time>
      </trkpt>
      <trkpt lat="43.53238" lon="5.62593">
        <ele>612</ele>
        <time>2022-10-19T07:55:44.410Z</time>
      </trkpt>
      <trkpt lat="43.53238" lon="5.62593">
        <ele>613</ele>
        <time>2022-10-19T07:55:45.410Z</time>
      </trkpt>
      <trkpt lat="43.53238" lon="5.62592">
        <ele>613</ele>
        <time>2022-10-19T07:55:46.410Z</time>
      </trkpt>
      <trkpt lat="43.53238" lon="5.62592">
        <ele>613</ele>
        <time>2022-10-19T07:55:47.410Z</time>
      </trkpt>
      <trkpt lat="43.53238" lon="5.62592">
        <ele>613</ele>
        <time>2022-10-19T07:55:48.410Z</time>
      </trkpt>
      <trkpt lat="43.53238" lon="5.62592">
        <ele>613</ele>
        <time>2022-10-19T07:55:49.410Z</time>
      </trkpt>
      <trkpt lat="43.53238" lon="5.62592">
        <ele>613</ele>
        <time>2022-10-19T07:55:50.410Z</time>
      </trkpt>
      <trkpt lat="43.53238" lon="5.62592">
        <ele>613</ele>
        <time>2022-10-19T07:55:51.410Z</time>
      </trkpt>
      <trkpt lat="43.53238" lon="5.62592">
        <ele>613</ele>
        <time>2022-10-19T07:55:52.410Z</time>
      </trkpt>
      <trkpt lat="43.53238" lon="5.62592">
        <ele>613</ele>
        <time>2022-10-19T07:55:53.410Z</time>
      </trkpt>
      <trkpt lat="43.53238" lon="5.62592">
        <ele>613</ele>
        <time>2022-10-19T07:55:54.410Z</time>
      </trkpt>
      <trkpt lat="43.53238" lon="5.62592">
        <ele>613</ele>
        <time>2022-10-19T07:55:55.410Z</time>
      </trkpt>
      <trkpt lat="43.53238" lon="5.62592">
        <ele>613</ele>
        <time>2022-10-19T07:55:56.410Z</time>
      </trkpt>
      <trkpt lat="43.53238" lon="5.62592">
        <ele>613</ele>
        <time>2022-10-19T07:55:57.410Z</time>
      </trkpt>
      <trkpt lat="43.53238" lon="5.62592">
        <ele>613</ele>
        <time>2022-10-19T07:55:58.410Z</time>
      </trkpt>
      <trkpt lat="43.53238" lon="5.62592">
        <ele>613</ele>
        <time>2022-10-19T07:55:59.410Z</time>
      </trkpt>
      <trkpt lat="43.53238" lon="5.62592">
        <ele>613</ele>
        <time>2022-10-19T07:56:00.410Z</time>
      </trkpt>
      <trkpt lat="43.53238" lon="5.62592">
        <ele>613</ele>
        <time>2022-10-19T07:56:01.410Z</time>
      </trkpt>
      <trkpt lat="43.53238" lon="5.62592">
        <ele>613</ele>
        <time>2022-10-19T07:56:02.410Z</time>
      </trkpt>
      <trkpt lat="43.53238" lon="5.62592">
        <ele>613</ele>
        <time>2022-10-19T07:56:03.410Z</time>
      </trkpt>
      <trkpt lat="43.53238" lon="5.62592">
        <ele>613</ele>
        <time>2022-10-19T07:56:04.410Z</time>
      </trkpt>
      <trkpt lat="43.53238" lon="5.62592">
        <ele>613</ele>
        <time>2022-10-19T07:56:05.410Z</time>
      </trkpt>
      <trkpt lat="43.53238" lon="5.62592">
        <ele>613</ele>
        <time>2022-10-19T07:56:06.410Z</time>
      </trkpt>
      <trkpt lat="43.53238" lon="5.62592">
        <ele>613</ele>
        <time>2022-10-19T07:56:07.410Z</time>
      </trkpt>
      <trkpt lat="43.53238" lon="5.62592">
        <ele>613</ele>
        <time>2022-10-19T07:56:08.410Z</time>
      </trkpt>
      <trkpt lat="43.53238" lon="5.62592">
        <ele>613</ele>
        <time>2022-10-19T07:56:09.410Z</time>
      </trkpt>
      <trkpt lat="43.53238" lon="5.62592">
        <ele>613</ele>
        <time>2022-10-19T07:56:10.410Z</time>
      </trkpt>
      <trkpt lat="43.53238" lon="5.62592">
        <ele>613</ele>
        <time>2022-10-19T07:56:11.410Z</time>
      </trkpt>
      <trkpt lat="43.53238" lon="5.62592">
        <ele>613</ele>
        <time>2022-10-19T07:56:12.410Z</time>
      </trkpt>
      <trkpt lat="43.53238" lon="5.62592">
        <ele>613</ele>
        <time>2022-10-19T07:56:13.410Z</time>
      </trkpt>
      <trkpt lat="43.53238" lon="5.62592">
        <ele>613</ele>
        <time>2022-10-19T07:56:14.410Z</time>
      </trkpt>
      <trkpt lat="43.53238" lon="5.62592">
        <ele>613</ele>
        <time>2022-10-19T07:56:15.410Z</time>
      </trkpt>
      <trkpt lat="43.53238" lon="5.62592">
        <ele>613</ele>
        <time>2022-10-19T07:56:16.410Z</time>
      </trkpt>
      <trkpt lat="43.53238" lon="5.62592">
        <ele>613</ele>
        <time>2022-10-19T07:56:17.410Z</time>
      </trkpt>
      <trkpt lat="43.53238" lon="5.62592">
        <ele>613</ele>
        <time>2022-10-19T07:56:18.410Z</time>
      </trkpt>
      <trkpt lat="43.53238" lon="5.62592">
        <ele>613</ele>
        <time>2022-10-19T07:56:19.410Z</time>
      </trkpt>
      <trkpt lat="43.53238" lon="5.62592">
        <ele>613</ele>
        <time>2022-10-19T07:56:20.410Z</time>
      </trkpt>
      <trkpt lat="43.53238" lon="5.62592">
        <ele>613</ele>
        <time>2022-10-19T07:56:21.410Z</time>
      </trkpt>
      <trkpt lat="43.53238" lon="5.62592">
        <ele>613</ele>
        <time>2022-10-19T07:56:22.410Z</time>
      </trkpt>
      <trkpt lat="43.53238" lon="5.62592">
        <ele>613</ele>
        <time>2022-10-19T07:56:23.410Z</time>
      </trkpt>
      <trkpt lat="43.53238" lon="5.62592">
        <ele>613</ele>
        <time>2022-10-19T07:56:24.410Z</time>
      </trkpt>
      <trkpt lat="43.53238" lon="5.62592">
        <ele>613</ele>
        <time>2022-10-19T07:56:25.410Z</time>
      </trkpt>
      <trkpt lat="43.53238" lon="5.62592">
        <ele>613</ele>
        <time>2022-10-19T07:56:26.410Z</time>
      </trkpt>
      <trkpt lat="43.53238" lon="5.62592">
        <ele>613</ele>
        <time>2022-10-19T07:56:27.410Z</time>
      </trkpt>
      <trkpt lat="43.53238" lon="5.62592">
        <ele>613</ele>
        <time>2022-10-19T07:56:28.410Z</time>
      </trkpt>
      <trkpt lat="43.53238" lon="5.62592">
        <ele>613</ele>
        <time>2022-10-19T07:56:29.410Z</time>
      </trkpt>
      <trkpt lat="43.53238" lon="5.62592">
        <ele>613</ele>
        <time>2022-10-19T07:56:30.410Z</time>
      </trkpt>
      <trkpt lat="43.53238" lon="5.62591">
        <ele>613</ele>
        <time>2022-10-19T07:56:31.410Z</time>
      </trkpt>
      <trkpt lat="43.53238" lon="5.62592">
        <ele>614</ele>
        <time>2022-10-19T07:56:32.410Z</time>
      </trkpt>
      <trkpt lat="43.53238" lon="5.62591">
        <ele>614</ele>
        <time>2022-10-19T07:56:33.410Z</time>
      </trkpt>
      <trkpt lat="43.53238" lon="5.6259">
        <ele>614</ele>
        <time>2022-10-19T07:56:34.410Z</time>
      </trkpt>
      <trkpt lat="43.53238" lon="5.6259">
        <ele>614</ele>
        <time>2022-10-19T07:56:35.410Z</time>
      </trkpt>
      <trkpt lat="43.53238" lon="5.62589">
        <ele>614</ele>
        <time>2022-10-19T07:56:36.410Z</time>
      </trkpt>
      <trkpt lat="43.53238" lon="5.62588">
        <ele>614</ele>
        <time>2022-10-19T07:56:37.410Z</time>
      </trkpt>
      <trkpt lat="43.53239" lon="5.62587">
        <ele>614</ele>
        <time>2022-10-19T07:56:38.410Z</time>
      </trkpt>
      <trkpt lat="43.53239" lon="5.62586">
        <ele>614</ele>
        <time>2022-10-19T07:56:39.410Z</time>
      </trkpt>
      <trkpt lat="43.53239" lon="5.62585">
        <ele>614</ele>
        <time>2022-10-19T07:56:40.410Z</time>
      </trkpt>
      <trkpt lat="43.53239" lon="5.62585">
        <ele>615</ele>
        <time>2022-10-19T07:56:41.410Z</time>
      </trkpt>
      <trkpt lat="43.53239" lon="5.62584">
        <ele>615</ele>
        <time>2022-10-19T07:56:42.410Z</time>
      </trkpt>
      <trkpt lat="43.53239" lon="5.62583">
        <ele>615</ele>
        <time>2022-10-19T07:56:43.410Z</time>
      </trkpt>
      <trkpt lat="43.53239" lon="5.62582">
        <ele>615</ele>
        <time>2022-10-19T07:56:44.410Z</time>
      </trkpt>
      <trkpt lat="43.5324" lon="5.62582">
        <ele>615</ele>
        <time>2022-10-19T07:56:45.410Z</time>
      </trkpt>
      <trkpt lat="43.5324" lon="5.62581">
        <ele>615</ele>
        <time>2022-10-19T07:56:46.410Z</time>
      </trkpt>
      <trkpt lat="43.5324" lon="5.62581">
        <ele>616</ele>
        <time>2022-10-19T07:56:47.410Z</time>
      </trkpt>
      <trkpt lat="43.5324" lon="5.6258">
        <ele>616</ele>
        <time>2022-10-19T07:56:48.410Z</time>
      </trkpt>
      <trkpt lat="43.5324" lon="5.62579">
        <ele>616</ele>
        <time>2022-10-19T07:56:49.410Z</time>
      </trkpt>
      <trkpt lat="43.5324" lon="5.62578">
        <ele>616</ele>
        <time>2022-10-19T07:56:50.410Z</time>
      </trkpt>
      <trkpt lat="43.5324" lon="5.62577">
        <ele>616</ele>
        <time>2022-10-19T07:56:51.410Z</time>
      </trkpt>
      <trkpt lat="43.5324" lon="5.62576">
        <ele>616</ele>
        <time>2022-10-19T07:56:52.410Z</time>
      </trkpt>
      <trkpt lat="43.5324" lon="5.62575">
        <ele>616</ele>
        <time>2022-10-19T07:56:53.410Z</time>
      </trkpt>
      <trkpt lat="43.5324" lon="5.62574">
        <ele>616</ele>
        <time>2022-10-19T07:56:54.410Z</time>
      </trkpt>
      <trkpt lat="43.5324" lon="5.62574">
        <ele>617</ele>
        <time>2022-10-19T07:56:55.410Z</time>
      </trkpt>
      <trkpt lat="43.5324" lon="5.62573">
        <ele>617</ele>
        <time>2022-10-19T07:56:56.410Z</time>
      </trkpt>
      <trkpt lat="43.53241" lon="5.62572">
        <ele>617</ele>
        <time>2022-10-19T07:56:57.410Z</time>
      </trkpt>
      <trkpt lat="43.53241" lon="5.62571">
        <ele>617</ele>
        <time>2022-10-19T07:56:58.410Z</time>
      </trkpt>
      <trkpt lat="43.53241" lon="5.62571">
        <ele>617</ele>
        <time>2022-10-19T07:56:59.410Z</time>
      </trkpt>
      <trkpt lat="43.53241" lon="5.6257">
        <ele>617</ele>
        <time>2022-10-19T07:57:00.410Z</time>
      </trkpt>
      <trkpt lat="43.53241" lon="5.62569">
        <ele>618</ele>
        <time>2022-10-19T07:57:01.410Z</time>
      </trkpt>
      <trkpt lat="43.53241" lon="5.62568">
        <ele>618</ele>
        <time>2022-10-19T07:57:02.410Z</time>
      </trkpt>
      <trkpt lat="43.53241" lon="5.62568">
        <ele>618</ele>
        <time>2022-10-19T07:57:03.410Z</time>
      </trkpt>
      <trkpt lat="43.53242" lon="5.62567">
        <ele>618</ele>
        <time>2022-10-19T07:57:04.410Z</time>
      </trkpt>
      <trkpt lat="43.53242" lon="5.62566">
        <ele>618</ele>
        <time>2022-10-19T07:57:05.410Z</time>
      </trkpt>
      <trkpt lat="43.53242" lon="5.62566">
        <ele>618</ele>
        <time>2022-10-19T07:57:06.410Z</time>
      </trkpt>
      <trkpt lat="43.53242" lon="5.62565">
        <ele>619</ele>
        <time>2022-10-19T07:57:07.410Z</time>
      </trkpt>
      <trkpt lat="43.53242" lon="5.62564">
        <ele>619</ele>
        <time>2022-10-19T07:57:08.410Z</time>
      </trkpt>
      <trkpt lat="43.53242" lon="5.62564">
        <ele>619</ele>
        <time>2022-10-19T07:57:09.410Z</time>
      </trkpt>
      <trkpt lat="43.53242" lon="5.62563">
        <ele>619</ele>
        <time>2022-10-19T07:57:10.410Z</time>
      </trkpt>
      <trkpt lat="43.53242" lon="5.62562">
        <ele>619</ele>
        <time>2022-10-19T07:57:11.410Z</time>
      </trkpt>
      <trkpt lat="43.53242" lon="5.62561">
        <ele>619</ele>
        <time>2022-10-19T07:57:12.410Z</time>
      </trkpt>
      <trkpt lat="43.53242" lon="5.62561">
        <ele>619</ele>
        <time>2022-10-19T07:57:13.410Z</time>
      </trkpt>
      <trkpt lat="43.53243" lon="5.6256">
        <ele>619</ele>
        <time>2022-10-19T07:57:14.410Z</time>
      </trkpt>
      <trkpt lat="43.53243" lon="5.6256">
        <ele>620</ele>
        <time>2022-10-19T07:57:15.410Z</time>
      </trkpt>
      <trkpt lat="43.53244" lon="5.62559">
        <ele>620</ele>
        <time>2022-10-19T07:57:16.410Z</time>
      </trkpt>
      <trkpt lat="43.53244" lon="5.62559">
        <ele>620</ele>
        <time>2022-10-19T07:57:17.410Z</time>
      </trkpt>
      <trkpt lat="43.53244" lon="5.62559">
        <ele>620</ele>
        <time>2022-10-19T07:57:18.410Z</time>
      </trkpt>
      <trkpt lat="43.53245" lon="5.62559">
        <ele>620</ele>
        <time>2022-10-19T07:57:19.410Z</time>
      </trkpt>
      <trkpt lat="43.53245" lon="5.62559">
        <ele>620</ele>
        <time>2022-10-19T07:57:20.410Z</time>
      </trkpt>
      <trkpt lat="43.53245" lon="5.62559">
        <ele>620</ele>
        <time>2022-10-19T07:57:21.410Z</time>
      </trkpt>
      <trkpt lat="43.53246" lon="5.62559">
        <ele>620</ele>
        <time>2022-10-19T07:57:22.410Z</time>
      </trkpt>
      <trkpt lat="43.53246" lon="5.6256">
        <ele>621</ele>
        <time>2022-10-19T07:57:23.410Z</time>
      </trkpt>
      <trkpt lat="43.53246" lon="5.6256">
        <ele>621</ele>
        <time>2022-10-19T07:57:24.410Z</time>
      </trkpt>
      <trkpt lat="43.53247" lon="5.62561">
        <ele>621</ele>
        <time>2022-10-19T07:57:25.410Z</time>
      </trkpt>
      <trkpt lat="43.53247" lon="5.62561">
        <ele>621</ele>
        <time>2022-10-19T07:57:26.410Z</time>
      </trkpt>
      <trkpt lat="43.53247" lon="5.62562">
        <ele>621</ele>
        <time>2022-10-19T07:57:27.410Z</time>
      </trkpt>
      <trkpt lat="43.53248" lon="5.62563">
        <ele>621</ele>
        <time>2022-10-19T07:57:28.410Z</time>
      </trkpt>
      <trkpt lat="43.53248" lon="5.62563">
        <ele>622</ele>
        <time>2022-10-19T07:57:29.410Z</time>
      </trkpt>
      <trkpt lat="43.53249" lon="5.62564">
        <ele>622</ele>
        <time>2022-10-19T07:57:30.410Z</time>
      </trkpt>
      <trkpt lat="43.53249" lon="5.62565">
        <ele>622</ele>
        <time>2022-10-19T07:57:31.410Z</time>
      </trkpt>
      <trkpt lat="43.5325" lon="5.62565">
        <ele>622</ele>
        <time>2022-10-19T07:57:32.410Z</time>
      </trkpt>
      <trkpt lat="43.5325" lon="5.62566">
        <ele>622</ele>
        <time>2022-10-19T07:57:33.410Z</time>
      </trkpt>
      <trkpt lat="43.53251" lon="5.62566">
        <ele>622</ele>
        <time>2022-10-19T07:57:34.410Z</time>
      </trkpt>
      <trkpt lat="43.53251" lon="5.62567">
        <ele>622</ele>
        <time>2022-10-19T07:57:35.410Z</time>
      </trkpt>
      <trkpt lat="43.53252" lon="5.62567">
        <ele>622</ele>
        <time>2022-10-19T07:57:36.410Z</time>
      </trkpt>
      <trkpt lat="43.53252" lon="5.62568">
        <ele>623</ele>
        <time>2022-10-19T07:57:37.410Z</time>
      </trkpt>
      <trkpt lat="43.53253" lon="5.62568">
        <ele>623</ele>
        <time>2022-10-19T07:57:38.410Z</time>
      </trkpt>
      <trkpt lat="43.53253" lon="5.62569">
        <ele>623</ele>
        <time>2022-10-19T07:57:39.410Z</time>
      </trkpt>
      <trkpt lat="43.53254" lon="5.6257">
        <ele>623</ele>
        <time>2022-10-19T07:57:40.410Z</time>
      </trkpt>
      <trkpt lat="43.53254" lon="5.6257">
        <ele>623</ele>
        <time>2022-10-19T07:57:41.410Z</time>
      </trkpt>
      <trkpt lat="43.53255" lon="5.62571">
        <ele>623</ele>
        <time>2022-10-19T07:57:42.410Z</time>
      </trkpt>
      <trkpt lat="43.53256" lon="5.62571">
        <ele>623</ele>
        <time>2022-10-19T07:57:43.410Z</time>
      </trkpt>
      <trkpt lat="43.53256" lon="5.62572">
        <ele>623</ele>
        <time>2022-10-19T07:57:44.410Z</time>
      </trkpt>
      <trkpt lat="43.53257" lon="5.62573">
        <ele>624</ele>
        <time>2022-10-19T07:57:45.410Z</time>
      </trkpt>
      <trkpt lat="43.53257" lon="5.62573">
        <ele>624</ele>
        <time>2022-10-19T07:57:46.410Z</time>
      </trkpt>
      <trkpt lat="43.53258" lon="5.62573">
        <ele>624</ele>
        <time>2022-10-19T07:57:47.410Z</time>
      </trkpt>
      <trkpt lat="43.53258" lon="5.62574">
        <ele>624</ele>
        <time>2022-10-19T07:57:48.410Z</time>
      </trkpt>
      <trkpt lat="43.53258" lon="5.62574">
        <ele>624</ele>
        <time>2022-10-19T07:57:49.410Z</time>
      </trkpt>
      <trkpt lat="43.53259" lon="5.62575">
        <ele>624</ele>
        <time>2022-10-19T07:57:50.410Z</time>
      </trkpt>
      <trkpt lat="43.53259" lon="5.62575">
        <ele>624</ele>
        <time>2022-10-19T07:57:51.410Z</time>
      </trkpt>
      <trkpt lat="43.5326" lon="5.62575">
        <ele>624</ele>
        <time>2022-10-19T07:57:52.410Z</time>
      </trkpt>
      <trkpt lat="43.5326" lon="5.62576">
        <ele>625</ele>
        <time>2022-10-19T07:57:53.410Z</time>
      </trkpt>
      <trkpt lat="43.53261" lon="5.62577">
        <ele>625</ele>
        <time>2022-10-19T07:57:54.410Z</time>
      </trkpt>
      <trkpt lat="43.53261" lon="5.62577">
        <ele>625</ele>
        <time>2022-10-19T07:57:55.410Z</time>
      </trkpt>
      <trkpt lat="43.53262" lon="5.62577">
        <ele>625</ele>
        <time>2022-10-19T07:57:56.410Z</time>
      </trkpt>
      <trkpt lat="43.53262" lon="5.62578">
        <ele>625</ele>
        <time>2022-10-19T07:57:57.410Z</time>
      </trkpt>
      <trkpt lat="43.53263" lon="5.62578">
        <ele>625</ele>
        <time>2022-10-19T07:57:58.410Z</time>
      </trkpt>
      <trkpt lat="43.53263" lon="5.62578">
        <ele>625</ele>
        <time>2022-10-19T07:57:59.410Z</time>
      </trkpt>
      <trkpt lat="43.53264" lon="5.62579">
        <ele>625</ele>
        <time>2022-10-19T07:58:00.410Z</time>
      </trkpt>
      <trkpt lat="43.53264" lon="5.62579">
        <ele>625</ele>
        <time>2022-10-19T07:58:01.410Z</time>
      </trkpt>
      <trkpt lat="43.53265" lon="5.6258">
        <ele>625</ele>
        <time>2022-10-19T07:58:02.410Z</time>
      </trkpt>
      <trkpt lat="43.53265" lon="5.6258">
        <ele>626</ele>
        <time>2022-10-19T07:58:03.410Z</time>
      </trkpt>
      <trkpt lat="43.53265" lon="5.6258">
        <ele>626</ele>
        <time>2022-10-19T07:58:04.410Z</time>
      </trkpt>
      <trkpt lat="43.53265" lon="5.6258">
        <ele>626</ele>
        <time>2022-10-19T07:58:05.410Z</time>
      </trkpt>
      <trkpt lat="43.53266" lon="5.62581">
        <ele>626</ele>
        <time>2022-10-19T07:58:06.410Z</time>
      </trkpt>
      <trkpt lat="43.53266" lon="5.62581">
        <ele>626</ele>
        <time>2022-10-19T07:58:07.410Z</time>
      </trkpt>
      <trkpt lat="43.53266" lon="5.62582">
        <ele>626</ele>
        <time>2022-10-19T07:58:08.410Z</time>
      </trkpt>
      <trkpt lat="43.53267" lon="5.62583">
        <ele>626</ele>
        <time>2022-10-19T07:58:09.410Z</time>
      </trkpt>
      <trkpt lat="43.53267" lon="5.62584">
        <ele>626</ele>
        <time>2022-10-19T07:58:10.410Z</time>
      </trkpt>
      <trkpt lat="43.53267" lon="5.62584">
        <ele>627</ele>
        <time>2022-10-19T07:58:11.410Z</time>
      </trkpt>
      <trkpt lat="43.53268" lon="5.62585">
        <ele>627</ele>
        <time>2022-10-19T07:58:12.410Z</time>
      </trkpt>
      <trkpt lat="43.53268" lon="5.62585">
        <ele>627</ele>
        <time>2022-10-19T07:58:13.410Z</time>
      </trkpt>
      <trkpt lat="43.53269" lon="5.62586">
        <ele>627</ele>
        <time>2022-10-19T07:58:14.410Z</time>
      </trkpt>
      <trkpt lat="43.53269" lon="5.62586">
        <ele>627</ele>
        <time>2022-10-19T07:58:15.410Z</time>
      </trkpt>
      <trkpt lat="43.5327" lon="5.62587">
        <ele>627</ele>
        <time>2022-10-19T07:58:16.410Z</time>
      </trkpt>
      <trkpt lat="43.5327" lon="5.62587">
        <ele>627</ele>
        <time>2022-10-19T07:58:17.410Z</time>
      </trkpt>
      <trkpt lat="43.53271" lon="5.62588">
        <ele>627</ele>
        <time>2022-10-19T07:58:18.410Z</time>
      </trkpt>
      <trkpt lat="43.53271" lon="5.62588">
        <ele>628</ele>
        <time>2022-10-19T07:58:19.410Z</time>
      </trkpt>
      <trkpt lat="43.53271" lon="5.62588">
        <ele>628</ele>
        <time>2022-10-19T07:58:20.410Z</time>
      </trkpt>
      <trkpt lat="43.53271" lon="5.62588">
        <ele>628</ele>
        <time>2022-10-19T07:58:21.410Z</time>
      </trkpt>
      <trkpt lat="43.53271" lon="5.62588">
        <ele>628</ele>
        <time>2022-10-19T07:58:22.410Z</time>
      </trkpt>
      <trkpt lat="43.53271" lon="5.62588">
        <ele>628</ele>
        <time>2022-10-19T07:58:23.410Z</time>
      </trkpt>
      <trkpt lat="43.53271" lon="5.62588">
        <ele>628</ele>
        <time>2022-10-19T07:58:24.410Z</time>
      </trkpt>
      <trkpt lat="43.53271" lon="5.62588">
        <ele>628</ele>
        <time>2022-10-19T07:58:25.410Z</time>
      </trkpt>
      <trkpt lat="43.53271" lon="5.62588">
        <ele>628</ele>
        <time>2022-10-19T07:58:26.410Z</time>
      </trkpt>
      <trkpt lat="43.53271" lon="5.62588">
        <ele>628</ele>
        <time>2022-10-19T07:58:27.410Z</time>
      </trkpt>
      <trkpt lat="43.53271" lon="5.62588">
        <ele>628</ele>
        <time>2022-10-19T07:58:28.410Z</time>
      </trkpt>
      <trkpt lat="43.53271" lon="5.62588">
        <ele>628</ele>
        <time>2022-10-19T07:58:29.410Z</time>
      </trkpt>
      <trkpt lat="43.53271" lon="5.62588">
        <ele>628</ele>
        <time>2022-10-19T07:58:30.410Z</time>
      </trkpt>
      <trkpt lat="43.53271" lon="5.62588">
        <ele>628</ele>
        <time>2022-10-19T07:58:31.410Z</time>
      </trkpt>
      <trkpt lat="43.53271" lon="5.62588">
        <ele>628</ele>
        <time>2022-10-19T07:58:32.410Z</time>
      </trkpt>
      <trkpt lat="43.53271" lon="5.62588">
        <ele>628</ele>
        <time>2022-10-19T07:58:33.410Z</time>
      </trkpt>
      <trkpt lat="43.53271" lon="5.62588">
        <ele>628</ele>
        <time>2022-10-19T07:58:34.410Z</time>
      </trkpt>
      <trkpt lat="43.53272" lon="5.62588">
        <ele>628</ele>
        <time>2022-10-19T07:58:35.410Z</time>
      </trkpt>
      <trkpt lat="43.53272" lon="5.62588">
        <ele>628</ele>
        <time>2022-10-19T07:58:36.410Z</time>
      </trkpt>
      <trkpt lat="43.53272" lon="5.62588">
        <ele>628</ele>
        <time>2022-10-19T07:58:37.410Z</time>
      </trkpt>
      <trkpt lat="43.53272" lon="5.62588">
        <ele>628</ele>
        <time>2022-10-19T07:58:38.410Z</time>
      </trkpt>
      <trkpt lat="43.53272" lon="5.62588">
        <ele>628</ele>
        <time>2022-10-19T07:58:39.410Z</time>
      </trkpt>
      <trkpt lat="43.53272" lon="5.62588">
        <ele>628</ele>
        <time>2022-10-19T07:58:40.410Z</time>
      </trkpt>
      <trkpt lat="43.53271" lon="5.62588">
        <ele>628</ele>
        <time>2022-10-19T07:58:41.410Z</time>
      </trkpt>
      <trkpt lat="43.53272" lon="5.62589">
        <ele>628</ele>
        <time>2022-10-19T07:58:42.410Z</time>
      </trkpt>
      <trkpt lat="43.53272" lon="5.62589">
        <ele>628</ele>
        <time>2022-10-19T07:58:43.410Z</time>
      </trkpt>
      <trkpt lat="43.53272" lon="5.62589">
        <ele>628</ele>
        <time>2022-10-19T07:58:44.410Z</time>
      </trkpt>
      <trkpt lat="43.53272" lon="5.62589">
        <ele>628</ele>
        <time>2022-10-19T07:58:45.410Z</time>
      </trkpt>
      <trkpt lat="43.53272" lon="5.62589">
        <ele>628</ele>
        <time>2022-10-19T07:58:46.410Z</time>
      </trkpt>
      <trkpt lat="43.53272" lon="5.62589">
        <ele>628</ele>
        <time>2022-10-19T07:58:47.410Z</time>
      </trkpt>
      <trkpt lat="43.53272" lon="5.62589">
        <ele>628</ele>
        <time>2022-10-19T07:58:48.410Z</time>
      </trkpt>
      <trkpt lat="43.53272" lon="5.62589">
        <ele>628</ele>
        <time>2022-10-19T07:58:49.410Z</time>
      </trkpt>
      <trkpt lat="43.53272" lon="5.62589">
        <ele>628</ele>
        <time>2022-10-19T07:58:50.410Z</time>
      </trkpt>
      <trkpt lat="43.53272" lon="5.62589">
        <ele>628</ele>
        <time>2022-10-19T07:58:51.410Z</time>
      </trkpt>
      <trkpt lat="43.53272" lon="5.62589">
        <ele>628</ele>
        <time>2022-10-19T07:58:52.410Z</time>
      </trkpt>
      <trkpt lat="43.53273" lon="5.62589">
        <ele>628</ele>
        <time>2022-10-19T07:58:53.410Z</time>
      </trkpt>
      <trkpt lat="43.53273" lon="5.62589">
        <ele>628</ele>
        <time>2022-10-19T07:58:54.410Z</time>
      </trkpt>
      <trkpt lat="43.53273" lon="5.62589">
        <ele>628</ele>
        <time>2022-10-19T07:58:55.410Z</time>
      </trkpt>
      <trkpt lat="43.53273" lon="5.62589">
        <ele>628</ele>
        <time>2022-10-19T07:58:56.410Z</time>
      </trkpt>
      <trkpt lat="43.53273" lon="5.62589">
        <ele>628</ele>
        <time>2022-10-19T07:58:57.410Z</time>
      </trkpt>
      <trkpt lat="43.53273" lon="5.62589">
        <ele>628</ele>
        <time>2022-10-19T07:58:58.410Z</time>
      </trkpt>
      <trkpt lat="43.53273" lon="5.62589">
        <ele>628</ele>
        <time>2022-10-19T07:58:59.410Z</time>
      </trkpt>
      <trkpt lat="43.53273" lon="5.62589">
        <ele>628</ele>
        <time>2022-10-19T07:59:00.410Z</time>
      </trkpt>
      <trkpt lat="43.53273" lon="5.62589">
        <ele>628</ele>
        <time>2022-10-19T07:59:01.410Z</time>
      </trkpt>
      <trkpt lat="43.53273" lon="5.62589">
        <ele>628</ele>
        <time>2022-10-19T07:59:02.410Z</time>
      </trkpt>
      <trkpt lat="43.53273" lon="5.62589">
        <ele>628</ele>
        <time>2022-10-19T07:59:03.410Z</time>
      </trkpt>
      <trkpt lat="43.53273" lon="5.62589">
        <ele>628</ele>
        <time>2022-10-19T07:59:04.410Z</time>
      </trkpt>
      <trkpt lat="43.53273" lon="5.62589">
        <ele>628</ele>
        <time>2022-10-19T07:59:05.410Z</time>
      </trkpt>
      <trkpt lat="43.53273" lon="5.62589">
        <ele>628</ele>
        <time>2022-10-19T07:59:06.410Z</time>
      </trkpt>
      <trkpt lat="43.53273" lon="5.6259">
        <ele>628</ele>
        <time>2022-10-19T07:59:07.410Z</time>
      </trkpt>
      <trkpt lat="43.53273" lon="5.6259">
        <ele>628</ele>
        <time>2022-10-19T07:59:08.410Z</time>
      </trkpt>
      <trkpt lat="43.53273" lon="5.6259">
        <ele>628</ele>
        <time>2022-10-19T07:59:09.410Z</time>
      </trkpt>
      <trkpt lat="43.53273" lon="5.6259">
        <ele>628</ele>
        <time>2022-10-19T07:59:10.410Z</time>
      </trkpt>
      <trkpt lat="43.53273" lon="5.6259">
        <ele>628</ele>
        <time>2022-10-19T07:59:11.410Z</time>
      </trkpt>
      <trkpt lat="43.53273" lon="5.6259">
        <ele>628</ele>
        <time>2022-10-19T07:59:12.410Z</time>
      </trkpt>
      <trkpt lat="43.53273" lon="5.6259">
        <ele>628</ele>
        <time>2022-10-19T07:59:13.410Z</time>
      </trkpt>
      <trkpt lat="43.53273" lon="5.6259">
        <ele>628</ele>
        <time>2022-10-19T07:59:14.410Z</time>
      </trkpt>
      <trkpt lat="43.53273" lon="5.6259">
        <ele>628</ele>
        <time>2022-10-19T07:59:15.410Z</time>
      </trkpt>
      <trkpt lat="43.53273" lon="5.6259">
        <ele>628</ele>
        <time>2022-10-19T07:59:16.410Z</time>
      </trkpt>
      <trkpt lat="43.53273" lon="5.6259">
        <ele>628</ele>
        <time>2022-10-19T07:59:17.410Z</time>
      </trkpt>
      <trkpt lat="43.53273" lon="5.6259">
        <ele>628</ele>
        <time>2022-10-19T07:59:18.410Z</time>
      </trkpt>
      <trkpt lat="43.53273" lon="5.6259">
        <ele>628</ele>
        <time>2022-10-19T07:59:19.410Z</time>
      </trkpt>
      <trkpt lat="43.53274" lon="5.6259">
        <ele>628</ele>
        <time>2022-10-19T07:59:20.410Z</time>
      </trkpt>
      <trkpt lat="43.53273" lon="5.6259">
        <ele>628</ele>
        <time>2022-10-19T07:59:21.410Z</time>
      </trkpt>
      <trkpt lat="43.53274" lon="5.6259">
        <ele>629</ele>
        <time>2022-10-19T07:59:22.410Z</time>
      </trkpt>
      <trkpt lat="43.53274" lon="5.6259">
        <ele>629</ele>
        <time>2022-10-19T07:59:23.410Z</time>
      </trkpt>
      <trkpt lat="43.53274" lon="5.6259">
        <ele>629</ele>
        <time>2022-10-19T07:59:24.410Z</time>
      </trkpt>
      <trkpt lat="43.53274" lon="5.6259">
        <ele>629</ele>
        <time>2022-10-19T07:59:25.410Z</time>
      </trkpt>
      <trkpt lat="43.53274" lon="5.6259">
        <ele>629</ele>
        <time>2022-10-19T07:59:26.410Z</time>
      </trkpt>
      <trkpt lat="43.53274" lon="5.6259">
        <ele>629</ele>
        <time>2022-10-19T07:59:27.410Z</time>
      </trkpt>
      <trkpt lat="43.53274" lon="5.6259">
        <ele>629</ele>
        <time>2022-10-19T07:59:28.410Z</time>
      </trkpt>
      <trkpt lat="43.53274" lon="5.6259">
        <ele>629</ele>
        <time>2022-10-19T07:59:29.410Z</time>
      </trkpt>
      <trkpt lat="43.53274" lon="5.6259">
        <ele>629</ele>
        <time>2022-10-19T07:59:30.410Z</time>
      </trkpt>
      <trkpt lat="43.53274" lon="5.6259">
        <ele>629</ele>
        <time>2022-10-19T07:59:31.410Z</time>
      </trkpt>
      <trkpt lat="43.53274" lon="5.6259">
        <ele>629</ele>
        <time>2022-10-19T07:59:32.410Z</time>
      </trkpt>
      <trkpt lat="43.53274" lon="5.6259">
        <ele>629</ele>
        <time>2022-10-19T07:59:33.410Z</time>
      </trkpt>
      <trkpt lat="43.53274" lon="5.6259">
        <ele>629</ele>
        <time>2022-10-19T07:59:34.410Z</time>
      </trkpt>
      <trkpt lat="43.53274" lon="5.6259">
        <ele>629</ele>
        <time>2022-10-19T07:59:35.410Z</time>
      </trkpt>
      <trkpt lat="43.53275" lon="5.62591">
        <ele>629</ele>
        <time>2022-10-19T07:59:36.410Z</time>
      </trkpt>
      <trkpt lat="43.53276" lon="5.62591">
        <ele>629</ele>
        <time>2022-10-19T07:59:37.410Z</time>
      </trkpt>
      <trkpt lat="43.53276" lon="5.62592">
        <ele>629</ele>
        <time>2022-10-19T07:59:38.410Z</time>
      </trkpt>
      <trkpt lat="43.53277" lon="5.62592">
        <ele>629</ele>
        <time>2022-10-19T07:59:39.410Z</time>
      </trkpt>
      <trkpt lat="43.53278" lon="5.62593">
        <ele>629</ele>
        <time>2022-10-19T07:59:40.410Z</time>
      </trkpt>
      <trkpt lat="43.53278" lon="5.62593">
        <ele>629</ele>
        <time>2022-10-19T07:59:41.410Z</time>
      </trkpt>
      <trkpt lat="43.53279" lon="5.62594">
        <ele>629</ele>
        <time>2022-10-19T07:59:42.410Z</time>
      </trkpt>
      <trkpt lat="43.53279" lon="5.62594">
        <ele>629</ele>
        <time>2022-10-19T07:59:43.410Z</time>
      </trkpt>
      <trkpt lat="43.5328" lon="5.62595">
        <ele>629</ele>
        <time>2022-10-19T07:59:44.410Z</time>
      </trkpt>
      <trkpt lat="43.5328" lon="5.62595">
        <ele>629</ele>
        <time>2022-10-19T07:59:45.410Z</time>
      </trkpt>
      <trkpt lat="43.53281" lon="5.62596">
        <ele>629</ele>
        <time>2022-10-19T07:59:46.410Z</time>
      </trkpt>
      <trkpt lat="43.53281" lon="5.62596">
        <ele>630</ele>
        <time>2022-10-19T07:59:47.410Z</time>
      </trkpt>
      <trkpt lat="43.53281" lon="5.62596">
        <ele>630</ele>
        <time>2022-10-19T07:59:48.410Z</time>
      </trkpt>
      <trkpt lat="43.53282" lon="5.62596">
        <ele>630</ele>
        <time>2022-10-19T07:59:49.410Z</time>
      </trkpt>
      <trkpt lat="43.53282" lon="5.62596">
        <ele>630</ele>
        <time>2022-10-19T07:59:50.410Z</time>
      </trkpt>
      <trkpt lat="43.53282" lon="5.62596">
        <ele>630</ele>
        <time>2022-10-19T07:59:51.410Z</time>
      </trkpt>
      <trkpt lat="43.53282" lon="5.62596">
        <ele>630</ele>
        <time>2022-10-19T07:59:52.410Z</time>
      </trkpt>
      <trkpt lat="43.53282" lon="5.62596">
        <ele>630</ele>
        <time>2022-10-19T07:59:53.410Z</time>
      </trkpt>
      <trkpt lat="43.53282" lon="5.62596">
        <ele>630</ele>
        <time>2022-10-19T07:59:54.410Z</time>
      </trkpt>
      <trkpt lat="43.53282" lon="5.62596">
        <ele>630</ele>
        <time>2022-10-19T07:59:55.410Z</time>
      </trkpt>
      <trkpt lat="43.53282" lon="5.62596">
        <ele>630</ele>
        <time>2022-10-19T07:59:56.410Z</time>
      </trkpt>
      <trkpt lat="43.53282" lon="5.62596">
        <ele>630</ele>
        <time>2022-10-19T07:59:57.410Z</time>
      </trkpt>
      <trkpt lat="43.53282" lon="5.62596">
        <ele>630</ele>
        <time>2022-10-19T07:59:58.410Z</time>
      </trkpt>
      <trkpt lat="43.53282" lon="5.62596">
        <ele>630</ele>
        <time>2022-10-19T07:59:59.410Z</time>
      </trkpt>
      <trkpt lat="43.53282" lon="5.62596">
        <ele>630</ele>
        <time>2022-10-19T08:00:00.410Z</time>
      </trkpt>
      <trkpt lat="43.53282" lon="5.62596">
        <ele>630</ele>
        <time>2022-10-19T08:00:01.410Z</time>
      </trkpt>
      <trkpt lat="43.53282" lon="5.62596">
        <ele>630</ele>
        <time>2022-10-19T08:00:02.410Z</time>
      </trkpt>
      <trkpt lat="43.53282" lon="5.62596">
        <ele>630</ele>
        <time>2022-10-19T08:00:03.410Z</time>
      </trkpt>
      <trkpt lat="43.53282" lon="5.62596">
        <ele>630</ele>
        <time>2022-10-19T08:00:04.410Z</time>
      </trkpt>
      <trkpt lat="43.53282" lon="5.62596">
        <ele>630</ele>
        <time>2022-10-19T08:00:05.410Z</time>
      </trkpt>
      <trkpt lat="43.53282" lon="5.62596">
        <ele>630</ele>
        <time>2022-10-19T08:00:06.410Z</time>
      </trkpt>
      <trkpt lat="43.53282" lon="5.62596">
        <ele>630</ele>
        <time>2022-10-19T08:00:07.410Z</time>
      </trkpt>
      <trkpt lat="43.53282" lon="5.62596">
        <ele>630</ele>
        <time>2022-10-19T08:00:08.410Z</time>
      </trkpt>
      <trkpt lat="43.53282" lon="5.62596">
        <ele>630</ele>
        <time>2022-10-19T08:00:09.410Z</time>
      </trkpt>
      <trkpt lat="43.53282" lon="5.62596">
        <ele>630</ele>
        <time>2022-10-19T08:00:10.410Z</time>
      </trkpt>
      <trkpt lat="43.53282" lon="5.62596">
        <ele>630</ele>
        <time>2022-10-19T08:00:11.410Z</time>
      </trkpt>
      <trkpt lat="43.53282" lon="5.62596">
        <ele>630</ele>
        <time>2022-10-19T08:00:12.410Z</time>
      </trkpt>
      <trkpt lat="43.53282" lon="5.62596">
        <ele>630</ele>
        <time>2022-10-19T08:00:13.410Z</time>
      </trkpt>
      <trkpt lat="43.53282" lon="5.62596">
        <ele>630</ele>
        <time>2022-10-19T08:00:14.410Z</time>
      </trkpt>
      <trkpt lat="43.53282" lon="5.62596">
        <ele>630</ele>
        <time>2022-10-19T08:00:15.410Z</time>
      </trkpt>
      <trkpt lat="43.53281" lon="5.62596">
        <ele>630</ele>
        <time>2022-10-19T08:00:16.410Z</time>
      </trkpt>
      <trkpt lat="43.53281" lon="5.62596">
        <ele>630</ele>
        <time>2022-10-19T08:00:17.410Z</time>
      </trkpt>
      <trkpt lat="43.53281" lon="5.62596">
        <ele>630</ele>
        <time>2022-10-19T08:00:18.410Z</time>
      </trkpt>
      <trkpt lat="43.53281" lon="5.62596">
        <ele>630</ele>
        <time>2022-10-19T08:00:19.410Z</time>
      </trkpt>
      <trkpt lat="43.53281" lon="5.62596">
        <ele>630</ele>
        <time>2022-10-19T08:00:20.410Z</time>
      </trkpt>
      <trkpt lat="43.53281" lon="5.62596">
        <ele>630</ele>
        <time>2022-10-19T08:00:21.410Z</time>
      </trkpt>
      <trkpt lat="43.53281" lon="5.62596">
        <ele>630</ele>
        <time>2022-10-19T08:00:22.410Z</time>
      </trkpt>
      <trkpt lat="43.53281" lon="5.62596">
        <ele>630</ele>
        <time>2022-10-19T08:00:23.410Z</time>
      </trkpt>
      <trkpt lat="43.53281" lon="5.62596">
        <ele>630</ele>
        <time>2022-10-19T08:00:24.410Z</time>
      </trkpt>
      <trkpt lat="43.53281" lon="5.62596">
        <ele>630</ele>
        <time>2022-10-19T08:00:25.410Z</time>
      </trkpt>
      <trkpt lat="43.53281" lon="5.62596">
        <ele>630</ele>
        <time>2022-10-19T08:00:26.410Z</time>
      </trkpt>
      <trkpt lat="43.53281" lon="5.62596">
        <ele>630</ele>
        <time>2022-10-19T08:00:27.410Z</time>
      </trkpt>
      <trkpt lat="43.53281" lon="5.62596">
        <ele>630</ele>
        <time>2022-10-19T08:00:28.410Z</time>
      </trkpt>
      <trkpt lat="43.53281" lon="5.62596">
        <ele>630</ele>
        <time>2022-10-19T08:00:29.410Z</time>
      </trkpt>
      <trkpt lat="43.53281" lon="5.62596">
        <ele>630</ele>
        <time>2022-10-19T08:00:30.410Z</time>
      </trkpt>
      <trkpt lat="43.53281" lon="5.62596">
        <ele>630</ele>
        <time>2022-10-19T08:00:31.410Z</time>
      </trkpt>
      <trkpt lat="43.53281" lon="5.62596">
        <ele>630</ele>
        <time>2022-10-19T08:00:32.410Z</time>
      </trkpt>
      <trkpt lat="43.53281" lon="5.62596">
        <ele>630</ele>
        <time>2022-10-19T08:00:33.410Z</time>
      </trkpt>
      <trkpt lat="43.53281" lon="5.62596">
        <ele>630</ele>
        <time>2022-10-19T08:00:34.410Z</time>
      </trkpt>
      <trkpt lat="43.53281" lon="5.62596">
        <ele>630</ele>
        <time>2022-10-19T08:00:35.410Z</time>
      </trkpt>
      <trkpt lat="43.53281" lon="5.62596">
        <ele>630</ele>
        <time>2022-10-19T08:00:36.410Z</time>
      </trkpt>
      <trkpt lat="43.53281" lon="5.62596">
        <ele>630</ele>
        <time>2022-10-19T08:00:37.410Z</time>
      </trkpt>
      <trkpt lat="43.53281" lon="5.62596">
        <ele>630</ele>
        <time>2022-10-19T08:00:38.410Z</time>
      </trkpt>
      <trkpt lat="43.53281" lon="5.62596">
        <ele>630</ele>
        <time>2022-10-19T08:00:39.410Z</time>
      </trkpt>
      <trkpt lat="43.53281" lon="5.62596">
        <ele>630</ele>
        <time>2022-10-19T08:00:40.410Z</time>
      </trkpt>
      <trkpt lat="43.53281" lon="5.62596">
        <ele>629</ele>
        <time>2022-10-19T08:00:41.410Z</time>
      </trkpt>
      <trkpt lat="43.53281" lon="5.62596">
        <ele>629</ele>
        <time>2022-10-19T08:00:42.410Z</time>
      </trkpt>
      <trkpt lat="43.53281" lon="5.62596">
        <ele>629</ele>
        <time>2022-10-19T08:00:43.410Z</time>
      </trkpt>
      <trkpt lat="43.53281" lon="5.62596">
        <ele>629</ele>
        <time>2022-10-19T08:00:44.410Z</time>
      </trkpt>
      <trkpt lat="43.53281" lon="5.62596">
        <ele>629</ele>
        <time>2022-10-19T08:00:45.410Z</time>
      </trkpt>
      <trkpt lat="43.53281" lon="5.62595">
        <ele>629</ele>
        <time>2022-10-19T08:00:46.410Z</time>
      </trkpt>
      <trkpt lat="43.53281" lon="5.62595">
        <ele>629</ele>
        <time>2022-10-19T08:00:47.410Z</time>
      </trkpt>
      <trkpt lat="43.53281" lon="5.62595">
        <ele>629</ele>
        <time>2022-10-19T08:00:48.410Z</time>
      </trkpt>
      <trkpt lat="43.53281" lon="5.62595">
        <ele>629</ele>
        <time>2022-10-19T08:00:49.410Z</time>
      </trkpt>
      <trkpt lat="43.53281" lon="5.62595">
        <ele>629</ele>
        <time>2022-10-19T08:00:50.410Z</time>
      </trkpt>
      <trkpt lat="43.53281" lon="5.62595">
        <ele>629</ele>
        <time>2022-10-19T08:00:51.410Z</time>
      </trkpt>
      <trkpt lat="43.53281" lon="5.62595">
        <ele>629</ele>
        <time>2022-10-19T08:00:52.410Z</time>
      </trkpt>
      <trkpt lat="43.53281" lon="5.62595">
        <ele>629</ele>
        <time>2022-10-19T08:00:53.410Z</time>
      </trkpt>
      <trkpt lat="43.53281" lon="5.62595">
        <ele>629</ele>
        <time>2022-10-19T08:00:54.410Z</time>
      </trkpt>
      <trkpt lat="43.53281" lon="5.62595">
        <ele>629</ele>
        <time>2022-10-19T08:00:55.410Z</time>
      </trkpt>
      <trkpt lat="43.53281" lon="5.62595">
        <ele>629</ele>
        <time>2022-10-19T08:00:56.410Z</time>
      </trkpt>
      <trkpt lat="43.53281" lon="5.62595">
        <ele>629</ele>
        <time>2022-10-19T08:00:57.410Z</time>
      </trkpt>
      <trkpt lat="43.53281" lon="5.62595">
        <ele>629</ele>
        <time>2022-10-19T08:00:58.410Z</time>
      </trkpt>
      <trkpt lat="43.53281" lon="5.62595">
        <ele>629</ele>
        <time>2022-10-19T08:00:59.410Z</time>
      </trkpt>
      <trkpt lat="43.53281" lon="5.62595">
        <ele>629</ele>
        <time>2022-10-19T08:01:00.410Z</time>
      </trkpt>
      <trkpt lat="43.53281" lon="5.62595">
        <ele>629</ele>
        <time>2022-10-19T08:01:01.410Z</time>
      </trkpt>
      <trkpt lat="43.53281" lon="5.62595">
        <ele>629</ele>
        <time>2022-10-19T08:01:02.410Z</time>
      </trkpt>
      <trkpt lat="43.53281" lon="5.62595">
        <ele>629</ele>
        <time>2022-10-19T08:01:03.410Z</time>
      </trkpt>
      <trkpt lat="43.53281" lon="5.62595">
        <ele>629</ele>
        <time>2022-10-19T08:01:04.410Z</time>
      </trkpt>
      <trkpt lat="43.53281" lon="5.62595">
        <ele>629</ele>
        <time>2022-10-19T08:01:05.410Z</time>
      </trkpt>
      <trkpt lat="43.53281" lon="5.62595">
        <ele>629</ele>
        <time>2022-10-19T08:01:06.410Z</time>
      </trkpt>
      <trkpt lat="43.53281" lon="5.62595">
        <ele>629</ele>
        <time>2022-10-19T08:01:07.410Z</time>
      </trkpt>
      <trkpt lat="43.53281" lon="5.62595">
        <ele>629</ele>
        <time>2022-10-19T08:01:08.410Z</time>
      </trkpt>
      <trkpt lat="43.53281" lon="5.62595">
        <ele>629</ele>
        <time>2022-10-19T08:01:09.410Z</time>
      </trkpt>
      <trkpt lat="43.53281" lon="5.62595">
        <ele>629</ele>
        <time>2022-10-19T08:01:10.410Z</time>
      </trkpt>
      <trkpt lat="43.5328" lon="5.62595">
        <ele>629</ele>
        <time>2022-10-19T08:01:11.410Z</time>
      </trkpt>
      <trkpt lat="43.5328" lon="5.62595">
        <ele>629</ele>
        <time>2022-10-19T08:01:12.410Z</time>
      </trkpt>
      <trkpt lat="43.5328" lon="5.62595">
        <ele>629</ele>
        <time>2022-10-19T08:01:13.410Z</time>
      </trkpt>
      <trkpt lat="43.5328" lon="5.62595">
        <ele>629</ele>
        <time>2022-10-19T08:01:14.410Z</time>
      </trkpt>
      <trkpt lat="43.5328" lon="5.62595">
        <ele>629</ele>
        <time>2022-10-19T08:01:15.410Z</time>
      </trkpt>
      <trkpt lat="43.5328" lon="5.62595">
        <ele>629</ele>
        <time>2022-10-19T08:01:16.410Z</time>
      </trkpt>
      <trkpt lat="43.53281" lon="5.62595">
        <ele>629</ele>
        <time>2022-10-19T08:01:17.410Z</time>
      </trkpt>
      <trkpt lat="43.53281" lon="5.62595">
        <ele>630</ele>
        <time>2022-10-19T08:01:18.410Z</time>
      </trkpt>
      <trkpt lat="43.53281" lon="5.62595">
        <ele>630</ele>
        <time>2022-10-19T08:01:19.410Z</time>
      </trkpt>
      <trkpt lat="43.53281" lon="5.62595">
        <ele>630</ele>
        <time>2022-10-19T08:01:20.410Z</time>
      </trkpt>
      <trkpt lat="43.53281" lon="5.62595">
        <ele>630</ele>
        <time>2022-10-19T08:01:21.410Z</time>
      </trkpt>
      <trkpt lat="43.53281" lon="5.62595">
        <ele>630</ele>
        <time>2022-10-19T08:01:22.410Z</time>
      </trkpt>
      <trkpt lat="43.53281" lon="5.62595">
        <ele>630</ele>
        <time>2022-10-19T08:01:23.410Z</time>
      </trkpt>
      <trkpt lat="43.53281" lon="5.62595">
        <ele>630</ele>
        <time>2022-10-19T08:01:24.410Z</time>
      </trkpt>
      <trkpt lat="43.53282" lon="5.62595">
        <ele>630</ele>
        <time>2022-10-19T08:01:25.410Z</time>
      </trkpt>
      <trkpt lat="43.53282" lon="5.62595">
        <ele>630</ele>
        <time>2022-10-19T08:01:26.410Z</time>
      </trkpt>
      <trkpt lat="43.53282" lon="5.62594">
        <ele>630</ele>
        <time>2022-10-19T08:01:27.410Z</time>
      </trkpt>
      <trkpt lat="43.53282" lon="5.62594">
        <ele>630</ele>
        <time>2022-10-19T08:01:28.410Z</time>
      </trkpt>
      <trkpt lat="43.53282" lon="5.62593">
        <ele>630</ele>
        <time>2022-10-19T08:01:29.410Z</time>
      </trkpt>
      <trkpt lat="43.53282" lon="5.62593">
        <ele>630</ele>
        <time>2022-10-19T08:01:30.410Z</time>
      </trkpt>
      <trkpt lat="43.53282" lon="5.62592">
        <ele>630</ele>
        <time>2022-10-19T08:01:31.410Z</time>
      </trkpt>
      <trkpt lat="43.53282" lon="5.62591">
        <ele>630</ele>
        <time>2022-10-19T08:01:32.410Z</time>
      </trkpt>
      <trkpt lat="43.53282" lon="5.62591">
        <ele>631</ele>
        <time>2022-10-19T08:01:33.410Z</time>
      </trkpt>
      <trkpt lat="43.53282" lon="5.62591">
        <ele>631</ele>
        <time>2022-10-19T08:01:34.410Z</time>
      </trkpt>
      <trkpt lat="43.53282" lon="5.6259">
        <ele>631</ele>
        <time>2022-10-19T08:01:35.410Z</time>
      </trkpt>
      <trkpt lat="43.53282" lon="5.6259">
        <ele>631</ele>
        <time>2022-10-19T08:01:36.410Z</time>
      </trkpt>
      <trkpt lat="43.53282" lon="5.6259">
        <ele>631</ele>
        <time>2022-10-19T08:01:37.410Z</time>
      </trkpt>
      <trkpt lat="43.53282" lon="5.62589">
        <ele>631</ele>
        <time>2022-10-19T08:01:38.410Z</time>
      </trkpt>
      <trkpt lat="43.53282" lon="5.62589">
        <ele>631</ele>
        <time>2022-10-19T08:01:39.410Z</time>
      </trkpt>
      <trkpt lat="43.53282" lon="5.62588">
        <ele>632</ele>
        <time>2022-10-19T08:01:40.410Z</time>
      </trkpt>
      <trkpt lat="43.53282" lon="5.62587">
        <ele>632</ele>
        <time>2022-10-19T08:01:41.410Z</time>
      </trkpt>
      <trkpt lat="43.53282" lon="5.62587">
        <ele>632</ele>
        <time>2022-10-19T08:01:42.410Z</time>
      </trkpt>
      <trkpt lat="43.53282" lon="5.62586">
        <ele>632</ele>
        <time>2022-10-19T08:01:43.410Z</time>
      </trkpt>
      <trkpt lat="43.53282" lon="5.62585">
        <ele>632</ele>
        <time>2022-10-19T08:01:44.410Z</time>
      </trkpt>
      <trkpt lat="43.53281" lon="5.62585">
        <ele>632</ele>
        <time>2022-10-19T08:01:45.410Z</time>
      </trkpt>
      <trkpt lat="43.53281" lon="5.62584">
        <ele>633</ele>
        <time>2022-10-19T08:01:46.410Z</time>
      </trkpt>
      <trkpt lat="43.53281" lon="5.62583">
        <ele>633</ele>
        <time>2022-10-19T08:01:47.410Z</time>
      </trkpt>
      <trkpt lat="43.53281" lon="5.62582">
        <ele>633</ele>
        <time>2022-10-19T08:01:48.410Z</time>
      </trkpt>
      <trkpt lat="43.53281" lon="5.62582">
        <ele>633</ele>
        <time>2022-10-19T08:01:49.410Z</time>
      </trkpt>
      <trkpt lat="43.53281" lon="5.62581">
        <ele>634</ele>
        <time>2022-10-19T08:01:50.410Z</time>
      </trkpt>
      <trkpt lat="43.53281" lon="5.62581">
        <ele>634</ele>
        <time>2022-10-19T08:01:51.410Z</time>
      </trkpt>
      <trkpt lat="43.53281" lon="5.6258">
        <ele>634</ele>
        <time>2022-10-19T08:01:52.410Z</time>
      </trkpt>
      <trkpt lat="43.53282" lon="5.6258">
        <ele>634</ele>
        <time>2022-10-19T08:01:53.410Z</time>
      </trkpt>
      <trkpt lat="43.53282" lon="5.62579">
        <ele>634</ele>
        <time>2022-10-19T08:01:54.410Z</time>
      </trkpt>
      <trkpt lat="43.53282" lon="5.62579">
        <ele>635</ele>
        <time>2022-10-19T08:01:55.410Z</time>
      </trkpt>
      <trkpt lat="43.53282" lon="5.62578">
        <ele>635</ele>
        <time>2022-10-19T08:01:56.410Z</time>
      </trkpt>
      <trkpt lat="43.53282" lon="5.62578">
        <ele>635</ele>
        <time>2022-10-19T08:01:57.410Z</time>
      </trkpt>
      <trkpt lat="43.53282" lon="5.62577">
        <ele>635</ele>
        <time>2022-10-19T08:01:58.410Z</time>
      </trkpt>
      <trkpt lat="43.53282" lon="5.62577">
        <ele>635</ele>
        <time>2022-10-19T08:01:59.410Z</time>
      </trkpt>
      <trkpt lat="43.53282" lon="5.62576">
        <ele>636</ele>
        <time>2022-10-19T08:02:00.410Z</time>
      </trkpt>
      <trkpt lat="43.53282" lon="5.62575">
        <ele>636</ele>
        <time>2022-10-19T08:02:01.410Z</time>
      </trkpt>
      <trkpt lat="43.53282" lon="5.62575">
        <ele>636</ele>
        <time>2022-10-19T08:02:02.410Z</time>
      </trkpt>
      <trkpt lat="43.53282" lon="5.62574">
        <ele>636</ele>
        <time>2022-10-19T08:02:03.410Z</time>
      </trkpt>
      <trkpt lat="43.53282" lon="5.62574">
        <ele>637</ele>
        <time>2022-10-19T08:02:04.410Z</time>
      </trkpt>
      <trkpt lat="43.53282" lon="5.62573">
        <ele>637</ele>
        <time>2022-10-19T08:02:05.410Z</time>
      </trkpt>
      <trkpt lat="43.53281" lon="5.62572">
        <ele>637</ele>
        <time>2022-10-19T08:02:06.410Z</time>
      </trkpt>
      <trkpt lat="43.53281" lon="5.62572">
        <ele>637</ele>
        <time>2022-10-19T08:02:07.410Z</time>
      </trkpt>
      <trkpt lat="43.53281" lon="5.62571">
        <ele>638</ele>
        <time>2022-10-19T08:02:08.410Z</time>
      </trkpt>
      <trkpt lat="43.53281" lon="5.6257">
        <ele>638</ele>
        <time>2022-10-19T08:02:09.410Z</time>
      </trkpt>
      <trkpt lat="43.53281" lon="5.6257">
        <ele>638</ele>
        <time>2022-10-19T08:02:10.410Z</time>
      </trkpt>
      <trkpt lat="43.53281" lon="5.62569">
        <ele>638</ele>
        <time>2022-10-19T08:02:11.410Z</time>
      </trkpt>
      <trkpt lat="43.53281" lon="5.62568">
        <ele>638</ele>
        <time>2022-10-19T08:02:12.410Z</time>
      </trkpt>
      <trkpt lat="43.53281" lon="5.62567">
        <ele>639</ele>
        <time>2022-10-19T08:02:13.410Z</time>
      </trkpt>
      <trkpt lat="43.53281" lon="5.62567">
        <ele>639</ele>
        <time>2022-10-19T08:02:14.410Z</time>
      </trkpt>
      <trkpt lat="43.53281" lon="5.62566">
        <ele>639</ele>
        <time>2022-10-19T08:02:15.410Z</time>
      </trkpt>
      <trkpt lat="43.53281" lon="5.62565">
        <ele>639</ele>
        <time>2022-10-19T08:02:16.410Z</time>
      </trkpt>
      <trkpt lat="43.53281" lon="5.62565">
        <ele>639</ele>
        <time>2022-10-19T08:02:17.410Z</time>
      </trkpt>
      <trkpt lat="43.5328" lon="5.62564">
        <ele>639</ele>
        <time>2022-10-19T08:02:18.410Z</time>
      </trkpt>
      <trkpt lat="43.5328" lon="5.62563">
        <ele>640</ele>
        <time>2022-10-19T08:02:19.410Z</time>
      </trkpt>
      <trkpt lat="43.5328" lon="5.62562">
        <ele>640</ele>
        <time>2022-10-19T08:02:20.410Z</time>
      </trkpt>
      <trkpt lat="43.5328" lon="5.62561">
        <ele>640</ele>
        <time>2022-10-19T08:02:21.410Z</time>
      </trkpt>
      <trkpt lat="43.5328" lon="5.6256">
        <ele>640</ele>
        <time>2022-10-19T08:02:22.410Z</time>
      </trkpt>
      <trkpt lat="43.53279" lon="5.62558">
        <ele>640</ele>
        <time>2022-10-19T08:02:23.410Z</time>
      </trkpt>
      <trkpt lat="43.53279" lon="5.62557">
        <ele>640</ele>
        <time>2022-10-19T08:02:24.410Z</time>
      </trkpt>
      <trkpt lat="43.53279" lon="5.62556">
        <ele>640</ele>
        <time>2022-10-19T08:02:25.410Z</time>
      </trkpt>
      <trkpt lat="43.53279" lon="5.62555">
        <ele>641</ele>
        <time>2022-10-19T08:02:26.410Z</time>
      </trkpt>
      <trkpt lat="43.53279" lon="5.62555">
        <ele>641</ele>
        <time>2022-10-19T08:02:27.410Z</time>
      </trkpt>
      <trkpt lat="43.53279" lon="5.62554">
        <ele>641</ele>
        <time>2022-10-19T08:02:28.410Z</time>
      </trkpt>
      <trkpt lat="43.53279" lon="5.62553">
        <ele>641</ele>
        <time>2022-10-19T08:02:29.410Z</time>
      </trkpt>
      <trkpt lat="43.53279" lon="5.62552">
        <ele>641</ele>
        <time>2022-10-19T08:02:30.410Z</time>
      </trkpt>
      <trkpt lat="43.53279" lon="5.62551">
        <ele>641</ele>
        <time>2022-10-19T08:02:31.410Z</time>
      </trkpt>
      <trkpt lat="43.53279" lon="5.6255">
        <ele>641</ele>
        <time>2022-10-19T08:02:32.410Z</time>
      </trkpt>
      <trkpt lat="43.53279" lon="5.62549">
        <ele>641</ele>
        <time>2022-10-19T08:02:33.410Z</time>
      </trkpt>
      <trkpt lat="43.53279" lon="5.62549">
        <ele>641</ele>
        <time>2022-10-19T08:02:34.410Z</time>
      </trkpt>
      <trkpt lat="43.5328" lon="5.62548">
        <ele>641</ele>
        <time>2022-10-19T08:02:35.410Z</time>
      </trkpt>
      <trkpt lat="43.5328" lon="5.62547">
        <ele>641</ele>
        <time>2022-10-19T08:02:36.410Z</time>
      </trkpt>
      <trkpt lat="43.5328" lon="5.62546">
        <ele>641</ele>
        <time>2022-10-19T08:02:37.410Z</time>
      </trkpt>
      <trkpt lat="43.5328" lon="5.62545">
        <ele>641</ele>
        <time>2022-10-19T08:02:38.410Z</time>
      </trkpt>
      <trkpt lat="43.5328" lon="5.62545">
        <ele>642</ele>
        <time>2022-10-19T08:02:39.410Z</time>
      </trkpt>
      <trkpt lat="43.5328" lon="5.62544">
        <ele>642</ele>
        <time>2022-10-19T08:02:40.410Z</time>
      </trkpt>
      <trkpt lat="43.5328" lon="5.62543">
        <ele>642</ele>
        <time>2022-10-19T08:02:41.410Z</time>
      </trkpt>
      <trkpt lat="43.5328" lon="5.62543">
        <ele>642</ele>
        <time>2022-10-19T08:02:42.410Z</time>
      </trkpt>
      <trkpt lat="43.5328" lon="5.62542">
        <ele>642</ele>
        <time>2022-10-19T08:02:43.410Z</time>
      </trkpt>
      <trkpt lat="43.5328" lon="5.62541">
        <ele>642</ele>
        <time>2022-10-19T08:02:44.410Z</time>
      </trkpt>
      <trkpt lat="43.53281" lon="5.62541">
        <ele>642</ele>
        <time>2022-10-19T08:02:45.410Z</time>
      </trkpt>
      <trkpt lat="43.53281" lon="5.6254">
        <ele>642</ele>
        <time>2022-10-19T08:02:46.410Z</time>
      </trkpt>
      <trkpt lat="43.53281" lon="5.6254">
        <ele>642</ele>
        <time>2022-10-19T08:02:47.410Z</time>
      </trkpt>
      <trkpt lat="43.53281" lon="5.62539">
        <ele>643</ele>
        <time>2022-10-19T08:02:48.410Z</time>
      </trkpt>
      <trkpt lat="43.53282" lon="5.62538">
        <ele>643</ele>
        <time>2022-10-19T08:02:49.410Z</time>
      </trkpt>
      <trkpt lat="43.53282" lon="5.62538">
        <ele>643</ele>
        <time>2022-10-19T08:02:50.410Z</time>
      </trkpt>
      <trkpt lat="43.53282" lon="5.62537">
        <ele>643</ele>
        <time>2022-10-19T08:02:51.410Z</time>
      </trkpt>
      <trkpt lat="43.53282" lon="5.62537">
        <ele>643</ele>
        <time>2022-10-19T08:02:52.410Z</time>
      </trkpt>
      <trkpt lat="43.53282" lon="5.62536">
        <ele>643</ele>
        <time>2022-10-19T08:02:53.410Z</time>
      </trkpt>
      <trkpt lat="43.53282" lon="5.62536">
        <ele>643</ele>
        <time>2022-10-19T08:02:54.410Z</time>
      </trkpt>
      <trkpt lat="43.53283" lon="5.62535">
        <ele>644</ele>
        <time>2022-10-19T08:02:55.410Z</time>
      </trkpt>
      <trkpt lat="43.53283" lon="5.62534">
        <ele>644</ele>
        <time>2022-10-19T08:02:56.410Z</time>
      </trkpt>
      <trkpt lat="43.53283" lon="5.62534">
        <ele>644</ele>
        <time>2022-10-19T08:02:57.410Z</time>
      </trkpt>
      <trkpt lat="43.53283" lon="5.62533">
        <ele>644</ele>
        <time>2022-10-19T08:02:58.410Z</time>
      </trkpt>
      <trkpt lat="43.53283" lon="5.62533">
        <ele>644</ele>
        <time>2022-10-19T08:02:59.410Z</time>
      </trkpt>
      <trkpt lat="43.53283" lon="5.62532">
        <ele>644</ele>
        <time>2022-10-19T08:03:00.410Z</time>
      </trkpt>
      <trkpt lat="43.53284" lon="5.62532">
        <ele>644</ele>
        <time>2022-10-19T08:03:01.410Z</time>
      </trkpt>
      <trkpt lat="43.53284" lon="5.62531">
        <ele>645</ele>
        <time>2022-10-19T08:03:02.410Z</time>
      </trkpt>
      <trkpt lat="43.53284" lon="5.62531">
        <ele>645</ele>
        <time>2022-10-19T08:03:03.410Z</time>
      </trkpt>
      <trkpt lat="43.53284" lon="5.62531">
        <ele>645</ele>
        <time>2022-10-19T08:03:04.410Z</time>
      </trkpt>
      <trkpt lat="43.53285" lon="5.62531">
        <ele>645</ele>
        <time>2022-10-19T08:03:05.410Z</time>
      </trkpt>
      <trkpt lat="43.53285" lon="5.62532">
        <ele>645</ele>
        <time>2022-10-19T08:03:06.410Z</time>
      </trkpt>
      <trkpt lat="43.53285" lon="5.62532">
        <ele>645</ele>
        <time>2022-10-19T08:03:07.410Z</time>
      </trkpt>
      <trkpt lat="43.53286" lon="5.62532">
        <ele>646</ele>
        <time>2022-10-19T08:03:08.410Z</time>
      </trkpt>
      <trkpt lat="43.53286" lon="5.62532">
        <ele>646</ele>
        <time>2022-10-19T08:03:09.410Z</time>
      </trkpt>
      <trkpt lat="43.53286" lon="5.62533">
        <ele>646</ele>
        <time>2022-10-19T08:03:10.410Z</time>
      </trkpt>
      <trkpt lat="43.53286" lon="5.62533">
        <ele>646</ele>
        <time>2022-10-19T08:03:11.410Z</time>
      </trkpt>
      <trkpt lat="43.53286" lon="5.62534">
        <ele>646</ele>
        <time>2022-10-19T08:03:12.410Z</time>
      </trkpt>
      <trkpt lat="43.53286" lon="5.62534">
        <ele>646</ele>
        <time>2022-10-19T08:03:13.410Z</time>
      </trkpt>
      <trkpt lat="43.53287" lon="5.62534">
        <ele>646</ele>
        <time>2022-10-19T08:03:14.410Z</time>
      </trkpt>
      <trkpt lat="43.53287" lon="5.62534">
        <ele>646</ele>
        <time>2022-10-19T08:03:15.410Z</time>
      </trkpt>
      <trkpt lat="43.53287" lon="5.62535">
        <ele>647</ele>
        <time>2022-10-19T08:03:16.410Z</time>
      </trkpt>
      <trkpt lat="43.53288" lon="5.62535">
        <ele>647</ele>
        <time>2022-10-19T08:03:17.410Z</time>
      </trkpt>
      <trkpt lat="43.53288" lon="5.62536">
        <ele>647</ele>
        <time>2022-10-19T08:03:18.410Z</time>
      </trkpt>
      <trkpt lat="43.53288" lon="5.62537">
        <ele>647</ele>
        <time>2022-10-19T08:03:19.410Z</time>
      </trkpt>
      <trkpt lat="43.53288" lon="5.62537">
        <ele>647</ele>
        <time>2022-10-19T08:03:20.410Z</time>
      </trkpt>
      <trkpt lat="43.53289" lon="5.62538">
        <ele>647</ele>
        <time>2022-10-19T08:03:21.410Z</time>
      </trkpt>
      <trkpt lat="43.53289" lon="5.62539">
        <ele>647</ele>
        <time>2022-10-19T08:03:22.410Z</time>
      </trkpt>
      <trkpt lat="43.53289" lon="5.62539">
        <ele>647</ele>
        <time>2022-10-19T08:03:23.410Z</time>
      </trkpt>
      <trkpt lat="43.5329" lon="5.62539">
        <ele>647</ele>
        <time>2022-10-19T08:03:24.410Z</time>
      </trkpt>
      <trkpt lat="43.5329" lon="5.62539">
        <ele>648</ele>
        <time>2022-10-19T08:03:25.410Z</time>
      </trkpt>
      <trkpt lat="43.5329" lon="5.6254">
        <ele>648</ele>
        <time>2022-10-19T08:03:26.410Z</time>
      </trkpt>
      <trkpt lat="43.53291" lon="5.6254">
        <ele>648</ele>
        <time>2022-10-19T08:03:27.410Z</time>
      </trkpt>
      <trkpt lat="43.53291" lon="5.6254">
        <ele>648</ele>
        <time>2022-10-19T08:03:28.410Z</time>
      </trkpt>
      <trkpt lat="43.53292" lon="5.62541">
        <ele>648</ele>
        <time>2022-10-19T08:03:29.410Z</time>
      </trkpt>
      <trkpt lat="43.53292" lon="5.62541">
        <ele>648</ele>
        <time>2022-10-19T08:03:30.410Z</time>
      </trkpt>
      <trkpt lat="43.53292" lon="5.62542">
        <ele>648</ele>
        <time>2022-10-19T08:03:31.410Z</time>
      </trkpt>
      <trkpt lat="43.53293" lon="5.62542">
        <ele>648</ele>
        <time>2022-10-19T08:03:32.410Z</time>
      </trkpt>
      <trkpt lat="43.53293" lon="5.62543">
        <ele>648</ele>
        <time>2022-10-19T08:03:33.410Z</time>
      </trkpt>
      <trkpt lat="43.53293" lon="5.62543">
        <ele>649</ele>
        <time>2022-10-19T08:03:34.410Z</time>
      </trkpt>
      <trkpt lat="43.53294" lon="5.62544">
        <ele>649</ele>
        <time>2022-10-19T08:03:35.410Z</time>
      </trkpt>
      <trkpt lat="43.53295" lon="5.62544">
        <ele>649</ele>
        <time>2022-10-19T08:03:36.410Z</time>
      </trkpt>
      <trkpt lat="43.53295" lon="5.62545">
        <ele>649</ele>
        <time>2022-10-19T08:03:37.410Z</time>
      </trkpt>
      <trkpt lat="43.53295" lon="5.62545">
        <ele>649</ele>
        <time>2022-10-19T08:03:38.410Z</time>
      </trkpt>
      <trkpt lat="43.53296" lon="5.62546">
        <ele>649</ele>
        <time>2022-10-19T08:03:39.410Z</time>
      </trkpt>
      <trkpt lat="43.53296" lon="5.62546">
        <ele>649</ele>
        <time>2022-10-19T08:03:40.410Z</time>
      </trkpt>
      <trkpt lat="43.53296" lon="5.62546">
        <ele>649</ele>
        <time>2022-10-19T08:03:41.410Z</time>
      </trkpt>
      <trkpt lat="43.53296" lon="5.62546">
        <ele>650</ele>
        <time>2022-10-19T08:03:42.410Z</time>
      </trkpt>
      <trkpt lat="43.53297" lon="5.62546">
        <ele>650</ele>
        <time>2022-10-19T08:03:43.410Z</time>
      </trkpt>
      <trkpt lat="43.53297" lon="5.62546">
        <ele>650</ele>
        <time>2022-10-19T08:03:44.410Z</time>
      </trkpt>
      <trkpt lat="43.53297" lon="5.62546">
        <ele>650</ele>
        <time>2022-10-19T08:03:45.410Z</time>
      </trkpt>
      <trkpt lat="43.53297" lon="5.62545">
        <ele>650</ele>
        <time>2022-10-19T08:03:46.410Z</time>
      </trkpt>
      <trkpt lat="43.53297" lon="5.62545">
        <ele>650</ele>
        <time>2022-10-19T08:03:47.410Z</time>
      </trkpt>
      <trkpt lat="43.53297" lon="5.62544">
        <ele>650</ele>
        <time>2022-10-19T08:03:48.410Z</time>
      </trkpt>
      <trkpt lat="43.53297" lon="5.62543">
        <ele>650</ele>
        <time>2022-10-19T08:03:49.410Z</time>
      </trkpt>
      <trkpt lat="43.53297" lon="5.62542">
        <ele>650</ele>
        <time>2022-10-19T08:03:50.410Z</time>
      </trkpt>
      <trkpt lat="43.53297" lon="5.62542">
        <ele>651</ele>
        <time>2022-10-19T08:03:51.410Z</time>
      </trkpt>
      <trkpt lat="43.53297" lon="5.62541">
        <ele>651</ele>
        <time>2022-10-19T08:03:52.410Z</time>
      </trkpt>
      <trkpt lat="43.53297" lon="5.6254">
        <ele>651</ele>
        <time>2022-10-19T08:03:53.410Z</time>
      </trkpt>
      <trkpt lat="43.53297" lon="5.6254">
        <ele>651</ele>
        <time>2022-10-19T08:03:54.410Z</time>
      </trkpt>
      <trkpt lat="43.53297" lon="5.62539">
        <ele>652</ele>
        <time>2022-10-19T08:03:55.410Z</time>
      </trkpt>
      <trkpt lat="43.53297" lon="5.62539">
        <ele>652</ele>
        <time>2022-10-19T08:03:56.410Z</time>
      </trkpt>
      <trkpt lat="43.53297" lon="5.62538">
        <ele>652</ele>
        <time>2022-10-19T08:03:57.410Z</time>
      </trkpt>
      <trkpt lat="43.53297" lon="5.62539">
        <ele>652</ele>
        <time>2022-10-19T08:03:58.410Z</time>
      </trkpt>
      <trkpt lat="43.53296" lon="5.62539">
        <ele>652</ele>
        <time>2022-10-19T08:03:59.410Z</time>
      </trkpt>
      <trkpt lat="43.53296" lon="5.62539">
        <ele>652</ele>
        <time>2022-10-19T08:04:00.410Z</time>
      </trkpt>
      <trkpt lat="43.53296" lon="5.62539">
        <ele>653</ele>
        <time>2022-10-19T08:04:01.410Z</time>
      </trkpt>
      <trkpt lat="43.53296" lon="5.62539">
        <ele>653</ele>
        <time>2022-10-19T08:04:02.410Z</time>
      </trkpt>
      <trkpt lat="43.53296" lon="5.62539">
        <ele>653</ele>
        <time>2022-10-19T08:04:03.410Z</time>
      </trkpt>
      <trkpt lat="43.53296" lon="5.62539">
        <ele>653</ele>
        <time>2022-10-19T08:04:04.410Z</time>
      </trkpt>
      <trkpt lat="43.53296" lon="5.62539">
        <ele>653</ele>
        <time>2022-10-19T08:04:05.410Z</time>
      </trkpt>
      <trkpt lat="43.53296" lon="5.62539">
        <ele>653</ele>
        <time>2022-10-19T08:04:06.410Z</time>
      </trkpt>
      <trkpt lat="43.53296" lon="5.62539">
        <ele>653</ele>
        <time>2022-10-19T08:04:07.410Z</time>
      </trkpt>
      <trkpt lat="43.53296" lon="5.62539">
        <ele>653</ele>
        <time>2022-10-19T08:04:08.410Z</time>
      </trkpt>
      <trkpt lat="43.53296" lon="5.62539">
        <ele>653</ele>
        <time>2022-10-19T08:04:09.410Z</time>
      </trkpt>
      <trkpt lat="43.53296" lon="5.62539">
        <ele>653</ele>
        <time>2022-10-19T08:04:10.410Z</time>
      </trkpt>
      <trkpt lat="43.53296" lon="5.62539">
        <ele>653</ele>
        <time>2022-10-19T08:04:11.410Z</time>
      </trkpt>
      <trkpt lat="43.53296" lon="5.62539">
        <ele>653</ele>
        <time>2022-10-19T08:04:12.410Z</time>
      </trkpt>
      <trkpt lat="43.53296" lon="5.62539">
        <ele>653</ele>
        <time>2022-10-19T08:04:13.410Z</time>
      </trkpt>
      <trkpt lat="43.53296" lon="5.62539">
        <ele>654</ele>
        <time>2022-10-19T08:04:14.410Z</time>
      </trkpt>
      <trkpt lat="43.53296" lon="5.62538">
        <ele>654</ele>
        <time>2022-10-19T08:04:15.410Z</time>
      </trkpt>
      <trkpt lat="43.53296" lon="5.62538">
        <ele>654</ele>
        <time>2022-10-19T08:04:16.410Z</time>
      </trkpt>
      <trkpt lat="43.53296" lon="5.62538">
        <ele>654</ele>
        <time>2022-10-19T08:04:17.410Z</time>
      </trkpt>
      <trkpt lat="43.53296" lon="5.62538">
        <ele>654</ele>
        <time>2022-10-19T08:04:18.410Z</time>
      </trkpt>
      <trkpt lat="43.53296" lon="5.62538">
        <ele>654</ele>
        <time>2022-10-19T08:04:19.410Z</time>
      </trkpt>
      <trkpt lat="43.53296" lon="5.62538">
        <ele>654</ele>
        <time>2022-10-19T08:04:20.410Z</time>
      </trkpt>
      <trkpt lat="43.53296" lon="5.62538">
        <ele>654</ele>
        <time>2022-10-19T08:04:21.410Z</time>
      </trkpt>
      <trkpt lat="43.53296" lon="5.62538">
        <ele>654</ele>
        <time>2022-10-19T08:04:22.410Z</time>
      </trkpt>
      <trkpt lat="43.53296" lon="5.62538">
        <ele>654</ele>
        <time>2022-10-19T08:04:23.410Z</time>
      </trkpt>
      <trkpt lat="43.53296" lon="5.62538">
        <ele>654</ele>
        <time>2022-10-19T08:04:24.410Z</time>
      </trkpt>
      <trkpt lat="43.53296" lon="5.62538">
        <ele>654</ele>
        <time>2022-10-19T08:04:25.410Z</time>
      </trkpt>
      <trkpt lat="43.53296" lon="5.62538">
        <ele>654</ele>
        <time>2022-10-19T08:04:26.410Z</time>
      </trkpt>
      <trkpt lat="43.53296" lon="5.62539">
        <ele>654</ele>
        <time>2022-10-19T08:04:27.410Z</time>
      </trkpt>
      <trkpt lat="43.53296" lon="5.62539">
        <ele>654</ele>
        <time>2022-10-19T08:04:28.410Z</time>
      </trkpt>
      <trkpt lat="43.53296" lon="5.62539">
        <ele>654</ele>
        <time>2022-10-19T08:04:29.410Z</time>
      </trkpt>
      <trkpt lat="43.53296" lon="5.62539">
        <ele>654</ele>
        <time>2022-10-19T08:04:30.410Z</time>
      </trkpt>
      <trkpt lat="43.53296" lon="5.62539">
        <ele>654</ele>
        <time>2022-10-19T08:04:31.410Z</time>
      </trkpt>
      <trkpt lat="43.53296" lon="5.62539">
        <ele>654</ele>
        <time>2022-10-19T08:04:32.410Z</time>
      </trkpt>
      <trkpt lat="43.53296" lon="5.62539">
        <ele>654</ele>
        <time>2022-10-19T08:04:33.410Z</time>
      </trkpt>
      <trkpt lat="43.53296" lon="5.62539">
        <ele>654</ele>
        <time>2022-10-19T08:04:34.410Z</time>
      </trkpt>
      <trkpt lat="43.53296" lon="5.62539">
        <ele>654</ele>
        <time>2022-10-19T08:04:35.410Z</time>
      </trkpt>
      <trkpt lat="43.53296" lon="5.62539">
        <ele>654</ele>
        <time>2022-10-19T08:04:36.410Z</time>
      </trkpt>
      <trkpt lat="43.53296" lon="5.62539">
        <ele>654</ele>
        <time>2022-10-19T08:04:37.410Z</time>
      </trkpt>
      <trkpt lat="43.53296" lon="5.62538">
        <ele>655</ele>
        <time>2022-10-19T08:04:38.410Z</time>
      </trkpt>
      <trkpt lat="43.53296" lon="5.62538">
        <ele>655</ele>
        <time>2022-10-19T08:04:39.410Z</time>
      </trkpt>
      <trkpt lat="43.53296" lon="5.62538">
        <ele>655</ele>
        <time>2022-10-19T08:04:40.410Z</time>
      </trkpt>
      <trkpt lat="43.53296" lon="5.62538">
        <ele>655</ele>
        <time>2022-10-19T08:04:41.410Z</time>
      </trkpt>
      <trkpt lat="43.53296" lon="5.62537">
        <ele>655</ele>
        <time>2022-10-19T08:04:42.410Z</time>
      </trkpt>
      <trkpt lat="43.53296" lon="5.62536">
        <ele>655</ele>
        <time>2022-10-19T08:04:43.410Z</time>
      </trkpt>
      <trkpt lat="43.53296" lon="5.62536">
        <ele>655</ele>
        <time>2022-10-19T08:04:44.410Z</time>
      </trkpt>
      <trkpt lat="43.53296" lon="5.62535">
        <ele>655</ele>
        <time>2022-10-19T08:04:45.410Z</time>
      </trkpt>
      <trkpt lat="43.53296" lon="5.62534">
        <ele>655</ele>
        <time>2022-10-19T08:04:46.410Z</time>
      </trkpt>
      <trkpt lat="43.53296" lon="5.62533">
        <ele>655</ele>
        <time>2022-10-19T08:04:47.410Z</time>
      </trkpt>
      <trkpt lat="43.53296" lon="5.62533">
        <ele>655</ele>
        <time>2022-10-19T08:04:48.410Z</time>
      </trkpt>
      <trkpt lat="43.53297" lon="5.62532">
        <ele>655</ele>
        <time>2022-10-19T08:04:49.410Z</time>
      </trkpt>
      <trkpt lat="43.53297" lon="5.62532">
        <ele>655</ele>
        <time>2022-10-19T08:04:50.410Z</time>
      </trkpt>
      <trkpt lat="43.53297" lon="5.62531">
        <ele>655</ele>
        <time>2022-10-19T08:04:51.410Z</time>
      </trkpt>
      <trkpt lat="43.53297" lon="5.62531">
        <ele>655</ele>
        <time>2022-10-19T08:04:52.410Z</time>
      </trkpt>
      <trkpt lat="43.53297" lon="5.6253">
        <ele>655</ele>
        <time>2022-10-19T08:04:53.410Z</time>
      </trkpt>
      <trkpt lat="43.53297" lon="5.6253">
        <ele>655</ele>
        <time>2022-10-19T08:04:54.410Z</time>
      </trkpt>
      <trkpt lat="43.53297" lon="5.62529">
        <ele>655</ele>
        <time>2022-10-19T08:04:55.410Z</time>
      </trkpt>
      <trkpt lat="43.53298" lon="5.62528">
        <ele>655</ele>
        <time>2022-10-19T08:04:56.410Z</time>
      </trkpt>
      <trkpt lat="43.53298" lon="5.62527">
        <ele>655</ele>
        <time>2022-10-19T08:04:57.410Z</time>
      </trkpt>
      <trkpt lat="43.53298" lon="5.62527">
        <ele>656</ele>
        <time>2022-10-19T08:04:58.410Z</time>
      </trkpt>
      <trkpt lat="43.53298" lon="5.62526">
        <ele>656</ele>
        <time>2022-10-19T08:04:59.410Z</time>
      </trkpt>
      <trkpt lat="43.53298" lon="5.62526">
        <ele>656</ele>
        <time>2022-10-19T08:05:00.410Z</time>
      </trkpt>
      <trkpt lat="43.53299" lon="5.62525">
        <ele>656</ele>
        <time>2022-10-19T08:05:01.410Z</time>
      </trkpt>
      <trkpt lat="43.53299" lon="5.62524">
        <ele>656</ele>
        <time>2022-10-19T08:05:02.410Z</time>
      </trkpt>
      <trkpt lat="43.53299" lon="5.62524">
        <ele>656</ele>
        <time>2022-10-19T08:05:03.410Z</time>
      </trkpt>
      <trkpt lat="43.53299" lon="5.62523">
        <ele>656</ele>
        <time>2022-10-19T08:05:04.410Z</time>
      </trkpt>
      <trkpt lat="43.53299" lon="5.62523">
        <ele>656</ele>
        <time>2022-10-19T08:05:05.410Z</time>
      </trkpt>
      <trkpt lat="43.533" lon="5.62522">
        <ele>656</ele>
        <time>2022-10-19T08:05:06.410Z</time>
      </trkpt>
      <trkpt lat="43.533" lon="5.62521">
        <ele>656</ele>
        <time>2022-10-19T08:05:07.410Z</time>
      </trkpt>
      <trkpt lat="43.533" lon="5.62521">
        <ele>657</ele>
        <time>2022-10-19T08:05:08.410Z</time>
      </trkpt>
      <trkpt lat="43.533" lon="5.6252">
        <ele>657</ele>
        <time>2022-10-19T08:05:09.410Z</time>
      </trkpt>
      <trkpt lat="43.53301" lon="5.62519">
        <ele>657</ele>
        <time>2022-10-19T08:05:10.410Z</time>
      </trkpt>
      <trkpt lat="43.53301" lon="5.62519">
        <ele>657</ele>
        <time>2022-10-19T08:05:11.410Z</time>
      </trkpt>
      <trkpt lat="43.53301" lon="5.62518">
        <ele>657</ele>
        <time>2022-10-19T08:05:12.410Z</time>
      </trkpt>
      <trkpt lat="43.53301" lon="5.62518">
        <ele>657</ele>
        <time>2022-10-19T08:05:13.410Z</time>
      </trkpt>
      <trkpt lat="43.53301" lon="5.62517">
        <ele>657</ele>
        <time>2022-10-19T08:05:14.410Z</time>
      </trkpt>
      <trkpt lat="43.53302" lon="5.62517">
        <ele>658</ele>
        <time>2022-10-19T08:05:15.410Z</time>
      </trkpt>
      <trkpt lat="43.53302" lon="5.62516">
        <ele>658</ele>
        <time>2022-10-19T08:05:16.410Z</time>
      </trkpt>
      <trkpt lat="43.53302" lon="5.62516">
        <ele>658</ele>
        <time>2022-10-19T08:05:17.410Z</time>
      </trkpt>
      <trkpt lat="43.53302" lon="5.62515">
        <ele>658</ele>
        <time>2022-10-19T08:05:18.410Z</time>
      </trkpt>
      <trkpt lat="43.53302" lon="5.62515">
        <ele>658</ele>
        <time>2022-10-19T08:05:19.410Z</time>
      </trkpt>
      <trkpt lat="43.53302" lon="5.62514">
        <ele>658</ele>
        <time>2022-10-19T08:05:20.410Z</time>
      </trkpt>
      <trkpt lat="43.53302" lon="5.62513">
        <ele>658</ele>
        <time>2022-10-19T08:05:21.410Z</time>
      </trkpt>
      <trkpt lat="43.53302" lon="5.62512">
        <ele>658</ele>
        <time>2022-10-19T08:05:22.410Z</time>
      </trkpt>
      <trkpt lat="43.53302" lon="5.62511">
        <ele>658</ele>
        <time>2022-10-19T08:05:23.410Z</time>
      </trkpt>
      <trkpt lat="43.53302" lon="5.6251">
        <ele>659</ele>
        <time>2022-10-19T08:05:24.410Z</time>
      </trkpt>
      <trkpt lat="43.53302" lon="5.62509">
        <ele>659</ele>
        <time>2022-10-19T08:05:25.410Z</time>
      </trkpt>
      <trkpt lat="43.53302" lon="5.62508">
        <ele>659</ele>
        <time>2022-10-19T08:05:26.410Z</time>
      </trkpt>
      <trkpt lat="43.53302" lon="5.62508">
        <ele>659</ele>
        <time>2022-10-19T08:05:27.410Z</time>
      </trkpt>
      <trkpt lat="43.53302" lon="5.62507">
        <ele>659</ele>
        <time>2022-10-19T08:05:28.410Z</time>
      </trkpt>
      <trkpt lat="43.53302" lon="5.62506">
        <ele>659</ele>
        <time>2022-10-19T08:05:29.410Z</time>
      </trkpt>
      <trkpt lat="43.53302" lon="5.62505">
        <ele>660</ele>
        <time>2022-10-19T08:05:30.410Z</time>
      </trkpt>
      <trkpt lat="43.53302" lon="5.62504">
        <ele>660</ele>
        <time>2022-10-19T08:05:31.410Z</time>
      </trkpt>
      <trkpt lat="43.53302" lon="5.62504">
        <ele>660</ele>
        <time>2022-10-19T08:05:32.410Z</time>
      </trkpt>
      <trkpt lat="43.53302" lon="5.62503">
        <ele>660</ele>
        <time>2022-10-19T08:05:33.410Z</time>
      </trkpt>
      <trkpt lat="43.53302" lon="5.62503">
        <ele>660</ele>
        <time>2022-10-19T08:05:34.410Z</time>
      </trkpt>
      <trkpt lat="43.53302" lon="5.62502">
        <ele>660</ele>
        <time>2022-10-19T08:05:35.410Z</time>
      </trkpt>
      <trkpt lat="43.53302" lon="5.62502">
        <ele>660</ele>
        <time>2022-10-19T08:05:36.410Z</time>
      </trkpt>
      <trkpt lat="43.53302" lon="5.62501">
        <ele>661</ele>
        <time>2022-10-19T08:05:37.410Z</time>
      </trkpt>
      <trkpt lat="43.53302" lon="5.625">
        <ele>661</ele>
        <time>2022-10-19T08:05:38.410Z</time>
      </trkpt>
      <trkpt lat="43.53302" lon="5.62499">
        <ele>661</ele>
        <time>2022-10-19T08:05:39.410Z</time>
      </trkpt>
      <trkpt lat="43.53302" lon="5.62499">
        <ele>661</ele>
        <time>2022-10-19T08:05:40.410Z</time>
      </trkpt>
      <trkpt lat="43.53302" lon="5.62498">
        <ele>661</ele>
        <time>2022-10-19T08:05:41.410Z</time>
      </trkpt>
      <trkpt lat="43.53302" lon="5.62497">
        <ele>662</ele>
        <time>2022-10-19T08:05:42.410Z</time>
      </trkpt>
      <trkpt lat="43.53302" lon="5.62497">
        <ele>662</ele>
        <time>2022-10-19T08:05:43.410Z</time>
      </trkpt>
      <trkpt lat="43.53302" lon="5.62496">
        <ele>662</ele>
        <time>2022-10-19T08:05:44.410Z</time>
      </trkpt>
      <trkpt lat="43.53301" lon="5.62495">
        <ele>662</ele>
        <time>2022-10-19T08:05:45.410Z</time>
      </trkpt>
      <trkpt lat="43.53301" lon="5.62495">
        <ele>662</ele>
        <time>2022-10-19T08:05:46.410Z</time>
      </trkpt>
      <trkpt lat="43.53301" lon="5.62495">
        <ele>663</ele>
        <time>2022-10-19T08:05:47.410Z</time>
      </trkpt>
      <trkpt lat="43.53301" lon="5.62495">
        <ele>663</ele>
        <time>2022-10-19T08:05:48.410Z</time>
      </trkpt>
      <trkpt lat="43.53301" lon="5.62495">
        <ele>663</ele>
        <time>2022-10-19T08:05:49.410Z</time>
      </trkpt>
      <trkpt lat="43.53301" lon="5.62494">
        <ele>663</ele>
        <time>2022-10-19T08:05:50.410Z</time>
      </trkpt>
      <trkpt lat="43.533" lon="5.62494">
        <ele>663</ele>
        <time>2022-10-19T08:05:51.410Z</time>
      </trkpt>
      <trkpt lat="43.533" lon="5.62493">
        <ele>663</ele>
        <time>2022-10-19T08:05:52.410Z</time>
      </trkpt>
      <trkpt lat="43.533" lon="5.62492">
        <ele>663</ele>
        <time>2022-10-19T08:05:53.410Z</time>
      </trkpt>
      <trkpt lat="43.533" lon="5.62491">
        <ele>663</ele>
        <time>2022-10-19T08:05:54.410Z</time>
      </trkpt>
      <trkpt lat="43.533" lon="5.62491">
        <ele>663</ele>
        <time>2022-10-19T08:05:55.410Z</time>
      </trkpt>
      <trkpt lat="43.533" lon="5.6249">
        <ele>664</ele>
        <time>2022-10-19T08:05:56.410Z</time>
      </trkpt>
      <trkpt lat="43.533" lon="5.6249">
        <ele>664</ele>
        <time>2022-10-19T08:05:57.410Z</time>
      </trkpt>
      <trkpt lat="43.533" lon="5.62489">
        <ele>664</ele>
        <time>2022-10-19T08:05:58.410Z</time>
      </trkpt>
      <trkpt lat="43.533" lon="5.62489">
        <ele>664</ele>
        <time>2022-10-19T08:05:59.410Z</time>
      </trkpt>
      <trkpt lat="43.53301" lon="5.62488">
        <ele>664</ele>
        <time>2022-10-19T08:06:00.410Z</time>
      </trkpt>
      <trkpt lat="43.53301" lon="5.62488">
        <ele>665</ele>
        <time>2022-10-19T08:06:01.410Z</time>
      </trkpt>
      <trkpt lat="43.53301" lon="5.62487">
        <ele>665</ele>
        <time>2022-10-19T08:06:02.410Z</time>
      </trkpt>
      <trkpt lat="43.53301" lon="5.62487">
        <ele>665</ele>
        <time>2022-10-19T08:06:03.410Z</time>
      </trkpt>
      <trkpt lat="43.53301" lon="5.62487">
        <ele>665</ele>
        <time>2022-10-19T08:06:04.410Z</time>
      </trkpt>
      <trkpt lat="43.53301" lon="5.62487">
        <ele>665</ele>
        <time>2022-10-19T08:06:05.410Z</time>
      </trkpt>
      <trkpt lat="43.53301" lon="5.62487">
        <ele>665</ele>
        <time>2022-10-19T08:06:06.410Z</time>
      </trkpt>
      <trkpt lat="43.53301" lon="5.62486">
        <ele>665</ele>
        <time>2022-10-19T08:06:07.410Z</time>
      </trkpt>
      <trkpt lat="43.53301" lon="5.62485">
        <ele>665</ele>
        <time>2022-10-19T08:06:08.410Z</time>
      </trkpt>
      <trkpt lat="43.53302" lon="5.62485">
        <ele>665</ele>
        <time>2022-10-19T08:06:09.410Z</time>
      </trkpt>
      <trkpt lat="43.53302" lon="5.62484">
        <ele>665</ele>
        <time>2022-10-19T08:06:10.410Z</time>
      </trkpt>
      <trkpt lat="43.53302" lon="5.62484">
        <ele>665</ele>
        <time>2022-10-19T08:06:11.410Z</time>
      </trkpt>
      <trkpt lat="43.53302" lon="5.62484">
        <ele>665</ele>
        <time>2022-10-19T08:06:12.410Z</time>
      </trkpt>
      <trkpt lat="43.53302" lon="5.62483">
        <ele>665</ele>
        <time>2022-10-19T08:06:13.410Z</time>
      </trkpt>
      <trkpt lat="43.53302" lon="5.62482">
        <ele>665</ele>
        <time>2022-10-19T08:06:14.410Z</time>
      </trkpt>
      <trkpt lat="43.53302" lon="5.62481">
        <ele>665</ele>
        <time>2022-10-19T08:06:15.410Z</time>
      </trkpt>
      <trkpt lat="43.53302" lon="5.62481">
        <ele>666</ele>
        <time>2022-10-19T08:06:16.410Z</time>
      </trkpt>
      <trkpt lat="43.53302" lon="5.6248">
        <ele>666</ele>
        <time>2022-10-19T08:06:17.410Z</time>
      </trkpt>
      <trkpt lat="43.53302" lon="5.62479">
        <ele>666</ele>
        <time>2022-10-19T08:06:18.410Z</time>
      </trkpt>
      <trkpt lat="43.53301" lon="5.62478">
        <ele>666</ele>
        <time>2022-10-19T08:06:19.410Z</time>
      </trkpt>
      <trkpt lat="43.53301" lon="5.62478">
        <ele>666</ele>
        <time>2022-10-19T08:06:20.410Z</time>
      </trkpt>
      <trkpt lat="43.533" lon="5.62477">
        <ele>666</ele>
        <time>2022-10-19T08:06:21.410Z</time>
      </trkpt>
      <trkpt lat="43.533" lon="5.62476">
        <ele>666</ele>
        <time>2022-10-19T08:06:22.410Z</time>
      </trkpt>
      <trkpt lat="43.53299" lon="5.62475">
        <ele>666</ele>
        <time>2022-10-19T08:06:23.410Z</time>
      </trkpt>
      <trkpt lat="43.53299" lon="5.62474">
        <ele>667</ele>
        <time>2022-10-19T08:06:24.410Z</time>
      </trkpt>
      <trkpt lat="43.53299" lon="5.62474">
        <ele>667</ele>
        <time>2022-10-19T08:06:25.410Z</time>
      </trkpt>
      <trkpt lat="43.53298" lon="5.62473">
        <ele>667</ele>
        <time>2022-10-19T08:06:26.410Z</time>
      </trkpt>
      <trkpt lat="43.53298" lon="5.62472">
        <ele>667</ele>
        <time>2022-10-19T08:06:27.410Z</time>
      </trkpt>
      <trkpt lat="43.53298" lon="5.62471">
        <ele>667</ele>
        <time>2022-10-19T08:06:28.410Z</time>
      </trkpt>
      <trkpt lat="43.53298" lon="5.62471">
        <ele>668</ele>
        <time>2022-10-19T08:06:29.410Z</time>
      </trkpt>
      <trkpt lat="43.53298" lon="5.6247">
        <ele>668</ele>
        <time>2022-10-19T08:06:30.410Z</time>
      </trkpt>
      <trkpt lat="43.53297" lon="5.62469">
        <ele>668</ele>
        <time>2022-10-19T08:06:31.410Z</time>
      </trkpt>
      <trkpt lat="43.53297" lon="5.62469">
        <ele>668</ele>
        <time>2022-10-19T08:06:32.410Z</time>
      </trkpt>
      <trkpt lat="43.53297" lon="5.62469">
        <ele>669</ele>
        <time>2022-10-19T08:06:33.410Z</time>
      </trkpt>
      <trkpt lat="43.53297" lon="5.62469">
        <ele>669</ele>
        <time>2022-10-19T08:06:34.410Z</time>
      </trkpt>
      <trkpt lat="43.53297" lon="5.62469">
        <ele>669</ele>
        <time>2022-10-19T08:06:35.410Z</time>
      </trkpt>
      <trkpt lat="43.53297" lon="5.62469">
        <ele>669</ele>
        <time>2022-10-19T08:06:36.410Z</time>
      </trkpt>
      <trkpt lat="43.53297" lon="5.62469">
        <ele>669</ele>
        <time>2022-10-19T08:06:37.410Z</time>
      </trkpt>
      <trkpt lat="43.53297" lon="5.62469">
        <ele>669</ele>
        <time>2022-10-19T08:06:38.410Z</time>
      </trkpt>
      <trkpt lat="43.53297" lon="5.62469">
        <ele>669</ele>
        <time>2022-10-19T08:06:39.410Z</time>
      </trkpt>
      <trkpt lat="43.53297" lon="5.62469">
        <ele>669</ele>
        <time>2022-10-19T08:06:40.410Z</time>
      </trkpt>
      <trkpt lat="43.53297" lon="5.62469">
        <ele>669</ele>
        <time>2022-10-19T08:06:41.410Z</time>
      </trkpt>
      <trkpt lat="43.53297" lon="5.62469">
        <ele>669</ele>
        <time>2022-10-19T08:06:42.410Z</time>
      </trkpt>
      <trkpt lat="43.53297" lon="5.62469">
        <ele>669</ele>
        <time>2022-10-19T08:06:43.410Z</time>
      </trkpt>
      <trkpt lat="43.53297" lon="5.62469">
        <ele>670</ele>
        <time>2022-10-19T08:06:44.410Z</time>
      </trkpt>
      <trkpt lat="43.53296" lon="5.62469">
        <ele>670</ele>
        <time>2022-10-19T08:06:45.410Z</time>
      </trkpt>
      <trkpt lat="43.53296" lon="5.62469">
        <ele>670</ele>
        <time>2022-10-19T08:06:46.410Z</time>
      </trkpt>
      <trkpt lat="43.53296" lon="5.62469">
        <ele>670</ele>
        <time>2022-10-19T08:06:47.410Z</time>
      </trkpt>
      <trkpt lat="43.53296" lon="5.62469">
        <ele>670</ele>
        <time>2022-10-19T08:06:48.410Z</time>
      </trkpt>
      <trkpt lat="43.53296" lon="5.62469">
        <ele>670</ele>
        <time>2022-10-19T08:06:49.410Z</time>
      </trkpt>
      <trkpt lat="43.53296" lon="5.62469">
        <ele>670</ele>
        <time>2022-10-19T08:06:50.410Z</time>
      </trkpt>
      <trkpt lat="43.53296" lon="5.62469">
        <ele>670</ele>
        <time>2022-10-19T08:06:51.410Z</time>
      </trkpt>
      <trkpt lat="43.53296" lon="5.62469">
        <ele>670</ele>
        <time>2022-10-19T08:06:52.410Z</time>
      </trkpt>
      <trkpt lat="43.53296" lon="5.62469">
        <ele>670</ele>
        <time>2022-10-19T08:06:53.410Z</time>
      </trkpt>
      <trkpt lat="43.53296" lon="5.62468">
        <ele>670</ele>
        <time>2022-10-19T08:06:54.410Z</time>
      </trkpt>
      <trkpt lat="43.53296" lon="5.62468">
        <ele>670</ele>
        <time>2022-10-19T08:06:55.410Z</time>
      </trkpt>
      <trkpt lat="43.53296" lon="5.62468">
        <ele>670</ele>
        <time>2022-10-19T08:06:56.410Z</time>
      </trkpt>
      <trkpt lat="43.53296" lon="5.62468">
        <ele>670</ele>
        <time>2022-10-19T08:06:57.410Z</time>
      </trkpt>
      <trkpt lat="43.53296" lon="5.62468">
        <ele>670</ele>
        <time>2022-10-19T08:06:58.410Z</time>
      </trkpt>
      <trkpt lat="43.53296" lon="5.62468">
        <ele>670</ele>
        <time>2022-10-19T08:06:59.410Z</time>
      </trkpt>
      <trkpt lat="43.53296" lon="5.62468">
        <ele>670</ele>
        <time>2022-10-19T08:07:00.410Z</time>
      </trkpt>
      <trkpt lat="43.53296" lon="5.62468">
        <ele>670</ele>
        <time>2022-10-19T08:07:01.410Z</time>
      </trkpt>
      <trkpt lat="43.53296" lon="5.62468">
        <ele>670</ele>
        <time>2022-10-19T08:07:02.410Z</time>
      </trkpt>
      <trkpt lat="43.53296" lon="5.62468">
        <ele>670</ele>
        <time>2022-10-19T08:07:03.410Z</time>
      </trkpt>
      <trkpt lat="43.53296" lon="5.62468">
        <ele>670</ele>
        <time>2022-10-19T08:07:04.410Z</time>
      </trkpt>
      <trkpt lat="43.53296" lon="5.62468">
        <ele>670</ele>
        <time>2022-10-19T08:07:05.410Z</time>
      </trkpt>
      <trkpt lat="43.53295" lon="5.62468">
        <ele>670</ele>
        <time>2022-10-19T08:07:06.410Z</time>
      </trkpt>
      <trkpt lat="43.53295" lon="5.62468">
        <ele>670</ele>
        <time>2022-10-19T08:07:07.410Z</time>
      </trkpt>
      <trkpt lat="43.53295" lon="5.62468">
        <ele>670</ele>
        <time>2022-10-19T08:07:08.410Z</time>
      </trkpt>
      <trkpt lat="43.53295" lon="5.62468">
        <ele>670</ele>
        <time>2022-10-19T08:07:09.410Z</time>
      </trkpt>
      <trkpt lat="43.53295" lon="5.62468">
        <ele>670</ele>
        <time>2022-10-19T08:07:10.410Z</time>
      </trkpt>
      <trkpt lat="43.53295" lon="5.62468">
        <ele>670</ele>
        <time>2022-10-19T08:07:11.410Z</time>
      </trkpt>
      <trkpt lat="43.53295" lon="5.62468">
        <ele>670</ele>
        <time>2022-10-19T08:07:12.410Z</time>
      </trkpt>
      <trkpt lat="43.53295" lon="5.62468">
        <ele>670</ele>
        <time>2022-10-19T08:07:13.410Z</time>
      </trkpt>
      <trkpt lat="43.53295" lon="5.62468">
        <ele>670</ele>
        <time>2022-10-19T08:07:14.410Z</time>
      </trkpt>
      <trkpt lat="43.53295" lon="5.62468">
        <ele>670</ele>
        <time>2022-10-19T08:07:15.410Z</time>
      </trkpt>
      <trkpt lat="43.53295" lon="5.62468">
        <ele>670</ele>
        <time>2022-10-19T08:07:16.410Z</time>
      </trkpt>
      <trkpt lat="43.53295" lon="5.62468">
        <ele>670</ele>
        <time>2022-10-19T08:07:17.410Z</time>
      </trkpt>
      <trkpt lat="43.53295" lon="5.62468">
        <ele>670</ele>
        <time>2022-10-19T08:07:18.410Z</time>
      </trkpt>
      <trkpt lat="43.53295" lon="5.62468">
        <ele>670</ele>
        <time>2022-10-19T08:07:19.410Z</time>
      </trkpt>
      <trkpt lat="43.53295" lon="5.62468">
        <ele>670</ele>
        <time>2022-10-19T08:07:20.410Z</time>
      </trkpt>
      <trkpt lat="43.53295" lon="5.62468">
        <ele>670</ele>
        <time>2022-10-19T08:07:21.410Z</time>
      </trkpt>
      <trkpt lat="43.53295" lon="5.62467">
        <ele>670</ele>
        <time>2022-10-19T08:07:22.410Z</time>
      </trkpt>
      <trkpt lat="43.53295" lon="5.62467">
        <ele>670</ele>
        <time>2022-10-19T08:07:23.410Z</time>
      </trkpt>
      <trkpt lat="43.53295" lon="5.62467">
        <ele>670</ele>
        <time>2022-10-19T08:07:24.410Z</time>
      </trkpt>
      <trkpt lat="43.53295" lon="5.62467">
        <ele>670</ele>
        <time>2022-10-19T08:07:25.410Z</time>
      </trkpt>
      <trkpt lat="43.53295" lon="5.62467">
        <ele>670</ele>
        <time>2022-10-19T08:07:26.410Z</time>
      </trkpt>
      <trkpt lat="43.53295" lon="5.62467">
        <ele>670</ele>
        <time>2022-10-19T08:07:27.410Z</time>
      </trkpt>
      <trkpt lat="43.53295" lon="5.62467">
        <ele>670</ele>
        <time>2022-10-19T08:07:28.410Z</time>
      </trkpt>
      <trkpt lat="43.53295" lon="5.62467">
        <ele>670</ele>
        <time>2022-10-19T08:07:29.410Z</time>
      </trkpt>
      <trkpt lat="43.53295" lon="5.62467">
        <ele>670</ele>
        <time>2022-10-19T08:07:30.410Z</time>
      </trkpt>
      <trkpt lat="43.53295" lon="5.62467">
        <ele>670</ele>
        <time>2022-10-19T08:07:31.410Z</time>
      </trkpt>
      <trkpt lat="43.53295" lon="5.62467">
        <ele>670</ele>
        <time>2022-10-19T08:07:32.410Z</time>
      </trkpt>
      <trkpt lat="43.53295" lon="5.62467">
        <ele>670</ele>
        <time>2022-10-19T08:07:33.410Z</time>
      </trkpt>
      <trkpt lat="43.53295" lon="5.62467">
        <ele>670</ele>
        <time>2022-10-19T08:07:34.410Z</time>
      </trkpt>
      <trkpt lat="43.53295" lon="5.62467">
        <ele>670</ele>
        <time>2022-10-19T08:07:35.410Z</time>
      </trkpt>
      <trkpt lat="43.53295" lon="5.62466">
        <ele>670</ele>
        <time>2022-10-19T08:07:36.410Z</time>
      </trkpt>
      <trkpt lat="43.53294" lon="5.62465">
        <ele>670</ele>
        <time>2022-10-19T08:07:37.410Z</time>
      </trkpt>
      <trkpt lat="43.53294" lon="5.62465">
        <ele>671</ele>
        <time>2022-10-19T08:07:38.410Z</time>
      </trkpt>
      <trkpt lat="43.53294" lon="5.62464">
        <ele>671</ele>
        <time>2022-10-19T08:07:39.410Z</time>
      </trkpt>
      <trkpt lat="43.53293" lon="5.62464">
        <ele>671</ele>
        <time>2022-10-19T08:07:40.410Z</time>
      </trkpt>
      <trkpt lat="43.53293" lon="5.62463">
        <ele>671</ele>
        <time>2022-10-19T08:07:41.410Z</time>
      </trkpt>
      <trkpt lat="43.53293" lon="5.62462">
        <ele>671</ele>
        <time>2022-10-19T08:07:42.410Z</time>
      </trkpt>
      <trkpt lat="43.53293" lon="5.62462">
        <ele>671</ele>
        <time>2022-10-19T08:07:43.410Z</time>
      </trkpt>
      <trkpt lat="43.53293" lon="5.62462">
        <ele>671</ele>
        <time>2022-10-19T08:07:44.410Z</time>
      </trkpt>
      <trkpt lat="43.53292" lon="5.62461">
        <ele>671</ele>
        <time>2022-10-19T08:07:45.410Z</time>
      </trkpt>
      <trkpt lat="43.53292" lon="5.62461">
        <ele>671</ele>
        <time>2022-10-19T08:07:46.410Z</time>
      </trkpt>
      <trkpt lat="43.53292" lon="5.62461">
        <ele>672</ele>
        <time>2022-10-19T08:07:47.410Z</time>
      </trkpt>
      <trkpt lat="43.53291" lon="5.6246">
        <ele>672</ele>
        <time>2022-10-19T08:07:48.410Z</time>
      </trkpt>
      <trkpt lat="43.53291" lon="5.62459">
        <ele>672</ele>
        <time>2022-10-19T08:07:49.410Z</time>
      </trkpt>
      <trkpt lat="43.53291" lon="5.62459">
        <ele>672</ele>
        <time>2022-10-19T08:07:50.410Z</time>
      </trkpt>
      <trkpt lat="43.53291" lon="5.62458">
        <ele>673</ele>
        <time>2022-10-19T08:07:51.410Z</time>
      </trkpt>
      <trkpt lat="43.5329" lon="5.62458">
        <ele>673</ele>
        <time>2022-10-19T08:07:52.410Z</time>
      </trkpt>
      <trkpt lat="43.5329" lon="5.62457">
        <ele>673</ele>
        <time>2022-10-19T08:07:53.410Z</time>
      </trkpt>
      <trkpt lat="43.5329" lon="5.62456">
        <ele>673</ele>
        <time>2022-10-19T08:07:54.410Z</time>
      </trkpt>
      <trkpt lat="43.5329" lon="5.62456">
        <ele>673</ele>
        <time>2022-10-19T08:07:55.410Z</time>
      </trkpt>
      <trkpt lat="43.5329" lon="5.62456">
        <ele>673</ele>
        <time>2022-10-19T08:07:56.410Z</time>
      </trkpt>
      <trkpt lat="43.53289" lon="5.62455">
        <ele>674</ele>
        <time>2022-10-19T08:07:57.410Z</time>
      </trkpt>
      <trkpt lat="43.53289" lon="5.62454">
        <ele>674</ele>
        <time>2022-10-19T08:07:58.410Z</time>
      </trkpt>
      <trkpt lat="43.53289" lon="5.62454">
        <ele>674</ele>
        <time>2022-10-19T08:07:59.410Z</time>
      </trkpt>
      <trkpt lat="43.53289" lon="5.62454">
        <ele>674</ele>
        <time>2022-10-19T08:08:00.410Z</time>
      </trkpt>
      <trkpt lat="43.53289" lon="5.62454">
        <ele>674</ele>
        <time>2022-10-19T08:08:01.410Z</time>
      </trkpt>
      <trkpt lat="43.53289" lon="5.62454">
        <ele>674</ele>
        <time>2022-10-19T08:08:02.410Z</time>
      </trkpt>
      <trkpt lat="43.53289" lon="5.62453">
        <ele>674</ele>
        <time>2022-10-19T08:08:03.410Z</time>
      </trkpt>
      <trkpt lat="43.53289" lon="5.62453">
        <ele>675</ele>
        <time>2022-10-19T08:08:04.410Z</time>
      </trkpt>
      <trkpt lat="43.53289" lon="5.62453">
        <ele>675</ele>
        <time>2022-10-19T08:08:05.410Z</time>
      </trkpt>
      <trkpt lat="43.53289" lon="5.62453">
        <ele>675</ele>
        <time>2022-10-19T08:08:06.410Z</time>
      </trkpt>
      <trkpt lat="43.5329" lon="5.62452">
        <ele>675</ele>
        <time>2022-10-19T08:08:07.410Z</time>
      </trkpt>
      <trkpt lat="43.5329" lon="5.62452">
        <ele>675</ele>
        <time>2022-10-19T08:08:08.410Z</time>
      </trkpt>
      <trkpt lat="43.53291" lon="5.62452">
        <ele>675</ele>
        <time>2022-10-19T08:08:09.410Z</time>
      </trkpt>
      <trkpt lat="43.53291" lon="5.62452">
        <ele>675</ele>
        <time>2022-10-19T08:08:10.410Z</time>
      </trkpt>
      <trkpt lat="43.53292" lon="5.62452">
        <ele>675</ele>
        <time>2022-10-19T08:08:11.410Z</time>
      </trkpt>
      <trkpt lat="43.53292" lon="5.62452">
        <ele>675</ele>
        <time>2022-10-19T08:08:12.410Z</time>
      </trkpt>
      <trkpt lat="43.53293" lon="5.62452">
        <ele>675</ele>
        <time>2022-10-19T08:08:13.410Z</time>
      </trkpt>
      <trkpt lat="43.53293" lon="5.62452">
        <ele>676</ele>
        <time>2022-10-19T08:08:14.410Z</time>
      </trkpt>
      <trkpt lat="43.53293" lon="5.62452">
        <ele>676</ele>
        <time>2022-10-19T08:08:15.410Z</time>
      </trkpt>
      <trkpt lat="43.53294" lon="5.62451">
        <ele>676</ele>
        <time>2022-10-19T08:08:16.410Z</time>
      </trkpt>
      <trkpt lat="43.53294" lon="5.62451">
        <ele>676</ele>
        <time>2022-10-19T08:08:17.410Z</time>
      </trkpt>
      <trkpt lat="43.53295" lon="5.62451">
        <ele>676</ele>
        <time>2022-10-19T08:08:18.410Z</time>
      </trkpt>
      <trkpt lat="43.53295" lon="5.62451">
        <ele>676</ele>
        <time>2022-10-19T08:08:19.410Z</time>
      </trkpt>
      <trkpt lat="43.53295" lon="5.62451">
        <ele>676</ele>
        <time>2022-10-19T08:08:20.410Z</time>
      </trkpt>
      <trkpt lat="43.53296" lon="5.6245">
        <ele>676</ele>
        <time>2022-10-19T08:08:21.410Z</time>
      </trkpt>
      <trkpt lat="43.53297" lon="5.6245">
        <ele>676</ele>
        <time>2022-10-19T08:08:22.410Z</time>
      </trkpt>
      <trkpt lat="43.53297" lon="5.62449">
        <ele>676</ele>
        <time>2022-10-19T08:08:23.410Z</time>
      </trkpt>
      <trkpt lat="43.53298" lon="5.62449">
        <ele>676</ele>
        <time>2022-10-19T08:08:24.410Z</time>
      </trkpt>
      <trkpt lat="43.53298" lon="5.62449">
        <ele>676</ele>
        <time>2022-10-19T08:08:25.410Z</time>
      </trkpt>
      <trkpt lat="43.53299" lon="5.62449">
        <ele>677</ele>
        <time>2022-10-19T08:08:26.410Z</time>
      </trkpt>
      <trkpt lat="43.53299" lon="5.62449">
        <ele>677</ele>
        <time>2022-10-19T08:08:27.410Z</time>
      </trkpt>
      <trkpt lat="43.533" lon="5.6245">
        <ele>677</ele>
        <time>2022-10-19T08:08:28.410Z</time>
      </trkpt>
      <trkpt lat="43.533" lon="5.6245">
        <ele>677</ele>
        <time>2022-10-19T08:08:29.410Z</time>
      </trkpt>
      <trkpt lat="43.53301" lon="5.6245">
        <ele>677</ele>
        <time>2022-10-19T08:08:30.410Z</time>
      </trkpt>
      <trkpt lat="43.53301" lon="5.62449">
        <ele>677</ele>
        <time>2022-10-19T08:08:31.410Z</time>
      </trkpt>
      <trkpt lat="43.53302" lon="5.62449">
        <ele>677</ele>
        <time>2022-10-19T08:08:32.410Z</time>
      </trkpt>
      <trkpt lat="43.53302" lon="5.62449">
        <ele>678</ele>
        <time>2022-10-19T08:08:33.410Z</time>
      </trkpt>
      <trkpt lat="43.53302" lon="5.62449">
        <ele>678</ele>
        <time>2022-10-19T08:08:34.410Z</time>
      </trkpt>
      <trkpt lat="43.53303" lon="5.62448">
        <ele>678</ele>
        <time>2022-10-19T08:08:35.410Z</time>
      </trkpt>
      <trkpt lat="43.53303" lon="5.62448">
        <ele>678</ele>
        <time>2022-10-19T08:08:36.410Z</time>
      </trkpt>
      <trkpt lat="43.53303" lon="5.62448">
        <ele>678</ele>
        <time>2022-10-19T08:08:37.410Z</time>
      </trkpt>
      <trkpt lat="43.53303" lon="5.62448">
        <ele>678</ele>
        <time>2022-10-19T08:08:38.410Z</time>
      </trkpt>
      <trkpt lat="43.53303" lon="5.62447">
        <ele>678</ele>
        <time>2022-10-19T08:08:39.410Z</time>
      </trkpt>
      <trkpt lat="43.53304" lon="5.62446">
        <ele>678</ele>
        <time>2022-10-19T08:08:40.410Z</time>
      </trkpt>
      <trkpt lat="43.53304" lon="5.62446">
        <ele>678</ele>
        <time>2022-10-19T08:08:41.410Z</time>
      </trkpt>
      <trkpt lat="43.53304" lon="5.62445">
        <ele>678</ele>
        <time>2022-10-19T08:08:42.410Z</time>
      </trkpt>
      <trkpt lat="43.53304" lon="5.62445">
        <ele>678</ele>
        <time>2022-10-19T08:08:43.410Z</time>
      </trkpt>
      <trkpt lat="43.53304" lon="5.62445">
        <ele>678</ele>
        <time>2022-10-19T08:08:44.410Z</time>
      </trkpt>
      <trkpt lat="43.53304" lon="5.62444">
        <ele>678</ele>
        <time>2022-10-19T08:08:45.410Z</time>
      </trkpt>
      <trkpt lat="43.53304" lon="5.62444">
        <ele>679</ele>
        <time>2022-10-19T08:08:46.410Z</time>
      </trkpt>
      <trkpt lat="43.53304" lon="5.62444">
        <ele>679</ele>
        <time>2022-10-19T08:08:47.410Z</time>
      </trkpt>
      <trkpt lat="43.53304" lon="5.62443">
        <ele>679</ele>
        <time>2022-10-19T08:08:48.410Z</time>
      </trkpt>
      <trkpt lat="43.53304" lon="5.62443">
        <ele>679</ele>
        <time>2022-10-19T08:08:49.410Z</time>
      </trkpt>
      <trkpt lat="43.53303" lon="5.62442">
        <ele>679</ele>
        <time>2022-10-19T08:08:50.410Z</time>
      </trkpt>
      <trkpt lat="43.53303" lon="5.62442">
        <ele>679</ele>
        <time>2022-10-19T08:08:51.410Z</time>
      </trkpt>
      <trkpt lat="43.53303" lon="5.62442">
        <ele>679</ele>
        <time>2022-10-19T08:08:52.410Z</time>
      </trkpt>
      <trkpt lat="43.53303" lon="5.62442">
        <ele>679</ele>
        <time>2022-10-19T08:08:53.410Z</time>
      </trkpt>
      <trkpt lat="43.53303" lon="5.62442">
        <ele>679</ele>
        <time>2022-10-19T08:08:54.410Z</time>
      </trkpt>
      <trkpt lat="43.53303" lon="5.62441">
        <ele>680</ele>
        <time>2022-10-19T08:08:55.410Z</time>
      </trkpt>
      <trkpt lat="43.53303" lon="5.62441">
        <ele>680</ele>
        <time>2022-10-19T08:08:56.410Z</time>
      </trkpt>
      <trkpt lat="43.53303" lon="5.62441">
        <ele>680</ele>
        <time>2022-10-19T08:08:57.410Z</time>
      </trkpt>
      <trkpt lat="43.53303" lon="5.62441">
        <ele>680</ele>
        <time>2022-10-19T08:08:58.410Z</time>
      </trkpt>
      <trkpt lat="43.53303" lon="5.62441">
        <ele>680</ele>
        <time>2022-10-19T08:08:59.410Z</time>
      </trkpt>
      <trkpt lat="43.53303" lon="5.62441">
        <ele>680</ele>
        <time>2022-10-19T08:09:00.410Z</time>
      </trkpt>
      <trkpt lat="43.53303" lon="5.62441">
        <ele>680</ele>
        <time>2022-10-19T08:09:01.410Z</time>
      </trkpt>
      <trkpt lat="43.53303" lon="5.62441">
        <ele>680</ele>
        <time>2022-10-19T08:09:02.410Z</time>
      </trkpt>
      <trkpt lat="43.53303" lon="5.62441">
        <ele>680</ele>
        <time>2022-10-19T08:09:03.410Z</time>
      </trkpt>
      <trkpt lat="43.53303" lon="5.62441">
        <ele>680</ele>
        <time>2022-10-19T08:09:04.410Z</time>
      </trkpt>
      <trkpt lat="43.53303" lon="5.62441">
        <ele>680</ele>
        <time>2022-10-19T08:09:05.410Z</time>
      </trkpt>
      <trkpt lat="43.53303" lon="5.62441">
        <ele>680</ele>
        <time>2022-10-19T08:09:06.410Z</time>
      </trkpt>
      <trkpt lat="43.53303" lon="5.6244">
        <ele>680</ele>
        <time>2022-10-19T08:09:07.410Z</time>
      </trkpt>
      <trkpt lat="43.53303" lon="5.6244">
        <ele>680</ele>
        <time>2022-10-19T08:09:08.410Z</time>
      </trkpt>
      <trkpt lat="43.53303" lon="5.6244">
        <ele>680</ele>
        <time>2022-10-19T08:09:09.410Z</time>
      </trkpt>
      <trkpt lat="43.53303" lon="5.6244">
        <ele>680</ele>
        <time>2022-10-19T08:09:10.410Z</time>
      </trkpt>
      <trkpt lat="43.53303" lon="5.6244">
        <ele>680</ele>
        <time>2022-10-19T08:09:11.410Z</time>
      </trkpt>
      <trkpt lat="43.53303" lon="5.6244">
        <ele>680</ele>
        <time>2022-10-19T08:09:12.410Z</time>
      </trkpt>
      <trkpt lat="43.53303" lon="5.6244">
        <ele>680</ele>
        <time>2022-10-19T08:09:13.410Z</time>
      </trkpt>
      <trkpt lat="43.53303" lon="5.6244">
        <ele>680</ele>
        <time>2022-10-19T08:09:14.410Z</time>
      </trkpt>
      <trkpt lat="43.53303" lon="5.6244">
        <ele>680</ele>
        <time>2022-10-19T08:09:15.410Z</time>
      </trkpt>
      <trkpt lat="43.53303" lon="5.6244">
        <ele>681</ele>
        <time>2022-10-19T08:09:16.410Z</time>
      </trkpt>
      <trkpt lat="43.53303" lon="5.6244">
        <ele>681</ele>
        <time>2022-10-19T08:09:17.410Z</time>
      </trkpt>
      <trkpt lat="43.53303" lon="5.6244">
        <ele>681</ele>
        <time>2022-10-19T08:09:18.410Z</time>
      </trkpt>
      <trkpt lat="43.53303" lon="5.6244">
        <ele>681</ele>
        <time>2022-10-19T08:09:19.410Z</time>
      </trkpt>
      <trkpt lat="43.53303" lon="5.6244">
        <ele>681</ele>
        <time>2022-10-19T08:09:20.410Z</time>
      </trkpt>
      <trkpt lat="43.53303" lon="5.6244">
        <ele>681</ele>
        <time>2022-10-19T08:09:21.410Z</time>
      </trkpt>
      <trkpt lat="43.53303" lon="5.6244">
        <ele>681</ele>
        <time>2022-10-19T08:09:22.410Z</time>
      </trkpt>
      <trkpt lat="43.53303" lon="5.6244">
        <ele>681</ele>
        <time>2022-10-19T08:09:23.410Z</time>
      </trkpt>
      <trkpt lat="43.53303" lon="5.6244">
        <ele>681</ele>
        <time>2022-10-19T08:09:24.410Z</time>
      </trkpt>
      <trkpt lat="43.53303" lon="5.6244">
        <ele>681</ele>
        <time>2022-10-19T08:09:25.410Z</time>
      </trkpt>
      <trkpt lat="43.53303" lon="5.6244">
        <ele>681</ele>
        <time>2022-10-19T08:09:26.410Z</time>
      </trkpt>
      <trkpt lat="43.53303" lon="5.6244">
        <ele>681</ele>
        <time>2022-10-19T08:09:27.410Z</time>
      </trkpt>
      <trkpt lat="43.53302" lon="5.6244">
        <ele>681</ele>
        <time>2022-10-19T08:09:28.410Z</time>
      </trkpt>
      <trkpt lat="43.53302" lon="5.6244">
        <ele>681</ele>
        <time>2022-10-19T08:09:29.410Z</time>
      </trkpt>
      <trkpt lat="43.53302" lon="5.6244">
        <ele>681</ele>
        <time>2022-10-19T08:09:30.410Z</time>
      </trkpt>
      <trkpt lat="43.53302" lon="5.6244">
        <ele>681</ele>
        <time>2022-10-19T08:09:31.410Z</time>
      </trkpt>
      <trkpt lat="43.53303" lon="5.6244">
        <ele>681</ele>
        <time>2022-10-19T08:09:32.410Z</time>
      </trkpt>
      <trkpt lat="43.53303" lon="5.6244">
        <ele>681</ele>
        <time>2022-10-19T08:09:33.410Z</time>
      </trkpt>
      <trkpt lat="43.53302" lon="5.62439">
        <ele>681</ele>
        <time>2022-10-19T08:09:34.410Z</time>
      </trkpt>
      <trkpt lat="43.53302" lon="5.62439">
        <ele>681</ele>
        <time>2022-10-19T08:09:35.410Z</time>
      </trkpt>
      <trkpt lat="43.53302" lon="5.62438">
        <ele>681</ele>
        <time>2022-10-19T08:09:36.410Z</time>
      </trkpt>
      <trkpt lat="43.53302" lon="5.62438">
        <ele>681</ele>
        <time>2022-10-19T08:09:37.410Z</time>
      </trkpt>
      <trkpt lat="43.53302" lon="5.62437">
        <ele>681</ele>
        <time>2022-10-19T08:09:38.410Z</time>
      </trkpt>
      <trkpt lat="43.53301" lon="5.62436">
        <ele>682</ele>
        <time>2022-10-19T08:09:39.410Z</time>
      </trkpt>
      <trkpt lat="43.53301" lon="5.62435">
        <ele>682</ele>
        <time>2022-10-19T08:09:40.410Z</time>
      </trkpt>
      <trkpt lat="43.533" lon="5.62435">
        <ele>682</ele>
        <time>2022-10-19T08:09:41.410Z</time>
      </trkpt>
      <trkpt lat="43.533" lon="5.62434">
        <ele>682</ele>
        <time>2022-10-19T08:09:42.410Z</time>
      </trkpt>
      <trkpt lat="43.533" lon="5.62434">
        <ele>682</ele>
        <time>2022-10-19T08:09:43.410Z</time>
      </trkpt>
      <trkpt lat="43.53299" lon="5.62433">
        <ele>682</ele>
        <time>2022-10-19T08:09:44.410Z</time>
      </trkpt>
      <trkpt lat="43.53299" lon="5.62433">
        <ele>682</ele>
        <time>2022-10-19T08:09:45.410Z</time>
      </trkpt>
      <trkpt lat="43.53299" lon="5.62432">
        <ele>682</ele>
        <time>2022-10-19T08:09:46.410Z</time>
      </trkpt>
      <trkpt lat="43.53299" lon="5.62432">
        <ele>682</ele>
        <time>2022-10-19T08:09:47.410Z</time>
      </trkpt>
      <trkpt lat="43.53299" lon="5.62431">
        <ele>683</ele>
        <time>2022-10-19T08:09:48.410Z</time>
      </trkpt>
      <trkpt lat="43.53299" lon="5.62431">
        <ele>683</ele>
        <time>2022-10-19T08:09:49.410Z</time>
      </trkpt>
      <trkpt lat="43.53298" lon="5.6243">
        <ele>683</ele>
        <time>2022-10-19T08:09:50.410Z</time>
      </trkpt>
      <trkpt lat="43.53298" lon="5.6243">
        <ele>683</ele>
        <time>2022-10-19T08:09:51.410Z</time>
      </trkpt>
      <trkpt lat="43.53298" lon="5.6243">
        <ele>683</ele>
        <time>2022-10-19T08:09:52.410Z</time>
      </trkpt>
      <trkpt lat="43.53297" lon="5.62429">
        <ele>683</ele>
        <time>2022-10-19T08:09:53.410Z</time>
      </trkpt>
      <trkpt lat="43.53297" lon="5.62429">
        <ele>683</ele>
        <time>2022-10-19T08:09:54.410Z</time>
      </trkpt>
      <trkpt lat="43.53296" lon="5.62429">
        <ele>684</ele>
        <time>2022-10-19T08:09:55.410Z</time>
      </trkpt>
      <trkpt lat="43.53296" lon="5.62429">
        <ele>684</ele>
        <time>2022-10-19T08:09:56.410Z</time>
      </trkpt>
      <trkpt lat="43.53296" lon="5.62428">
        <ele>684</ele>
        <time>2022-10-19T08:09:57.410Z</time>
      </trkpt>
      <trkpt lat="43.53295" lon="5.62428">
        <ele>684</ele>
        <time>2022-10-19T08:09:58.410Z</time>
      </trkpt>
      <trkpt lat="43.53295" lon="5.62427">
        <ele>684</ele>
        <time>2022-10-19T08:09:59.410Z</time>
      </trkpt>
      <trkpt lat="43.53295" lon="5.62427">
        <ele>685</ele>
        <time>2022-10-19T08:10:00.410Z</time>
      </trkpt>
      <trkpt lat="43.53294" lon="5.62427">
        <ele>685</ele>
        <time>2022-10-19T08:10:01.410Z</time>
      </trkpt>
      <trkpt lat="43.53294" lon="5.62426">
        <ele>685</ele>
        <time>2022-10-19T08:10:02.410Z</time>
      </trkpt>
      <trkpt lat="43.53293" lon="5.62426">
        <ele>685</ele>
        <time>2022-10-19T08:10:03.410Z</time>
      </trkpt>
      <trkpt lat="43.53293" lon="5.62425">
        <ele>685</ele>
        <time>2022-10-19T08:10:04.410Z</time>
      </trkpt>
      <trkpt lat="43.53292" lon="5.62424">
        <ele>686</ele>
        <time>2022-10-19T08:10:05.410Z</time>
      </trkpt>
      <trkpt lat="43.53292" lon="5.62424">
        <ele>686</ele>
        <time>2022-10-19T08:10:06.410Z</time>
      </trkpt>
      <trkpt lat="43.53292" lon="5.62423">
        <ele>686</ele>
        <time>2022-10-19T08:10:07.410Z</time>
      </trkpt>
      <trkpt lat="43.53293" lon="5.62422">
        <ele>686</ele>
        <time>2022-10-19T08:10:08.410Z</time>
      </trkpt>
      <trkpt lat="43.53293" lon="5.62422">
        <ele>686</ele>
        <time>2022-10-19T08:10:09.410Z</time>
      </trkpt>
      <trkpt lat="43.53293" lon="5.62422">
        <ele>686</ele>
        <time>2022-10-19T08:10:10.410Z</time>
      </trkpt>
      <trkpt lat="43.53294" lon="5.62421">
        <ele>686</ele>
        <time>2022-10-19T08:10:11.410Z</time>
      </trkpt>
      <trkpt lat="43.53294" lon="5.62421">
        <ele>686</ele>
        <time>2022-10-19T08:10:12.410Z</time>
      </trkpt>
      <trkpt lat="43.53294" lon="5.62421">
        <ele>686</ele>
        <time>2022-10-19T08:10:13.410Z</time>
      </trkpt>
      <trkpt lat="43.53294" lon="5.62421">
        <ele>686</ele>
        <time>2022-10-19T08:10:14.410Z</time>
      </trkpt>
      <trkpt lat="43.53294" lon="5.62421">
        <ele>686</ele>
        <time>2022-10-19T08:10:15.410Z</time>
      </trkpt>
      <trkpt lat="43.53294" lon="5.62421">
        <ele>687</ele>
        <time>2022-10-19T08:10:16.410Z</time>
      </trkpt>
      <trkpt lat="43.53294" lon="5.62421">
        <ele>687</ele>
        <time>2022-10-19T08:10:17.410Z</time>
      </trkpt>
      <trkpt lat="43.53294" lon="5.62421">
        <ele>687</ele>
        <time>2022-10-19T08:10:18.410Z</time>
      </trkpt>
      <trkpt lat="43.53294" lon="5.62421">
        <ele>687</ele>
        <time>2022-10-19T08:10:19.410Z</time>
      </trkpt>
      <trkpt lat="43.53294" lon="5.62421">
        <ele>687</ele>
        <time>2022-10-19T08:10:20.410Z</time>
      </trkpt>
      <trkpt lat="43.53294" lon="5.62421">
        <ele>687</ele>
        <time>2022-10-19T08:10:21.410Z</time>
      </trkpt>
      <trkpt lat="43.53294" lon="5.62421">
        <ele>687</ele>
        <time>2022-10-19T08:10:22.410Z</time>
      </trkpt>
      <trkpt lat="43.53294" lon="5.62421">
        <ele>687</ele>
        <time>2022-10-19T08:10:23.410Z</time>
      </trkpt>
      <trkpt lat="43.53294" lon="5.62421">
        <ele>687</ele>
        <time>2022-10-19T08:10:24.410Z</time>
      </trkpt>
      <trkpt lat="43.53294" lon="5.62421">
        <ele>687</ele>
        <time>2022-10-19T08:10:25.410Z</time>
      </trkpt>
      <trkpt lat="43.53294" lon="5.6242">
        <ele>687</ele>
        <time>2022-10-19T08:10:26.410Z</time>
      </trkpt>
      <trkpt lat="43.53294" lon="5.6242">
        <ele>687</ele>
        <time>2022-10-19T08:10:27.410Z</time>
      </trkpt>
      <trkpt lat="43.53294" lon="5.6242">
        <ele>687</ele>
        <time>2022-10-19T08:10:28.410Z</time>
      </trkpt>
      <trkpt lat="43.53294" lon="5.6242">
        <ele>687</ele>
        <time>2022-10-19T08:10:29.410Z</time>
      </trkpt>
      <trkpt lat="43.53295" lon="5.6242">
        <ele>687</ele>
        <time>2022-10-19T08:10:30.410Z</time>
      </trkpt>
      <trkpt lat="43.53295" lon="5.6242">
        <ele>687</ele>
        <time>2022-10-19T08:10:31.410Z</time>
      </trkpt>
      <trkpt lat="43.53295" lon="5.6242">
        <ele>687</ele>
        <time>2022-10-19T08:10:32.410Z</time>
      </trkpt>
      <trkpt lat="43.53295" lon="5.6242">
        <ele>687</ele>
        <time>2022-10-19T08:10:33.410Z</time>
      </trkpt>
      <trkpt lat="43.53295" lon="5.6242">
        <ele>687</ele>
        <time>2022-10-19T08:10:34.410Z</time>
      </trkpt>
      <trkpt lat="43.53295" lon="5.6242">
        <ele>687</ele>
        <time>2022-10-19T08:10:35.410Z</time>
      </trkpt>
      <trkpt lat="43.53295" lon="5.6242">
        <ele>687</ele>
        <time>2022-10-19T08:10:36.410Z</time>
      </trkpt>
      <trkpt lat="43.53295" lon="5.62419">
        <ele>687</ele>
        <time>2022-10-19T08:10:37.410Z</time>
      </trkpt>
      <trkpt lat="43.53295" lon="5.62419">
        <ele>687</ele>
        <time>2022-10-19T08:10:38.410Z</time>
      </trkpt>
      <trkpt lat="43.53295" lon="5.62419">
        <ele>687</ele>
        <time>2022-10-19T08:10:39.410Z</time>
      </trkpt>
      <trkpt lat="43.53295" lon="5.62419">
        <ele>687</ele>
        <time>2022-10-19T08:10:40.410Z</time>
      </trkpt>
      <trkpt lat="43.53295" lon="5.62419">
        <ele>687</ele>
        <time>2022-10-19T08:10:41.410Z</time>
      </trkpt>
      <trkpt lat="43.53295" lon="5.62419">
        <ele>687</ele>
        <time>2022-10-19T08:10:42.410Z</time>
      </trkpt>
      <trkpt lat="43.53295" lon="5.62419">
        <ele>687</ele>
        <time>2022-10-19T08:10:43.410Z</time>
      </trkpt>
      <trkpt lat="43.53295" lon="5.62419">
        <ele>687</ele>
        <time>2022-10-19T08:10:44.410Z</time>
      </trkpt>
      <trkpt lat="43.53295" lon="5.62419">
        <ele>687</ele>
        <time>2022-10-19T08:10:45.410Z</time>
      </trkpt>
      <trkpt lat="43.53295" lon="5.62419">
        <ele>687</ele>
        <time>2022-10-19T08:10:46.410Z</time>
      </trkpt>
      <trkpt lat="43.53295" lon="5.62419">
        <ele>687</ele>
        <time>2022-10-19T08:10:47.410Z</time>
      </trkpt>
      <trkpt lat="43.53295" lon="5.62419">
        <ele>687</ele>
        <time>2022-10-19T08:10:48.410Z</time>
      </trkpt>
      <trkpt lat="43.53295" lon="5.62419">
        <ele>687</ele>
        <time>2022-10-19T08:10:49.410Z</time>
      </trkpt>
      <trkpt lat="43.53295" lon="5.62419">
        <ele>687</ele>
        <time>2022-10-19T08:10:50.410Z</time>
      </trkpt>
      <trkpt lat="43.53295" lon="5.62419">
        <ele>687</ele>
        <time>2022-10-19T08:10:51.410Z</time>
      </trkpt>
      <trkpt lat="43.53295" lon="5.62419">
        <ele>687</ele>
        <time>2022-10-19T08:10:52.410Z</time>
      </trkpt>
      <trkpt lat="43.53295" lon="5.62419">
        <ele>687</ele>
        <time>2022-10-19T08:10:53.410Z</time>
      </trkpt>
      <trkpt lat="43.53295" lon="5.62419">
        <ele>687</ele>
        <time>2022-10-19T08:10:54.410Z</time>
      </trkpt>
      <trkpt lat="43.53295" lon="5.62418">
        <ele>687</ele>
        <time>2022-10-19T08:10:55.410Z</time>
      </trkpt>
      <trkpt lat="43.53295" lon="5.62418">
        <ele>687</ele>
        <time>2022-10-19T08:10:56.410Z</time>
      </trkpt>
      <trkpt lat="43.53296" lon="5.62418">
        <ele>687</ele>
        <time>2022-10-19T08:10:57.410Z</time>
      </trkpt>
      <trkpt lat="43.53296" lon="5.62418">
        <ele>687</ele>
        <time>2022-10-19T08:10:58.410Z</time>
      </trkpt>
      <trkpt lat="43.53296" lon="5.62418">
        <ele>687</ele>
        <time>2022-10-19T08:10:59.410Z</time>
      </trkpt>
      <trkpt lat="43.53296" lon="5.62418">
        <ele>687</ele>
        <time>2022-10-19T08:11:00.410Z</time>
      </trkpt>
      <trkpt lat="43.53296" lon="5.62418">
        <ele>687</ele>
        <time>2022-10-19T08:11:01.410Z</time>
      </trkpt>
      <trkpt lat="43.53296" lon="5.62418">
        <ele>687</ele>
        <time>2022-10-19T08:11:02.410Z</time>
      </trkpt>
      <trkpt lat="43.53296" lon="5.62418">
        <ele>687</ele>
        <time>2022-10-19T08:11:03.410Z</time>
      </trkpt>
      <trkpt lat="43.53296" lon="5.62418">
        <ele>687</ele>
        <time>2022-10-19T08:11:04.410Z</time>
      </trkpt>
      <trkpt lat="43.53296" lon="5.62418">
        <ele>687</ele>
        <time>2022-10-19T08:11:05.410Z</time>
      </trkpt>
      <trkpt lat="43.53296" lon="5.62418">
        <ele>687</ele>
        <time>2022-10-19T08:11:06.410Z</time>
      </trkpt>
      <trkpt lat="43.53296" lon="5.62418">
        <ele>687</ele>
        <time>2022-10-19T08:11:07.410Z</time>
      </trkpt>
      <trkpt lat="43.53296" lon="5.62418">
        <ele>687</ele>
        <time>2022-10-19T08:11:08.410Z</time>
      </trkpt>
      <trkpt lat="43.53296" lon="5.62417">
        <ele>687</ele>
        <time>2022-10-19T08:11:09.410Z</time>
      </trkpt>
      <trkpt lat="43.53296" lon="5.62417">
        <ele>687</ele>
        <time>2022-10-19T08:11:10.410Z</time>
      </trkpt>
      <trkpt lat="43.53296" lon="5.62417">
        <ele>687</ele>
        <time>2022-10-19T08:11:11.410Z</time>
      </trkpt>
      <trkpt lat="43.53297" lon="5.62417">
        <ele>687</ele>
        <time>2022-10-19T08:11:12.410Z</time>
      </trkpt>
      <trkpt lat="43.53297" lon="5.62417">
        <ele>687</ele>
        <time>2022-10-19T08:11:13.410Z</time>
      </trkpt>
      <trkpt lat="43.53296" lon="5.62417">
        <ele>687</ele>
        <time>2022-10-19T08:11:14.410Z</time>
      </trkpt>
      <trkpt lat="43.53296" lon="5.62417">
        <ele>687</ele>
        <time>2022-10-19T08:11:15.410Z</time>
      </trkpt>
      <trkpt lat="43.53297" lon="5.62417">
        <ele>687</ele>
        <time>2022-10-19T08:11:16.410Z</time>
      </trkpt>
      <trkpt lat="43.53297" lon="5.62417">
        <ele>687</ele>
        <time>2022-10-19T08:11:17.410Z</time>
      </trkpt>
      <trkpt lat="43.53297" lon="5.62417">
        <ele>687</ele>
        <time>2022-10-19T08:11:18.410Z</time>
      </trkpt>
      <trkpt lat="43.53297" lon="5.62417">
        <ele>687</ele>
        <time>2022-10-19T08:11:19.410Z</time>
      </trkpt>
      <trkpt lat="43.53297" lon="5.62417">
        <ele>687</ele>
        <time>2022-10-19T08:11:20.410Z</time>
      </trkpt>
      <trkpt lat="43.53297" lon="5.62417">
        <ele>687</ele>
        <time>2022-10-19T08:11:21.410Z</time>
      </trkpt>
      <trkpt lat="43.53297" lon="5.62417">
        <ele>687</ele>
        <time>2022-10-19T08:11:22.410Z</time>
      </trkpt>
      <trkpt lat="43.53297" lon="5.62417">
        <ele>687</ele>
        <time>2022-10-19T08:11:23.410Z</time>
      </trkpt>
      <trkpt lat="43.53297" lon="5.62417">
        <ele>687</ele>
        <time>2022-10-19T08:11:24.410Z</time>
      </trkpt>
      <trkpt lat="43.53297" lon="5.62417">
        <ele>687</ele>
        <time>2022-10-19T08:11:25.410Z</time>
      </trkpt>
      <trkpt lat="43.53297" lon="5.62417">
        <ele>687</ele>
        <time>2022-10-19T08:11:26.410Z</time>
      </trkpt>
      <trkpt lat="43.53297" lon="5.62417">
        <ele>687</ele>
        <time>2022-10-19T08:11:27.410Z</time>
      </trkpt>
      <trkpt lat="43.53297" lon="5.62417">
        <ele>687</ele>
        <time>2022-10-19T08:11:28.410Z</time>
      </trkpt>
      <trkpt lat="43.53297" lon="5.62417">
        <ele>687</ele>
        <time>2022-10-19T08:11:29.410Z</time>
      </trkpt>
      <trkpt lat="43.53297" lon="5.62417">
        <ele>687</ele>
        <time>2022-10-19T08:11:30.410Z</time>
      </trkpt>
      <trkpt lat="43.53297" lon="5.62417">
        <ele>687</ele>
        <time>2022-10-19T08:11:31.410Z</time>
      </trkpt>
      <trkpt lat="43.53297" lon="5.62417">
        <ele>687</ele>
        <time>2022-10-19T08:11:32.410Z</time>
      </trkpt>
      <trkpt lat="43.53297" lon="5.62417">
        <ele>687</ele>
        <time>2022-10-19T08:11:33.410Z</time>
      </trkpt>
      <trkpt lat="43.53297" lon="5.62417">
        <ele>687</ele>
        <time>2022-10-19T08:11:34.410Z</time>
      </trkpt>
      <trkpt lat="43.53297" lon="5.62417">
        <ele>687</ele>
        <time>2022-10-19T08:11:35.410Z</time>
      </trkpt>
      <trkpt lat="43.53297" lon="5.62417">
        <ele>687</ele>
        <time>2022-10-19T08:11:36.410Z</time>
      </trkpt>
      <trkpt lat="43.53297" lon="5.62417">
        <ele>687</ele>
        <time>2022-10-19T08:11:37.410Z</time>
      </trkpt>
      <trkpt lat="43.53297" lon="5.62417">
        <ele>687</ele>
        <time>2022-10-19T08:11:38.410Z</time>
      </trkpt>
      <trkpt lat="43.53297" lon="5.62417">
        <ele>687</ele>
        <time>2022-10-19T08:11:39.410Z</time>
      </trkpt>
      <trkpt lat="43.53297" lon="5.62417">
        <ele>687</ele>
        <time>2022-10-19T08:11:40.410Z</time>
      </trkpt>
      <trkpt lat="43.53297" lon="5.62417">
        <ele>687</ele>
        <time>2022-10-19T08:11:41.410Z</time>
      </trkpt>
      <trkpt lat="43.53297" lon="5.62417">
        <ele>687</ele>
        <time>2022-10-19T08:11:42.410Z</time>
      </trkpt>
      <trkpt lat="43.53297" lon="5.62417">
        <ele>687</ele>
        <time>2022-10-19T08:11:43.410Z</time>
      </trkpt>
      <trkpt lat="43.53297" lon="5.62417">
        <ele>687</ele>
        <time>2022-10-19T08:11:44.410Z</time>
      </trkpt>
      <trkpt lat="43.53297" lon="5.62416">
        <ele>687</ele>
        <time>2022-10-19T08:11:45.410Z</time>
      </trkpt>
      <trkpt lat="43.53297" lon="5.62416">
        <ele>687</ele>
        <time>2022-10-19T08:11:46.410Z</time>
      </trkpt>
      <trkpt lat="43.53297" lon="5.62416">
        <ele>687</ele>
        <time>2022-10-19T08:11:47.410Z</time>
      </trkpt>
      <trkpt lat="43.53297" lon="5.62416">
        <ele>687</ele>
        <time>2022-10-19T08:11:48.410Z</time>
      </trkpt>
      <trkpt lat="43.53297" lon="5.62416">
        <ele>687</ele>
        <time>2022-10-19T08:11:49.410Z</time>
      </trkpt>
      <trkpt lat="43.53297" lon="5.62416">
        <ele>688</ele>
        <time>2022-10-19T08:11:50.410Z</time>
      </trkpt>
      <trkpt lat="43.53297" lon="5.62416">
        <ele>688</ele>
        <time>2022-10-19T08:11:51.410Z</time>
      </trkpt>
      <trkpt lat="43.53297" lon="5.62416">
        <ele>687</ele>
        <time>2022-10-19T08:11:52.410Z</time>
      </trkpt>
      <trkpt lat="43.53297" lon="5.62416">
        <ele>687</ele>
        <time>2022-10-19T08:11:53.410Z</time>
      </trkpt>
      <trkpt lat="43.53297" lon="5.62416">
        <ele>688</ele>
        <time>2022-10-19T08:11:54.410Z</time>
      </trkpt>
      <trkpt lat="43.53297" lon="5.62416">
        <ele>688</ele>
        <time>2022-10-19T08:11:55.410Z</time>
      </trkpt>
      <trkpt lat="43.53297" lon="5.62416">
        <ele>688</ele>
        <time>2022-10-19T08:11:56.410Z</time>
      </trkpt>
      <trkpt lat="43.53297" lon="5.62416">
        <ele>688</ele>
        <time>2022-10-19T08:11:57.410Z</time>
      </trkpt>
      <trkpt lat="43.53297" lon="5.62416">
        <ele>688</ele>
        <time>2022-10-19T08:11:58.410Z</time>
      </trkpt>
      <trkpt lat="43.53297" lon="5.62416">
        <ele>688</ele>
        <time>2022-10-19T08:11:59.410Z</time>
      </trkpt>
      <trkpt lat="43.53297" lon="5.62416">
        <ele>688</ele>
        <time>2022-10-19T08:12:00.410Z</time>
      </trkpt>
      <trkpt lat="43.53297" lon="5.62416">
        <ele>688</ele>
        <time>2022-10-19T08:12:01.410Z</time>
      </trkpt>
      <trkpt lat="43.53297" lon="5.62416">
        <ele>688</ele>
        <time>2022-10-19T08:12:02.410Z</time>
      </trkpt>
      <trkpt lat="43.53297" lon="5.62416">
        <ele>688</ele>
        <time>2022-10-19T08:12:03.410Z</time>
      </trkpt>
      <trkpt lat="43.53297" lon="5.62416">
        <ele>688</ele>
        <time>2022-10-19T08:12:04.410Z</time>
      </trkpt>
      <trkpt lat="43.53297" lon="5.62416">
        <ele>688</ele>
        <time>2022-10-19T08:12:05.410Z</time>
      </trkpt>
      <trkpt lat="43.53297" lon="5.62416">
        <ele>688</ele>
        <time>2022-10-19T08:12:06.410Z</time>
      </trkpt>
      <trkpt lat="43.53297" lon="5.62416">
        <ele>688</ele>
        <time>2022-10-19T08:12:07.410Z</time>
      </trkpt>
      <trkpt lat="43.53297" lon="5.62416">
        <ele>688</ele>
        <time>2022-10-19T08:12:08.410Z</time>
      </trkpt>
      <trkpt lat="43.53297" lon="5.62416">
        <ele>688</ele>
        <time>2022-10-19T08:12:09.410Z</time>
      </trkpt>
      <trkpt lat="43.53297" lon="5.62416">
        <ele>688</ele>
        <time>2022-10-19T08:12:10.410Z</time>
      </trkpt>
      <trkpt lat="43.53297" lon="5.62415">
        <ele>688</ele>
        <time>2022-10-19T08:12:11.410Z</time>
      </trkpt>
      <trkpt lat="43.53297" lon="5.62415">
        <ele>688</ele>
        <time>2022-10-19T08:12:12.410Z</time>
      </trkpt>
      <trkpt lat="43.53297" lon="5.62415">
        <ele>688</ele>
        <time>2022-10-19T08:12:13.410Z</time>
      </trkpt>
      <trkpt lat="43.53297" lon="5.62416">
        <ele>688</ele>
        <time>2022-10-19T08:12:14.410Z</time>
      </trkpt>
      <trkpt lat="43.53297" lon="5.62415">
        <ele>688</ele>
        <time>2022-10-19T08:12:15.410Z</time>
      </trkpt>
      <trkpt lat="43.53297" lon="5.62415">
        <ele>688</ele>
        <time>2022-10-19T08:12:16.410Z</time>
      </trkpt>
      <trkpt lat="43.53297" lon="5.62415">
        <ele>688</ele>
        <time>2022-10-19T08:12:17.410Z</time>
      </trkpt>
      <trkpt lat="43.53297" lon="5.62416">
        <ele>688</ele>
        <time>2022-10-19T08:12:18.410Z</time>
      </trkpt>
      <trkpt lat="43.53297" lon="5.62415">
        <ele>688</ele>
        <time>2022-10-19T08:12:19.410Z</time>
      </trkpt>
      <trkpt lat="43.53298" lon="5.62415">
        <ele>688</ele>
        <time>2022-10-19T08:12:20.410Z</time>
      </trkpt>
      <trkpt lat="43.53298" lon="5.62415">
        <ele>688</ele>
        <time>2022-10-19T08:12:21.410Z</time>
      </trkpt>
      <trkpt lat="43.53298" lon="5.62415">
        <ele>688</ele>
        <time>2022-10-19T08:12:22.410Z</time>
      </trkpt>
      <trkpt lat="43.53298" lon="5.62416">
        <ele>688</ele>
        <time>2022-10-19T08:12:23.410Z</time>
      </trkpt>
      <trkpt lat="43.53298" lon="5.62415">
        <ele>687</ele>
        <time>2022-10-19T08:12:24.410Z</time>
      </trkpt>
      <trkpt lat="43.53298" lon="5.62416">
        <ele>687</ele>
        <time>2022-10-19T08:12:25.410Z</time>
      </trkpt>
      <trkpt lat="43.53298" lon="5.62416">
        <ele>687</ele>
        <time>2022-10-19T08:12:26.410Z</time>
      </trkpt>
      <trkpt lat="43.53298" lon="5.62416">
        <ele>687</ele>
        <time>2022-10-19T08:12:27.410Z</time>
      </trkpt>
      <trkpt lat="43.53298" lon="5.62416">
        <ele>687</ele>
        <time>2022-10-19T08:12:28.410Z</time>
      </trkpt>
      <trkpt lat="43.53298" lon="5.62416">
        <ele>687</ele>
        <time>2022-10-19T08:12:29.410Z</time>
      </trkpt>
      <trkpt lat="43.53298" lon="5.62416">
        <ele>687</ele>
        <time>2022-10-19T08:12:30.410Z</time>
      </trkpt>
      <trkpt lat="43.53298" lon="5.62416">
        <ele>687</ele>
        <time>2022-10-19T08:12:31.410Z</time>
      </trkpt>
      <trkpt lat="43.53298" lon="5.62416">
        <ele>687</ele>
        <time>2022-10-19T08:12:32.410Z</time>
      </trkpt>
      <trkpt lat="43.53298" lon="5.62416">
        <ele>687</ele>
        <time>2022-10-19T08:12:33.410Z</time>
      </trkpt>
      <trkpt lat="43.53298" lon="5.62416">
        <ele>687</ele>
        <time>2022-10-19T08:12:34.410Z</time>
      </trkpt>
      <trkpt lat="43.53298" lon="5.62416">
        <ele>687</ele>
        <time>2022-10-19T08:12:35.410Z</time>
      </trkpt>
      <trkpt lat="43.53298" lon="5.62416">
        <ele>687</ele>
        <time>2022-10-19T08:12:36.410Z</time>
      </trkpt>
      <trkpt lat="43.53298" lon="5.62416">
        <ele>687</ele>
        <time>2022-10-19T08:12:37.410Z</time>
      </trkpt>
      <trkpt lat="43.53298" lon="5.62416">
        <ele>687</ele>
        <time>2022-10-19T08:12:38.410Z</time>
      </trkpt>
      <trkpt lat="43.53298" lon="5.62416">
        <ele>687</ele>
        <time>2022-10-19T08:12:39.410Z</time>
      </trkpt>
      <trkpt lat="43.53298" lon="5.62416">
        <ele>687</ele>
        <time>2022-10-19T08:12:40.410Z</time>
      </trkpt>
      <trkpt lat="43.53299" lon="5.62416">
        <ele>687</ele>
        <time>2022-10-19T08:12:41.410Z</time>
      </trkpt>
      <trkpt lat="43.53299" lon="5.62416">
        <ele>687</ele>
        <time>2022-10-19T08:12:42.410Z</time>
      </trkpt>
      <trkpt lat="43.53299" lon="5.62416">
        <ele>687</ele>
        <time>2022-10-19T08:12:43.410Z</time>
      </trkpt>
      <trkpt lat="43.53299" lon="5.62416">
        <ele>687</ele>
        <time>2022-10-19T08:12:44.410Z</time>
      </trkpt>
      <trkpt lat="43.53299" lon="5.62416">
        <ele>687</ele>
        <time>2022-10-19T08:12:45.410Z</time>
      </trkpt>
      <trkpt lat="43.53299" lon="5.62416">
        <ele>687</ele>
        <time>2022-10-19T08:12:46.410Z</time>
      </trkpt>
      <trkpt lat="43.53299" lon="5.62416">
        <ele>687</ele>
        <time>2022-10-19T08:12:47.410Z</time>
      </trkpt>
      <trkpt lat="43.53299" lon="5.62416">
        <ele>687</ele>
        <time>2022-10-19T08:12:48.410Z</time>
      </trkpt>
      <trkpt lat="43.53299" lon="5.62416">
        <ele>687</ele>
        <time>2022-10-19T08:12:49.410Z</time>
      </trkpt>
      <trkpt lat="43.53299" lon="5.62416">
        <ele>687</ele>
        <time>2022-10-19T08:12:50.410Z</time>
      </trkpt>
      <trkpt lat="43.53299" lon="5.62416">
        <ele>687</ele>
        <time>2022-10-19T08:12:51.410Z</time>
      </trkpt>
      <trkpt lat="43.53299" lon="5.62416">
        <ele>687</ele>
        <time>2022-10-19T08:12:52.410Z</time>
      </trkpt>
      <trkpt lat="43.53299" lon="5.62416">
        <ele>687</ele>
        <time>2022-10-19T08:12:53.410Z</time>
      </trkpt>
      <trkpt lat="43.53299" lon="5.62416">
        <ele>687</ele>
        <time>2022-10-19T08:12:54.410Z</time>
      </trkpt>
      <trkpt lat="43.53299" lon="5.62416">
        <ele>687</ele>
        <time>2022-10-19T08:12:55.410Z</time>
      </trkpt>
      <trkpt lat="43.53299" lon="5.62416">
        <ele>687</ele>
        <time>2022-10-19T08:12:56.410Z</time>
      </trkpt>
      <trkpt lat="43.53299" lon="5.62416">
        <ele>687</ele>
        <time>2022-10-19T08:12:57.410Z</time>
      </trkpt>
      <trkpt lat="43.53299" lon="5.62416">
        <ele>687</ele>
        <time>2022-10-19T08:12:58.410Z</time>
      </trkpt>
      <trkpt lat="43.53299" lon="5.62416">
        <ele>687</ele>
        <time>2022-10-19T08:12:59.410Z</time>
      </trkpt>
      <trkpt lat="43.53299" lon="5.62416">
        <ele>687</ele>
        <time>2022-10-19T08:13:00.410Z</time>
      </trkpt>
      <trkpt lat="43.53299" lon="5.62416">
        <ele>687</ele>
        <time>2022-10-19T08:13:01.410Z</time>
      </trkpt>
      <trkpt lat="43.53299" lon="5.62416">
        <ele>687</ele>
        <time>2022-10-19T08:13:02.410Z</time>
      </trkpt>
      <trkpt lat="43.53299" lon="5.62416">
        <ele>687</ele>
        <time>2022-10-19T08:13:03.410Z</time>
      </trkpt>
      <trkpt lat="43.53299" lon="5.62416">
        <ele>687</ele>
        <time>2022-10-19T08:13:04.410Z</time>
      </trkpt>
      <trkpt lat="43.53299" lon="5.62416">
        <ele>687</ele>
        <time>2022-10-19T08:13:05.410Z</time>
      </trkpt>
      <trkpt lat="43.53299" lon="5.62416">
        <ele>687</ele>
        <time>2022-10-19T08:13:06.410Z</time>
      </trkpt>
      <trkpt lat="43.53299" lon="5.62416">
        <ele>687</ele>
        <time>2022-10-19T08:13:07.410Z</time>
      </trkpt>
      <trkpt lat="43.53299" lon="5.62416">
        <ele>687</ele>
        <time>2022-10-19T08:13:08.410Z</time>
      </trkpt>
      <trkpt lat="43.53299" lon="5.62416">
        <ele>687</ele>
        <time>2022-10-19T08:13:09.410Z</time>
      </trkpt>
      <trkpt lat="43.53299" lon="5.62416">
        <ele>687</ele>
        <time>2022-10-19T08:13:10.410Z</time>
      </trkpt>
      <trkpt lat="43.53299" lon="5.62416">
        <ele>687</ele>
        <time>2022-10-19T08:13:11.410Z</time>
      </trkpt>
      <trkpt lat="43.53299" lon="5.62416">
        <ele>687</ele>
        <time>2022-10-19T08:13:12.410Z</time>
      </trkpt>
      <trkpt lat="43.53299" lon="5.62416">
        <ele>687</ele>
        <time>2022-10-19T08:13:13.410Z</time>
      </trkpt>
      <trkpt lat="43.53299" lon="5.62416">
        <ele>687</ele>
        <time>2022-10-19T08:13:14.410Z</time>
      </trkpt>
      <trkpt lat="43.53299" lon="5.62416">
        <ele>687</ele>
        <time>2022-10-19T08:13:15.410Z</time>
      </trkpt>
      <trkpt lat="43.53299" lon="5.62416">
        <ele>687</ele>
        <time>2022-10-19T08:13:16.410Z</time>
      </trkpt>
      <trkpt lat="43.53299" lon="5.62416">
        <ele>687</ele>
        <time>2022-10-19T08:13:17.410Z</time>
      </trkpt>
      <trkpt lat="43.53299" lon="5.62416">
        <ele>687</ele>
        <time>2022-10-19T08:13:18.410Z</time>
      </trkpt>
      <trkpt lat="43.53299" lon="5.62416">
        <ele>687</ele>
        <time>2022-10-19T08:13:19.410Z</time>
      </trkpt>
      <trkpt lat="43.53299" lon="5.62416">
        <ele>687</ele>
        <time>2022-10-19T08:13:20.410Z</time>
      </trkpt>
      <trkpt lat="43.53299" lon="5.62416">
        <ele>687</ele>
        <time>2022-10-19T08:13:21.410Z</time>
      </trkpt>
      <trkpt lat="43.53299" lon="5.62416">
        <ele>687</ele>
        <time>2022-10-19T08:13:22.410Z</time>
      </trkpt>
      <trkpt lat="43.53299" lon="5.62416">
        <ele>687</ele>
        <time>2022-10-19T08:13:23.410Z</time>
      </trkpt>
      <trkpt lat="43.53299" lon="5.62416">
        <ele>687</ele>
        <time>2022-10-19T08:13:24.410Z</time>
      </trkpt>
      <trkpt lat="43.53299" lon="5.62416">
        <ele>687</ele>
        <time>2022-10-19T08:13:25.410Z</time>
      </trkpt>
      <trkpt lat="43.53299" lon="5.62416">
        <ele>687</ele>
        <time>2022-10-19T08:13:26.410Z</time>
      </trkpt>
      <trkpt lat="43.53299" lon="5.62416">
        <ele>687</ele>
        <time>2022-10-19T08:13:27.410Z</time>
      </trkpt>
      <trkpt lat="43.53299" lon="5.62416">
        <ele>687</ele>
        <time>2022-10-19T08:13:28.410Z</time>
      </trkpt>
      <trkpt lat="43.53299" lon="5.62416">
        <ele>687</ele>
        <time>2022-10-19T08:13:29.410Z</time>
      </trkpt>
      <trkpt lat="43.53299" lon="5.62416">
        <ele>687</ele>
        <time>2022-10-19T08:13:30.410Z</time>
      </trkpt>
      <trkpt lat="43.53299" lon="5.62416">
        <ele>687</ele>
        <time>2022-10-19T08:13:31.410Z</time>
      </trkpt>
      <trkpt lat="43.53299" lon="5.62416">
        <ele>687</ele>
        <time>2022-10-19T08:13:32.410Z</time>
      </trkpt>
      <trkpt lat="43.53299" lon="5.62416">
        <ele>687</ele>
        <time>2022-10-19T08:13:33.410Z</time>
      </trkpt>
      <trkpt lat="43.53299" lon="5.62416">
        <ele>687</ele>
        <time>2022-10-19T08:13:34.410Z</time>
      </trkpt>
      <trkpt lat="43.53299" lon="5.62415">
        <ele>687</ele>
        <time>2022-10-19T08:13:35.410Z</time>
      </trkpt>
      <trkpt lat="43.53299" lon="5.62415">
        <ele>687</ele>
        <time>2022-10-19T08:13:36.410Z</time>
      </trkpt>
      <trkpt lat="43.53299" lon="5.62415">
        <ele>687</ele>
        <time>2022-10-19T08:13:37.410Z</time>
      </trkpt>
      <trkpt lat="43.53299" lon="5.62415">
        <ele>687</ele>
        <time>2022-10-19T08:13:38.410Z</time>
      </trkpt>
      <trkpt lat="43.53299" lon="5.62415">
        <ele>687</ele>
        <time>2022-10-19T08:13:39.410Z</time>
      </trkpt>
      <trkpt lat="43.53299" lon="5.62415">
        <ele>687</ele>
        <time>2022-10-19T08:13:40.410Z</time>
      </trkpt>
      <trkpt lat="43.53299" lon="5.62415">
        <ele>687</ele>
        <time>2022-10-19T08:13:41.410Z</time>
      </trkpt>
      <trkpt lat="43.53299" lon="5.62415">
        <ele>687</ele>
        <time>2022-10-19T08:13:42.410Z</time>
      </trkpt>
      <trkpt lat="43.53299" lon="5.62415">
        <ele>687</ele>
        <time>2022-10-19T08:13:43.410Z</time>
      </trkpt>
      <trkpt lat="43.53299" lon="5.62415">
        <ele>687</ele>
        <time>2022-10-19T08:13:44.410Z</time>
      </trkpt>
      <trkpt lat="43.53299" lon="5.62415">
        <ele>687</ele>
        <time>2022-10-19T08:13:45.410Z</time>
      </trkpt>
      <trkpt lat="43.53299" lon="5.62415">
        <ele>687</ele>
        <time>2022-10-19T08:13:46.410Z</time>
      </trkpt>
      <trkpt lat="43.53299" lon="5.62415">
        <ele>687</ele>
        <time>2022-10-19T08:13:47.410Z</time>
      </trkpt>
      <trkpt lat="43.53299" lon="5.62415">
        <ele>687</ele>
        <time>2022-10-19T08:13:48.410Z</time>
      </trkpt>
      <trkpt lat="43.53299" lon="5.62415">
        <ele>687</ele>
        <time>2022-10-19T08:13:49.410Z</time>
      </trkpt>
      <trkpt lat="43.53299" lon="5.62416">
        <ele>687</ele>
        <time>2022-10-19T08:13:50.410Z</time>
      </trkpt>
      <trkpt lat="43.53299" lon="5.62416">
        <ele>687</ele>
        <time>2022-10-19T08:13:51.410Z</time>
      </trkpt>
      <trkpt lat="43.53299" lon="5.62415">
        <ele>687</ele>
        <time>2022-10-19T08:13:52.410Z</time>
      </trkpt>
      <trkpt lat="43.53299" lon="5.62415">
        <ele>687</ele>
        <time>2022-10-19T08:13:53.410Z</time>
      </trkpt>
      <trkpt lat="43.53299" lon="5.62415">
        <ele>687</ele>
        <time>2022-10-19T08:13:54.410Z</time>
      </trkpt>
      <trkpt lat="43.53299" lon="5.62415">
        <ele>687</ele>
        <time>2022-10-19T08:13:55.410Z</time>
      </trkpt>
      <trkpt lat="43.53299" lon="5.62415">
        <ele>687</ele>
        <time>2022-10-19T08:13:56.410Z</time>
      </trkpt>
      <trkpt lat="43.53299" lon="5.62415">
        <ele>687</ele>
        <time>2022-10-19T08:13:57.410Z</time>
      </trkpt>
      <trkpt lat="43.53299" lon="5.62415">
        <ele>687</ele>
        <time>2022-10-19T08:13:58.410Z</time>
      </trkpt>
      <trkpt lat="43.53299" lon="5.62415">
        <ele>687</ele>
        <time>2022-10-19T08:13:59.410Z</time>
      </trkpt>
      <trkpt lat="43.53299" lon="5.62415">
        <ele>687</ele>
        <time>2022-10-19T08:14:00.410Z</time>
      </trkpt>
      <trkpt lat="43.53299" lon="5.62415">
        <ele>687</ele>
        <time>2022-10-19T08:14:01.410Z</time>
      </trkpt>
      <trkpt lat="43.53299" lon="5.62415">
        <ele>687</ele>
        <time>2022-10-19T08:14:02.410Z</time>
      </trkpt>
      <trkpt lat="43.53299" lon="5.62415">
        <ele>687</ele>
        <time>2022-10-19T08:14:03.410Z</time>
      </trkpt>
      <trkpt lat="43.53299" lon="5.62415">
        <ele>687</ele>
        <time>2022-10-19T08:14:04.410Z</time>
      </trkpt>
      <trkpt lat="43.53299" lon="5.62415">
        <ele>687</ele>
        <time>2022-10-19T08:14:05.410Z</time>
      </trkpt>
      <trkpt lat="43.53299" lon="5.62415">
        <ele>688</ele>
        <time>2022-10-19T08:14:06.410Z</time>
      </trkpt>
      <trkpt lat="43.53299" lon="5.62415">
        <ele>688</ele>
        <time>2022-10-19T08:14:07.410Z</time>
      </trkpt>
      <trkpt lat="43.53299" lon="5.62415">
        <ele>688</ele>
        <time>2022-10-19T08:14:08.410Z</time>
      </trkpt>
      <trkpt lat="43.53299" lon="5.62415">
        <ele>688</ele>
        <time>2022-10-19T08:14:09.410Z</time>
      </trkpt>
      <trkpt lat="43.53299" lon="5.62415">
        <ele>688</ele>
        <time>2022-10-19T08:14:10.410Z</time>
      </trkpt>
      <trkpt lat="43.53299" lon="5.62415">
        <ele>688</ele>
        <time>2022-10-19T08:14:11.410Z</time>
      </trkpt>
      <trkpt lat="43.53299" lon="5.62416">
        <ele>688</ele>
        <time>2022-10-19T08:14:12.410Z</time>
      </trkpt>
      <trkpt lat="43.53299" lon="5.62416">
        <ele>688</ele>
        <time>2022-10-19T08:14:13.410Z</time>
      </trkpt>
      <trkpt lat="43.53299" lon="5.62416">
        <ele>688</ele>
        <time>2022-10-19T08:14:14.410Z</time>
      </trkpt>
      <trkpt lat="43.53299" lon="5.62416">
        <ele>688</ele>
        <time>2022-10-19T08:14:15.410Z</time>
      </trkpt>
      <trkpt lat="43.53299" lon="5.62416">
        <ele>688</ele>
        <time>2022-10-19T08:14:16.410Z</time>
      </trkpt>
      <trkpt lat="43.53299" lon="5.62416">
        <ele>688</ele>
        <time>2022-10-19T08:14:17.410Z</time>
      </trkpt>
      <trkpt lat="43.53299" lon="5.62416">
        <ele>688</ele>
        <time>2022-10-19T08:14:18.410Z</time>
      </trkpt>
      <trkpt lat="43.53299" lon="5.62416">
        <ele>688</ele>
        <time>2022-10-19T08:14:19.410Z</time>
      </trkpt>
      <trkpt lat="43.53299" lon="5.62416">
        <ele>688</ele>
        <time>2022-10-19T08:14:20.410Z</time>
      </trkpt>
      <trkpt lat="43.53299" lon="5.62416">
        <ele>688</ele>
        <time>2022-10-19T08:14:21.410Z</time>
      </trkpt>
      <trkpt lat="43.53299" lon="5.62416">
        <ele>688</ele>
        <time>2022-10-19T08:14:22.410Z</time>
      </trkpt>
      <trkpt lat="43.53299" lon="5.62416">
        <ele>688</ele>
        <time>2022-10-19T08:14:23.410Z</time>
      </trkpt>
      <trkpt lat="43.53299" lon="5.62416">
        <ele>688</ele>
        <time>2022-10-19T08:14:24.410Z</time>
      </trkpt>
      <trkpt lat="43.53299" lon="5.62416">
        <ele>688</ele>
        <time>2022-10-19T08:14:25.410Z</time>
      </trkpt>
      <trkpt lat="43.53299" lon="5.62416">
        <ele>688</ele>
        <time>2022-10-19T08:14:26.410Z</time>
      </trkpt>
      <trkpt lat="43.53299" lon="5.62416">
        <ele>688</ele>
        <time>2022-10-19T08:14:27.410Z</time>
      </trkpt>
      <trkpt lat="43.53299" lon="5.62416">
        <ele>688</ele>
        <time>2022-10-19T08:14:28.410Z</time>
      </trkpt>
      <trkpt lat="43.53299" lon="5.62416">
        <ele>688</ele>
        <time>2022-10-19T08:14:29.410Z</time>
      </trkpt>
      <trkpt lat="43.53299" lon="5.62416">
        <ele>688</ele>
        <time>2022-10-19T08:14:30.410Z</time>
      </trkpt>
      <trkpt lat="43.53299" lon="5.62416">
        <ele>688</ele>
        <time>2022-10-19T08:14:31.410Z</time>
      </trkpt>
      <trkpt lat="43.533" lon="5.62416">
        <ele>688</ele>
        <time>2022-10-19T08:14:32.410Z</time>
      </trkpt>
      <trkpt lat="43.533" lon="5.62416">
        <ele>688</ele>
        <time>2022-10-19T08:14:33.410Z</time>
      </trkpt>
      <trkpt lat="43.533" lon="5.62416">
        <ele>688</ele>
        <time>2022-10-19T08:14:34.410Z</time>
      </trkpt>
      <trkpt lat="43.533" lon="5.62417">
        <ele>688</ele>
        <time>2022-10-19T08:14:35.410Z</time>
      </trkpt>
      <trkpt lat="43.53301" lon="5.62417">
        <ele>688</ele>
        <time>2022-10-19T08:14:36.410Z</time>
      </trkpt>
      <trkpt lat="43.53301" lon="5.62417">
        <ele>688</ele>
        <time>2022-10-19T08:14:37.410Z</time>
      </trkpt>
      <trkpt lat="43.53301" lon="5.62417">
        <ele>688</ele>
        <time>2022-10-19T08:14:38.410Z</time>
      </trkpt>
      <trkpt lat="43.53301" lon="5.62417">
        <ele>688</ele>
        <time>2022-10-19T08:14:39.410Z</time>
      </trkpt>
      <trkpt lat="43.53301" lon="5.62417">
        <ele>688</ele>
        <time>2022-10-19T08:14:40.410Z</time>
      </trkpt>
      <trkpt lat="43.53301" lon="5.62417">
        <ele>688</ele>
        <time>2022-10-19T08:14:41.410Z</time>
      </trkpt>
      <trkpt lat="43.53301" lon="5.62417">
        <ele>688</ele>
        <time>2022-10-19T08:14:42.410Z</time>
      </trkpt>
      <trkpt lat="43.53301" lon="5.62417">
        <ele>688</ele>
        <time>2022-10-19T08:14:43.410Z</time>
      </trkpt>
      <trkpt lat="43.53301" lon="5.62417">
        <ele>688</ele>
        <time>2022-10-19T08:14:44.410Z</time>
      </trkpt>
      <trkpt lat="43.53301" lon="5.62417">
        <ele>688</ele>
        <time>2022-10-19T08:14:45.410Z</time>
      </trkpt>
      <trkpt lat="43.53301" lon="5.62417">
        <ele>688</ele>
        <time>2022-10-19T08:14:46.410Z</time>
      </trkpt>
      <trkpt lat="43.53301" lon="5.62417">
        <ele>689</ele>
        <time>2022-10-19T08:14:47.410Z</time>
      </trkpt>
      <trkpt lat="43.53301" lon="5.62417">
        <ele>689</ele>
        <time>2022-10-19T08:14:48.410Z</time>
      </trkpt>
      <trkpt lat="43.53301" lon="5.62417">
        <ele>689</ele>
        <time>2022-10-19T08:14:49.410Z</time>
      </trkpt>
      <trkpt lat="43.53301" lon="5.62417">
        <ele>689</ele>
        <time>2022-10-19T08:14:50.410Z</time>
      </trkpt>
      <trkpt lat="43.53301" lon="5.62417">
        <ele>689</ele>
        <time>2022-10-19T08:14:51.410Z</time>
      </trkpt>
      <trkpt lat="43.53301" lon="5.62417">
        <ele>689</ele>
        <time>2022-10-19T08:14:52.410Z</time>
      </trkpt>
      <trkpt lat="43.53301" lon="5.62417">
        <ele>689</ele>
        <time>2022-10-19T08:14:53.410Z</time>
      </trkpt>
      <trkpt lat="43.53301" lon="5.62417">
        <ele>689</ele>
        <time>2022-10-19T08:14:54.410Z</time>
      </trkpt>
      <trkpt lat="43.53301" lon="5.62417">
        <ele>689</ele>
        <time>2022-10-19T08:14:55.410Z</time>
      </trkpt>
      <trkpt lat="43.53301" lon="5.62417">
        <ele>689</ele>
        <time>2022-10-19T08:14:56.410Z</time>
      </trkpt>
      <trkpt lat="43.53301" lon="5.62417">
        <ele>689</ele>
        <time>2022-10-19T08:14:57.410Z</time>
      </trkpt>
      <trkpt lat="43.53301" lon="5.62417">
        <ele>689</ele>
        <time>2022-10-19T08:14:58.410Z</time>
      </trkpt>
      <trkpt lat="43.53301" lon="5.62417">
        <ele>689</ele>
        <time>2022-10-19T08:14:59.410Z</time>
      </trkpt>
      <trkpt lat="43.53301" lon="5.62417">
        <ele>689</ele>
        <time>2022-10-19T08:15:00.410Z</time>
      </trkpt>
      <trkpt lat="43.53301" lon="5.62417">
        <ele>689</ele>
        <time>2022-10-19T08:15:01.410Z</time>
      </trkpt>
      <trkpt lat="43.53301" lon="5.62417">
        <ele>689</ele>
        <time>2022-10-19T08:15:02.410Z</time>
      </trkpt>
      <trkpt lat="43.53301" lon="5.62417">
        <ele>689</ele>
        <time>2022-10-19T08:15:03.410Z</time>
      </trkpt>
      <trkpt lat="43.53301" lon="5.62417">
        <ele>690</ele>
        <time>2022-10-19T08:15:04.410Z</time>
      </trkpt>
      <trkpt lat="43.53301" lon="5.62417">
        <ele>690</ele>
        <time>2022-10-19T08:15:05.410Z</time>
      </trkpt>
      <trkpt lat="43.53301" lon="5.62417">
        <ele>690</ele>
        <time>2022-10-19T08:15:06.410Z</time>
      </trkpt>
      <trkpt lat="43.53301" lon="5.62417">
        <ele>690</ele>
        <time>2022-10-19T08:15:07.410Z</time>
      </trkpt>
      <trkpt lat="43.53301" lon="5.62417">
        <ele>690</ele>
        <time>2022-10-19T08:15:08.410Z</time>
      </trkpt>
      <trkpt lat="43.53301" lon="5.62417">
        <ele>690</ele>
        <time>2022-10-19T08:15:09.410Z</time>
      </trkpt>
      <trkpt lat="43.53301" lon="5.62417">
        <ele>690</ele>
        <time>2022-10-19T08:15:10.410Z</time>
      </trkpt>
      <trkpt lat="43.53302" lon="5.62417">
        <ele>690</ele>
        <time>2022-10-19T08:15:11.410Z</time>
      </trkpt>
      <trkpt lat="43.53302" lon="5.62417">
        <ele>690</ele>
        <time>2022-10-19T08:15:12.410Z</time>
      </trkpt>
      <trkpt lat="43.53302" lon="5.62417">
        <ele>690</ele>
        <time>2022-10-19T08:15:13.410Z</time>
      </trkpt>
      <trkpt lat="43.53302" lon="5.62417">
        <ele>690</ele>
        <time>2022-10-19T08:15:14.410Z</time>
      </trkpt>
      <trkpt lat="43.53303" lon="5.62417">
        <ele>690</ele>
        <time>2022-10-19T08:15:15.410Z</time>
      </trkpt>
      <trkpt lat="43.53303" lon="5.62417">
        <ele>690</ele>
        <time>2022-10-19T08:15:16.410Z</time>
      </trkpt>
      <trkpt lat="43.53304" lon="5.62418">
        <ele>690</ele>
        <time>2022-10-19T08:15:17.410Z</time>
      </trkpt>
      <trkpt lat="43.53305" lon="5.62418">
        <ele>690</ele>
        <time>2022-10-19T08:15:18.410Z</time>
      </trkpt>
      <trkpt lat="43.53305" lon="5.62418">
        <ele>691</ele>
        <time>2022-10-19T08:15:19.410Z</time>
      </trkpt>
      <trkpt lat="43.53305" lon="5.62418">
        <ele>691</ele>
        <time>2022-10-19T08:15:20.410Z</time>
      </trkpt>
      <trkpt lat="43.53306" lon="5.62419">
        <ele>691</ele>
        <time>2022-10-19T08:15:21.410Z</time>
      </trkpt>
      <trkpt lat="43.53307" lon="5.62419">
        <ele>691</ele>
        <time>2022-10-19T08:15:22.410Z</time>
      </trkpt>
      <trkpt lat="43.53307" lon="5.6242">
        <ele>691</ele>
        <time>2022-10-19T08:15:23.410Z</time>
      </trkpt>
      <trkpt lat="43.53307" lon="5.6242">
        <ele>691</ele>
        <time>2022-10-19T08:15:24.410Z</time>
      </trkpt>
      <trkpt lat="43.53308" lon="5.6242">
        <ele>691</ele>
        <time>2022-10-19T08:15:25.410Z</time>
      </trkpt>
      <trkpt lat="43.53308" lon="5.6242">
        <ele>691</ele>
        <time>2022-10-19T08:15:26.410Z</time>
      </trkpt>
      <trkpt lat="43.53308" lon="5.6242">
        <ele>691</ele>
        <time>2022-10-19T08:15:27.410Z</time>
      </trkpt>
      <trkpt lat="43.53308" lon="5.6242">
        <ele>691</ele>
        <time>2022-10-19T08:15:28.410Z</time>
      </trkpt>
      <trkpt lat="43.53308" lon="5.6242">
        <ele>691</ele>
        <time>2022-10-19T08:15:29.410Z</time>
      </trkpt>
      <trkpt lat="43.53308" lon="5.6242">
        <ele>691</ele>
        <time>2022-10-19T08:15:30.410Z</time>
      </trkpt>
      <trkpt lat="43.53309" lon="5.6242">
        <ele>691</ele>
        <time>2022-10-19T08:15:31.410Z</time>
      </trkpt>
      <trkpt lat="43.53309" lon="5.6242">
        <ele>691</ele>
        <time>2022-10-19T08:15:32.410Z</time>
      </trkpt>
      <trkpt lat="43.5331" lon="5.6242">
        <ele>691</ele>
        <time>2022-10-19T08:15:33.410Z</time>
      </trkpt>
      <trkpt lat="43.5331" lon="5.6242">
        <ele>691</ele>
        <time>2022-10-19T08:15:34.410Z</time>
      </trkpt>
      <trkpt lat="43.53311" lon="5.6242">
        <ele>692</ele>
        <time>2022-10-19T08:15:35.410Z</time>
      </trkpt>
      <trkpt lat="43.53311" lon="5.6242">
        <ele>692</ele>
        <time>2022-10-19T08:15:36.410Z</time>
      </trkpt>
      <trkpt lat="43.53312" lon="5.62421">
        <ele>692</ele>
        <time>2022-10-19T08:15:37.410Z</time>
      </trkpt>
      <trkpt lat="43.53312" lon="5.62421">
        <ele>692</ele>
        <time>2022-10-19T08:15:38.410Z</time>
      </trkpt>
      <trkpt lat="43.53313" lon="5.62421">
        <ele>692</ele>
        <time>2022-10-19T08:15:39.410Z</time>
      </trkpt>
      <trkpt lat="43.53313" lon="5.62422">
        <ele>692</ele>
        <time>2022-10-19T08:15:40.410Z</time>
      </trkpt>
      <trkpt lat="43.53314" lon="5.62422">
        <ele>692</ele>
        <time>2022-10-19T08:15:41.410Z</time>
      </trkpt>
      <trkpt lat="43.53314" lon="5.62423">
        <ele>692</ele>
        <time>2022-10-19T08:15:42.410Z</time>
      </trkpt>
      <trkpt lat="43.53315" lon="5.62423">
        <ele>692</ele>
        <time>2022-10-19T08:15:43.410Z</time>
      </trkpt>
      <trkpt lat="43.53315" lon="5.62423">
        <ele>692</ele>
        <time>2022-10-19T08:15:44.410Z</time>
      </trkpt>
      <trkpt lat="43.53315" lon="5.62423">
        <ele>692</ele>
        <time>2022-10-19T08:15:45.410Z</time>
      </trkpt>
      <trkpt lat="43.53316" lon="5.62423">
        <ele>692</ele>
        <time>2022-10-19T08:15:46.410Z</time>
      </trkpt>
      <trkpt lat="43.53316" lon="5.62423">
        <ele>692</ele>
        <time>2022-10-19T08:15:47.410Z</time>
      </trkpt>
      <trkpt lat="43.53317" lon="5.62423">
        <ele>692</ele>
        <time>2022-10-19T08:15:48.410Z</time>
      </trkpt>
      <trkpt lat="43.53317" lon="5.62423">
        <ele>692</ele>
        <time>2022-10-19T08:15:49.410Z</time>
      </trkpt>
      <trkpt lat="43.53318" lon="5.62424">
        <ele>692</ele>
        <time>2022-10-19T08:15:50.410Z</time>
      </trkpt>
      <trkpt lat="43.53318" lon="5.62424">
        <ele>692</ele>
        <time>2022-10-19T08:15:51.410Z</time>
      </trkpt>
      <trkpt lat="43.53319" lon="5.62424">
        <ele>692</ele>
        <time>2022-10-19T08:15:52.410Z</time>
      </trkpt>
      <trkpt lat="43.53319" lon="5.62424">
        <ele>692</ele>
        <time>2022-10-19T08:15:53.410Z</time>
      </trkpt>
      <trkpt lat="43.53319" lon="5.62424">
        <ele>692</ele>
        <time>2022-10-19T08:15:54.410Z</time>
      </trkpt>
      <trkpt lat="43.5332" lon="5.62424">
        <ele>693</ele>
        <time>2022-10-19T08:15:55.410Z</time>
      </trkpt>
      <trkpt lat="43.53321" lon="5.62424">
        <ele>693</ele>
        <time>2022-10-19T08:15:56.410Z</time>
      </trkpt>
      <trkpt lat="43.53321" lon="5.62424">
        <ele>693</ele>
        <time>2022-10-19T08:15:57.410Z</time>
      </trkpt>
      <trkpt lat="43.53321" lon="5.62424">
        <ele>693</ele>
        <time>2022-10-19T08:15:58.410Z</time>
      </trkpt>
      <trkpt lat="43.53322" lon="5.62424">
        <ele>693</ele>
        <time>2022-10-19T08:15:59.410Z</time>
      </trkpt>
      <trkpt lat="43.53322" lon="5.62424">
        <ele>693</ele>
        <time>2022-10-19T08:16:00.410Z</time>
      </trkpt>
      <trkpt lat="43.53322" lon="5.62424">
        <ele>693</ele>
        <time>2022-10-19T08:16:01.410Z</time>
      </trkpt>
      <trkpt lat="43.53322" lon="5.62424">
        <ele>693</ele>
        <time>2022-10-19T08:16:02.410Z</time>
      </trkpt>
      <trkpt lat="43.53323" lon="5.62424">
        <ele>693</ele>
        <time>2022-10-19T08:16:03.410Z</time>
      </trkpt>
      <trkpt lat="43.53323" lon="5.62424">
        <ele>694</ele>
        <time>2022-10-19T08:16:04.410Z</time>
      </trkpt>
      <trkpt lat="43.53323" lon="5.62424">
        <ele>694</ele>
        <time>2022-10-19T08:16:05.410Z</time>
      </trkpt>
      <trkpt lat="43.53323" lon="5.62423">
        <ele>694</ele>
        <time>2022-10-19T08:16:06.410Z</time>
      </trkpt>
      <trkpt lat="43.53323" lon="5.62423">
        <ele>694</ele>
        <time>2022-10-19T08:16:07.410Z</time>
      </trkpt>
      <trkpt lat="43.53323" lon="5.62423">
        <ele>694</ele>
        <time>2022-10-19T08:16:08.410Z</time>
      </trkpt>
      <trkpt lat="43.53323" lon="5.62422">
        <ele>694</ele>
        <time>2022-10-19T08:16:09.410Z</time>
      </trkpt>
      <trkpt lat="43.53323" lon="5.62422">
        <ele>694</ele>
        <time>2022-10-19T08:16:10.410Z</time>
      </trkpt>
      <trkpt lat="43.53323" lon="5.62422">
        <ele>694</ele>
        <time>2022-10-19T08:16:11.410Z</time>
      </trkpt>
      <trkpt lat="43.53323" lon="5.62422">
        <ele>694</ele>
        <time>2022-10-19T08:16:12.410Z</time>
      </trkpt>
      <trkpt lat="43.53323" lon="5.62423">
        <ele>695</ele>
        <time>2022-10-19T08:16:13.410Z</time>
      </trkpt>
      <trkpt lat="43.53323" lon="5.62423">
        <ele>695</ele>
        <time>2022-10-19T08:16:14.410Z</time>
      </trkpt>
      <trkpt lat="43.53323" lon="5.62423">
        <ele>695</ele>
        <time>2022-10-19T08:16:15.410Z</time>
      </trkpt>
      <trkpt lat="43.53323" lon="5.62422">
        <ele>695</ele>
        <time>2022-10-19T08:16:16.410Z</time>
      </trkpt>
      <trkpt lat="43.53322" lon="5.62422">
        <ele>695</ele>
        <time>2022-10-19T08:16:17.410Z</time>
      </trkpt>
      <trkpt lat="43.53322" lon="5.62422">
        <ele>695</ele>
        <time>2022-10-19T08:16:18.410Z</time>
      </trkpt>
      <trkpt lat="43.53322" lon="5.62421">
        <ele>696</ele>
        <time>2022-10-19T08:16:19.410Z</time>
      </trkpt>
      <trkpt lat="43.53322" lon="5.62421">
        <ele>696</ele>
        <time>2022-10-19T08:16:20.410Z</time>
      </trkpt>
      <trkpt lat="43.53322" lon="5.62421">
        <ele>696</ele>
        <time>2022-10-19T08:16:21.410Z</time>
      </trkpt>
      <trkpt lat="43.53321" lon="5.6242">
        <ele>696</ele>
        <time>2022-10-19T08:16:22.410Z</time>
      </trkpt>
      <trkpt lat="43.53321" lon="5.62419">
        <ele>696</ele>
        <time>2022-10-19T08:16:23.410Z</time>
      </trkpt>
      <trkpt lat="43.53322" lon="5.62419">
        <ele>696</ele>
        <time>2022-10-19T08:16:24.410Z</time>
      </trkpt>
      <trkpt lat="43.53321" lon="5.62418">
        <ele>696</ele>
        <time>2022-10-19T08:16:25.410Z</time>
      </trkpt>
      <trkpt lat="43.53321" lon="5.62418">
        <ele>697</ele>
        <time>2022-10-19T08:16:26.410Z</time>
      </trkpt>
      <trkpt lat="43.53321" lon="5.62418">
        <ele>697</ele>
        <time>2022-10-19T08:16:27.410Z</time>
      </trkpt>
      <trkpt lat="43.53321" lon="5.62418">
        <ele>697</ele>
        <time>2022-10-19T08:16:28.410Z</time>
      </trkpt>
      <trkpt lat="43.53321" lon="5.62417">
        <ele>697</ele>
        <time>2022-10-19T08:16:29.410Z</time>
      </trkpt>
      <trkpt lat="43.53321" lon="5.62417">
        <ele>697</ele>
        <time>2022-10-19T08:16:30.410Z</time>
      </trkpt>
      <trkpt lat="43.53321" lon="5.62417">
        <ele>697</ele>
        <time>2022-10-19T08:16:31.410Z</time>
      </trkpt>
      <trkpt lat="43.53321" lon="5.62417">
        <ele>697</ele>
        <time>2022-10-19T08:16:32.410Z</time>
      </trkpt>
      <trkpt lat="43.5332" lon="5.62416">
        <ele>697</ele>
        <time>2022-10-19T08:16:33.410Z</time>
      </trkpt>
      <trkpt lat="43.5332" lon="5.62416">
        <ele>697</ele>
        <time>2022-10-19T08:16:34.410Z</time>
      </trkpt>
      <trkpt lat="43.5332" lon="5.62415">
        <ele>698</ele>
        <time>2022-10-19T08:16:35.410Z</time>
      </trkpt>
      <trkpt lat="43.5332" lon="5.62414">
        <ele>698</ele>
        <time>2022-10-19T08:16:36.410Z</time>
      </trkpt>
      <trkpt lat="43.5332" lon="5.62414">
        <ele>698</ele>
        <time>2022-10-19T08:16:37.410Z</time>
      </trkpt>
      <trkpt lat="43.53321" lon="5.62413">
        <ele>698</ele>
        <time>2022-10-19T08:16:38.410Z</time>
      </trkpt>
      <trkpt lat="43.5332" lon="5.62413">
        <ele>698</ele>
        <time>2022-10-19T08:16:39.410Z</time>
      </trkpt>
      <trkpt lat="43.5332" lon="5.62413">
        <ele>698</ele>
        <time>2022-10-19T08:16:40.410Z</time>
      </trkpt>
      <trkpt lat="43.5332" lon="5.62412">
        <ele>698</ele>
        <time>2022-10-19T08:16:41.410Z</time>
      </trkpt>
      <trkpt lat="43.53319" lon="5.62412">
        <ele>698</ele>
        <time>2022-10-19T08:16:42.410Z</time>
      </trkpt>
      <trkpt lat="43.53319" lon="5.62412">
        <ele>699</ele>
        <time>2022-10-19T08:16:43.410Z</time>
      </trkpt>
      <trkpt lat="43.53318" lon="5.62412">
        <ele>699</ele>
        <time>2022-10-19T08:16:44.410Z</time>
      </trkpt>
      <trkpt lat="43.53318" lon="5.62411">
        <ele>699</ele>
        <time>2022-10-19T08:16:45.410Z</time>
      </trkpt>
      <trkpt lat="43.53318" lon="5.62411">
        <ele>699</ele>
        <time>2022-10-19T08:16:46.410Z</time>
      </trkpt>
      <trkpt lat="43.53317" lon="5.62411">
        <ele>699</ele>
        <time>2022-10-19T08:16:47.410Z</time>
      </trkpt>
      <trkpt lat="43.53317" lon="5.62411">
        <ele>699</ele>
        <time>2022-10-19T08:16:48.410Z</time>
      </trkpt>
      <trkpt lat="43.53316" lon="5.6241">
        <ele>699</ele>
        <time>2022-10-19T08:16:49.410Z</time>
      </trkpt>
      <trkpt lat="43.53316" lon="5.6241">
        <ele>700</ele>
        <time>2022-10-19T08:16:50.410Z</time>
      </trkpt>
      <trkpt lat="43.53316" lon="5.62409">
        <ele>700</ele>
        <time>2022-10-19T08:16:51.410Z</time>
      </trkpt>
      <trkpt lat="43.53316" lon="5.62408">
        <ele>700</ele>
        <time>2022-10-19T08:16:52.410Z</time>
      </trkpt>
      <trkpt lat="43.53316" lon="5.62408">
        <ele>700</ele>
        <time>2022-10-19T08:16:53.410Z</time>
      </trkpt>
      <trkpt lat="43.53316" lon="5.62407">
        <ele>700</ele>
        <time>2022-10-19T08:16:54.410Z</time>
      </trkpt>
      <trkpt lat="43.53317" lon="5.62406">
        <ele>700</ele>
        <time>2022-10-19T08:16:55.410Z</time>
      </trkpt>
      <trkpt lat="43.53316" lon="5.62406">
        <ele>700</ele>
        <time>2022-10-19T08:16:56.410Z</time>
      </trkpt>
      <trkpt lat="43.53317" lon="5.62405">
        <ele>700</ele>
        <time>2022-10-19T08:16:57.410Z</time>
      </trkpt>
      <trkpt lat="43.53317" lon="5.62405">
        <ele>700</ele>
        <time>2022-10-19T08:16:58.410Z</time>
      </trkpt>
      <trkpt lat="43.53317" lon="5.62404">
        <ele>700</ele>
        <time>2022-10-19T08:16:59.410Z</time>
      </trkpt>
      <trkpt lat="43.53316" lon="5.62403">
        <ele>701</ele>
        <time>2022-10-19T08:17:00.410Z</time>
      </trkpt>
      <trkpt lat="43.53316" lon="5.62403">
        <ele>701</ele>
        <time>2022-10-19T08:17:01.410Z</time>
      </trkpt>
      <trkpt lat="43.53316" lon="5.62403">
        <ele>701</ele>
        <time>2022-10-19T08:17:02.410Z</time>
      </trkpt>
      <trkpt lat="43.53316" lon="5.62402">
        <ele>701</ele>
        <time>2022-10-19T08:17:03.410Z</time>
      </trkpt>
      <trkpt lat="43.53316" lon="5.62402">
        <ele>701</ele>
        <time>2022-10-19T08:17:04.410Z</time>
      </trkpt>
      <trkpt lat="43.53315" lon="5.62401">
        <ele>701</ele>
        <time>2022-10-19T08:17:05.410Z</time>
      </trkpt>
      <trkpt lat="43.53315" lon="5.62401">
        <ele>701</ele>
        <time>2022-10-19T08:17:06.410Z</time>
      </trkpt>
      <trkpt lat="43.53315" lon="5.624">
        <ele>701</ele>
        <time>2022-10-19T08:17:07.410Z</time>
      </trkpt>
      <trkpt lat="43.53314" lon="5.624">
        <ele>702</ele>
        <time>2022-10-19T08:17:08.410Z</time>
      </trkpt>
      <trkpt lat="43.53314" lon="5.624">
        <ele>702</ele>
        <time>2022-10-19T08:17:09.410Z</time>
      </trkpt>
      <trkpt lat="43.53313" lon="5.62399">
        <ele>702</ele>
        <time>2022-10-19T08:17:10.410Z</time>
      </trkpt>
      <trkpt lat="43.53313" lon="5.62398">
        <ele>702</ele>
        <time>2022-10-19T08:17:11.410Z</time>
      </trkpt>
      <trkpt lat="43.53313" lon="5.62398">
        <ele>702</ele>
        <time>2022-10-19T08:17:12.410Z</time>
      </trkpt>
      <trkpt lat="43.53312" lon="5.62397">
        <ele>703</ele>
        <time>2022-10-19T08:17:13.410Z</time>
      </trkpt>
      <trkpt lat="43.53312" lon="5.62396">
        <ele>703</ele>
        <time>2022-10-19T08:17:14.410Z</time>
      </trkpt>
      <trkpt lat="43.53312" lon="5.62396">
        <ele>703</ele>
        <time>2022-10-19T08:17:15.410Z</time>
      </trkpt>
      <trkpt lat="43.53311" lon="5.62395">
        <ele>704</ele>
        <time>2022-10-19T08:17:16.410Z</time>
      </trkpt>
      <trkpt lat="43.53311" lon="5.62395">
        <ele>704</ele>
        <time>2022-10-19T08:17:17.410Z</time>
      </trkpt>
      <trkpt lat="43.53311" lon="5.62395">
        <ele>704</ele>
        <time>2022-10-19T08:17:18.410Z</time>
      </trkpt>
      <trkpt lat="43.53311" lon="5.62394">
        <ele>704</ele>
        <time>2022-10-19T08:17:19.410Z</time>
      </trkpt>
      <trkpt lat="43.5331" lon="5.62393">
        <ele>704</ele>
        <time>2022-10-19T08:17:20.410Z</time>
      </trkpt>
      <trkpt lat="43.5331" lon="5.62393">
        <ele>705</ele>
        <time>2022-10-19T08:17:21.410Z</time>
      </trkpt>
      <trkpt lat="43.5331" lon="5.62393">
        <ele>705</ele>
        <time>2022-10-19T08:17:22.410Z</time>
      </trkpt>
      <trkpt lat="43.53309" lon="5.62392">
        <ele>705</ele>
        <time>2022-10-19T08:17:23.410Z</time>
      </trkpt>
      <trkpt lat="43.53309" lon="5.62392">
        <ele>705</ele>
        <time>2022-10-19T08:17:24.410Z</time>
      </trkpt>
      <trkpt lat="43.53309" lon="5.62391">
        <ele>705</ele>
        <time>2022-10-19T08:17:25.410Z</time>
      </trkpt>
      <trkpt lat="43.53308" lon="5.62391">
        <ele>706</ele>
        <time>2022-10-19T08:17:26.410Z</time>
      </trkpt>
      <trkpt lat="43.53308" lon="5.6239">
        <ele>706</ele>
        <time>2022-10-19T08:17:27.410Z</time>
      </trkpt>
      <trkpt lat="43.53308" lon="5.6239">
        <ele>706</ele>
        <time>2022-10-19T08:17:28.410Z</time>
      </trkpt>
      <trkpt lat="43.53309" lon="5.62389">
        <ele>706</ele>
        <time>2022-10-19T08:17:29.410Z</time>
      </trkpt>
      <trkpt lat="43.53309" lon="5.62389">
        <ele>706</ele>
        <time>2022-10-19T08:17:30.410Z</time>
      </trkpt>
      <trkpt lat="43.53309" lon="5.62389">
        <ele>706</ele>
        <time>2022-10-19T08:17:31.410Z</time>
      </trkpt>
      <trkpt lat="43.53309" lon="5.62388">
        <ele>706</ele>
        <time>2022-10-19T08:17:32.410Z</time>
      </trkpt>
      <trkpt lat="43.53309" lon="5.62388">
        <ele>706</ele>
        <time>2022-10-19T08:17:33.410Z</time>
      </trkpt>
      <trkpt lat="43.53309" lon="5.62388">
        <ele>707</ele>
        <time>2022-10-19T08:17:34.410Z</time>
      </trkpt>
      <trkpt lat="43.53309" lon="5.62388">
        <ele>707</ele>
        <time>2022-10-19T08:17:35.410Z</time>
      </trkpt>
      <trkpt lat="43.53308" lon="5.62387">
        <ele>707</ele>
        <time>2022-10-19T08:17:36.410Z</time>
      </trkpt>
      <trkpt lat="43.53308" lon="5.62387">
        <ele>707</ele>
        <time>2022-10-19T08:17:37.410Z</time>
      </trkpt>
      <trkpt lat="43.53308" lon="5.62387">
        <ele>707</ele>
        <time>2022-10-19T08:17:38.410Z</time>
      </trkpt>
      <trkpt lat="43.53307" lon="5.62387">
        <ele>707</ele>
        <time>2022-10-19T08:17:39.410Z</time>
      </trkpt>
      <trkpt lat="43.53307" lon="5.62387">
        <ele>707</ele>
        <time>2022-10-19T08:17:40.410Z</time>
      </trkpt>
      <trkpt lat="43.53306" lon="5.62386">
        <ele>707</ele>
        <time>2022-10-19T08:17:41.410Z</time>
      </trkpt>
      <trkpt lat="43.53306" lon="5.62386">
        <ele>707</ele>
        <time>2022-10-19T08:17:42.410Z</time>
      </trkpt>
      <trkpt lat="43.53306" lon="5.62385">
        <ele>707</ele>
        <time>2022-10-19T08:17:43.410Z</time>
      </trkpt>
      <trkpt lat="43.53306" lon="5.62385">
        <ele>707</ele>
        <time>2022-10-19T08:17:44.410Z</time>
      </trkpt>
      <trkpt lat="43.53306" lon="5.62384">
        <ele>708</ele>
        <time>2022-10-19T08:17:45.410Z</time>
      </trkpt>
      <trkpt lat="43.53306" lon="5.62384">
        <ele>708</ele>
        <time>2022-10-19T08:17:46.410Z</time>
      </trkpt>
      <trkpt lat="43.53306" lon="5.62383">
        <ele>708</ele>
        <time>2022-10-19T08:17:47.410Z</time>
      </trkpt>
      <trkpt lat="43.53306" lon="5.62383">
        <ele>707</ele>
        <time>2022-10-19T08:17:48.410Z</time>
      </trkpt>
      <trkpt lat="43.53307" lon="5.62383">
        <ele>707</ele>
        <time>2022-10-19T08:17:49.410Z</time>
      </trkpt>
      <trkpt lat="43.53307" lon="5.62382">
        <ele>707</ele>
        <time>2022-10-19T08:17:50.410Z</time>
      </trkpt>
      <trkpt lat="43.53307" lon="5.62382">
        <ele>707</ele>
        <time>2022-10-19T08:17:51.410Z</time>
      </trkpt>
      <trkpt lat="43.53307" lon="5.62382">
        <ele>707</ele>
        <time>2022-10-19T08:17:52.410Z</time>
      </trkpt>
      <trkpt lat="43.53307" lon="5.62381">
        <ele>707</ele>
        <time>2022-10-19T08:17:53.410Z</time>
      </trkpt>
      <trkpt lat="43.53307" lon="5.62381">
        <ele>707</ele>
        <time>2022-10-19T08:17:54.410Z</time>
      </trkpt>
      <trkpt lat="43.53307" lon="5.6238">
        <ele>707</ele>
        <time>2022-10-19T08:17:55.410Z</time>
      </trkpt>
      <trkpt lat="43.53307" lon="5.6238">
        <ele>707</ele>
        <time>2022-10-19T08:17:56.410Z</time>
      </trkpt>
      <trkpt lat="43.53307" lon="5.6238">
        <ele>707</ele>
        <time>2022-10-19T08:17:57.410Z</time>
      </trkpt>
      <trkpt lat="43.53307" lon="5.6238">
        <ele>707</ele>
        <time>2022-10-19T08:17:58.410Z</time>
      </trkpt>
      <trkpt lat="43.53307" lon="5.62379">
        <ele>707</ele>
        <time>2022-10-19T08:17:59.410Z</time>
      </trkpt>
      <trkpt lat="43.53307" lon="5.62379">
        <ele>708</ele>
        <time>2022-10-19T08:18:00.410Z</time>
      </trkpt>
      <trkpt lat="43.53306" lon="5.62379">
        <ele>708</ele>
        <time>2022-10-19T08:18:01.410Z</time>
      </trkpt>
      <trkpt lat="43.53306" lon="5.62379">
        <ele>708</ele>
        <time>2022-10-19T08:18:02.410Z</time>
      </trkpt>
      <trkpt lat="43.53306" lon="5.62379">
        <ele>708</ele>
        <time>2022-10-19T08:18:03.410Z</time>
      </trkpt>
      <trkpt lat="43.53306" lon="5.62379">
        <ele>708</ele>
        <time>2022-10-19T08:18:04.410Z</time>
      </trkpt>
      <trkpt lat="43.53306" lon="5.62379">
        <ele>708</ele>
        <time>2022-10-19T08:18:05.410Z</time>
      </trkpt>
      <trkpt lat="43.53306" lon="5.62379">
        <ele>708</ele>
        <time>2022-10-19T08:18:06.410Z</time>
      </trkpt>
      <trkpt lat="43.53306" lon="5.62379">
        <ele>709</ele>
        <time>2022-10-19T08:18:07.410Z</time>
      </trkpt>
      <trkpt lat="43.53306" lon="5.62378">
        <ele>709</ele>
        <time>2022-10-19T08:18:08.410Z</time>
      </trkpt>
      <trkpt lat="43.53306" lon="5.62378">
        <ele>709</ele>
        <time>2022-10-19T08:18:09.410Z</time>
      </trkpt>
      <trkpt lat="43.53306" lon="5.62378">
        <ele>709</ele>
        <time>2022-10-19T08:18:10.410Z</time>
      </trkpt>
      <trkpt lat="43.53306" lon="5.62378">
        <ele>709</ele>
        <time>2022-10-19T08:18:11.410Z</time>
      </trkpt>
      <trkpt lat="43.53306" lon="5.62378">
        <ele>709</ele>
        <time>2022-10-19T08:18:12.410Z</time>
      </trkpt>
      <trkpt lat="43.53306" lon="5.62378">
        <ele>709</ele>
        <time>2022-10-19T08:18:13.410Z</time>
      </trkpt>
      <trkpt lat="43.53306" lon="5.62378">
        <ele>709</ele>
        <time>2022-10-19T08:18:14.410Z</time>
      </trkpt>
      <trkpt lat="43.53306" lon="5.62378">
        <ele>709</ele>
        <time>2022-10-19T08:18:15.410Z</time>
      </trkpt>
      <trkpt lat="43.53306" lon="5.62378">
        <ele>709</ele>
        <time>2022-10-19T08:18:16.410Z</time>
      </trkpt>
      <trkpt lat="43.53306" lon="5.62378">
        <ele>709</ele>
        <time>2022-10-19T08:18:17.410Z</time>
      </trkpt>
      <trkpt lat="43.53306" lon="5.62378">
        <ele>709</ele>
        <time>2022-10-19T08:18:18.410Z</time>
      </trkpt>
      <trkpt lat="43.53306" lon="5.62378">
        <ele>709</ele>
        <time>2022-10-19T08:18:19.410Z</time>
      </trkpt>
      <trkpt lat="43.53306" lon="5.62378">
        <ele>709</ele>
        <time>2022-10-19T08:18:20.410Z</time>
      </trkpt>
      <trkpt lat="43.53306" lon="5.62378">
        <ele>709</ele>
        <time>2022-10-19T08:18:21.410Z</time>
      </trkpt>
      <trkpt lat="43.53306" lon="5.62378">
        <ele>709</ele>
        <time>2022-10-19T08:18:22.410Z</time>
      </trkpt>
      <trkpt lat="43.53305" lon="5.62377">
        <ele>709</ele>
        <time>2022-10-19T08:18:23.410Z</time>
      </trkpt>
      <trkpt lat="43.53305" lon="5.62377">
        <ele>710</ele>
        <time>2022-10-19T08:18:24.410Z</time>
      </trkpt>
      <trkpt lat="43.53305" lon="5.62377">
        <ele>710</ele>
        <time>2022-10-19T08:18:25.410Z</time>
      </trkpt>
      <trkpt lat="43.53305" lon="5.62376">
        <ele>710</ele>
        <time>2022-10-19T08:18:26.410Z</time>
      </trkpt>
      <trkpt lat="43.53305" lon="5.62375">
        <ele>710</ele>
        <time>2022-10-19T08:18:27.410Z</time>
      </trkpt>
      <trkpt lat="43.53304" lon="5.62375">
        <ele>711</ele>
        <time>2022-10-19T08:18:28.410Z</time>
      </trkpt>
      <trkpt lat="43.53304" lon="5.62375">
        <ele>711</ele>
        <time>2022-10-19T08:18:29.410Z</time>
      </trkpt>
      <trkpt lat="43.53304" lon="5.62375">
        <ele>711</ele>
        <time>2022-10-19T08:18:30.410Z</time>
      </trkpt>
      <trkpt lat="43.53304" lon="5.62375">
        <ele>711</ele>
        <time>2022-10-19T08:18:31.410Z</time>
      </trkpt>
      <trkpt lat="43.53304" lon="5.62374">
        <ele>711</ele>
        <time>2022-10-19T08:18:32.410Z</time>
      </trkpt>
      <trkpt lat="43.53304" lon="5.62374">
        <ele>711</ele>
        <time>2022-10-19T08:18:33.410Z</time>
      </trkpt>
      <trkpt lat="43.53304" lon="5.62374">
        <ele>712</ele>
        <time>2022-10-19T08:18:34.410Z</time>
      </trkpt>
      <trkpt lat="43.53303" lon="5.62373">
        <ele>712</ele>
        <time>2022-10-19T08:18:35.410Z</time>
      </trkpt>
      <trkpt lat="43.53303" lon="5.62373">
        <ele>712</ele>
        <time>2022-10-19T08:18:36.410Z</time>
      </trkpt>
      <trkpt lat="43.53303" lon="5.62373">
        <ele>712</ele>
        <time>2022-10-19T08:18:37.410Z</time>
      </trkpt>
      <trkpt lat="43.53303" lon="5.62372">
        <ele>712</ele>
        <time>2022-10-19T08:18:38.410Z</time>
      </trkpt>
      <trkpt lat="43.53302" lon="5.62372">
        <ele>712</ele>
        <time>2022-10-19T08:18:39.410Z</time>
      </trkpt>
      <trkpt lat="43.53302" lon="5.62371">
        <ele>713</ele>
        <time>2022-10-19T08:18:40.410Z</time>
      </trkpt>
      <trkpt lat="43.53302" lon="5.62371">
        <ele>713</ele>
        <time>2022-10-19T08:18:41.410Z</time>
      </trkpt>
      <trkpt lat="43.53302" lon="5.62371">
        <ele>713</ele>
        <time>2022-10-19T08:18:42.410Z</time>
      </trkpt>
      <trkpt lat="43.53302" lon="5.62371">
        <ele>713</ele>
        <time>2022-10-19T08:18:43.410Z</time>
      </trkpt>
      <trkpt lat="43.53302" lon="5.62371">
        <ele>713</ele>
        <time>2022-10-19T08:18:44.410Z</time>
      </trkpt>
      <trkpt lat="43.53302" lon="5.62371">
        <ele>713</ele>
        <time>2022-10-19T08:18:45.410Z</time>
      </trkpt>
      <trkpt lat="43.53302" lon="5.62371">
        <ele>713</ele>
        <time>2022-10-19T08:18:46.410Z</time>
      </trkpt>
      <trkpt lat="43.53302" lon="5.62371">
        <ele>714</ele>
        <time>2022-10-19T08:18:47.410Z</time>
      </trkpt>
      <trkpt lat="43.53302" lon="5.62371">
        <ele>714</ele>
        <time>2022-10-19T08:18:48.410Z</time>
      </trkpt>
      <trkpt lat="43.53302" lon="5.62371">
        <ele>714</ele>
        <time>2022-10-19T08:18:49.410Z</time>
      </trkpt>
      <trkpt lat="43.53302" lon="5.62372">
        <ele>714</ele>
        <time>2022-10-19T08:18:50.410Z</time>
      </trkpt>
      <trkpt lat="43.53302" lon="5.62372">
        <ele>714</ele>
        <time>2022-10-19T08:18:51.410Z</time>
      </trkpt>
      <trkpt lat="43.53302" lon="5.62372">
        <ele>714</ele>
        <time>2022-10-19T08:18:52.410Z</time>
      </trkpt>
      <trkpt lat="43.53302" lon="5.62372">
        <ele>714</ele>
        <time>2022-10-19T08:18:53.410Z</time>
      </trkpt>
      <trkpt lat="43.53302" lon="5.62372">
        <ele>714</ele>
        <time>2022-10-19T08:18:54.410Z</time>
      </trkpt>
      <trkpt lat="43.53302" lon="5.62372">
        <ele>714</ele>
        <time>2022-10-19T08:18:55.410Z</time>
      </trkpt>
      <trkpt lat="43.53302" lon="5.62372">
        <ele>714</ele>
        <time>2022-10-19T08:18:56.410Z</time>
      </trkpt>
      <trkpt lat="43.53302" lon="5.62371">
        <ele>714</ele>
        <time>2022-10-19T08:18:57.410Z</time>
      </trkpt>
      <trkpt lat="43.53302" lon="5.62371">
        <ele>714</ele>
        <time>2022-10-19T08:18:58.410Z</time>
      </trkpt>
      <trkpt lat="43.53302" lon="5.62371">
        <ele>714</ele>
        <time>2022-10-19T08:18:59.410Z</time>
      </trkpt>
      <trkpt lat="43.53302" lon="5.62371">
        <ele>714</ele>
        <time>2022-10-19T08:19:00.410Z</time>
      </trkpt>
      <trkpt lat="43.53302" lon="5.62371">
        <ele>714</ele>
        <time>2022-10-19T08:19:01.410Z</time>
      </trkpt>
      <trkpt lat="43.53302" lon="5.62371">
        <ele>714</ele>
        <time>2022-10-19T08:19:02.410Z</time>
      </trkpt>
      <trkpt lat="43.53302" lon="5.62371">
        <ele>715</ele>
        <time>2022-10-19T08:19:03.410Z</time>
      </trkpt>
      <trkpt lat="43.53302" lon="5.62371">
        <ele>715</ele>
        <time>2022-10-19T08:19:04.410Z</time>
      </trkpt>
      <trkpt lat="43.53302" lon="5.62371">
        <ele>715</ele>
        <time>2022-10-19T08:19:05.410Z</time>
      </trkpt>
      <trkpt lat="43.53302" lon="5.62371">
        <ele>715</ele>
        <time>2022-10-19T08:19:06.410Z</time>
      </trkpt>
      <trkpt lat="43.53302" lon="5.62371">
        <ele>715</ele>
        <time>2022-10-19T08:19:07.410Z</time>
      </trkpt>
      <trkpt lat="43.53302" lon="5.62371">
        <ele>715</ele>
        <time>2022-10-19T08:19:08.410Z</time>
      </trkpt>
      <trkpt lat="43.53302" lon="5.62371">
        <ele>715</ele>
        <time>2022-10-19T08:19:09.410Z</time>
      </trkpt>
      <trkpt lat="43.53302" lon="5.62371">
        <ele>715</ele>
        <time>2022-10-19T08:19:10.410Z</time>
      </trkpt>
      <trkpt lat="43.53302" lon="5.62371">
        <ele>715</ele>
        <time>2022-10-19T08:19:11.410Z</time>
      </trkpt>
      <trkpt lat="43.53302" lon="5.62371">
        <ele>715</ele>
        <time>2022-10-19T08:19:12.410Z</time>
      </trkpt>
      <trkpt lat="43.53302" lon="5.62371">
        <ele>715</ele>
        <time>2022-10-19T08:19:13.410Z</time>
      </trkpt>
      <trkpt lat="43.53302" lon="5.62372">
        <ele>715</ele>
        <time>2022-10-19T08:19:14.410Z</time>
      </trkpt>
      <trkpt lat="43.53302" lon="5.62372">
        <ele>715</ele>
        <time>2022-10-19T08:19:15.410Z</time>
      </trkpt>
      <trkpt lat="43.53302" lon="5.62372">
        <ele>715</ele>
        <time>2022-10-19T08:19:16.410Z</time>
      </trkpt>
      <trkpt lat="43.53302" lon="5.62372">
        <ele>715</ele>
        <time>2022-10-19T08:19:17.410Z</time>
      </trkpt>
      <trkpt lat="43.53302" lon="5.62372">
        <ele>715</ele>
        <time>2022-10-19T08:19:18.410Z</time>
      </trkpt>
      <trkpt lat="43.53302" lon="5.62372">
        <ele>715</ele>
        <time>2022-10-19T08:19:19.410Z</time>
      </trkpt>
      <trkpt lat="43.53302" lon="5.62372">
        <ele>715</ele>
        <time>2022-10-19T08:19:20.410Z</time>
      </trkpt>
      <trkpt lat="43.53302" lon="5.62372">
        <ele>715</ele>
        <time>2022-10-19T08:19:21.410Z</time>
      </trkpt>
      <trkpt lat="43.53302" lon="5.62372">
        <ele>715</ele>
        <time>2022-10-19T08:19:22.410Z</time>
      </trkpt>
      <trkpt lat="43.53302" lon="5.62372">
        <ele>715</ele>
        <time>2022-10-19T08:19:23.410Z</time>
      </trkpt>
      <trkpt lat="43.53302" lon="5.62372">
        <ele>715</ele>
        <time>2022-10-19T08:19:24.410Z</time>
      </trkpt>
      <trkpt lat="43.53302" lon="5.62372">
        <ele>715</ele>
        <time>2022-10-19T08:19:25.410Z</time>
      </trkpt>
      <trkpt lat="43.53302" lon="5.62372">
        <ele>715</ele>
        <time>2022-10-19T08:19:26.410Z</time>
      </trkpt>
      <trkpt lat="43.53302" lon="5.62372">
        <ele>715</ele>
        <time>2022-10-19T08:19:27.410Z</time>
      </trkpt>
      <trkpt lat="43.53302" lon="5.62372">
        <ele>715</ele>
        <time>2022-10-19T08:19:28.410Z</time>
      </trkpt>
      <trkpt lat="43.53302" lon="5.62372">
        <ele>715</ele>
        <time>2022-10-19T08:19:29.410Z</time>
      </trkpt>
      <trkpt lat="43.53302" lon="5.62372">
        <ele>715</ele>
        <time>2022-10-19T08:19:30.410Z</time>
      </trkpt>
      <trkpt lat="43.53302" lon="5.62372">
        <ele>715</ele>
        <time>2022-10-19T08:19:31.410Z</time>
      </trkpt>
      <trkpt lat="43.53302" lon="5.62372">
        <ele>715</ele>
        <time>2022-10-19T08:19:32.410Z</time>
      </trkpt>
      <trkpt lat="43.53302" lon="5.62372">
        <ele>715</ele>
        <time>2022-10-19T08:19:33.410Z</time>
      </trkpt>
      <trkpt lat="43.53302" lon="5.62372">
        <ele>715</ele>
        <time>2022-10-19T08:19:34.410Z</time>
      </trkpt>
      <trkpt lat="43.53302" lon="5.62372">
        <ele>715</ele>
        <time>2022-10-19T08:19:35.410Z</time>
      </trkpt>
      <trkpt lat="43.53302" lon="5.62372">
        <ele>715</ele>
        <time>2022-10-19T08:19:36.410Z</time>
      </trkpt>
      <trkpt lat="43.53302" lon="5.62372">
        <ele>715</ele>
        <time>2022-10-19T08:19:37.410Z</time>
      </trkpt>
      <trkpt lat="43.53302" lon="5.62372">
        <ele>715</ele>
        <time>2022-10-19T08:19:38.410Z</time>
      </trkpt>
      <trkpt lat="43.53302" lon="5.62372">
        <ele>715</ele>
        <time>2022-10-19T08:19:39.410Z</time>
      </trkpt>
      <trkpt lat="43.53302" lon="5.62372">
        <ele>715</ele>
        <time>2022-10-19T08:19:40.410Z</time>
      </trkpt>
      <trkpt lat="43.53302" lon="5.62372">
        <ele>715</ele>
        <time>2022-10-19T08:19:41.410Z</time>
      </trkpt>
      <trkpt lat="43.53302" lon="5.62372">
        <ele>715</ele>
        <time>2022-10-19T08:19:42.410Z</time>
      </trkpt>
      <trkpt lat="43.53302" lon="5.62372">
        <ele>715</ele>
        <time>2022-10-19T08:19:43.410Z</time>
      </trkpt>
      <trkpt lat="43.53302" lon="5.62372">
        <ele>715</ele>
        <time>2022-10-19T08:19:44.410Z</time>
      </trkpt>
      <trkpt lat="43.53302" lon="5.62372">
        <ele>715</ele>
        <time>2022-10-19T08:19:45.410Z</time>
      </trkpt>
      <trkpt lat="43.53302" lon="5.62372">
        <ele>715</ele>
        <time>2022-10-19T08:19:46.410Z</time>
      </trkpt>
      <trkpt lat="43.53302" lon="5.62372">
        <ele>715</ele>
        <time>2022-10-19T08:19:47.410Z</time>
      </trkpt>
      <trkpt lat="43.53302" lon="5.62372">
        <ele>715</ele>
        <time>2022-10-19T08:19:48.410Z</time>
      </trkpt>
      <trkpt lat="43.53302" lon="5.62372">
        <ele>715</ele>
        <time>2022-10-19T08:19:49.410Z</time>
      </trkpt>
      <trkpt lat="43.53302" lon="5.62372">
        <ele>715</ele>
        <time>2022-10-19T08:19:50.410Z</time>
      </trkpt>
      <trkpt lat="43.53302" lon="5.62372">
        <ele>715</ele>
        <time>2022-10-19T08:19:51.410Z</time>
      </trkpt>
      <trkpt lat="43.53302" lon="5.62372">
        <ele>715</ele>
        <time>2022-10-19T08:19:52.410Z</time>
      </trkpt>
      <trkpt lat="43.53302" lon="5.62372">
        <ele>715</ele>
        <time>2022-10-19T08:19:53.410Z</time>
      </trkpt>
      <trkpt lat="43.53302" lon="5.62372">
        <ele>715</ele>
        <time>2022-10-19T08:19:54.410Z</time>
      </trkpt>
      <trkpt lat="43.53302" lon="5.62372">
        <ele>715</ele>
        <time>2022-10-19T08:19:55.410Z</time>
      </trkpt>
      <trkpt lat="43.53302" lon="5.62372">
        <ele>715</ele>
        <time>2022-10-19T08:19:56.410Z</time>
      </trkpt>
      <trkpt lat="43.53302" lon="5.62372">
        <ele>715</ele>
        <time>2022-10-19T08:19:57.410Z</time>
      </trkpt>
      <trkpt lat="43.53302" lon="5.62372">
        <ele>715</ele>
        <time>2022-10-19T08:19:58.410Z</time>
      </trkpt>
      <trkpt lat="43.53302" lon="5.62372">
        <ele>715</ele>
        <time>2022-10-19T08:19:59.410Z</time>
      </trkpt>
      <trkpt lat="43.53302" lon="5.62372">
        <ele>715</ele>
        <time>2022-10-19T08:20:00.410Z</time>
      </trkpt>
      <trkpt lat="43.53302" lon="5.62372">
        <ele>715</ele>
        <time>2022-10-19T08:20:01.410Z</time>
      </trkpt>
      <trkpt lat="43.53302" lon="5.62372">
        <ele>715</ele>
        <time>2022-10-19T08:20:02.410Z</time>
      </trkpt>
      <trkpt lat="43.53302" lon="5.62372">
        <ele>715</ele>
        <time>2022-10-19T08:20:03.410Z</time>
      </trkpt>
      <trkpt lat="43.53302" lon="5.62372">
        <ele>715</ele>
        <time>2022-10-19T08:20:04.410Z</time>
      </trkpt>
      <trkpt lat="43.53302" lon="5.62372">
        <ele>715</ele>
        <time>2022-10-19T08:20:05.410Z</time>
      </trkpt>
      <trkpt lat="43.53302" lon="5.62372">
        <ele>715</ele>
        <time>2022-10-19T08:20:06.410Z</time>
      </trkpt>
      <trkpt lat="43.53302" lon="5.62372">
        <ele>715</ele>
        <time>2022-10-19T08:20:07.410Z</time>
      </trkpt>
      <trkpt lat="43.53302" lon="5.62372">
        <ele>715</ele>
        <time>2022-10-19T08:20:08.410Z</time>
      </trkpt>
      <trkpt lat="43.53302" lon="5.62372">
        <ele>715</ele>
        <time>2022-10-19T08:20:09.410Z</time>
      </trkpt>
      <trkpt lat="43.53302" lon="5.62372">
        <ele>715</ele>
        <time>2022-10-19T08:20:10.410Z</time>
      </trkpt>
      <trkpt lat="43.53302" lon="5.62372">
        <ele>715</ele>
        <time>2022-10-19T08:20:11.410Z</time>
      </trkpt>
      <trkpt lat="43.53302" lon="5.62372">
        <ele>715</ele>
        <time>2022-10-19T08:20:12.410Z</time>
      </trkpt>
      <trkpt lat="43.53302" lon="5.62372">
        <ele>715</ele>
        <time>2022-10-19T08:20:13.410Z</time>
      </trkpt>
      <trkpt lat="43.53302" lon="5.62372">
        <ele>715</ele>
        <time>2022-10-19T08:20:14.410Z</time>
      </trkpt>
      <trkpt lat="43.53302" lon="5.62372">
        <ele>715</ele>
        <time>2022-10-19T08:20:15.410Z</time>
      </trkpt>
      <trkpt lat="43.53302" lon="5.62372">
        <ele>715</ele>
        <time>2022-10-19T08:20:16.410Z</time>
      </trkpt>
      <trkpt lat="43.53302" lon="5.62372">
        <ele>715</ele>
        <time>2022-10-19T08:20:17.410Z</time>
      </trkpt>
      <trkpt lat="43.53302" lon="5.62371">
        <ele>715</ele>
        <time>2022-10-19T08:20:18.410Z</time>
      </trkpt>
      <trkpt lat="43.53302" lon="5.62371">
        <ele>715</ele>
        <time>2022-10-19T08:20:19.410Z</time>
      </trkpt>
      <trkpt lat="43.53302" lon="5.62371">
        <ele>715</ele>
        <time>2022-10-19T08:20:20.410Z</time>
      </trkpt>
      <trkpt lat="43.53302" lon="5.62371">
        <ele>715</ele>
        <time>2022-10-19T08:20:21.410Z</time>
      </trkpt>
      <trkpt lat="43.53302" lon="5.62371">
        <ele>715</ele>
        <time>2022-10-19T08:20:22.410Z</time>
      </trkpt>
      <trkpt lat="43.53302" lon="5.62371">
        <ele>715</ele>
        <time>2022-10-19T08:20:23.410Z</time>
      </trkpt>
      <trkpt lat="43.53302" lon="5.62371">
        <ele>715</ele>
        <time>2022-10-19T08:20:24.410Z</time>
      </trkpt>
      <trkpt lat="43.53302" lon="5.62371">
        <ele>715</ele>
        <time>2022-10-19T08:20:25.410Z</time>
      </trkpt>
      <trkpt lat="43.53302" lon="5.62371">
        <ele>715</ele>
        <time>2022-10-19T08:20:26.410Z</time>
      </trkpt>
      <trkpt lat="43.53302" lon="5.62371">
        <ele>715</ele>
        <time>2022-10-19T08:20:27.410Z</time>
      </trkpt>
      <trkpt lat="43.53302" lon="5.62371">
        <ele>715</ele>
        <time>2022-10-19T08:20:28.410Z</time>
      </trkpt>
      <trkpt lat="43.53302" lon="5.62371">
        <ele>715</ele>
        <time>2022-10-19T08:20:29.410Z</time>
      </trkpt>
      <trkpt lat="43.53302" lon="5.62371">
        <ele>715</ele>
        <time>2022-10-19T08:20:30.410Z</time>
      </trkpt>
      <trkpt lat="43.53302" lon="5.62371">
        <ele>715</ele>
        <time>2022-10-19T08:20:31.410Z</time>
      </trkpt>
      <trkpt lat="43.53302" lon="5.62371">
        <ele>715</ele>
        <time>2022-10-19T08:20:32.410Z</time>
      </trkpt>
      <trkpt lat="43.53302" lon="5.62371">
        <ele>715</ele>
        <time>2022-10-19T08:20:33.410Z</time>
      </trkpt>
      <trkpt lat="43.53302" lon="5.62371">
        <ele>715</ele>
        <time>2022-10-19T08:20:34.410Z</time>
      </trkpt>
      <trkpt lat="43.53302" lon="5.62371">
        <ele>715</ele>
        <time>2022-10-19T08:20:35.410Z</time>
      </trkpt>
      <trkpt lat="43.53302" lon="5.62371">
        <ele>715</ele>
        <time>2022-10-19T08:20:36.410Z</time>
      </trkpt>
      <trkpt lat="43.53301" lon="5.6237">
        <ele>715</ele>
        <time>2022-10-19T08:20:37.410Z</time>
      </trkpt>
      <trkpt lat="43.53301" lon="5.6237">
        <ele>715</ele>
        <time>2022-10-19T08:20:38.410Z</time>
      </trkpt>
      <trkpt lat="43.53301" lon="5.62369">
        <ele>715</ele>
        <time>2022-10-19T08:20:39.410Z</time>
      </trkpt>
      <trkpt lat="43.53301" lon="5.62369">
        <ele>715</ele>
        <time>2022-10-19T08:20:40.410Z</time>
      </trkpt>
      <trkpt lat="43.533" lon="5.62369">
        <ele>715</ele>
        <time>2022-10-19T08:20:41.410Z</time>
      </trkpt>
      <trkpt lat="43.53299" lon="5.62368">
        <ele>715</ele>
        <time>2022-10-19T08:20:42.410Z</time>
      </trkpt>
      <trkpt lat="43.53299" lon="5.62368">
        <ele>715</ele>
        <time>2022-10-19T08:20:43.410Z</time>
      </trkpt>
      <trkpt lat="43.53299" lon="5.62367">
        <ele>715</ele>
        <time>2022-10-19T08:20:44.410Z</time>
      </trkpt>
      <trkpt lat="43.53298" lon="5.62367">
        <ele>715</ele>
        <time>2022-10-19T08:20:45.410Z</time>
      </trkpt>
      <trkpt lat="43.53298" lon="5.62366">
        <ele>716</ele>
        <time>2022-10-19T08:20:46.410Z</time>
      </trkpt>
      <trkpt lat="43.53297" lon="5.62366">
        <ele>716</ele>
        <time>2022-10-19T08:20:47.410Z</time>
      </trkpt>
      <trkpt lat="43.53297" lon="5.62365">
        <ele>716</ele>
        <time>2022-10-19T08:20:48.410Z</time>
      </trkpt>
      <trkpt lat="43.53297" lon="5.62364">
        <ele>716</ele>
        <time>2022-10-19T08:20:49.410Z</time>
      </trkpt>
      <trkpt lat="43.53298" lon="5.62364">
        <ele>716</ele>
        <time>2022-10-19T08:20:50.410Z</time>
      </trkpt>
      <trkpt lat="43.53298" lon="5.62363">
        <ele>716</ele>
        <time>2022-10-19T08:20:51.410Z</time>
      </trkpt>
      <trkpt lat="43.53298" lon="5.62363">
        <ele>716</ele>
        <time>2022-10-19T08:20:52.410Z</time>
      </trkpt>
      <trkpt lat="43.53299" lon="5.62362">
        <ele>716</ele>
        <time>2022-10-19T08:20:53.410Z</time>
      </trkpt>
      <trkpt lat="43.53299" lon="5.62362">
        <ele>716</ele>
        <time>2022-10-19T08:20:54.410Z</time>
      </trkpt>
      <trkpt lat="43.533" lon="5.62362">
        <ele>716</ele>
        <time>2022-10-19T08:20:55.410Z</time>
      </trkpt>
      <trkpt lat="43.533" lon="5.62362">
        <ele>716</ele>
        <time>2022-10-19T08:20:56.410Z</time>
      </trkpt>
      <trkpt lat="43.533" lon="5.62362">
        <ele>717</ele>
        <time>2022-10-19T08:20:57.410Z</time>
      </trkpt>
      <trkpt lat="43.53301" lon="5.62361">
        <ele>717</ele>
        <time>2022-10-19T08:20:58.410Z</time>
      </trkpt>
      <trkpt lat="43.53301" lon="5.62361">
        <ele>717</ele>
        <time>2022-10-19T08:20:59.410Z</time>
      </trkpt>
      <trkpt lat="43.53302" lon="5.62361">
        <ele>717</ele>
        <time>2022-10-19T08:21:00.410Z</time>
      </trkpt>
      <trkpt lat="43.53302" lon="5.62361">
        <ele>717</ele>
        <time>2022-10-19T08:21:01.410Z</time>
      </trkpt>
      <trkpt lat="43.53303" lon="5.62361">
        <ele>717</ele>
        <time>2022-10-19T08:21:02.410Z</time>
      </trkpt>
      <trkpt lat="43.53303" lon="5.62361">
        <ele>717</ele>
        <time>2022-10-19T08:21:03.410Z</time>
      </trkpt>
      <trkpt lat="43.53304" lon="5.62361">
        <ele>717</ele>
        <time>2022-10-19T08:21:04.410Z</time>
      </trkpt>
      <trkpt lat="43.53304" lon="5.6236">
        <ele>717</ele>
        <time>2022-10-19T08:21:05.410Z</time>
      </trkpt>
      <trkpt lat="43.53305" lon="5.6236">
        <ele>717</ele>
        <time>2022-10-19T08:21:06.410Z</time>
      </trkpt>
      <trkpt lat="43.53305" lon="5.6236">
        <ele>717</ele>
        <time>2022-10-19T08:21:07.410Z</time>
      </trkpt>
      <trkpt lat="43.53306" lon="5.6236">
        <ele>717</ele>
        <time>2022-10-19T08:21:08.410Z</time>
      </trkpt>
      <trkpt lat="43.53306" lon="5.6236">
        <ele>718</ele>
        <time>2022-10-19T08:21:09.410Z</time>
      </trkpt>
      <trkpt lat="43.53306" lon="5.6236">
        <ele>718</ele>
        <time>2022-10-19T08:21:10.410Z</time>
      </trkpt>
      <trkpt lat="43.53307" lon="5.6236">
        <ele>718</ele>
        <time>2022-10-19T08:21:11.410Z</time>
      </trkpt>
      <trkpt lat="43.53307" lon="5.62359">
        <ele>718</ele>
        <time>2022-10-19T08:21:12.410Z</time>
      </trkpt>
      <trkpt lat="43.53307" lon="5.62359">
        <ele>718</ele>
        <time>2022-10-19T08:21:13.410Z</time>
      </trkpt>
      <trkpt lat="43.53307" lon="5.62358">
        <ele>718</ele>
        <time>2022-10-19T08:21:14.410Z</time>
      </trkpt>
      <trkpt lat="43.53306" lon="5.62357">
        <ele>718</ele>
        <time>2022-10-19T08:21:15.410Z</time>
      </trkpt>
      <trkpt lat="43.53306" lon="5.62357">
        <ele>718</ele>
        <time>2022-10-19T08:21:16.410Z</time>
      </trkpt>
      <trkpt lat="43.53306" lon="5.62357">
        <ele>719</ele>
        <time>2022-10-19T08:21:17.410Z</time>
      </trkpt>
      <trkpt lat="43.53305" lon="5.62356">
        <ele>719</ele>
        <time>2022-10-19T08:21:18.410Z</time>
      </trkpt>
      <trkpt lat="43.53305" lon="5.62356">
        <ele>719</ele>
        <time>2022-10-19T08:21:19.410Z</time>
      </trkpt>
      <trkpt lat="43.53305" lon="5.62356">
        <ele>719</ele>
        <time>2022-10-19T08:21:20.410Z</time>
      </trkpt>
      <trkpt lat="43.53304" lon="5.62355">
        <ele>720</ele>
        <time>2022-10-19T08:21:21.410Z</time>
      </trkpt>
      <trkpt lat="43.53304" lon="5.62355">
        <ele>720</ele>
        <time>2022-10-19T08:21:22.410Z</time>
      </trkpt>
      <trkpt lat="43.53303" lon="5.62354">
        <ele>720</ele>
        <time>2022-10-19T08:21:23.410Z</time>
      </trkpt>
      <trkpt lat="43.53303" lon="5.62354">
        <ele>720</ele>
        <time>2022-10-19T08:21:24.410Z</time>
      </trkpt>
      <trkpt lat="43.53303" lon="5.62354">
        <ele>721</ele>
        <time>2022-10-19T08:21:25.410Z</time>
      </trkpt>
      <trkpt lat="43.53303" lon="5.62353">
        <ele>721</ele>
        <time>2022-10-19T08:21:26.410Z</time>
      </trkpt>
      <trkpt lat="43.53302" lon="5.62353">
        <ele>721</ele>
        <time>2022-10-19T08:21:27.410Z</time>
      </trkpt>
      <trkpt lat="43.53302" lon="5.62353">
        <ele>721</ele>
        <time>2022-10-19T08:21:28.410Z</time>
      </trkpt>
      <trkpt lat="43.53302" lon="5.62352">
        <ele>721</ele>
        <time>2022-10-19T08:21:29.410Z</time>
      </trkpt>
      <trkpt lat="43.53301" lon="5.62352">
        <ele>721</ele>
        <time>2022-10-19T08:21:30.410Z</time>
      </trkpt>
      <trkpt lat="43.53301" lon="5.62351">
        <ele>722</ele>
        <time>2022-10-19T08:21:31.410Z</time>
      </trkpt>
      <trkpt lat="43.53301" lon="5.62351">
        <ele>722</ele>
        <time>2022-10-19T08:21:32.410Z</time>
      </trkpt>
      <trkpt lat="43.53301" lon="5.6235">
        <ele>722</ele>
        <time>2022-10-19T08:21:33.410Z</time>
      </trkpt>
      <trkpt lat="43.53301" lon="5.6235">
        <ele>722</ele>
        <time>2022-10-19T08:21:34.410Z</time>
      </trkpt>
      <trkpt lat="43.53301" lon="5.62349">
        <ele>722</ele>
        <time>2022-10-19T08:21:35.410Z</time>
      </trkpt>
      <trkpt lat="43.53301" lon="5.62349">
        <ele>722</ele>
        <time>2022-10-19T08:21:36.410Z</time>
      </trkpt>
      <trkpt lat="43.533" lon="5.62348">
        <ele>723</ele>
        <time>2022-10-19T08:21:37.410Z</time>
      </trkpt>
      <trkpt lat="43.533" lon="5.62348">
        <ele>723</ele>
        <time>2022-10-19T08:21:38.410Z</time>
      </trkpt>
      <trkpt lat="43.533" lon="5.62348">
        <ele>723</ele>
        <time>2022-10-19T08:21:39.410Z</time>
      </trkpt>
      <trkpt lat="43.533" lon="5.62347">
        <ele>723</ele>
        <time>2022-10-19T08:21:40.410Z</time>
      </trkpt>
      <trkpt lat="43.53299" lon="5.62347">
        <ele>723</ele>
        <time>2022-10-19T08:21:41.410Z</time>
      </trkpt>
      <trkpt lat="43.53299" lon="5.62346">
        <ele>724</ele>
        <time>2022-10-19T08:21:42.410Z</time>
      </trkpt>
      <trkpt lat="43.53299" lon="5.62346">
        <ele>724</ele>
        <time>2022-10-19T08:21:43.410Z</time>
      </trkpt>
      <trkpt lat="43.53299" lon="5.62345">
        <ele>724</ele>
        <time>2022-10-19T08:21:44.410Z</time>
      </trkpt>
      <trkpt lat="43.53299" lon="5.62345">
        <ele>724</ele>
        <time>2022-10-19T08:21:45.410Z</time>
      </trkpt>
      <trkpt lat="43.53298" lon="5.62344">
        <ele>724</ele>
        <time>2022-10-19T08:21:46.410Z</time>
      </trkpt>
      <trkpt lat="43.53298" lon="5.62344">
        <ele>724</ele>
        <time>2022-10-19T08:21:47.410Z</time>
      </trkpt>
      <trkpt lat="43.53298" lon="5.62343">
        <ele>725</ele>
        <time>2022-10-19T08:21:48.410Z</time>
      </trkpt>
      <trkpt lat="43.53298" lon="5.62342">
        <ele>725</ele>
        <time>2022-10-19T08:21:49.410Z</time>
      </trkpt>
      <trkpt lat="43.53298" lon="5.62342">
        <ele>725</ele>
        <time>2022-10-19T08:21:50.410Z</time>
      </trkpt>
      <trkpt lat="43.53298" lon="5.62342">
        <ele>725</ele>
        <time>2022-10-19T08:21:51.410Z</time>
      </trkpt>
      <trkpt lat="43.53298" lon="5.62341">
        <ele>725</ele>
        <time>2022-10-19T08:21:52.410Z</time>
      </trkpt>
      <trkpt lat="43.53297" lon="5.62341">
        <ele>725</ele>
        <time>2022-10-19T08:21:53.410Z</time>
      </trkpt>
      <trkpt lat="43.53297" lon="5.6234">
        <ele>725</ele>
        <time>2022-10-19T08:21:54.410Z</time>
      </trkpt>
      <trkpt lat="43.53297" lon="5.6234">
        <ele>725</ele>
        <time>2022-10-19T08:21:55.410Z</time>
      </trkpt>
      <trkpt lat="43.53297" lon="5.62339">
        <ele>726</ele>
        <time>2022-10-19T08:21:56.410Z</time>
      </trkpt>
      <trkpt lat="43.53296" lon="5.62339">
        <ele>726</ele>
        <time>2022-10-19T08:21:57.410Z</time>
      </trkpt>
      <trkpt lat="43.53296" lon="5.62339">
        <ele>726</ele>
        <time>2022-10-19T08:21:58.410Z</time>
      </trkpt>
      <trkpt lat="43.53295" lon="5.62338">
        <ele>726</ele>
        <time>2022-10-19T08:21:59.410Z</time>
      </trkpt>
      <trkpt lat="43.53295" lon="5.62338">
        <ele>726</ele>
        <time>2022-10-19T08:22:00.410Z</time>
      </trkpt>
      <trkpt lat="43.53295" lon="5.62338">
        <ele>726</ele>
        <time>2022-10-19T08:22:01.410Z</time>
      </trkpt>
      <trkpt lat="43.53294" lon="5.62337">
        <ele>726</ele>
        <time>2022-10-19T08:22:02.410Z</time>
      </trkpt>
      <trkpt lat="43.53294" lon="5.62337">
        <ele>726</ele>
        <time>2022-10-19T08:22:03.410Z</time>
      </trkpt>
      <trkpt lat="43.53294" lon="5.62336">
        <ele>727</ele>
        <time>2022-10-19T08:22:04.410Z</time>
      </trkpt>
      <trkpt lat="43.53294" lon="5.62336">
        <ele>727</ele>
        <time>2022-10-19T08:22:05.410Z</time>
      </trkpt>
      <trkpt lat="43.53294" lon="5.62335">
        <ele>727</ele>
        <time>2022-10-19T08:22:06.410Z</time>
      </trkpt>
      <trkpt lat="43.53294" lon="5.62335">
        <ele>727</ele>
        <time>2022-10-19T08:22:07.410Z</time>
      </trkpt>
      <trkpt lat="43.53294" lon="5.62335">
        <ele>727</ele>
        <time>2022-10-19T08:22:08.410Z</time>
      </trkpt>
      <trkpt lat="43.53294" lon="5.62335">
        <ele>727</ele>
        <time>2022-10-19T08:22:09.410Z</time>
      </trkpt>
      <trkpt lat="43.53294" lon="5.62334">
        <ele>727</ele>
        <time>2022-10-19T08:22:10.410Z</time>
      </trkpt>
      <trkpt lat="43.53294" lon="5.62334">
        <ele>727</ele>
        <time>2022-10-19T08:22:11.410Z</time>
      </trkpt>
      <trkpt lat="43.53295" lon="5.62334">
        <ele>727</ele>
        <time>2022-10-19T08:22:12.410Z</time>
      </trkpt>
      <trkpt lat="43.53295" lon="5.62334">
        <ele>727</ele>
        <time>2022-10-19T08:22:13.410Z</time>
      </trkpt>
      <trkpt lat="43.53295" lon="5.62334">
        <ele>727</ele>
        <time>2022-10-19T08:22:14.410Z</time>
      </trkpt>
      <trkpt lat="43.53295" lon="5.62334">
        <ele>727</ele>
        <time>2022-10-19T08:22:15.410Z</time>
      </trkpt>
      <trkpt lat="43.53296" lon="5.62335">
        <ele>727</ele>
        <time>2022-10-19T08:22:16.410Z</time>
      </trkpt>
      <trkpt lat="43.53296" lon="5.62335">
        <ele>728</ele>
        <time>2022-10-19T08:22:17.410Z</time>
      </trkpt>
      <trkpt lat="43.53296" lon="5.62335">
        <ele>728</ele>
        <time>2022-10-19T08:22:18.410Z</time>
      </trkpt>
      <trkpt lat="43.53296" lon="5.62335">
        <ele>728</ele>
        <time>2022-10-19T08:22:19.410Z</time>
      </trkpt>
      <trkpt lat="43.53297" lon="5.62335">
        <ele>728</ele>
        <time>2022-10-19T08:22:20.410Z</time>
      </trkpt>
      <trkpt lat="43.53297" lon="5.62335">
        <ele>728</ele>
        <time>2022-10-19T08:22:21.410Z</time>
      </trkpt>
      <trkpt lat="43.53297" lon="5.62335">
        <ele>728</ele>
        <time>2022-10-19T08:22:22.410Z</time>
      </trkpt>
      <trkpt lat="43.53297" lon="5.62335">
        <ele>728</ele>
        <time>2022-10-19T08:22:23.410Z</time>
      </trkpt>
      <trkpt lat="43.53298" lon="5.62334">
        <ele>728</ele>
        <time>2022-10-19T08:22:24.410Z</time>
      </trkpt>
      <trkpt lat="43.53298" lon="5.62334">
        <ele>728</ele>
        <time>2022-10-19T08:22:25.410Z</time>
      </trkpt>
      <trkpt lat="43.53298" lon="5.62334">
        <ele>728</ele>
        <time>2022-10-19T08:22:26.410Z</time>
      </trkpt>
      <trkpt lat="43.53298" lon="5.62334">
        <ele>728</ele>
        <time>2022-10-19T08:22:27.410Z</time>
      </trkpt>
      <trkpt lat="43.53299" lon="5.62334">
        <ele>729</ele>
        <time>2022-10-19T08:22:28.410Z</time>
      </trkpt>
      <trkpt lat="43.53299" lon="5.62334">
        <ele>729</ele>
        <time>2022-10-19T08:22:29.410Z</time>
      </trkpt>
      <trkpt lat="43.53299" lon="5.62334">
        <ele>729</ele>
        <time>2022-10-19T08:22:30.410Z</time>
      </trkpt>
      <trkpt lat="43.53299" lon="5.62334">
        <ele>729</ele>
        <time>2022-10-19T08:22:31.410Z</time>
      </trkpt>
      <trkpt lat="43.53299" lon="5.62334">
        <ele>729</ele>
        <time>2022-10-19T08:22:32.410Z</time>
      </trkpt>
      <trkpt lat="43.53299" lon="5.62334">
        <ele>729</ele>
        <time>2022-10-19T08:22:33.410Z</time>
      </trkpt>
      <trkpt lat="43.53299" lon="5.62334">
        <ele>729</ele>
        <time>2022-10-19T08:22:34.410Z</time>
      </trkpt>
      <trkpt lat="43.53299" lon="5.62333">
        <ele>729</ele>
        <time>2022-10-19T08:22:35.410Z</time>
      </trkpt>
      <trkpt lat="43.53299" lon="5.62333">
        <ele>729</ele>
        <time>2022-10-19T08:22:36.410Z</time>
      </trkpt>
      <trkpt lat="43.53299" lon="5.62333">
        <ele>729</ele>
        <time>2022-10-19T08:22:37.410Z</time>
      </trkpt>
      <trkpt lat="43.53299" lon="5.62333">
        <ele>729</ele>
        <time>2022-10-19T08:22:38.410Z</time>
      </trkpt>
      <trkpt lat="43.533" lon="5.62333">
        <ele>729</ele>
        <time>2022-10-19T08:22:39.410Z</time>
      </trkpt>
      <trkpt lat="43.533" lon="5.62333">
        <ele>729</ele>
        <time>2022-10-19T08:22:40.410Z</time>
      </trkpt>
      <trkpt lat="43.53301" lon="5.62333">
        <ele>729</ele>
        <time>2022-10-19T08:22:41.410Z</time>
      </trkpt>
      <trkpt lat="43.53301" lon="5.62333">
        <ele>729</ele>
        <time>2022-10-19T08:22:42.410Z</time>
      </trkpt>
      <trkpt lat="43.53301" lon="5.62333">
        <ele>730</ele>
        <time>2022-10-19T08:22:43.410Z</time>
      </trkpt>
      <trkpt lat="43.53301" lon="5.62332">
        <ele>730</ele>
        <time>2022-10-19T08:22:44.410Z</time>
      </trkpt>
      <trkpt lat="43.53301" lon="5.62332">
        <ele>730</ele>
        <time>2022-10-19T08:22:45.410Z</time>
      </trkpt>
      <trkpt lat="43.53301" lon="5.62331">
        <ele>730</ele>
        <time>2022-10-19T08:22:46.410Z</time>
      </trkpt>
      <trkpt lat="43.533" lon="5.62331">
        <ele>731</ele>
        <time>2022-10-19T08:22:47.410Z</time>
      </trkpt>
      <trkpt lat="43.533" lon="5.6233">
        <ele>731</ele>
        <time>2022-10-19T08:22:48.410Z</time>
      </trkpt>
      <trkpt lat="43.53299" lon="5.6233">
        <ele>731</ele>
        <time>2022-10-19T08:22:49.410Z</time>
      </trkpt>
      <trkpt lat="43.53299" lon="5.62329">
        <ele>731</ele>
        <time>2022-10-19T08:22:50.410Z</time>
      </trkpt>
      <trkpt lat="43.53298" lon="5.62329">
        <ele>732</ele>
        <time>2022-10-19T08:22:51.410Z</time>
      </trkpt>
      <trkpt lat="43.53298" lon="5.62328">
        <ele>732</ele>
        <time>2022-10-19T08:22:52.410Z</time>
      </trkpt>
      <trkpt lat="43.53297" lon="5.62327">
        <ele>732</ele>
        <time>2022-10-19T08:22:53.410Z</time>
      </trkpt>
      <trkpt lat="43.53297" lon="5.62327">
        <ele>732</ele>
        <time>2022-10-19T08:22:54.410Z</time>
      </trkpt>
      <trkpt lat="43.53297" lon="5.62327">
        <ele>732</ele>
        <time>2022-10-19T08:22:55.410Z</time>
      </trkpt>
      <trkpt lat="43.53297" lon="5.62326">
        <ele>732</ele>
        <time>2022-10-19T08:22:56.410Z</time>
      </trkpt>
      <trkpt lat="43.53296" lon="5.62326">
        <ele>732</ele>
        <time>2022-10-19T08:22:57.410Z</time>
      </trkpt>
      <trkpt lat="43.53296" lon="5.62325">
        <ele>732</ele>
        <time>2022-10-19T08:22:58.410Z</time>
      </trkpt>
      <trkpt lat="43.53295" lon="5.62325">
        <ele>733</ele>
        <time>2022-10-19T08:22:59.410Z</time>
      </trkpt>
      <trkpt lat="43.53295" lon="5.62325">
        <ele>733</ele>
        <time>2022-10-19T08:23:00.410Z</time>
      </trkpt>
      <trkpt lat="43.53294" lon="5.62325">
        <ele>733</ele>
        <time>2022-10-19T08:23:01.410Z</time>
      </trkpt>
      <trkpt lat="43.53294" lon="5.62324">
        <ele>733</ele>
        <time>2022-10-19T08:23:02.410Z</time>
      </trkpt>
      <trkpt lat="43.53293" lon="5.62324">
        <ele>733</ele>
        <time>2022-10-19T08:23:03.410Z</time>
      </trkpt>
      <trkpt lat="43.53293" lon="5.62324">
        <ele>733</ele>
        <time>2022-10-19T08:23:04.410Z</time>
      </trkpt>
      <trkpt lat="43.53292" lon="5.62323">
        <ele>733</ele>
        <time>2022-10-19T08:23:05.410Z</time>
      </trkpt>
      <trkpt lat="43.53291" lon="5.62323">
        <ele>733</ele>
        <time>2022-10-19T08:23:06.410Z</time>
      </trkpt>
      <trkpt lat="43.53291" lon="5.62323">
        <ele>733</ele>
        <time>2022-10-19T08:23:07.410Z</time>
      </trkpt>
      <trkpt lat="43.53291" lon="5.62323">
        <ele>733</ele>
        <time>2022-10-19T08:23:08.410Z</time>
      </trkpt>
      <trkpt lat="43.5329" lon="5.62323">
        <ele>733</ele>
        <time>2022-10-19T08:23:09.410Z</time>
      </trkpt>
      <trkpt lat="43.5329" lon="5.62323">
        <ele>733</ele>
        <time>2022-10-19T08:23:10.410Z</time>
      </trkpt>
      <trkpt lat="43.53289" lon="5.62323">
        <ele>733</ele>
        <time>2022-10-19T08:23:11.410Z</time>
      </trkpt>
      <trkpt lat="43.53289" lon="5.62322">
        <ele>733</ele>
        <time>2022-10-19T08:23:12.410Z</time>
      </trkpt>
      <trkpt lat="43.53289" lon="5.62322">
        <ele>733</ele>
        <time>2022-10-19T08:23:13.410Z</time>
      </trkpt>
      <trkpt lat="43.53289" lon="5.62322">
        <ele>733</ele>
        <time>2022-10-19T08:23:14.410Z</time>
      </trkpt>
      <trkpt lat="43.53289" lon="5.62322">
        <ele>733</ele>
        <time>2022-10-19T08:23:15.410Z</time>
      </trkpt>
      <trkpt lat="43.53289" lon="5.62321">
        <ele>733</ele>
        <time>2022-10-19T08:23:16.410Z</time>
      </trkpt>
      <trkpt lat="43.53289" lon="5.62321">
        <ele>733</ele>
        <time>2022-10-19T08:23:17.410Z</time>
      </trkpt>
      <trkpt lat="43.53289" lon="5.62321">
        <ele>733</ele>
        <time>2022-10-19T08:23:18.410Z</time>
      </trkpt>
      <trkpt lat="43.53289" lon="5.62321">
        <ele>733</ele>
        <time>2022-10-19T08:23:19.410Z</time>
      </trkpt>
      <trkpt lat="43.53289" lon="5.62321">
        <ele>733</ele>
        <time>2022-10-19T08:23:20.410Z</time>
      </trkpt>
      <trkpt lat="43.53288" lon="5.62321">
        <ele>733</ele>
        <time>2022-10-19T08:23:21.410Z</time>
      </trkpt>
      <trkpt lat="43.53288" lon="5.62321">
        <ele>733</ele>
        <time>2022-10-19T08:23:22.410Z</time>
      </trkpt>
      <trkpt lat="43.53288" lon="5.62321">
        <ele>733</ele>
        <time>2022-10-19T08:23:23.410Z</time>
      </trkpt>
      <trkpt lat="43.53287" lon="5.6232">
        <ele>733</ele>
        <time>2022-10-19T08:23:24.410Z</time>
      </trkpt>
      <trkpt lat="43.53287" lon="5.6232">
        <ele>733</ele>
        <time>2022-10-19T08:23:25.410Z</time>
      </trkpt>
      <trkpt lat="43.53286" lon="5.62319">
        <ele>733</ele>
        <time>2022-10-19T08:23:26.410Z</time>
      </trkpt>
      <trkpt lat="43.53286" lon="5.62319">
        <ele>733</ele>
        <time>2022-10-19T08:23:27.410Z</time>
      </trkpt>
      <trkpt lat="43.53286" lon="5.62318">
        <ele>734</ele>
        <time>2022-10-19T08:23:28.410Z</time>
      </trkpt>
      <trkpt lat="43.53286" lon="5.62318">
        <ele>734</ele>
        <time>2022-10-19T08:23:29.410Z</time>
      </trkpt>
      <trkpt lat="43.53286" lon="5.62317">
        <ele>734</ele>
        <time>2022-10-19T08:23:30.410Z</time>
      </trkpt>
      <trkpt lat="43.53286" lon="5.62316">
        <ele>734</ele>
        <time>2022-10-19T08:23:31.410Z</time>
      </trkpt>
      <trkpt lat="43.53286" lon="5.62316">
        <ele>734</ele>
        <time>2022-10-19T08:23:32.410Z</time>
      </trkpt>
      <trkpt lat="43.53285" lon="5.62315">
        <ele>734</ele>
        <time>2022-10-19T08:23:33.410Z</time>
      </trkpt>
      <trkpt lat="43.53285" lon="5.62314">
        <ele>734</ele>
        <time>2022-10-19T08:23:34.410Z</time>
      </trkpt>
      <trkpt lat="43.53285" lon="5.62314">
        <ele>735</ele>
        <time>2022-10-19T08:23:35.410Z</time>
      </trkpt>
      <trkpt lat="43.53285" lon="5.62313">
        <ele>735</ele>
        <time>2022-10-19T08:23:36.410Z</time>
      </trkpt>
      <trkpt lat="43.53284" lon="5.62313">
        <ele>735</ele>
        <time>2022-10-19T08:23:37.410Z</time>
      </trkpt>
      <trkpt lat="43.53284" lon="5.62312">
        <ele>735</ele>
        <time>2022-10-19T08:23:38.410Z</time>
      </trkpt>
      <trkpt lat="43.53284" lon="5.62312">
        <ele>735</ele>
        <time>2022-10-19T08:23:39.410Z</time>
      </trkpt>
      <trkpt lat="43.53283" lon="5.62312">
        <ele>736</ele>
        <time>2022-10-19T08:23:40.410Z</time>
      </trkpt>
      <trkpt lat="43.53283" lon="5.62311">
        <ele>736</ele>
        <time>2022-10-19T08:23:41.410Z</time>
      </trkpt>
      <trkpt lat="43.53282" lon="5.6231">
        <ele>736</ele>
        <time>2022-10-19T08:23:42.410Z</time>
      </trkpt>
      <trkpt lat="43.53282" lon="5.6231">
        <ele>736</ele>
        <time>2022-10-19T08:23:43.410Z</time>
      </trkpt>
      <trkpt lat="43.53282" lon="5.62309">
        <ele>736</ele>
        <time>2022-10-19T08:23:44.410Z</time>
      </trkpt>
      <trkpt lat="43.53282" lon="5.62308">
        <ele>737</ele>
        <time>2022-10-19T08:23:45.410Z</time>
      </trkpt>
      <trkpt lat="43.53282" lon="5.62308">
        <ele>737</ele>
        <time>2022-10-19T08:23:46.410Z</time>
      </trkpt>
      <trkpt lat="43.53281" lon="5.62307">
        <ele>737</ele>
        <time>2022-10-19T08:23:47.410Z</time>
      </trkpt>
      <trkpt lat="43.53281" lon="5.62307">
        <ele>737</ele>
        <time>2022-10-19T08:23:48.410Z</time>
      </trkpt>
      <trkpt lat="43.53281" lon="5.62306">
        <ele>737</ele>
        <time>2022-10-19T08:23:49.410Z</time>
      </trkpt>
      <trkpt lat="43.53281" lon="5.62306">
        <ele>737</ele>
        <time>2022-10-19T08:23:50.410Z</time>
      </trkpt>
      <trkpt lat="43.53281" lon="5.62305">
        <ele>738</ele>
        <time>2022-10-19T08:23:51.410Z</time>
      </trkpt>
      <trkpt lat="43.53281" lon="5.62305">
        <ele>738</ele>
        <time>2022-10-19T08:23:52.410Z</time>
      </trkpt>
      <trkpt lat="43.53281" lon="5.62305">
        <ele>738</ele>
        <time>2022-10-19T08:23:53.410Z</time>
      </trkpt>
      <trkpt lat="43.53281" lon="5.62304">
        <ele>738</ele>
        <time>2022-10-19T08:23:54.410Z</time>
      </trkpt>
      <trkpt lat="43.53281" lon="5.62304">
        <ele>738</ele>
        <time>2022-10-19T08:23:55.410Z</time>
      </trkpt>
      <trkpt lat="43.5328" lon="5.62303">
        <ele>738</ele>
        <time>2022-10-19T08:23:56.410Z</time>
      </trkpt>
      <trkpt lat="43.5328" lon="5.62302">
        <ele>739</ele>
        <time>2022-10-19T08:23:57.410Z</time>
      </trkpt>
      <trkpt lat="43.53281" lon="5.62302">
        <ele>739</ele>
        <time>2022-10-19T08:23:58.410Z</time>
      </trkpt>
      <trkpt lat="43.53281" lon="5.62301">
        <ele>739</ele>
        <time>2022-10-19T08:23:59.410Z</time>
      </trkpt>
      <trkpt lat="43.53281" lon="5.62301">
        <ele>739</ele>
        <time>2022-10-19T08:24:00.410Z</time>
      </trkpt>
      <trkpt lat="43.53281" lon="5.623">
        <ele>739</ele>
        <time>2022-10-19T08:24:01.410Z</time>
      </trkpt>
      <trkpt lat="43.53281" lon="5.623">
        <ele>739</ele>
        <time>2022-10-19T08:24:02.410Z</time>
      </trkpt>
      <trkpt lat="43.5328" lon="5.623">
        <ele>739</ele>
        <time>2022-10-19T08:24:03.410Z</time>
      </trkpt>
      <trkpt lat="43.5328" lon="5.62299">
        <ele>739</ele>
        <time>2022-10-19T08:24:04.410Z</time>
      </trkpt>
      <trkpt lat="43.5328" lon="5.62299">
        <ele>739</ele>
        <time>2022-10-19T08:24:05.410Z</time>
      </trkpt>
      <trkpt lat="43.5328" lon="5.62298">
        <ele>740</ele>
        <time>2022-10-19T08:24:06.410Z</time>
      </trkpt>
      <trkpt lat="43.53279" lon="5.62297">
        <ele>740</ele>
        <time>2022-10-19T08:24:07.410Z</time>
      </trkpt>
      <trkpt lat="43.53279" lon="5.62297">
        <ele>740</ele>
        <time>2022-10-19T08:24:08.410Z</time>
      </trkpt>
      <trkpt lat="43.53279" lon="5.62296">
        <ele>740</ele>
        <time>2022-10-19T08:24:09.410Z</time>
      </trkpt>
      <trkpt lat="43.53279" lon="5.62295">
        <ele>740</ele>
        <time>2022-10-19T08:24:10.410Z</time>
      </trkpt>
      <trkpt lat="43.53279" lon="5.62294">
        <ele>740</ele>
        <time>2022-10-19T08:24:11.410Z</time>
      </trkpt>
      <trkpt lat="43.53279" lon="5.62294">
        <ele>740</ele>
        <time>2022-10-19T08:24:12.410Z</time>
      </trkpt>
      <trkpt lat="43.53278" lon="5.62293">
        <ele>740</ele>
        <time>2022-10-19T08:24:13.410Z</time>
      </trkpt>
      <trkpt lat="43.53278" lon="5.62293">
        <ele>740</ele>
        <time>2022-10-19T08:24:14.410Z</time>
      </trkpt>
      <trkpt lat="43.53278" lon="5.62292">
        <ele>741</ele>
        <time>2022-10-19T08:24:15.410Z</time>
      </trkpt>
      <trkpt lat="43.53278" lon="5.62291">
        <ele>741</ele>
        <time>2022-10-19T08:24:16.410Z</time>
      </trkpt>
      <trkpt lat="43.53278" lon="5.62291">
        <ele>741</ele>
        <time>2022-10-19T08:24:17.410Z</time>
      </trkpt>
      <trkpt lat="43.53278" lon="5.6229">
        <ele>741</ele>
        <time>2022-10-19T08:24:18.410Z</time>
      </trkpt>
      <trkpt lat="43.53278" lon="5.62289">
        <ele>741</ele>
        <time>2022-10-19T08:24:19.410Z</time>
      </trkpt>
      <trkpt lat="43.53278" lon="5.62289">
        <ele>741</ele>
        <time>2022-10-19T08:24:20.410Z</time>
      </trkpt>
      <trkpt lat="43.53278" lon="5.62288">
        <ele>742</ele>
        <time>2022-10-19T08:24:21.410Z</time>
      </trkpt>
      <trkpt lat="43.53277" lon="5.62288">
        <ele>742</ele>
        <time>2022-10-19T08:24:22.410Z</time>
      </trkpt>
      <trkpt lat="43.53277" lon="5.62287">
        <ele>742</ele>
        <time>2022-10-19T08:24:23.410Z</time>
      </trkpt>
      <trkpt lat="43.53276" lon="5.62287">
        <ele>742</ele>
        <time>2022-10-19T08:24:24.410Z</time>
      </trkpt>
      <trkpt lat="43.53276" lon="5.62287">
        <ele>742</ele>
        <time>2022-10-19T08:24:25.410Z</time>
      </trkpt>
      <trkpt lat="43.53276" lon="5.62287">
        <ele>742</ele>
        <time>2022-10-19T08:24:26.410Z</time>
      </trkpt>
      <trkpt lat="43.53275" lon="5.62286">
        <ele>742</ele>
        <time>2022-10-19T08:24:27.410Z</time>
      </trkpt>
      <trkpt lat="43.53275" lon="5.62286">
        <ele>743</ele>
        <time>2022-10-19T08:24:28.410Z</time>
      </trkpt>
      <trkpt lat="43.53275" lon="5.62286">
        <ele>743</ele>
        <time>2022-10-19T08:24:29.410Z</time>
      </trkpt>
      <trkpt lat="43.53274" lon="5.62285">
        <ele>743</ele>
        <time>2022-10-19T08:24:30.410Z</time>
      </trkpt>
      <trkpt lat="43.53274" lon="5.62284">
        <ele>743</ele>
        <time>2022-10-19T08:24:31.410Z</time>
      </trkpt>
      <trkpt lat="43.53273" lon="5.62283">
        <ele>743</ele>
        <time>2022-10-19T08:24:32.410Z</time>
      </trkpt>
      <trkpt lat="43.53273" lon="5.62283">
        <ele>743</ele>
        <time>2022-10-19T08:24:33.410Z</time>
      </trkpt>
      <trkpt lat="43.53272" lon="5.62282">
        <ele>743</ele>
        <time>2022-10-19T08:24:34.410Z</time>
      </trkpt>
      <trkpt lat="43.53272" lon="5.62282">
        <ele>743</ele>
        <time>2022-10-19T08:24:35.410Z</time>
      </trkpt>
      <trkpt lat="43.53272" lon="5.62282">
        <ele>743</ele>
        <time>2022-10-19T08:24:36.410Z</time>
      </trkpt>
      <trkpt lat="43.53272" lon="5.62282">
        <ele>744</ele>
        <time>2022-10-19T08:24:37.410Z</time>
      </trkpt>
      <trkpt lat="43.53272" lon="5.62282">
        <ele>744</ele>
        <time>2022-10-19T08:24:38.410Z</time>
      </trkpt>
      <trkpt lat="43.53272" lon="5.62282">
        <ele>744</ele>
        <time>2022-10-19T08:24:39.410Z</time>
      </trkpt>
      <trkpt lat="43.53272" lon="5.62282">
        <ele>744</ele>
        <time>2022-10-19T08:24:40.410Z</time>
      </trkpt>
      <trkpt lat="43.53272" lon="5.62282">
        <ele>744</ele>
        <time>2022-10-19T08:24:41.410Z</time>
      </trkpt>
      <trkpt lat="43.53272" lon="5.62282">
        <ele>744</ele>
        <time>2022-10-19T08:24:42.410Z</time>
      </trkpt>
      <trkpt lat="43.53272" lon="5.62282">
        <ele>744</ele>
        <time>2022-10-19T08:24:43.410Z</time>
      </trkpt>
      <trkpt lat="43.53272" lon="5.62282">
        <ele>744</ele>
        <time>2022-10-19T08:24:44.410Z</time>
      </trkpt>
      <trkpt lat="43.53272" lon="5.62282">
        <ele>744</ele>
        <time>2022-10-19T08:24:45.410Z</time>
      </trkpt>
      <trkpt lat="43.53272" lon="5.62282">
        <ele>744</ele>
        <time>2022-10-19T08:24:46.410Z</time>
      </trkpt>
      <trkpt lat="43.53272" lon="5.62281">
        <ele>744</ele>
        <time>2022-10-19T08:24:47.410Z</time>
      </trkpt>
      <trkpt lat="43.53272" lon="5.62281">
        <ele>744</ele>
        <time>2022-10-19T08:24:48.410Z</time>
      </trkpt>
      <trkpt lat="43.53272" lon="5.62281">
        <ele>744</ele>
        <time>2022-10-19T08:24:49.410Z</time>
      </trkpt>
      <trkpt lat="43.53272" lon="5.62281">
        <ele>744</ele>
        <time>2022-10-19T08:24:50.410Z</time>
      </trkpt>
      <trkpt lat="43.53272" lon="5.62281">
        <ele>744</ele>
        <time>2022-10-19T08:24:51.410Z</time>
      </trkpt>
      <trkpt lat="43.53272" lon="5.62281">
        <ele>744</ele>
        <time>2022-10-19T08:24:52.410Z</time>
      </trkpt>
      <trkpt lat="43.53272" lon="5.62281">
        <ele>744</ele>
        <time>2022-10-19T08:24:53.410Z</time>
      </trkpt>
      <trkpt lat="43.53271" lon="5.62281">
        <ele>744</ele>
        <time>2022-10-19T08:24:54.410Z</time>
      </trkpt>
      <trkpt lat="43.5327" lon="5.6228">
        <ele>744</ele>
        <time>2022-10-19T08:24:55.410Z</time>
      </trkpt>
      <trkpt lat="43.5327" lon="5.62279">
        <ele>745</ele>
        <time>2022-10-19T08:24:56.410Z</time>
      </trkpt>
      <trkpt lat="43.5327" lon="5.62279">
        <ele>745</ele>
        <time>2022-10-19T08:24:57.410Z</time>
      </trkpt>
      <trkpt lat="43.5327" lon="5.62278">
        <ele>745</ele>
        <time>2022-10-19T08:24:58.410Z</time>
      </trkpt>
      <trkpt lat="43.5327" lon="5.62278">
        <ele>745</ele>
        <time>2022-10-19T08:24:59.410Z</time>
      </trkpt>
      <trkpt lat="43.5327" lon="5.62278">
        <ele>745</ele>
        <time>2022-10-19T08:25:00.410Z</time>
      </trkpt>
      <trkpt lat="43.5327" lon="5.62278">
        <ele>745</ele>
        <time>2022-10-19T08:25:01.410Z</time>
      </trkpt>
      <trkpt lat="43.5327" lon="5.62278">
        <ele>745</ele>
        <time>2022-10-19T08:25:02.410Z</time>
      </trkpt>
      <trkpt lat="43.5327" lon="5.62278">
        <ele>745</ele>
        <time>2022-10-19T08:25:03.410Z</time>
      </trkpt>
      <trkpt lat="43.53269" lon="5.62278">
        <ele>745</ele>
        <time>2022-10-19T08:25:04.410Z</time>
      </trkpt>
      <trkpt lat="43.53269" lon="5.62278">
        <ele>745</ele>
        <time>2022-10-19T08:25:05.410Z</time>
      </trkpt>
      <trkpt lat="43.53269" lon="5.62278">
        <ele>745</ele>
        <time>2022-10-19T08:25:06.410Z</time>
      </trkpt>
      <trkpt lat="43.53269" lon="5.62278">
        <ele>745</ele>
        <time>2022-10-19T08:25:07.410Z</time>
      </trkpt>
      <trkpt lat="43.53269" lon="5.62278">
        <ele>745</ele>
        <time>2022-10-19T08:25:08.410Z</time>
      </trkpt>
      <trkpt lat="43.53269" lon="5.62278">
        <ele>745</ele>
        <time>2022-10-19T08:25:09.410Z</time>
      </trkpt>
      <trkpt lat="43.53269" lon="5.62278">
        <ele>745</ele>
        <time>2022-10-19T08:25:10.410Z</time>
      </trkpt>
      <trkpt lat="43.53269" lon="5.62278">
        <ele>745</ele>
        <time>2022-10-19T08:25:11.410Z</time>
      </trkpt>
      <trkpt lat="43.53269" lon="5.62278">
        <ele>745</ele>
        <time>2022-10-19T08:25:12.410Z</time>
      </trkpt>
      <trkpt lat="43.53269" lon="5.62278">
        <ele>745</ele>
        <time>2022-10-19T08:25:13.410Z</time>
      </trkpt>
      <trkpt lat="43.53269" lon="5.62278">
        <ele>745</ele>
        <time>2022-10-19T08:25:14.410Z</time>
      </trkpt>
      <trkpt lat="43.53269" lon="5.62278">
        <ele>745</ele>
        <time>2022-10-19T08:25:15.410Z</time>
      </trkpt>
      <trkpt lat="43.53269" lon="5.62278">
        <ele>745</ele>
        <time>2022-10-19T08:25:16.410Z</time>
      </trkpt>
      <trkpt lat="43.53269" lon="5.62278">
        <ele>745</ele>
        <time>2022-10-19T08:25:17.410Z</time>
      </trkpt>
      <trkpt lat="43.53269" lon="5.62278">
        <ele>745</ele>
        <time>2022-10-19T08:25:18.410Z</time>
      </trkpt>
      <trkpt lat="43.53269" lon="5.62278">
        <ele>745</ele>
        <time>2022-10-19T08:25:19.410Z</time>
      </trkpt>
      <trkpt lat="43.53269" lon="5.62278">
        <ele>745</ele>
        <time>2022-10-19T08:25:20.410Z</time>
      </trkpt>
      <trkpt lat="43.53269" lon="5.62278">
        <ele>745</ele>
        <time>2022-10-19T08:25:21.410Z</time>
      </trkpt>
      <trkpt lat="43.53269" lon="5.62278">
        <ele>745</ele>
        <time>2022-10-19T08:25:22.410Z</time>
      </trkpt>
      <trkpt lat="43.53269" lon="5.62278">
        <ele>745</ele>
        <time>2022-10-19T08:25:23.410Z</time>
      </trkpt>
      <trkpt lat="43.53269" lon="5.62278">
        <ele>745</ele>
        <time>2022-10-19T08:25:24.410Z</time>
      </trkpt>
      <trkpt lat="43.53269" lon="5.62278">
        <ele>745</ele>
        <time>2022-10-19T08:25:25.410Z</time>
      </trkpt>
      <trkpt lat="43.53269" lon="5.62278">
        <ele>745</ele>
        <time>2022-10-19T08:25:26.410Z</time>
      </trkpt>
      <trkpt lat="43.53269" lon="5.62278">
        <ele>745</ele>
        <time>2022-10-19T08:25:27.410Z</time>
      </trkpt>
      <trkpt lat="43.53269" lon="5.62278">
        <ele>745</ele>
        <time>2022-10-19T08:25:28.410Z</time>
      </trkpt>
      <trkpt lat="43.53269" lon="5.62278">
        <ele>745</ele>
        <time>2022-10-19T08:25:29.410Z</time>
      </trkpt>
      <trkpt lat="43.53269" lon="5.62278">
        <ele>745</ele>
        <time>2022-10-19T08:25:30.410Z</time>
      </trkpt>
      <trkpt lat="43.53269" lon="5.62278">
        <ele>745</ele>
        <time>2022-10-19T08:25:31.410Z</time>
      </trkpt>
      <trkpt lat="43.53269" lon="5.62278">
        <ele>745</ele>
        <time>2022-10-19T08:25:32.410Z</time>
      </trkpt>
      <trkpt lat="43.53269" lon="5.62278">
        <ele>745</ele>
        <time>2022-10-19T08:25:33.410Z</time>
      </trkpt>
      <trkpt lat="43.53269" lon="5.62278">
        <ele>745</ele>
        <time>2022-10-19T08:25:34.410Z</time>
      </trkpt>
      <trkpt lat="43.53269" lon="5.62278">
        <ele>745</ele>
        <time>2022-10-19T08:25:35.410Z</time>
      </trkpt>
      <trkpt lat="43.53269" lon="5.62278">
        <ele>745</ele>
        <time>2022-10-19T08:25:36.410Z</time>
      </trkpt>
      <trkpt lat="43.53269" lon="5.62278">
        <ele>745</ele>
        <time>2022-10-19T08:25:37.410Z</time>
      </trkpt>
      <trkpt lat="43.53269" lon="5.62278">
        <ele>745</ele>
        <time>2022-10-19T08:25:38.410Z</time>
      </trkpt>
      <trkpt lat="43.53269" lon="5.62278">
        <ele>745</ele>
        <time>2022-10-19T08:25:39.410Z</time>
      </trkpt>
      <trkpt lat="43.53269" lon="5.62278">
        <ele>745</ele>
        <time>2022-10-19T08:25:40.410Z</time>
      </trkpt>
      <trkpt lat="43.53269" lon="5.62278">
        <ele>745</ele>
        <time>2022-10-19T08:25:41.410Z</time>
      </trkpt>
      <trkpt lat="43.53269" lon="5.62278">
        <ele>745</ele>
        <time>2022-10-19T08:25:42.410Z</time>
      </trkpt>
      <trkpt lat="43.53269" lon="5.62278">
        <ele>745</ele>
        <time>2022-10-19T08:25:43.410Z</time>
      </trkpt>
      <trkpt lat="43.53269" lon="5.62277">
        <ele>745</ele>
        <time>2022-10-19T08:25:44.410Z</time>
      </trkpt>
      <trkpt lat="43.53268" lon="5.62277">
        <ele>745</ele>
        <time>2022-10-19T08:25:45.410Z</time>
      </trkpt>
      <trkpt lat="43.53268" lon="5.62276">
        <ele>745</ele>
        <time>2022-10-19T08:25:46.410Z</time>
      </trkpt>
      <trkpt lat="43.53267" lon="5.62275">
        <ele>745</ele>
        <time>2022-10-19T08:25:47.410Z</time>
      </trkpt>
      <trkpt lat="43.53267" lon="5.62274">
        <ele>745</ele>
        <time>2022-10-19T08:25:48.410Z</time>
      </trkpt>
      <trkpt lat="43.53267" lon="5.62274">
        <ele>745</ele>
        <time>2022-10-19T08:25:49.410Z</time>
      </trkpt>
      <trkpt lat="43.53267" lon="5.62273">
        <ele>745</ele>
        <time>2022-10-19T08:25:50.410Z</time>
      </trkpt>
      <trkpt lat="43.53267" lon="5.62272">
        <ele>745</ele>
        <time>2022-10-19T08:25:51.410Z</time>
      </trkpt>
      <trkpt lat="43.53267" lon="5.62272">
        <ele>745</ele>
        <time>2022-10-19T08:25:52.410Z</time>
      </trkpt>
      <trkpt lat="43.53267" lon="5.62271">
        <ele>745</ele>
        <time>2022-10-19T08:25:53.410Z</time>
      </trkpt>
      <trkpt lat="43.53266" lon="5.6227">
        <ele>746</ele>
        <time>2022-10-19T08:25:54.410Z</time>
      </trkpt>
      <trkpt lat="43.53266" lon="5.62269">
        <ele>746</ele>
        <time>2022-10-19T08:25:55.410Z</time>
      </trkpt>
      <trkpt lat="43.53266" lon="5.62268">
        <ele>746</ele>
        <time>2022-10-19T08:25:56.410Z</time>
      </trkpt>
      <trkpt lat="43.53265" lon="5.62268">
        <ele>746</ele>
        <time>2022-10-19T08:25:57.410Z</time>
      </trkpt>
      <trkpt lat="43.53265" lon="5.62267">
        <ele>746</ele>
        <time>2022-10-19T08:25:58.410Z</time>
      </trkpt>
      <trkpt lat="43.53265" lon="5.62266">
        <ele>746</ele>
        <time>2022-10-19T08:25:59.410Z</time>
      </trkpt>
      <trkpt lat="43.53265" lon="5.62265">
        <ele>746</ele>
        <time>2022-10-19T08:26:00.410Z</time>
      </trkpt>
      <trkpt lat="43.53265" lon="5.62265">
        <ele>747</ele>
        <time>2022-10-19T08:26:01.410Z</time>
      </trkpt>
      <trkpt lat="43.53265" lon="5.62264">
        <ele>747</ele>
        <time>2022-10-19T08:26:02.410Z</time>
      </trkpt>
      <trkpt lat="43.53265" lon="5.62263">
        <ele>747</ele>
        <time>2022-10-19T08:26:03.410Z</time>
      </trkpt>
      <trkpt lat="43.53265" lon="5.62262">
        <ele>747</ele>
        <time>2022-10-19T08:26:04.410Z</time>
      </trkpt>
      <trkpt lat="43.53264" lon="5.62261">
        <ele>747</ele>
        <time>2022-10-19T08:26:05.410Z</time>
      </trkpt>
      <trkpt lat="43.53264" lon="5.6226">
        <ele>747</ele>
        <time>2022-10-19T08:26:06.410Z</time>
      </trkpt>
      <trkpt lat="43.53264" lon="5.6226">
        <ele>748</ele>
        <time>2022-10-19T08:26:07.410Z</time>
      </trkpt>
      <trkpt lat="43.53264" lon="5.62259">
        <ele>748</ele>
        <time>2022-10-19T08:26:08.410Z</time>
      </trkpt>
      <trkpt lat="43.53264" lon="5.62258">
        <ele>748</ele>
        <time>2022-10-19T08:26:09.410Z</time>
      </trkpt>
      <trkpt lat="43.53264" lon="5.62257">
        <ele>748</ele>
        <time>2022-10-19T08:26:10.410Z</time>
      </trkpt>
      <trkpt lat="43.53264" lon="5.62256">
        <ele>748</ele>
        <time>2022-10-19T08:26:11.410Z</time>
      </trkpt>
      <trkpt lat="43.53264" lon="5.62255">
        <ele>749</ele>
        <time>2022-10-19T08:26:12.410Z</time>
      </trkpt>
      <trkpt lat="43.53263" lon="5.62254">
        <ele>749</ele>
        <time>2022-10-19T08:26:13.410Z</time>
      </trkpt>
      <trkpt lat="43.53263" lon="5.62254">
        <ele>749</ele>
        <time>2022-10-19T08:26:14.410Z</time>
      </trkpt>
      <trkpt lat="43.53263" lon="5.62253">
        <ele>749</ele>
        <time>2022-10-19T08:26:15.410Z</time>
      </trkpt>
      <trkpt lat="43.53263" lon="5.62252">
        <ele>749</ele>
        <time>2022-10-19T08:26:16.410Z</time>
      </trkpt>
      <trkpt lat="43.53263" lon="5.62251">
        <ele>749</ele>
        <time>2022-10-19T08:26:17.410Z</time>
      </trkpt>
      <trkpt lat="43.53263" lon="5.62251">
        <ele>749</ele>
        <time>2022-10-19T08:26:18.410Z</time>
      </trkpt>
      <trkpt lat="43.53263" lon="5.6225">
        <ele>750</ele>
        <time>2022-10-19T08:26:19.410Z</time>
      </trkpt>
      <trkpt lat="43.53263" lon="5.62249">
        <ele>750</ele>
        <time>2022-10-19T08:26:20.410Z</time>
      </trkpt>
      <trkpt lat="43.53263" lon="5.62249">
        <ele>750</ele>
        <time>2022-10-19T08:26:21.410Z</time>
      </trkpt>
      <trkpt lat="43.53263" lon="5.62248">
        <ele>750</ele>
        <time>2022-10-19T08:26:22.410Z</time>
      </trkpt>
      <trkpt lat="43.53263" lon="5.62247">
        <ele>750</ele>
        <time>2022-10-19T08:26:23.410Z</time>
      </trkpt>
      <trkpt lat="43.53263" lon="5.62246">
        <ele>750</ele>
        <time>2022-10-19T08:26:24.410Z</time>
      </trkpt>
      <trkpt lat="43.53263" lon="5.62245">
        <ele>750</ele>
        <time>2022-10-19T08:26:25.410Z</time>
      </trkpt>
      <trkpt lat="43.53262" lon="5.62245">
        <ele>750</ele>
        <time>2022-10-19T08:26:26.410Z</time>
      </trkpt>
      <trkpt lat="43.53262" lon="5.62244">
        <ele>751</ele>
        <time>2022-10-19T08:26:27.410Z</time>
      </trkpt>
      <trkpt lat="43.53262" lon="5.62243">
        <ele>751</ele>
        <time>2022-10-19T08:26:28.410Z</time>
      </trkpt>
      <trkpt lat="43.53262" lon="5.62243">
        <ele>751</ele>
        <time>2022-10-19T08:26:29.410Z</time>
      </trkpt>
      <trkpt lat="43.53262" lon="5.62242">
        <ele>751</ele>
        <time>2022-10-19T08:26:30.410Z</time>
      </trkpt>
      <trkpt lat="43.53262" lon="5.62241">
        <ele>751</ele>
        <time>2022-10-19T08:26:31.410Z</time>
      </trkpt>
      <trkpt lat="43.53262" lon="5.62241">
        <ele>751</ele>
        <time>2022-10-19T08:26:32.410Z</time>
      </trkpt>
      <trkpt lat="43.53262" lon="5.6224">
        <ele>751</ele>
        <time>2022-10-19T08:26:33.410Z</time>
      </trkpt>
      <trkpt lat="43.53262" lon="5.62239">
        <ele>751</ele>
        <time>2022-10-19T08:26:34.410Z</time>
      </trkpt>
      <trkpt lat="43.53262" lon="5.62238">
        <ele>751</ele>
        <time>2022-10-19T08:26:35.410Z</time>
      </trkpt>
      <trkpt lat="43.53262" lon="5.62238">
        <ele>751</ele>
        <time>2022-10-19T08:26:36.410Z</time>
      </trkpt>
      <trkpt lat="43.53263" lon="5.62237">
        <ele>751</ele>
        <time>2022-10-19T08:26:37.410Z</time>
      </trkpt>
      <trkpt lat="43.53263" lon="5.62237">
        <ele>751</ele>
        <time>2022-10-19T08:26:38.410Z</time>
      </trkpt>
      <trkpt lat="43.53263" lon="5.62236">
        <ele>751</ele>
        <time>2022-10-19T08:26:39.410Z</time>
      </trkpt>
      <trkpt lat="43.53263" lon="5.62235">
        <ele>751</ele>
        <time>2022-10-19T08:26:40.410Z</time>
      </trkpt>
      <trkpt lat="43.53263" lon="5.62235">
        <ele>751</ele>
        <time>2022-10-19T08:26:41.410Z</time>
      </trkpt>
      <trkpt lat="43.53263" lon="5.62234">
        <ele>751</ele>
        <time>2022-10-19T08:26:42.410Z</time>
      </trkpt>
      <trkpt lat="43.53263" lon="5.62234">
        <ele>752</ele>
        <time>2022-10-19T08:26:43.410Z</time>
      </trkpt>
      <trkpt lat="43.53263" lon="5.62234">
        <ele>752</ele>
        <time>2022-10-19T08:26:44.410Z</time>
      </trkpt>
      <trkpt lat="43.53263" lon="5.62233">
        <ele>752</ele>
        <time>2022-10-19T08:26:45.410Z</time>
      </trkpt>
      <trkpt lat="43.53263" lon="5.62232">
        <ele>752</ele>
        <time>2022-10-19T08:26:46.410Z</time>
      </trkpt>
      <trkpt lat="43.53262" lon="5.62232">
        <ele>752</ele>
        <time>2022-10-19T08:26:47.410Z</time>
      </trkpt>
      <trkpt lat="43.53262" lon="5.62231">
        <ele>752</ele>
        <time>2022-10-19T08:26:48.410Z</time>
      </trkpt>
      <trkpt lat="43.53262" lon="5.6223">
        <ele>752</ele>
        <time>2022-10-19T08:26:49.410Z</time>
      </trkpt>
      <trkpt lat="43.53261" lon="5.62229">
        <ele>752</ele>
        <time>2022-10-19T08:26:50.410Z</time>
      </trkpt>
      <trkpt lat="43.5326" lon="5.62229">
        <ele>752</ele>
        <time>2022-10-19T08:26:51.410Z</time>
      </trkpt>
      <trkpt lat="43.5326" lon="5.62228">
        <ele>752</ele>
        <time>2022-10-19T08:26:52.410Z</time>
      </trkpt>
      <trkpt lat="43.5326" lon="5.62228">
        <ele>753</ele>
        <time>2022-10-19T08:26:53.410Z</time>
      </trkpt>
      <trkpt lat="43.53259" lon="5.62227">
        <ele>753</ele>
        <time>2022-10-19T08:26:54.410Z</time>
      </trkpt>
      <trkpt lat="43.53259" lon="5.62226">
        <ele>753</ele>
        <time>2022-10-19T08:26:55.410Z</time>
      </trkpt>
      <trkpt lat="43.53258" lon="5.62226">
        <ele>753</ele>
        <time>2022-10-19T08:26:56.410Z</time>
      </trkpt>
      <trkpt lat="43.53258" lon="5.62225">
        <ele>753</ele>
        <time>2022-10-19T08:26:57.410Z</time>
      </trkpt>
      <trkpt lat="43.53257" lon="5.62224">
        <ele>754</ele>
        <time>2022-10-19T08:26:58.410Z</time>
      </trkpt>
      <trkpt lat="43.53257" lon="5.62224">
        <ele>754</ele>
        <time>2022-10-19T08:26:59.410Z</time>
      </trkpt>
      <trkpt lat="43.53257" lon="5.62223">
        <ele>754</ele>
        <time>2022-10-19T08:27:00.410Z</time>
      </trkpt>
      <trkpt lat="43.53257" lon="5.62222">
        <ele>754</ele>
        <time>2022-10-19T08:27:01.410Z</time>
      </trkpt>
      <trkpt lat="43.53256" lon="5.62222">
        <ele>755</ele>
        <time>2022-10-19T08:27:02.410Z</time>
      </trkpt>
      <trkpt lat="43.53256" lon="5.62221">
        <ele>755</ele>
        <time>2022-10-19T08:27:03.410Z</time>
      </trkpt>
      <trkpt lat="43.53256" lon="5.62221">
        <ele>755</ele>
        <time>2022-10-19T08:27:04.410Z</time>
      </trkpt>
      <trkpt lat="43.53256" lon="5.6222">
        <ele>755</ele>
        <time>2022-10-19T08:27:05.410Z</time>
      </trkpt>
      <trkpt lat="43.53256" lon="5.6222">
        <ele>755</ele>
        <time>2022-10-19T08:27:06.410Z</time>
      </trkpt>
      <trkpt lat="43.53255" lon="5.62219">
        <ele>756</ele>
        <time>2022-10-19T08:27:07.410Z</time>
      </trkpt>
      <trkpt lat="43.53255" lon="5.62219">
        <ele>756</ele>
        <time>2022-10-19T08:27:08.410Z</time>
      </trkpt>
      <trkpt lat="43.53255" lon="5.62219">
        <ele>756</ele>
        <time>2022-10-19T08:27:09.410Z</time>
      </trkpt>
      <trkpt lat="43.53255" lon="5.62219">
        <ele>756</ele>
        <time>2022-10-19T08:27:10.410Z</time>
      </trkpt>
      <trkpt lat="43.53255" lon="5.62219">
        <ele>756</ele>
        <time>2022-10-19T08:27:11.410Z</time>
      </trkpt>
      <trkpt lat="43.53255" lon="5.62219">
        <ele>756</ele>
        <time>2022-10-19T08:27:12.410Z</time>
      </trkpt>
      <trkpt lat="43.53255" lon="5.62219">
        <ele>756</ele>
        <time>2022-10-19T08:27:13.410Z</time>
      </trkpt>
      <trkpt lat="43.53255" lon="5.62219">
        <ele>756</ele>
        <time>2022-10-19T08:27:14.410Z</time>
      </trkpt>
      <trkpt lat="43.53255" lon="5.62219">
        <ele>756</ele>
        <time>2022-10-19T08:27:15.410Z</time>
      </trkpt>
      <trkpt lat="43.53255" lon="5.62219">
        <ele>756</ele>
        <time>2022-10-19T08:27:16.410Z</time>
      </trkpt>
      <trkpt lat="43.53255" lon="5.62219">
        <ele>756</ele>
        <time>2022-10-19T08:27:17.410Z</time>
      </trkpt>
      <trkpt lat="43.53255" lon="5.62219">
        <ele>756</ele>
        <time>2022-10-19T08:27:18.410Z</time>
      </trkpt>
      <trkpt lat="43.53255" lon="5.62219">
        <ele>756</ele>
        <time>2022-10-19T08:27:19.410Z</time>
      </trkpt>
      <trkpt lat="43.53255" lon="5.62219">
        <ele>756</ele>
        <time>2022-10-19T08:27:20.410Z</time>
      </trkpt>
      <trkpt lat="43.53255" lon="5.62219">
        <ele>756</ele>
        <time>2022-10-19T08:27:21.410Z</time>
      </trkpt>
      <trkpt lat="43.53255" lon="5.62219">
        <ele>757</ele>
        <time>2022-10-19T08:27:22.410Z</time>
      </trkpt>
      <trkpt lat="43.53255" lon="5.62219">
        <ele>757</ele>
        <time>2022-10-19T08:27:23.410Z</time>
      </trkpt>
      <trkpt lat="43.53255" lon="5.62219">
        <ele>757</ele>
        <time>2022-10-19T08:27:24.410Z</time>
      </trkpt>
      <trkpt lat="43.53255" lon="5.62219">
        <ele>757</ele>
        <time>2022-10-19T08:27:25.410Z</time>
      </trkpt>
      <trkpt lat="43.53254" lon="5.62219">
        <ele>757</ele>
        <time>2022-10-19T08:27:26.410Z</time>
      </trkpt>
      <trkpt lat="43.53254" lon="5.62219">
        <ele>757</ele>
        <time>2022-10-19T08:27:27.410Z</time>
      </trkpt>
      <trkpt lat="43.53254" lon="5.62218">
        <ele>757</ele>
        <time>2022-10-19T08:27:28.410Z</time>
      </trkpt>
      <trkpt lat="43.53254" lon="5.62218">
        <ele>757</ele>
        <time>2022-10-19T08:27:29.410Z</time>
      </trkpt>
      <trkpt lat="43.53254" lon="5.62218">
        <ele>757</ele>
        <time>2022-10-19T08:27:30.410Z</time>
      </trkpt>
      <trkpt lat="43.53254" lon="5.62218">
        <ele>757</ele>
        <time>2022-10-19T08:27:31.410Z</time>
      </trkpt>
      <trkpt lat="43.53254" lon="5.62219">
        <ele>757</ele>
        <time>2022-10-19T08:27:32.410Z</time>
      </trkpt>
      <trkpt lat="43.53254" lon="5.62219">
        <ele>757</ele>
        <time>2022-10-19T08:27:33.410Z</time>
      </trkpt>
      <trkpt lat="43.53254" lon="5.62219">
        <ele>757</ele>
        <time>2022-10-19T08:27:34.410Z</time>
      </trkpt>
      <trkpt lat="43.53254" lon="5.62219">
        <ele>757</ele>
        <time>2022-10-19T08:27:35.410Z</time>
      </trkpt>
      <trkpt lat="43.53254" lon="5.62219">
        <ele>757</ele>
        <time>2022-10-19T08:27:36.410Z</time>
      </trkpt>
      <trkpt lat="43.53254" lon="5.62219">
        <ele>757</ele>
        <time>2022-10-19T08:27:37.410Z</time>
      </trkpt>
      <trkpt lat="43.53254" lon="5.62219">
        <ele>757</ele>
        <time>2022-10-19T08:27:38.410Z</time>
      </trkpt>
      <trkpt lat="43.53254" lon="5.62219">
        <ele>757</ele>
        <time>2022-10-19T08:27:39.410Z</time>
      </trkpt>
      <trkpt lat="43.53254" lon="5.62219">
        <ele>757</ele>
        <time>2022-10-19T08:27:40.410Z</time>
      </trkpt>
      <trkpt lat="43.53254" lon="5.62219">
        <ele>757</ele>
        <time>2022-10-19T08:27:41.410Z</time>
      </trkpt>
      <trkpt lat="43.53254" lon="5.62219">
        <ele>757</ele>
        <time>2022-10-19T08:27:42.410Z</time>
      </trkpt>
      <trkpt lat="43.53254" lon="5.62219">
        <ele>757</ele>
        <time>2022-10-19T08:27:43.410Z</time>
      </trkpt>
      <trkpt lat="43.53254" lon="5.62219">
        <ele>757</ele>
        <time>2022-10-19T08:27:44.410Z</time>
      </trkpt>
      <trkpt lat="43.53254" lon="5.62219">
        <ele>757</ele>
        <time>2022-10-19T08:27:45.410Z</time>
      </trkpt>
      <trkpt lat="43.53254" lon="5.62219">
        <ele>757</ele>
        <time>2022-10-19T08:27:46.410Z</time>
      </trkpt>
      <trkpt lat="43.53254" lon="5.62219">
        <ele>757</ele>
        <time>2022-10-19T08:27:47.410Z</time>
      </trkpt>
      <trkpt lat="43.53254" lon="5.62219">
        <ele>757</ele>
        <time>2022-10-19T08:27:48.410Z</time>
      </trkpt>
      <trkpt lat="43.53254" lon="5.62219">
        <ele>757</ele>
        <time>2022-10-19T08:27:49.410Z</time>
      </trkpt>
      <trkpt lat="43.53254" lon="5.62219">
        <ele>757</ele>
        <time>2022-10-19T08:27:50.410Z</time>
      </trkpt>
      <trkpt lat="43.53254" lon="5.62219">
        <ele>757</ele>
        <time>2022-10-19T08:27:51.410Z</time>
      </trkpt>
      <trkpt lat="43.53254" lon="5.62219">
        <ele>757</ele>
        <time>2022-10-19T08:27:52.410Z</time>
      </trkpt>
      <trkpt lat="43.53254" lon="5.62219">
        <ele>757</ele>
        <time>2022-10-19T08:27:53.410Z</time>
      </trkpt>
      <trkpt lat="43.53254" lon="5.62219">
        <ele>757</ele>
        <time>2022-10-19T08:27:54.410Z</time>
      </trkpt>
      <trkpt lat="43.53254" lon="5.62219">
        <ele>757</ele>
        <time>2022-10-19T08:27:55.410Z</time>
      </trkpt>
      <trkpt lat="43.53254" lon="5.62219">
        <ele>757</ele>
        <time>2022-10-19T08:27:56.410Z</time>
      </trkpt>
      <trkpt lat="43.53254" lon="5.62219">
        <ele>757</ele>
        <time>2022-10-19T08:27:57.410Z</time>
      </trkpt>
      <trkpt lat="43.53254" lon="5.62219">
        <ele>757</ele>
        <time>2022-10-19T08:27:58.410Z</time>
      </trkpt>
      <trkpt lat="43.53254" lon="5.62219">
        <ele>757</ele>
        <time>2022-10-19T08:27:59.410Z</time>
      </trkpt>
      <trkpt lat="43.53254" lon="5.62219">
        <ele>757</ele>
        <time>2022-10-19T08:28:00.410Z</time>
      </trkpt>
      <trkpt lat="43.53254" lon="5.62219">
        <ele>757</ele>
        <time>2022-10-19T08:28:01.410Z</time>
      </trkpt>
      <trkpt lat="43.53254" lon="5.62219">
        <ele>757</ele>
        <time>2022-10-19T08:28:02.410Z</time>
      </trkpt>
      <trkpt lat="43.53254" lon="5.62219">
        <ele>757</ele>
        <time>2022-10-19T08:28:03.410Z</time>
      </trkpt>
      <trkpt lat="43.53254" lon="5.62219">
        <ele>757</ele>
        <time>2022-10-19T08:28:04.410Z</time>
      </trkpt>
      <trkpt lat="43.53254" lon="5.62219">
        <ele>757</ele>
        <time>2022-10-19T08:28:05.410Z</time>
      </trkpt>
      <trkpt lat="43.53254" lon="5.62219">
        <ele>757</ele>
        <time>2022-10-19T08:28:06.410Z</time>
      </trkpt>
      <trkpt lat="43.53254" lon="5.62219">
        <ele>757</ele>
        <time>2022-10-19T08:28:07.410Z</time>
      </trkpt>
      <trkpt lat="43.53254" lon="5.62219">
        <ele>757</ele>
        <time>2022-10-19T08:28:08.410Z</time>
      </trkpt>
      <trkpt lat="43.53254" lon="5.62219">
        <ele>757</ele>
        <time>2022-10-19T08:28:09.410Z</time>
      </trkpt>
      <trkpt lat="43.53254" lon="5.62219">
        <ele>757</ele>
        <time>2022-10-19T08:28:10.410Z</time>
      </trkpt>
      <trkpt lat="43.53254" lon="5.62219">
        <ele>757</ele>
        <time>2022-10-19T08:28:11.410Z</time>
      </trkpt>
      <trkpt lat="43.53254" lon="5.62219">
        <ele>757</ele>
        <time>2022-10-19T08:28:12.410Z</time>
      </trkpt>
      <trkpt lat="43.53254" lon="5.62219">
        <ele>757</ele>
        <time>2022-10-19T08:28:13.410Z</time>
      </trkpt>
      <trkpt lat="43.53254" lon="5.62219">
        <ele>757</ele>
        <time>2022-10-19T08:28:14.410Z</time>
      </trkpt>
      <trkpt lat="43.53254" lon="5.62219">
        <ele>757</ele>
        <time>2022-10-19T08:28:15.410Z</time>
      </trkpt>
      <trkpt lat="43.53254" lon="5.62219">
        <ele>757</ele>
        <time>2022-10-19T08:28:16.410Z</time>
      </trkpt>
      <trkpt lat="43.53254" lon="5.62219">
        <ele>757</ele>
        <time>2022-10-19T08:28:17.410Z</time>
      </trkpt>
      <trkpt lat="43.53254" lon="5.62219">
        <ele>757</ele>
        <time>2022-10-19T08:28:18.410Z</time>
      </trkpt>
      <trkpt lat="43.53254" lon="5.62219">
        <ele>757</ele>
        <time>2022-10-19T08:28:19.410Z</time>
      </trkpt>
      <trkpt lat="43.53254" lon="5.62219">
        <ele>757</ele>
        <time>2022-10-19T08:28:20.410Z</time>
      </trkpt>
      <trkpt lat="43.53254" lon="5.62219">
        <ele>757</ele>
        <time>2022-10-19T08:28:21.410Z</time>
      </trkpt>
      <trkpt lat="43.53254" lon="5.62219">
        <ele>757</ele>
        <time>2022-10-19T08:28:22.410Z</time>
      </trkpt>
      <trkpt lat="43.53254" lon="5.62219">
        <ele>757</ele>
        <time>2022-10-19T08:28:23.410Z</time>
      </trkpt>
      <trkpt lat="43.53254" lon="5.62219">
        <ele>757</ele>
        <time>2022-10-19T08:28:24.410Z</time>
      </trkpt>
      <trkpt lat="43.53254" lon="5.62219">
        <ele>757</ele>
        <time>2022-10-19T08:28:25.410Z</time>
      </trkpt>
      <trkpt lat="43.53254" lon="5.62219">
        <ele>757</ele>
        <time>2022-10-19T08:28:26.410Z</time>
      </trkpt>
      <trkpt lat="43.53254" lon="5.62219">
        <ele>757</ele>
        <time>2022-10-19T08:28:27.410Z</time>
      </trkpt>
      <trkpt lat="43.53254" lon="5.62219">
        <ele>757</ele>
        <time>2022-10-19T08:28:28.410Z</time>
      </trkpt>
      <trkpt lat="43.53254" lon="5.62219">
        <ele>757</ele>
        <time>2022-10-19T08:28:29.410Z</time>
      </trkpt>
      <trkpt lat="43.53254" lon="5.62219">
        <ele>757</ele>
        <time>2022-10-19T08:28:30.410Z</time>
      </trkpt>
      <trkpt lat="43.53254" lon="5.62219">
        <ele>757</ele>
        <time>2022-10-19T08:28:31.410Z</time>
      </trkpt>
      <trkpt lat="43.53254" lon="5.62219">
        <ele>757</ele>
        <time>2022-10-19T08:28:32.410Z</time>
      </trkpt>
      <trkpt lat="43.53254" lon="5.62219">
        <ele>757</ele>
        <time>2022-10-19T08:28:33.410Z</time>
      </trkpt>
      <trkpt lat="43.53254" lon="5.62219">
        <ele>757</ele>
        <time>2022-10-19T08:28:34.410Z</time>
      </trkpt>
      <trkpt lat="43.53254" lon="5.62219">
        <ele>757</ele>
        <time>2022-10-19T08:28:35.410Z</time>
      </trkpt>
      <trkpt lat="43.53254" lon="5.62219">
        <ele>757</ele>
        <time>2022-10-19T08:28:36.410Z</time>
      </trkpt>
      <trkpt lat="43.53254" lon="5.62219">
        <ele>757</ele>
        <time>2022-10-19T08:28:37.410Z</time>
      </trkpt>
      <trkpt lat="43.53254" lon="5.62219">
        <ele>757</ele>
        <time>2022-10-19T08:28:38.410Z</time>
      </trkpt>
      <trkpt lat="43.53254" lon="5.62219">
        <ele>757</ele>
        <time>2022-10-19T08:28:39.410Z</time>
      </trkpt>
      <trkpt lat="43.53254" lon="5.62219">
        <ele>757</ele>
        <time>2022-10-19T08:28:40.410Z</time>
      </trkpt>
      <trkpt lat="43.53254" lon="5.62219">
        <ele>757</ele>
        <time>2022-10-19T08:28:41.410Z</time>
      </trkpt>
      <trkpt lat="43.53254" lon="5.62219">
        <ele>757</ele>
        <time>2022-10-19T08:28:42.410Z</time>
      </trkpt>
      <trkpt lat="43.53254" lon="5.62219">
        <ele>757</ele>
        <time>2022-10-19T08:28:43.410Z</time>
      </trkpt>
      <trkpt lat="43.53254" lon="5.62219">
        <ele>757</ele>
        <time>2022-10-19T08:28:44.410Z</time>
      </trkpt>
      <trkpt lat="43.53254" lon="5.62219">
        <ele>757</ele>
        <time>2022-10-19T08:28:45.410Z</time>
      </trkpt>
      <trkpt lat="43.53254" lon="5.62219">
        <ele>757</ele>
        <time>2022-10-19T08:28:46.410Z</time>
      </trkpt>
      <trkpt lat="43.53254" lon="5.62219">
        <ele>757</ele>
        <time>2022-10-19T08:28:47.410Z</time>
      </trkpt>
      <trkpt lat="43.53254" lon="5.62219">
        <ele>757</ele>
        <time>2022-10-19T08:28:48.410Z</time>
      </trkpt>
      <trkpt lat="43.53254" lon="5.62219">
        <ele>757</ele>
        <time>2022-10-19T08:28:49.410Z</time>
      </trkpt>
      <trkpt lat="43.53254" lon="5.62219">
        <ele>757</ele>
        <time>2022-10-19T08:28:50.410Z</time>
      </trkpt>
      <trkpt lat="43.53254" lon="5.62219">
        <ele>757</ele>
        <time>2022-10-19T08:28:51.410Z</time>
      </trkpt>
      <trkpt lat="43.53254" lon="5.62219">
        <ele>757</ele>
        <time>2022-10-19T08:28:52.410Z</time>
      </trkpt>
      <trkpt lat="43.53254" lon="5.62219">
        <ele>757</ele>
        <time>2022-10-19T08:28:53.410Z</time>
      </trkpt>
      <trkpt lat="43.53254" lon="5.62219">
        <ele>757</ele>
        <time>2022-10-19T08:28:54.410Z</time>
      </trkpt>
      <trkpt lat="43.53254" lon="5.62219">
        <ele>757</ele>
        <time>2022-10-19T08:28:55.410Z</time>
      </trkpt>
      <trkpt lat="43.53254" lon="5.62219">
        <ele>757</ele>
        <time>2022-10-19T08:28:56.410Z</time>
      </trkpt>
      <trkpt lat="43.53254" lon="5.62219">
        <ele>757</ele>
        <time>2022-10-19T08:28:57.410Z</time>
      </trkpt>
      <trkpt lat="43.53254" lon="5.62219">
        <ele>757</ele>
        <time>2022-10-19T08:28:58.410Z</time>
      </trkpt>
      <trkpt lat="43.53254" lon="5.62219">
        <ele>757</ele>
        <time>2022-10-19T08:28:59.410Z</time>
      </trkpt>
      <trkpt lat="43.53254" lon="5.62219">
        <ele>757</ele>
        <time>2022-10-19T08:29:00.410Z</time>
      </trkpt>
      <trkpt lat="43.53254" lon="5.62219">
        <ele>757</ele>
        <time>2022-10-19T08:29:01.410Z</time>
      </trkpt>
      <trkpt lat="43.53254" lon="5.62219">
        <ele>757</ele>
        <time>2022-10-19T08:29:02.410Z</time>
      </trkpt>
      <trkpt lat="43.53254" lon="5.62219">
        <ele>757</ele>
        <time>2022-10-19T08:29:03.410Z</time>
      </trkpt>
      <trkpt lat="43.53254" lon="5.62219">
        <ele>757</ele>
        <time>2022-10-19T08:29:04.410Z</time>
      </trkpt>
      <trkpt lat="43.53254" lon="5.62219">
        <ele>757</ele>
        <time>2022-10-19T08:29:05.410Z</time>
      </trkpt>
      <trkpt lat="43.53254" lon="5.62219">
        <ele>757</ele>
        <time>2022-10-19T08:29:06.410Z</time>
      </trkpt>
      <trkpt lat="43.53254" lon="5.62219">
        <ele>757</ele>
        <time>2022-10-19T08:29:07.410Z</time>
      </trkpt>
      <trkpt lat="43.53254" lon="5.62219">
        <ele>757</ele>
        <time>2022-10-19T08:29:08.410Z</time>
      </trkpt>
      <trkpt lat="43.53254" lon="5.62219">
        <ele>757</ele>
        <time>2022-10-19T08:29:09.410Z</time>
      </trkpt>
      <trkpt lat="43.53254" lon="5.62219">
        <ele>757</ele>
        <time>2022-10-19T08:29:10.410Z</time>
      </trkpt>
      <trkpt lat="43.53254" lon="5.62219">
        <ele>757</ele>
        <time>2022-10-19T08:29:11.410Z</time>
      </trkpt>
      <trkpt lat="43.53254" lon="5.62219">
        <ele>757</ele>
        <time>2022-10-19T08:29:12.410Z</time>
      </trkpt>
      <trkpt lat="43.53254" lon="5.62219">
        <ele>757</ele>
        <time>2022-10-19T08:29:13.410Z</time>
      </trkpt>
      <trkpt lat="43.53254" lon="5.62219">
        <ele>757</ele>
        <time>2022-10-19T08:29:14.410Z</time>
      </trkpt>
      <trkpt lat="43.53254" lon="5.62219">
        <ele>757</ele>
        <time>2022-10-19T08:29:15.410Z</time>
      </trkpt>
      <trkpt lat="43.53254" lon="5.62219">
        <ele>757</ele>
        <time>2022-10-19T08:29:16.410Z</time>
      </trkpt>
      <trkpt lat="43.53254" lon="5.62219">
        <ele>757</ele>
        <time>2022-10-19T08:29:17.410Z</time>
      </trkpt>
      <trkpt lat="43.53254" lon="5.62219">
        <ele>757</ele>
        <time>2022-10-19T08:29:18.410Z</time>
      </trkpt>
      <trkpt lat="43.53254" lon="5.62219">
        <ele>757</ele>
        <time>2022-10-19T08:29:19.410Z</time>
      </trkpt>
      <trkpt lat="43.53254" lon="5.62219">
        <ele>757</ele>
        <time>2022-10-19T08:29:20.410Z</time>
      </trkpt>
      <trkpt lat="43.53254" lon="5.62219">
        <ele>757</ele>
        <time>2022-10-19T08:29:21.410Z</time>
      </trkpt>
      <trkpt lat="43.53254" lon="5.62219">
        <ele>757</ele>
        <time>2022-10-19T08:29:22.410Z</time>
      </trkpt>
      <trkpt lat="43.53254" lon="5.62219">
        <ele>757</ele>
        <time>2022-10-19T08:29:23.410Z</time>
      </trkpt>
      <trkpt lat="43.53254" lon="5.62219">
        <ele>757</ele>
        <time>2022-10-19T08:29:24.410Z</time>
      </trkpt>
      <trkpt lat="43.53254" lon="5.62219">
        <ele>757</ele>
        <time>2022-10-19T08:29:25.410Z</time>
      </trkpt>
      <trkpt lat="43.53254" lon="5.62219">
        <ele>757</ele>
        <time>2022-10-19T08:29:26.410Z</time>
      </trkpt>
      <trkpt lat="43.53254" lon="5.62219">
        <ele>757</ele>
        <time>2022-10-19T08:29:27.410Z</time>
      </trkpt>
      <trkpt lat="43.53254" lon="5.62219">
        <ele>757</ele>
        <time>2022-10-19T08:29:28.410Z</time>
      </trkpt>
      <trkpt lat="43.53254" lon="5.62219">
        <ele>757</ele>
        <time>2022-10-19T08:29:29.410Z</time>
      </trkpt>
      <trkpt lat="43.53254" lon="5.62219">
        <ele>757</ele>
        <time>2022-10-19T08:29:30.410Z</time>
      </trkpt>
      <trkpt lat="43.53254" lon="5.62219">
        <ele>757</ele>
        <time>2022-10-19T08:29:31.410Z</time>
      </trkpt>
      <trkpt lat="43.53254" lon="5.62219">
        <ele>757</ele>
        <time>2022-10-19T08:29:32.410Z</time>
      </trkpt>
      <trkpt lat="43.53254" lon="5.62219">
        <ele>757</ele>
        <time>2022-10-19T08:29:33.410Z</time>
      </trkpt>
      <trkpt lat="43.53254" lon="5.62219">
        <ele>757</ele>
        <time>2022-10-19T08:29:34.410Z</time>
      </trkpt>
      <trkpt lat="43.53254" lon="5.62219">
        <ele>757</ele>
        <time>2022-10-19T08:29:35.410Z</time>
      </trkpt>
      <trkpt lat="43.53254" lon="5.62219">
        <ele>757</ele>
        <time>2022-10-19T08:29:36.410Z</time>
      </trkpt>
      <trkpt lat="43.53254" lon="5.62219">
        <ele>757</ele>
        <time>2022-10-19T08:29:37.410Z</time>
      </trkpt>
      <trkpt lat="43.53254" lon="5.62219">
        <ele>757</ele>
        <time>2022-10-19T08:29:38.410Z</time>
      </trkpt>
      <trkpt lat="43.53254" lon="5.62219">
        <ele>757</ele>
        <time>2022-10-19T08:29:39.410Z</time>
      </trkpt>
      <trkpt lat="43.53254" lon="5.62219">
        <ele>757</ele>
        <time>2022-10-19T08:29:40.410Z</time>
      </trkpt>
      <trkpt lat="43.53254" lon="5.62219">
        <ele>757</ele>
        <time>2022-10-19T08:29:41.410Z</time>
      </trkpt>
      <trkpt lat="43.53254" lon="5.62219">
        <ele>757</ele>
        <time>2022-10-19T08:29:42.410Z</time>
      </trkpt>
      <trkpt lat="43.53254" lon="5.62219">
        <ele>757</ele>
        <time>2022-10-19T08:29:43.410Z</time>
      </trkpt>
      <trkpt lat="43.53254" lon="5.62219">
        <ele>757</ele>
        <time>2022-10-19T08:29:44.410Z</time>
      </trkpt>
      <trkpt lat="43.53254" lon="5.62219">
        <ele>757</ele>
        <time>2022-10-19T08:29:45.410Z</time>
      </trkpt>
      <trkpt lat="43.53254" lon="5.62219">
        <ele>757</ele>
        <time>2022-10-19T08:29:46.410Z</time>
      </trkpt>
      <trkpt lat="43.53254" lon="5.62219">
        <ele>757</ele>
        <time>2022-10-19T08:29:47.410Z</time>
      </trkpt>
      <trkpt lat="43.53254" lon="5.62219">
        <ele>757</ele>
        <time>2022-10-19T08:29:48.410Z</time>
      </trkpt>
      <trkpt lat="43.53254" lon="5.62219">
        <ele>757</ele>
        <time>2022-10-19T08:29:49.410Z</time>
      </trkpt>
      <trkpt lat="43.53254" lon="5.62219">
        <ele>757</ele>
        <time>2022-10-19T08:29:50.410Z</time>
      </trkpt>
      <trkpt lat="43.53254" lon="5.62219">
        <ele>757</ele>
        <time>2022-10-19T08:29:51.410Z</time>
      </trkpt>
      <trkpt lat="43.53254" lon="5.62219">
        <ele>757</ele>
        <time>2022-10-19T08:29:52.410Z</time>
      </trkpt>
      <trkpt lat="43.53254" lon="5.62219">
        <ele>757</ele>
        <time>2022-10-19T08:29:53.410Z</time>
      </trkpt>
      <trkpt lat="43.53254" lon="5.62219">
        <ele>757</ele>
        <time>2022-10-19T08:29:54.410Z</time>
      </trkpt>
      <trkpt lat="43.53254" lon="5.62219">
        <ele>757</ele>
        <time>2022-10-19T08:29:55.410Z</time>
      </trkpt>
      <trkpt lat="43.53254" lon="5.62218">
        <ele>757</ele>
        <time>2022-10-19T08:29:56.410Z</time>
      </trkpt>
      <trkpt lat="43.53254" lon="5.62218">
        <ele>757</ele>
        <time>2022-10-19T08:29:57.410Z</time>
      </trkpt>
      <trkpt lat="43.53254" lon="5.62219">
        <ele>757</ele>
        <time>2022-10-19T08:29:58.410Z</time>
      </trkpt>
      <trkpt lat="43.53254" lon="5.62219">
        <ele>757</ele>
        <time>2022-10-19T08:29:59.410Z</time>
      </trkpt>
      <trkpt lat="43.53254" lon="5.62219">
        <ele>757</ele>
        <time>2022-10-19T08:30:00.410Z</time>
      </trkpt>
      <trkpt lat="43.53254" lon="5.62219">
        <ele>758</ele>
        <time>2022-10-19T08:30:01.410Z</time>
      </trkpt>
      <trkpt lat="43.53254" lon="5.62219">
        <ele>758</ele>
        <time>2022-10-19T08:30:02.410Z</time>
      </trkpt>
      <trkpt lat="43.53254" lon="5.62219">
        <ele>758</ele>
        <time>2022-10-19T08:30:03.410Z</time>
      </trkpt>
      <trkpt lat="43.53254" lon="5.62219">
        <ele>758</ele>
        <time>2022-10-19T08:30:04.410Z</time>
      </trkpt>
      <trkpt lat="43.53254" lon="5.62219">
        <ele>758</ele>
        <time>2022-10-19T08:30:05.410Z</time>
      </trkpt>
      <trkpt lat="43.53254" lon="5.62219">
        <ele>758</ele>
        <time>2022-10-19T08:30:06.410Z</time>
      </trkpt>
      <trkpt lat="43.53254" lon="5.62219">
        <ele>758</ele>
        <time>2022-10-19T08:30:07.410Z</time>
      </trkpt>
      <trkpt lat="43.53254" lon="5.62219">
        <ele>758</ele>
        <time>2022-10-19T08:30:08.410Z</time>
      </trkpt>
      <trkpt lat="43.53254" lon="5.62219">
        <ele>758</ele>
        <time>2022-10-19T08:30:09.410Z</time>
      </trkpt>
      <trkpt lat="43.53254" lon="5.62219">
        <ele>758</ele>
        <time>2022-10-19T08:30:10.410Z</time>
      </trkpt>
      <trkpt lat="43.53254" lon="5.62219">
        <ele>758</ele>
        <time>2022-10-19T08:30:11.410Z</time>
      </trkpt>
      <trkpt lat="43.53254" lon="5.62219">
        <ele>758</ele>
        <time>2022-10-19T08:30:12.410Z</time>
      </trkpt>
      <trkpt lat="43.53254" lon="5.62219">
        <ele>758</ele>
        <time>2022-10-19T08:30:13.410Z</time>
      </trkpt>
      <trkpt lat="43.53254" lon="5.62219">
        <ele>758</ele>
        <time>2022-10-19T08:30:14.410Z</time>
      </trkpt>
      <trkpt lat="43.53254" lon="5.62219">
        <ele>758</ele>
        <time>2022-10-19T08:30:15.410Z</time>
      </trkpt>
      <trkpt lat="43.53254" lon="5.62219">
        <ele>758</ele>
        <time>2022-10-19T08:30:16.410Z</time>
      </trkpt>
      <trkpt lat="43.53254" lon="5.62219">
        <ele>758</ele>
        <time>2022-10-19T08:30:17.410Z</time>
      </trkpt>
      <trkpt lat="43.53254" lon="5.62219">
        <ele>758</ele>
        <time>2022-10-19T08:30:18.410Z</time>
      </trkpt>
      <trkpt lat="43.53254" lon="5.62219">
        <ele>758</ele>
        <time>2022-10-19T08:30:19.410Z</time>
      </trkpt>
      <trkpt lat="43.53254" lon="5.62219">
        <ele>758</ele>
        <time>2022-10-19T08:30:20.410Z</time>
      </trkpt>
      <trkpt lat="43.53254" lon="5.62219">
        <ele>758</ele>
        <time>2022-10-19T08:30:21.410Z</time>
      </trkpt>
      <trkpt lat="43.53254" lon="5.62219">
        <ele>758</ele>
        <time>2022-10-19T08:30:22.410Z</time>
      </trkpt>
      <trkpt lat="43.53254" lon="5.62219">
        <ele>758</ele>
        <time>2022-10-19T08:30:23.410Z</time>
      </trkpt>
      <trkpt lat="43.53254" lon="5.62219">
        <ele>758</ele>
        <time>2022-10-19T08:30:24.410Z</time>
      </trkpt>
      <trkpt lat="43.53254" lon="5.62219">
        <ele>758</ele>
        <time>2022-10-19T08:30:25.410Z</time>
      </trkpt>
      <trkpt lat="43.53254" lon="5.62219">
        <ele>758</ele>
        <time>2022-10-19T08:30:26.410Z</time>
      </trkpt>
      <trkpt lat="43.53254" lon="5.62219">
        <ele>758</ele>
        <time>2022-10-19T08:30:27.410Z</time>
      </trkpt>
      <trkpt lat="43.53254" lon="5.62219">
        <ele>758</ele>
        <time>2022-10-19T08:30:28.410Z</time>
      </trkpt>
      <trkpt lat="43.53254" lon="5.62219">
        <ele>758</ele>
        <time>2022-10-19T08:30:29.410Z</time>
      </trkpt>
      <trkpt lat="43.53254" lon="5.62219">
        <ele>758</ele>
        <time>2022-10-19T08:30:30.410Z</time>
      </trkpt>
      <trkpt lat="43.53254" lon="5.62219">
        <ele>758</ele>
        <time>2022-10-19T08:30:31.410Z</time>
      </trkpt>
      <trkpt lat="43.53254" lon="5.62219">
        <ele>758</ele>
        <time>2022-10-19T08:30:32.410Z</time>
      </trkpt>
      <trkpt lat="43.53254" lon="5.62219">
        <ele>758</ele>
        <time>2022-10-19T08:30:33.410Z</time>
      </trkpt>
      <trkpt lat="43.53254" lon="5.62219">
        <ele>758</ele>
        <time>2022-10-19T08:30:34.410Z</time>
      </trkpt>
      <trkpt lat="43.53254" lon="5.62219">
        <ele>758</ele>
        <time>2022-10-19T08:30:35.410Z</time>
      </trkpt>
      <trkpt lat="43.53254" lon="5.62219">
        <ele>758</ele>
        <time>2022-10-19T08:30:36.410Z</time>
      </trkpt>
      <trkpt lat="43.53254" lon="5.62219">
        <ele>758</ele>
        <time>2022-10-19T08:30:37.410Z</time>
      </trkpt>
      <trkpt lat="43.53254" lon="5.62219">
        <ele>758</ele>
        <time>2022-10-19T08:30:38.410Z</time>
      </trkpt>
      <trkpt lat="43.53254" lon="5.62219">
        <ele>758</ele>
        <time>2022-10-19T08:30:39.410Z</time>
      </trkpt>
      <trkpt lat="43.53254" lon="5.62219">
        <ele>758</ele>
        <time>2022-10-19T08:30:40.410Z</time>
      </trkpt>
      <trkpt lat="43.53254" lon="5.62219">
        <ele>758</ele>
        <time>2022-10-19T08:30:41.410Z</time>
      </trkpt>
      <trkpt lat="43.53254" lon="5.6222">
        <ele>758</ele>
        <time>2022-10-19T08:30:42.410Z</time>
      </trkpt>
      <trkpt lat="43.53254" lon="5.62219">
        <ele>758</ele>
        <time>2022-10-19T08:30:43.410Z</time>
      </trkpt>
      <trkpt lat="43.53254" lon="5.62219">
        <ele>758</ele>
        <time>2022-10-19T08:30:44.410Z</time>
      </trkpt>
      <trkpt lat="43.53254" lon="5.62219">
        <ele>758</ele>
        <time>2022-10-19T08:30:45.410Z</time>
      </trkpt>
      <trkpt lat="43.53254" lon="5.62219">
        <ele>758</ele>
        <time>2022-10-19T08:30:46.410Z</time>
      </trkpt>
      <trkpt lat="43.53254" lon="5.62219">
        <ele>758</ele>
        <time>2022-10-19T08:30:47.410Z</time>
      </trkpt>
      <trkpt lat="43.53254" lon="5.62219">
        <ele>758</ele>
        <time>2022-10-19T08:30:48.410Z</time>
      </trkpt>
      <trkpt lat="43.53254" lon="5.62219">
        <ele>758</ele>
        <time>2022-10-19T08:30:49.410Z</time>
      </trkpt>
      <trkpt lat="43.53254" lon="5.62219">
        <ele>758</ele>
        <time>2022-10-19T08:30:50.410Z</time>
      </trkpt>
      <trkpt lat="43.53254" lon="5.62219">
        <ele>758</ele>
        <time>2022-10-19T08:30:51.410Z</time>
      </trkpt>
      <trkpt lat="43.53254" lon="5.62219">
        <ele>758</ele>
        <time>2022-10-19T08:30:52.410Z</time>
      </trkpt>
      <trkpt lat="43.53254" lon="5.62219">
        <ele>758</ele>
        <time>2022-10-19T08:30:53.410Z</time>
      </trkpt>
      <trkpt lat="43.53254" lon="5.62219">
        <ele>758</ele>
        <time>2022-10-19T08:30:54.410Z</time>
      </trkpt>
      <trkpt lat="43.53254" lon="5.62219">
        <ele>758</ele>
        <time>2022-10-19T08:30:55.410Z</time>
      </trkpt>
      <trkpt lat="43.53254" lon="5.62219">
        <ele>758</ele>
        <time>2022-10-19T08:30:56.410Z</time>
      </trkpt>
      <trkpt lat="43.53254" lon="5.62219">
        <ele>758</ele>
        <time>2022-10-19T08:30:57.410Z</time>
      </trkpt>
      <trkpt lat="43.53254" lon="5.62219">
        <ele>758</ele>
        <time>2022-10-19T08:30:58.410Z</time>
      </trkpt>
      <trkpt lat="43.53254" lon="5.62219">
        <ele>758</ele>
        <time>2022-10-19T08:30:59.410Z</time>
      </trkpt>
      <trkpt lat="43.53254" lon="5.62219">
        <ele>758</ele>
        <time>2022-10-19T08:31:00.410Z</time>
      </trkpt>
      <trkpt lat="43.53254" lon="5.62219">
        <ele>758</ele>
        <time>2022-10-19T08:31:01.410Z</time>
      </trkpt>
      <trkpt lat="43.53254" lon="5.62219">
        <ele>758</ele>
        <time>2022-10-19T08:31:02.410Z</time>
      </trkpt>
      <trkpt lat="43.53254" lon="5.62219">
        <ele>758</ele>
        <time>2022-10-19T08:31:03.410Z</time>
      </trkpt>
      <trkpt lat="43.53254" lon="5.62219">
        <ele>758</ele>
        <time>2022-10-19T08:31:04.410Z</time>
      </trkpt>
      <trkpt lat="43.53254" lon="5.62219">
        <ele>758</ele>
        <time>2022-10-19T08:31:05.410Z</time>
      </trkpt>
      <trkpt lat="43.53254" lon="5.62219">
        <ele>758</ele>
        <time>2022-10-19T08:31:06.410Z</time>
      </trkpt>
      <trkpt lat="43.53254" lon="5.62219">
        <ele>758</ele>
        <time>2022-10-19T08:31:07.410Z</time>
      </trkpt>
      <trkpt lat="43.53254" lon="5.62219">
        <ele>758</ele>
        <time>2022-10-19T08:31:08.410Z</time>
      </trkpt>
      <trkpt lat="43.53254" lon="5.62219">
        <ele>758</ele>
        <time>2022-10-19T08:31:09.410Z</time>
      </trkpt>
      <trkpt lat="43.53254" lon="5.62219">
        <ele>758</ele>
        <time>2022-10-19T08:31:10.410Z</time>
      </trkpt>
      <trkpt lat="43.53254" lon="5.62219">
        <ele>758</ele>
        <time>2022-10-19T08:31:11.410Z</time>
      </trkpt>
      <trkpt lat="43.53254" lon="5.62219">
        <ele>758</ele>
        <time>2022-10-19T08:31:12.410Z</time>
      </trkpt>
      <trkpt lat="43.53254" lon="5.62219">
        <ele>758</ele>
        <time>2022-10-19T08:31:13.410Z</time>
      </trkpt>
      <trkpt lat="43.53254" lon="5.62219">
        <ele>758</ele>
        <time>2022-10-19T08:31:14.410Z</time>
      </trkpt>
      <trkpt lat="43.53254" lon="5.62219">
        <ele>758</ele>
        <time>2022-10-19T08:31:15.410Z</time>
      </trkpt>
      <trkpt lat="43.53254" lon="5.62219">
        <ele>758</ele>
        <time>2022-10-19T08:31:16.410Z</time>
      </trkpt>
      <trkpt lat="43.53254" lon="5.62219">
        <ele>758</ele>
        <time>2022-10-19T08:31:17.410Z</time>
      </trkpt>
      <trkpt lat="43.53254" lon="5.62219">
        <ele>758</ele>
        <time>2022-10-19T08:31:18.410Z</time>
      </trkpt>
      <trkpt lat="43.53254" lon="5.62219">
        <ele>758</ele>
        <time>2022-10-19T08:31:19.410Z</time>
      </trkpt>
      <trkpt lat="43.53254" lon="5.62219">
        <ele>758</ele>
        <time>2022-10-19T08:31:20.410Z</time>
      </trkpt>
      <trkpt lat="43.53254" lon="5.62219">
        <ele>758</ele>
        <time>2022-10-19T08:31:21.410Z</time>
      </trkpt>
      <trkpt lat="43.53254" lon="5.62219">
        <ele>758</ele>
        <time>2022-10-19T08:31:22.410Z</time>
      </trkpt>
      <trkpt lat="43.53254" lon="5.62219">
        <ele>758</ele>
        <time>2022-10-19T08:31:23.410Z</time>
      </trkpt>
      <trkpt lat="43.53254" lon="5.62219">
        <ele>758</ele>
        <time>2022-10-19T08:31:24.410Z</time>
      </trkpt>
      <trkpt lat="43.53254" lon="5.62219">
        <ele>758</ele>
        <time>2022-10-19T08:31:25.410Z</time>
      </trkpt>
      <trkpt lat="43.53254" lon="5.62219">
        <ele>758</ele>
        <time>2022-10-19T08:31:26.410Z</time>
      </trkpt>
      <trkpt lat="43.53254" lon="5.62219">
        <ele>758</ele>
        <time>2022-10-19T08:31:27.410Z</time>
      </trkpt>
      <trkpt lat="43.53254" lon="5.62219">
        <ele>758</ele>
        <time>2022-10-19T08:31:28.410Z</time>
      </trkpt>
      <trkpt lat="43.53254" lon="5.62219">
        <ele>758</ele>
        <time>2022-10-19T08:31:29.410Z</time>
      </trkpt>
      <trkpt lat="43.53254" lon="5.62219">
        <ele>758</ele>
        <time>2022-10-19T08:31:30.410Z</time>
      </trkpt>
      <trkpt lat="43.53254" lon="5.62219">
        <ele>758</ele>
        <time>2022-10-19T08:31:31.410Z</time>
      </trkpt>
      <trkpt lat="43.53254" lon="5.62219">
        <ele>758</ele>
        <time>2022-10-19T08:31:32.410Z</time>
      </trkpt>
      <trkpt lat="43.53254" lon="5.62219">
        <ele>758</ele>
        <time>2022-10-19T08:31:33.410Z</time>
      </trkpt>
      <trkpt lat="43.53254" lon="5.62219">
        <ele>758</ele>
        <time>2022-10-19T08:31:34.410Z</time>
      </trkpt>
      <trkpt lat="43.53254" lon="5.62219">
        <ele>758</ele>
        <time>2022-10-19T08:31:35.410Z</time>
      </trkpt>
      <trkpt lat="43.53254" lon="5.62219">
        <ele>758</ele>
        <time>2022-10-19T08:31:36.410Z</time>
      </trkpt>
      <trkpt lat="43.53254" lon="5.62219">
        <ele>758</ele>
        <time>2022-10-19T08:31:37.410Z</time>
      </trkpt>
      <trkpt lat="43.53254" lon="5.62219">
        <ele>758</ele>
        <time>2022-10-19T08:31:38.410Z</time>
      </trkpt>
      <trkpt lat="43.53254" lon="5.62219">
        <ele>758</ele>
        <time>2022-10-19T08:31:39.410Z</time>
      </trkpt>
      <trkpt lat="43.53254" lon="5.62219">
        <ele>758</ele>
        <time>2022-10-19T08:31:40.410Z</time>
      </trkpt>
      <trkpt lat="43.53254" lon="5.62219">
        <ele>758</ele>
        <time>2022-10-19T08:31:41.410Z</time>
      </trkpt>
      <trkpt lat="43.53254" lon="5.62219">
        <ele>758</ele>
        <time>2022-10-19T08:31:42.410Z</time>
      </trkpt>
      <trkpt lat="43.53254" lon="5.62219">
        <ele>758</ele>
        <time>2022-10-19T08:31:43.410Z</time>
      </trkpt>
      <trkpt lat="43.53254" lon="5.62219">
        <ele>758</ele>
        <time>2022-10-19T08:31:44.410Z</time>
      </trkpt>
      <trkpt lat="43.53254" lon="5.62219">
        <ele>758</ele>
        <time>2022-10-19T08:31:45.410Z</time>
      </trkpt>
      <trkpt lat="43.53254" lon="5.62219">
        <ele>758</ele>
        <time>2022-10-19T08:31:46.410Z</time>
      </trkpt>
      <trkpt lat="43.53254" lon="5.62219">
        <ele>758</ele>
        <time>2022-10-19T08:31:47.410Z</time>
      </trkpt>
      <trkpt lat="43.53254" lon="5.62219">
        <ele>758</ele>
        <time>2022-10-19T08:31:48.410Z</time>
      </trkpt>
      <trkpt lat="43.53254" lon="5.62219">
        <ele>758</ele>
        <time>2022-10-19T08:31:49.410Z</time>
      </trkpt>
      <trkpt lat="43.53254" lon="5.62219">
        <ele>758</ele>
        <time>2022-10-19T08:31:50.410Z</time>
      </trkpt>
      <trkpt lat="43.53255" lon="5.62219">
        <ele>758</ele>
        <time>2022-10-19T08:31:51.410Z</time>
      </trkpt>
      <trkpt lat="43.53255" lon="5.6222">
        <ele>758</ele>
        <time>2022-10-19T08:31:52.410Z</time>
      </trkpt>
      <trkpt lat="43.53255" lon="5.6222">
        <ele>758</ele>
        <time>2022-10-19T08:31:53.410Z</time>
      </trkpt>
      <trkpt lat="43.53255" lon="5.6222">
        <ele>758</ele>
        <time>2022-10-19T08:31:54.410Z</time>
      </trkpt>
      <trkpt lat="43.53255" lon="5.6222">
        <ele>758</ele>
        <time>2022-10-19T08:31:55.410Z</time>
      </trkpt>
      <trkpt lat="43.53255" lon="5.6222">
        <ele>758</ele>
        <time>2022-10-19T08:31:56.410Z</time>
      </trkpt>
      <trkpt lat="43.53255" lon="5.6222">
        <ele>758</ele>
        <time>2022-10-19T08:31:57.410Z</time>
      </trkpt>
      <trkpt lat="43.53254" lon="5.62219">
        <ele>758</ele>
        <time>2022-10-19T08:31:58.410Z</time>
      </trkpt>
      <trkpt lat="43.53254" lon="5.62219">
        <ele>758</ele>
        <time>2022-10-19T08:31:59.410Z</time>
      </trkpt>
      <trkpt lat="43.53254" lon="5.62219">
        <ele>758</ele>
        <time>2022-10-19T08:32:00.410Z</time>
      </trkpt>
      <trkpt lat="43.53254" lon="5.6222">
        <ele>758</ele>
        <time>2022-10-19T08:32:01.410Z</time>
      </trkpt>
      <trkpt lat="43.53254" lon="5.62219">
        <ele>758</ele>
        <time>2022-10-19T08:32:02.410Z</time>
      </trkpt>
      <trkpt lat="43.53254" lon="5.62219">
        <ele>758</ele>
        <time>2022-10-19T08:32:03.410Z</time>
      </trkpt>
      <trkpt lat="43.53254" lon="5.62219">
        <ele>758</ele>
        <time>2022-10-19T08:32:04.410Z</time>
      </trkpt>
      <trkpt lat="43.53254" lon="5.62219">
        <ele>758</ele>
        <time>2022-10-19T08:32:05.410Z</time>
      </trkpt>
      <trkpt lat="43.53254" lon="5.62219">
        <ele>758</ele>
        <time>2022-10-19T08:32:06.410Z</time>
      </trkpt>
      <trkpt lat="43.53254" lon="5.62219">
        <ele>758</ele>
        <time>2022-10-19T08:32:07.410Z</time>
      </trkpt>
      <trkpt lat="43.53254" lon="5.62219">
        <ele>758</ele>
        <time>2022-10-19T08:32:08.410Z</time>
      </trkpt>
      <trkpt lat="43.53254" lon="5.62219">
        <ele>758</ele>
        <time>2022-10-19T08:32:09.410Z</time>
      </trkpt>
      <trkpt lat="43.53254" lon="5.62219">
        <ele>758</ele>
        <time>2022-10-19T08:32:10.410Z</time>
      </trkpt>
      <trkpt lat="43.53254" lon="5.62219">
        <ele>758</ele>
        <time>2022-10-19T08:32:11.410Z</time>
      </trkpt>
      <trkpt lat="43.53254" lon="5.62219">
        <ele>758</ele>
        <time>2022-10-19T08:32:12.410Z</time>
      </trkpt>
      <trkpt lat="43.53254" lon="5.62219">
        <ele>758</ele>
        <time>2022-10-19T08:32:13.410Z</time>
      </trkpt>
      <trkpt lat="43.53254" lon="5.62219">
        <ele>758</ele>
        <time>2022-10-19T08:32:14.410Z</time>
      </trkpt>
      <trkpt lat="43.53254" lon="5.62219">
        <ele>758</ele>
        <time>2022-10-19T08:32:15.410Z</time>
      </trkpt>
      <trkpt lat="43.53254" lon="5.62219">
        <ele>758</ele>
        <time>2022-10-19T08:32:16.410Z</time>
      </trkpt>
      <trkpt lat="43.53254" lon="5.62219">
        <ele>758</ele>
        <time>2022-10-19T08:32:17.410Z</time>
      </trkpt>
      <trkpt lat="43.53254" lon="5.62219">
        <ele>758</ele>
        <time>2022-10-19T08:32:18.410Z</time>
      </trkpt>
      <trkpt lat="43.53254" lon="5.62219">
        <ele>758</ele>
        <time>2022-10-19T08:32:19.410Z</time>
      </trkpt>
      <trkpt lat="43.53254" lon="5.62219">
        <ele>758</ele>
        <time>2022-10-19T08:32:20.410Z</time>
      </trkpt>
      <trkpt lat="43.53254" lon="5.62219">
        <ele>758</ele>
        <time>2022-10-19T08:32:21.410Z</time>
      </trkpt>
      <trkpt lat="43.53254" lon="5.62219">
        <ele>758</ele>
        <time>2022-10-19T08:32:22.410Z</time>
      </trkpt>
      <trkpt lat="43.53254" lon="5.62218">
        <ele>758</ele>
        <time>2022-10-19T08:32:23.410Z</time>
      </trkpt>
      <trkpt lat="43.53253" lon="5.62218">
        <ele>758</ele>
        <time>2022-10-19T08:32:24.410Z</time>
      </trkpt>
      <trkpt lat="43.53253" lon="5.62218">
        <ele>758</ele>
        <time>2022-10-19T08:32:25.410Z</time>
      </trkpt>
      <trkpt lat="43.53253" lon="5.62217">
        <ele>758</ele>
        <time>2022-10-19T08:32:26.410Z</time>
      </trkpt>
      <trkpt lat="43.53253" lon="5.62216">
        <ele>758</ele>
        <time>2022-10-19T08:32:27.410Z</time>
      </trkpt>
      <trkpt lat="43.53253" lon="5.62216">
        <ele>758</ele>
        <time>2022-10-19T08:32:28.410Z</time>
      </trkpt>
      <trkpt lat="43.53253" lon="5.62215">
        <ele>758</ele>
        <time>2022-10-19T08:32:29.410Z</time>
      </trkpt>
      <trkpt lat="43.53253" lon="5.62214">
        <ele>759</ele>
        <time>2022-10-19T08:32:30.410Z</time>
      </trkpt>
      <trkpt lat="43.53253" lon="5.62214">
        <ele>759</ele>
        <time>2022-10-19T08:32:31.410Z</time>
      </trkpt>
      <trkpt lat="43.53253" lon="5.62214">
        <ele>759</ele>
        <time>2022-10-19T08:32:32.410Z</time>
      </trkpt>
      <trkpt lat="43.53253" lon="5.62213">
        <ele>759</ele>
        <time>2022-10-19T08:32:33.410Z</time>
      </trkpt>
      <trkpt lat="43.53253" lon="5.62212">
        <ele>759</ele>
        <time>2022-10-19T08:32:34.410Z</time>
      </trkpt>
      <trkpt lat="43.53253" lon="5.62211">
        <ele>759</ele>
        <time>2022-10-19T08:32:35.410Z</time>
      </trkpt>
      <trkpt lat="43.53253" lon="5.62211">
        <ele>759</ele>
        <time>2022-10-19T08:32:36.410Z</time>
      </trkpt>
      <trkpt lat="43.53253" lon="5.6221">
        <ele>759</ele>
        <time>2022-10-19T08:32:37.410Z</time>
      </trkpt>
      <trkpt lat="43.53253" lon="5.6221">
        <ele>759</ele>
        <time>2022-10-19T08:32:38.410Z</time>
      </trkpt>
      <trkpt lat="43.53253" lon="5.62209">
        <ele>759</ele>
        <time>2022-10-19T08:32:39.410Z</time>
      </trkpt>
      <trkpt lat="43.53253" lon="5.62209">
        <ele>759</ele>
        <time>2022-10-19T08:32:40.410Z</time>
      </trkpt>
      <trkpt lat="43.53253" lon="5.62208">
        <ele>759</ele>
        <time>2022-10-19T08:32:41.410Z</time>
      </trkpt>
      <trkpt lat="43.53253" lon="5.62208">
        <ele>760</ele>
        <time>2022-10-19T08:32:42.410Z</time>
      </trkpt>
      <trkpt lat="43.53253" lon="5.62207">
        <ele>760</ele>
        <time>2022-10-19T08:32:43.410Z</time>
      </trkpt>
      <trkpt lat="43.53253" lon="5.62207">
        <ele>760</ele>
        <time>2022-10-19T08:32:44.410Z</time>
      </trkpt>
      <trkpt lat="43.53253" lon="5.62206">
        <ele>760</ele>
        <time>2022-10-19T08:32:45.410Z</time>
      </trkpt>
      <trkpt lat="43.53253" lon="5.62206">
        <ele>760</ele>
        <time>2022-10-19T08:32:46.410Z</time>
      </trkpt>
      <trkpt lat="43.53253" lon="5.62205">
        <ele>760</ele>
        <time>2022-10-19T08:32:47.410Z</time>
      </trkpt>
      <trkpt lat="43.53254" lon="5.62204">
        <ele>760</ele>
        <time>2022-10-19T08:32:48.410Z</time>
      </trkpt>
      <trkpt lat="43.53254" lon="5.62204">
        <ele>761</ele>
        <time>2022-10-19T08:32:49.410Z</time>
      </trkpt>
      <trkpt lat="43.53254" lon="5.62203">
        <ele>761</ele>
        <time>2022-10-19T08:32:50.410Z</time>
      </trkpt>
      <trkpt lat="43.53254" lon="5.62203">
        <ele>761</ele>
        <time>2022-10-19T08:32:51.410Z</time>
      </trkpt>
      <trkpt lat="43.53254" lon="5.62203">
        <ele>761</ele>
        <time>2022-10-19T08:32:52.410Z</time>
      </trkpt>
      <trkpt lat="43.53253" lon="5.62202">
        <ele>761</ele>
        <time>2022-10-19T08:32:53.410Z</time>
      </trkpt>
      <trkpt lat="43.53253" lon="5.62202">
        <ele>761</ele>
        <time>2022-10-19T08:32:54.410Z</time>
      </trkpt>
      <trkpt lat="43.53252" lon="5.62202">
        <ele>762</ele>
        <time>2022-10-19T08:32:55.410Z</time>
      </trkpt>
      <trkpt lat="43.53252" lon="5.62201">
        <ele>762</ele>
        <time>2022-10-19T08:32:56.410Z</time>
      </trkpt>
      <trkpt lat="43.53251" lon="5.62201">
        <ele>762</ele>
        <time>2022-10-19T08:32:57.410Z</time>
      </trkpt>
      <trkpt lat="43.53251" lon="5.622">
        <ele>762</ele>
        <time>2022-10-19T08:32:58.410Z</time>
      </trkpt>
      <trkpt lat="43.53251" lon="5.62199">
        <ele>762</ele>
        <time>2022-10-19T08:32:59.410Z</time>
      </trkpt>
      <trkpt lat="43.53251" lon="5.62199">
        <ele>762</ele>
        <time>2022-10-19T08:33:00.410Z</time>
      </trkpt>
      <trkpt lat="43.53251" lon="5.62198">
        <ele>762</ele>
        <time>2022-10-19T08:33:01.410Z</time>
      </trkpt>
      <trkpt lat="43.53251" lon="5.62198">
        <ele>762</ele>
        <time>2022-10-19T08:33:02.410Z</time>
      </trkpt>
      <trkpt lat="43.53251" lon="5.62197">
        <ele>763</ele>
        <time>2022-10-19T08:33:03.410Z</time>
      </trkpt>
      <trkpt lat="43.53251" lon="5.62196">
        <ele>763</ele>
        <time>2022-10-19T08:33:04.410Z</time>
      </trkpt>
      <trkpt lat="43.53251" lon="5.62196">
        <ele>763</ele>
        <time>2022-10-19T08:33:05.410Z</time>
      </trkpt>
      <trkpt lat="43.53251" lon="5.62195">
        <ele>763</ele>
        <time>2022-10-19T08:33:06.410Z</time>
      </trkpt>
      <trkpt lat="43.5325" lon="5.62195">
        <ele>763</ele>
        <time>2022-10-19T08:33:07.410Z</time>
      </trkpt>
      <trkpt lat="43.5325" lon="5.62194">
        <ele>763</ele>
        <time>2022-10-19T08:33:08.410Z</time>
      </trkpt>
      <trkpt lat="43.5325" lon="5.62194">
        <ele>764</ele>
        <time>2022-10-19T08:33:09.410Z</time>
      </trkpt>
      <trkpt lat="43.5325" lon="5.62193">
        <ele>764</ele>
        <time>2022-10-19T08:33:10.410Z</time>
      </trkpt>
      <trkpt lat="43.5325" lon="5.62193">
        <ele>764</ele>
        <time>2022-10-19T08:33:11.410Z</time>
      </trkpt>
      <trkpt lat="43.5325" lon="5.62192">
        <ele>764</ele>
        <time>2022-10-19T08:33:12.410Z</time>
      </trkpt>
      <trkpt lat="43.5325" lon="5.62192">
        <ele>764</ele>
        <time>2022-10-19T08:33:13.410Z</time>
      </trkpt>
      <trkpt lat="43.5325" lon="5.62191">
        <ele>764</ele>
        <time>2022-10-19T08:33:14.410Z</time>
      </trkpt>
      <trkpt lat="43.5325" lon="5.62191">
        <ele>764</ele>
        <time>2022-10-19T08:33:15.410Z</time>
      </trkpt>
      <trkpt lat="43.5325" lon="5.6219">
        <ele>764</ele>
        <time>2022-10-19T08:33:16.410Z</time>
      </trkpt>
      <trkpt lat="43.5325" lon="5.6219">
        <ele>765</ele>
        <time>2022-10-19T08:33:17.410Z</time>
      </trkpt>
      <trkpt lat="43.5325" lon="5.62189">
        <ele>765</ele>
        <time>2022-10-19T08:33:18.410Z</time>
      </trkpt>
      <trkpt lat="43.5325" lon="5.62189">
        <ele>765</ele>
        <time>2022-10-19T08:33:19.410Z</time>
      </trkpt>
      <trkpt lat="43.5325" lon="5.62189">
        <ele>765</ele>
        <time>2022-10-19T08:33:20.410Z</time>
      </trkpt>
      <trkpt lat="43.53249" lon="5.62188">
        <ele>765</ele>
        <time>2022-10-19T08:33:21.410Z</time>
      </trkpt>
      <trkpt lat="43.53249" lon="5.62188">
        <ele>765</ele>
        <time>2022-10-19T08:33:22.410Z</time>
      </trkpt>
      <trkpt lat="43.53249" lon="5.62187">
        <ele>765</ele>
        <time>2022-10-19T08:33:23.410Z</time>
      </trkpt>
      <trkpt lat="43.53249" lon="5.62186">
        <ele>765</ele>
        <time>2022-10-19T08:33:24.410Z</time>
      </trkpt>
      <trkpt lat="43.53249" lon="5.62186">
        <ele>765</ele>
        <time>2022-10-19T08:33:25.410Z</time>
      </trkpt>
      <trkpt lat="43.53249" lon="5.62186">
        <ele>766</ele>
        <time>2022-10-19T08:33:26.410Z</time>
      </trkpt>
      <trkpt lat="43.53249" lon="5.62185">
        <ele>766</ele>
        <time>2022-10-19T08:33:27.410Z</time>
      </trkpt>
      <trkpt lat="43.5325" lon="5.62185">
        <ele>766</ele>
        <time>2022-10-19T08:33:28.410Z</time>
      </trkpt>
      <trkpt lat="43.5325" lon="5.62185">
        <ele>766</ele>
        <time>2022-10-19T08:33:29.410Z</time>
      </trkpt>
      <trkpt lat="43.5325" lon="5.62184">
        <ele>766</ele>
        <time>2022-10-19T08:33:30.410Z</time>
      </trkpt>
      <trkpt lat="43.5325" lon="5.62184">
        <ele>766</ele>
        <time>2022-10-19T08:33:31.410Z</time>
      </trkpt>
      <trkpt lat="43.5325" lon="5.62183">
        <ele>766</ele>
        <time>2022-10-19T08:33:32.410Z</time>
      </trkpt>
      <trkpt lat="43.5325" lon="5.62183">
        <ele>767</ele>
        <time>2022-10-19T08:33:33.410Z</time>
      </trkpt>
      <trkpt lat="43.5325" lon="5.62183">
        <ele>767</ele>
        <time>2022-10-19T08:33:34.410Z</time>
      </trkpt>
      <trkpt lat="43.53249" lon="5.62183">
        <ele>767</ele>
        <time>2022-10-19T08:33:35.410Z</time>
      </trkpt>
      <trkpt lat="43.53249" lon="5.62182">
        <ele>767</ele>
        <time>2022-10-19T08:33:36.410Z</time>
      </trkpt>
      <trkpt lat="43.53249" lon="5.62182">
        <ele>767</ele>
        <time>2022-10-19T08:33:37.410Z</time>
      </trkpt>
      <trkpt lat="43.53249" lon="5.62182">
        <ele>767</ele>
        <time>2022-10-19T08:33:38.410Z</time>
      </trkpt>
      <trkpt lat="43.53249" lon="5.62182">
        <ele>767</ele>
        <time>2022-10-19T08:33:39.410Z</time>
      </trkpt>
      <trkpt lat="43.53249" lon="5.62182">
        <ele>767</ele>
        <time>2022-10-19T08:33:40.410Z</time>
      </trkpt>
      <trkpt lat="43.53249" lon="5.62182">
        <ele>767</ele>
        <time>2022-10-19T08:33:41.410Z</time>
      </trkpt>
      <trkpt lat="43.53249" lon="5.62182">
        <ele>767</ele>
        <time>2022-10-19T08:33:42.410Z</time>
      </trkpt>
      <trkpt lat="43.53249" lon="5.62182">
        <ele>767</ele>
        <time>2022-10-19T08:33:43.410Z</time>
      </trkpt>
      <trkpt lat="43.53249" lon="5.62182">
        <ele>767</ele>
        <time>2022-10-19T08:33:44.410Z</time>
      </trkpt>
      <trkpt lat="43.53249" lon="5.62182">
        <ele>767</ele>
        <time>2022-10-19T08:33:45.410Z</time>
      </trkpt>
      <trkpt lat="43.53249" lon="5.62182">
        <ele>767</ele>
        <time>2022-10-19T08:33:46.410Z</time>
      </trkpt>
      <trkpt lat="43.53249" lon="5.62182">
        <ele>767</ele>
        <time>2022-10-19T08:33:47.410Z</time>
      </trkpt>
      <trkpt lat="43.53249" lon="5.62182">
        <ele>767</ele>
        <time>2022-10-19T08:33:48.410Z</time>
      </trkpt>
      <trkpt lat="43.53249" lon="5.62182">
        <ele>767</ele>
        <time>2022-10-19T08:33:49.410Z</time>
      </trkpt>
      <trkpt lat="43.53249" lon="5.62182">
        <ele>767</ele>
        <time>2022-10-19T08:33:50.410Z</time>
      </trkpt>
      <trkpt lat="43.53249" lon="5.62182">
        <ele>767</ele>
        <time>2022-10-19T08:33:51.410Z</time>
      </trkpt>
      <trkpt lat="43.53249" lon="5.62182">
        <ele>767</ele>
        <time>2022-10-19T08:33:52.410Z</time>
      </trkpt>
      <trkpt lat="43.53249" lon="5.62182">
        <ele>767</ele>
        <time>2022-10-19T08:33:53.410Z</time>
      </trkpt>
      <trkpt lat="43.53249" lon="5.62182">
        <ele>767</ele>
        <time>2022-10-19T08:33:54.410Z</time>
      </trkpt>
      <trkpt lat="43.53249" lon="5.62182">
        <ele>767</ele>
        <time>2022-10-19T08:33:55.410Z</time>
      </trkpt>
      <trkpt lat="43.53249" lon="5.62182">
        <ele>767</ele>
        <time>2022-10-19T08:33:56.410Z</time>
      </trkpt>
      <trkpt lat="43.53249" lon="5.62182">
        <ele>767</ele>
        <time>2022-10-19T08:33:57.410Z</time>
      </trkpt>
      <trkpt lat="43.53249" lon="5.62182">
        <ele>767</ele>
        <time>2022-10-19T08:33:58.410Z</time>
      </trkpt>
      <trkpt lat="43.53249" lon="5.62182">
        <ele>767</ele>
        <time>2022-10-19T08:33:59.410Z</time>
      </trkpt>
      <trkpt lat="43.53249" lon="5.62182">
        <ele>767</ele>
        <time>2022-10-19T08:34:00.410Z</time>
      </trkpt>
      <trkpt lat="43.53249" lon="5.62182">
        <ele>767</ele>
        <time>2022-10-19T08:34:01.410Z</time>
      </trkpt>
      <trkpt lat="43.53249" lon="5.62182">
        <ele>767</ele>
        <time>2022-10-19T08:34:02.410Z</time>
      </trkpt>
      <trkpt lat="43.53249" lon="5.62182">
        <ele>767</ele>
        <time>2022-10-19T08:34:03.410Z</time>
      </trkpt>
      <trkpt lat="43.53249" lon="5.62182">
        <ele>767</ele>
        <time>2022-10-19T08:34:04.410Z</time>
      </trkpt>
      <trkpt lat="43.53249" lon="5.62182">
        <ele>767</ele>
        <time>2022-10-19T08:34:05.410Z</time>
      </trkpt>
      <trkpt lat="43.53249" lon="5.62182">
        <ele>767</ele>
        <time>2022-10-19T08:34:06.410Z</time>
      </trkpt>
      <trkpt lat="43.53249" lon="5.62181">
        <ele>768</ele>
        <time>2022-10-19T08:34:07.410Z</time>
      </trkpt>
      <trkpt lat="43.53248" lon="5.62181">
        <ele>768</ele>
        <time>2022-10-19T08:34:08.410Z</time>
      </trkpt>
      <trkpt lat="43.53249" lon="5.6218">
        <ele>768</ele>
        <time>2022-10-19T08:34:09.410Z</time>
      </trkpt>
      <trkpt lat="43.53248" lon="5.6218">
        <ele>768</ele>
        <time>2022-10-19T08:34:10.410Z</time>
      </trkpt>
      <trkpt lat="43.53248" lon="5.62179">
        <ele>768</ele>
        <time>2022-10-19T08:34:11.410Z</time>
      </trkpt>
      <trkpt lat="43.53248" lon="5.62179">
        <ele>768</ele>
        <time>2022-10-19T08:34:12.410Z</time>
      </trkpt>
      <trkpt lat="43.53248" lon="5.62178">
        <ele>768</ele>
        <time>2022-10-19T08:34:13.410Z</time>
      </trkpt>
      <trkpt lat="43.53248" lon="5.62177">
        <ele>768</ele>
        <time>2022-10-19T08:34:14.410Z</time>
      </trkpt>
      <trkpt lat="43.53248" lon="5.62177">
        <ele>768</ele>
        <time>2022-10-19T08:34:15.410Z</time>
      </trkpt>
      <trkpt lat="43.53248" lon="5.62176">
        <ele>769</ele>
        <time>2022-10-19T08:34:16.410Z</time>
      </trkpt>
      <trkpt lat="43.53247" lon="5.62176">
        <ele>769</ele>
        <time>2022-10-19T08:34:17.410Z</time>
      </trkpt>
      <trkpt lat="43.53247" lon="5.62176">
        <ele>769</ele>
        <time>2022-10-19T08:34:18.410Z</time>
      </trkpt>
      <trkpt lat="43.53247" lon="5.62175">
        <ele>769</ele>
        <time>2022-10-19T08:34:19.410Z</time>
      </trkpt>
      <trkpt lat="43.53247" lon="5.62174">
        <ele>769</ele>
        <time>2022-10-19T08:34:20.410Z</time>
      </trkpt>
      <trkpt lat="43.53247" lon="5.62174">
        <ele>769</ele>
        <time>2022-10-19T08:34:21.410Z</time>
      </trkpt>
      <trkpt lat="43.53247" lon="5.62173">
        <ele>769</ele>
        <time>2022-10-19T08:34:22.410Z</time>
      </trkpt>
      <trkpt lat="43.53247" lon="5.62172">
        <ele>769</ele>
        <time>2022-10-19T08:34:23.410Z</time>
      </trkpt>
      <trkpt lat="43.53246" lon="5.62172">
        <ele>769</ele>
        <time>2022-10-19T08:34:24.410Z</time>
      </trkpt>
      <trkpt lat="43.53246" lon="5.62171">
        <ele>769</ele>
        <time>2022-10-19T08:34:25.410Z</time>
      </trkpt>
      <trkpt lat="43.53246" lon="5.6217">
        <ele>769</ele>
        <time>2022-10-19T08:34:26.410Z</time>
      </trkpt>
      <trkpt lat="43.53246" lon="5.6217">
        <ele>769</ele>
        <time>2022-10-19T08:34:27.410Z</time>
      </trkpt>
      <trkpt lat="43.53246" lon="5.62169">
        <ele>769</ele>
        <time>2022-10-19T08:34:28.410Z</time>
      </trkpt>
      <trkpt lat="43.53246" lon="5.62168">
        <ele>769</ele>
        <time>2022-10-19T08:34:29.410Z</time>
      </trkpt>
      <trkpt lat="43.53246" lon="5.62168">
        <ele>769</ele>
        <time>2022-10-19T08:34:30.410Z</time>
      </trkpt>
      <trkpt lat="43.53246" lon="5.62167">
        <ele>769</ele>
        <time>2022-10-19T08:34:31.410Z</time>
      </trkpt>
      <trkpt lat="43.53246" lon="5.62167">
        <ele>769</ele>
        <time>2022-10-19T08:34:32.410Z</time>
      </trkpt>
      <trkpt lat="43.53247" lon="5.62167">
        <ele>770</ele>
        <time>2022-10-19T08:34:33.410Z</time>
      </trkpt>
      <trkpt lat="43.53247" lon="5.62166">
        <ele>770</ele>
        <time>2022-10-19T08:34:34.410Z</time>
      </trkpt>
      <trkpt lat="43.53247" lon="5.62165">
        <ele>770</ele>
        <time>2022-10-19T08:34:35.410Z</time>
      </trkpt>
      <trkpt lat="43.53247" lon="5.62165">
        <ele>770</ele>
        <time>2022-10-19T08:34:36.410Z</time>
      </trkpt>
      <trkpt lat="43.53248" lon="5.62165">
        <ele>770</ele>
        <time>2022-10-19T08:34:37.410Z</time>
      </trkpt>
      <trkpt lat="43.53248" lon="5.62165">
        <ele>770</ele>
        <time>2022-10-19T08:34:38.410Z</time>
      </trkpt>
      <trkpt lat="43.53248" lon="5.62164">
        <ele>770</ele>
        <time>2022-10-19T08:34:39.410Z</time>
      </trkpt>
      <trkpt lat="43.53249" lon="5.62165">
        <ele>770</ele>
        <time>2022-10-19T08:34:40.410Z</time>
      </trkpt>
      <trkpt lat="43.53249" lon="5.62165">
        <ele>770</ele>
        <time>2022-10-19T08:34:41.410Z</time>
      </trkpt>
      <trkpt lat="43.53249" lon="5.62165">
        <ele>770</ele>
        <time>2022-10-19T08:34:42.410Z</time>
      </trkpt>
      <trkpt lat="43.5325" lon="5.62165">
        <ele>770</ele>
        <time>2022-10-19T08:34:43.410Z</time>
      </trkpt>
      <trkpt lat="43.5325" lon="5.62165">
        <ele>770</ele>
        <time>2022-10-19T08:34:44.410Z</time>
      </trkpt>
      <trkpt lat="43.5325" lon="5.62165">
        <ele>771</ele>
        <time>2022-10-19T08:34:45.410Z</time>
      </trkpt>
      <trkpt lat="43.5325" lon="5.62165">
        <ele>771</ele>
        <time>2022-10-19T08:34:46.410Z</time>
      </trkpt>
      <trkpt lat="43.53251" lon="5.62165">
        <ele>771</ele>
        <time>2022-10-19T08:34:47.410Z</time>
      </trkpt>
      <trkpt lat="43.53251" lon="5.62165">
        <ele>771</ele>
        <time>2022-10-19T08:34:48.410Z</time>
      </trkpt>
      <trkpt lat="43.53251" lon="5.62165">
        <ele>771</ele>
        <time>2022-10-19T08:34:49.410Z</time>
      </trkpt>
      <trkpt lat="43.53252" lon="5.62164">
        <ele>771</ele>
        <time>2022-10-19T08:34:50.410Z</time>
      </trkpt>
      <trkpt lat="43.53252" lon="5.62165">
        <ele>771</ele>
        <time>2022-10-19T08:34:51.410Z</time>
      </trkpt>
      <trkpt lat="43.53253" lon="5.62165">
        <ele>771</ele>
        <time>2022-10-19T08:34:52.410Z</time>
      </trkpt>
      <trkpt lat="43.53253" lon="5.62165">
        <ele>771</ele>
        <time>2022-10-19T08:34:53.410Z</time>
      </trkpt>
      <trkpt lat="43.53253" lon="5.62165">
        <ele>771</ele>
        <time>2022-10-19T08:34:54.410Z</time>
      </trkpt>
      <trkpt lat="43.53254" lon="5.62165">
        <ele>771</ele>
        <time>2022-10-19T08:34:55.410Z</time>
      </trkpt>
      <trkpt lat="43.53254" lon="5.62165">
        <ele>771</ele>
        <time>2022-10-19T08:34:56.410Z</time>
      </trkpt>
      <trkpt lat="43.53254" lon="5.62165">
        <ele>772</ele>
        <time>2022-10-19T08:34:57.410Z</time>
      </trkpt>
      <trkpt lat="43.53254" lon="5.62164">
        <ele>772</ele>
        <time>2022-10-19T08:34:58.410Z</time>
      </trkpt>
      <trkpt lat="43.53254" lon="5.62164">
        <ele>772</ele>
        <time>2022-10-19T08:34:59.410Z</time>
      </trkpt>
      <trkpt lat="43.53255" lon="5.62164">
        <ele>772</ele>
        <time>2022-10-19T08:35:00.410Z</time>
      </trkpt>
      <trkpt lat="43.53255" lon="5.62164">
        <ele>772</ele>
        <time>2022-10-19T08:35:01.410Z</time>
      </trkpt>
      <trkpt lat="43.53255" lon="5.62164">
        <ele>772</ele>
        <time>2022-10-19T08:35:02.410Z</time>
      </trkpt>
      <trkpt lat="43.53256" lon="5.62164">
        <ele>772</ele>
        <time>2022-10-19T08:35:03.410Z</time>
      </trkpt>
      <trkpt lat="43.53256" lon="5.62164">
        <ele>773</ele>
        <time>2022-10-19T08:35:04.410Z</time>
      </trkpt>
      <trkpt lat="43.53256" lon="5.62164">
        <ele>773</ele>
        <time>2022-10-19T08:35:05.410Z</time>
      </trkpt>
      <trkpt lat="43.53256" lon="5.62163">
        <ele>773</ele>
        <time>2022-10-19T08:35:06.410Z</time>
      </trkpt>
      <trkpt lat="43.53257" lon="5.62163">
        <ele>773</ele>
        <time>2022-10-19T08:35:07.410Z</time>
      </trkpt>
      <trkpt lat="43.53257" lon="5.62163">
        <ele>773</ele>
        <time>2022-10-19T08:35:08.410Z</time>
      </trkpt>
      <trkpt lat="43.53257" lon="5.62163">
        <ele>773</ele>
        <time>2022-10-19T08:35:09.410Z</time>
      </trkpt>
      <trkpt lat="43.53257" lon="5.62163">
        <ele>773</ele>
        <time>2022-10-19T08:35:10.410Z</time>
      </trkpt>
      <trkpt lat="43.53257" lon="5.62163">
        <ele>773</ele>
        <time>2022-10-19T08:35:11.410Z</time>
      </trkpt>
      <trkpt lat="43.53257" lon="5.62163">
        <ele>773</ele>
        <time>2022-10-19T08:35:12.410Z</time>
      </trkpt>
      <trkpt lat="43.53257" lon="5.62162">
        <ele>774</ele>
        <time>2022-10-19T08:35:13.410Z</time>
      </trkpt>
      <trkpt lat="43.53256" lon="5.62161">
        <ele>774</ele>
        <time>2022-10-19T08:35:14.410Z</time>
      </trkpt>
      <trkpt lat="43.53256" lon="5.62161">
        <ele>774</ele>
        <time>2022-10-19T08:35:15.410Z</time>
      </trkpt>
      <trkpt lat="43.53256" lon="5.6216">
        <ele>774</ele>
        <time>2022-10-19T08:35:16.410Z</time>
      </trkpt>
      <trkpt lat="43.53256" lon="5.6216">
        <ele>775</ele>
        <time>2022-10-19T08:35:17.410Z</time>
      </trkpt>
      <trkpt lat="43.53256" lon="5.62159">
        <ele>775</ele>
        <time>2022-10-19T08:35:18.410Z</time>
      </trkpt>
      <trkpt lat="43.53255" lon="5.62159">
        <ele>775</ele>
        <time>2022-10-19T08:35:19.410Z</time>
      </trkpt>
      <trkpt lat="43.53255" lon="5.62158">
        <ele>775</ele>
        <time>2022-10-19T08:35:20.410Z</time>
      </trkpt>
      <trkpt lat="43.53255" lon="5.62157">
        <ele>775</ele>
        <time>2022-10-19T08:35:21.410Z</time>
      </trkpt>
      <trkpt lat="43.53255" lon="5.62157">
        <ele>775</ele>
        <time>2022-10-19T08:35:22.410Z</time>
      </trkpt>
      <trkpt lat="43.53255" lon="5.62156">
        <ele>776</ele>
        <time>2022-10-19T08:35:23.410Z</time>
      </trkpt>
      <trkpt lat="43.53254" lon="5.62156">
        <ele>776</ele>
        <time>2022-10-19T08:35:24.410Z</time>
      </trkpt>
      <trkpt lat="43.53254" lon="5.62155">
        <ele>776</ele>
        <time>2022-10-19T08:35:25.410Z</time>
      </trkpt>
      <trkpt lat="43.53253" lon="5.62155">
        <ele>776</ele>
        <time>2022-10-19T08:35:26.410Z</time>
      </trkpt>
      <trkpt lat="43.53253" lon="5.62154">
        <ele>776</ele>
        <time>2022-10-19T08:35:27.410Z</time>
      </trkpt>
      <trkpt lat="43.53253" lon="5.62153">
        <ele>777</ele>
        <time>2022-10-19T08:35:28.410Z</time>
      </trkpt>
      <trkpt lat="43.53252" lon="5.62153">
        <ele>777</ele>
        <time>2022-10-19T08:35:29.410Z</time>
      </trkpt>
      <trkpt lat="43.53252" lon="5.62152">
        <ele>777</ele>
        <time>2022-10-19T08:35:30.410Z</time>
      </trkpt>
      <trkpt lat="43.53252" lon="5.62151">
        <ele>777</ele>
        <time>2022-10-19T08:35:31.410Z</time>
      </trkpt>
      <trkpt lat="43.53252" lon="5.62151">
        <ele>777</ele>
        <time>2022-10-19T08:35:32.410Z</time>
      </trkpt>
      <trkpt lat="43.53252" lon="5.6215">
        <ele>777</ele>
        <time>2022-10-19T08:35:33.410Z</time>
      </trkpt>
      <trkpt lat="43.53252" lon="5.6215">
        <ele>778</ele>
        <time>2022-10-19T08:35:34.410Z</time>
      </trkpt>
      <trkpt lat="43.53251" lon="5.62149">
        <ele>778</ele>
        <time>2022-10-19T08:35:35.410Z</time>
      </trkpt>
      <trkpt lat="43.53251" lon="5.62148">
        <ele>778</ele>
        <time>2022-10-19T08:35:36.410Z</time>
      </trkpt>
      <trkpt lat="43.53251" lon="5.62147">
        <ele>778</ele>
        <time>2022-10-19T08:35:37.410Z</time>
      </trkpt>
      <trkpt lat="43.5325" lon="5.62147">
        <ele>779</ele>
        <time>2022-10-19T08:35:38.410Z</time>
      </trkpt>
      <trkpt lat="43.5325" lon="5.62147">
        <ele>779</ele>
        <time>2022-10-19T08:35:39.410Z</time>
      </trkpt>
      <trkpt lat="43.5325" lon="5.62146">
        <ele>779</ele>
        <time>2022-10-19T08:35:40.410Z</time>
      </trkpt>
      <trkpt lat="43.53249" lon="5.62145">
        <ele>779</ele>
        <time>2022-10-19T08:35:41.410Z</time>
      </trkpt>
      <trkpt lat="43.53249" lon="5.62144">
        <ele>779</ele>
        <time>2022-10-19T08:35:42.410Z</time>
      </trkpt>
      <trkpt lat="43.53249" lon="5.62144">
        <ele>780</ele>
        <time>2022-10-19T08:35:43.410Z</time>
      </trkpt>
      <trkpt lat="43.53249" lon="5.62143">
        <ele>780</ele>
        <time>2022-10-19T08:35:44.410Z</time>
      </trkpt>
      <trkpt lat="43.53249" lon="5.62143">
        <ele>780</ele>
        <time>2022-10-19T08:35:45.410Z</time>
      </trkpt>
      <trkpt lat="43.53249" lon="5.62142">
        <ele>780</ele>
        <time>2022-10-19T08:35:46.410Z</time>
      </trkpt>
      <trkpt lat="43.53248" lon="5.62142">
        <ele>780</ele>
        <time>2022-10-19T08:35:47.410Z</time>
      </trkpt>
      <trkpt lat="43.53248" lon="5.62142">
        <ele>780</ele>
        <time>2022-10-19T08:35:48.410Z</time>
      </trkpt>
      <trkpt lat="43.53248" lon="5.62142">
        <ele>780</ele>
        <time>2022-10-19T08:35:49.410Z</time>
      </trkpt>
      <trkpt lat="43.53248" lon="5.62142">
        <ele>781</ele>
        <time>2022-10-19T08:35:50.410Z</time>
      </trkpt>
      <trkpt lat="43.53248" lon="5.62142">
        <ele>781</ele>
        <time>2022-10-19T08:35:51.410Z</time>
      </trkpt>
      <trkpt lat="43.53248" lon="5.62142">
        <ele>781</ele>
        <time>2022-10-19T08:35:52.410Z</time>
      </trkpt>
      <trkpt lat="43.53248" lon="5.62142">
        <ele>781</ele>
        <time>2022-10-19T08:35:53.410Z</time>
      </trkpt>
      <trkpt lat="43.53248" lon="5.62142">
        <ele>781</ele>
        <time>2022-10-19T08:35:54.410Z</time>
      </trkpt>
      <trkpt lat="43.53248" lon="5.62141">
        <ele>781</ele>
        <time>2022-10-19T08:35:55.410Z</time>
      </trkpt>
      <trkpt lat="43.53247" lon="5.62141">
        <ele>781</ele>
        <time>2022-10-19T08:35:56.410Z</time>
      </trkpt>
      <trkpt lat="43.53247" lon="5.6214">
        <ele>781</ele>
        <time>2022-10-19T08:35:57.410Z</time>
      </trkpt>
      <trkpt lat="43.53247" lon="5.62139">
        <ele>781</ele>
        <time>2022-10-19T08:35:58.410Z</time>
      </trkpt>
      <trkpt lat="43.53246" lon="5.62138">
        <ele>781</ele>
        <time>2022-10-19T08:35:59.410Z</time>
      </trkpt>
      <trkpt lat="43.53246" lon="5.62138">
        <ele>782</ele>
        <time>2022-10-19T08:36:00.410Z</time>
      </trkpt>
      <trkpt lat="43.53245" lon="5.62137">
        <ele>782</ele>
        <time>2022-10-19T08:36:01.410Z</time>
      </trkpt>
      <trkpt lat="43.53245" lon="5.62137">
        <ele>782</ele>
        <time>2022-10-19T08:36:02.410Z</time>
      </trkpt>
      <trkpt lat="43.53244" lon="5.62136">
        <ele>782</ele>
        <time>2022-10-19T08:36:03.410Z</time>
      </trkpt>
      <trkpt lat="43.53244" lon="5.62136">
        <ele>782</ele>
        <time>2022-10-19T08:36:04.410Z</time>
      </trkpt>
      <trkpt lat="43.53244" lon="5.62135">
        <ele>783</ele>
        <time>2022-10-19T08:36:05.410Z</time>
      </trkpt>
      <trkpt lat="43.53243" lon="5.62135">
        <ele>783</ele>
        <time>2022-10-19T08:36:06.410Z</time>
      </trkpt>
      <trkpt lat="43.53243" lon="5.62134">
        <ele>783</ele>
        <time>2022-10-19T08:36:07.410Z</time>
      </trkpt>
      <trkpt lat="43.53242" lon="5.62133">
        <ele>783</ele>
        <time>2022-10-19T08:36:08.410Z</time>
      </trkpt>
      <trkpt lat="43.53242" lon="5.62133">
        <ele>783</ele>
        <time>2022-10-19T08:36:09.410Z</time>
      </trkpt>
      <trkpt lat="43.53242" lon="5.62133">
        <ele>784</ele>
        <time>2022-10-19T08:36:10.410Z</time>
      </trkpt>
      <trkpt lat="43.53242" lon="5.62133">
        <ele>784</ele>
        <time>2022-10-19T08:36:11.410Z</time>
      </trkpt>
      <trkpt lat="43.53242" lon="5.62133">
        <ele>784</ele>
        <time>2022-10-19T08:36:12.410Z</time>
      </trkpt>
      <trkpt lat="43.53241" lon="5.62132">
        <ele>784</ele>
        <time>2022-10-19T08:36:13.410Z</time>
      </trkpt>
      <trkpt lat="43.53241" lon="5.62132">
        <ele>784</ele>
        <time>2022-10-19T08:36:14.410Z</time>
      </trkpt>
      <trkpt lat="43.53241" lon="5.62132">
        <ele>784</ele>
        <time>2022-10-19T08:36:15.410Z</time>
      </trkpt>
      <trkpt lat="43.53241" lon="5.62132">
        <ele>784</ele>
        <time>2022-10-19T08:36:16.410Z</time>
      </trkpt>
      <trkpt lat="43.53241" lon="5.62132">
        <ele>784</ele>
        <time>2022-10-19T08:36:17.410Z</time>
      </trkpt>
      <trkpt lat="43.53241" lon="5.62132">
        <ele>784</ele>
        <time>2022-10-19T08:36:18.410Z</time>
      </trkpt>
      <trkpt lat="43.53241" lon="5.62132">
        <ele>784</ele>
        <time>2022-10-19T08:36:19.410Z</time>
      </trkpt>
      <trkpt lat="43.53241" lon="5.62132">
        <ele>785</ele>
        <time>2022-10-19T08:36:20.410Z</time>
      </trkpt>
      <trkpt lat="43.5324" lon="5.62132">
        <ele>785</ele>
        <time>2022-10-19T08:36:21.410Z</time>
      </trkpt>
      <trkpt lat="43.5324" lon="5.62132">
        <ele>785</ele>
        <time>2022-10-19T08:36:22.410Z</time>
      </trkpt>
      <trkpt lat="43.53239" lon="5.62131">
        <ele>785</ele>
        <time>2022-10-19T08:36:23.410Z</time>
      </trkpt>
      <trkpt lat="43.53239" lon="5.6213">
        <ele>785</ele>
        <time>2022-10-19T08:36:24.410Z</time>
      </trkpt>
      <trkpt lat="43.53238" lon="5.6213">
        <ele>785</ele>
        <time>2022-10-19T08:36:25.410Z</time>
      </trkpt>
      <trkpt lat="43.53239" lon="5.62129">
        <ele>785</ele>
        <time>2022-10-19T08:36:26.410Z</time>
      </trkpt>
      <trkpt lat="43.53239" lon="5.62129">
        <ele>785</ele>
        <time>2022-10-19T08:36:27.410Z</time>
      </trkpt>
      <trkpt lat="43.53238" lon="5.62128">
        <ele>785</ele>
        <time>2022-10-19T08:36:28.410Z</time>
      </trkpt>
      <trkpt lat="43.53238" lon="5.62128">
        <ele>785</ele>
        <time>2022-10-19T08:36:29.410Z</time>
      </trkpt>
      <trkpt lat="43.53238" lon="5.62128">
        <ele>785</ele>
        <time>2022-10-19T08:36:30.410Z</time>
      </trkpt>
      <trkpt lat="43.53237" lon="5.62127">
        <ele>786</ele>
        <time>2022-10-19T08:36:31.410Z</time>
      </trkpt>
      <trkpt lat="43.53237" lon="5.62127">
        <ele>786</ele>
        <time>2022-10-19T08:36:32.410Z</time>
      </trkpt>
      <trkpt lat="43.53236" lon="5.62126">
        <ele>786</ele>
        <time>2022-10-19T08:36:33.410Z</time>
      </trkpt>
      <trkpt lat="43.53236" lon="5.62126">
        <ele>786</ele>
        <time>2022-10-19T08:36:34.410Z</time>
      </trkpt>
      <trkpt lat="43.53236" lon="5.62125">
        <ele>786</ele>
        <time>2022-10-19T08:36:35.410Z</time>
      </trkpt>
      <trkpt lat="43.53236" lon="5.62125">
        <ele>786</ele>
        <time>2022-10-19T08:36:36.410Z</time>
      </trkpt>
      <trkpt lat="43.53235" lon="5.62124">
        <ele>787</ele>
        <time>2022-10-19T08:36:37.410Z</time>
      </trkpt>
      <trkpt lat="43.53235" lon="5.62124">
        <ele>787</ele>
        <time>2022-10-19T08:36:38.410Z</time>
      </trkpt>
      <trkpt lat="43.53235" lon="5.62123">
        <ele>787</ele>
        <time>2022-10-19T08:36:39.410Z</time>
      </trkpt>
      <trkpt lat="43.53235" lon="5.62123">
        <ele>787</ele>
        <time>2022-10-19T08:36:40.410Z</time>
      </trkpt>
      <trkpt lat="43.53234" lon="5.62122">
        <ele>787</ele>
        <time>2022-10-19T08:36:41.410Z</time>
      </trkpt>
      <trkpt lat="43.53234" lon="5.62123">
        <ele>787</ele>
        <time>2022-10-19T08:36:42.410Z</time>
      </trkpt>
      <trkpt lat="43.53233" lon="5.62123">
        <ele>787</ele>
        <time>2022-10-19T08:36:43.410Z</time>
      </trkpt>
      <trkpt lat="43.53232" lon="5.62123">
        <ele>787</ele>
        <time>2022-10-19T08:36:44.410Z</time>
      </trkpt>
      <trkpt lat="43.53231" lon="5.62122">
        <ele>787</ele>
        <time>2022-10-19T08:36:45.410Z</time>
      </trkpt>
      <trkpt lat="43.53231" lon="5.62122">
        <ele>787</ele>
        <time>2022-10-19T08:36:46.410Z</time>
      </trkpt>
      <trkpt lat="43.5323" lon="5.62121">
        <ele>788</ele>
        <time>2022-10-19T08:36:47.410Z</time>
      </trkpt>
      <trkpt lat="43.5323" lon="5.62121">
        <ele>788</ele>
        <time>2022-10-19T08:36:48.410Z</time>
      </trkpt>
      <trkpt lat="43.5323" lon="5.6212">
        <ele>788</ele>
        <time>2022-10-19T08:36:49.410Z</time>
      </trkpt>
      <trkpt lat="43.5323" lon="5.6212">
        <ele>788</ele>
        <time>2022-10-19T08:36:50.410Z</time>
      </trkpt>
      <trkpt lat="43.53229" lon="5.62119">
        <ele>788</ele>
        <time>2022-10-19T08:36:51.410Z</time>
      </trkpt>
      <trkpt lat="43.5323" lon="5.62119">
        <ele>788</ele>
        <time>2022-10-19T08:36:52.410Z</time>
      </trkpt>
      <trkpt lat="43.5323" lon="5.62119">
        <ele>788</ele>
        <time>2022-10-19T08:36:53.410Z</time>
      </trkpt>
      <trkpt lat="43.5323" lon="5.62119">
        <ele>788</ele>
        <time>2022-10-19T08:36:54.410Z</time>
      </trkpt>
      <trkpt lat="43.5323" lon="5.62119">
        <ele>788</ele>
        <time>2022-10-19T08:36:55.410Z</time>
      </trkpt>
      <trkpt lat="43.5323" lon="5.62119">
        <ele>788</ele>
        <time>2022-10-19T08:36:56.410Z</time>
      </trkpt>
      <trkpt lat="43.5323" lon="5.62119">
        <ele>788</ele>
        <time>2022-10-19T08:36:57.410Z</time>
      </trkpt>
      <trkpt lat="43.5323" lon="5.62119">
        <ele>788</ele>
        <time>2022-10-19T08:36:58.410Z</time>
      </trkpt>
      <trkpt lat="43.5323" lon="5.62119">
        <ele>788</ele>
        <time>2022-10-19T08:36:59.410Z</time>
      </trkpt>
      <trkpt lat="43.5323" lon="5.62119">
        <ele>788</ele>
        <time>2022-10-19T08:37:00.410Z</time>
      </trkpt>
      <trkpt lat="43.5323" lon="5.62119">
        <ele>788</ele>
        <time>2022-10-19T08:37:01.410Z</time>
      </trkpt>
      <trkpt lat="43.5323" lon="5.62119">
        <ele>788</ele>
        <time>2022-10-19T08:37:02.410Z</time>
      </trkpt>
      <trkpt lat="43.53229" lon="5.62119">
        <ele>788</ele>
        <time>2022-10-19T08:37:03.410Z</time>
      </trkpt>
      <trkpt lat="43.53229" lon="5.62119">
        <ele>788</ele>
        <time>2022-10-19T08:37:04.410Z</time>
      </trkpt>
      <trkpt lat="43.53229" lon="5.62119">
        <ele>788</ele>
        <time>2022-10-19T08:37:05.410Z</time>
      </trkpt>
      <trkpt lat="43.53229" lon="5.62119">
        <ele>788</ele>
        <time>2022-10-19T08:37:06.410Z</time>
      </trkpt>
      <trkpt lat="43.53229" lon="5.62119">
        <ele>788</ele>
        <time>2022-10-19T08:37:07.410Z</time>
      </trkpt>
      <trkpt lat="43.53229" lon="5.6212">
        <ele>788</ele>
        <time>2022-10-19T08:37:08.410Z</time>
      </trkpt>
      <trkpt lat="43.53229" lon="5.6212">
        <ele>788</ele>
        <time>2022-10-19T08:37:09.410Z</time>
      </trkpt>
      <trkpt lat="43.5323" lon="5.62119">
        <ele>788</ele>
        <time>2022-10-19T08:37:10.410Z</time>
      </trkpt>
      <trkpt lat="43.5323" lon="5.62119">
        <ele>788</ele>
        <time>2022-10-19T08:37:11.410Z</time>
      </trkpt>
      <trkpt lat="43.5323" lon="5.62119">
        <ele>788</ele>
        <time>2022-10-19T08:37:12.410Z</time>
      </trkpt>
      <trkpt lat="43.5323" lon="5.62119">
        <ele>789</ele>
        <time>2022-10-19T08:37:13.410Z</time>
      </trkpt>
      <trkpt lat="43.5323" lon="5.62119">
        <ele>789</ele>
        <time>2022-10-19T08:37:14.410Z</time>
      </trkpt>
      <trkpt lat="43.5323" lon="5.62119">
        <ele>789</ele>
        <time>2022-10-19T08:37:15.410Z</time>
      </trkpt>
      <trkpt lat="43.5323" lon="5.62119">
        <ele>789</ele>
        <time>2022-10-19T08:37:16.410Z</time>
      </trkpt>
      <trkpt lat="43.5323" lon="5.62119">
        <ele>788</ele>
        <time>2022-10-19T08:37:17.410Z</time>
      </trkpt>
      <trkpt lat="43.5323" lon="5.62119">
        <ele>788</ele>
        <time>2022-10-19T08:37:18.410Z</time>
      </trkpt>
      <trkpt lat="43.5323" lon="5.62119">
        <ele>788</ele>
        <time>2022-10-19T08:37:19.410Z</time>
      </trkpt>
      <trkpt lat="43.53229" lon="5.62119">
        <ele>788</ele>
        <time>2022-10-19T08:37:20.410Z</time>
      </trkpt>
      <trkpt lat="43.53229" lon="5.62119">
        <ele>789</ele>
        <time>2022-10-19T08:37:21.410Z</time>
      </trkpt>
      <trkpt lat="43.53229" lon="5.62119">
        <ele>789</ele>
        <time>2022-10-19T08:37:22.410Z</time>
      </trkpt>
      <trkpt lat="43.53229" lon="5.62119">
        <ele>788</ele>
        <time>2022-10-19T08:37:23.410Z</time>
      </trkpt>
      <trkpt lat="43.53229" lon="5.62119">
        <ele>788</ele>
        <time>2022-10-19T08:37:24.410Z</time>
      </trkpt>
      <trkpt lat="43.53229" lon="5.62119">
        <ele>788</ele>
        <time>2022-10-19T08:37:25.410Z</time>
      </trkpt>
      <trkpt lat="43.53229" lon="5.62119">
        <ele>788</ele>
        <time>2022-10-19T08:37:26.410Z</time>
      </trkpt>
      <trkpt lat="43.53229" lon="5.62119">
        <ele>788</ele>
        <time>2022-10-19T08:37:27.410Z</time>
      </trkpt>
      <trkpt lat="43.53229" lon="5.62119">
        <ele>788</ele>
        <time>2022-10-19T08:37:28.410Z</time>
      </trkpt>
      <trkpt lat="43.5323" lon="5.62119">
        <ele>788</ele>
        <time>2022-10-19T08:37:29.410Z</time>
      </trkpt>
      <trkpt lat="43.5323" lon="5.62119">
        <ele>788</ele>
        <time>2022-10-19T08:37:30.410Z</time>
      </trkpt>
      <trkpt lat="43.5323" lon="5.62119">
        <ele>788</ele>
        <time>2022-10-19T08:37:31.410Z</time>
      </trkpt>
      <trkpt lat="43.5323" lon="5.62119">
        <ele>788</ele>
        <time>2022-10-19T08:37:32.410Z</time>
      </trkpt>
      <trkpt lat="43.5323" lon="5.62118">
        <ele>788</ele>
        <time>2022-10-19T08:37:33.410Z</time>
      </trkpt>
      <trkpt lat="43.5323" lon="5.62118">
        <ele>788</ele>
        <time>2022-10-19T08:37:34.410Z</time>
      </trkpt>
      <trkpt lat="43.5323" lon="5.62118">
        <ele>788</ele>
        <time>2022-10-19T08:37:35.410Z</time>
      </trkpt>
      <trkpt lat="43.5323" lon="5.62118">
        <ele>788</ele>
        <time>2022-10-19T08:37:36.410Z</time>
      </trkpt>
      <trkpt lat="43.5323" lon="5.62118">
        <ele>788</ele>
        <time>2022-10-19T08:37:37.410Z</time>
      </trkpt>
      <trkpt lat="43.5323" lon="5.62118">
        <ele>788</ele>
        <time>2022-10-19T08:37:38.410Z</time>
      </trkpt>
      <trkpt lat="43.5323" lon="5.62118">
        <ele>788</ele>
        <time>2022-10-19T08:37:39.410Z</time>
      </trkpt>
      <trkpt lat="43.5323" lon="5.62118">
        <ele>788</ele>
        <time>2022-10-19T08:37:40.410Z</time>
      </trkpt>
      <trkpt lat="43.5323" lon="5.62118">
        <ele>788</ele>
        <time>2022-10-19T08:37:41.410Z</time>
      </trkpt>
      <trkpt lat="43.5323" lon="5.62118">
        <ele>788</ele>
        <time>2022-10-19T08:37:42.410Z</time>
      </trkpt>
      <trkpt lat="43.5323" lon="5.62118">
        <ele>788</ele>
        <time>2022-10-19T08:37:43.410Z</time>
      </trkpt>
      <trkpt lat="43.5323" lon="5.62118">
        <ele>788</ele>
        <time>2022-10-19T08:37:44.410Z</time>
      </trkpt>
      <trkpt lat="43.5323" lon="5.62118">
        <ele>788</ele>
        <time>2022-10-19T08:37:45.410Z</time>
      </trkpt>
      <trkpt lat="43.5323" lon="5.62118">
        <ele>788</ele>
        <time>2022-10-19T08:37:46.410Z</time>
      </trkpt>
      <trkpt lat="43.5323" lon="5.62118">
        <ele>788</ele>
        <time>2022-10-19T08:37:47.410Z</time>
      </trkpt>
      <trkpt lat="43.5323" lon="5.62118">
        <ele>788</ele>
        <time>2022-10-19T08:37:48.410Z</time>
      </trkpt>
      <trkpt lat="43.5323" lon="5.62118">
        <ele>788</ele>
        <time>2022-10-19T08:37:49.410Z</time>
      </trkpt>
      <trkpt lat="43.5323" lon="5.62118">
        <ele>788</ele>
        <time>2022-10-19T08:37:50.410Z</time>
      </trkpt>
      <trkpt lat="43.5323" lon="5.62118">
        <ele>788</ele>
        <time>2022-10-19T08:37:51.410Z</time>
      </trkpt>
      <trkpt lat="43.5323" lon="5.62118">
        <ele>788</ele>
        <time>2022-10-19T08:37:52.410Z</time>
      </trkpt>
      <trkpt lat="43.5323" lon="5.62118">
        <ele>788</ele>
        <time>2022-10-19T08:37:53.410Z</time>
      </trkpt>
      <trkpt lat="43.5323" lon="5.62118">
        <ele>788</ele>
        <time>2022-10-19T08:37:54.410Z</time>
      </trkpt>
      <trkpt lat="43.5323" lon="5.62118">
        <ele>788</ele>
        <time>2022-10-19T08:37:55.410Z</time>
      </trkpt>
      <trkpt lat="43.5323" lon="5.62118">
        <ele>788</ele>
        <time>2022-10-19T08:37:56.410Z</time>
      </trkpt>
      <trkpt lat="43.5323" lon="5.62118">
        <ele>788</ele>
        <time>2022-10-19T08:37:57.410Z</time>
      </trkpt>
      <trkpt lat="43.5323" lon="5.62118">
        <ele>788</ele>
        <time>2022-10-19T08:37:58.410Z</time>
      </trkpt>
      <trkpt lat="43.5323" lon="5.62118">
        <ele>788</ele>
        <time>2022-10-19T08:37:59.410Z</time>
      </trkpt>
      <trkpt lat="43.5323" lon="5.62118">
        <ele>788</ele>
        <time>2022-10-19T08:38:00.410Z</time>
      </trkpt>
      <trkpt lat="43.5323" lon="5.62118">
        <ele>788</ele>
        <time>2022-10-19T08:38:01.410Z</time>
      </trkpt>
      <trkpt lat="43.5323" lon="5.62118">
        <ele>788</ele>
        <time>2022-10-19T08:38:02.410Z</time>
      </trkpt>
      <trkpt lat="43.5323" lon="5.62118">
        <ele>788</ele>
        <time>2022-10-19T08:38:03.410Z</time>
      </trkpt>
      <trkpt lat="43.5323" lon="5.62118">
        <ele>788</ele>
        <time>2022-10-19T08:38:04.410Z</time>
      </trkpt>
      <trkpt lat="43.5323" lon="5.62118">
        <ele>788</ele>
        <time>2022-10-19T08:38:05.410Z</time>
      </trkpt>
      <trkpt lat="43.5323" lon="5.62118">
        <ele>788</ele>
        <time>2022-10-19T08:38:06.410Z</time>
      </trkpt>
      <trkpt lat="43.5323" lon="5.62118">
        <ele>788</ele>
        <time>2022-10-19T08:38:07.410Z</time>
      </trkpt>
      <trkpt lat="43.5323" lon="5.62118">
        <ele>788</ele>
        <time>2022-10-19T08:38:08.410Z</time>
      </trkpt>
      <trkpt lat="43.5323" lon="5.62118">
        <ele>788</ele>
        <time>2022-10-19T08:38:09.410Z</time>
      </trkpt>
      <trkpt lat="43.5323" lon="5.62118">
        <ele>788</ele>
        <time>2022-10-19T08:38:10.410Z</time>
      </trkpt>
      <trkpt lat="43.5323" lon="5.62118">
        <ele>788</ele>
        <time>2022-10-19T08:38:11.410Z</time>
      </trkpt>
      <trkpt lat="43.53231" lon="5.62118">
        <ele>788</ele>
        <time>2022-10-19T08:38:12.410Z</time>
      </trkpt>
      <trkpt lat="43.53231" lon="5.62118">
        <ele>788</ele>
        <time>2022-10-19T08:38:13.410Z</time>
      </trkpt>
      <trkpt lat="43.53231" lon="5.62117">
        <ele>788</ele>
        <time>2022-10-19T08:38:14.410Z</time>
      </trkpt>
      <trkpt lat="43.53231" lon="5.62117">
        <ele>788</ele>
        <time>2022-10-19T08:38:15.410Z</time>
      </trkpt>
      <trkpt lat="43.53231" lon="5.62117">
        <ele>789</ele>
        <time>2022-10-19T08:38:16.410Z</time>
      </trkpt>
      <trkpt lat="43.53231" lon="5.62117">
        <ele>789</ele>
        <time>2022-10-19T08:38:17.410Z</time>
      </trkpt>
      <trkpt lat="43.5323" lon="5.62116">
        <ele>789</ele>
        <time>2022-10-19T08:38:18.410Z</time>
      </trkpt>
      <trkpt lat="43.5323" lon="5.62116">
        <ele>789</ele>
        <time>2022-10-19T08:38:19.410Z</time>
      </trkpt>
      <trkpt lat="43.5323" lon="5.62116">
        <ele>789</ele>
        <time>2022-10-19T08:38:20.410Z</time>
      </trkpt>
      <trkpt lat="43.5323" lon="5.62116">
        <ele>789</ele>
        <time>2022-10-19T08:38:21.410Z</time>
      </trkpt>
      <trkpt lat="43.5323" lon="5.62115">
        <ele>789</ele>
        <time>2022-10-19T08:38:22.410Z</time>
      </trkpt>
      <trkpt lat="43.5323" lon="5.62115">
        <ele>789</ele>
        <time>2022-10-19T08:38:23.410Z</time>
      </trkpt>
      <trkpt lat="43.5323" lon="5.62114">
        <ele>789</ele>
        <time>2022-10-19T08:38:24.410Z</time>
      </trkpt>
      <trkpt lat="43.53229" lon="5.62114">
        <ele>789</ele>
        <time>2022-10-19T08:38:25.410Z</time>
      </trkpt>
      <trkpt lat="43.53229" lon="5.62113">
        <ele>789</ele>
        <time>2022-10-19T08:38:26.410Z</time>
      </trkpt>
      <trkpt lat="43.53229" lon="5.62113">
        <ele>789</ele>
        <time>2022-10-19T08:38:27.410Z</time>
      </trkpt>
      <trkpt lat="43.53228" lon="5.62113">
        <ele>789</ele>
        <time>2022-10-19T08:38:28.410Z</time>
      </trkpt>
      <trkpt lat="43.53229" lon="5.62113">
        <ele>789</ele>
        <time>2022-10-19T08:38:29.410Z</time>
      </trkpt>
      <trkpt lat="43.53229" lon="5.62112">
        <ele>789</ele>
        <time>2022-10-19T08:38:30.410Z</time>
      </trkpt>
      <trkpt lat="43.53229" lon="5.62112">
        <ele>789</ele>
        <time>2022-10-19T08:38:31.410Z</time>
      </trkpt>
      <trkpt lat="43.53229" lon="5.62112">
        <ele>789</ele>
        <time>2022-10-19T08:38:32.410Z</time>
      </trkpt>
      <trkpt lat="43.53229" lon="5.62112">
        <ele>789</ele>
        <time>2022-10-19T08:38:33.410Z</time>
      </trkpt>
      <trkpt lat="43.53229" lon="5.62111">
        <ele>789</ele>
        <time>2022-10-19T08:38:34.410Z</time>
      </trkpt>
      <trkpt lat="43.53229" lon="5.62111">
        <ele>789</ele>
        <time>2022-10-19T08:38:35.410Z</time>
      </trkpt>
      <trkpt lat="43.53228" lon="5.62111">
        <ele>789</ele>
        <time>2022-10-19T08:38:36.410Z</time>
      </trkpt>
      <trkpt lat="43.53228" lon="5.62111">
        <ele>789</ele>
        <time>2022-10-19T08:38:37.410Z</time>
      </trkpt>
      <trkpt lat="43.53227" lon="5.6211">
        <ele>789</ele>
        <time>2022-10-19T08:38:38.410Z</time>
      </trkpt>
      <trkpt lat="43.53226" lon="5.62109">
        <ele>789</ele>
        <time>2022-10-19T08:38:39.410Z</time>
      </trkpt>
      <trkpt lat="43.53226" lon="5.62109">
        <ele>789</ele>
        <time>2022-10-19T08:38:40.410Z</time>
      </trkpt>
      <trkpt lat="43.53225" lon="5.62108">
        <ele>789</ele>
        <time>2022-10-19T08:38:41.410Z</time>
      </trkpt>
      <trkpt lat="43.53225" lon="5.62107">
        <ele>789</ele>
        <time>2022-10-19T08:38:42.410Z</time>
      </trkpt>
      <trkpt lat="43.53225" lon="5.62107">
        <ele>789</ele>
        <time>2022-10-19T08:38:43.410Z</time>
      </trkpt>
      <trkpt lat="43.53224" lon="5.62107">
        <ele>789</ele>
        <time>2022-10-19T08:38:44.410Z</time>
      </trkpt>
      <trkpt lat="43.53224" lon="5.62106">
        <ele>789</ele>
        <time>2022-10-19T08:38:45.410Z</time>
      </trkpt>
      <trkpt lat="43.53223" lon="5.62106">
        <ele>788</ele>
        <time>2022-10-19T08:38:46.410Z</time>
      </trkpt>
      <trkpt lat="43.53223" lon="5.62105">
        <ele>788</ele>
        <time>2022-10-19T08:38:47.410Z</time>
      </trkpt>
      <trkpt lat="43.53222" lon="5.62104">
        <ele>788</ele>
        <time>2022-10-19T08:38:48.410Z</time>
      </trkpt>
      <trkpt lat="43.53221" lon="5.62103">
        <ele>788</ele>
        <time>2022-10-19T08:38:49.410Z</time>
      </trkpt>
      <trkpt lat="43.53221" lon="5.62102">
        <ele>788</ele>
        <time>2022-10-19T08:38:50.410Z</time>
      </trkpt>
      <trkpt lat="43.5322" lon="5.62102">
        <ele>788</ele>
        <time>2022-10-19T08:38:51.410Z</time>
      </trkpt>
      <trkpt lat="43.5322" lon="5.62101">
        <ele>788</ele>
        <time>2022-10-19T08:38:52.410Z</time>
      </trkpt>
      <trkpt lat="43.53219" lon="5.621">
        <ele>787</ele>
        <time>2022-10-19T08:38:53.410Z</time>
      </trkpt>
      <trkpt lat="43.53219" lon="5.62099">
        <ele>787</ele>
        <time>2022-10-19T08:38:54.410Z</time>
      </trkpt>
      <trkpt lat="43.53218" lon="5.62097">
        <ele>787</ele>
        <time>2022-10-19T08:38:55.410Z</time>
      </trkpt>
      <trkpt lat="43.53218" lon="5.62096">
        <ele>787</ele>
        <time>2022-10-19T08:38:56.410Z</time>
      </trkpt>
      <trkpt lat="43.53217" lon="5.62095">
        <ele>787</ele>
        <time>2022-10-19T08:38:57.410Z</time>
      </trkpt>
      <trkpt lat="43.53217" lon="5.62095">
        <ele>787</ele>
        <time>2022-10-19T08:38:58.410Z</time>
      </trkpt>
      <trkpt lat="43.53217" lon="5.62094">
        <ele>787</ele>
        <time>2022-10-19T08:38:59.410Z</time>
      </trkpt>
      <trkpt lat="43.53216" lon="5.62094">
        <ele>787</ele>
        <time>2022-10-19T08:39:00.410Z</time>
      </trkpt>
      <trkpt lat="43.53216" lon="5.62094">
        <ele>787</ele>
        <time>2022-10-19T08:39:01.410Z</time>
      </trkpt>
      <trkpt lat="43.53216" lon="5.62093">
        <ele>787</ele>
        <time>2022-10-19T08:39:02.410Z</time>
      </trkpt>
      <trkpt lat="43.53216" lon="5.62093">
        <ele>787</ele>
        <time>2022-10-19T08:39:03.410Z</time>
      </trkpt>
      <trkpt lat="43.53215" lon="5.62092">
        <ele>787</ele>
        <time>2022-10-19T08:39:04.410Z</time>
      </trkpt>
      <trkpt lat="43.53215" lon="5.62092">
        <ele>787</ele>
        <time>2022-10-19T08:39:05.410Z</time>
      </trkpt>
      <trkpt lat="43.53214" lon="5.62092">
        <ele>787</ele>
        <time>2022-10-19T08:39:06.410Z</time>
      </trkpt>
      <trkpt lat="43.53213" lon="5.62092">
        <ele>786</ele>
        <time>2022-10-19T08:39:07.410Z</time>
      </trkpt>
      <trkpt lat="43.53213" lon="5.62092">
        <ele>786</ele>
        <time>2022-10-19T08:39:08.410Z</time>
      </trkpt>
      <trkpt lat="43.53212" lon="5.62091">
        <ele>786</ele>
        <time>2022-10-19T08:39:09.410Z</time>
      </trkpt>
      <trkpt lat="43.53212" lon="5.62091">
        <ele>786</ele>
        <time>2022-10-19T08:39:10.410Z</time>
      </trkpt>
      <trkpt lat="43.53212" lon="5.62091">
        <ele>786</ele>
        <time>2022-10-19T08:39:11.410Z</time>
      </trkpt>
      <trkpt lat="43.53212" lon="5.62091">
        <ele>786</ele>
        <time>2022-10-19T08:39:12.410Z</time>
      </trkpt>
      <trkpt lat="43.53211" lon="5.62091">
        <ele>786</ele>
        <time>2022-10-19T08:39:13.410Z</time>
      </trkpt>
      <trkpt lat="43.53211" lon="5.62091">
        <ele>786</ele>
        <time>2022-10-19T08:39:14.410Z</time>
      </trkpt>
      <trkpt lat="43.53211" lon="5.62091">
        <ele>786</ele>
        <time>2022-10-19T08:39:15.410Z</time>
      </trkpt>
      <trkpt lat="43.53211" lon="5.62092">
        <ele>786</ele>
        <time>2022-10-19T08:39:16.410Z</time>
      </trkpt>
      <trkpt lat="43.53211" lon="5.62091">
        <ele>786</ele>
        <time>2022-10-19T08:39:17.410Z</time>
      </trkpt>
      <trkpt lat="43.5321" lon="5.62091">
        <ele>786</ele>
        <time>2022-10-19T08:39:18.410Z</time>
      </trkpt>
      <trkpt lat="43.5321" lon="5.6209">
        <ele>786</ele>
        <time>2022-10-19T08:39:19.410Z</time>
      </trkpt>
      <trkpt lat="43.53209" lon="5.62089">
        <ele>786</ele>
        <time>2022-10-19T08:39:20.410Z</time>
      </trkpt>
      <trkpt lat="43.53209" lon="5.62089">
        <ele>786</ele>
        <time>2022-10-19T08:39:21.410Z</time>
      </trkpt>
      <trkpt lat="43.53209" lon="5.62089">
        <ele>786</ele>
        <time>2022-10-19T08:39:22.410Z</time>
      </trkpt>
      <trkpt lat="43.53209" lon="5.62089">
        <ele>786</ele>
        <time>2022-10-19T08:39:23.410Z</time>
      </trkpt>
      <trkpt lat="43.53208" lon="5.62089">
        <ele>786</ele>
        <time>2022-10-19T08:39:24.410Z</time>
      </trkpt>
      <trkpt lat="43.53208" lon="5.62088">
        <ele>786</ele>
        <time>2022-10-19T08:39:25.410Z</time>
      </trkpt>
      <trkpt lat="43.53208" lon="5.62088">
        <ele>786</ele>
        <time>2022-10-19T08:39:26.410Z</time>
      </trkpt>
      <trkpt lat="43.53207" lon="5.62088">
        <ele>786</ele>
        <time>2022-10-19T08:39:27.410Z</time>
      </trkpt>
      <trkpt lat="43.53207" lon="5.62088">
        <ele>786</ele>
        <time>2022-10-19T08:39:28.410Z</time>
      </trkpt>
      <trkpt lat="43.53207" lon="5.62087">
        <ele>786</ele>
        <time>2022-10-19T08:39:29.410Z</time>
      </trkpt>
      <trkpt lat="43.53206" lon="5.62086">
        <ele>786</ele>
        <time>2022-10-19T08:39:30.410Z</time>
      </trkpt>
      <trkpt lat="43.53206" lon="5.62086">
        <ele>786</ele>
        <time>2022-10-19T08:39:31.410Z</time>
      </trkpt>
      <trkpt lat="43.53205" lon="5.62085">
        <ele>786</ele>
        <time>2022-10-19T08:39:32.410Z</time>
      </trkpt>
      <trkpt lat="43.53205" lon="5.62084">
        <ele>786</ele>
        <time>2022-10-19T08:39:33.410Z</time>
      </trkpt>
      <trkpt lat="43.53204" lon="5.62084">
        <ele>786</ele>
        <time>2022-10-19T08:39:34.410Z</time>
      </trkpt>
      <trkpt lat="43.53204" lon="5.62083">
        <ele>786</ele>
        <time>2022-10-19T08:39:35.410Z</time>
      </trkpt>
      <trkpt lat="43.53203" lon="5.62083">
        <ele>786</ele>
        <time>2022-10-19T08:39:36.410Z</time>
      </trkpt>
      <trkpt lat="43.53203" lon="5.62082">
        <ele>786</ele>
        <time>2022-10-19T08:39:37.410Z</time>
      </trkpt>
      <trkpt lat="43.53202" lon="5.62082">
        <ele>786</ele>
        <time>2022-10-19T08:39:38.410Z</time>
      </trkpt>
      <trkpt lat="43.53202" lon="5.62081">
        <ele>786</ele>
        <time>2022-10-19T08:39:39.410Z</time>
      </trkpt>
      <trkpt lat="43.53201" lon="5.6208">
        <ele>786</ele>
        <time>2022-10-19T08:39:40.410Z</time>
      </trkpt>
      <trkpt lat="43.53201" lon="5.6208">
        <ele>786</ele>
        <time>2022-10-19T08:39:41.410Z</time>
      </trkpt>
      <trkpt lat="43.53201" lon="5.62079">
        <ele>786</ele>
        <time>2022-10-19T08:39:42.410Z</time>
      </trkpt>
      <trkpt lat="43.53201" lon="5.62079">
        <ele>786</ele>
        <time>2022-10-19T08:39:43.410Z</time>
      </trkpt>
      <trkpt lat="43.53201" lon="5.62079">
        <ele>786</ele>
        <time>2022-10-19T08:39:44.410Z</time>
      </trkpt>
      <trkpt lat="43.53201" lon="5.62079">
        <ele>786</ele>
        <time>2022-10-19T08:39:45.410Z</time>
      </trkpt>
      <trkpt lat="43.53201" lon="5.62078">
        <ele>786</ele>
        <time>2022-10-19T08:39:46.410Z</time>
      </trkpt>
      <trkpt lat="43.53201" lon="5.62078">
        <ele>786</ele>
        <time>2022-10-19T08:39:47.410Z</time>
      </trkpt>
      <trkpt lat="43.532" lon="5.62077">
        <ele>786</ele>
        <time>2022-10-19T08:39:48.410Z</time>
      </trkpt>
      <trkpt lat="43.532" lon="5.62077">
        <ele>786</ele>
        <time>2022-10-19T08:39:49.410Z</time>
      </trkpt>
      <trkpt lat="43.532" lon="5.62077">
        <ele>787</ele>
        <time>2022-10-19T08:39:50.410Z</time>
      </trkpt>
      <trkpt lat="43.532" lon="5.62076">
        <ele>787</ele>
        <time>2022-10-19T08:39:51.410Z</time>
      </trkpt>
      <trkpt lat="43.532" lon="5.62075">
        <ele>787</ele>
        <time>2022-10-19T08:39:52.410Z</time>
      </trkpt>
      <trkpt lat="43.53199" lon="5.62075">
        <ele>787</ele>
        <time>2022-10-19T08:39:53.410Z</time>
      </trkpt>
      <trkpt lat="43.53199" lon="5.62074">
        <ele>787</ele>
        <time>2022-10-19T08:39:54.410Z</time>
      </trkpt>
      <trkpt lat="43.53199" lon="5.62074">
        <ele>787</ele>
        <time>2022-10-19T08:39:55.410Z</time>
      </trkpt>
      <trkpt lat="43.53199" lon="5.62073">
        <ele>787</ele>
        <time>2022-10-19T08:39:56.410Z</time>
      </trkpt>
      <trkpt lat="43.53198" lon="5.62072">
        <ele>787</ele>
        <time>2022-10-19T08:39:57.410Z</time>
      </trkpt>
      <trkpt lat="43.53198" lon="5.62071">
        <ele>787</ele>
        <time>2022-10-19T08:39:58.410Z</time>
      </trkpt>
      <trkpt lat="43.53197" lon="5.62071">
        <ele>787</ele>
        <time>2022-10-19T08:39:59.410Z</time>
      </trkpt>
      <trkpt lat="43.53197" lon="5.6207">
        <ele>787</ele>
        <time>2022-10-19T08:40:00.410Z</time>
      </trkpt>
      <trkpt lat="43.53197" lon="5.62069">
        <ele>787</ele>
        <time>2022-10-19T08:40:01.410Z</time>
      </trkpt>
      <trkpt lat="43.53196" lon="5.62069">
        <ele>787</ele>
        <time>2022-10-19T08:40:02.410Z</time>
      </trkpt>
      <trkpt lat="43.53196" lon="5.62068">
        <ele>787</ele>
        <time>2022-10-19T08:40:03.410Z</time>
      </trkpt>
      <trkpt lat="43.53196" lon="5.62067">
        <ele>787</ele>
        <time>2022-10-19T08:40:04.410Z</time>
      </trkpt>
      <trkpt lat="43.53196" lon="5.62066">
        <ele>787</ele>
        <time>2022-10-19T08:40:05.410Z</time>
      </trkpt>
      <trkpt lat="43.53196" lon="5.62066">
        <ele>787</ele>
        <time>2022-10-19T08:40:06.410Z</time>
      </trkpt>
      <trkpt lat="43.53195" lon="5.62065">
        <ele>787</ele>
        <time>2022-10-19T08:40:07.410Z</time>
      </trkpt>
      <trkpt lat="43.53195" lon="5.62065">
        <ele>787</ele>
        <time>2022-10-19T08:40:08.410Z</time>
      </trkpt>
      <trkpt lat="43.53194" lon="5.62064">
        <ele>787</ele>
        <time>2022-10-19T08:40:09.410Z</time>
      </trkpt>
      <trkpt lat="43.53194" lon="5.62063">
        <ele>787</ele>
        <time>2022-10-19T08:40:10.410Z</time>
      </trkpt>
      <trkpt lat="43.53193" lon="5.62063">
        <ele>787</ele>
        <time>2022-10-19T08:40:11.410Z</time>
      </trkpt>
      <trkpt lat="43.53194" lon="5.62063">
        <ele>787</ele>
        <time>2022-10-19T08:40:12.410Z</time>
      </trkpt>
      <trkpt lat="43.53194" lon="5.62063">
        <ele>787</ele>
        <time>2022-10-19T08:40:13.410Z</time>
      </trkpt>
      <trkpt lat="43.53194" lon="5.62063">
        <ele>787</ele>
        <time>2022-10-19T08:40:14.410Z</time>
      </trkpt>
      <trkpt lat="43.53193" lon="5.62062">
        <ele>787</ele>
        <time>2022-10-19T08:40:15.410Z</time>
      </trkpt>
      <trkpt lat="43.53193" lon="5.62062">
        <ele>787</ele>
        <time>2022-10-19T08:40:16.410Z</time>
      </trkpt>
      <trkpt lat="43.53193" lon="5.62062">
        <ele>787</ele>
        <time>2022-10-19T08:40:17.410Z</time>
      </trkpt>
      <trkpt lat="43.53193" lon="5.62061">
        <ele>787</ele>
        <time>2022-10-19T08:40:18.410Z</time>
      </trkpt>
      <trkpt lat="43.53192" lon="5.62061">
        <ele>787</ele>
        <time>2022-10-19T08:40:19.410Z</time>
      </trkpt>
      <trkpt lat="43.53191" lon="5.62061">
        <ele>787</ele>
        <time>2022-10-19T08:40:20.410Z</time>
      </trkpt>
      <trkpt lat="43.53191" lon="5.6206">
        <ele>787</ele>
        <time>2022-10-19T08:40:21.410Z</time>
      </trkpt>
      <trkpt lat="43.5319" lon="5.62059">
        <ele>788</ele>
        <time>2022-10-19T08:40:22.410Z</time>
      </trkpt>
      <trkpt lat="43.5319" lon="5.62059">
        <ele>788</ele>
        <time>2022-10-19T08:40:23.410Z</time>
      </trkpt>
      <trkpt lat="43.5319" lon="5.62058">
        <ele>788</ele>
        <time>2022-10-19T08:40:24.410Z</time>
      </trkpt>
      <trkpt lat="43.5319" lon="5.62057">
        <ele>788</ele>
        <time>2022-10-19T08:40:25.410Z</time>
      </trkpt>
      <trkpt lat="43.5319" lon="5.62057">
        <ele>788</ele>
        <time>2022-10-19T08:40:26.410Z</time>
      </trkpt>
      <trkpt lat="43.53189" lon="5.62056">
        <ele>788</ele>
        <time>2022-10-19T08:40:27.410Z</time>
      </trkpt>
      <trkpt lat="43.53189" lon="5.62056">
        <ele>788</ele>
        <time>2022-10-19T08:40:28.410Z</time>
      </trkpt>
      <trkpt lat="43.53188" lon="5.62055">
        <ele>788</ele>
        <time>2022-10-19T08:40:29.410Z</time>
      </trkpt>
      <trkpt lat="43.53187" lon="5.62055">
        <ele>788</ele>
        <time>2022-10-19T08:40:30.410Z</time>
      </trkpt>
      <trkpt lat="43.53187" lon="5.62054">
        <ele>788</ele>
        <time>2022-10-19T08:40:31.410Z</time>
      </trkpt>
      <trkpt lat="43.53186" lon="5.62054">
        <ele>788</ele>
        <time>2022-10-19T08:40:32.410Z</time>
      </trkpt>
      <trkpt lat="43.53186" lon="5.62053">
        <ele>788</ele>
        <time>2022-10-19T08:40:33.410Z</time>
      </trkpt>
      <trkpt lat="43.53186" lon="5.62052">
        <ele>788</ele>
        <time>2022-10-19T08:40:34.410Z</time>
      </trkpt>
      <trkpt lat="43.53186" lon="5.62052">
        <ele>788</ele>
        <time>2022-10-19T08:40:35.410Z</time>
      </trkpt>
      <trkpt lat="43.53186" lon="5.6205">
        <ele>789</ele>
        <time>2022-10-19T08:40:36.410Z</time>
      </trkpt>
      <trkpt lat="43.53186" lon="5.6205">
        <ele>789</ele>
        <time>2022-10-19T08:40:37.410Z</time>
      </trkpt>
      <trkpt lat="43.53186" lon="5.62049">
        <ele>789</ele>
        <time>2022-10-19T08:40:38.410Z</time>
      </trkpt>
      <trkpt lat="43.53186" lon="5.62049">
        <ele>789</ele>
        <time>2022-10-19T08:40:39.410Z</time>
      </trkpt>
      <trkpt lat="43.53186" lon="5.62048">
        <ele>789</ele>
        <time>2022-10-19T08:40:40.410Z</time>
      </trkpt>
      <trkpt lat="43.53186" lon="5.62048">
        <ele>789</ele>
        <time>2022-10-19T08:40:41.410Z</time>
      </trkpt>
      <trkpt lat="43.53186" lon="5.62048">
        <ele>789</ele>
        <time>2022-10-19T08:40:42.410Z</time>
      </trkpt>
      <trkpt lat="43.53185" lon="5.62048">
        <ele>789</ele>
        <time>2022-10-19T08:40:43.410Z</time>
      </trkpt>
      <trkpt lat="43.53184" lon="5.62047">
        <ele>789</ele>
        <time>2022-10-19T08:40:44.410Z</time>
      </trkpt>
      <trkpt lat="43.53184" lon="5.62047">
        <ele>789</ele>
        <time>2022-10-19T08:40:45.410Z</time>
      </trkpt>
      <trkpt lat="43.53183" lon="5.62046">
        <ele>789</ele>
        <time>2022-10-19T08:40:46.410Z</time>
      </trkpt>
      <trkpt lat="43.53183" lon="5.62045">
        <ele>789</ele>
        <time>2022-10-19T08:40:47.410Z</time>
      </trkpt>
      <trkpt lat="43.53183" lon="5.62044">
        <ele>789</ele>
        <time>2022-10-19T08:40:48.410Z</time>
      </trkpt>
      <trkpt lat="43.53182" lon="5.62044">
        <ele>789</ele>
        <time>2022-10-19T08:40:49.410Z</time>
      </trkpt>
      <trkpt lat="43.53182" lon="5.62043">
        <ele>789</ele>
        <time>2022-10-19T08:40:50.410Z</time>
      </trkpt>
      <trkpt lat="43.53181" lon="5.62043">
        <ele>789</ele>
        <time>2022-10-19T08:40:51.410Z</time>
      </trkpt>
      <trkpt lat="43.5318" lon="5.62042">
        <ele>789</ele>
        <time>2022-10-19T08:40:52.410Z</time>
      </trkpt>
      <trkpt lat="43.5318" lon="5.62042">
        <ele>789</ele>
        <time>2022-10-19T08:40:53.410Z</time>
      </trkpt>
      <trkpt lat="43.53179" lon="5.62041">
        <ele>789</ele>
        <time>2022-10-19T08:40:54.410Z</time>
      </trkpt>
      <trkpt lat="43.53178" lon="5.6204">
        <ele>789</ele>
        <time>2022-10-19T08:40:55.410Z</time>
      </trkpt>
      <trkpt lat="43.53178" lon="5.62039">
        <ele>789</ele>
        <time>2022-10-19T08:40:56.410Z</time>
      </trkpt>
      <trkpt lat="43.53177" lon="5.62039">
        <ele>789</ele>
        <time>2022-10-19T08:40:57.410Z</time>
      </trkpt>
      <trkpt lat="43.53177" lon="5.62038">
        <ele>789</ele>
        <time>2022-10-19T08:40:58.410Z</time>
      </trkpt>
      <trkpt lat="43.53177" lon="5.62037">
        <ele>790</ele>
        <time>2022-10-19T08:40:59.410Z</time>
      </trkpt>
      <trkpt lat="43.53176" lon="5.62037">
        <ele>790</ele>
        <time>2022-10-19T08:41:00.410Z</time>
      </trkpt>
      <trkpt lat="43.53176" lon="5.62036">
        <ele>790</ele>
        <time>2022-10-19T08:41:01.410Z</time>
      </trkpt>
      <trkpt lat="43.53176" lon="5.62036">
        <ele>790</ele>
        <time>2022-10-19T08:41:02.410Z</time>
      </trkpt>
      <trkpt lat="43.53176" lon="5.62036">
        <ele>790</ele>
        <time>2022-10-19T08:41:03.410Z</time>
      </trkpt>
      <trkpt lat="43.53175" lon="5.62035">
        <ele>790</ele>
        <time>2022-10-19T08:41:04.410Z</time>
      </trkpt>
      <trkpt lat="43.53175" lon="5.62035">
        <ele>790</ele>
        <time>2022-10-19T08:41:05.410Z</time>
      </trkpt>
      <trkpt lat="43.53175" lon="5.62034">
        <ele>791</ele>
        <time>2022-10-19T08:41:06.410Z</time>
      </trkpt>
      <trkpt lat="43.53175" lon="5.62034">
        <ele>791</ele>
        <time>2022-10-19T08:41:07.410Z</time>
      </trkpt>
      <trkpt lat="43.53175" lon="5.62033">
        <ele>791</ele>
        <time>2022-10-19T08:41:08.410Z</time>
      </trkpt>
      <trkpt lat="43.53175" lon="5.62033">
        <ele>791</ele>
        <time>2022-10-19T08:41:09.410Z</time>
      </trkpt>
      <trkpt lat="43.53175" lon="5.62033">
        <ele>791</ele>
        <time>2022-10-19T08:41:10.410Z</time>
      </trkpt>
      <trkpt lat="43.53176" lon="5.62032">
        <ele>791</ele>
        <time>2022-10-19T08:41:11.410Z</time>
      </trkpt>
      <trkpt lat="43.53176" lon="5.62032">
        <ele>791</ele>
        <time>2022-10-19T08:41:12.410Z</time>
      </trkpt>
      <trkpt lat="43.53175" lon="5.62031">
        <ele>791</ele>
        <time>2022-10-19T08:41:13.410Z</time>
      </trkpt>
      <trkpt lat="43.53175" lon="5.62031">
        <ele>791</ele>
        <time>2022-10-19T08:41:14.410Z</time>
      </trkpt>
      <trkpt lat="43.53175" lon="5.62031">
        <ele>791</ele>
        <time>2022-10-19T08:41:15.410Z</time>
      </trkpt>
      <trkpt lat="43.53175" lon="5.62031">
        <ele>792</ele>
        <time>2022-10-19T08:41:16.410Z</time>
      </trkpt>
      <trkpt lat="43.53174" lon="5.62031">
        <ele>792</ele>
        <time>2022-10-19T08:41:17.410Z</time>
      </trkpt>
      <trkpt lat="43.53173" lon="5.6203">
        <ele>792</ele>
        <time>2022-10-19T08:41:18.410Z</time>
      </trkpt>
      <trkpt lat="43.53172" lon="5.6203">
        <ele>792</ele>
        <time>2022-10-19T08:41:19.410Z</time>
      </trkpt>
      <trkpt lat="43.53172" lon="5.62029">
        <ele>792</ele>
        <time>2022-10-19T08:41:20.410Z</time>
      </trkpt>
      <trkpt lat="43.53171" lon="5.62029">
        <ele>792</ele>
        <time>2022-10-19T08:41:21.410Z</time>
      </trkpt>
      <trkpt lat="43.5317" lon="5.62028">
        <ele>792</ele>
        <time>2022-10-19T08:41:22.410Z</time>
      </trkpt>
      <trkpt lat="43.5317" lon="5.62028">
        <ele>792</ele>
        <time>2022-10-19T08:41:23.410Z</time>
      </trkpt>
      <trkpt lat="43.5317" lon="5.62027">
        <ele>792</ele>
        <time>2022-10-19T08:41:24.410Z</time>
      </trkpt>
      <trkpt lat="43.53169" lon="5.62027">
        <ele>792</ele>
        <time>2022-10-19T08:41:25.410Z</time>
      </trkpt>
      <trkpt lat="43.53169" lon="5.62027">
        <ele>792</ele>
        <time>2022-10-19T08:41:26.410Z</time>
      </trkpt>
      <trkpt lat="43.53169" lon="5.62027">
        <ele>792</ele>
        <time>2022-10-19T08:41:27.410Z</time>
      </trkpt>
      <trkpt lat="43.53168" lon="5.62026">
        <ele>792</ele>
        <time>2022-10-19T08:41:28.410Z</time>
      </trkpt>
      <trkpt lat="43.53167" lon="5.62025">
        <ele>792</ele>
        <time>2022-10-19T08:41:29.410Z</time>
      </trkpt>
      <trkpt lat="43.53167" lon="5.62024">
        <ele>792</ele>
        <time>2022-10-19T08:41:30.410Z</time>
      </trkpt>
      <trkpt lat="43.53167" lon="5.62024">
        <ele>792</ele>
        <time>2022-10-19T08:41:31.410Z</time>
      </trkpt>
      <trkpt lat="43.53166" lon="5.62023">
        <ele>793</ele>
        <time>2022-10-19T08:41:32.410Z</time>
      </trkpt>
      <trkpt lat="43.53166" lon="5.62023">
        <ele>793</ele>
        <time>2022-10-19T08:41:33.410Z</time>
      </trkpt>
      <trkpt lat="43.53165" lon="5.62022">
        <ele>793</ele>
        <time>2022-10-19T08:41:34.410Z</time>
      </trkpt>
      <trkpt lat="43.53165" lon="5.62022">
        <ele>793</ele>
        <time>2022-10-19T08:41:35.410Z</time>
      </trkpt>
      <trkpt lat="43.53164" lon="5.62021">
        <ele>793</ele>
        <time>2022-10-19T08:41:36.410Z</time>
      </trkpt>
      <trkpt lat="43.53164" lon="5.6202">
        <ele>793</ele>
        <time>2022-10-19T08:41:37.410Z</time>
      </trkpt>
      <trkpt lat="43.53163" lon="5.6202">
        <ele>793</ele>
        <time>2022-10-19T08:41:38.410Z</time>
      </trkpt>
      <trkpt lat="43.53163" lon="5.62019">
        <ele>793</ele>
        <time>2022-10-19T08:41:39.410Z</time>
      </trkpt>
      <trkpt lat="43.53163" lon="5.62018">
        <ele>793</ele>
        <time>2022-10-19T08:41:40.410Z</time>
      </trkpt>
      <trkpt lat="43.53163" lon="5.62018">
        <ele>793</ele>
        <time>2022-10-19T08:41:41.410Z</time>
      </trkpt>
      <trkpt lat="43.53162" lon="5.62017">
        <ele>793</ele>
        <time>2022-10-19T08:41:42.410Z</time>
      </trkpt>
      <trkpt lat="43.53162" lon="5.62016">
        <ele>793</ele>
        <time>2022-10-19T08:41:43.410Z</time>
      </trkpt>
      <trkpt lat="43.53161" lon="5.62016">
        <ele>793</ele>
        <time>2022-10-19T08:41:44.410Z</time>
      </trkpt>
      <trkpt lat="43.53161" lon="5.62015">
        <ele>794</ele>
        <time>2022-10-19T08:41:45.410Z</time>
      </trkpt>
      <trkpt lat="43.5316" lon="5.62015">
        <ele>794</ele>
        <time>2022-10-19T08:41:46.410Z</time>
      </trkpt>
      <trkpt lat="43.5316" lon="5.62014">
        <ele>794</ele>
        <time>2022-10-19T08:41:47.410Z</time>
      </trkpt>
      <trkpt lat="43.5316" lon="5.62014">
        <ele>794</ele>
        <time>2022-10-19T08:41:48.410Z</time>
      </trkpt>
      <trkpt lat="43.53159" lon="5.62013">
        <ele>794</ele>
        <time>2022-10-19T08:41:49.410Z</time>
      </trkpt>
      <trkpt lat="43.53159" lon="5.62013">
        <ele>794</ele>
        <time>2022-10-19T08:41:50.410Z</time>
      </trkpt>
      <trkpt lat="43.53159" lon="5.62012">
        <ele>795</ele>
        <time>2022-10-19T08:41:51.410Z</time>
      </trkpt>
      <trkpt lat="43.53159" lon="5.62012">
        <ele>795</ele>
        <time>2022-10-19T08:41:52.410Z</time>
      </trkpt>
      <trkpt lat="43.53159" lon="5.62011">
        <ele>795</ele>
        <time>2022-10-19T08:41:53.410Z</time>
      </trkpt>
      <trkpt lat="43.53158" lon="5.6201">
        <ele>795</ele>
        <time>2022-10-19T08:41:54.410Z</time>
      </trkpt>
      <trkpt lat="43.53158" lon="5.6201">
        <ele>795</ele>
        <time>2022-10-19T08:41:55.410Z</time>
      </trkpt>
      <trkpt lat="43.53157" lon="5.6201">
        <ele>795</ele>
        <time>2022-10-19T08:41:56.410Z</time>
      </trkpt>
      <trkpt lat="43.53156" lon="5.62009">
        <ele>795</ele>
        <time>2022-10-19T08:41:57.410Z</time>
      </trkpt>
      <trkpt lat="43.53155" lon="5.62008">
        <ele>795</ele>
        <time>2022-10-19T08:41:58.410Z</time>
      </trkpt>
      <trkpt lat="43.53155" lon="5.62008">
        <ele>795</ele>
        <time>2022-10-19T08:41:59.410Z</time>
      </trkpt>
      <trkpt lat="43.53154" lon="5.62007">
        <ele>795</ele>
        <time>2022-10-19T08:42:00.410Z</time>
      </trkpt>
      <trkpt lat="43.53154" lon="5.62007">
        <ele>795</ele>
        <time>2022-10-19T08:42:01.410Z</time>
      </trkpt>
      <trkpt lat="43.53153" lon="5.62006">
        <ele>796</ele>
        <time>2022-10-19T08:42:02.410Z</time>
      </trkpt>
      <trkpt lat="43.53153" lon="5.62006">
        <ele>796</ele>
        <time>2022-10-19T08:42:03.410Z</time>
      </trkpt>
      <trkpt lat="43.53152" lon="5.62006">
        <ele>796</ele>
        <time>2022-10-19T08:42:04.410Z</time>
      </trkpt>
      <trkpt lat="43.53152" lon="5.62007">
        <ele>796</ele>
        <time>2022-10-19T08:42:05.410Z</time>
      </trkpt>
      <trkpt lat="43.53151" lon="5.62007">
        <ele>796</ele>
        <time>2022-10-19T08:42:06.410Z</time>
      </trkpt>
      <trkpt lat="43.5315" lon="5.62006">
        <ele>796</ele>
        <time>2022-10-19T08:42:07.410Z</time>
      </trkpt>
      <trkpt lat="43.53149" lon="5.62005">
        <ele>796</ele>
        <time>2022-10-19T08:42:08.410Z</time>
      </trkpt>
      <trkpt lat="43.53149" lon="5.62005">
        <ele>796</ele>
        <time>2022-10-19T08:42:09.410Z</time>
      </trkpt>
      <trkpt lat="43.53148" lon="5.62004">
        <ele>796</ele>
        <time>2022-10-19T08:42:10.410Z</time>
      </trkpt>
      <trkpt lat="43.53148" lon="5.62004">
        <ele>796</ele>
        <time>2022-10-19T08:42:11.410Z</time>
      </trkpt>
      <trkpt lat="43.53148" lon="5.62003">
        <ele>796</ele>
        <time>2022-10-19T08:42:12.410Z</time>
      </trkpt>
      <trkpt lat="43.53147" lon="5.62003">
        <ele>796</ele>
        <time>2022-10-19T08:42:13.410Z</time>
      </trkpt>
      <trkpt lat="43.53147" lon="5.62002">
        <ele>796</ele>
        <time>2022-10-19T08:42:14.410Z</time>
      </trkpt>
      <trkpt lat="43.53146" lon="5.62002">
        <ele>796</ele>
        <time>2022-10-19T08:42:15.410Z</time>
      </trkpt>
      <trkpt lat="43.53146" lon="5.62002">
        <ele>796</ele>
        <time>2022-10-19T08:42:16.410Z</time>
      </trkpt>
      <trkpt lat="43.53145" lon="5.62002">
        <ele>796</ele>
        <time>2022-10-19T08:42:17.410Z</time>
      </trkpt>
      <trkpt lat="43.53144" lon="5.62001">
        <ele>796</ele>
        <time>2022-10-19T08:42:18.410Z</time>
      </trkpt>
      <trkpt lat="43.53143" lon="5.62">
        <ele>796</ele>
        <time>2022-10-19T08:42:19.410Z</time>
      </trkpt>
      <trkpt lat="43.53142" lon="5.61999">
        <ele>796</ele>
        <time>2022-10-19T08:42:20.410Z</time>
      </trkpt>
      <trkpt lat="43.53142" lon="5.61999">
        <ele>796</ele>
        <time>2022-10-19T08:42:21.410Z</time>
      </trkpt>
      <trkpt lat="43.53141" lon="5.61998">
        <ele>796</ele>
        <time>2022-10-19T08:42:22.410Z</time>
      </trkpt>
      <trkpt lat="43.5314" lon="5.61997">
        <ele>796</ele>
        <time>2022-10-19T08:42:23.410Z</time>
      </trkpt>
      <trkpt lat="43.5314" lon="5.61997">
        <ele>796</ele>
        <time>2022-10-19T08:42:24.410Z</time>
      </trkpt>
      <trkpt lat="43.5314" lon="5.61997">
        <ele>796</ele>
        <time>2022-10-19T08:42:25.410Z</time>
      </trkpt>
      <trkpt lat="43.5314" lon="5.61996">
        <ele>797</ele>
        <time>2022-10-19T08:42:26.410Z</time>
      </trkpt>
      <trkpt lat="43.5314" lon="5.61996">
        <ele>797</ele>
        <time>2022-10-19T08:42:27.410Z</time>
      </trkpt>
      <trkpt lat="43.53139" lon="5.61996">
        <ele>797</ele>
        <time>2022-10-19T08:42:28.410Z</time>
      </trkpt>
      <trkpt lat="43.53139" lon="5.61996">
        <ele>797</ele>
        <time>2022-10-19T08:42:29.410Z</time>
      </trkpt>
      <trkpt lat="43.53139" lon="5.61996">
        <ele>797</ele>
        <time>2022-10-19T08:42:30.410Z</time>
      </trkpt>
      <trkpt lat="43.53139" lon="5.61996">
        <ele>797</ele>
        <time>2022-10-19T08:42:31.410Z</time>
      </trkpt>
      <trkpt lat="43.5314" lon="5.61996">
        <ele>797</ele>
        <time>2022-10-19T08:42:32.410Z</time>
      </trkpt>
      <trkpt lat="43.5314" lon="5.61996">
        <ele>797</ele>
        <time>2022-10-19T08:42:33.410Z</time>
      </trkpt>
      <trkpt lat="43.53139" lon="5.61996">
        <ele>797</ele>
        <time>2022-10-19T08:42:34.410Z</time>
      </trkpt>
      <trkpt lat="43.53139" lon="5.61996">
        <ele>797</ele>
        <time>2022-10-19T08:42:35.410Z</time>
      </trkpt>
      <trkpt lat="43.53139" lon="5.61996">
        <ele>797</ele>
        <time>2022-10-19T08:42:36.410Z</time>
      </trkpt>
      <trkpt lat="43.53139" lon="5.61996">
        <ele>797</ele>
        <time>2022-10-19T08:42:37.410Z</time>
      </trkpt>
      <trkpt lat="43.53139" lon="5.61996">
        <ele>797</ele>
        <time>2022-10-19T08:42:38.410Z</time>
      </trkpt>
      <trkpt lat="43.53139" lon="5.61996">
        <ele>797</ele>
        <time>2022-10-19T08:42:39.410Z</time>
      </trkpt>
      <trkpt lat="43.53139" lon="5.61996">
        <ele>797</ele>
        <time>2022-10-19T08:42:40.410Z</time>
      </trkpt>
      <trkpt lat="43.53139" lon="5.61996">
        <ele>797</ele>
        <time>2022-10-19T08:42:41.410Z</time>
      </trkpt>
      <trkpt lat="43.53139" lon="5.61996">
        <ele>797</ele>
        <time>2022-10-19T08:42:42.410Z</time>
      </trkpt>
      <trkpt lat="43.53139" lon="5.61996">
        <ele>797</ele>
        <time>2022-10-19T08:42:43.410Z</time>
      </trkpt>
      <trkpt lat="43.53139" lon="5.61996">
        <ele>797</ele>
        <time>2022-10-19T08:42:44.410Z</time>
      </trkpt>
      <trkpt lat="43.53139" lon="5.61996">
        <ele>797</ele>
        <time>2022-10-19T08:42:45.410Z</time>
      </trkpt>
      <trkpt lat="43.53139" lon="5.61996">
        <ele>797</ele>
        <time>2022-10-19T08:42:46.410Z</time>
      </trkpt>
      <trkpt lat="43.53139" lon="5.61996">
        <ele>797</ele>
        <time>2022-10-19T08:42:47.410Z</time>
      </trkpt>
      <trkpt lat="43.53139" lon="5.61996">
        <ele>797</ele>
        <time>2022-10-19T08:42:48.410Z</time>
      </trkpt>
      <trkpt lat="43.53139" lon="5.61996">
        <ele>797</ele>
        <time>2022-10-19T08:42:49.410Z</time>
      </trkpt>
      <trkpt lat="43.53138" lon="5.61996">
        <ele>797</ele>
        <time>2022-10-19T08:42:50.410Z</time>
      </trkpt>
      <trkpt lat="43.53137" lon="5.61996">
        <ele>797</ele>
        <time>2022-10-19T08:42:51.410Z</time>
      </trkpt>
      <trkpt lat="43.53137" lon="5.61996">
        <ele>797</ele>
        <time>2022-10-19T08:42:52.410Z</time>
      </trkpt>
      <trkpt lat="43.53136" lon="5.61996">
        <ele>797</ele>
        <time>2022-10-19T08:42:53.410Z</time>
      </trkpt>
      <trkpt lat="43.53136" lon="5.61996">
        <ele>797</ele>
        <time>2022-10-19T08:42:54.410Z</time>
      </trkpt>
      <trkpt lat="43.53136" lon="5.61996">
        <ele>797</ele>
        <time>2022-10-19T08:42:55.410Z</time>
      </trkpt>
      <trkpt lat="43.53136" lon="5.61996">
        <ele>797</ele>
        <time>2022-10-19T08:42:56.410Z</time>
      </trkpt>
      <trkpt lat="43.53135" lon="5.61996">
        <ele>797</ele>
        <time>2022-10-19T08:42:57.410Z</time>
      </trkpt>
      <trkpt lat="43.53135" lon="5.61996">
        <ele>797</ele>
        <time>2022-10-19T08:42:58.410Z</time>
      </trkpt>
      <trkpt lat="43.53135" lon="5.61996">
        <ele>797</ele>
        <time>2022-10-19T08:42:59.410Z</time>
      </trkpt>
      <trkpt lat="43.53135" lon="5.61996">
        <ele>797</ele>
        <time>2022-10-19T08:43:00.410Z</time>
      </trkpt>
      <trkpt lat="43.53135" lon="5.61996">
        <ele>797</ele>
        <time>2022-10-19T08:43:01.410Z</time>
      </trkpt>
      <trkpt lat="43.53135" lon="5.61996">
        <ele>797</ele>
        <time>2022-10-19T08:43:02.410Z</time>
      </trkpt>
      <trkpt lat="43.53135" lon="5.61996">
        <ele>797</ele>
        <time>2022-10-19T08:43:03.410Z</time>
      </trkpt>
      <trkpt lat="43.53135" lon="5.61996">
        <ele>797</ele>
        <time>2022-10-19T08:43:04.410Z</time>
      </trkpt>
      <trkpt lat="43.53135" lon="5.61996">
        <ele>797</ele>
        <time>2022-10-19T08:43:05.410Z</time>
      </trkpt>
      <trkpt lat="43.53135" lon="5.61996">
        <ele>797</ele>
        <time>2022-10-19T08:43:06.410Z</time>
      </trkpt>
      <trkpt lat="43.53134" lon="5.61996">
        <ele>797</ele>
        <time>2022-10-19T08:43:07.410Z</time>
      </trkpt>
      <trkpt lat="43.53134" lon="5.61996">
        <ele>797</ele>
        <time>2022-10-19T08:43:08.410Z</time>
      </trkpt>
      <trkpt lat="43.53133" lon="5.61997">
        <ele>797</ele>
        <time>2022-10-19T08:43:09.410Z</time>
      </trkpt>
      <trkpt lat="43.53133" lon="5.61997">
        <ele>797</ele>
        <time>2022-10-19T08:43:10.410Z</time>
      </trkpt>
      <trkpt lat="43.53133" lon="5.61997">
        <ele>797</ele>
        <time>2022-10-19T08:43:11.410Z</time>
      </trkpt>
      <trkpt lat="43.53132" lon="5.61996">
        <ele>797</ele>
        <time>2022-10-19T08:43:12.410Z</time>
      </trkpt>
      <trkpt lat="43.53132" lon="5.61996">
        <ele>797</ele>
        <time>2022-10-19T08:43:13.410Z</time>
      </trkpt>
      <trkpt lat="43.53131" lon="5.61996">
        <ele>797</ele>
        <time>2022-10-19T08:43:14.410Z</time>
      </trkpt>
      <trkpt lat="43.5313" lon="5.61996">
        <ele>797</ele>
        <time>2022-10-19T08:43:15.410Z</time>
      </trkpt>
      <trkpt lat="43.53129" lon="5.61995">
        <ele>797</ele>
        <time>2022-10-19T08:43:16.410Z</time>
      </trkpt>
      <trkpt lat="43.53129" lon="5.61995">
        <ele>797</ele>
        <time>2022-10-19T08:43:17.410Z</time>
      </trkpt>
      <trkpt lat="43.53129" lon="5.61995">
        <ele>797</ele>
        <time>2022-10-19T08:43:18.410Z</time>
      </trkpt>
      <trkpt lat="43.53129" lon="5.61995">
        <ele>797</ele>
        <time>2022-10-19T08:43:19.410Z</time>
      </trkpt>
      <trkpt lat="43.53128" lon="5.61995">
        <ele>797</ele>
        <time>2022-10-19T08:43:20.410Z</time>
      </trkpt>
      <trkpt lat="43.53128" lon="5.61994">
        <ele>797</ele>
        <time>2022-10-19T08:43:21.410Z</time>
      </trkpt>
      <trkpt lat="43.53127" lon="5.61994">
        <ele>797</ele>
        <time>2022-10-19T08:43:22.410Z</time>
      </trkpt>
      <trkpt lat="43.53127" lon="5.61994">
        <ele>797</ele>
        <time>2022-10-19T08:43:23.410Z</time>
      </trkpt>
      <trkpt lat="43.53127" lon="5.61993">
        <ele>797</ele>
        <time>2022-10-19T08:43:24.410Z</time>
      </trkpt>
      <trkpt lat="43.53127" lon="5.61993">
        <ele>797</ele>
        <time>2022-10-19T08:43:25.410Z</time>
      </trkpt>
      <trkpt lat="43.53127" lon="5.61993">
        <ele>797</ele>
        <time>2022-10-19T08:43:26.410Z</time>
      </trkpt>
      <trkpt lat="43.53127" lon="5.61993">
        <ele>797</ele>
        <time>2022-10-19T08:43:27.410Z</time>
      </trkpt>
      <trkpt lat="43.53127" lon="5.61993">
        <ele>797</ele>
        <time>2022-10-19T08:43:28.410Z</time>
      </trkpt>
      <trkpt lat="43.53127" lon="5.61993">
        <ele>797</ele>
        <time>2022-10-19T08:43:29.410Z</time>
      </trkpt>
      <trkpt lat="43.53127" lon="5.61993">
        <ele>797</ele>
        <time>2022-10-19T08:43:30.410Z</time>
      </trkpt>
      <trkpt lat="43.53127" lon="5.61993">
        <ele>797</ele>
        <time>2022-10-19T08:43:31.410Z</time>
      </trkpt>
      <trkpt lat="43.53127" lon="5.61993">
        <ele>797</ele>
        <time>2022-10-19T08:43:32.410Z</time>
      </trkpt>
      <trkpt lat="43.53127" lon="5.61993">
        <ele>797</ele>
        <time>2022-10-19T08:43:33.410Z</time>
      </trkpt>
      <trkpt lat="43.53127" lon="5.61993">
        <ele>797</ele>
        <time>2022-10-19T08:43:34.410Z</time>
      </trkpt>
      <trkpt lat="43.53127" lon="5.61993">
        <ele>797</ele>
        <time>2022-10-19T08:43:35.410Z</time>
      </trkpt>
      <trkpt lat="43.53127" lon="5.61993">
        <ele>796</ele>
        <time>2022-10-19T08:43:36.410Z</time>
      </trkpt>
      <trkpt lat="43.53126" lon="5.61992">
        <ele>796</ele>
        <time>2022-10-19T08:43:37.410Z</time>
      </trkpt>
      <trkpt lat="43.53126" lon="5.61992">
        <ele>796</ele>
        <time>2022-10-19T08:43:38.410Z</time>
      </trkpt>
      <trkpt lat="43.53126" lon="5.61992">
        <ele>796</ele>
        <time>2022-10-19T08:43:39.410Z</time>
      </trkpt>
      <trkpt lat="43.53126" lon="5.61992">
        <ele>796</ele>
        <time>2022-10-19T08:43:40.410Z</time>
      </trkpt>
      <trkpt lat="43.53125" lon="5.61992">
        <ele>796</ele>
        <time>2022-10-19T08:43:41.410Z</time>
      </trkpt>
      <trkpt lat="43.53125" lon="5.61992">
        <ele>796</ele>
        <time>2022-10-19T08:43:42.410Z</time>
      </trkpt>
      <trkpt lat="43.53124" lon="5.61992">
        <ele>796</ele>
        <time>2022-10-19T08:43:43.410Z</time>
      </trkpt>
      <trkpt lat="43.53124" lon="5.61992">
        <ele>796</ele>
        <time>2022-10-19T08:43:44.410Z</time>
      </trkpt>
      <trkpt lat="43.53124" lon="5.61992">
        <ele>796</ele>
        <time>2022-10-19T08:43:45.410Z</time>
      </trkpt>
      <trkpt lat="43.53123" lon="5.6199">
        <ele>796</ele>
        <time>2022-10-19T08:43:46.410Z</time>
      </trkpt>
      <trkpt lat="43.53123" lon="5.6199">
        <ele>797</ele>
        <time>2022-10-19T08:43:47.410Z</time>
      </trkpt>
      <trkpt lat="43.53123" lon="5.6199">
        <ele>797</ele>
        <time>2022-10-19T08:43:48.410Z</time>
      </trkpt>
      <trkpt lat="43.53123" lon="5.6199">
        <ele>796</ele>
        <time>2022-10-19T08:43:49.410Z</time>
      </trkpt>
      <trkpt lat="43.53122" lon="5.6199">
        <ele>796</ele>
        <time>2022-10-19T08:43:50.410Z</time>
      </trkpt>
      <trkpt lat="43.53122" lon="5.61989">
        <ele>796</ele>
        <time>2022-10-19T08:43:51.410Z</time>
      </trkpt>
      <trkpt lat="43.53121" lon="5.61988">
        <ele>797</ele>
        <time>2022-10-19T08:43:52.410Z</time>
      </trkpt>
      <trkpt lat="43.53121" lon="5.61988">
        <ele>797</ele>
        <time>2022-10-19T08:43:53.410Z</time>
      </trkpt>
      <trkpt lat="43.5312" lon="5.61988">
        <ele>797</ele>
        <time>2022-10-19T08:43:54.410Z</time>
      </trkpt>
      <trkpt lat="43.53119" lon="5.61988">
        <ele>797</ele>
        <time>2022-10-19T08:43:55.410Z</time>
      </trkpt>
      <trkpt lat="43.53119" lon="5.61988">
        <ele>797</ele>
        <time>2022-10-19T08:43:56.410Z</time>
      </trkpt>
      <trkpt lat="43.53119" lon="5.61988">
        <ele>797</ele>
        <time>2022-10-19T08:43:57.410Z</time>
      </trkpt>
      <trkpt lat="43.53118" lon="5.61988">
        <ele>797</ele>
        <time>2022-10-19T08:43:58.410Z</time>
      </trkpt>
      <trkpt lat="43.53118" lon="5.61988">
        <ele>797</ele>
        <time>2022-10-19T08:43:59.410Z</time>
      </trkpt>
      <trkpt lat="43.53117" lon="5.61988">
        <ele>797</ele>
        <time>2022-10-19T08:44:00.410Z</time>
      </trkpt>
      <trkpt lat="43.53117" lon="5.61987">
        <ele>797</ele>
        <time>2022-10-19T08:44:01.410Z</time>
      </trkpt>
      <trkpt lat="43.53116" lon="5.61987">
        <ele>797</ele>
        <time>2022-10-19T08:44:02.410Z</time>
      </trkpt>
      <trkpt lat="43.53116" lon="5.61987">
        <ele>797</ele>
        <time>2022-10-19T08:44:03.410Z</time>
      </trkpt>
      <trkpt lat="43.53116" lon="5.61988">
        <ele>797</ele>
        <time>2022-10-19T08:44:04.410Z</time>
      </trkpt>
      <trkpt lat="43.53116" lon="5.61988">
        <ele>797</ele>
        <time>2022-10-19T08:44:05.410Z</time>
      </trkpt>
      <trkpt lat="43.53115" lon="5.61989">
        <ele>797</ele>
        <time>2022-10-19T08:44:06.410Z</time>
      </trkpt>
      <trkpt lat="43.53114" lon="5.61989">
        <ele>797</ele>
        <time>2022-10-19T08:44:07.410Z</time>
      </trkpt>
      <trkpt lat="43.53113" lon="5.61988">
        <ele>797</ele>
        <time>2022-10-19T08:44:08.410Z</time>
      </trkpt>
      <trkpt lat="43.53112" lon="5.61988">
        <ele>796</ele>
        <time>2022-10-19T08:44:09.410Z</time>
      </trkpt>
      <trkpt lat="43.53111" lon="5.61987">
        <ele>796</ele>
        <time>2022-10-19T08:44:10.410Z</time>
      </trkpt>
      <trkpt lat="43.53111" lon="5.61985">
        <ele>796</ele>
        <time>2022-10-19T08:44:11.410Z</time>
      </trkpt>
      <trkpt lat="43.5311" lon="5.61985">
        <ele>796</ele>
        <time>2022-10-19T08:44:12.410Z</time>
      </trkpt>
      <trkpt lat="43.53109" lon="5.61984">
        <ele>796</ele>
        <time>2022-10-19T08:44:13.410Z</time>
      </trkpt>
      <trkpt lat="43.53109" lon="5.61983">
        <ele>796</ele>
        <time>2022-10-19T08:44:14.410Z</time>
      </trkpt>
      <trkpt lat="43.53109" lon="5.61983">
        <ele>796</ele>
        <time>2022-10-19T08:44:15.410Z</time>
      </trkpt>
      <trkpt lat="43.53108" lon="5.61982">
        <ele>796</ele>
        <time>2022-10-19T08:44:16.410Z</time>
      </trkpt>
      <trkpt lat="43.53107" lon="5.61982">
        <ele>796</ele>
        <time>2022-10-19T08:44:17.410Z</time>
      </trkpt>
      <trkpt lat="43.53107" lon="5.61982">
        <ele>796</ele>
        <time>2022-10-19T08:44:18.410Z</time>
      </trkpt>
      <trkpt lat="43.53107" lon="5.61982">
        <ele>796</ele>
        <time>2022-10-19T08:44:19.410Z</time>
      </trkpt>
      <trkpt lat="43.53106" lon="5.61982">
        <ele>796</ele>
        <time>2022-10-19T08:44:20.410Z</time>
      </trkpt>
      <trkpt lat="43.53106" lon="5.61983">
        <ele>796</ele>
        <time>2022-10-19T08:44:21.410Z</time>
      </trkpt>
      <trkpt lat="43.53105" lon="5.61984">
        <ele>796</ele>
        <time>2022-10-19T08:44:22.410Z</time>
      </trkpt>
      <trkpt lat="43.53105" lon="5.61984">
        <ele>796</ele>
        <time>2022-10-19T08:44:23.410Z</time>
      </trkpt>
      <trkpt lat="43.53105" lon="5.61984">
        <ele>795</ele>
        <time>2022-10-19T08:44:24.410Z</time>
      </trkpt>
      <trkpt lat="43.53105" lon="5.61984">
        <ele>795</ele>
        <time>2022-10-19T08:44:25.410Z</time>
      </trkpt>
      <trkpt lat="43.53105" lon="5.61984">
        <ele>795</ele>
        <time>2022-10-19T08:44:26.410Z</time>
      </trkpt>
      <trkpt lat="43.53105" lon="5.61984">
        <ele>795</ele>
        <time>2022-10-19T08:44:27.410Z</time>
      </trkpt>
      <trkpt lat="43.53104" lon="5.61984">
        <ele>795</ele>
        <time>2022-10-19T08:44:28.410Z</time>
      </trkpt>
      <trkpt lat="43.53104" lon="5.61984">
        <ele>795</ele>
        <time>2022-10-19T08:44:29.410Z</time>
      </trkpt>
      <trkpt lat="43.53104" lon="5.61984">
        <ele>795</ele>
        <time>2022-10-19T08:44:30.410Z</time>
      </trkpt>
      <trkpt lat="43.53103" lon="5.61984">
        <ele>795</ele>
        <time>2022-10-19T08:44:31.410Z</time>
      </trkpt>
      <trkpt lat="43.53103" lon="5.61983">
        <ele>795</ele>
        <time>2022-10-19T08:44:32.410Z</time>
      </trkpt>
      <trkpt lat="43.53102" lon="5.61983">
        <ele>795</ele>
        <time>2022-10-19T08:44:33.410Z</time>
      </trkpt>
      <trkpt lat="43.53102" lon="5.61983">
        <ele>795</ele>
        <time>2022-10-19T08:44:34.410Z</time>
      </trkpt>
      <trkpt lat="43.53102" lon="5.61983">
        <ele>795</ele>
        <time>2022-10-19T08:44:35.410Z</time>
      </trkpt>
      <trkpt lat="43.53102" lon="5.61982">
        <ele>795</ele>
        <time>2022-10-19T08:44:36.410Z</time>
      </trkpt>
      <trkpt lat="43.53101" lon="5.61982">
        <ele>795</ele>
        <time>2022-10-19T08:44:37.410Z</time>
      </trkpt>
      <trkpt lat="43.53101" lon="5.61983">
        <ele>795</ele>
        <time>2022-10-19T08:44:38.410Z</time>
      </trkpt>
      <trkpt lat="43.53101" lon="5.61983">
        <ele>794</ele>
        <time>2022-10-19T08:44:39.410Z</time>
      </trkpt>
      <trkpt lat="43.531" lon="5.61984">
        <ele>794</ele>
        <time>2022-10-19T08:44:40.410Z</time>
      </trkpt>
      <trkpt lat="43.53099" lon="5.61984">
        <ele>794</ele>
        <time>2022-10-19T08:44:41.410Z</time>
      </trkpt>
      <trkpt lat="43.53099" lon="5.61983">
        <ele>794</ele>
        <time>2022-10-19T08:44:42.410Z</time>
      </trkpt>
      <trkpt lat="43.53098" lon="5.61982">
        <ele>794</ele>
        <time>2022-10-19T08:44:43.410Z</time>
      </trkpt>
      <trkpt lat="43.53098" lon="5.61981">
        <ele>794</ele>
        <time>2022-10-19T08:44:44.410Z</time>
      </trkpt>
      <trkpt lat="43.53097" lon="5.6198">
        <ele>794</ele>
        <time>2022-10-19T08:44:45.410Z</time>
      </trkpt>
      <trkpt lat="43.53097" lon="5.6198">
        <ele>793</ele>
        <time>2022-10-19T08:44:46.410Z</time>
      </trkpt>
      <trkpt lat="43.53096" lon="5.6198">
        <ele>793</ele>
        <time>2022-10-19T08:44:47.410Z</time>
      </trkpt>
      <trkpt lat="43.53095" lon="5.61979">
        <ele>793</ele>
        <time>2022-10-19T08:44:48.410Z</time>
      </trkpt>
      <trkpt lat="43.53095" lon="5.61979">
        <ele>793</ele>
        <time>2022-10-19T08:44:49.410Z</time>
      </trkpt>
      <trkpt lat="43.53094" lon="5.61979">
        <ele>793</ele>
        <time>2022-10-19T08:44:50.410Z</time>
      </trkpt>
      <trkpt lat="43.53093" lon="5.61978">
        <ele>793</ele>
        <time>2022-10-19T08:44:51.410Z</time>
      </trkpt>
      <trkpt lat="43.53093" lon="5.61978">
        <ele>793</ele>
        <time>2022-10-19T08:44:52.410Z</time>
      </trkpt>
      <trkpt lat="43.53092" lon="5.61978">
        <ele>793</ele>
        <time>2022-10-19T08:44:53.410Z</time>
      </trkpt>
      <trkpt lat="43.53091" lon="5.61978">
        <ele>792</ele>
        <time>2022-10-19T08:44:54.410Z</time>
      </trkpt>
      <trkpt lat="43.53091" lon="5.61977">
        <ele>792</ele>
        <time>2022-10-19T08:44:55.410Z</time>
      </trkpt>
      <trkpt lat="43.5309" lon="5.61977">
        <ele>792</ele>
        <time>2022-10-19T08:44:56.410Z</time>
      </trkpt>
      <trkpt lat="43.53089" lon="5.61977">
        <ele>792</ele>
        <time>2022-10-19T08:44:57.410Z</time>
      </trkpt>
      <trkpt lat="43.53088" lon="5.61977">
        <ele>792</ele>
        <time>2022-10-19T08:44:58.410Z</time>
      </trkpt>
      <trkpt lat="43.53088" lon="5.61976">
        <ele>792</ele>
        <time>2022-10-19T08:44:59.410Z</time>
      </trkpt>
      <trkpt lat="43.53087" lon="5.61975">
        <ele>792</ele>
        <time>2022-10-19T08:45:00.410Z</time>
      </trkpt>
      <trkpt lat="43.53086" lon="5.61975">
        <ele>791</ele>
        <time>2022-10-19T08:45:01.410Z</time>
      </trkpt>
      <trkpt lat="43.53085" lon="5.61974">
        <ele>791</ele>
        <time>2022-10-19T08:45:02.410Z</time>
      </trkpt>
      <trkpt lat="43.53085" lon="5.61973">
        <ele>791</ele>
        <time>2022-10-19T08:45:03.410Z</time>
      </trkpt>
      <trkpt lat="43.53084" lon="5.61973">
        <ele>791</ele>
        <time>2022-10-19T08:45:04.410Z</time>
      </trkpt>
      <trkpt lat="43.53084" lon="5.61972">
        <ele>791</ele>
        <time>2022-10-19T08:45:05.410Z</time>
      </trkpt>
      <trkpt lat="43.53083" lon="5.61972">
        <ele>791</ele>
        <time>2022-10-19T08:45:06.410Z</time>
      </trkpt>
      <trkpt lat="43.53082" lon="5.61971">
        <ele>791</ele>
        <time>2022-10-19T08:45:07.410Z</time>
      </trkpt>
      <trkpt lat="43.53081" lon="5.61971">
        <ele>791</ele>
        <time>2022-10-19T08:45:08.410Z</time>
      </trkpt>
      <trkpt lat="43.53081" lon="5.61971">
        <ele>791</ele>
        <time>2022-10-19T08:45:09.410Z</time>
      </trkpt>
      <trkpt lat="43.5308" lon="5.6197">
        <ele>791</ele>
        <time>2022-10-19T08:45:10.410Z</time>
      </trkpt>
      <trkpt lat="43.5308" lon="5.6197">
        <ele>790</ele>
        <time>2022-10-19T08:45:11.410Z</time>
      </trkpt>
      <trkpt lat="43.53079" lon="5.6197">
        <ele>790</ele>
        <time>2022-10-19T08:45:12.410Z</time>
      </trkpt>
      <trkpt lat="43.53079" lon="5.61969">
        <ele>790</ele>
        <time>2022-10-19T08:45:13.410Z</time>
      </trkpt>
      <trkpt lat="43.53079" lon="5.61969">
        <ele>790</ele>
        <time>2022-10-19T08:45:14.410Z</time>
      </trkpt>
      <trkpt lat="43.53079" lon="5.61969">
        <ele>790</ele>
        <time>2022-10-19T08:45:15.410Z</time>
      </trkpt>
      <trkpt lat="43.53078" lon="5.61969">
        <ele>790</ele>
        <time>2022-10-19T08:45:16.410Z</time>
      </trkpt>
      <trkpt lat="43.53078" lon="5.61968">
        <ele>790</ele>
        <time>2022-10-19T08:45:17.410Z</time>
      </trkpt>
      <trkpt lat="43.53077" lon="5.61968">
        <ele>790</ele>
        <time>2022-10-19T08:45:18.410Z</time>
      </trkpt>
      <trkpt lat="43.53077" lon="5.61967">
        <ele>790</ele>
        <time>2022-10-19T08:45:19.410Z</time>
      </trkpt>
      <trkpt lat="43.53076" lon="5.61966">
        <ele>790</ele>
        <time>2022-10-19T08:45:20.410Z</time>
      </trkpt>
      <trkpt lat="43.53076" lon="5.61966">
        <ele>790</ele>
        <time>2022-10-19T08:45:21.410Z</time>
      </trkpt>
      <trkpt lat="43.53076" lon="5.61965">
        <ele>790</ele>
        <time>2022-10-19T08:45:22.410Z</time>
      </trkpt>
      <trkpt lat="43.53076" lon="5.61964">
        <ele>790</ele>
        <time>2022-10-19T08:45:23.410Z</time>
      </trkpt>
      <trkpt lat="43.53077" lon="5.61964">
        <ele>790</ele>
        <time>2022-10-19T08:45:24.410Z</time>
      </trkpt>
      <trkpt lat="43.53077" lon="5.61963">
        <ele>790</ele>
        <time>2022-10-19T08:45:25.410Z</time>
      </trkpt>
      <trkpt lat="43.53077" lon="5.61963">
        <ele>790</ele>
        <time>2022-10-19T08:45:26.410Z</time>
      </trkpt>
      <trkpt lat="43.53077" lon="5.61963">
        <ele>790</ele>
        <time>2022-10-19T08:45:27.410Z</time>
      </trkpt>
      <trkpt lat="43.53076" lon="5.61963">
        <ele>790</ele>
        <time>2022-10-19T08:45:28.410Z</time>
      </trkpt>
      <trkpt lat="43.53076" lon="5.61963">
        <ele>790</ele>
        <time>2022-10-19T08:45:29.410Z</time>
      </trkpt>
      <trkpt lat="43.53076" lon="5.61962">
        <ele>790</ele>
        <time>2022-10-19T08:45:30.410Z</time>
      </trkpt>
      <trkpt lat="43.53076" lon="5.61962">
        <ele>790</ele>
        <time>2022-10-19T08:45:31.410Z</time>
      </trkpt>
      <trkpt lat="43.53076" lon="5.61962">
        <ele>790</ele>
        <time>2022-10-19T08:45:32.410Z</time>
      </trkpt>
      <trkpt lat="43.53077" lon="5.61961">
        <ele>790</ele>
        <time>2022-10-19T08:45:33.410Z</time>
      </trkpt>
      <trkpt lat="43.53077" lon="5.61961">
        <ele>790</ele>
        <time>2022-10-19T08:45:34.410Z</time>
      </trkpt>
      <trkpt lat="43.53077" lon="5.61961">
        <ele>790</ele>
        <time>2022-10-19T08:45:35.410Z</time>
      </trkpt>
      <trkpt lat="43.53077" lon="5.6196">
        <ele>790</ele>
        <time>2022-10-19T08:45:36.410Z</time>
      </trkpt>
      <trkpt lat="43.53077" lon="5.6196">
        <ele>790</ele>
        <time>2022-10-19T08:45:37.410Z</time>
      </trkpt>
      <trkpt lat="43.53077" lon="5.6196">
        <ele>790</ele>
        <time>2022-10-19T08:45:38.410Z</time>
      </trkpt>
      <trkpt lat="43.53076" lon="5.61959">
        <ele>790</ele>
        <time>2022-10-19T08:45:39.410Z</time>
      </trkpt>
      <trkpt lat="43.53076" lon="5.61959">
        <ele>790</ele>
        <time>2022-10-19T08:45:40.410Z</time>
      </trkpt>
      <trkpt lat="43.53076" lon="5.61958">
        <ele>790</ele>
        <time>2022-10-19T08:45:41.410Z</time>
      </trkpt>
      <trkpt lat="43.53075" lon="5.61958">
        <ele>790</ele>
        <time>2022-10-19T08:45:42.410Z</time>
      </trkpt>
      <trkpt lat="43.53076" lon="5.61957">
        <ele>790</ele>
        <time>2022-10-19T08:45:43.410Z</time>
      </trkpt>
      <trkpt lat="43.53076" lon="5.61956">
        <ele>790</ele>
        <time>2022-10-19T08:45:44.410Z</time>
      </trkpt>
      <trkpt lat="43.53076" lon="5.61956">
        <ele>791</ele>
        <time>2022-10-19T08:45:45.410Z</time>
      </trkpt>
      <trkpt lat="43.53076" lon="5.61956">
        <ele>791</ele>
        <time>2022-10-19T08:45:46.410Z</time>
      </trkpt>
      <trkpt lat="43.53076" lon="5.61956">
        <ele>791</ele>
        <time>2022-10-19T08:45:47.410Z</time>
      </trkpt>
      <trkpt lat="43.53076" lon="5.61956">
        <ele>791</ele>
        <time>2022-10-19T08:45:48.410Z</time>
      </trkpt>
      <trkpt lat="43.53076" lon="5.61955">
        <ele>791</ele>
        <time>2022-10-19T08:45:49.410Z</time>
      </trkpt>
      <trkpt lat="43.53075" lon="5.61955">
        <ele>791</ele>
        <time>2022-10-19T08:45:50.410Z</time>
      </trkpt>
      <trkpt lat="43.53075" lon="5.61955">
        <ele>791</ele>
        <time>2022-10-19T08:45:51.410Z</time>
      </trkpt>
      <trkpt lat="43.53075" lon="5.61955">
        <ele>791</ele>
        <time>2022-10-19T08:45:52.410Z</time>
      </trkpt>
      <trkpt lat="43.53075" lon="5.61955">
        <ele>791</ele>
        <time>2022-10-19T08:45:53.410Z</time>
      </trkpt>
      <trkpt lat="43.53074" lon="5.61954">
        <ele>792</ele>
        <time>2022-10-19T08:45:54.410Z</time>
      </trkpt>
      <trkpt lat="43.53074" lon="5.61954">
        <ele>792</ele>
        <time>2022-10-19T08:45:55.410Z</time>
      </trkpt>
      <trkpt lat="43.53073" lon="5.61954">
        <ele>792</ele>
        <time>2022-10-19T08:45:56.410Z</time>
      </trkpt>
      <trkpt lat="43.53073" lon="5.61954">
        <ele>792</ele>
        <time>2022-10-19T08:45:57.410Z</time>
      </trkpt>
      <trkpt lat="43.53073" lon="5.61954">
        <ele>792</ele>
        <time>2022-10-19T08:45:58.410Z</time>
      </trkpt>
      <trkpt lat="43.53073" lon="5.61954">
        <ele>792</ele>
        <time>2022-10-19T08:45:59.410Z</time>
      </trkpt>
      <trkpt lat="43.53073" lon="5.61953">
        <ele>792</ele>
        <time>2022-10-19T08:46:00.410Z</time>
      </trkpt>
      <trkpt lat="43.53073" lon="5.61953">
        <ele>792</ele>
        <time>2022-10-19T08:46:01.410Z</time>
      </trkpt>
      <trkpt lat="43.53073" lon="5.61953">
        <ele>792</ele>
        <time>2022-10-19T08:46:02.410Z</time>
      </trkpt>
      <trkpt lat="43.53073" lon="5.61952">
        <ele>793</ele>
        <time>2022-10-19T08:46:03.410Z</time>
      </trkpt>
      <trkpt lat="43.53073" lon="5.61952">
        <ele>793</ele>
        <time>2022-10-19T08:46:04.410Z</time>
      </trkpt>
      <trkpt lat="43.53073" lon="5.61951">
        <ele>793</ele>
        <time>2022-10-19T08:46:05.410Z</time>
      </trkpt>
      <trkpt lat="43.53073" lon="5.61951">
        <ele>793</ele>
        <time>2022-10-19T08:46:06.410Z</time>
      </trkpt>
      <trkpt lat="43.53073" lon="5.61951">
        <ele>793</ele>
        <time>2022-10-19T08:46:07.410Z</time>
      </trkpt>
      <trkpt lat="43.53073" lon="5.61951">
        <ele>793</ele>
        <time>2022-10-19T08:46:08.410Z</time>
      </trkpt>
      <trkpt lat="43.53073" lon="5.61951">
        <ele>793</ele>
        <time>2022-10-19T08:46:09.410Z</time>
      </trkpt>
      <trkpt lat="43.53072" lon="5.61951">
        <ele>793</ele>
        <time>2022-10-19T08:46:10.410Z</time>
      </trkpt>
      <trkpt lat="43.53072" lon="5.61951">
        <ele>793</ele>
        <time>2022-10-19T08:46:11.410Z</time>
      </trkpt>
      <trkpt lat="43.53072" lon="5.61952">
        <ele>794</ele>
        <time>2022-10-19T08:46:12.410Z</time>
      </trkpt>
      <trkpt lat="43.53072" lon="5.61952">
        <ele>794</ele>
        <time>2022-10-19T08:46:13.410Z</time>
      </trkpt>
      <trkpt lat="43.53071" lon="5.61952">
        <ele>794</ele>
        <time>2022-10-19T08:46:14.410Z</time>
      </trkpt>
      <trkpt lat="43.53071" lon="5.61952">
        <ele>794</ele>
        <time>2022-10-19T08:46:15.410Z</time>
      </trkpt>
      <trkpt lat="43.53071" lon="5.61952">
        <ele>794</ele>
        <time>2022-10-19T08:46:16.410Z</time>
      </trkpt>
      <trkpt lat="43.53071" lon="5.61952">
        <ele>794</ele>
        <time>2022-10-19T08:46:17.410Z</time>
      </trkpt>
      <trkpt lat="43.53071" lon="5.61952">
        <ele>794</ele>
        <time>2022-10-19T08:46:18.410Z</time>
      </trkpt>
      <trkpt lat="43.53071" lon="5.61952">
        <ele>794</ele>
        <time>2022-10-19T08:46:19.410Z</time>
      </trkpt>
      <trkpt lat="43.53071" lon="5.61952">
        <ele>794</ele>
        <time>2022-10-19T08:46:20.410Z</time>
      </trkpt>
      <trkpt lat="43.53071" lon="5.61952">
        <ele>794</ele>
        <time>2022-10-19T08:46:21.410Z</time>
      </trkpt>
      <trkpt lat="43.53071" lon="5.61952">
        <ele>794</ele>
        <time>2022-10-19T08:46:22.410Z</time>
      </trkpt>
      <trkpt lat="43.53071" lon="5.61952">
        <ele>794</ele>
        <time>2022-10-19T08:46:23.410Z</time>
      </trkpt>
      <trkpt lat="43.5307" lon="5.61952">
        <ele>794</ele>
        <time>2022-10-19T08:46:24.410Z</time>
      </trkpt>
      <trkpt lat="43.5307" lon="5.61951">
        <ele>794</ele>
        <time>2022-10-19T08:46:25.410Z</time>
      </trkpt>
      <trkpt lat="43.5307" lon="5.61951">
        <ele>794</ele>
        <time>2022-10-19T08:46:26.410Z</time>
      </trkpt>
      <trkpt lat="43.5307" lon="5.61951">
        <ele>794</ele>
        <time>2022-10-19T08:46:27.410Z</time>
      </trkpt>
      <trkpt lat="43.5307" lon="5.61951">
        <ele>794</ele>
        <time>2022-10-19T08:46:28.410Z</time>
      </trkpt>
      <trkpt lat="43.5307" lon="5.61951">
        <ele>794</ele>
        <time>2022-10-19T08:46:29.410Z</time>
      </trkpt>
      <trkpt lat="43.5307" lon="5.6195">
        <ele>794</ele>
        <time>2022-10-19T08:46:30.410Z</time>
      </trkpt>
      <trkpt lat="43.5307" lon="5.6195">
        <ele>794</ele>
        <time>2022-10-19T08:46:31.410Z</time>
      </trkpt>
      <trkpt lat="43.5307" lon="5.61949">
        <ele>795</ele>
        <time>2022-10-19T08:46:32.410Z</time>
      </trkpt>
      <trkpt lat="43.5307" lon="5.61949">
        <ele>795</ele>
        <time>2022-10-19T08:46:33.410Z</time>
      </trkpt>
      <trkpt lat="43.5307" lon="5.61949">
        <ele>795</ele>
        <time>2022-10-19T08:46:34.410Z</time>
      </trkpt>
      <trkpt lat="43.5307" lon="5.61949">
        <ele>795</ele>
        <time>2022-10-19T08:46:35.410Z</time>
      </trkpt>
      <trkpt lat="43.5307" lon="5.61948">
        <ele>795</ele>
        <time>2022-10-19T08:46:36.410Z</time>
      </trkpt>
      <trkpt lat="43.53069" lon="5.61948">
        <ele>795</ele>
        <time>2022-10-19T08:46:37.410Z</time>
      </trkpt>
      <trkpt lat="43.53069" lon="5.61948">
        <ele>795</ele>
        <time>2022-10-19T08:46:38.410Z</time>
      </trkpt>
      <trkpt lat="43.53069" lon="5.61948">
        <ele>795</ele>
        <time>2022-10-19T08:46:39.410Z</time>
      </trkpt>
      <trkpt lat="43.53068" lon="5.61947">
        <ele>795</ele>
        <time>2022-10-19T08:46:40.410Z</time>
      </trkpt>
      <trkpt lat="43.53068" lon="5.61947">
        <ele>795</ele>
        <time>2022-10-19T08:46:41.410Z</time>
      </trkpt>
      <trkpt lat="43.53068" lon="5.61947">
        <ele>795</ele>
        <time>2022-10-19T08:46:42.410Z</time>
      </trkpt>
      <trkpt lat="43.53068" lon="5.61947">
        <ele>795</ele>
        <time>2022-10-19T08:46:43.410Z</time>
      </trkpt>
      <trkpt lat="43.53068" lon="5.61947">
        <ele>795</ele>
        <time>2022-10-19T08:46:44.410Z</time>
      </trkpt>
      <trkpt lat="43.53068" lon="5.61947">
        <ele>795</ele>
        <time>2022-10-19T08:46:45.410Z</time>
      </trkpt>
      <trkpt lat="43.53068" lon="5.61947">
        <ele>795</ele>
        <time>2022-10-19T08:46:46.410Z</time>
      </trkpt>
      <trkpt lat="43.53068" lon="5.61947">
        <ele>796</ele>
        <time>2022-10-19T08:46:47.410Z</time>
      </trkpt>
      <trkpt lat="43.53068" lon="5.61946">
        <ele>796</ele>
        <time>2022-10-19T08:46:48.410Z</time>
      </trkpt>
      <trkpt lat="43.53068" lon="5.61946">
        <ele>796</ele>
        <time>2022-10-19T08:46:49.410Z</time>
      </trkpt>
      <trkpt lat="43.53068" lon="5.61946">
        <ele>796</ele>
        <time>2022-10-19T08:46:50.410Z</time>
      </trkpt>
      <trkpt lat="43.53068" lon="5.61946">
        <ele>796</ele>
        <time>2022-10-19T08:46:51.410Z</time>
      </trkpt>
      <trkpt lat="43.53068" lon="5.61946">
        <ele>796</ele>
        <time>2022-10-19T08:46:52.410Z</time>
      </trkpt>
      <trkpt lat="43.53068" lon="5.61946">
        <ele>796</ele>
        <time>2022-10-19T08:46:53.410Z</time>
      </trkpt>
      <trkpt lat="43.53068" lon="5.61946">
        <ele>796</ele>
        <time>2022-10-19T08:46:54.410Z</time>
      </trkpt>
      <trkpt lat="43.53068" lon="5.61946">
        <ele>796</ele>
        <time>2022-10-19T08:46:55.410Z</time>
      </trkpt>
      <trkpt lat="43.53068" lon="5.61946">
        <ele>796</ele>
        <time>2022-10-19T08:46:56.410Z</time>
      </trkpt>
      <trkpt lat="43.53068" lon="5.61946">
        <ele>796</ele>
        <time>2022-10-19T08:46:57.410Z</time>
      </trkpt>
      <trkpt lat="43.53068" lon="5.61945">
        <ele>796</ele>
        <time>2022-10-19T08:46:58.410Z</time>
      </trkpt>
      <trkpt lat="43.53068" lon="5.61945">
        <ele>796</ele>
        <time>2022-10-19T08:46:59.410Z</time>
      </trkpt>
      <trkpt lat="43.53068" lon="5.61945">
        <ele>796</ele>
        <time>2022-10-19T08:47:00.410Z</time>
      </trkpt>
      <trkpt lat="43.53069" lon="5.61945">
        <ele>796</ele>
        <time>2022-10-19T08:47:01.410Z</time>
      </trkpt>
      <trkpt lat="43.53069" lon="5.61945">
        <ele>796</ele>
        <time>2022-10-19T08:47:02.410Z</time>
      </trkpt>
      <trkpt lat="43.53068" lon="5.61945">
        <ele>796</ele>
        <time>2022-10-19T08:47:03.410Z</time>
      </trkpt>
      <trkpt lat="43.53069" lon="5.61945">
        <ele>796</ele>
        <time>2022-10-19T08:47:04.410Z</time>
      </trkpt>
      <trkpt lat="43.53069" lon="5.61945">
        <ele>796</ele>
        <time>2022-10-19T08:47:05.410Z</time>
      </trkpt>
      <trkpt lat="43.53069" lon="5.61945">
        <ele>796</ele>
        <time>2022-10-19T08:47:06.410Z</time>
      </trkpt>
      <trkpt lat="43.53069" lon="5.61945">
        <ele>796</ele>
        <time>2022-10-19T08:47:07.410Z</time>
      </trkpt>
      <trkpt lat="43.53069" lon="5.61945">
        <ele>796</ele>
        <time>2022-10-19T08:47:08.410Z</time>
      </trkpt>
      <trkpt lat="43.53069" lon="5.61945">
        <ele>796</ele>
        <time>2022-10-19T08:47:09.410Z</time>
      </trkpt>
      <trkpt lat="43.53069" lon="5.61945">
        <ele>796</ele>
        <time>2022-10-19T08:47:10.410Z</time>
      </trkpt>
      <trkpt lat="43.53069" lon="5.61945">
        <ele>796</ele>
        <time>2022-10-19T08:47:11.410Z</time>
      </trkpt>
      <trkpt lat="43.53069" lon="5.61945">
        <ele>796</ele>
        <time>2022-10-19T08:47:12.410Z</time>
      </trkpt>
      <trkpt lat="43.53069" lon="5.61945">
        <ele>796</ele>
        <time>2022-10-19T08:47:13.410Z</time>
      </trkpt>
      <trkpt lat="43.53069" lon="5.61945">
        <ele>796</ele>
        <time>2022-10-19T08:47:14.410Z</time>
      </trkpt>
      <trkpt lat="43.53069" lon="5.61945">
        <ele>796</ele>
        <time>2022-10-19T08:47:15.410Z</time>
      </trkpt>
      <trkpt lat="43.53069" lon="5.61945">
        <ele>796</ele>
        <time>2022-10-19T08:47:16.410Z</time>
      </trkpt>
      <trkpt lat="43.53069" lon="5.61945">
        <ele>796</ele>
        <time>2022-10-19T08:47:17.410Z</time>
      </trkpt>
      <trkpt lat="43.53069" lon="5.61945">
        <ele>796</ele>
        <time>2022-10-19T08:47:18.410Z</time>
      </trkpt>
      <trkpt lat="43.53069" lon="5.61945">
        <ele>796</ele>
        <time>2022-10-19T08:47:19.410Z</time>
      </trkpt>
      <trkpt lat="43.53069" lon="5.61945">
        <ele>796</ele>
        <time>2022-10-19T08:47:20.410Z</time>
      </trkpt>
      <trkpt lat="43.53069" lon="5.61945">
        <ele>796</ele>
        <time>2022-10-19T08:47:21.410Z</time>
      </trkpt>
      <trkpt lat="43.53069" lon="5.61945">
        <ele>796</ele>
        <time>2022-10-19T08:47:22.410Z</time>
      </trkpt>
      <trkpt lat="43.53069" lon="5.61945">
        <ele>796</ele>
        <time>2022-10-19T08:47:23.410Z</time>
      </trkpt>
      <trkpt lat="43.53069" lon="5.61945">
        <ele>796</ele>
        <time>2022-10-19T08:47:24.410Z</time>
      </trkpt>
      <trkpt lat="43.53069" lon="5.61944">
        <ele>796</ele>
        <time>2022-10-19T08:47:25.410Z</time>
      </trkpt>
      <trkpt lat="43.53069" lon="5.61945">
        <ele>796</ele>
        <time>2022-10-19T08:47:26.410Z</time>
      </trkpt>
      <trkpt lat="43.53069" lon="5.61945">
        <ele>796</ele>
        <time>2022-10-19T08:47:27.410Z</time>
      </trkpt>
      <trkpt lat="43.53069" lon="5.61945">
        <ele>796</ele>
        <time>2022-10-19T08:47:28.410Z</time>
      </trkpt>
      <trkpt lat="43.53069" lon="5.61944">
        <ele>796</ele>
        <time>2022-10-19T08:47:29.410Z</time>
      </trkpt>
      <trkpt lat="43.53069" lon="5.61944">
        <ele>796</ele>
        <time>2022-10-19T08:47:30.410Z</time>
      </trkpt>
      <trkpt lat="43.53069" lon="5.61944">
        <ele>796</ele>
        <time>2022-10-19T08:47:31.410Z</time>
      </trkpt>
      <trkpt lat="43.53069" lon="5.61944">
        <ele>796</ele>
        <time>2022-10-19T08:47:32.410Z</time>
      </trkpt>
      <trkpt lat="43.53069" lon="5.61944">
        <ele>796</ele>
        <time>2022-10-19T08:47:33.410Z</time>
      </trkpt>
      <trkpt lat="43.53069" lon="5.61944">
        <ele>796</ele>
        <time>2022-10-19T08:47:34.410Z</time>
      </trkpt>
      <trkpt lat="43.53069" lon="5.61944">
        <ele>796</ele>
        <time>2022-10-19T08:47:35.410Z</time>
      </trkpt>
      <trkpt lat="43.53069" lon="5.61944">
        <ele>796</ele>
        <time>2022-10-19T08:47:36.410Z</time>
      </trkpt>
      <trkpt lat="43.53069" lon="5.61944">
        <ele>796</ele>
        <time>2022-10-19T08:47:37.410Z</time>
      </trkpt>
      <trkpt lat="43.53069" lon="5.61944">
        <ele>796</ele>
        <time>2022-10-19T08:47:38.410Z</time>
      </trkpt>
      <trkpt lat="43.53069" lon="5.61944">
        <ele>796</ele>
        <time>2022-10-19T08:47:39.410Z</time>
      </trkpt>
      <trkpt lat="43.53069" lon="5.61944">
        <ele>796</ele>
        <time>2022-10-19T08:47:40.410Z</time>
      </trkpt>
      <trkpt lat="43.53069" lon="5.61944">
        <ele>796</ele>
        <time>2022-10-19T08:47:41.410Z</time>
      </trkpt>
      <trkpt lat="43.53069" lon="5.61944">
        <ele>796</ele>
        <time>2022-10-19T08:47:42.410Z</time>
      </trkpt>
      <trkpt lat="43.53069" lon="5.61944">
        <ele>796</ele>
        <time>2022-10-19T08:47:43.410Z</time>
      </trkpt>
      <trkpt lat="43.53069" lon="5.61944">
        <ele>796</ele>
        <time>2022-10-19T08:47:44.410Z</time>
      </trkpt>
      <trkpt lat="43.53069" lon="5.61944">
        <ele>796</ele>
        <time>2022-10-19T08:47:45.410Z</time>
      </trkpt>
      <trkpt lat="43.53068" lon="5.61944">
        <ele>796</ele>
        <time>2022-10-19T08:47:46.410Z</time>
      </trkpt>
      <trkpt lat="43.53068" lon="5.61944">
        <ele>795</ele>
        <time>2022-10-19T08:47:47.410Z</time>
      </trkpt>
      <trkpt lat="43.53068" lon="5.61943">
        <ele>796</ele>
        <time>2022-10-19T08:47:48.410Z</time>
      </trkpt>
      <trkpt lat="43.53068" lon="5.61943">
        <ele>796</ele>
        <time>2022-10-19T08:47:49.410Z</time>
      </trkpt>
      <trkpt lat="43.53068" lon="5.61942">
        <ele>796</ele>
        <time>2022-10-19T08:47:50.410Z</time>
      </trkpt>
      <trkpt lat="43.53068" lon="5.61942">
        <ele>796</ele>
        <time>2022-10-19T08:47:51.410Z</time>
      </trkpt>
      <trkpt lat="43.53068" lon="5.61942">
        <ele>796</ele>
        <time>2022-10-19T08:47:52.410Z</time>
      </trkpt>
      <trkpt lat="43.53068" lon="5.61941">
        <ele>796</ele>
        <time>2022-10-19T08:47:53.410Z</time>
      </trkpt>
      <trkpt lat="43.53068" lon="5.61941">
        <ele>796</ele>
        <time>2022-10-19T08:47:54.410Z</time>
      </trkpt>
      <trkpt lat="43.53069" lon="5.61941">
        <ele>796</ele>
        <time>2022-10-19T08:47:55.410Z</time>
      </trkpt>
      <trkpt lat="43.53069" lon="5.61941">
        <ele>796</ele>
        <time>2022-10-19T08:47:56.410Z</time>
      </trkpt>
      <trkpt lat="43.53069" lon="5.6194">
        <ele>796</ele>
        <time>2022-10-19T08:47:57.410Z</time>
      </trkpt>
      <trkpt lat="43.53069" lon="5.6194">
        <ele>796</ele>
        <time>2022-10-19T08:47:58.410Z</time>
      </trkpt>
      <trkpt lat="43.53069" lon="5.6194">
        <ele>796</ele>
        <time>2022-10-19T08:47:59.410Z</time>
      </trkpt>
      <trkpt lat="43.53069" lon="5.6194">
        <ele>796</ele>
        <time>2022-10-19T08:48:00.410Z</time>
      </trkpt>
      <trkpt lat="43.53069" lon="5.61939">
        <ele>796</ele>
        <time>2022-10-19T08:48:01.410Z</time>
      </trkpt>
      <trkpt lat="43.53069" lon="5.61939">
        <ele>796</ele>
        <time>2022-10-19T08:48:02.410Z</time>
      </trkpt>
      <trkpt lat="43.53069" lon="5.61939">
        <ele>796</ele>
        <time>2022-10-19T08:48:03.410Z</time>
      </trkpt>
      <trkpt lat="43.53069" lon="5.61938">
        <ele>796</ele>
        <time>2022-10-19T08:48:04.410Z</time>
      </trkpt>
      <trkpt lat="43.5307" lon="5.61938">
        <ele>797</ele>
        <time>2022-10-19T08:48:05.410Z</time>
      </trkpt>
      <trkpt lat="43.5307" lon="5.61938">
        <ele>797</ele>
        <time>2022-10-19T08:48:06.410Z</time>
      </trkpt>
      <trkpt lat="43.5307" lon="5.61938">
        <ele>797</ele>
        <time>2022-10-19T08:48:07.410Z</time>
      </trkpt>
      <trkpt lat="43.5307" lon="5.61938">
        <ele>797</ele>
        <time>2022-10-19T08:48:08.410Z</time>
      </trkpt>
      <trkpt lat="43.5307" lon="5.61937">
        <ele>797</ele>
        <time>2022-10-19T08:48:09.410Z</time>
      </trkpt>
      <trkpt lat="43.5307" lon="5.61937">
        <ele>797</ele>
        <time>2022-10-19T08:48:10.410Z</time>
      </trkpt>
      <trkpt lat="43.5307" lon="5.61937">
        <ele>797</ele>
        <time>2022-10-19T08:48:11.410Z</time>
      </trkpt>
      <trkpt lat="43.5307" lon="5.61937">
        <ele>797</ele>
        <time>2022-10-19T08:48:12.410Z</time>
      </trkpt>
      <trkpt lat="43.5307" lon="5.61936">
        <ele>797</ele>
        <time>2022-10-19T08:48:13.410Z</time>
      </trkpt>
      <trkpt lat="43.5307" lon="5.61935">
        <ele>798</ele>
        <time>2022-10-19T08:48:14.410Z</time>
      </trkpt>
      <trkpt lat="43.5307" lon="5.61935">
        <ele>798</ele>
        <time>2022-10-19T08:48:15.410Z</time>
      </trkpt>
      <trkpt lat="43.5307" lon="5.61935">
        <ele>798</ele>
        <time>2022-10-19T08:48:16.410Z</time>
      </trkpt>
      <trkpt lat="43.5307" lon="5.61935">
        <ele>798</ele>
        <time>2022-10-19T08:48:17.410Z</time>
      </trkpt>
      <trkpt lat="43.5307" lon="5.61935">
        <ele>798</ele>
        <time>2022-10-19T08:48:18.410Z</time>
      </trkpt>
      <trkpt lat="43.53069" lon="5.61935">
        <ele>798</ele>
        <time>2022-10-19T08:48:19.410Z</time>
      </trkpt>
      <trkpt lat="43.53069" lon="5.61935">
        <ele>799</ele>
        <time>2022-10-19T08:48:20.410Z</time>
      </trkpt>
      <trkpt lat="43.53068" lon="5.61935">
        <ele>799</ele>
        <time>2022-10-19T08:48:21.410Z</time>
      </trkpt>
      <trkpt lat="43.53068" lon="5.61935">
        <ele>799</ele>
        <time>2022-10-19T08:48:22.410Z</time>
      </trkpt>
      <trkpt lat="43.53067" lon="5.61935">
        <ele>799</ele>
        <time>2022-10-19T08:48:23.410Z</time>
      </trkpt>
      <trkpt lat="43.53067" lon="5.61935">
        <ele>799</ele>
        <time>2022-10-19T08:48:24.410Z</time>
      </trkpt>
      <trkpt lat="43.53066" lon="5.61935">
        <ele>799</ele>
        <time>2022-10-19T08:48:25.410Z</time>
      </trkpt>
      <trkpt lat="43.53066" lon="5.61934">
        <ele>800</ele>
        <time>2022-10-19T08:48:26.410Z</time>
      </trkpt>
      <trkpt lat="43.53066" lon="5.61934">
        <ele>800</ele>
        <time>2022-10-19T08:48:27.410Z</time>
      </trkpt>
      <trkpt lat="43.53066" lon="5.61933">
        <ele>800</ele>
        <time>2022-10-19T08:48:28.410Z</time>
      </trkpt>
      <trkpt lat="43.53066" lon="5.61933">
        <ele>800</ele>
        <time>2022-10-19T08:48:29.410Z</time>
      </trkpt>
      <trkpt lat="43.53066" lon="5.61933">
        <ele>800</ele>
        <time>2022-10-19T08:48:30.410Z</time>
      </trkpt>
      <trkpt lat="43.53066" lon="5.61933">
        <ele>800</ele>
        <time>2022-10-19T08:48:31.410Z</time>
      </trkpt>
      <trkpt lat="43.53067" lon="5.61932">
        <ele>800</ele>
        <time>2022-10-19T08:48:32.410Z</time>
      </trkpt>
      <trkpt lat="43.53067" lon="5.61932">
        <ele>800</ele>
        <time>2022-10-19T08:48:33.410Z</time>
      </trkpt>
      <trkpt lat="43.53067" lon="5.61932">
        <ele>800</ele>
        <time>2022-10-19T08:48:34.410Z</time>
      </trkpt>
      <trkpt lat="43.53067" lon="5.61931">
        <ele>801</ele>
        <time>2022-10-19T08:48:35.410Z</time>
      </trkpt>
      <trkpt lat="43.53067" lon="5.61931">
        <ele>801</ele>
        <time>2022-10-19T08:48:36.410Z</time>
      </trkpt>
      <trkpt lat="43.53067" lon="5.61931">
        <ele>801</ele>
        <time>2022-10-19T08:48:37.410Z</time>
      </trkpt>
      <trkpt lat="43.53067" lon="5.6193">
        <ele>801</ele>
        <time>2022-10-19T08:48:38.410Z</time>
      </trkpt>
      <trkpt lat="43.53067" lon="5.6193">
        <ele>802</ele>
        <time>2022-10-19T08:48:39.410Z</time>
      </trkpt>
      <trkpt lat="43.53067" lon="5.6193">
        <ele>802</ele>
        <time>2022-10-19T08:48:40.410Z</time>
      </trkpt>
      <trkpt lat="43.53067" lon="5.61929">
        <ele>802</ele>
        <time>2022-10-19T08:48:41.410Z</time>
      </trkpt>
      <trkpt lat="43.53067" lon="5.61929">
        <ele>802</ele>
        <time>2022-10-19T08:48:42.410Z</time>
      </trkpt>
      <trkpt lat="43.53066" lon="5.61929">
        <ele>802</ele>
        <time>2022-10-19T08:48:43.410Z</time>
      </trkpt>
      <trkpt lat="43.53066" lon="5.6193">
        <ele>803</ele>
        <time>2022-10-19T08:48:44.410Z</time>
      </trkpt>
      <trkpt lat="43.53065" lon="5.6193">
        <ele>803</ele>
        <time>2022-10-19T08:48:45.410Z</time>
      </trkpt>
      <trkpt lat="43.53065" lon="5.6193">
        <ele>803</ele>
        <time>2022-10-19T08:48:46.410Z</time>
      </trkpt>
      <trkpt lat="43.53064" lon="5.6193">
        <ele>803</ele>
        <time>2022-10-19T08:48:47.410Z</time>
      </trkpt>
      <trkpt lat="43.53064" lon="5.6193">
        <ele>803</ele>
        <time>2022-10-19T08:48:48.410Z</time>
      </trkpt>
      <trkpt lat="43.53064" lon="5.6193">
        <ele>803</ele>
        <time>2022-10-19T08:48:49.410Z</time>
      </trkpt>
      <trkpt lat="43.53064" lon="5.6193">
        <ele>804</ele>
        <time>2022-10-19T08:48:50.410Z</time>
      </trkpt>
      <trkpt lat="43.53064" lon="5.6193">
        <ele>804</ele>
        <time>2022-10-19T08:48:51.410Z</time>
      </trkpt>
      <trkpt lat="43.53064" lon="5.6193">
        <ele>804</ele>
        <time>2022-10-19T08:48:52.410Z</time>
      </trkpt>
      <trkpt lat="43.53064" lon="5.6193">
        <ele>804</ele>
        <time>2022-10-19T08:48:53.410Z</time>
      </trkpt>
      <trkpt lat="43.53064" lon="5.6193">
        <ele>804</ele>
        <time>2022-10-19T08:48:54.410Z</time>
      </trkpt>
      <trkpt lat="43.53064" lon="5.6193">
        <ele>804</ele>
        <time>2022-10-19T08:48:55.410Z</time>
      </trkpt>
      <trkpt lat="43.53064" lon="5.6193">
        <ele>804</ele>
        <time>2022-10-19T08:48:56.410Z</time>
      </trkpt>
      <trkpt lat="43.53064" lon="5.6193">
        <ele>804</ele>
        <time>2022-10-19T08:48:57.410Z</time>
      </trkpt>
      <trkpt lat="43.53064" lon="5.6193">
        <ele>804</ele>
        <time>2022-10-19T08:48:58.410Z</time>
      </trkpt>
      <trkpt lat="43.53064" lon="5.6193">
        <ele>804</ele>
        <time>2022-10-19T08:48:59.410Z</time>
      </trkpt>
      <trkpt lat="43.53064" lon="5.6193">
        <ele>804</ele>
        <time>2022-10-19T08:49:00.410Z</time>
      </trkpt>
      <trkpt lat="43.53064" lon="5.6193">
        <ele>804</ele>
        <time>2022-10-19T08:49:01.410Z</time>
      </trkpt>
      <trkpt lat="43.53064" lon="5.6193">
        <ele>805</ele>
        <time>2022-10-19T08:49:02.410Z</time>
      </trkpt>
      <trkpt lat="43.53064" lon="5.6193">
        <ele>805</ele>
        <time>2022-10-19T08:49:03.410Z</time>
      </trkpt>
      <trkpt lat="43.53063" lon="5.6193">
        <ele>805</ele>
        <time>2022-10-19T08:49:04.410Z</time>
      </trkpt>
      <trkpt lat="43.53063" lon="5.6193">
        <ele>805</ele>
        <time>2022-10-19T08:49:05.410Z</time>
      </trkpt>
      <trkpt lat="43.53063" lon="5.61929">
        <ele>805</ele>
        <time>2022-10-19T08:49:06.410Z</time>
      </trkpt>
      <trkpt lat="43.53062" lon="5.61929">
        <ele>805</ele>
        <time>2022-10-19T08:49:07.410Z</time>
      </trkpt>
      <trkpt lat="43.53062" lon="5.61929">
        <ele>805</ele>
        <time>2022-10-19T08:49:08.410Z</time>
      </trkpt>
      <trkpt lat="43.53061" lon="5.61929">
        <ele>805</ele>
        <time>2022-10-19T08:49:09.410Z</time>
      </trkpt>
      <trkpt lat="43.53061" lon="5.61928">
        <ele>805</ele>
        <time>2022-10-19T08:49:10.410Z</time>
      </trkpt>
      <trkpt lat="43.5306" lon="5.61928">
        <ele>805</ele>
        <time>2022-10-19T08:49:11.410Z</time>
      </trkpt>
      <trkpt lat="43.5306" lon="5.61928">
        <ele>805</ele>
        <time>2022-10-19T08:49:12.410Z</time>
      </trkpt>
      <trkpt lat="43.5306" lon="5.61927">
        <ele>806</ele>
        <time>2022-10-19T08:49:13.410Z</time>
      </trkpt>
      <trkpt lat="43.5306" lon="5.61926">
        <ele>806</ele>
        <time>2022-10-19T08:49:14.410Z</time>
      </trkpt>
      <trkpt lat="43.5306" lon="5.61926">
        <ele>806</ele>
        <time>2022-10-19T08:49:15.410Z</time>
      </trkpt>
      <trkpt lat="43.5306" lon="5.61926">
        <ele>806</ele>
        <time>2022-10-19T08:49:16.410Z</time>
      </trkpt>
      <trkpt lat="43.5306" lon="5.61926">
        <ele>806</ele>
        <time>2022-10-19T08:49:17.410Z</time>
      </trkpt>
      <trkpt lat="43.5306" lon="5.61925">
        <ele>806</ele>
        <time>2022-10-19T08:49:18.410Z</time>
      </trkpt>
      <trkpt lat="43.53059" lon="5.61925">
        <ele>806</ele>
        <time>2022-10-19T08:49:19.410Z</time>
      </trkpt>
      <trkpt lat="43.53059" lon="5.61925">
        <ele>806</ele>
        <time>2022-10-19T08:49:20.410Z</time>
      </trkpt>
      <trkpt lat="43.53058" lon="5.61925">
        <ele>807</ele>
        <time>2022-10-19T08:49:21.410Z</time>
      </trkpt>
      <trkpt lat="43.53058" lon="5.61925">
        <ele>807</ele>
        <time>2022-10-19T08:49:22.410Z</time>
      </trkpt>
      <trkpt lat="43.53057" lon="5.61925">
        <ele>807</ele>
        <time>2022-10-19T08:49:23.410Z</time>
      </trkpt>
      <trkpt lat="43.53057" lon="5.61924">
        <ele>807</ele>
        <time>2022-10-19T08:49:24.410Z</time>
      </trkpt>
      <trkpt lat="43.53057" lon="5.61924">
        <ele>807</ele>
        <time>2022-10-19T08:49:25.410Z</time>
      </trkpt>
      <trkpt lat="43.53057" lon="5.61924">
        <ele>807</ele>
        <time>2022-10-19T08:49:26.410Z</time>
      </trkpt>
      <trkpt lat="43.53057" lon="5.61924">
        <ele>807</ele>
        <time>2022-10-19T08:49:27.410Z</time>
      </trkpt>
      <trkpt lat="43.53056" lon="5.61924">
        <ele>807</ele>
        <time>2022-10-19T08:49:28.410Z</time>
      </trkpt>
      <trkpt lat="43.53056" lon="5.61924">
        <ele>807</ele>
        <time>2022-10-19T08:49:29.410Z</time>
      </trkpt>
      <trkpt lat="43.53056" lon="5.61924">
        <ele>807</ele>
        <time>2022-10-19T08:49:30.410Z</time>
      </trkpt>
      <trkpt lat="43.53056" lon="5.61924">
        <ele>807</ele>
        <time>2022-10-19T08:49:31.410Z</time>
      </trkpt>
      <trkpt lat="43.53056" lon="5.61924">
        <ele>807</ele>
        <time>2022-10-19T08:49:32.410Z</time>
      </trkpt>
      <trkpt lat="43.53056" lon="5.61924">
        <ele>808</ele>
        <time>2022-10-19T08:49:33.410Z</time>
      </trkpt>
      <trkpt lat="43.53056" lon="5.61923">
        <ele>808</ele>
        <time>2022-10-19T08:49:34.410Z</time>
      </trkpt>
      <trkpt lat="43.53056" lon="5.61923">
        <ele>808</ele>
        <time>2022-10-19T08:49:35.410Z</time>
      </trkpt>
      <trkpt lat="43.53056" lon="5.61923">
        <ele>808</ele>
        <time>2022-10-19T08:49:36.410Z</time>
      </trkpt>
      <trkpt lat="43.53056" lon="5.61923">
        <ele>808</ele>
        <time>2022-10-19T08:49:37.410Z</time>
      </trkpt>
      <trkpt lat="43.53056" lon="5.61923">
        <ele>808</ele>
        <time>2022-10-19T08:49:38.410Z</time>
      </trkpt>
      <trkpt lat="43.53056" lon="5.61923">
        <ele>808</ele>
        <time>2022-10-19T08:49:39.410Z</time>
      </trkpt>
      <trkpt lat="43.53056" lon="5.61923">
        <ele>808</ele>
        <time>2022-10-19T08:49:40.410Z</time>
      </trkpt>
      <trkpt lat="43.53056" lon="5.61923">
        <ele>808</ele>
        <time>2022-10-19T08:49:41.410Z</time>
      </trkpt>
      <trkpt lat="43.53056" lon="5.61923">
        <ele>808</ele>
        <time>2022-10-19T08:49:42.410Z</time>
      </trkpt>
      <trkpt lat="43.53056" lon="5.61923">
        <ele>808</ele>
        <time>2022-10-19T08:49:43.410Z</time>
      </trkpt>
      <trkpt lat="43.53056" lon="5.61923">
        <ele>808</ele>
        <time>2022-10-19T08:49:44.410Z</time>
      </trkpt>
      <trkpt lat="43.53056" lon="5.61923">
        <ele>808</ele>
        <time>2022-10-19T08:49:45.410Z</time>
      </trkpt>
      <trkpt lat="43.53056" lon="5.61923">
        <ele>808</ele>
        <time>2022-10-19T08:49:46.410Z</time>
      </trkpt>
      <trkpt lat="43.53056" lon="5.61923">
        <ele>808</ele>
        <time>2022-10-19T08:49:47.410Z</time>
      </trkpt>
      <trkpt lat="43.53056" lon="5.61923">
        <ele>808</ele>
        <time>2022-10-19T08:49:48.410Z</time>
      </trkpt>
      <trkpt lat="43.53056" lon="5.61923">
        <ele>808</ele>
        <time>2022-10-19T08:49:49.410Z</time>
      </trkpt>
      <trkpt lat="43.53056" lon="5.61923">
        <ele>808</ele>
        <time>2022-10-19T08:49:50.410Z</time>
      </trkpt>
      <trkpt lat="43.53056" lon="5.61923">
        <ele>808</ele>
        <time>2022-10-19T08:49:51.410Z</time>
      </trkpt>
      <trkpt lat="43.53056" lon="5.61923">
        <ele>808</ele>
        <time>2022-10-19T08:49:52.410Z</time>
      </trkpt>
      <trkpt lat="43.53056" lon="5.61923">
        <ele>808</ele>
        <time>2022-10-19T08:49:53.410Z</time>
      </trkpt>
      <trkpt lat="43.53056" lon="5.61923">
        <ele>808</ele>
        <time>2022-10-19T08:49:54.410Z</time>
      </trkpt>
      <trkpt lat="43.53056" lon="5.61923">
        <ele>808</ele>
        <time>2022-10-19T08:49:55.410Z</time>
      </trkpt>
      <trkpt lat="43.53056" lon="5.61923">
        <ele>808</ele>
        <time>2022-10-19T08:49:56.410Z</time>
      </trkpt>
      <trkpt lat="43.53056" lon="5.61923">
        <ele>808</ele>
        <time>2022-10-19T08:49:57.410Z</time>
      </trkpt>
      <trkpt lat="43.53056" lon="5.61923">
        <ele>808</ele>
        <time>2022-10-19T08:49:58.410Z</time>
      </trkpt>
      <trkpt lat="43.53056" lon="5.61923">
        <ele>808</ele>
        <time>2022-10-19T08:49:59.410Z</time>
      </trkpt>
      <trkpt lat="43.53056" lon="5.61923">
        <ele>808</ele>
        <time>2022-10-19T08:50:00.410Z</time>
      </trkpt>
      <trkpt lat="43.53056" lon="5.61923">
        <ele>808</ele>
        <time>2022-10-19T08:50:01.410Z</time>
      </trkpt>
      <trkpt lat="43.53056" lon="5.61923">
        <ele>808</ele>
        <time>2022-10-19T08:50:02.410Z</time>
      </trkpt>
      <trkpt lat="43.53056" lon="5.61923">
        <ele>808</ele>
        <time>2022-10-19T08:50:03.410Z</time>
      </trkpt>
      <trkpt lat="43.53056" lon="5.61923">
        <ele>808</ele>
        <time>2022-10-19T08:50:04.410Z</time>
      </trkpt>
      <trkpt lat="43.53056" lon="5.61923">
        <ele>808</ele>
        <time>2022-10-19T08:50:05.410Z</time>
      </trkpt>
      <trkpt lat="43.53056" lon="5.61923">
        <ele>808</ele>
        <time>2022-10-19T08:50:06.410Z</time>
      </trkpt>
      <trkpt lat="43.53056" lon="5.61923">
        <ele>808</ele>
        <time>2022-10-19T08:50:07.410Z</time>
      </trkpt>
      <trkpt lat="43.53056" lon="5.61923">
        <ele>808</ele>
        <time>2022-10-19T08:50:08.410Z</time>
      </trkpt>
      <trkpt lat="43.53056" lon="5.61923">
        <ele>808</ele>
        <time>2022-10-19T08:50:09.410Z</time>
      </trkpt>
      <trkpt lat="43.53056" lon="5.61923">
        <ele>808</ele>
        <time>2022-10-19T08:50:10.410Z</time>
      </trkpt>
      <trkpt lat="43.53056" lon="5.61923">
        <ele>808</ele>
        <time>2022-10-19T08:50:11.410Z</time>
      </trkpt>
      <trkpt lat="43.53056" lon="5.61923">
        <ele>808</ele>
        <time>2022-10-19T08:50:12.410Z</time>
      </trkpt>
      <trkpt lat="43.53056" lon="5.61923">
        <ele>808</ele>
        <time>2022-10-19T08:50:13.410Z</time>
      </trkpt>
      <trkpt lat="43.53056" lon="5.61923">
        <ele>808</ele>
        <time>2022-10-19T08:50:14.410Z</time>
      </trkpt>
      <trkpt lat="43.53056" lon="5.61923">
        <ele>808</ele>
        <time>2022-10-19T08:50:15.410Z</time>
      </trkpt>
      <trkpt lat="43.53056" lon="5.61923">
        <ele>808</ele>
        <time>2022-10-19T08:50:16.410Z</time>
      </trkpt>
      <trkpt lat="43.53056" lon="5.61923">
        <ele>808</ele>
        <time>2022-10-19T08:50:17.410Z</time>
      </trkpt>
      <trkpt lat="43.53056" lon="5.61923">
        <ele>808</ele>
        <time>2022-10-19T08:50:18.410Z</time>
      </trkpt>
      <trkpt lat="43.53056" lon="5.61923">
        <ele>808</ele>
        <time>2022-10-19T08:50:19.410Z</time>
      </trkpt>
      <trkpt lat="43.53056" lon="5.61923">
        <ele>808</ele>
        <time>2022-10-19T08:50:20.410Z</time>
      </trkpt>
      <trkpt lat="43.53056" lon="5.61923">
        <ele>808</ele>
        <time>2022-10-19T08:50:21.410Z</time>
      </trkpt>
      <trkpt lat="43.53056" lon="5.61923">
        <ele>808</ele>
        <time>2022-10-19T08:50:22.410Z</time>
      </trkpt>
      <trkpt lat="43.53056" lon="5.61923">
        <ele>808</ele>
        <time>2022-10-19T08:50:23.410Z</time>
      </trkpt>
      <trkpt lat="43.53056" lon="5.61923">
        <ele>808</ele>
        <time>2022-10-19T08:50:24.410Z</time>
      </trkpt>
      <trkpt lat="43.53056" lon="5.61923">
        <ele>808</ele>
        <time>2022-10-19T08:50:25.410Z</time>
      </trkpt>
      <trkpt lat="43.53056" lon="5.61923">
        <ele>808</ele>
        <time>2022-10-19T08:50:26.410Z</time>
      </trkpt>
      <trkpt lat="43.53056" lon="5.61923">
        <ele>808</ele>
        <time>2022-10-19T08:50:27.410Z</time>
      </trkpt>
      <trkpt lat="43.53056" lon="5.61923">
        <ele>808</ele>
        <time>2022-10-19T08:50:28.410Z</time>
      </trkpt>
      <trkpt lat="43.53056" lon="5.61923">
        <ele>808</ele>
        <time>2022-10-19T08:50:29.410Z</time>
      </trkpt>
      <trkpt lat="43.53056" lon="5.61923">
        <ele>808</ele>
        <time>2022-10-19T08:50:30.410Z</time>
      </trkpt>
      <trkpt lat="43.53056" lon="5.61923">
        <ele>808</ele>
        <time>2022-10-19T08:50:31.410Z</time>
      </trkpt>
      <trkpt lat="43.53056" lon="5.61923">
        <ele>808</ele>
        <time>2022-10-19T08:50:32.410Z</time>
      </trkpt>
      <trkpt lat="43.53056" lon="5.61923">
        <ele>808</ele>
        <time>2022-10-19T08:50:33.410Z</time>
      </trkpt>
      <trkpt lat="43.53056" lon="5.61923">
        <ele>808</ele>
        <time>2022-10-19T08:50:34.410Z</time>
      </trkpt>
      <trkpt lat="43.53056" lon="5.61923">
        <ele>808</ele>
        <time>2022-10-19T08:50:35.410Z</time>
      </trkpt>
      <trkpt lat="43.53056" lon="5.61923">
        <ele>808</ele>
        <time>2022-10-19T08:50:36.410Z</time>
      </trkpt>
      <trkpt lat="43.53056" lon="5.61923">
        <ele>808</ele>
        <time>2022-10-19T08:50:37.410Z</time>
      </trkpt>
      <trkpt lat="43.53056" lon="5.61923">
        <ele>808</ele>
        <time>2022-10-19T08:50:38.410Z</time>
      </trkpt>
      <trkpt lat="43.53056" lon="5.61923">
        <ele>808</ele>
        <time>2022-10-19T08:50:39.410Z</time>
      </trkpt>
      <trkpt lat="43.53055" lon="5.61923">
        <ele>808</ele>
        <time>2022-10-19T08:50:40.410Z</time>
      </trkpt>
      <trkpt lat="43.53055" lon="5.61923">
        <ele>808</ele>
        <time>2022-10-19T08:50:41.410Z</time>
      </trkpt>
      <trkpt lat="43.53055" lon="5.61923">
        <ele>808</ele>
        <time>2022-10-19T08:50:42.410Z</time>
      </trkpt>
      <trkpt lat="43.53055" lon="5.61923">
        <ele>808</ele>
        <time>2022-10-19T08:50:43.410Z</time>
      </trkpt>
      <trkpt lat="43.53055" lon="5.61922">
        <ele>808</ele>
        <time>2022-10-19T08:50:44.410Z</time>
      </trkpt>
      <trkpt lat="43.53055" lon="5.61922">
        <ele>808</ele>
        <time>2022-10-19T08:50:45.410Z</time>
      </trkpt>
      <trkpt lat="43.53055" lon="5.61922">
        <ele>808</ele>
        <time>2022-10-19T08:50:46.410Z</time>
      </trkpt>
      <trkpt lat="43.53055" lon="5.61922">
        <ele>808</ele>
        <time>2022-10-19T08:50:47.410Z</time>
      </trkpt>
      <trkpt lat="43.53054" lon="5.61922">
        <ele>808</ele>
        <time>2022-10-19T08:50:48.410Z</time>
      </trkpt>
      <trkpt lat="43.53054" lon="5.61921">
        <ele>808</ele>
        <time>2022-10-19T08:50:49.410Z</time>
      </trkpt>
      <trkpt lat="43.53054" lon="5.61921">
        <ele>808</ele>
        <time>2022-10-19T08:50:50.410Z</time>
      </trkpt>
      <trkpt lat="43.53053" lon="5.61922">
        <ele>808</ele>
        <time>2022-10-19T08:50:51.410Z</time>
      </trkpt>
      <trkpt lat="43.53053" lon="5.61922">
        <ele>808</ele>
        <time>2022-10-19T08:50:52.410Z</time>
      </trkpt>
      <trkpt lat="43.53053" lon="5.61922">
        <ele>808</ele>
        <time>2022-10-19T08:50:53.410Z</time>
      </trkpt>
      <trkpt lat="43.53052" lon="5.61922">
        <ele>808</ele>
        <time>2022-10-19T08:50:54.410Z</time>
      </trkpt>
      <trkpt lat="43.53052" lon="5.61922">
        <ele>808</ele>
        <time>2022-10-19T08:50:55.410Z</time>
      </trkpt>
      <trkpt lat="43.53051" lon="5.61922">
        <ele>808</ele>
        <time>2022-10-19T08:50:56.410Z</time>
      </trkpt>
      <trkpt lat="43.53051" lon="5.61921">
        <ele>808</ele>
        <time>2022-10-19T08:50:57.410Z</time>
      </trkpt>
      <trkpt lat="43.53051" lon="5.61921">
        <ele>808</ele>
        <time>2022-10-19T08:50:58.410Z</time>
      </trkpt>
      <trkpt lat="43.53051" lon="5.61921">
        <ele>808</ele>
        <time>2022-10-19T08:50:59.410Z</time>
      </trkpt>
      <trkpt lat="43.53051" lon="5.61921">
        <ele>808</ele>
        <time>2022-10-19T08:51:00.410Z</time>
      </trkpt>
      <trkpt lat="43.53051" lon="5.61921">
        <ele>808</ele>
        <time>2022-10-19T08:51:01.410Z</time>
      </trkpt>
      <trkpt lat="43.5305" lon="5.61921">
        <ele>808</ele>
        <time>2022-10-19T08:51:02.410Z</time>
      </trkpt>
      <trkpt lat="43.5305" lon="5.61921">
        <ele>808</ele>
        <time>2022-10-19T08:51:03.410Z</time>
      </trkpt>
      <trkpt lat="43.5305" lon="5.61921">
        <ele>808</ele>
        <time>2022-10-19T08:51:04.410Z</time>
      </trkpt>
      <trkpt lat="43.5305" lon="5.61921">
        <ele>808</ele>
        <time>2022-10-19T08:51:05.410Z</time>
      </trkpt>
      <trkpt lat="43.5305" lon="5.61921">
        <ele>808</ele>
        <time>2022-10-19T08:51:06.410Z</time>
      </trkpt>
      <trkpt lat="43.5305" lon="5.61921">
        <ele>808</ele>
        <time>2022-10-19T08:51:07.410Z</time>
      </trkpt>
      <trkpt lat="43.5305" lon="5.61921">
        <ele>808</ele>
        <time>2022-10-19T08:51:08.410Z</time>
      </trkpt>
      <trkpt lat="43.5305" lon="5.61921">
        <ele>808</ele>
        <time>2022-10-19T08:51:09.410Z</time>
      </trkpt>
      <trkpt lat="43.5305" lon="5.61921">
        <ele>808</ele>
        <time>2022-10-19T08:51:10.410Z</time>
      </trkpt>
      <trkpt lat="43.5305" lon="5.61921">
        <ele>808</ele>
        <time>2022-10-19T08:51:11.410Z</time>
      </trkpt>
      <trkpt lat="43.5305" lon="5.61921">
        <ele>808</ele>
        <time>2022-10-19T08:51:12.410Z</time>
      </trkpt>
      <trkpt lat="43.53051" lon="5.61921">
        <ele>808</ele>
        <time>2022-10-19T08:51:13.410Z</time>
      </trkpt>
      <trkpt lat="43.53051" lon="5.6192">
        <ele>808</ele>
        <time>2022-10-19T08:51:14.410Z</time>
      </trkpt>
      <trkpt lat="43.53051" lon="5.61919">
        <ele>808</ele>
        <time>2022-10-19T08:51:15.410Z</time>
      </trkpt>
      <trkpt lat="43.53051" lon="5.61919">
        <ele>808</ele>
        <time>2022-10-19T08:51:16.410Z</time>
      </trkpt>
      <trkpt lat="43.53051" lon="5.61919">
        <ele>808</ele>
        <time>2022-10-19T08:51:17.410Z</time>
      </trkpt>
      <trkpt lat="43.53051" lon="5.61919">
        <ele>809</ele>
        <time>2022-10-19T08:51:18.410Z</time>
      </trkpt>
      <trkpt lat="43.53051" lon="5.61919">
        <ele>809</ele>
        <time>2022-10-19T08:51:19.410Z</time>
      </trkpt>
      <trkpt lat="43.53051" lon="5.61919">
        <ele>809</ele>
        <time>2022-10-19T08:51:20.410Z</time>
      </trkpt>
      <trkpt lat="43.53051" lon="5.6192">
        <ele>809</ele>
        <time>2022-10-19T08:51:21.410Z</time>
      </trkpt>
      <trkpt lat="43.5305" lon="5.6192">
        <ele>809</ele>
        <time>2022-10-19T08:51:22.410Z</time>
      </trkpt>
      <trkpt lat="43.5305" lon="5.6192">
        <ele>809</ele>
        <time>2022-10-19T08:51:23.410Z</time>
      </trkpt>
      <trkpt lat="43.5305" lon="5.6192">
        <ele>809</ele>
        <time>2022-10-19T08:51:24.410Z</time>
      </trkpt>
      <trkpt lat="43.53049" lon="5.6192">
        <ele>809</ele>
        <time>2022-10-19T08:51:25.410Z</time>
      </trkpt>
      <trkpt lat="43.53049" lon="5.6192">
        <ele>809</ele>
        <time>2022-10-19T08:51:26.410Z</time>
      </trkpt>
      <trkpt lat="43.53048" lon="5.6192">
        <ele>809</ele>
        <time>2022-10-19T08:51:27.410Z</time>
      </trkpt>
      <trkpt lat="43.53048" lon="5.61921">
        <ele>809</ele>
        <time>2022-10-19T08:51:28.410Z</time>
      </trkpt>
      <trkpt lat="43.53048" lon="5.61921">
        <ele>809</ele>
        <time>2022-10-19T08:51:29.410Z</time>
      </trkpt>
      <trkpt lat="43.53048" lon="5.61921">
        <ele>809</ele>
        <time>2022-10-19T08:51:30.410Z</time>
      </trkpt>
      <trkpt lat="43.53047" lon="5.61921">
        <ele>809</ele>
        <time>2022-10-19T08:51:31.410Z</time>
      </trkpt>
      <trkpt lat="43.53047" lon="5.61922">
        <ele>809</ele>
        <time>2022-10-19T08:51:32.410Z</time>
      </trkpt>
      <trkpt lat="43.53047" lon="5.61922">
        <ele>809</ele>
        <time>2022-10-19T08:51:33.410Z</time>
      </trkpt>
      <trkpt lat="43.53047" lon="5.61922">
        <ele>809</ele>
        <time>2022-10-19T08:51:34.410Z</time>
      </trkpt>
      <trkpt lat="43.53046" lon="5.61922">
        <ele>809</ele>
        <time>2022-10-19T08:51:35.410Z</time>
      </trkpt>
      <trkpt lat="43.53046" lon="5.61922">
        <ele>809</ele>
        <time>2022-10-19T08:51:36.410Z</time>
      </trkpt>
      <trkpt lat="43.53046" lon="5.61922">
        <ele>809</ele>
        <time>2022-10-19T08:51:37.410Z</time>
      </trkpt>
      <trkpt lat="43.53046" lon="5.61922">
        <ele>809</ele>
        <time>2022-10-19T08:51:38.410Z</time>
      </trkpt>
      <trkpt lat="43.53046" lon="5.61922">
        <ele>809</ele>
        <time>2022-10-19T08:51:39.410Z</time>
      </trkpt>
      <trkpt lat="43.53046" lon="5.61922">
        <ele>809</ele>
        <time>2022-10-19T08:51:40.410Z</time>
      </trkpt>
      <trkpt lat="43.53045" lon="5.61922">
        <ele>809</ele>
        <time>2022-10-19T08:51:41.410Z</time>
      </trkpt>
      <trkpt lat="43.53045" lon="5.61922">
        <ele>809</ele>
        <time>2022-10-19T08:51:42.410Z</time>
      </trkpt>
      <trkpt lat="43.53045" lon="5.61921">
        <ele>809</ele>
        <time>2022-10-19T08:51:43.410Z</time>
      </trkpt>
      <trkpt lat="43.53046" lon="5.61921">
        <ele>809</ele>
        <time>2022-10-19T08:51:44.410Z</time>
      </trkpt>
      <trkpt lat="43.53046" lon="5.61921">
        <ele>809</ele>
        <time>2022-10-19T08:51:45.410Z</time>
      </trkpt>
      <trkpt lat="43.53046" lon="5.61921">
        <ele>809</ele>
        <time>2022-10-19T08:51:46.410Z</time>
      </trkpt>
      <trkpt lat="43.53045" lon="5.61921">
        <ele>809</ele>
        <time>2022-10-19T08:51:47.410Z</time>
      </trkpt>
      <trkpt lat="43.53046" lon="5.61921">
        <ele>809</ele>
        <time>2022-10-19T08:51:48.410Z</time>
      </trkpt>
      <trkpt lat="43.53046" lon="5.61921">
        <ele>809</ele>
        <time>2022-10-19T08:51:49.410Z</time>
      </trkpt>
      <trkpt lat="43.53046" lon="5.61921">
        <ele>809</ele>
        <time>2022-10-19T08:51:50.410Z</time>
      </trkpt>
      <trkpt lat="43.53046" lon="5.61921">
        <ele>809</ele>
        <time>2022-10-19T08:51:51.410Z</time>
      </trkpt>
      <trkpt lat="43.53046" lon="5.61921">
        <ele>809</ele>
        <time>2022-10-19T08:51:52.410Z</time>
      </trkpt>
      <trkpt lat="43.53046" lon="5.6192">
        <ele>809</ele>
        <time>2022-10-19T08:51:53.410Z</time>
      </trkpt>
      <trkpt lat="43.53046" lon="5.6192">
        <ele>809</ele>
        <time>2022-10-19T08:51:54.410Z</time>
      </trkpt>
      <trkpt lat="43.53046" lon="5.61921">
        <ele>809</ele>
        <time>2022-10-19T08:51:55.410Z</time>
      </trkpt>
      <trkpt lat="43.53046" lon="5.61921">
        <ele>809</ele>
        <time>2022-10-19T08:51:56.410Z</time>
      </trkpt>
      <trkpt lat="43.53046" lon="5.6192">
        <ele>809</ele>
        <time>2022-10-19T08:51:57.410Z</time>
      </trkpt>
      <trkpt lat="43.53046" lon="5.6192">
        <ele>809</ele>
        <time>2022-10-19T08:51:58.410Z</time>
      </trkpt>
      <trkpt lat="43.53046" lon="5.6192">
        <ele>809</ele>
        <time>2022-10-19T08:51:59.410Z</time>
      </trkpt>
      <trkpt lat="43.53045" lon="5.6192">
        <ele>809</ele>
        <time>2022-10-19T08:52:00.410Z</time>
      </trkpt>
      <trkpt lat="43.53045" lon="5.61919">
        <ele>809</ele>
        <time>2022-10-19T08:52:01.410Z</time>
      </trkpt>
      <trkpt lat="43.53045" lon="5.61919">
        <ele>809</ele>
        <time>2022-10-19T08:52:02.410Z</time>
      </trkpt>
      <trkpt lat="43.53045" lon="5.61919">
        <ele>809</ele>
        <time>2022-10-19T08:52:03.410Z</time>
      </trkpt>
      <trkpt lat="43.53045" lon="5.61919">
        <ele>809</ele>
        <time>2022-10-19T08:52:04.410Z</time>
      </trkpt>
      <trkpt lat="43.53045" lon="5.61919">
        <ele>809</ele>
        <time>2022-10-19T08:52:05.410Z</time>
      </trkpt>
      <trkpt lat="43.53045" lon="5.61919">
        <ele>809</ele>
        <time>2022-10-19T08:52:06.410Z</time>
      </trkpt>
      <trkpt lat="43.53045" lon="5.61919">
        <ele>809</ele>
        <time>2022-10-19T08:52:07.410Z</time>
      </trkpt>
      <trkpt lat="43.53045" lon="5.61919">
        <ele>809</ele>
        <time>2022-10-19T08:52:08.410Z</time>
      </trkpt>
      <trkpt lat="43.53045" lon="5.61919">
        <ele>809</ele>
        <time>2022-10-19T08:52:09.410Z</time>
      </trkpt>
      <trkpt lat="43.53045" lon="5.61919">
        <ele>810</ele>
        <time>2022-10-19T08:52:10.410Z</time>
      </trkpt>
      <trkpt lat="43.53045" lon="5.61919">
        <ele>810</ele>
        <time>2022-10-19T08:52:11.410Z</time>
      </trkpt>
      <trkpt lat="43.53045" lon="5.61919">
        <ele>810</ele>
        <time>2022-10-19T08:52:12.410Z</time>
      </trkpt>
      <trkpt lat="43.53044" lon="5.61919">
        <ele>810</ele>
        <time>2022-10-19T08:52:13.410Z</time>
      </trkpt>
      <trkpt lat="43.53044" lon="5.61919">
        <ele>810</ele>
        <time>2022-10-19T08:52:14.410Z</time>
      </trkpt>
      <trkpt lat="43.53044" lon="5.61919">
        <ele>810</ele>
        <time>2022-10-19T08:52:15.410Z</time>
      </trkpt>
      <trkpt lat="43.53044" lon="5.61919">
        <ele>810</ele>
        <time>2022-10-19T08:52:16.410Z</time>
      </trkpt>
      <trkpt lat="43.53044" lon="5.61919">
        <ele>810</ele>
        <time>2022-10-19T08:52:17.410Z</time>
      </trkpt>
      <trkpt lat="43.53044" lon="5.61919">
        <ele>810</ele>
        <time>2022-10-19T08:52:18.410Z</time>
      </trkpt>
      <trkpt lat="43.53044" lon="5.61919">
        <ele>810</ele>
        <time>2022-10-19T08:52:19.410Z</time>
      </trkpt>
      <trkpt lat="43.53044" lon="5.61919">
        <ele>810</ele>
        <time>2022-10-19T08:52:20.410Z</time>
      </trkpt>
      <trkpt lat="43.53045" lon="5.61919">
        <ele>810</ele>
        <time>2022-10-19T08:52:21.410Z</time>
      </trkpt>
      <trkpt lat="43.53045" lon="5.61919">
        <ele>810</ele>
        <time>2022-10-19T08:52:22.410Z</time>
      </trkpt>
      <trkpt lat="43.53045" lon="5.61919">
        <ele>810</ele>
        <time>2022-10-19T08:52:23.410Z</time>
      </trkpt>
      <trkpt lat="43.53045" lon="5.61919">
        <ele>810</ele>
        <time>2022-10-19T08:52:24.410Z</time>
      </trkpt>
      <trkpt lat="43.53045" lon="5.61919">
        <ele>810</ele>
        <time>2022-10-19T08:52:25.410Z</time>
      </trkpt>
      <trkpt lat="43.53045" lon="5.61919">
        <ele>810</ele>
        <time>2022-10-19T08:52:26.410Z</time>
      </trkpt>
      <trkpt lat="43.53045" lon="5.61919">
        <ele>810</ele>
        <time>2022-10-19T08:52:27.410Z</time>
      </trkpt>
      <trkpt lat="43.53045" lon="5.61918">
        <ele>810</ele>
        <time>2022-10-19T08:52:28.410Z</time>
      </trkpt>
      <trkpt lat="43.53045" lon="5.61918">
        <ele>810</ele>
        <time>2022-10-19T08:52:29.410Z</time>
      </trkpt>
      <trkpt lat="43.53045" lon="5.61918">
        <ele>810</ele>
        <time>2022-10-19T08:52:30.410Z</time>
      </trkpt>
      <trkpt lat="43.53045" lon="5.61918">
        <ele>810</ele>
        <time>2022-10-19T08:52:31.410Z</time>
      </trkpt>
      <trkpt lat="43.53045" lon="5.61917">
        <ele>810</ele>
        <time>2022-10-19T08:52:32.410Z</time>
      </trkpt>
      <trkpt lat="43.53045" lon="5.61917">
        <ele>809</ele>
        <time>2022-10-19T08:52:33.410Z</time>
      </trkpt>
      <trkpt lat="43.53045" lon="5.61917">
        <ele>809</ele>
        <time>2022-10-19T08:52:34.410Z</time>
      </trkpt>
      <trkpt lat="43.53045" lon="5.61917">
        <ele>809</ele>
        <time>2022-10-19T08:52:35.410Z</time>
      </trkpt>
      <trkpt lat="43.53045" lon="5.61916">
        <ele>809</ele>
        <time>2022-10-19T08:52:36.410Z</time>
      </trkpt>
      <trkpt lat="43.53045" lon="5.61916">
        <ele>809</ele>
        <time>2022-10-19T08:52:37.410Z</time>
      </trkpt>
      <trkpt lat="43.53044" lon="5.61916">
        <ele>809</ele>
        <time>2022-10-19T08:52:38.410Z</time>
      </trkpt>
      <trkpt lat="43.53044" lon="5.61916">
        <ele>809</ele>
        <time>2022-10-19T08:52:39.410Z</time>
      </trkpt>
      <trkpt lat="43.53044" lon="5.61916">
        <ele>809</ele>
        <time>2022-10-19T08:52:40.410Z</time>
      </trkpt>
      <trkpt lat="43.53044" lon="5.61916">
        <ele>809</ele>
        <time>2022-10-19T08:52:41.410Z</time>
      </trkpt>
      <trkpt lat="43.53044" lon="5.61916">
        <ele>809</ele>
        <time>2022-10-19T08:52:42.410Z</time>
      </trkpt>
      <trkpt lat="43.53044" lon="5.61916">
        <ele>809</ele>
        <time>2022-10-19T08:52:43.410Z</time>
      </trkpt>
      <trkpt lat="43.53044" lon="5.61916">
        <ele>809</ele>
        <time>2022-10-19T08:52:44.410Z</time>
      </trkpt>
      <trkpt lat="43.53044" lon="5.61916">
        <ele>809</ele>
        <time>2022-10-19T08:52:45.410Z</time>
      </trkpt>
      <trkpt lat="43.53043" lon="5.61916">
        <ele>809</ele>
        <time>2022-10-19T08:52:46.410Z</time>
      </trkpt>
      <trkpt lat="43.53043" lon="5.61916">
        <ele>809</ele>
        <time>2022-10-19T08:52:47.410Z</time>
      </trkpt>
      <trkpt lat="43.53043" lon="5.61916">
        <ele>809</ele>
        <time>2022-10-19T08:52:48.410Z</time>
      </trkpt>
      <trkpt lat="43.53043" lon="5.61916">
        <ele>809</ele>
        <time>2022-10-19T08:52:49.410Z</time>
      </trkpt>
      <trkpt lat="43.53043" lon="5.61916">
        <ele>809</ele>
        <time>2022-10-19T08:52:50.410Z</time>
      </trkpt>
      <trkpt lat="43.53043" lon="5.61916">
        <ele>809</ele>
        <time>2022-10-19T08:52:51.410Z</time>
      </trkpt>
      <trkpt lat="43.53043" lon="5.61915">
        <ele>809</ele>
        <time>2022-10-19T08:52:52.410Z</time>
      </trkpt>
      <trkpt lat="43.53043" lon="5.61915">
        <ele>809</ele>
        <time>2022-10-19T08:52:53.410Z</time>
      </trkpt>
      <trkpt lat="43.53043" lon="5.61915">
        <ele>809</ele>
        <time>2022-10-19T08:52:54.410Z</time>
      </trkpt>
      <trkpt lat="43.53043" lon="5.61915">
        <ele>809</ele>
        <time>2022-10-19T08:52:55.410Z</time>
      </trkpt>
      <trkpt lat="43.53043" lon="5.61915">
        <ele>809</ele>
        <time>2022-10-19T08:52:56.410Z</time>
      </trkpt>
      <trkpt lat="43.53043" lon="5.61915">
        <ele>809</ele>
        <time>2022-10-19T08:52:57.410Z</time>
      </trkpt>
      <trkpt lat="43.53043" lon="5.61915">
        <ele>809</ele>
        <time>2022-10-19T08:52:58.410Z</time>
      </trkpt>
      <trkpt lat="43.53043" lon="5.61915">
        <ele>809</ele>
        <time>2022-10-19T08:52:59.410Z</time>
      </trkpt>
      <trkpt lat="43.53043" lon="5.61914">
        <ele>809</ele>
        <time>2022-10-19T08:53:00.410Z</time>
      </trkpt>
      <trkpt lat="43.53043" lon="5.61914">
        <ele>809</ele>
        <time>2022-10-19T08:53:01.410Z</time>
      </trkpt>
      <trkpt lat="43.53043" lon="5.61913">
        <ele>809</ele>
        <time>2022-10-19T08:53:02.410Z</time>
      </trkpt>
      <trkpt lat="43.53043" lon="5.61913">
        <ele>810</ele>
        <time>2022-10-19T08:53:03.410Z</time>
      </trkpt>
      <trkpt lat="43.53043" lon="5.61913">
        <ele>810</ele>
        <time>2022-10-19T08:53:04.410Z</time>
      </trkpt>
      <trkpt lat="43.53043" lon="5.61913">
        <ele>810</ele>
        <time>2022-10-19T08:53:05.410Z</time>
      </trkpt>
      <trkpt lat="43.53043" lon="5.61913">
        <ele>810</ele>
        <time>2022-10-19T08:53:06.410Z</time>
      </trkpt>
      <trkpt lat="43.53043" lon="5.61912">
        <ele>810</ele>
        <time>2022-10-19T08:53:07.410Z</time>
      </trkpt>
      <trkpt lat="43.53043" lon="5.61912">
        <ele>810</ele>
        <time>2022-10-19T08:53:08.410Z</time>
      </trkpt>
      <trkpt lat="43.53043" lon="5.61912">
        <ele>810</ele>
        <time>2022-10-19T08:53:09.410Z</time>
      </trkpt>
      <trkpt lat="43.53042" lon="5.61911">
        <ele>810</ele>
        <time>2022-10-19T08:53:10.410Z</time>
      </trkpt>
      <trkpt lat="43.53042" lon="5.61911">
        <ele>810</ele>
        <time>2022-10-19T08:53:11.410Z</time>
      </trkpt>
      <trkpt lat="43.53042" lon="5.61911">
        <ele>810</ele>
        <time>2022-10-19T08:53:12.410Z</time>
      </trkpt>
      <trkpt lat="43.53042" lon="5.61911">
        <ele>810</ele>
        <time>2022-10-19T08:53:13.410Z</time>
      </trkpt>
      <trkpt lat="43.53042" lon="5.61911">
        <ele>810</ele>
        <time>2022-10-19T08:53:14.410Z</time>
      </trkpt>
      <trkpt lat="43.53042" lon="5.61911">
        <ele>810</ele>
        <time>2022-10-19T08:53:15.410Z</time>
      </trkpt>
      <trkpt lat="43.53042" lon="5.61911">
        <ele>811</ele>
        <time>2022-10-19T08:53:16.410Z</time>
      </trkpt>
      <trkpt lat="43.53042" lon="5.61911">
        <ele>811</ele>
        <time>2022-10-19T08:53:17.410Z</time>
      </trkpt>
      <trkpt lat="43.53042" lon="5.61911">
        <ele>811</ele>
        <time>2022-10-19T08:53:18.410Z</time>
      </trkpt>
      <trkpt lat="43.53042" lon="5.61911">
        <ele>811</ele>
        <time>2022-10-19T08:53:19.410Z</time>
      </trkpt>
      <trkpt lat="43.53042" lon="5.61911">
        <ele>811</ele>
        <time>2022-10-19T08:53:20.410Z</time>
      </trkpt>
      <trkpt lat="43.53042" lon="5.61911">
        <ele>811</ele>
        <time>2022-10-19T08:53:21.410Z</time>
      </trkpt>
      <trkpt lat="43.53042" lon="5.61911">
        <ele>811</ele>
        <time>2022-10-19T08:53:22.410Z</time>
      </trkpt>
      <trkpt lat="43.53042" lon="5.61911">
        <ele>811</ele>
        <time>2022-10-19T08:53:23.410Z</time>
      </trkpt>
      <trkpt lat="43.53042" lon="5.61911">
        <ele>811</ele>
        <time>2022-10-19T08:53:24.410Z</time>
      </trkpt>
      <trkpt lat="43.53041" lon="5.61911">
        <ele>811</ele>
        <time>2022-10-19T08:53:25.410Z</time>
      </trkpt>
      <trkpt lat="43.53041" lon="5.6191">
        <ele>811</ele>
        <time>2022-10-19T08:53:26.410Z</time>
      </trkpt>
      <trkpt lat="43.53041" lon="5.6191">
        <ele>811</ele>
        <time>2022-10-19T08:53:27.410Z</time>
      </trkpt>
      <trkpt lat="43.53041" lon="5.6191">
        <ele>811</ele>
        <time>2022-10-19T08:53:28.410Z</time>
      </trkpt>
      <trkpt lat="43.53041" lon="5.6191">
        <ele>811</ele>
        <time>2022-10-19T08:53:29.410Z</time>
      </trkpt>
      <trkpt lat="43.53041" lon="5.61909">
        <ele>811</ele>
        <time>2022-10-19T08:53:30.410Z</time>
      </trkpt>
      <trkpt lat="43.5304" lon="5.61909">
        <ele>811</ele>
        <time>2022-10-19T08:53:31.410Z</time>
      </trkpt>
      <trkpt lat="43.5304" lon="5.61909">
        <ele>811</ele>
        <time>2022-10-19T08:53:32.410Z</time>
      </trkpt>
      <trkpt lat="43.5304" lon="5.61909">
        <ele>811</ele>
        <time>2022-10-19T08:53:33.410Z</time>
      </trkpt>
      <trkpt lat="43.5304" lon="5.61909">
        <ele>811</ele>
        <time>2022-10-19T08:53:34.410Z</time>
      </trkpt>
      <trkpt lat="43.5304" lon="5.61909">
        <ele>811</ele>
        <time>2022-10-19T08:53:35.410Z</time>
      </trkpt>
      <trkpt lat="43.5304" lon="5.61909">
        <ele>811</ele>
        <time>2022-10-19T08:53:36.410Z</time>
      </trkpt>
      <trkpt lat="43.5304" lon="5.61909">
        <ele>811</ele>
        <time>2022-10-19T08:53:37.410Z</time>
      </trkpt>
      <trkpt lat="43.5304" lon="5.61909">
        <ele>811</ele>
        <time>2022-10-19T08:53:38.410Z</time>
      </trkpt>
      <trkpt lat="43.5304" lon="5.61909">
        <ele>811</ele>
        <time>2022-10-19T08:53:39.410Z</time>
      </trkpt>
      <trkpt lat="43.5304" lon="5.61909">
        <ele>811</ele>
        <time>2022-10-19T08:53:40.410Z</time>
      </trkpt>
      <trkpt lat="43.5304" lon="5.61909">
        <ele>811</ele>
        <time>2022-10-19T08:53:41.410Z</time>
      </trkpt>
      <trkpt lat="43.5304" lon="5.61909">
        <ele>811</ele>
        <time>2022-10-19T08:53:42.410Z</time>
      </trkpt>
      <trkpt lat="43.5304" lon="5.61909">
        <ele>811</ele>
        <time>2022-10-19T08:53:43.410Z</time>
      </trkpt>
      <trkpt lat="43.5304" lon="5.61908">
        <ele>811</ele>
        <time>2022-10-19T08:53:44.410Z</time>
      </trkpt>
      <trkpt lat="43.5304" lon="5.61908">
        <ele>811</ele>
        <time>2022-10-19T08:53:45.410Z</time>
      </trkpt>
      <trkpt lat="43.5304" lon="5.61909">
        <ele>811</ele>
        <time>2022-10-19T08:53:46.410Z</time>
      </trkpt>
      <trkpt lat="43.5304" lon="5.61908">
        <ele>811</ele>
        <time>2022-10-19T08:53:47.410Z</time>
      </trkpt>
      <trkpt lat="43.53039" lon="5.61909">
        <ele>811</ele>
        <time>2022-10-19T08:53:48.410Z</time>
      </trkpt>
      <trkpt lat="43.53039" lon="5.61909">
        <ele>811</ele>
        <time>2022-10-19T08:53:49.410Z</time>
      </trkpt>
      <trkpt lat="43.53039" lon="5.61909">
        <ele>811</ele>
        <time>2022-10-19T08:53:50.410Z</time>
      </trkpt>
      <trkpt lat="43.53039" lon="5.61909">
        <ele>811</ele>
        <time>2022-10-19T08:53:51.410Z</time>
      </trkpt>
      <trkpt lat="43.53039" lon="5.61908">
        <ele>811</ele>
        <time>2022-10-19T08:53:52.410Z</time>
      </trkpt>
      <trkpt lat="43.53039" lon="5.61908">
        <ele>811</ele>
        <time>2022-10-19T08:53:53.410Z</time>
      </trkpt>
      <trkpt lat="43.53038" lon="5.61908">
        <ele>811</ele>
        <time>2022-10-19T08:53:54.410Z</time>
      </trkpt>
      <trkpt lat="43.53038" lon="5.61908">
        <ele>811</ele>
        <time>2022-10-19T08:53:55.410Z</time>
      </trkpt>
      <trkpt lat="43.53038" lon="5.61908">
        <ele>811</ele>
        <time>2022-10-19T08:53:56.410Z</time>
      </trkpt>
      <trkpt lat="43.53038" lon="5.61908">
        <ele>811</ele>
        <time>2022-10-19T08:53:57.410Z</time>
      </trkpt>
      <trkpt lat="43.53038" lon="5.61908">
        <ele>811</ele>
        <time>2022-10-19T08:53:58.410Z</time>
      </trkpt>
      <trkpt lat="43.53038" lon="5.61908">
        <ele>811</ele>
        <time>2022-10-19T08:53:59.410Z</time>
      </trkpt>
      <trkpt lat="43.53038" lon="5.61907">
        <ele>811</ele>
        <time>2022-10-19T08:54:00.410Z</time>
      </trkpt>
      <trkpt lat="43.53038" lon="5.61907">
        <ele>811</ele>
        <time>2022-10-19T08:54:01.410Z</time>
      </trkpt>
      <trkpt lat="43.53037" lon="5.61907">
        <ele>811</ele>
        <time>2022-10-19T08:54:02.410Z</time>
      </trkpt>
      <trkpt lat="43.53037" lon="5.61907">
        <ele>811</ele>
        <time>2022-10-19T08:54:03.410Z</time>
      </trkpt>
      <trkpt lat="43.53037" lon="5.61907">
        <ele>811</ele>
        <time>2022-10-19T08:54:04.410Z</time>
      </trkpt>
      <trkpt lat="43.53037" lon="5.61907">
        <ele>811</ele>
        <time>2022-10-19T08:54:05.410Z</time>
      </trkpt>
      <trkpt lat="43.53037" lon="5.61907">
        <ele>811</ele>
        <time>2022-10-19T08:54:06.410Z</time>
      </trkpt>
      <trkpt lat="43.53037" lon="5.61907">
        <ele>811</ele>
        <time>2022-10-19T08:54:07.410Z</time>
      </trkpt>
      <trkpt lat="43.53037" lon="5.61907">
        <ele>811</ele>
        <time>2022-10-19T08:54:08.410Z</time>
      </trkpt>
      <trkpt lat="43.53037" lon="5.61907">
        <ele>811</ele>
        <time>2022-10-19T08:54:09.410Z</time>
      </trkpt>
      <trkpt lat="43.53037" lon="5.61907">
        <ele>811</ele>
        <time>2022-10-19T08:54:10.410Z</time>
      </trkpt>
      <trkpt lat="43.53037" lon="5.61907">
        <ele>811</ele>
        <time>2022-10-19T08:54:11.410Z</time>
      </trkpt>
      <trkpt lat="43.53038" lon="5.61907">
        <ele>811</ele>
        <time>2022-10-19T08:54:12.410Z</time>
      </trkpt>
      <trkpt lat="43.53038" lon="5.61906">
        <ele>811</ele>
        <time>2022-10-19T08:54:13.410Z</time>
      </trkpt>
      <trkpt lat="43.53038" lon="5.61906">
        <ele>811</ele>
        <time>2022-10-19T08:54:14.410Z</time>
      </trkpt>
      <trkpt lat="43.53038" lon="5.61906">
        <ele>811</ele>
        <time>2022-10-19T08:54:15.410Z</time>
      </trkpt>
      <trkpt lat="43.53038" lon="5.61906">
        <ele>811</ele>
        <time>2022-10-19T08:54:16.410Z</time>
      </trkpt>
      <trkpt lat="43.53038" lon="5.61906">
        <ele>811</ele>
        <time>2022-10-19T08:54:17.410Z</time>
      </trkpt>
      <trkpt lat="43.53038" lon="5.61906">
        <ele>811</ele>
        <time>2022-10-19T08:54:18.410Z</time>
      </trkpt>
      <trkpt lat="43.53037" lon="5.61906">
        <ele>811</ele>
        <time>2022-10-19T08:54:19.410Z</time>
      </trkpt>
      <trkpt lat="43.53037" lon="5.61906">
        <ele>811</ele>
        <time>2022-10-19T08:54:20.410Z</time>
      </trkpt>
      <trkpt lat="43.53037" lon="5.61906">
        <ele>811</ele>
        <time>2022-10-19T08:54:21.410Z</time>
      </trkpt>
      <trkpt lat="43.53037" lon="5.61906">
        <ele>811</ele>
        <time>2022-10-19T08:54:22.410Z</time>
      </trkpt>
      <trkpt lat="43.53037" lon="5.61906">
        <ele>811</ele>
        <time>2022-10-19T08:54:23.410Z</time>
      </trkpt>
      <trkpt lat="43.53037" lon="5.61906">
        <ele>811</ele>
        <time>2022-10-19T08:54:24.410Z</time>
      </trkpt>
      <trkpt lat="43.53037" lon="5.61906">
        <ele>811</ele>
        <time>2022-10-19T08:54:25.410Z</time>
      </trkpt>
      <trkpt lat="43.53037" lon="5.61906">
        <ele>811</ele>
        <time>2022-10-19T08:54:26.410Z</time>
      </trkpt>
      <trkpt lat="43.53037" lon="5.61906">
        <ele>811</ele>
        <time>2022-10-19T08:54:27.410Z</time>
      </trkpt>
      <trkpt lat="43.53037" lon="5.61906">
        <ele>811</ele>
        <time>2022-10-19T08:54:28.410Z</time>
      </trkpt>
      <trkpt lat="43.53037" lon="5.61906">
        <ele>811</ele>
        <time>2022-10-19T08:54:29.410Z</time>
      </trkpt>
      <trkpt lat="43.53037" lon="5.61906">
        <ele>811</ele>
        <time>2022-10-19T08:54:30.410Z</time>
      </trkpt>
      <trkpt lat="43.53037" lon="5.61906">
        <ele>811</ele>
        <time>2022-10-19T08:54:31.410Z</time>
      </trkpt>
      <trkpt lat="43.53037" lon="5.61906">
        <ele>811</ele>
        <time>2022-10-19T08:54:32.410Z</time>
      </trkpt>
      <trkpt lat="43.53037" lon="5.61906">
        <ele>811</ele>
        <time>2022-10-19T08:54:33.410Z</time>
      </trkpt>
      <trkpt lat="43.53037" lon="5.61906">
        <ele>811</ele>
        <time>2022-10-19T08:54:34.410Z</time>
      </trkpt>
      <trkpt lat="43.53037" lon="5.61906">
        <ele>811</ele>
        <time>2022-10-19T08:54:35.410Z</time>
      </trkpt>
      <trkpt lat="43.53037" lon="5.61906">
        <ele>811</ele>
        <time>2022-10-19T08:54:36.410Z</time>
      </trkpt>
      <trkpt lat="43.53037" lon="5.61906">
        <ele>811</ele>
        <time>2022-10-19T08:54:37.410Z</time>
      </trkpt>
      <trkpt lat="43.53037" lon="5.61906">
        <ele>811</ele>
        <time>2022-10-19T08:54:38.410Z</time>
      </trkpt>
      <trkpt lat="43.53036" lon="5.61906">
        <ele>811</ele>
        <time>2022-10-19T08:54:39.410Z</time>
      </trkpt>
      <trkpt lat="43.53036" lon="5.61906">
        <ele>811</ele>
        <time>2022-10-19T08:54:40.410Z</time>
      </trkpt>
      <trkpt lat="43.53036" lon="5.61906">
        <ele>811</ele>
        <time>2022-10-19T08:54:41.410Z</time>
      </trkpt>
      <trkpt lat="43.53036" lon="5.61906">
        <ele>811</ele>
        <time>2022-10-19T08:54:42.410Z</time>
      </trkpt>
      <trkpt lat="43.53036" lon="5.61906">
        <ele>811</ele>
        <time>2022-10-19T08:54:43.410Z</time>
      </trkpt>
      <trkpt lat="43.53035" lon="5.61907">
        <ele>811</ele>
        <time>2022-10-19T08:54:44.410Z</time>
      </trkpt>
      <trkpt lat="43.53035" lon="5.61907">
        <ele>812</ele>
        <time>2022-10-19T08:54:45.410Z</time>
      </trkpt>
      <trkpt lat="43.53035" lon="5.61906">
        <ele>812</ele>
        <time>2022-10-19T08:54:46.410Z</time>
      </trkpt>
      <trkpt lat="43.53035" lon="5.61906">
        <ele>812</ele>
        <time>2022-10-19T08:54:47.410Z</time>
      </trkpt>
      <trkpt lat="43.53035" lon="5.61906">
        <ele>812</ele>
        <time>2022-10-19T08:54:48.410Z</time>
      </trkpt>
      <trkpt lat="43.53035" lon="5.61906">
        <ele>812</ele>
        <time>2022-10-19T08:54:49.410Z</time>
      </trkpt>
      <trkpt lat="43.53035" lon="5.61906">
        <ele>812</ele>
        <time>2022-10-19T08:54:50.410Z</time>
      </trkpt>
      <trkpt lat="43.53035" lon="5.61906">
        <ele>812</ele>
        <time>2022-10-19T08:54:51.410Z</time>
      </trkpt>
      <trkpt lat="43.53034" lon="5.61906">
        <ele>812</ele>
        <time>2022-10-19T08:54:52.410Z</time>
      </trkpt>
      <trkpt lat="43.53034" lon="5.61906">
        <ele>812</ele>
        <time>2022-10-19T08:54:53.410Z</time>
      </trkpt>
      <trkpt lat="43.53034" lon="5.61906">
        <ele>812</ele>
        <time>2022-10-19T08:54:54.410Z</time>
      </trkpt>
      <trkpt lat="43.53033" lon="5.61906">
        <ele>812</ele>
        <time>2022-10-19T08:54:55.410Z</time>
      </trkpt>
      <trkpt lat="43.53033" lon="5.61906">
        <ele>812</ele>
        <time>2022-10-19T08:54:56.410Z</time>
      </trkpt>
      <trkpt lat="43.53033" lon="5.61907">
        <ele>812</ele>
        <time>2022-10-19T08:54:57.410Z</time>
      </trkpt>
      <trkpt lat="43.53032" lon="5.61907">
        <ele>812</ele>
        <time>2022-10-19T08:54:58.410Z</time>
      </trkpt>
      <trkpt lat="43.53032" lon="5.61906">
        <ele>812</ele>
        <time>2022-10-19T08:54:59.410Z</time>
      </trkpt>
      <trkpt lat="43.53032" lon="5.61906">
        <ele>812</ele>
        <time>2022-10-19T08:55:00.410Z</time>
      </trkpt>
      <trkpt lat="43.53031" lon="5.61906">
        <ele>812</ele>
        <time>2022-10-19T08:55:01.410Z</time>
      </trkpt>
      <trkpt lat="43.53031" lon="5.61906">
        <ele>812</ele>
        <time>2022-10-19T08:55:02.410Z</time>
      </trkpt>
      <trkpt lat="43.53031" lon="5.61906">
        <ele>812</ele>
        <time>2022-10-19T08:55:03.410Z</time>
      </trkpt>
      <trkpt lat="43.53031" lon="5.61906">
        <ele>812</ele>
        <time>2022-10-19T08:55:04.410Z</time>
      </trkpt>
      <trkpt lat="43.5303" lon="5.61905">
        <ele>812</ele>
        <time>2022-10-19T08:55:05.410Z</time>
      </trkpt>
      <trkpt lat="43.5303" lon="5.61905">
        <ele>812</ele>
        <time>2022-10-19T08:55:06.410Z</time>
      </trkpt>
      <trkpt lat="43.53029" lon="5.61905">
        <ele>812</ele>
        <time>2022-10-19T08:55:07.410Z</time>
      </trkpt>
      <trkpt lat="43.53029" lon="5.61905">
        <ele>812</ele>
        <time>2022-10-19T08:55:08.410Z</time>
      </trkpt>
      <trkpt lat="43.53028" lon="5.61905">
        <ele>812</ele>
        <time>2022-10-19T08:55:09.410Z</time>
      </trkpt>
      <trkpt lat="43.53028" lon="5.61904">
        <ele>812</ele>
        <time>2022-10-19T08:55:10.410Z</time>
      </trkpt>
      <trkpt lat="43.53027" lon="5.61903">
        <ele>812</ele>
        <time>2022-10-19T08:55:11.410Z</time>
      </trkpt>
      <trkpt lat="43.53028" lon="5.61902">
        <ele>812</ele>
        <time>2022-10-19T08:55:12.410Z</time>
      </trkpt>
      <trkpt lat="43.53028" lon="5.61902">
        <ele>812</ele>
        <time>2022-10-19T08:55:13.410Z</time>
      </trkpt>
      <trkpt lat="43.53028" lon="5.61901">
        <ele>811</ele>
        <time>2022-10-19T08:55:14.410Z</time>
      </trkpt>
      <trkpt lat="43.53028" lon="5.61901">
        <ele>811</ele>
        <time>2022-10-19T08:55:15.410Z</time>
      </trkpt>
      <trkpt lat="43.53027" lon="5.61901">
        <ele>811</ele>
        <time>2022-10-19T08:55:16.410Z</time>
      </trkpt>
      <trkpt lat="43.53027" lon="5.61901">
        <ele>811</ele>
        <time>2022-10-19T08:55:17.410Z</time>
      </trkpt>
      <trkpt lat="43.53026" lon="5.619">
        <ele>811</ele>
        <time>2022-10-19T08:55:18.410Z</time>
      </trkpt>
      <trkpt lat="43.53026" lon="5.619">
        <ele>811</ele>
        <time>2022-10-19T08:55:19.410Z</time>
      </trkpt>
      <trkpt lat="43.53026" lon="5.61899">
        <ele>811</ele>
        <time>2022-10-19T08:55:20.410Z</time>
      </trkpt>
      <trkpt lat="43.53026" lon="5.61898">
        <ele>811</ele>
        <time>2022-10-19T08:55:21.410Z</time>
      </trkpt>
      <trkpt lat="43.53026" lon="5.61898">
        <ele>811</ele>
        <time>2022-10-19T08:55:22.410Z</time>
      </trkpt>
      <trkpt lat="43.53026" lon="5.61897">
        <ele>811</ele>
        <time>2022-10-19T08:55:23.410Z</time>
      </trkpt>
      <trkpt lat="43.53026" lon="5.61897">
        <ele>811</ele>
        <time>2022-10-19T08:55:24.410Z</time>
      </trkpt>
      <trkpt lat="43.53027" lon="5.61896">
        <ele>810</ele>
        <time>2022-10-19T08:55:25.410Z</time>
      </trkpt>
      <trkpt lat="43.53027" lon="5.61895">
        <ele>810</ele>
        <time>2022-10-19T08:55:26.410Z</time>
      </trkpt>
      <trkpt lat="43.53027" lon="5.61895">
        <ele>810</ele>
        <time>2022-10-19T08:55:27.410Z</time>
      </trkpt>
      <trkpt lat="43.53027" lon="5.61894">
        <ele>810</ele>
        <time>2022-10-19T08:55:28.410Z</time>
      </trkpt>
      <trkpt lat="43.53027" lon="5.61894">
        <ele>809</ele>
        <time>2022-10-19T08:55:29.410Z</time>
      </trkpt>
      <trkpt lat="43.53027" lon="5.61893">
        <ele>809</ele>
        <time>2022-10-19T08:55:30.410Z</time>
      </trkpt>
      <trkpt lat="43.53027" lon="5.61893">
        <ele>809</ele>
        <time>2022-10-19T08:55:31.410Z</time>
      </trkpt>
      <trkpt lat="43.53027" lon="5.61892">
        <ele>809</ele>
        <time>2022-10-19T08:55:32.410Z</time>
      </trkpt>
      <trkpt lat="43.53027" lon="5.61891">
        <ele>808</ele>
        <time>2022-10-19T08:55:33.410Z</time>
      </trkpt>
      <trkpt lat="43.53027" lon="5.6189">
        <ele>808</ele>
        <time>2022-10-19T08:55:34.410Z</time>
      </trkpt>
      <trkpt lat="43.53027" lon="5.6189">
        <ele>808</ele>
        <time>2022-10-19T08:55:35.410Z</time>
      </trkpt>
      <trkpt lat="43.53026" lon="5.61889">
        <ele>808</ele>
        <time>2022-10-19T08:55:36.410Z</time>
      </trkpt>
      <trkpt lat="43.53025" lon="5.61888">
        <ele>808</ele>
        <time>2022-10-19T08:55:37.410Z</time>
      </trkpt>
      <trkpt lat="43.53025" lon="5.61888">
        <ele>807</ele>
        <time>2022-10-19T08:55:38.410Z</time>
      </trkpt>
      <trkpt lat="43.53024" lon="5.61888">
        <ele>807</ele>
        <time>2022-10-19T08:55:39.410Z</time>
      </trkpt>
      <trkpt lat="43.53023" lon="5.61888">
        <ele>807</ele>
        <time>2022-10-19T08:55:40.410Z</time>
      </trkpt>
      <trkpt lat="43.53022" lon="5.61888">
        <ele>807</ele>
        <time>2022-10-19T08:55:41.410Z</time>
      </trkpt>
      <trkpt lat="43.53022" lon="5.61887">
        <ele>807</ele>
        <time>2022-10-19T08:55:42.410Z</time>
      </trkpt>
      <trkpt lat="43.53021" lon="5.61887">
        <ele>807</ele>
        <time>2022-10-19T08:55:43.410Z</time>
      </trkpt>
      <trkpt lat="43.5302" lon="5.61886">
        <ele>807</ele>
        <time>2022-10-19T08:55:44.410Z</time>
      </trkpt>
      <trkpt lat="43.5302" lon="5.61885">
        <ele>806</ele>
        <time>2022-10-19T08:55:45.410Z</time>
      </trkpt>
      <trkpt lat="43.5302" lon="5.61884">
        <ele>806</ele>
        <time>2022-10-19T08:55:46.410Z</time>
      </trkpt>
      <trkpt lat="43.53021" lon="5.61883">
        <ele>806</ele>
        <time>2022-10-19T08:55:47.410Z</time>
      </trkpt>
      <trkpt lat="43.53021" lon="5.61882">
        <ele>806</ele>
        <time>2022-10-19T08:55:48.410Z</time>
      </trkpt>
      <trkpt lat="43.53021" lon="5.61881">
        <ele>806</ele>
        <time>2022-10-19T08:55:49.410Z</time>
      </trkpt>
      <trkpt lat="43.53021" lon="5.61881">
        <ele>806</ele>
        <time>2022-10-19T08:55:50.410Z</time>
      </trkpt>
      <trkpt lat="43.53021" lon="5.6188">
        <ele>805</ele>
        <time>2022-10-19T08:55:51.410Z</time>
      </trkpt>
      <trkpt lat="43.53022" lon="5.61879">
        <ele>805</ele>
        <time>2022-10-19T08:55:52.410Z</time>
      </trkpt>
      <trkpt lat="43.53022" lon="5.61878">
        <ele>805</ele>
        <time>2022-10-19T08:55:53.410Z</time>
      </trkpt>
      <trkpt lat="43.53022" lon="5.61878">
        <ele>805</ele>
        <time>2022-10-19T08:55:54.410Z</time>
      </trkpt>
      <trkpt lat="43.53022" lon="5.61878">
        <ele>805</ele>
        <time>2022-10-19T08:55:55.410Z</time>
      </trkpt>
      <trkpt lat="43.53022" lon="5.61878">
        <ele>805</ele>
        <time>2022-10-19T08:55:56.410Z</time>
      </trkpt>
      <trkpt lat="43.53022" lon="5.61878">
        <ele>805</ele>
        <time>2022-10-19T08:55:57.410Z</time>
      </trkpt>
      <trkpt lat="43.53021" lon="5.61878">
        <ele>805</ele>
        <time>2022-10-19T08:55:58.410Z</time>
      </trkpt>
      <trkpt lat="43.53021" lon="5.61877">
        <ele>805</ele>
        <time>2022-10-19T08:55:59.410Z</time>
      </trkpt>
      <trkpt lat="43.5302" lon="5.61876">
        <ele>804</ele>
        <time>2022-10-19T08:56:00.410Z</time>
      </trkpt>
      <trkpt lat="43.5302" lon="5.61875">
        <ele>804</ele>
        <time>2022-10-19T08:56:01.410Z</time>
      </trkpt>
      <trkpt lat="43.53019" lon="5.61874">
        <ele>804</ele>
        <time>2022-10-19T08:56:02.410Z</time>
      </trkpt>
      <trkpt lat="43.53019" lon="5.61873">
        <ele>804</ele>
        <time>2022-10-19T08:56:03.410Z</time>
      </trkpt>
      <trkpt lat="43.5302" lon="5.61872">
        <ele>804</ele>
        <time>2022-10-19T08:56:04.410Z</time>
      </trkpt>
      <trkpt lat="43.5302" lon="5.61872">
        <ele>804</ele>
        <time>2022-10-19T08:56:05.410Z</time>
      </trkpt>
      <trkpt lat="43.5302" lon="5.61871">
        <ele>804</ele>
        <time>2022-10-19T08:56:06.410Z</time>
      </trkpt>
      <trkpt lat="43.5302" lon="5.61871">
        <ele>804</ele>
        <time>2022-10-19T08:56:07.410Z</time>
      </trkpt>
      <trkpt lat="43.5302" lon="5.61871">
        <ele>803</ele>
        <time>2022-10-19T08:56:08.410Z</time>
      </trkpt>
      <trkpt lat="43.5302" lon="5.61871">
        <ele>803</ele>
        <time>2022-10-19T08:56:09.410Z</time>
      </trkpt>
      <trkpt lat="43.5302" lon="5.61871">
        <ele>803</ele>
        <time>2022-10-19T08:56:10.410Z</time>
      </trkpt>
      <trkpt lat="43.5302" lon="5.61871">
        <ele>803</ele>
        <time>2022-10-19T08:56:11.410Z</time>
      </trkpt>
      <trkpt lat="43.5302" lon="5.61871">
        <ele>803</ele>
        <time>2022-10-19T08:56:12.410Z</time>
      </trkpt>
      <trkpt lat="43.5302" lon="5.61871">
        <ele>803</ele>
        <time>2022-10-19T08:56:13.410Z</time>
      </trkpt>
      <trkpt lat="43.5302" lon="5.61871">
        <ele>803</ele>
        <time>2022-10-19T08:56:14.410Z</time>
      </trkpt>
      <trkpt lat="43.53019" lon="5.61871">
        <ele>803</ele>
        <time>2022-10-19T08:56:15.410Z</time>
      </trkpt>
      <trkpt lat="43.5302" lon="5.61872">
        <ele>803</ele>
        <time>2022-10-19T08:56:16.410Z</time>
      </trkpt>
      <trkpt lat="43.5302" lon="5.61872">
        <ele>803</ele>
        <time>2022-10-19T08:56:17.410Z</time>
      </trkpt>
      <trkpt lat="43.5302" lon="5.61872">
        <ele>803</ele>
        <time>2022-10-19T08:56:18.410Z</time>
      </trkpt>
      <trkpt lat="43.5302" lon="5.61872">
        <ele>803</ele>
        <time>2022-10-19T08:56:19.410Z</time>
      </trkpt>
      <trkpt lat="43.53019" lon="5.61872">
        <ele>803</ele>
        <time>2022-10-19T08:56:20.410Z</time>
      </trkpt>
      <trkpt lat="43.53019" lon="5.61872">
        <ele>803</ele>
        <time>2022-10-19T08:56:21.410Z</time>
      </trkpt>
      <trkpt lat="43.53019" lon="5.61872">
        <ele>804</ele>
        <time>2022-10-19T08:56:22.410Z</time>
      </trkpt>
      <trkpt lat="43.53019" lon="5.61872">
        <ele>804</ele>
        <time>2022-10-19T08:56:23.410Z</time>
      </trkpt>
      <trkpt lat="43.53019" lon="5.61872">
        <ele>804</ele>
        <time>2022-10-19T08:56:24.410Z</time>
      </trkpt>
      <trkpt lat="43.53019" lon="5.61872">
        <ele>803</ele>
        <time>2022-10-19T08:56:25.410Z</time>
      </trkpt>
      <trkpt lat="43.53019" lon="5.61872">
        <ele>803</ele>
        <time>2022-10-19T08:56:26.410Z</time>
      </trkpt>
      <trkpt lat="43.53019" lon="5.61871">
        <ele>804</ele>
        <time>2022-10-19T08:56:27.410Z</time>
      </trkpt>
      <trkpt lat="43.53019" lon="5.61871">
        <ele>804</ele>
        <time>2022-10-19T08:56:28.410Z</time>
      </trkpt>
      <trkpt lat="43.5302" lon="5.61871">
        <ele>804</ele>
        <time>2022-10-19T08:56:29.410Z</time>
      </trkpt>
      <trkpt lat="43.5302" lon="5.61871">
        <ele>804</ele>
        <time>2022-10-19T08:56:30.410Z</time>
      </trkpt>
      <trkpt lat="43.5302" lon="5.61871">
        <ele>804</ele>
        <time>2022-10-19T08:56:31.410Z</time>
      </trkpt>
      <trkpt lat="43.5302" lon="5.61871">
        <ele>804</ele>
        <time>2022-10-19T08:56:32.410Z</time>
      </trkpt>
      <trkpt lat="43.5302" lon="5.61871">
        <ele>804</ele>
        <time>2022-10-19T08:56:33.410Z</time>
      </trkpt>
      <trkpt lat="43.5302" lon="5.61871">
        <ele>804</ele>
        <time>2022-10-19T08:56:34.410Z</time>
      </trkpt>
      <trkpt lat="43.5302" lon="5.61871">
        <ele>804</ele>
        <time>2022-10-19T08:56:35.410Z</time>
      </trkpt>
      <trkpt lat="43.53019" lon="5.61871">
        <ele>804</ele>
        <time>2022-10-19T08:56:36.410Z</time>
      </trkpt>
      <trkpt lat="43.5302" lon="5.61871">
        <ele>804</ele>
        <time>2022-10-19T08:56:37.410Z</time>
      </trkpt>
      <trkpt lat="43.5302" lon="5.61871">
        <ele>804</ele>
        <time>2022-10-19T08:56:38.410Z</time>
      </trkpt>
      <trkpt lat="43.5302" lon="5.61871">
        <ele>804</ele>
        <time>2022-10-19T08:56:39.410Z</time>
      </trkpt>
      <trkpt lat="43.5302" lon="5.61871">
        <ele>804</ele>
        <time>2022-10-19T08:56:40.410Z</time>
      </trkpt>
      <trkpt lat="43.5302" lon="5.61871">
        <ele>804</ele>
        <time>2022-10-19T08:56:41.410Z</time>
      </trkpt>
      <trkpt lat="43.53019" lon="5.61871">
        <ele>804</ele>
        <time>2022-10-19T08:56:42.410Z</time>
      </trkpt>
      <trkpt lat="43.5302" lon="5.61871">
        <ele>804</ele>
        <time>2022-10-19T08:56:43.410Z</time>
      </trkpt>
      <trkpt lat="43.53019" lon="5.61871">
        <ele>804</ele>
        <time>2022-10-19T08:56:44.410Z</time>
      </trkpt>
      <trkpt lat="43.53019" lon="5.61871">
        <ele>804</ele>
        <time>2022-10-19T08:56:45.410Z</time>
      </trkpt>
      <trkpt lat="43.53019" lon="5.61871">
        <ele>804</ele>
        <time>2022-10-19T08:56:46.410Z</time>
      </trkpt>
      <trkpt lat="43.53019" lon="5.61871">
        <ele>803</ele>
        <time>2022-10-19T08:56:47.410Z</time>
      </trkpt>
      <trkpt lat="43.53019" lon="5.61871">
        <ele>803</ele>
        <time>2022-10-19T08:56:48.410Z</time>
      </trkpt>
      <trkpt lat="43.53019" lon="5.61871">
        <ele>803</ele>
        <time>2022-10-19T08:56:49.410Z</time>
      </trkpt>
      <trkpt lat="43.5302" lon="5.61871">
        <ele>803</ele>
        <time>2022-10-19T08:56:50.410Z</time>
      </trkpt>
      <trkpt lat="43.5302" lon="5.61871">
        <ele>803</ele>
        <time>2022-10-19T08:56:51.410Z</time>
      </trkpt>
      <trkpt lat="43.5302" lon="5.61871">
        <ele>803</ele>
        <time>2022-10-19T08:56:52.410Z</time>
      </trkpt>
      <trkpt lat="43.53019" lon="5.61871">
        <ele>803</ele>
        <time>2022-10-19T08:56:53.410Z</time>
      </trkpt>
      <trkpt lat="43.53019" lon="5.6187">
        <ele>803</ele>
        <time>2022-10-19T08:56:54.410Z</time>
      </trkpt>
      <trkpt lat="43.53019" lon="5.6187">
        <ele>803</ele>
        <time>2022-10-19T08:56:55.410Z</time>
      </trkpt>
      <trkpt lat="43.53019" lon="5.6187">
        <ele>803</ele>
        <time>2022-10-19T08:56:56.410Z</time>
      </trkpt>
      <trkpt lat="43.53019" lon="5.6187">
        <ele>803</ele>
        <time>2022-10-19T08:56:57.410Z</time>
      </trkpt>
      <trkpt lat="43.5302" lon="5.61869">
        <ele>803</ele>
        <time>2022-10-19T08:56:58.410Z</time>
      </trkpt>
      <trkpt lat="43.5302" lon="5.61869">
        <ele>803</ele>
        <time>2022-10-19T08:56:59.410Z</time>
      </trkpt>
      <trkpt lat="43.5302" lon="5.61869">
        <ele>803</ele>
        <time>2022-10-19T08:57:00.410Z</time>
      </trkpt>
      <trkpt lat="43.5302" lon="5.6187">
        <ele>803</ele>
        <time>2022-10-19T08:57:01.410Z</time>
      </trkpt>
      <trkpt lat="43.5302" lon="5.61869">
        <ele>803</ele>
        <time>2022-10-19T08:57:02.410Z</time>
      </trkpt>
      <trkpt lat="43.5302" lon="5.61869">
        <ele>803</ele>
        <time>2022-10-19T08:57:03.410Z</time>
      </trkpt>
      <trkpt lat="43.5302" lon="5.61869">
        <ele>803</ele>
        <time>2022-10-19T08:57:04.410Z</time>
      </trkpt>
      <trkpt lat="43.5302" lon="5.61869">
        <ele>803</ele>
        <time>2022-10-19T08:57:05.410Z</time>
      </trkpt>
      <trkpt lat="43.5302" lon="5.61869">
        <ele>803</ele>
        <time>2022-10-19T08:57:06.410Z</time>
      </trkpt>
      <trkpt lat="43.5302" lon="5.61869">
        <ele>803</ele>
        <time>2022-10-19T08:57:07.410Z</time>
      </trkpt>
      <trkpt lat="43.53021" lon="5.61869">
        <ele>803</ele>
        <time>2022-10-19T08:57:08.410Z</time>
      </trkpt>
      <trkpt lat="43.53021" lon="5.61868">
        <ele>803</ele>
        <time>2022-10-19T08:57:09.410Z</time>
      </trkpt>
      <trkpt lat="43.53021" lon="5.61868">
        <ele>803</ele>
        <time>2022-10-19T08:57:10.410Z</time>
      </trkpt>
      <trkpt lat="43.53021" lon="5.61868">
        <ele>803</ele>
        <time>2022-10-19T08:57:11.410Z</time>
      </trkpt>
      <trkpt lat="43.53021" lon="5.61868">
        <ele>803</ele>
        <time>2022-10-19T08:57:12.410Z</time>
      </trkpt>
      <trkpt lat="43.53021" lon="5.61868">
        <ele>803</ele>
        <time>2022-10-19T08:57:13.410Z</time>
      </trkpt>
      <trkpt lat="43.53021" lon="5.61868">
        <ele>803</ele>
        <time>2022-10-19T08:57:14.410Z</time>
      </trkpt>
      <trkpt lat="43.53021" lon="5.61868">
        <ele>803</ele>
        <time>2022-10-19T08:57:15.410Z</time>
      </trkpt>
      <trkpt lat="43.53021" lon="5.61868">
        <ele>803</ele>
        <time>2022-10-19T08:57:16.410Z</time>
      </trkpt>
      <trkpt lat="43.53021" lon="5.61868">
        <ele>803</ele>
        <time>2022-10-19T08:57:17.410Z</time>
      </trkpt>
      <trkpt lat="43.53021" lon="5.61868">
        <ele>803</ele>
        <time>2022-10-19T08:57:18.410Z</time>
      </trkpt>
      <trkpt lat="43.53021" lon="5.61868">
        <ele>803</ele>
        <time>2022-10-19T08:57:19.410Z</time>
      </trkpt>
      <trkpt lat="43.53021" lon="5.61868">
        <ele>803</ele>
        <time>2022-10-19T08:57:20.410Z</time>
      </trkpt>
      <trkpt lat="43.53021" lon="5.61868">
        <ele>803</ele>
        <time>2022-10-19T08:57:21.410Z</time>
      </trkpt>
      <trkpt lat="43.53021" lon="5.61868">
        <ele>803</ele>
        <time>2022-10-19T08:57:22.410Z</time>
      </trkpt>
      <trkpt lat="43.53021" lon="5.61868">
        <ele>803</ele>
        <time>2022-10-19T08:57:23.410Z</time>
      </trkpt>
      <trkpt lat="43.53021" lon="5.61868">
        <ele>803</ele>
        <time>2022-10-19T08:57:24.410Z</time>
      </trkpt>
      <trkpt lat="43.53021" lon="5.61868">
        <ele>803</ele>
        <time>2022-10-19T08:57:25.410Z</time>
      </trkpt>
      <trkpt lat="43.53021" lon="5.61867">
        <ele>803</ele>
        <time>2022-10-19T08:57:26.410Z</time>
      </trkpt>
      <trkpt lat="43.53021" lon="5.61867">
        <ele>803</ele>
        <time>2022-10-19T08:57:27.410Z</time>
      </trkpt>
      <trkpt lat="43.53021" lon="5.61867">
        <ele>803</ele>
        <time>2022-10-19T08:57:28.410Z</time>
      </trkpt>
      <trkpt lat="43.53021" lon="5.61867">
        <ele>803</ele>
        <time>2022-10-19T08:57:29.410Z</time>
      </trkpt>
      <trkpt lat="43.53021" lon="5.61867">
        <ele>803</ele>
        <time>2022-10-19T08:57:30.410Z</time>
      </trkpt>
      <trkpt lat="43.53021" lon="5.61867">
        <ele>802</ele>
        <time>2022-10-19T08:57:31.410Z</time>
      </trkpt>
      <trkpt lat="43.53021" lon="5.61867">
        <ele>802</ele>
        <time>2022-10-19T08:57:32.410Z</time>
      </trkpt>
      <trkpt lat="43.53021" lon="5.61867">
        <ele>802</ele>
        <time>2022-10-19T08:57:33.410Z</time>
      </trkpt>
      <trkpt lat="43.53021" lon="5.61867">
        <ele>802</ele>
        <time>2022-10-19T08:57:34.410Z</time>
      </trkpt>
      <trkpt lat="43.53021" lon="5.61867">
        <ele>802</ele>
        <time>2022-10-19T08:57:35.410Z</time>
      </trkpt>
      <trkpt lat="43.53021" lon="5.61867">
        <ele>802</ele>
        <time>2022-10-19T08:57:36.410Z</time>
      </trkpt>
      <trkpt lat="43.53021" lon="5.61867">
        <ele>802</ele>
        <time>2022-10-19T08:57:37.410Z</time>
      </trkpt>
      <trkpt lat="43.53021" lon="5.61867">
        <ele>802</ele>
        <time>2022-10-19T08:57:38.410Z</time>
      </trkpt>
      <trkpt lat="43.53021" lon="5.61867">
        <ele>802</ele>
        <time>2022-10-19T08:57:39.410Z</time>
      </trkpt>
      <trkpt lat="43.53021" lon="5.61867">
        <ele>802</ele>
        <time>2022-10-19T08:57:40.410Z</time>
      </trkpt>
      <trkpt lat="43.53021" lon="5.61867">
        <ele>802</ele>
        <time>2022-10-19T08:57:41.410Z</time>
      </trkpt>
      <trkpt lat="43.53021" lon="5.61867">
        <ele>802</ele>
        <time>2022-10-19T08:57:42.410Z</time>
      </trkpt>
      <trkpt lat="43.53021" lon="5.61866">
        <ele>802</ele>
        <time>2022-10-19T08:57:43.410Z</time>
      </trkpt>
      <trkpt lat="43.53021" lon="5.61866">
        <ele>802</ele>
        <time>2022-10-19T08:57:44.410Z</time>
      </trkpt>
      <trkpt lat="43.53021" lon="5.61866">
        <ele>802</ele>
        <time>2022-10-19T08:57:45.410Z</time>
      </trkpt>
      <trkpt lat="43.53021" lon="5.61867">
        <ele>802</ele>
        <time>2022-10-19T08:57:46.410Z</time>
      </trkpt>
      <trkpt lat="43.53021" lon="5.61867">
        <ele>802</ele>
        <time>2022-10-19T08:57:47.410Z</time>
      </trkpt>
      <trkpt lat="43.5302" lon="5.61867">
        <ele>802</ele>
        <time>2022-10-19T08:57:48.410Z</time>
      </trkpt>
      <trkpt lat="43.5302" lon="5.61867">
        <ele>802</ele>
        <time>2022-10-19T08:57:49.410Z</time>
      </trkpt>
      <trkpt lat="43.5302" lon="5.61867">
        <ele>802</ele>
        <time>2022-10-19T08:57:50.410Z</time>
      </trkpt>
      <trkpt lat="43.5302" lon="5.61867">
        <ele>802</ele>
        <time>2022-10-19T08:57:51.410Z</time>
      </trkpt>
      <trkpt lat="43.5302" lon="5.61867">
        <ele>802</ele>
        <time>2022-10-19T08:57:52.410Z</time>
      </trkpt>
      <trkpt lat="43.5302" lon="5.61868">
        <ele>802</ele>
        <time>2022-10-19T08:57:53.410Z</time>
      </trkpt>
      <trkpt lat="43.5302" lon="5.61868">
        <ele>801</ele>
        <time>2022-10-19T08:57:54.410Z</time>
      </trkpt>
      <trkpt lat="43.5302" lon="5.61868">
        <ele>801</ele>
        <time>2022-10-19T08:57:55.410Z</time>
      </trkpt>
      <trkpt lat="43.5302" lon="5.61868">
        <ele>801</ele>
        <time>2022-10-19T08:57:56.410Z</time>
      </trkpt>
      <trkpt lat="43.5302" lon="5.61868">
        <ele>801</ele>
        <time>2022-10-19T08:57:57.410Z</time>
      </trkpt>
      <trkpt lat="43.5302" lon="5.61868">
        <ele>801</ele>
        <time>2022-10-19T08:57:58.410Z</time>
      </trkpt>
      <trkpt lat="43.5302" lon="5.61868">
        <ele>801</ele>
        <time>2022-10-19T08:57:59.410Z</time>
      </trkpt>
      <trkpt lat="43.5302" lon="5.61868">
        <ele>801</ele>
        <time>2022-10-19T08:58:00.410Z</time>
      </trkpt>
      <trkpt lat="43.5302" lon="5.61867">
        <ele>801</ele>
        <time>2022-10-19T08:58:01.410Z</time>
      </trkpt>
      <trkpt lat="43.53021" lon="5.61867">
        <ele>801</ele>
        <time>2022-10-19T08:58:02.410Z</time>
      </trkpt>
      <trkpt lat="43.53021" lon="5.61867">
        <ele>801</ele>
        <time>2022-10-19T08:58:03.410Z</time>
      </trkpt>
      <trkpt lat="43.53021" lon="5.61867">
        <ele>801</ele>
        <time>2022-10-19T08:58:04.410Z</time>
      </trkpt>
      <trkpt lat="43.53021" lon="5.61867">
        <ele>801</ele>
        <time>2022-10-19T08:58:05.410Z</time>
      </trkpt>
      <trkpt lat="43.53021" lon="5.61867">
        <ele>801</ele>
        <time>2022-10-19T08:58:06.410Z</time>
      </trkpt>
      <trkpt lat="43.53021" lon="5.61867">
        <ele>801</ele>
        <time>2022-10-19T08:58:07.410Z</time>
      </trkpt>
      <trkpt lat="43.53021" lon="5.61867">
        <ele>801</ele>
        <time>2022-10-19T08:58:08.410Z</time>
      </trkpt>
      <trkpt lat="43.53021" lon="5.61867">
        <ele>801</ele>
        <time>2022-10-19T08:58:09.410Z</time>
      </trkpt>
      <trkpt lat="43.53021" lon="5.61867">
        <ele>801</ele>
        <time>2022-10-19T08:58:10.410Z</time>
      </trkpt>
      <trkpt lat="43.53021" lon="5.61867">
        <ele>801</ele>
        <time>2022-10-19T08:58:11.410Z</time>
      </trkpt>
      <trkpt lat="43.53021" lon="5.61867">
        <ele>801</ele>
        <time>2022-10-19T08:58:12.410Z</time>
      </trkpt>
      <trkpt lat="43.53021" lon="5.61866">
        <ele>801</ele>
        <time>2022-10-19T08:58:13.410Z</time>
      </trkpt>
      <trkpt lat="43.53021" lon="5.61866">
        <ele>801</ele>
        <time>2022-10-19T08:58:14.410Z</time>
      </trkpt>
      <trkpt lat="43.53021" lon="5.61866">
        <ele>801</ele>
        <time>2022-10-19T08:58:15.410Z</time>
      </trkpt>
      <trkpt lat="43.53021" lon="5.61866">
        <ele>801</ele>
        <time>2022-10-19T08:58:16.410Z</time>
      </trkpt>
      <trkpt lat="43.53022" lon="5.61866">
        <ele>801</ele>
        <time>2022-10-19T08:58:17.410Z</time>
      </trkpt>
      <trkpt lat="43.53022" lon="5.61866">
        <ele>801</ele>
        <time>2022-10-19T08:58:18.410Z</time>
      </trkpt>
      <trkpt lat="43.53022" lon="5.61866">
        <ele>801</ele>
        <time>2022-10-19T08:58:19.410Z</time>
      </trkpt>
      <trkpt lat="43.53022" lon="5.61866">
        <ele>801</ele>
        <time>2022-10-19T08:58:20.410Z</time>
      </trkpt>
      <trkpt lat="43.53022" lon="5.61866">
        <ele>801</ele>
        <time>2022-10-19T08:58:21.410Z</time>
      </trkpt>
      <trkpt lat="43.53022" lon="5.61866">
        <ele>801</ele>
        <time>2022-10-19T08:58:22.410Z</time>
      </trkpt>
      <trkpt lat="43.53022" lon="5.61866">
        <ele>801</ele>
        <time>2022-10-19T08:58:23.410Z</time>
      </trkpt>
      <trkpt lat="43.53022" lon="5.61866">
        <ele>801</ele>
        <time>2022-10-19T08:58:24.410Z</time>
      </trkpt>
      <trkpt lat="43.53022" lon="5.61866">
        <ele>801</ele>
        <time>2022-10-19T08:58:25.410Z</time>
      </trkpt>
      <trkpt lat="43.53023" lon="5.61866">
        <ele>801</ele>
        <time>2022-10-19T08:58:26.410Z</time>
      </trkpt>
      <trkpt lat="43.53023" lon="5.61866">
        <ele>801</ele>
        <time>2022-10-19T08:58:27.410Z</time>
      </trkpt>
      <trkpt lat="43.53023" lon="5.61866">
        <ele>801</ele>
        <time>2022-10-19T08:58:28.410Z</time>
      </trkpt>
      <trkpt lat="43.53023" lon="5.61865">
        <ele>801</ele>
        <time>2022-10-19T08:58:29.410Z</time>
      </trkpt>
      <trkpt lat="43.53023" lon="5.61865">
        <ele>801</ele>
        <time>2022-10-19T08:58:30.410Z</time>
      </trkpt>
      <trkpt lat="43.53023" lon="5.61865">
        <ele>801</ele>
        <time>2022-10-19T08:58:31.410Z</time>
      </trkpt>
      <trkpt lat="43.53023" lon="5.61866">
        <ele>801</ele>
        <time>2022-10-19T08:58:32.410Z</time>
      </trkpt>
      <trkpt lat="43.53023" lon="5.61866">
        <ele>801</ele>
        <time>2022-10-19T08:58:33.410Z</time>
      </trkpt>
      <trkpt lat="43.53023" lon="5.61866">
        <ele>801</ele>
        <time>2022-10-19T08:58:34.410Z</time>
      </trkpt>
      <trkpt lat="43.53023" lon="5.61866">
        <ele>801</ele>
        <time>2022-10-19T08:58:35.410Z</time>
      </trkpt>
      <trkpt lat="43.53023" lon="5.61866">
        <ele>801</ele>
        <time>2022-10-19T08:58:36.410Z</time>
      </trkpt>
      <trkpt lat="43.53023" lon="5.61866">
        <ele>801</ele>
        <time>2022-10-19T08:58:37.410Z</time>
      </trkpt>
      <trkpt lat="43.53023" lon="5.61866">
        <ele>801</ele>
        <time>2022-10-19T08:58:38.410Z</time>
      </trkpt>
      <trkpt lat="43.53023" lon="5.61866">
        <ele>801</ele>
        <time>2022-10-19T08:58:39.410Z</time>
      </trkpt>
      <trkpt lat="43.53023" lon="5.61866">
        <ele>801</ele>
        <time>2022-10-19T08:58:40.410Z</time>
      </trkpt>
      <trkpt lat="43.53023" lon="5.61866">
        <ele>801</ele>
        <time>2022-10-19T08:58:41.410Z</time>
      </trkpt>
      <trkpt lat="43.53023" lon="5.61866">
        <ele>801</ele>
        <time>2022-10-19T08:58:42.410Z</time>
      </trkpt>
      <trkpt lat="43.53023" lon="5.61866">
        <ele>801</ele>
        <time>2022-10-19T08:58:43.410Z</time>
      </trkpt>
      <trkpt lat="43.53023" lon="5.61866">
        <ele>801</ele>
        <time>2022-10-19T08:58:44.410Z</time>
      </trkpt>
      <trkpt lat="43.53023" lon="5.61866">
        <ele>801</ele>
        <time>2022-10-19T08:58:45.410Z</time>
      </trkpt>
      <trkpt lat="43.53023" lon="5.61866">
        <ele>801</ele>
        <time>2022-10-19T08:58:46.410Z</time>
      </trkpt>
      <trkpt lat="43.53023" lon="5.61866">
        <ele>801</ele>
        <time>2022-10-19T08:58:47.410Z</time>
      </trkpt>
      <trkpt lat="43.53023" lon="5.61866">
        <ele>801</ele>
        <time>2022-10-19T08:58:48.410Z</time>
      </trkpt>
      <trkpt lat="43.53023" lon="5.61866">
        <ele>801</ele>
        <time>2022-10-19T08:58:49.410Z</time>
      </trkpt>
      <trkpt lat="43.53023" lon="5.61866">
        <ele>801</ele>
        <time>2022-10-19T08:58:50.410Z</time>
      </trkpt>
      <trkpt lat="43.53023" lon="5.61866">
        <ele>801</ele>
        <time>2022-10-19T08:58:51.410Z</time>
      </trkpt>
      <trkpt lat="43.53023" lon="5.61866">
        <ele>801</ele>
        <time>2022-10-19T08:58:52.410Z</time>
      </trkpt>
      <trkpt lat="43.53023" lon="5.61866">
        <ele>801</ele>
        <time>2022-10-19T08:58:53.410Z</time>
      </trkpt>
      <trkpt lat="43.53023" lon="5.61866">
        <ele>801</ele>
        <time>2022-10-19T08:58:54.410Z</time>
      </trkpt>
      <trkpt lat="43.53023" lon="5.61866">
        <ele>801</ele>
        <time>2022-10-19T08:58:55.410Z</time>
      </trkpt>
      <trkpt lat="43.53023" lon="5.61866">
        <ele>801</ele>
        <time>2022-10-19T08:58:56.410Z</time>
      </trkpt>
      <trkpt lat="43.53023" lon="5.61866">
        <ele>801</ele>
        <time>2022-10-19T08:58:57.410Z</time>
      </trkpt>
      <trkpt lat="43.53023" lon="5.61866">
        <ele>801</ele>
        <time>2022-10-19T08:58:58.410Z</time>
      </trkpt>
      <trkpt lat="43.53023" lon="5.61866">
        <ele>801</ele>
        <time>2022-10-19T08:58:59.410Z</time>
      </trkpt>
      <trkpt lat="43.53023" lon="5.61866">
        <ele>801</ele>
        <time>2022-10-19T08:59:00.410Z</time>
      </trkpt>
      <trkpt lat="43.53023" lon="5.61866">
        <ele>801</ele>
        <time>2022-10-19T08:59:01.410Z</time>
      </trkpt>
      <trkpt lat="43.53023" lon="5.61866">
        <ele>801</ele>
        <time>2022-10-19T08:59:02.410Z</time>
      </trkpt>
      <trkpt lat="43.53023" lon="5.61866">
        <ele>801</ele>
        <time>2022-10-19T08:59:03.410Z</time>
      </trkpt>
      <trkpt lat="43.53023" lon="5.61866">
        <ele>801</ele>
        <time>2022-10-19T08:59:04.410Z</time>
      </trkpt>
      <trkpt lat="43.53024" lon="5.61866">
        <ele>801</ele>
        <time>2022-10-19T08:59:05.410Z</time>
      </trkpt>
      <trkpt lat="43.53024" lon="5.61866">
        <ele>801</ele>
        <time>2022-10-19T08:59:06.410Z</time>
      </trkpt>
      <trkpt lat="43.53024" lon="5.61866">
        <ele>801</ele>
        <time>2022-10-19T08:59:07.410Z</time>
      </trkpt>
      <trkpt lat="43.53024" lon="5.61866">
        <ele>801</ele>
        <time>2022-10-19T08:59:08.410Z</time>
      </trkpt>
      <trkpt lat="43.53024" lon="5.61866">
        <ele>801</ele>
        <time>2022-10-19T08:59:09.410Z</time>
      </trkpt>
      <trkpt lat="43.53024" lon="5.61866">
        <ele>801</ele>
        <time>2022-10-19T08:59:10.410Z</time>
      </trkpt>
      <trkpt lat="43.53024" lon="5.61866">
        <ele>800</ele>
        <time>2022-10-19T08:59:11.410Z</time>
      </trkpt>
      <trkpt lat="43.53024" lon="5.61866">
        <ele>800</ele>
        <time>2022-10-19T08:59:12.410Z</time>
      </trkpt>
      <trkpt lat="43.53024" lon="5.61866">
        <ele>800</ele>
        <time>2022-10-19T08:59:13.410Z</time>
      </trkpt>
      <trkpt lat="43.53024" lon="5.61866">
        <ele>800</ele>
        <time>2022-10-19T08:59:14.410Z</time>
      </trkpt>
      <trkpt lat="43.53024" lon="5.61866">
        <ele>800</ele>
        <time>2022-10-19T08:59:15.410Z</time>
      </trkpt>
      <trkpt lat="43.53024" lon="5.61866">
        <ele>800</ele>
        <time>2022-10-19T08:59:16.410Z</time>
      </trkpt>
      <trkpt lat="43.53024" lon="5.61866">
        <ele>800</ele>
        <time>2022-10-19T08:59:17.410Z</time>
      </trkpt>
      <trkpt lat="43.53024" lon="5.61866">
        <ele>800</ele>
        <time>2022-10-19T08:59:18.410Z</time>
      </trkpt>
      <trkpt lat="43.53024" lon="5.61866">
        <ele>800</ele>
        <time>2022-10-19T08:59:19.410Z</time>
      </trkpt>
      <trkpt lat="43.53024" lon="5.61866">
        <ele>800</ele>
        <time>2022-10-19T08:59:20.410Z</time>
      </trkpt>
      <trkpt lat="43.53024" lon="5.61866">
        <ele>800</ele>
        <time>2022-10-19T08:59:21.410Z</time>
      </trkpt>
      <trkpt lat="43.53024" lon="5.61866">
        <ele>800</ele>
        <time>2022-10-19T08:59:22.410Z</time>
      </trkpt>
      <trkpt lat="43.53024" lon="5.61866">
        <ele>800</ele>
        <time>2022-10-19T08:59:23.410Z</time>
      </trkpt>
      <trkpt lat="43.53024" lon="5.61866">
        <ele>800</ele>
        <time>2022-10-19T08:59:24.410Z</time>
      </trkpt>
      <trkpt lat="43.53024" lon="5.61866">
        <ele>800</ele>
        <time>2022-10-19T08:59:25.410Z</time>
      </trkpt>
      <trkpt lat="43.53024" lon="5.61866">
        <ele>800</ele>
        <time>2022-10-19T08:59:26.410Z</time>
      </trkpt>
      <trkpt lat="43.53024" lon="5.61866">
        <ele>800</ele>
        <time>2022-10-19T08:59:27.410Z</time>
      </trkpt>
      <trkpt lat="43.53024" lon="5.61866">
        <ele>800</ele>
        <time>2022-10-19T08:59:28.410Z</time>
      </trkpt>
      <trkpt lat="43.53024" lon="5.61866">
        <ele>800</ele>
        <time>2022-10-19T08:59:29.410Z</time>
      </trkpt>
      <trkpt lat="43.53024" lon="5.61866">
        <ele>800</ele>
        <time>2022-10-19T08:59:30.410Z</time>
      </trkpt>
      <trkpt lat="43.53024" lon="5.61866">
        <ele>800</ele>
        <time>2022-10-19T08:59:31.410Z</time>
      </trkpt>
      <trkpt lat="43.53024" lon="5.61866">
        <ele>800</ele>
        <time>2022-10-19T08:59:32.410Z</time>
      </trkpt>
      <trkpt lat="43.53024" lon="5.61866">
        <ele>800</ele>
        <time>2022-10-19T08:59:33.410Z</time>
      </trkpt>
      <trkpt lat="43.53024" lon="5.61866">
        <ele>800</ele>
        <time>2022-10-19T08:59:34.410Z</time>
      </trkpt>
      <trkpt lat="43.53024" lon="5.61866">
        <ele>800</ele>
        <time>2022-10-19T08:59:35.410Z</time>
      </trkpt>
      <trkpt lat="43.53024" lon="5.61866">
        <ele>800</ele>
        <time>2022-10-19T08:59:36.410Z</time>
      </trkpt>
      <trkpt lat="43.53024" lon="5.61866">
        <ele>800</ele>
        <time>2022-10-19T08:59:37.410Z</time>
      </trkpt>
      <trkpt lat="43.53024" lon="5.61866">
        <ele>800</ele>
        <time>2022-10-19T08:59:38.410Z</time>
      </trkpt>
      <trkpt lat="43.53024" lon="5.61866">
        <ele>800</ele>
        <time>2022-10-19T08:59:39.410Z</time>
      </trkpt>
      <trkpt lat="43.53024" lon="5.61866">
        <ele>800</ele>
        <time>2022-10-19T08:59:40.410Z</time>
      </trkpt>
      <trkpt lat="43.53024" lon="5.61866">
        <ele>800</ele>
        <time>2022-10-19T08:59:41.410Z</time>
      </trkpt>
      <trkpt lat="43.53024" lon="5.61866">
        <ele>800</ele>
        <time>2022-10-19T08:59:42.410Z</time>
      </trkpt>
      <trkpt lat="43.53024" lon="5.61866">
        <ele>800</ele>
        <time>2022-10-19T08:59:43.410Z</time>
      </trkpt>
      <trkpt lat="43.53024" lon="5.61866">
        <ele>800</ele>
        <time>2022-10-19T08:59:44.410Z</time>
      </trkpt>
      <trkpt lat="43.53024" lon="5.61866">
        <ele>800</ele>
        <time>2022-10-19T08:59:45.410Z</time>
      </trkpt>
      <trkpt lat="43.53024" lon="5.61866">
        <ele>800</ele>
        <time>2022-10-19T08:59:46.410Z</time>
      </trkpt>
      <trkpt lat="43.53024" lon="5.61866">
        <ele>800</ele>
        <time>2022-10-19T08:59:47.410Z</time>
      </trkpt>
      <trkpt lat="43.53024" lon="5.61866">
        <ele>800</ele>
        <time>2022-10-19T08:59:48.410Z</time>
      </trkpt>
      <trkpt lat="43.53024" lon="5.61866">
        <ele>800</ele>
        <time>2022-10-19T08:59:49.410Z</time>
      </trkpt>
      <trkpt lat="43.53024" lon="5.61866">
        <ele>800</ele>
        <time>2022-10-19T08:59:50.410Z</time>
      </trkpt>
      <trkpt lat="43.53024" lon="5.61866">
        <ele>800</ele>
        <time>2022-10-19T08:59:51.410Z</time>
      </trkpt>
      <trkpt lat="43.53024" lon="5.61865">
        <ele>800</ele>
        <time>2022-10-19T08:59:52.410Z</time>
      </trkpt>
      <trkpt lat="43.53024" lon="5.61865">
        <ele>800</ele>
        <time>2022-10-19T08:59:53.410Z</time>
      </trkpt>
      <trkpt lat="43.53024" lon="5.61865">
        <ele>800</ele>
        <time>2022-10-19T08:59:54.410Z</time>
      </trkpt>
      <trkpt lat="43.53024" lon="5.61865">
        <ele>800</ele>
        <time>2022-10-19T08:59:55.410Z</time>
      </trkpt>
      <trkpt lat="43.53024" lon="5.61866">
        <ele>800</ele>
        <time>2022-10-19T08:59:56.410Z</time>
      </trkpt>
      <trkpt lat="43.53024" lon="5.61866">
        <ele>800</ele>
        <time>2022-10-19T08:59:57.410Z</time>
      </trkpt>
      <trkpt lat="43.53024" lon="5.61866">
        <ele>800</ele>
        <time>2022-10-19T08:59:58.410Z</time>
      </trkpt>
      <trkpt lat="43.53024" lon="5.61866">
        <ele>800</ele>
        <time>2022-10-19T08:59:59.410Z</time>
      </trkpt>
      <trkpt lat="43.53024" lon="5.61866">
        <ele>800</ele>
        <time>2022-10-19T09:00:00.410Z</time>
      </trkpt>
      <trkpt lat="43.53024" lon="5.61866">
        <ele>800</ele>
        <time>2022-10-19T09:00:01.410Z</time>
      </trkpt>
      <trkpt lat="43.53024" lon="5.61866">
        <ele>800</ele>
        <time>2022-10-19T09:00:02.410Z</time>
      </trkpt>
      <trkpt lat="43.53024" lon="5.61866">
        <ele>800</ele>
        <time>2022-10-19T09:00:03.410Z</time>
      </trkpt>
      <trkpt lat="43.53024" lon="5.61866">
        <ele>800</ele>
        <time>2022-10-19T09:00:04.410Z</time>
      </trkpt>
      <trkpt lat="43.53024" lon="5.61866">
        <ele>800</ele>
        <time>2022-10-19T09:00:05.410Z</time>
      </trkpt>
      <trkpt lat="43.53024" lon="5.61866">
        <ele>800</ele>
        <time>2022-10-19T09:00:06.410Z</time>
      </trkpt>
      <trkpt lat="43.53024" lon="5.61866">
        <ele>800</ele>
        <time>2022-10-19T09:00:07.410Z</time>
      </trkpt>
      <trkpt lat="43.53024" lon="5.61866">
        <ele>800</ele>
        <time>2022-10-19T09:00:08.410Z</time>
      </trkpt>
      <trkpt lat="43.53024" lon="5.61866">
        <ele>800</ele>
        <time>2022-10-19T09:00:09.410Z</time>
      </trkpt>
      <trkpt lat="43.53024" lon="5.61866">
        <ele>800</ele>
        <time>2022-10-19T09:00:10.410Z</time>
      </trkpt>
      <trkpt lat="43.53024" lon="5.61866">
        <ele>800</ele>
        <time>2022-10-19T09:00:11.410Z</time>
      </trkpt>
      <trkpt lat="43.53024" lon="5.61866">
        <ele>800</ele>
        <time>2022-10-19T09:00:12.410Z</time>
      </trkpt>
      <trkpt lat="43.53024" lon="5.61866">
        <ele>800</ele>
        <time>2022-10-19T09:00:13.410Z</time>
      </trkpt>
      <trkpt lat="43.53024" lon="5.61866">
        <ele>800</ele>
        <time>2022-10-19T09:00:14.410Z</time>
      </trkpt>
      <trkpt lat="43.53024" lon="5.61866">
        <ele>800</ele>
        <time>2022-10-19T09:00:15.410Z</time>
      </trkpt>
      <trkpt lat="43.53024" lon="5.61866">
        <ele>800</ele>
        <time>2022-10-19T09:00:16.410Z</time>
      </trkpt>
      <trkpt lat="43.53024" lon="5.61866">
        <ele>800</ele>
        <time>2022-10-19T09:00:17.410Z</time>
      </trkpt>
      <trkpt lat="43.53024" lon="5.61866">
        <ele>800</ele>
        <time>2022-10-19T09:00:18.410Z</time>
      </trkpt>
      <trkpt lat="43.53024" lon="5.61866">
        <ele>800</ele>
        <time>2022-10-19T09:00:19.410Z</time>
      </trkpt>
      <trkpt lat="43.53024" lon="5.61866">
        <ele>800</ele>
        <time>2022-10-19T09:00:20.410Z</time>
      </trkpt>
      <trkpt lat="43.53024" lon="5.61866">
        <ele>800</ele>
        <time>2022-10-19T09:00:21.410Z</time>
      </trkpt>
      <trkpt lat="43.53024" lon="5.61866">
        <ele>800</ele>
        <time>2022-10-19T09:00:22.410Z</time>
      </trkpt>
      <trkpt lat="43.53024" lon="5.61866">
        <ele>800</ele>
        <time>2022-10-19T09:00:23.410Z</time>
      </trkpt>
      <trkpt lat="43.53024" lon="5.61866">
        <ele>800</ele>
        <time>2022-10-19T09:00:24.410Z</time>
      </trkpt>
      <trkpt lat="43.53024" lon="5.61866">
        <ele>800</ele>
        <time>2022-10-19T09:00:25.410Z</time>
      </trkpt>
      <trkpt lat="43.53024" lon="5.61866">
        <ele>800</ele>
        <time>2022-10-19T09:00:26.410Z</time>
      </trkpt>
      <trkpt lat="43.53024" lon="5.61866">
        <ele>800</ele>
        <time>2022-10-19T09:00:27.410Z</time>
      </trkpt>
      <trkpt lat="43.53024" lon="5.61866">
        <ele>800</ele>
        <time>2022-10-19T09:00:28.410Z</time>
      </trkpt>
      <trkpt lat="43.53024" lon="5.61866">
        <ele>800</ele>
        <time>2022-10-19T09:00:29.410Z</time>
      </trkpt>
      <trkpt lat="43.53024" lon="5.61866">
        <ele>800</ele>
        <time>2022-10-19T09:00:30.410Z</time>
      </trkpt>
      <trkpt lat="43.53024" lon="5.61866">
        <ele>800</ele>
        <time>2022-10-19T09:00:31.410Z</time>
      </trkpt>
      <trkpt lat="43.53024" lon="5.61866">
        <ele>800</ele>
        <time>2022-10-19T09:00:32.410Z</time>
      </trkpt>
      <trkpt lat="43.53024" lon="5.61866">
        <ele>800</ele>
        <time>2022-10-19T09:00:33.410Z</time>
      </trkpt>
      <trkpt lat="43.53024" lon="5.61866">
        <ele>800</ele>
        <time>2022-10-19T09:00:34.410Z</time>
      </trkpt>
      <trkpt lat="43.53024" lon="5.61866">
        <ele>800</ele>
        <time>2022-10-19T09:00:35.410Z</time>
      </trkpt>
      <trkpt lat="43.53024" lon="5.61866">
        <ele>800</ele>
        <time>2022-10-19T09:00:36.410Z</time>
      </trkpt>
      <trkpt lat="43.53024" lon="5.61866">
        <ele>800</ele>
        <time>2022-10-19T09:00:37.410Z</time>
      </trkpt>
      <trkpt lat="43.53024" lon="5.61866">
        <ele>800</ele>
        <time>2022-10-19T09:00:38.410Z</time>
      </trkpt>
      <trkpt lat="43.53024" lon="5.61866">
        <ele>800</ele>
        <time>2022-10-19T09:00:39.410Z</time>
      </trkpt>
      <trkpt lat="43.53024" lon="5.61866">
        <ele>800</ele>
        <time>2022-10-19T09:00:40.410Z</time>
      </trkpt>
      <trkpt lat="43.53024" lon="5.61866">
        <ele>800</ele>
        <time>2022-10-19T09:00:41.410Z</time>
      </trkpt>
      <trkpt lat="43.53024" lon="5.61866">
        <ele>800</ele>
        <time>2022-10-19T09:00:42.410Z</time>
      </trkpt>
      <trkpt lat="43.53024" lon="5.61866">
        <ele>800</ele>
        <time>2022-10-19T09:00:43.410Z</time>
      </trkpt>
      <trkpt lat="43.53024" lon="5.61866">
        <ele>800</ele>
        <time>2022-10-19T09:00:44.410Z</time>
      </trkpt>
      <trkpt lat="43.53024" lon="5.61866">
        <ele>800</ele>
        <time>2022-10-19T09:00:45.410Z</time>
      </trkpt>
      <trkpt lat="43.53024" lon="5.61866">
        <ele>800</ele>
        <time>2022-10-19T09:00:46.410Z</time>
      </trkpt>
      <trkpt lat="43.53024" lon="5.61866">
        <ele>800</ele>
        <time>2022-10-19T09:00:47.410Z</time>
      </trkpt>
      <trkpt lat="43.53024" lon="5.61866">
        <ele>800</ele>
        <time>2022-10-19T09:00:48.410Z</time>
      </trkpt>
      <trkpt lat="43.53024" lon="5.61866">
        <ele>800</ele>
        <time>2022-10-19T09:00:49.410Z</time>
      </trkpt>
      <trkpt lat="43.53024" lon="5.61866">
        <ele>800</ele>
        <time>2022-10-19T09:00:50.410Z</time>
      </trkpt>
      <trkpt lat="43.53024" lon="5.61866">
        <ele>800</ele>
        <time>2022-10-19T09:00:51.410Z</time>
      </trkpt>
      <trkpt lat="43.53024" lon="5.61866">
        <ele>800</ele>
        <time>2022-10-19T09:00:52.410Z</time>
      </trkpt>
      <trkpt lat="43.53024" lon="5.61866">
        <ele>800</ele>
        <time>2022-10-19T09:00:53.410Z</time>
      </trkpt>
      <trkpt lat="43.53024" lon="5.61866">
        <ele>800</ele>
        <time>2022-10-19T09:00:54.410Z</time>
      </trkpt>
      <trkpt lat="43.53024" lon="5.61866">
        <ele>800</ele>
        <time>2022-10-19T09:00:55.410Z</time>
      </trkpt>
      <trkpt lat="43.53024" lon="5.61866">
        <ele>800</ele>
        <time>2022-10-19T09:00:56.410Z</time>
      </trkpt>
      <trkpt lat="43.53024" lon="5.61866">
        <ele>800</ele>
        <time>2022-10-19T09:00:57.410Z</time>
      </trkpt>
      <trkpt lat="43.53024" lon="5.61867">
        <ele>800</ele>
        <time>2022-10-19T09:00:58.410Z</time>
      </trkpt>
      <trkpt lat="43.53024" lon="5.61867">
        <ele>800</ele>
        <time>2022-10-19T09:00:59.410Z</time>
      </trkpt>
      <trkpt lat="43.53024" lon="5.61866">
        <ele>800</ele>
        <time>2022-10-19T09:01:00.410Z</time>
      </trkpt>
      <trkpt lat="43.53023" lon="5.61866">
        <ele>800</ele>
        <time>2022-10-19T09:01:01.410Z</time>
      </trkpt>
      <trkpt lat="43.53023" lon="5.61866">
        <ele>800</ele>
        <time>2022-10-19T09:01:02.410Z</time>
      </trkpt>
      <trkpt lat="43.53023" lon="5.61867">
        <ele>800</ele>
        <time>2022-10-19T09:01:03.410Z</time>
      </trkpt>
      <trkpt lat="43.53023" lon="5.61867">
        <ele>800</ele>
        <time>2022-10-19T09:01:04.410Z</time>
      </trkpt>
      <trkpt lat="43.53023" lon="5.61867">
        <ele>800</ele>
        <time>2022-10-19T09:01:05.410Z</time>
      </trkpt>
      <trkpt lat="43.53023" lon="5.61867">
        <ele>800</ele>
        <time>2022-10-19T09:01:06.410Z</time>
      </trkpt>
      <trkpt lat="43.53023" lon="5.61867">
        <ele>800</ele>
        <time>2022-10-19T09:01:07.410Z</time>
      </trkpt>
      <trkpt lat="43.53023" lon="5.61867">
        <ele>800</ele>
        <time>2022-10-19T09:01:08.410Z</time>
      </trkpt>
      <trkpt lat="43.53023" lon="5.61867">
        <ele>800</ele>
        <time>2022-10-19T09:01:09.410Z</time>
      </trkpt>
      <trkpt lat="43.53023" lon="5.61867">
        <ele>800</ele>
        <time>2022-10-19T09:01:10.410Z</time>
      </trkpt>
      <trkpt lat="43.53023" lon="5.61866">
        <ele>800</ele>
        <time>2022-10-19T09:01:11.410Z</time>
      </trkpt>
      <trkpt lat="43.53023" lon="5.61866">
        <ele>800</ele>
        <time>2022-10-19T09:01:12.410Z</time>
      </trkpt>
      <trkpt lat="43.53023" lon="5.61866">
        <ele>800</ele>
        <time>2022-10-19T09:01:13.410Z</time>
      </trkpt>
      <trkpt lat="43.53023" lon="5.61866">
        <ele>800</ele>
        <time>2022-10-19T09:01:14.410Z</time>
      </trkpt>
      <trkpt lat="43.53023" lon="5.61866">
        <ele>800</ele>
        <time>2022-10-19T09:01:15.410Z</time>
      </trkpt>
      <trkpt lat="43.53023" lon="5.61866">
        <ele>800</ele>
        <time>2022-10-19T09:01:16.410Z</time>
      </trkpt>
      <trkpt lat="43.53023" lon="5.61866">
        <ele>800</ele>
        <time>2022-10-19T09:01:17.410Z</time>
      </trkpt>
      <trkpt lat="43.53023" lon="5.61866">
        <ele>800</ele>
        <time>2022-10-19T09:01:18.410Z</time>
      </trkpt>
      <trkpt lat="43.53023" lon="5.61867">
        <ele>800</ele>
        <time>2022-10-19T09:01:19.410Z</time>
      </trkpt>
      <trkpt lat="43.53022" lon="5.61867">
        <ele>800</ele>
        <time>2022-10-19T09:01:20.410Z</time>
      </trkpt>
      <trkpt lat="43.53022" lon="5.61867">
        <ele>800</ele>
        <time>2022-10-19T09:01:21.410Z</time>
      </trkpt>
      <trkpt lat="43.53022" lon="5.61867">
        <ele>800</ele>
        <time>2022-10-19T09:01:22.410Z</time>
      </trkpt>
      <trkpt lat="43.53022" lon="5.61867">
        <ele>800</ele>
        <time>2022-10-19T09:01:23.410Z</time>
      </trkpt>
      <trkpt lat="43.53022" lon="5.61867">
        <ele>800</ele>
        <time>2022-10-19T09:01:24.410Z</time>
      </trkpt>
      <trkpt lat="43.53022" lon="5.61867">
        <ele>800</ele>
        <time>2022-10-19T09:01:25.410Z</time>
      </trkpt>
      <trkpt lat="43.53022" lon="5.61867">
        <ele>800</ele>
        <time>2022-10-19T09:01:26.410Z</time>
      </trkpt>
      <trkpt lat="43.53022" lon="5.61867">
        <ele>800</ele>
        <time>2022-10-19T09:01:27.410Z</time>
      </trkpt>
      <trkpt lat="43.53022" lon="5.61867">
        <ele>800</ele>
        <time>2022-10-19T09:01:28.410Z</time>
      </trkpt>
      <trkpt lat="43.53022" lon="5.61867">
        <ele>800</ele>
        <time>2022-10-19T09:01:29.410Z</time>
      </trkpt>
      <trkpt lat="43.53022" lon="5.61867">
        <ele>800</ele>
        <time>2022-10-19T09:01:30.410Z</time>
      </trkpt>
      <trkpt lat="43.53022" lon="5.61867">
        <ele>800</ele>
        <time>2022-10-19T09:01:31.410Z</time>
      </trkpt>
      <trkpt lat="43.53022" lon="5.61867">
        <ele>800</ele>
        <time>2022-10-19T09:01:32.410Z</time>
      </trkpt>
      <trkpt lat="43.53022" lon="5.61867">
        <ele>800</ele>
        <time>2022-10-19T09:01:33.410Z</time>
      </trkpt>
      <trkpt lat="43.53022" lon="5.61867">
        <ele>800</ele>
        <time>2022-10-19T09:01:34.410Z</time>
      </trkpt>
      <trkpt lat="43.53022" lon="5.61867">
        <ele>800</ele>
        <time>2022-10-19T09:01:35.410Z</time>
      </trkpt>
      <trkpt lat="43.53022" lon="5.61867">
        <ele>800</ele>
        <time>2022-10-19T09:01:36.410Z</time>
      </trkpt>
      <trkpt lat="43.53022" lon="5.61867">
        <ele>800</ele>
        <time>2022-10-19T09:01:37.410Z</time>
      </trkpt>
      <trkpt lat="43.53022" lon="5.61867">
        <ele>800</ele>
        <time>2022-10-19T09:01:38.410Z</time>
      </trkpt>
      <trkpt lat="43.53022" lon="5.61867">
        <ele>800</ele>
        <time>2022-10-19T09:01:39.410Z</time>
      </trkpt>
      <trkpt lat="43.53022" lon="5.61867">
        <ele>800</ele>
        <time>2022-10-19T09:01:40.410Z</time>
      </trkpt>
      <trkpt lat="43.53022" lon="5.61867">
        <ele>800</ele>
        <time>2022-10-19T09:01:41.410Z</time>
      </trkpt>
      <trkpt lat="43.53022" lon="5.61867">
        <ele>800</ele>
        <time>2022-10-19T09:01:42.410Z</time>
      </trkpt>
      <trkpt lat="43.53023" lon="5.61867">
        <ele>800</ele>
        <time>2022-10-19T09:01:43.410Z</time>
      </trkpt>
      <trkpt lat="43.53023" lon="5.61867">
        <ele>800</ele>
        <time>2022-10-19T09:01:44.410Z</time>
      </trkpt>
      <trkpt lat="43.53023" lon="5.61867">
        <ele>800</ele>
        <time>2022-10-19T09:01:45.410Z</time>
      </trkpt>
      <trkpt lat="43.53023" lon="5.61867">
        <ele>800</ele>
        <time>2022-10-19T09:01:46.410Z</time>
      </trkpt>
      <trkpt lat="43.53023" lon="5.61867">
        <ele>800</ele>
        <time>2022-10-19T09:01:47.410Z</time>
      </trkpt>
      <trkpt lat="43.53023" lon="5.61867">
        <ele>800</ele>
        <time>2022-10-19T09:01:48.410Z</time>
      </trkpt>
      <trkpt lat="43.53023" lon="5.61867">
        <ele>800</ele>
        <time>2022-10-19T09:01:49.410Z</time>
      </trkpt>
      <trkpt lat="43.53023" lon="5.61867">
        <ele>800</ele>
        <time>2022-10-19T09:01:50.410Z</time>
      </trkpt>
      <trkpt lat="43.53023" lon="5.61867">
        <ele>800</ele>
        <time>2022-10-19T09:01:51.410Z</time>
      </trkpt>
      <trkpt lat="43.53023" lon="5.61867">
        <ele>800</ele>
        <time>2022-10-19T09:01:52.410Z</time>
      </trkpt>
      <trkpt lat="43.53023" lon="5.61867">
        <ele>800</ele>
        <time>2022-10-19T09:01:53.410Z</time>
      </trkpt>
      <trkpt lat="43.53023" lon="5.61867">
        <ele>800</ele>
        <time>2022-10-19T09:01:54.410Z</time>
      </trkpt>
      <trkpt lat="43.53023" lon="5.61867">
        <ele>800</ele>
        <time>2022-10-19T09:01:55.410Z</time>
      </trkpt>
      <trkpt lat="43.53023" lon="5.61867">
        <ele>800</ele>
        <time>2022-10-19T09:01:56.410Z</time>
      </trkpt>
      <trkpt lat="43.53023" lon="5.61867">
        <ele>800</ele>
        <time>2022-10-19T09:01:57.410Z</time>
      </trkpt>
      <trkpt lat="43.53023" lon="5.61867">
        <ele>800</ele>
        <time>2022-10-19T09:01:58.410Z</time>
      </trkpt>
      <trkpt lat="43.53023" lon="5.61867">
        <ele>800</ele>
        <time>2022-10-19T09:01:59.410Z</time>
      </trkpt>
      <trkpt lat="43.53022" lon="5.61867">
        <ele>800</ele>
        <time>2022-10-19T09:02:00.410Z</time>
      </trkpt>
      <trkpt lat="43.53022" lon="5.61867">
        <ele>800</ele>
        <time>2022-10-19T09:02:01.410Z</time>
      </trkpt>
      <trkpt lat="43.53022" lon="5.61868">
        <ele>800</ele>
        <time>2022-10-19T09:02:02.410Z</time>
      </trkpt>
      <trkpt lat="43.53023" lon="5.61868">
        <ele>800</ele>
        <time>2022-10-19T09:02:03.410Z</time>
      </trkpt>
      <trkpt lat="43.53023" lon="5.61868">
        <ele>800</ele>
        <time>2022-10-19T09:02:04.410Z</time>
      </trkpt>
      <trkpt lat="43.53023" lon="5.61868">
        <ele>800</ele>
        <time>2022-10-19T09:02:05.410Z</time>
      </trkpt>
      <trkpt lat="43.53023" lon="5.61868">
        <ele>800</ele>
        <time>2022-10-19T09:02:06.410Z</time>
      </trkpt>
      <trkpt lat="43.53023" lon="5.61868">
        <ele>800</ele>
        <time>2022-10-19T09:02:07.410Z</time>
      </trkpt>
      <trkpt lat="43.53023" lon="5.61868">
        <ele>800</ele>
        <time>2022-10-19T09:02:08.410Z</time>
      </trkpt>
      <trkpt lat="43.53023" lon="5.61868">
        <ele>800</ele>
        <time>2022-10-19T09:02:09.410Z</time>
      </trkpt>
      <trkpt lat="43.53023" lon="5.61868">
        <ele>800</ele>
        <time>2022-10-19T09:02:10.410Z</time>
      </trkpt>
      <trkpt lat="43.53023" lon="5.61868">
        <ele>800</ele>
        <time>2022-10-19T09:02:11.410Z</time>
      </trkpt>
      <trkpt lat="43.53023" lon="5.61867">
        <ele>800</ele>
        <time>2022-10-19T09:02:12.410Z</time>
      </trkpt>
      <trkpt lat="43.53023" lon="5.61867">
        <ele>800</ele>
        <time>2022-10-19T09:02:13.410Z</time>
      </trkpt>
      <trkpt lat="43.53023" lon="5.61867">
        <ele>800</ele>
        <time>2022-10-19T09:02:14.410Z</time>
      </trkpt>
      <trkpt lat="43.53023" lon="5.61867">
        <ele>800</ele>
        <time>2022-10-19T09:02:15.410Z</time>
      </trkpt>
      <trkpt lat="43.53023" lon="5.61867">
        <ele>800</ele>
        <time>2022-10-19T09:02:16.410Z</time>
      </trkpt>
      <trkpt lat="43.53023" lon="5.61867">
        <ele>800</ele>
        <time>2022-10-19T09:02:17.410Z</time>
      </trkpt>
      <trkpt lat="43.53023" lon="5.61867">
        <ele>800</ele>
        <time>2022-10-19T09:02:18.410Z</time>
      </trkpt>
      <trkpt lat="43.53023" lon="5.61867">
        <ele>800</ele>
        <time>2022-10-19T09:02:19.410Z</time>
      </trkpt>
      <trkpt lat="43.53023" lon="5.61867">
        <ele>800</ele>
        <time>2022-10-19T09:02:20.410Z</time>
      </trkpt>
      <trkpt lat="43.53024" lon="5.61867">
        <ele>800</ele>
        <time>2022-10-19T09:02:21.410Z</time>
      </trkpt>
      <trkpt lat="43.53024" lon="5.61867">
        <ele>800</ele>
        <time>2022-10-19T09:02:22.410Z</time>
      </trkpt>
      <trkpt lat="43.53024" lon="5.61867">
        <ele>800</ele>
        <time>2022-10-19T09:02:23.410Z</time>
      </trkpt>
      <trkpt lat="43.53024" lon="5.61867">
        <ele>800</ele>
        <time>2022-10-19T09:02:24.410Z</time>
      </trkpt>
      <trkpt lat="43.53024" lon="5.61867">
        <ele>800</ele>
        <time>2022-10-19T09:02:25.410Z</time>
      </trkpt>
      <trkpt lat="43.53024" lon="5.61867">
        <ele>801</ele>
        <time>2022-10-19T09:02:26.410Z</time>
      </trkpt>
      <trkpt lat="43.53024" lon="5.61867">
        <ele>801</ele>
        <time>2022-10-19T09:02:27.410Z</time>
      </trkpt>
      <trkpt lat="43.53024" lon="5.61867">
        <ele>801</ele>
        <time>2022-10-19T09:02:28.410Z</time>
      </trkpt>
      <trkpt lat="43.53024" lon="5.61867">
        <ele>801</ele>
        <time>2022-10-19T09:02:29.410Z</time>
      </trkpt>
      <trkpt lat="43.53024" lon="5.61867">
        <ele>801</ele>
        <time>2022-10-19T09:02:30.410Z</time>
      </trkpt>
      <trkpt lat="43.53024" lon="5.61867">
        <ele>801</ele>
        <time>2022-10-19T09:02:31.410Z</time>
      </trkpt>
      <trkpt lat="43.53024" lon="5.61867">
        <ele>801</ele>
        <time>2022-10-19T09:02:32.410Z</time>
      </trkpt>
      <trkpt lat="43.53024" lon="5.61867">
        <ele>801</ele>
        <time>2022-10-19T09:02:33.410Z</time>
      </trkpt>
      <trkpt lat="43.53024" lon="5.61867">
        <ele>801</ele>
        <time>2022-10-19T09:02:34.410Z</time>
      </trkpt>
      <trkpt lat="43.53024" lon="5.61867">
        <ele>801</ele>
        <time>2022-10-19T09:02:35.410Z</time>
      </trkpt>
      <trkpt lat="43.53024" lon="5.61866">
        <ele>801</ele>
        <time>2022-10-19T09:02:36.410Z</time>
      </trkpt>
      <trkpt lat="43.53024" lon="5.61867">
        <ele>801</ele>
        <time>2022-10-19T09:02:37.410Z</time>
      </trkpt>
      <trkpt lat="43.53024" lon="5.61866">
        <ele>801</ele>
        <time>2022-10-19T09:02:38.410Z</time>
      </trkpt>
      <trkpt lat="43.53024" lon="5.61866">
        <ele>801</ele>
        <time>2022-10-19T09:02:39.410Z</time>
      </trkpt>
      <trkpt lat="43.53024" lon="5.61866">
        <ele>801</ele>
        <time>2022-10-19T09:02:40.410Z</time>
      </trkpt>
      <trkpt lat="43.53024" lon="5.61866">
        <ele>801</ele>
        <time>2022-10-19T09:02:41.410Z</time>
      </trkpt>
      <trkpt lat="43.53024" lon="5.61866">
        <ele>801</ele>
        <time>2022-10-19T09:02:42.410Z</time>
      </trkpt>
      <trkpt lat="43.53024" lon="5.61866">
        <ele>801</ele>
        <time>2022-10-19T09:02:43.410Z</time>
      </trkpt>
      <trkpt lat="43.53024" lon="5.61866">
        <ele>801</ele>
        <time>2022-10-19T09:02:44.410Z</time>
      </trkpt>
      <trkpt lat="43.53024" lon="5.61866">
        <ele>801</ele>
        <time>2022-10-19T09:02:45.410Z</time>
      </trkpt>
      <trkpt lat="43.53024" lon="5.61866">
        <ele>801</ele>
        <time>2022-10-19T09:02:46.410Z</time>
      </trkpt>
      <trkpt lat="43.53024" lon="5.61866">
        <ele>801</ele>
        <time>2022-10-19T09:02:47.410Z</time>
      </trkpt>
      <trkpt lat="43.53024" lon="5.61866">
        <ele>801</ele>
        <time>2022-10-19T09:02:48.410Z</time>
      </trkpt>
      <trkpt lat="43.53024" lon="5.61866">
        <ele>801</ele>
        <time>2022-10-19T09:02:49.410Z</time>
      </trkpt>
      <trkpt lat="43.53023" lon="5.61866">
        <ele>801</ele>
        <time>2022-10-19T09:02:50.410Z</time>
      </trkpt>
      <trkpt lat="43.53023" lon="5.61865">
        <ele>801</ele>
        <time>2022-10-19T09:02:51.410Z</time>
      </trkpt>
      <trkpt lat="43.53023" lon="5.61865">
        <ele>801</ele>
        <time>2022-10-19T09:02:52.410Z</time>
      </trkpt>
      <trkpt lat="43.53023" lon="5.61865">
        <ele>801</ele>
        <time>2022-10-19T09:02:53.410Z</time>
      </trkpt>
      <trkpt lat="43.53023" lon="5.61865">
        <ele>801</ele>
        <time>2022-10-19T09:02:54.410Z</time>
      </trkpt>
      <trkpt lat="43.53023" lon="5.61865">
        <ele>801</ele>
        <time>2022-10-19T09:02:55.410Z</time>
      </trkpt>
      <trkpt lat="43.53023" lon="5.61865">
        <ele>801</ele>
        <time>2022-10-19T09:02:56.410Z</time>
      </trkpt>
      <trkpt lat="43.53023" lon="5.61865">
        <ele>801</ele>
        <time>2022-10-19T09:02:57.410Z</time>
      </trkpt>
      <trkpt lat="43.53023" lon="5.61865">
        <ele>801</ele>
        <time>2022-10-19T09:02:58.410Z</time>
      </trkpt>
      <trkpt lat="43.53023" lon="5.61865">
        <ele>801</ele>
        <time>2022-10-19T09:02:59.410Z</time>
      </trkpt>
      <trkpt lat="43.53023" lon="5.61865">
        <ele>801</ele>
        <time>2022-10-19T09:03:00.410Z</time>
      </trkpt>
      <trkpt lat="43.53023" lon="5.61865">
        <ele>801</ele>
        <time>2022-10-19T09:03:01.410Z</time>
      </trkpt>
      <trkpt lat="43.53023" lon="5.61865">
        <ele>801</ele>
        <time>2022-10-19T09:03:02.410Z</time>
      </trkpt>
      <trkpt lat="43.53023" lon="5.61865">
        <ele>801</ele>
        <time>2022-10-19T09:03:03.410Z</time>
      </trkpt>
      <trkpt lat="43.53023" lon="5.61865">
        <ele>801</ele>
        <time>2022-10-19T09:03:04.410Z</time>
      </trkpt>
      <trkpt lat="43.53023" lon="5.61865">
        <ele>801</ele>
        <time>2022-10-19T09:03:05.410Z</time>
      </trkpt>
      <trkpt lat="43.53023" lon="5.61865">
        <ele>801</ele>
        <time>2022-10-19T09:03:06.410Z</time>
      </trkpt>
      <trkpt lat="43.53023" lon="5.61865">
        <ele>801</ele>
        <time>2022-10-19T09:03:07.410Z</time>
      </trkpt>
      <trkpt lat="43.53023" lon="5.61865">
        <ele>801</ele>
        <time>2022-10-19T09:03:08.410Z</time>
      </trkpt>
      <trkpt lat="43.53023" lon="5.61865">
        <ele>801</ele>
        <time>2022-10-19T09:03:09.410Z</time>
      </trkpt>
      <trkpt lat="43.53023" lon="5.61865">
        <ele>801</ele>
        <time>2022-10-19T09:03:10.410Z</time>
      </trkpt>
      <trkpt lat="43.53023" lon="5.61865">
        <ele>801</ele>
        <time>2022-10-19T09:03:11.410Z</time>
      </trkpt>
      <trkpt lat="43.53023" lon="5.61865">
        <ele>801</ele>
        <time>2022-10-19T09:03:12.410Z</time>
      </trkpt>
      <trkpt lat="43.53023" lon="5.61865">
        <ele>801</ele>
        <time>2022-10-19T09:03:13.410Z</time>
      </trkpt>
      <trkpt lat="43.53023" lon="5.61865">
        <ele>801</ele>
        <time>2022-10-19T09:03:14.410Z</time>
      </trkpt>
      <trkpt lat="43.53023" lon="5.61865">
        <ele>801</ele>
        <time>2022-10-19T09:03:15.410Z</time>
      </trkpt>
      <trkpt lat="43.53023" lon="5.61865">
        <ele>801</ele>
        <time>2022-10-19T09:03:16.410Z</time>
      </trkpt>
      <trkpt lat="43.53023" lon="5.61865">
        <ele>801</ele>
        <time>2022-10-19T09:03:17.410Z</time>
      </trkpt>
      <trkpt lat="43.53023" lon="5.61865">
        <ele>801</ele>
        <time>2022-10-19T09:03:18.410Z</time>
      </trkpt>
      <trkpt lat="43.53023" lon="5.61865">
        <ele>801</ele>
        <time>2022-10-19T09:03:19.410Z</time>
      </trkpt>
      <trkpt lat="43.53023" lon="5.61865">
        <ele>801</ele>
        <time>2022-10-19T09:03:20.410Z</time>
      </trkpt>
      <trkpt lat="43.53023" lon="5.61865">
        <ele>801</ele>
        <time>2022-10-19T09:03:21.410Z</time>
      </trkpt>
      <trkpt lat="43.53023" lon="5.61865">
        <ele>801</ele>
        <time>2022-10-19T09:03:22.410Z</time>
      </trkpt>
      <trkpt lat="43.53023" lon="5.61865">
        <ele>801</ele>
        <time>2022-10-19T09:03:23.410Z</time>
      </trkpt>
      <trkpt lat="43.53023" lon="5.61865">
        <ele>801</ele>
        <time>2022-10-19T09:03:24.410Z</time>
      </trkpt>
      <trkpt lat="43.53023" lon="5.61865">
        <ele>801</ele>
        <time>2022-10-19T09:03:25.410Z</time>
      </trkpt>
      <trkpt lat="43.53023" lon="5.61865">
        <ele>801</ele>
        <time>2022-10-19T09:03:26.410Z</time>
      </trkpt>
      <trkpt lat="43.53023" lon="5.61865">
        <ele>801</ele>
        <time>2022-10-19T09:03:27.410Z</time>
      </trkpt>
      <trkpt lat="43.53023" lon="5.61865">
        <ele>801</ele>
        <time>2022-10-19T09:03:28.410Z</time>
      </trkpt>
      <trkpt lat="43.53023" lon="5.61865">
        <ele>801</ele>
        <time>2022-10-19T09:03:29.410Z</time>
      </trkpt>
      <trkpt lat="43.53023" lon="5.61865">
        <ele>801</ele>
        <time>2022-10-19T09:03:32.630Z</time>
      </trkpt>
      <trkpt lat="43.53022" lon="5.61865">
        <ele>801</ele>
        <time>2022-10-19T09:03:33.630Z</time>
      </trkpt>
      <trkpt lat="43.53022" lon="5.61865">
        <ele>801</ele>
        <time>2022-10-19T09:03:34.630Z</time>
      </trkpt>
      <trkpt lat="43.53022" lon="5.61865">
        <ele>801</ele>
        <time>2022-10-19T09:03:35.630Z</time>
      </trkpt>
      <trkpt lat="43.53022" lon="5.61865">
        <ele>801</ele>
        <time>2022-10-19T09:03:36.630Z</time>
      </trkpt>
      <trkpt lat="43.53022" lon="5.61865">
        <ele>801</ele>
        <time>2022-10-19T09:03:37.630Z</time>
      </trkpt>
      <trkpt lat="43.53022" lon="5.61865">
        <ele>801</ele>
        <time>2022-10-19T09:03:38.630Z</time>
      </trkpt>
      <trkpt lat="43.53022" lon="5.61865">
        <ele>801</ele>
        <time>2022-10-19T09:03:39.630Z</time>
      </trkpt>
      <trkpt lat="43.53022" lon="5.61865">
        <ele>801</ele>
        <time>2022-10-19T09:03:40.630Z</time>
      </trkpt>
      <trkpt lat="43.53023" lon="5.61865">
        <ele>801</ele>
        <time>2022-10-19T09:03:41.630Z</time>
      </trkpt>
      <trkpt lat="43.53023" lon="5.61866">
        <ele>801</ele>
        <time>2022-10-19T09:03:42.630Z</time>
      </trkpt>
      <trkpt lat="43.53023" lon="5.61866">
        <ele>801</ele>
        <time>2022-10-19T09:03:43.630Z</time>
      </trkpt>
      <trkpt lat="43.53023" lon="5.61866">
        <ele>801</ele>
        <time>2022-10-19T09:03:44.630Z</time>
      </trkpt>
      <trkpt lat="43.53023" lon="5.61867">
        <ele>801</ele>
        <time>2022-10-19T09:03:45.630Z</time>
      </trkpt>
      <trkpt lat="43.53022" lon="5.61867">
        <ele>801</ele>
        <time>2022-10-19T09:03:46.630Z</time>
      </trkpt>
      <trkpt lat="43.53022" lon="5.61867">
        <ele>801</ele>
        <time>2022-10-19T09:03:47.630Z</time>
      </trkpt>
      <trkpt lat="43.53022" lon="5.61867">
        <ele>801</ele>
        <time>2022-10-19T09:03:48.630Z</time>
      </trkpt>
      <trkpt lat="43.53022" lon="5.61867">
        <ele>801</ele>
        <time>2022-10-19T09:03:49.630Z</time>
      </trkpt>
      <trkpt lat="43.53022" lon="5.61867">
        <ele>801</ele>
        <time>2022-10-19T09:03:50.630Z</time>
      </trkpt>
      <trkpt lat="43.53022" lon="5.61867">
        <ele>801</ele>
        <time>2022-10-19T09:03:51.630Z</time>
      </trkpt>
      <trkpt lat="43.53022" lon="5.61867">
        <ele>801</ele>
        <time>2022-10-19T09:03:52.630Z</time>
      </trkpt>
      <trkpt lat="43.53022" lon="5.61868">
        <ele>801</ele>
        <time>2022-10-19T09:03:53.630Z</time>
      </trkpt>
      <trkpt lat="43.53022" lon="5.61868">
        <ele>801</ele>
        <time>2022-10-19T09:03:54.630Z</time>
      </trkpt>
      <trkpt lat="43.53022" lon="5.61868">
        <ele>801</ele>
        <time>2022-10-19T09:03:55.630Z</time>
      </trkpt>
      <trkpt lat="43.53022" lon="5.61869">
        <ele>801</ele>
        <time>2022-10-19T09:03:56.630Z</time>
      </trkpt>
      <trkpt lat="43.53022" lon="5.61869">
        <ele>801</ele>
        <time>2022-10-19T09:03:57.630Z</time>
      </trkpt>
      <trkpt lat="43.53022" lon="5.61869">
        <ele>801</ele>
        <time>2022-10-19T09:03:58.630Z</time>
      </trkpt>
      <trkpt lat="43.53022" lon="5.61869">
        <ele>801</ele>
        <time>2022-10-19T09:03:59.630Z</time>
      </trkpt>
      <trkpt lat="43.53021" lon="5.61869">
        <ele>801</ele>
        <time>2022-10-19T09:04:00.630Z</time>
      </trkpt>
      <trkpt lat="43.53021" lon="5.6187">
        <ele>801</ele>
        <time>2022-10-19T09:04:01.630Z</time>
      </trkpt>
      <trkpt lat="43.53021" lon="5.61869">
        <ele>801</ele>
        <time>2022-10-19T09:04:02.630Z</time>
      </trkpt>
      <trkpt lat="43.53021" lon="5.6187">
        <ele>801</ele>
        <time>2022-10-19T09:04:03.630Z</time>
      </trkpt>
      <trkpt lat="43.53021" lon="5.6187">
        <ele>801</ele>
        <time>2022-10-19T09:04:04.630Z</time>
      </trkpt>
      <trkpt lat="43.53021" lon="5.6187">
        <ele>801</ele>
        <time>2022-10-19T09:04:05.630Z</time>
      </trkpt>
      <trkpt lat="43.53021" lon="5.6187">
        <ele>801</ele>
        <time>2022-10-19T09:04:06.630Z</time>
      </trkpt>
      <trkpt lat="43.53021" lon="5.6187">
        <ele>801</ele>
        <time>2022-10-19T09:04:07.630Z</time>
      </trkpt>
      <trkpt lat="43.53021" lon="5.6187">
        <ele>801</ele>
        <time>2022-10-19T09:04:08.630Z</time>
      </trkpt>
      <trkpt lat="43.53021" lon="5.6187">
        <ele>801</ele>
        <time>2022-10-19T09:04:09.630Z</time>
      </trkpt>
      <trkpt lat="43.5302" lon="5.6187">
        <ele>801</ele>
        <time>2022-10-19T09:04:10.630Z</time>
      </trkpt>
      <trkpt lat="43.5302" lon="5.61869">
        <ele>801</ele>
        <time>2022-10-19T09:04:11.630Z</time>
      </trkpt>
      <trkpt lat="43.5302" lon="5.61869">
        <ele>801</ele>
        <time>2022-10-19T09:04:12.630Z</time>
      </trkpt>
      <trkpt lat="43.5302" lon="5.61869">
        <ele>801</ele>
        <time>2022-10-19T09:04:13.630Z</time>
      </trkpt>
      <trkpt lat="43.5302" lon="5.61869">
        <ele>801</ele>
        <time>2022-10-19T09:04:14.630Z</time>
      </trkpt>
      <trkpt lat="43.5302" lon="5.61869">
        <ele>801</ele>
        <time>2022-10-19T09:04:15.630Z</time>
      </trkpt>
      <trkpt lat="43.53021" lon="5.61869">
        <ele>801</ele>
        <time>2022-10-19T09:04:16.630Z</time>
      </trkpt>
      <trkpt lat="43.53021" lon="5.61868">
        <ele>801</ele>
        <time>2022-10-19T09:04:17.630Z</time>
      </trkpt>
      <trkpt lat="43.53021" lon="5.61869">
        <ele>801</ele>
        <time>2022-10-19T09:04:18.630Z</time>
      </trkpt>
      <trkpt lat="43.53021" lon="5.61869">
        <ele>801</ele>
        <time>2022-10-19T09:04:19.630Z</time>
      </trkpt>
      <trkpt lat="43.5302" lon="5.61869">
        <ele>801</ele>
        <time>2022-10-19T09:04:20.630Z</time>
      </trkpt>
      <trkpt lat="43.53021" lon="5.61869">
        <ele>801</ele>
        <time>2022-10-19T09:04:21.630Z</time>
      </trkpt>
      <trkpt lat="43.53021" lon="5.61869">
        <ele>801</ele>
        <time>2022-10-19T09:04:22.630Z</time>
      </trkpt>
      <trkpt lat="43.53021" lon="5.61869">
        <ele>801</ele>
        <time>2022-10-19T09:04:23.630Z</time>
      </trkpt>
      <trkpt lat="43.53021" lon="5.61869">
        <ele>801</ele>
        <time>2022-10-19T09:04:24.630Z</time>
      </trkpt>
      <trkpt lat="43.53021" lon="5.6187">
        <ele>801</ele>
        <time>2022-10-19T09:04:25.630Z</time>
      </trkpt>
      <trkpt lat="43.53021" lon="5.6187">
        <ele>801</ele>
        <time>2022-10-19T09:04:26.630Z</time>
      </trkpt>
      <trkpt lat="43.53021" lon="5.61871">
        <ele>801</ele>
        <time>2022-10-19T09:04:27.630Z</time>
      </trkpt>
      <trkpt lat="43.53021" lon="5.61872">
        <ele>801</ele>
        <time>2022-10-19T09:04:28.630Z</time>
      </trkpt>
      <trkpt lat="43.53021" lon="5.61872">
        <ele>801</ele>
        <time>2022-10-19T09:04:29.630Z</time>
      </trkpt>
      <trkpt lat="43.53021" lon="5.61873">
        <ele>801</ele>
        <time>2022-10-19T09:04:30.630Z</time>
      </trkpt>
      <trkpt lat="43.53021" lon="5.61873">
        <ele>801</ele>
        <time>2022-10-19T09:04:31.630Z</time>
      </trkpt>
      <trkpt lat="43.53021" lon="5.61873">
        <ele>801</ele>
        <time>2022-10-19T09:04:32.630Z</time>
      </trkpt>
      <trkpt lat="43.53021" lon="5.61873">
        <ele>800</ele>
        <time>2022-10-19T09:04:33.630Z</time>
      </trkpt>
      <trkpt lat="43.53021" lon="5.61873">
        <ele>800</ele>
        <time>2022-10-19T09:04:34.630Z</time>
      </trkpt>
      <trkpt lat="43.53021" lon="5.61873">
        <ele>800</ele>
        <time>2022-10-19T09:04:35.630Z</time>
      </trkpt>
      <trkpt lat="43.53021" lon="5.61873">
        <ele>800</ele>
        <time>2022-10-19T09:04:36.630Z</time>
      </trkpt>
      <trkpt lat="43.53021" lon="5.61872">
        <ele>800</ele>
        <time>2022-10-19T09:04:37.630Z</time>
      </trkpt>
      <trkpt lat="43.53021" lon="5.61872">
        <ele>800</ele>
        <time>2022-10-19T09:04:38.630Z</time>
      </trkpt>
      <trkpt lat="43.53021" lon="5.61871">
        <ele>800</ele>
        <time>2022-10-19T09:04:39.630Z</time>
      </trkpt>
      <trkpt lat="43.53021" lon="5.6187">
        <ele>800</ele>
        <time>2022-10-19T09:04:40.630Z</time>
      </trkpt>
      <trkpt lat="43.53021" lon="5.6187">
        <ele>800</ele>
        <time>2022-10-19T09:04:41.630Z</time>
      </trkpt>
      <trkpt lat="43.53021" lon="5.61869">
        <ele>800</ele>
        <time>2022-10-19T09:04:42.630Z</time>
      </trkpt>
      <trkpt lat="43.53021" lon="5.61869">
        <ele>800</ele>
        <time>2022-10-19T09:04:43.630Z</time>
      </trkpt>
      <trkpt lat="43.53021" lon="5.61869">
        <ele>800</ele>
        <time>2022-10-19T09:04:44.630Z</time>
      </trkpt>
      <trkpt lat="43.53021" lon="5.61869">
        <ele>800</ele>
        <time>2022-10-19T09:04:45.630Z</time>
      </trkpt>
      <trkpt lat="43.53021" lon="5.61869">
        <ele>800</ele>
        <time>2022-10-19T09:04:46.630Z</time>
      </trkpt>
      <trkpt lat="43.53021" lon="5.61869">
        <ele>800</ele>
        <time>2022-10-19T09:04:47.630Z</time>
      </trkpt>
      <trkpt lat="43.53021" lon="5.61869">
        <ele>800</ele>
        <time>2022-10-19T09:04:48.630Z</time>
      </trkpt>
      <trkpt lat="43.53021" lon="5.61869">
        <ele>800</ele>
        <time>2022-10-19T09:04:49.630Z</time>
      </trkpt>
      <trkpt lat="43.53021" lon="5.61869">
        <ele>800</ele>
        <time>2022-10-19T09:04:50.630Z</time>
      </trkpt>
      <trkpt lat="43.53021" lon="5.61868">
        <ele>800</ele>
        <time>2022-10-19T09:04:51.630Z</time>
      </trkpt>
      <trkpt lat="43.53021" lon="5.61868">
        <ele>800</ele>
        <time>2022-10-19T09:04:52.630Z</time>
      </trkpt>
      <trkpt lat="43.53021" lon="5.61868">
        <ele>800</ele>
        <time>2022-10-19T09:04:53.630Z</time>
      </trkpt>
      <trkpt lat="43.53021" lon="5.61867">
        <ele>800</ele>
        <time>2022-10-19T09:04:54.630Z</time>
      </trkpt>
      <trkpt lat="43.53021" lon="5.61867">
        <ele>800</ele>
        <time>2022-10-19T09:04:55.630Z</time>
      </trkpt>
      <trkpt lat="43.53021" lon="5.61868">
        <ele>800</ele>
        <time>2022-10-19T09:04:56.630Z</time>
      </trkpt>
      <trkpt lat="43.53021" lon="5.61868">
        <ele>799</ele>
        <time>2022-10-19T09:04:57.630Z</time>
      </trkpt>
      <trkpt lat="43.53021" lon="5.61868">
        <ele>799</ele>
        <time>2022-10-19T09:04:58.630Z</time>
      </trkpt>
      <trkpt lat="43.53022" lon="5.61868">
        <ele>799</ele>
        <time>2022-10-19T09:04:59.630Z</time>
      </trkpt>
      <trkpt lat="43.53022" lon="5.61868">
        <ele>800</ele>
        <time>2022-10-19T09:05:00.630Z</time>
      </trkpt>
      <trkpt lat="43.53022" lon="5.61868">
        <ele>800</ele>
        <time>2022-10-19T09:05:01.630Z</time>
      </trkpt>
      <trkpt lat="43.53022" lon="5.61868">
        <ele>800</ele>
        <time>2022-10-19T09:05:02.630Z</time>
      </trkpt>
      <trkpt lat="43.53022" lon="5.61868">
        <ele>800</ele>
        <time>2022-10-19T09:05:03.630Z</time>
      </trkpt>
      <trkpt lat="43.53022" lon="5.61867">
        <ele>799</ele>
        <time>2022-10-19T09:05:04.630Z</time>
      </trkpt>
      <trkpt lat="43.53023" lon="5.61867">
        <ele>799</ele>
        <time>2022-10-19T09:05:05.630Z</time>
      </trkpt>
      <trkpt lat="43.53023" lon="5.61867">
        <ele>799</ele>
        <time>2022-10-19T09:05:06.630Z</time>
      </trkpt>
      <trkpt lat="43.53023" lon="5.61866">
        <ele>799</ele>
        <time>2022-10-19T09:05:07.630Z</time>
      </trkpt>
      <trkpt lat="43.53023" lon="5.61865">
        <ele>799</ele>
        <time>2022-10-19T09:05:08.630Z</time>
      </trkpt>
      <trkpt lat="43.53024" lon="5.61864">
        <ele>799</ele>
        <time>2022-10-19T09:05:09.630Z</time>
      </trkpt>
      <trkpt lat="43.53024" lon="5.61863">
        <ele>799</ele>
        <time>2022-10-19T09:05:10.630Z</time>
      </trkpt>
      <trkpt lat="43.53023" lon="5.61862">
        <ele>799</ele>
        <time>2022-10-19T09:05:11.630Z</time>
      </trkpt>
      <trkpt lat="43.53023" lon="5.61861">
        <ele>799</ele>
        <time>2022-10-19T09:05:12.630Z</time>
      </trkpt>
      <trkpt lat="43.53023" lon="5.6186">
        <ele>799</ele>
        <time>2022-10-19T09:05:13.630Z</time>
      </trkpt>
      <trkpt lat="43.53023" lon="5.61859">
        <ele>799</ele>
        <time>2022-10-19T09:05:14.630Z</time>
      </trkpt>
      <trkpt lat="43.53022" lon="5.61858">
        <ele>799</ele>
        <time>2022-10-19T09:05:15.630Z</time>
      </trkpt>
      <trkpt lat="43.53022" lon="5.61857">
        <ele>799</ele>
        <time>2022-10-19T09:05:16.630Z</time>
      </trkpt>
      <trkpt lat="43.53022" lon="5.61855">
        <ele>799</ele>
        <time>2022-10-19T09:05:17.630Z</time>
      </trkpt>
      <trkpt lat="43.53022" lon="5.61854">
        <ele>799</ele>
        <time>2022-10-19T09:05:18.630Z</time>
      </trkpt>
      <trkpt lat="43.53023" lon="5.61853">
        <ele>799</ele>
        <time>2022-10-19T09:05:19.630Z</time>
      </trkpt>
      <trkpt lat="43.53023" lon="5.61852">
        <ele>799</ele>
        <time>2022-10-19T09:05:20.630Z</time>
      </trkpt>
      <trkpt lat="43.53023" lon="5.61852">
        <ele>799</ele>
        <time>2022-10-19T09:05:21.630Z</time>
      </trkpt>
      <trkpt lat="43.53023" lon="5.61851">
        <ele>799</ele>
        <time>2022-10-19T09:05:22.630Z</time>
      </trkpt>
      <trkpt lat="43.53023" lon="5.6185">
        <ele>799</ele>
        <time>2022-10-19T09:05:23.630Z</time>
      </trkpt>
      <trkpt lat="43.53023" lon="5.61849">
        <ele>799</ele>
        <time>2022-10-19T09:05:24.630Z</time>
      </trkpt>
      <trkpt lat="43.53023" lon="5.61848">
        <ele>799</ele>
        <time>2022-10-19T09:05:25.630Z</time>
      </trkpt>
      <trkpt lat="43.53023" lon="5.61847">
        <ele>799</ele>
        <time>2022-10-19T09:05:26.630Z</time>
      </trkpt>
      <trkpt lat="43.53022" lon="5.61846">
        <ele>799</ele>
        <time>2022-10-19T09:05:27.630Z</time>
      </trkpt>
      <trkpt lat="43.53022" lon="5.61845">
        <ele>798</ele>
        <time>2022-10-19T09:05:28.630Z</time>
      </trkpt>
      <trkpt lat="43.53022" lon="5.61844">
        <ele>798</ele>
        <time>2022-10-19T09:05:29.630Z</time>
      </trkpt>
      <trkpt lat="43.53022" lon="5.61842">
        <ele>798</ele>
        <time>2022-10-19T09:05:30.630Z</time>
      </trkpt>
      <trkpt lat="43.53022" lon="5.61841">
        <ele>798</ele>
        <time>2022-10-19T09:05:31.630Z</time>
      </trkpt>
      <trkpt lat="43.53021" lon="5.6184">
        <ele>798</ele>
        <time>2022-10-19T09:05:32.630Z</time>
      </trkpt>
      <trkpt lat="43.53021" lon="5.6184">
        <ele>798</ele>
        <time>2022-10-19T09:05:33.630Z</time>
      </trkpt>
      <trkpt lat="43.53021" lon="5.61839">
        <ele>798</ele>
        <time>2022-10-19T09:05:34.630Z</time>
      </trkpt>
      <trkpt lat="43.53021" lon="5.61838">
        <ele>798</ele>
        <time>2022-10-19T09:05:35.630Z</time>
      </trkpt>
      <trkpt lat="43.53021" lon="5.61837">
        <ele>797</ele>
        <time>2022-10-19T09:05:36.630Z</time>
      </trkpt>
      <trkpt lat="43.53021" lon="5.61836">
        <ele>797</ele>
        <time>2022-10-19T09:05:37.630Z</time>
      </trkpt>
      <trkpt lat="43.53021" lon="5.61835">
        <ele>797</ele>
        <time>2022-10-19T09:05:38.630Z</time>
      </trkpt>
      <trkpt lat="43.53021" lon="5.61834">
        <ele>797</ele>
        <time>2022-10-19T09:05:39.630Z</time>
      </trkpt>
      <trkpt lat="43.53021" lon="5.61833">
        <ele>797</ele>
        <time>2022-10-19T09:05:40.630Z</time>
      </trkpt>
      <trkpt lat="43.53021" lon="5.61833">
        <ele>797</ele>
        <time>2022-10-19T09:05:41.630Z</time>
      </trkpt>
      <trkpt lat="43.53021" lon="5.61832">
        <ele>797</ele>
        <time>2022-10-19T09:05:42.630Z</time>
      </trkpt>
      <trkpt lat="43.5302" lon="5.61831">
        <ele>797</ele>
        <time>2022-10-19T09:05:43.630Z</time>
      </trkpt>
      <trkpt lat="43.5302" lon="5.61831">
        <ele>797</ele>
        <time>2022-10-19T09:05:44.630Z</time>
      </trkpt>
      <trkpt lat="43.53019" lon="5.6183">
        <ele>797</ele>
        <time>2022-10-19T09:05:45.630Z</time>
      </trkpt>
      <trkpt lat="43.53019" lon="5.61829">
        <ele>797</ele>
        <time>2022-10-19T09:05:46.630Z</time>
      </trkpt>
      <trkpt lat="43.53019" lon="5.61828">
        <ele>797</ele>
        <time>2022-10-19T09:05:47.630Z</time>
      </trkpt>
      <trkpt lat="43.53018" lon="5.61827">
        <ele>797</ele>
        <time>2022-10-19T09:05:48.630Z</time>
      </trkpt>
      <trkpt lat="43.53018" lon="5.61827">
        <ele>797</ele>
        <time>2022-10-19T09:05:49.630Z</time>
      </trkpt>
      <trkpt lat="43.53018" lon="5.61827">
        <ele>797</ele>
        <time>2022-10-19T09:05:50.630Z</time>
      </trkpt>
      <trkpt lat="43.53018" lon="5.61826">
        <ele>797</ele>
        <time>2022-10-19T09:05:51.630Z</time>
      </trkpt>
      <trkpt lat="43.53017" lon="5.61826">
        <ele>797</ele>
        <time>2022-10-19T09:05:52.630Z</time>
      </trkpt>
      <trkpt lat="43.53017" lon="5.61826">
        <ele>797</ele>
        <time>2022-10-19T09:05:53.630Z</time>
      </trkpt>
      <trkpt lat="43.53017" lon="5.61826">
        <ele>797</ele>
        <time>2022-10-19T09:05:54.630Z</time>
      </trkpt>
      <trkpt lat="43.53017" lon="5.61825">
        <ele>797</ele>
        <time>2022-10-19T09:05:55.630Z</time>
      </trkpt>
      <trkpt lat="43.53017" lon="5.61825">
        <ele>797</ele>
        <time>2022-10-19T09:05:56.630Z</time>
      </trkpt>
      <trkpt lat="43.53016" lon="5.61824">
        <ele>797</ele>
        <time>2022-10-19T09:05:57.630Z</time>
      </trkpt>
      <trkpt lat="43.53016" lon="5.61824">
        <ele>796</ele>
        <time>2022-10-19T09:05:58.630Z</time>
      </trkpt>
      <trkpt lat="43.53015" lon="5.61823">
        <ele>796</ele>
        <time>2022-10-19T09:05:59.630Z</time>
      </trkpt>
      <trkpt lat="43.53014" lon="5.61823">
        <ele>796</ele>
        <time>2022-10-19T09:06:00.630Z</time>
      </trkpt>
      <trkpt lat="43.53014" lon="5.61822">
        <ele>796</ele>
        <time>2022-10-19T09:06:01.630Z</time>
      </trkpt>
      <trkpt lat="43.53013" lon="5.61822">
        <ele>796</ele>
        <time>2022-10-19T09:06:02.630Z</time>
      </trkpt>
      <trkpt lat="43.53013" lon="5.61821">
        <ele>796</ele>
        <time>2022-10-19T09:06:03.630Z</time>
      </trkpt>
      <trkpt lat="43.53012" lon="5.61821">
        <ele>796</ele>
        <time>2022-10-19T09:06:04.630Z</time>
      </trkpt>
      <trkpt lat="43.53011" lon="5.61821">
        <ele>796</ele>
        <time>2022-10-19T09:06:05.630Z</time>
      </trkpt>
      <trkpt lat="43.5301" lon="5.6182">
        <ele>796</ele>
        <time>2022-10-19T09:06:06.630Z</time>
      </trkpt>
      <trkpt lat="43.53009" lon="5.61819">
        <ele>796</ele>
        <time>2022-10-19T09:06:07.630Z</time>
      </trkpt>
      <trkpt lat="43.53009" lon="5.61818">
        <ele>796</ele>
        <time>2022-10-19T09:06:08.630Z</time>
      </trkpt>
      <trkpt lat="43.53008" lon="5.61817">
        <ele>796</ele>
        <time>2022-10-19T09:06:09.630Z</time>
      </trkpt>
      <trkpt lat="43.53008" lon="5.61816">
        <ele>795</ele>
        <time>2022-10-19T09:06:10.630Z</time>
      </trkpt>
      <trkpt lat="43.53008" lon="5.61815">
        <ele>795</ele>
        <time>2022-10-19T09:06:11.630Z</time>
      </trkpt>
      <trkpt lat="43.53008" lon="5.61814">
        <ele>795</ele>
        <time>2022-10-19T09:06:12.630Z</time>
      </trkpt>
      <trkpt lat="43.53007" lon="5.61813">
        <ele>795</ele>
        <time>2022-10-19T09:06:13.630Z</time>
      </trkpt>
      <trkpt lat="43.53007" lon="5.61813">
        <ele>795</ele>
        <time>2022-10-19T09:06:14.630Z</time>
      </trkpt>
      <trkpt lat="43.53006" lon="5.61811">
        <ele>795</ele>
        <time>2022-10-19T09:06:15.630Z</time>
      </trkpt>
      <trkpt lat="43.53006" lon="5.6181">
        <ele>795</ele>
        <time>2022-10-19T09:06:16.630Z</time>
      </trkpt>
      <trkpt lat="43.53006" lon="5.6181">
        <ele>795</ele>
        <time>2022-10-19T09:06:17.630Z</time>
      </trkpt>
      <trkpt lat="43.53006" lon="5.61809">
        <ele>795</ele>
        <time>2022-10-19T09:06:18.630Z</time>
      </trkpt>
      <trkpt lat="43.53005" lon="5.61808">
        <ele>795</ele>
        <time>2022-10-19T09:06:19.630Z</time>
      </trkpt>
      <trkpt lat="43.53005" lon="5.61808">
        <ele>795</ele>
        <time>2022-10-19T09:06:20.630Z</time>
      </trkpt>
      <trkpt lat="43.53005" lon="5.61807">
        <ele>795</ele>
        <time>2022-10-19T09:06:21.630Z</time>
      </trkpt>
      <trkpt lat="43.53005" lon="5.61806">
        <ele>795</ele>
        <time>2022-10-19T09:06:22.630Z</time>
      </trkpt>
      <trkpt lat="43.53005" lon="5.61805">
        <ele>795</ele>
        <time>2022-10-19T09:06:23.630Z</time>
      </trkpt>
      <trkpt lat="43.53005" lon="5.61804">
        <ele>795</ele>
        <time>2022-10-19T09:06:24.630Z</time>
      </trkpt>
      <trkpt lat="43.53005" lon="5.61804">
        <ele>795</ele>
        <time>2022-10-19T09:06:25.630Z</time>
      </trkpt>
      <trkpt lat="43.53005" lon="5.61803">
        <ele>795</ele>
        <time>2022-10-19T09:06:26.630Z</time>
      </trkpt>
      <trkpt lat="43.53005" lon="5.61802">
        <ele>795</ele>
        <time>2022-10-19T09:06:27.630Z</time>
      </trkpt>
      <trkpt lat="43.53004" lon="5.61802">
        <ele>794</ele>
        <time>2022-10-19T09:06:28.630Z</time>
      </trkpt>
      <trkpt lat="43.53004" lon="5.61802">
        <ele>794</ele>
        <time>2022-10-19T09:06:29.630Z</time>
      </trkpt>
      <trkpt lat="43.53003" lon="5.61802">
        <ele>794</ele>
        <time>2022-10-19T09:06:30.630Z</time>
      </trkpt>
      <trkpt lat="43.53002" lon="5.61802">
        <ele>794</ele>
        <time>2022-10-19T09:06:31.630Z</time>
      </trkpt>
      <trkpt lat="43.53002" lon="5.61801">
        <ele>794</ele>
        <time>2022-10-19T09:06:32.630Z</time>
      </trkpt>
      <trkpt lat="43.53002" lon="5.61801">
        <ele>794</ele>
        <time>2022-10-19T09:06:33.630Z</time>
      </trkpt>
      <trkpt lat="43.53002" lon="5.61801">
        <ele>794</ele>
        <time>2022-10-19T09:06:34.630Z</time>
      </trkpt>
      <trkpt lat="43.53002" lon="5.618">
        <ele>794</ele>
        <time>2022-10-19T09:06:35.630Z</time>
      </trkpt>
      <trkpt lat="43.53002" lon="5.618">
        <ele>794</ele>
        <time>2022-10-19T09:06:36.630Z</time>
      </trkpt>
      <trkpt lat="43.53002" lon="5.618">
        <ele>794</ele>
        <time>2022-10-19T09:06:37.630Z</time>
      </trkpt>
      <trkpt lat="43.53002" lon="5.618">
        <ele>794</ele>
        <time>2022-10-19T09:06:38.630Z</time>
      </trkpt>
      <trkpt lat="43.53001" lon="5.618">
        <ele>794</ele>
        <time>2022-10-19T09:06:39.630Z</time>
      </trkpt>
      <trkpt lat="43.53001" lon="5.618">
        <ele>794</ele>
        <time>2022-10-19T09:06:40.630Z</time>
      </trkpt>
      <trkpt lat="43.53" lon="5.618">
        <ele>794</ele>
        <time>2022-10-19T09:06:41.630Z</time>
      </trkpt>
      <trkpt lat="43.53" lon="5.61799">
        <ele>794</ele>
        <time>2022-10-19T09:06:42.630Z</time>
      </trkpt>
      <trkpt lat="43.52999" lon="5.61799">
        <ele>794</ele>
        <time>2022-10-19T09:06:43.630Z</time>
      </trkpt>
      <trkpt lat="43.52998" lon="5.61798">
        <ele>794</ele>
        <time>2022-10-19T09:06:44.630Z</time>
      </trkpt>
      <trkpt lat="43.52997" lon="5.61798">
        <ele>794</ele>
        <time>2022-10-19T09:06:45.630Z</time>
      </trkpt>
      <trkpt lat="43.52996" lon="5.61797">
        <ele>794</ele>
        <time>2022-10-19T09:06:46.630Z</time>
      </trkpt>
      <trkpt lat="43.52995" lon="5.61796">
        <ele>794</ele>
        <time>2022-10-19T09:06:47.630Z</time>
      </trkpt>
      <trkpt lat="43.52994" lon="5.61796">
        <ele>794</ele>
        <time>2022-10-19T09:06:48.630Z</time>
      </trkpt>
      <trkpt lat="43.52994" lon="5.61795">
        <ele>793</ele>
        <time>2022-10-19T09:06:49.630Z</time>
      </trkpt>
      <trkpt lat="43.52993" lon="5.61794">
        <ele>793</ele>
        <time>2022-10-19T09:06:50.630Z</time>
      </trkpt>
      <trkpt lat="43.52993" lon="5.61793">
        <ele>793</ele>
        <time>2022-10-19T09:06:51.630Z</time>
      </trkpt>
      <trkpt lat="43.52992" lon="5.61792">
        <ele>793</ele>
        <time>2022-10-19T09:06:52.630Z</time>
      </trkpt>
      <trkpt lat="43.52992" lon="5.6179">
        <ele>793</ele>
        <time>2022-10-19T09:06:53.630Z</time>
      </trkpt>
      <trkpt lat="43.52991" lon="5.61789">
        <ele>793</ele>
        <time>2022-10-19T09:06:54.630Z</time>
      </trkpt>
      <trkpt lat="43.52991" lon="5.61789">
        <ele>793</ele>
        <time>2022-10-19T09:06:55.630Z</time>
      </trkpt>
      <trkpt lat="43.52991" lon="5.61788">
        <ele>793</ele>
        <time>2022-10-19T09:06:56.630Z</time>
      </trkpt>
      <trkpt lat="43.52991" lon="5.61787">
        <ele>793</ele>
        <time>2022-10-19T09:06:57.630Z</time>
      </trkpt>
      <trkpt lat="43.5299" lon="5.61786">
        <ele>793</ele>
        <time>2022-10-19T09:06:58.630Z</time>
      </trkpt>
      <trkpt lat="43.5299" lon="5.61785">
        <ele>793</ele>
        <time>2022-10-19T09:06:59.630Z</time>
      </trkpt>
      <trkpt lat="43.5299" lon="5.61784">
        <ele>793</ele>
        <time>2022-10-19T09:07:00.630Z</time>
      </trkpt>
      <trkpt lat="43.52989" lon="5.61783">
        <ele>792</ele>
        <time>2022-10-19T09:07:01.630Z</time>
      </trkpt>
      <trkpt lat="43.52989" lon="5.61782">
        <ele>792</ele>
        <time>2022-10-19T09:07:02.630Z</time>
      </trkpt>
      <trkpt lat="43.52989" lon="5.61782">
        <ele>792</ele>
        <time>2022-10-19T09:07:03.630Z</time>
      </trkpt>
      <trkpt lat="43.52988" lon="5.61781">
        <ele>792</ele>
        <time>2022-10-19T09:07:04.630Z</time>
      </trkpt>
      <trkpt lat="43.52987" lon="5.61781">
        <ele>792</ele>
        <time>2022-10-19T09:07:05.630Z</time>
      </trkpt>
      <trkpt lat="43.52987" lon="5.61781">
        <ele>792</ele>
        <time>2022-10-19T09:07:06.630Z</time>
      </trkpt>
      <trkpt lat="43.52986" lon="5.6178">
        <ele>792</ele>
        <time>2022-10-19T09:07:07.630Z</time>
      </trkpt>
      <trkpt lat="43.52986" lon="5.6178">
        <ele>792</ele>
        <time>2022-10-19T09:07:08.630Z</time>
      </trkpt>
      <trkpt lat="43.52986" lon="5.6178">
        <ele>792</ele>
        <time>2022-10-19T09:07:09.630Z</time>
      </trkpt>
      <trkpt lat="43.52986" lon="5.61779">
        <ele>792</ele>
        <time>2022-10-19T09:07:10.630Z</time>
      </trkpt>
      <trkpt lat="43.52985" lon="5.61779">
        <ele>792</ele>
        <time>2022-10-19T09:07:11.630Z</time>
      </trkpt>
      <trkpt lat="43.52985" lon="5.61779">
        <ele>792</ele>
        <time>2022-10-19T09:07:12.630Z</time>
      </trkpt>
      <trkpt lat="43.52985" lon="5.61779">
        <ele>791</ele>
        <time>2022-10-19T09:07:13.630Z</time>
      </trkpt>
      <trkpt lat="43.52985" lon="5.61779">
        <ele>791</ele>
        <time>2022-10-19T09:07:14.630Z</time>
      </trkpt>
      <trkpt lat="43.52985" lon="5.61779">
        <ele>791</ele>
        <time>2022-10-19T09:07:15.630Z</time>
      </trkpt>
      <trkpt lat="43.52985" lon="5.61779">
        <ele>791</ele>
        <time>2022-10-19T09:07:16.630Z</time>
      </trkpt>
      <trkpt lat="43.52984" lon="5.61779">
        <ele>791</ele>
        <time>2022-10-19T09:07:17.630Z</time>
      </trkpt>
      <trkpt lat="43.52984" lon="5.61779">
        <ele>791</ele>
        <time>2022-10-19T09:07:18.630Z</time>
      </trkpt>
      <trkpt lat="43.52984" lon="5.61779">
        <ele>791</ele>
        <time>2022-10-19T09:07:19.630Z</time>
      </trkpt>
      <trkpt lat="43.52983" lon="5.61779">
        <ele>791</ele>
        <time>2022-10-19T09:07:20.630Z</time>
      </trkpt>
      <trkpt lat="43.52983" lon="5.61778">
        <ele>791</ele>
        <time>2022-10-19T09:07:21.630Z</time>
      </trkpt>
      <trkpt lat="43.52983" lon="5.61778">
        <ele>791</ele>
        <time>2022-10-19T09:07:22.630Z</time>
      </trkpt>
      <trkpt lat="43.52983" lon="5.61778">
        <ele>791</ele>
        <time>2022-10-19T09:07:23.630Z</time>
      </trkpt>
      <trkpt lat="43.52983" lon="5.61778">
        <ele>791</ele>
        <time>2022-10-19T09:07:24.630Z</time>
      </trkpt>
      <trkpt lat="43.52983" lon="5.61778">
        <ele>791</ele>
        <time>2022-10-19T09:07:25.630Z</time>
      </trkpt>
      <trkpt lat="43.52983" lon="5.61778">
        <ele>791</ele>
        <time>2022-10-19T09:07:26.630Z</time>
      </trkpt>
      <trkpt lat="43.52983" lon="5.61778">
        <ele>791</ele>
        <time>2022-10-19T09:07:27.630Z</time>
      </trkpt>
      <trkpt lat="43.52983" lon="5.61777">
        <ele>791</ele>
        <time>2022-10-19T09:07:28.630Z</time>
      </trkpt>
      <trkpt lat="43.52983" lon="5.61777">
        <ele>791</ele>
        <time>2022-10-19T09:07:29.630Z</time>
      </trkpt>
      <trkpt lat="43.52983" lon="5.61777">
        <ele>791</ele>
        <time>2022-10-19T09:07:30.630Z</time>
      </trkpt>
      <trkpt lat="43.52983" lon="5.61777">
        <ele>791</ele>
        <time>2022-10-19T09:07:31.630Z</time>
      </trkpt>
      <trkpt lat="43.52983" lon="5.61777">
        <ele>791</ele>
        <time>2022-10-19T09:07:32.630Z</time>
      </trkpt>
      <trkpt lat="43.52982" lon="5.61776">
        <ele>791</ele>
        <time>2022-10-19T09:07:33.630Z</time>
      </trkpt>
      <trkpt lat="43.52982" lon="5.61776">
        <ele>791</ele>
        <time>2022-10-19T09:07:34.630Z</time>
      </trkpt>
      <trkpt lat="43.52982" lon="5.61776">
        <ele>791</ele>
        <time>2022-10-19T09:07:35.630Z</time>
      </trkpt>
      <trkpt lat="43.52982" lon="5.61777">
        <ele>791</ele>
        <time>2022-10-19T09:07:36.630Z</time>
      </trkpt>
      <trkpt lat="43.52982" lon="5.61777">
        <ele>791</ele>
        <time>2022-10-19T09:07:37.630Z</time>
      </trkpt>
      <trkpt lat="43.52982" lon="5.61777">
        <ele>791</ele>
        <time>2022-10-19T09:07:38.630Z</time>
      </trkpt>
      <trkpt lat="43.52981" lon="5.61777">
        <ele>791</ele>
        <time>2022-10-19T09:07:39.630Z</time>
      </trkpt>
      <trkpt lat="43.52981" lon="5.61777">
        <ele>791</ele>
        <time>2022-10-19T09:07:40.630Z</time>
      </trkpt>
      <trkpt lat="43.5298" lon="5.61777">
        <ele>791</ele>
        <time>2022-10-19T09:07:41.630Z</time>
      </trkpt>
      <trkpt lat="43.5298" lon="5.61777">
        <ele>791</ele>
        <time>2022-10-19T09:07:42.630Z</time>
      </trkpt>
      <trkpt lat="43.5298" lon="5.61777">
        <ele>791</ele>
        <time>2022-10-19T09:07:43.630Z</time>
      </trkpt>
      <trkpt lat="43.52979" lon="5.61777">
        <ele>790</ele>
        <time>2022-10-19T09:07:44.630Z</time>
      </trkpt>
      <trkpt lat="43.52979" lon="5.61777">
        <ele>790</ele>
        <time>2022-10-19T09:07:45.630Z</time>
      </trkpt>
      <trkpt lat="43.52979" lon="5.61777">
        <ele>790</ele>
        <time>2022-10-19T09:07:46.630Z</time>
      </trkpt>
      <trkpt lat="43.52979" lon="5.61778">
        <ele>790</ele>
        <time>2022-10-19T09:07:47.630Z</time>
      </trkpt>
      <trkpt lat="43.52978" lon="5.61778">
        <ele>790</ele>
        <time>2022-10-19T09:07:48.630Z</time>
      </trkpt>
      <trkpt lat="43.52978" lon="5.61778">
        <ele>790</ele>
        <time>2022-10-19T09:07:49.630Z</time>
      </trkpt>
      <trkpt lat="43.52978" lon="5.61778">
        <ele>790</ele>
        <time>2022-10-19T09:07:50.630Z</time>
      </trkpt>
      <trkpt lat="43.52977" lon="5.61779">
        <ele>790</ele>
        <time>2022-10-19T09:07:51.630Z</time>
      </trkpt>
      <trkpt lat="43.52977" lon="5.61779">
        <ele>790</ele>
        <time>2022-10-19T09:07:52.630Z</time>
      </trkpt>
      <trkpt lat="43.52976" lon="5.61779">
        <ele>790</ele>
        <time>2022-10-19T09:07:53.630Z</time>
      </trkpt>
      <trkpt lat="43.52976" lon="5.61779">
        <ele>790</ele>
        <time>2022-10-19T09:07:54.630Z</time>
      </trkpt>
      <trkpt lat="43.52975" lon="5.61778">
        <ele>789</ele>
        <time>2022-10-19T09:07:55.630Z</time>
      </trkpt>
      <trkpt lat="43.52975" lon="5.61778">
        <ele>789</ele>
        <time>2022-10-19T09:07:56.630Z</time>
      </trkpt>
      <trkpt lat="43.52975" lon="5.61777">
        <ele>789</ele>
        <time>2022-10-19T09:07:57.630Z</time>
      </trkpt>
      <trkpt lat="43.52975" lon="5.61777">
        <ele>789</ele>
        <time>2022-10-19T09:07:58.630Z</time>
      </trkpt>
      <trkpt lat="43.52975" lon="5.61776">
        <ele>789</ele>
        <time>2022-10-19T09:07:59.630Z</time>
      </trkpt>
      <trkpt lat="43.52974" lon="5.61776">
        <ele>788</ele>
        <time>2022-10-19T09:08:00.630Z</time>
      </trkpt>
      <trkpt lat="43.52974" lon="5.61775">
        <ele>788</ele>
        <time>2022-10-19T09:08:01.630Z</time>
      </trkpt>
      <trkpt lat="43.52974" lon="5.61774">
        <ele>788</ele>
        <time>2022-10-19T09:08:02.630Z</time>
      </trkpt>
      <trkpt lat="43.52974" lon="5.61774">
        <ele>788</ele>
        <time>2022-10-19T09:08:03.630Z</time>
      </trkpt>
      <trkpt lat="43.52973" lon="5.61773">
        <ele>788</ele>
        <time>2022-10-19T09:08:04.630Z</time>
      </trkpt>
      <trkpt lat="43.52973" lon="5.61773">
        <ele>788</ele>
        <time>2022-10-19T09:08:05.630Z</time>
      </trkpt>
      <trkpt lat="43.52973" lon="5.61773">
        <ele>787</ele>
        <time>2022-10-19T09:08:06.630Z</time>
      </trkpt>
      <trkpt lat="43.52973" lon="5.61773">
        <ele>787</ele>
        <time>2022-10-19T09:08:07.630Z</time>
      </trkpt>
      <trkpt lat="43.52973" lon="5.61772">
        <ele>787</ele>
        <time>2022-10-19T09:08:08.630Z</time>
      </trkpt>
      <trkpt lat="43.52973" lon="5.61773">
        <ele>787</ele>
        <time>2022-10-19T09:08:09.630Z</time>
      </trkpt>
      <trkpt lat="43.52973" lon="5.61773">
        <ele>787</ele>
        <time>2022-10-19T09:08:10.630Z</time>
      </trkpt>
      <trkpt lat="43.52973" lon="5.61773">
        <ele>787</ele>
        <time>2022-10-19T09:08:11.630Z</time>
      </trkpt>
      <trkpt lat="43.52972" lon="5.61774">
        <ele>787</ele>
        <time>2022-10-19T09:08:12.630Z</time>
      </trkpt>
      <trkpt lat="43.52973" lon="5.61774">
        <ele>787</ele>
        <time>2022-10-19T09:08:13.630Z</time>
      </trkpt>
      <trkpt lat="43.52973" lon="5.61774">
        <ele>786</ele>
        <time>2022-10-19T09:08:14.630Z</time>
      </trkpt>
      <trkpt lat="43.52973" lon="5.61774">
        <ele>786</ele>
        <time>2022-10-19T09:08:15.630Z</time>
      </trkpt>
      <trkpt lat="43.52973" lon="5.61774">
        <ele>786</ele>
        <time>2022-10-19T09:08:16.630Z</time>
      </trkpt>
      <trkpt lat="43.52973" lon="5.61775">
        <ele>786</ele>
        <time>2022-10-19T09:08:17.630Z</time>
      </trkpt>
      <trkpt lat="43.52972" lon="5.61774">
        <ele>786</ele>
        <time>2022-10-19T09:08:18.630Z</time>
      </trkpt>
      <trkpt lat="43.52972" lon="5.61774">
        <ele>786</ele>
        <time>2022-10-19T09:08:19.630Z</time>
      </trkpt>
      <trkpt lat="43.52972" lon="5.61774">
        <ele>785</ele>
        <time>2022-10-19T09:08:20.630Z</time>
      </trkpt>
      <trkpt lat="43.52971" lon="5.61774">
        <ele>785</ele>
        <time>2022-10-19T09:08:21.630Z</time>
      </trkpt>
      <trkpt lat="43.52971" lon="5.61774">
        <ele>785</ele>
        <time>2022-10-19T09:08:22.630Z</time>
      </trkpt>
      <trkpt lat="43.5297" lon="5.61774">
        <ele>785</ele>
        <time>2022-10-19T09:08:23.630Z</time>
      </trkpt>
      <trkpt lat="43.5297" lon="5.61774">
        <ele>785</ele>
        <time>2022-10-19T09:08:24.630Z</time>
      </trkpt>
      <trkpt lat="43.5297" lon="5.61774">
        <ele>785</ele>
        <time>2022-10-19T09:08:25.630Z</time>
      </trkpt>
      <trkpt lat="43.5297" lon="5.61773">
        <ele>785</ele>
        <time>2022-10-19T09:08:26.630Z</time>
      </trkpt>
      <trkpt lat="43.52969" lon="5.61773">
        <ele>784</ele>
        <time>2022-10-19T09:08:27.630Z</time>
      </trkpt>
      <trkpt lat="43.52969" lon="5.61772">
        <ele>784</ele>
        <time>2022-10-19T09:08:28.630Z</time>
      </trkpt>
      <trkpt lat="43.52969" lon="5.61772">
        <ele>784</ele>
        <time>2022-10-19T09:08:29.630Z</time>
      </trkpt>
      <trkpt lat="43.52968" lon="5.61772">
        <ele>784</ele>
        <time>2022-10-19T09:08:30.630Z</time>
      </trkpt>
      <trkpt lat="43.52968" lon="5.61772">
        <ele>783</ele>
        <time>2022-10-19T09:08:31.630Z</time>
      </trkpt>
      <trkpt lat="43.52967" lon="5.61772">
        <ele>783</ele>
        <time>2022-10-19T09:08:32.630Z</time>
      </trkpt>
      <trkpt lat="43.52967" lon="5.61772">
        <ele>783</ele>
        <time>2022-10-19T09:08:33.630Z</time>
      </trkpt>
      <trkpt lat="43.52966" lon="5.61772">
        <ele>783</ele>
        <time>2022-10-19T09:08:34.630Z</time>
      </trkpt>
      <trkpt lat="43.52966" lon="5.61771">
        <ele>783</ele>
        <time>2022-10-19T09:08:35.630Z</time>
      </trkpt>
      <trkpt lat="43.52965" lon="5.6177">
        <ele>782</ele>
        <time>2022-10-19T09:08:36.630Z</time>
      </trkpt>
      <trkpt lat="43.52965" lon="5.6177">
        <ele>782</ele>
        <time>2022-10-19T09:08:37.630Z</time>
      </trkpt>
      <trkpt lat="43.52964" lon="5.61769">
        <ele>782</ele>
        <time>2022-10-19T09:08:38.630Z</time>
      </trkpt>
      <trkpt lat="43.52964" lon="5.61768">
        <ele>782</ele>
        <time>2022-10-19T09:08:39.630Z</time>
      </trkpt>
      <trkpt lat="43.52963" lon="5.61768">
        <ele>781</ele>
        <time>2022-10-19T09:08:40.630Z</time>
      </trkpt>
      <trkpt lat="43.52963" lon="5.61767">
        <ele>781</ele>
        <time>2022-10-19T09:08:41.630Z</time>
      </trkpt>
      <trkpt lat="43.52962" lon="5.61766">
        <ele>781</ele>
        <time>2022-10-19T09:08:42.630Z</time>
      </trkpt>
      <trkpt lat="43.52962" lon="5.61765">
        <ele>781</ele>
        <time>2022-10-19T09:08:43.630Z</time>
      </trkpt>
      <trkpt lat="43.52962" lon="5.61765">
        <ele>780</ele>
        <time>2022-10-19T09:08:44.630Z</time>
      </trkpt>
      <trkpt lat="43.52962" lon="5.61765">
        <ele>780</ele>
        <time>2022-10-19T09:08:45.630Z</time>
      </trkpt>
      <trkpt lat="43.52962" lon="5.61764">
        <ele>780</ele>
        <time>2022-10-19T09:08:46.630Z</time>
      </trkpt>
      <trkpt lat="43.52962" lon="5.61764">
        <ele>780</ele>
        <time>2022-10-19T09:08:47.630Z</time>
      </trkpt>
      <trkpt lat="43.52962" lon="5.61764">
        <ele>780</ele>
        <time>2022-10-19T09:08:48.630Z</time>
      </trkpt>
      <trkpt lat="43.52962" lon="5.61764">
        <ele>780</ele>
        <time>2022-10-19T09:08:49.630Z</time>
      </trkpt>
      <trkpt lat="43.52962" lon="5.61764">
        <ele>780</ele>
        <time>2022-10-19T09:08:50.630Z</time>
      </trkpt>
      <trkpt lat="43.52962" lon="5.61764">
        <ele>779</ele>
        <time>2022-10-19T09:08:51.630Z</time>
      </trkpt>
      <trkpt lat="43.52962" lon="5.61764">
        <ele>779</ele>
        <time>2022-10-19T09:08:52.630Z</time>
      </trkpt>
      <trkpt lat="43.52962" lon="5.61764">
        <ele>779</ele>
        <time>2022-10-19T09:08:53.630Z</time>
      </trkpt>
      <trkpt lat="43.52962" lon="5.61764">
        <ele>779</ele>
        <time>2022-10-19T09:08:54.630Z</time>
      </trkpt>
      <trkpt lat="43.52962" lon="5.61764">
        <ele>779</ele>
        <time>2022-10-19T09:08:55.630Z</time>
      </trkpt>
      <trkpt lat="43.52962" lon="5.61763">
        <ele>779</ele>
        <time>2022-10-19T09:08:56.630Z</time>
      </trkpt>
      <trkpt lat="43.52962" lon="5.61763">
        <ele>779</ele>
        <time>2022-10-19T09:08:57.630Z</time>
      </trkpt>
      <trkpt lat="43.52962" lon="5.61763">
        <ele>779</ele>
        <time>2022-10-19T09:08:58.630Z</time>
      </trkpt>
      <trkpt lat="43.52962" lon="5.61763">
        <ele>779</ele>
        <time>2022-10-19T09:08:59.630Z</time>
      </trkpt>
      <trkpt lat="43.52962" lon="5.61763">
        <ele>779</ele>
        <time>2022-10-19T09:09:00.630Z</time>
      </trkpt>
      <trkpt lat="43.52962" lon="5.61763">
        <ele>779</ele>
        <time>2022-10-19T09:09:01.630Z</time>
      </trkpt>
      <trkpt lat="43.52962" lon="5.61763">
        <ele>779</ele>
        <time>2022-10-19T09:09:02.630Z</time>
      </trkpt>
      <trkpt lat="43.52961" lon="5.61762">
        <ele>779</ele>
        <time>2022-10-19T09:09:03.630Z</time>
      </trkpt>
      <trkpt lat="43.52961" lon="5.6176">
        <ele>778</ele>
        <time>2022-10-19T09:09:04.630Z</time>
      </trkpt>
      <trkpt lat="43.5296" lon="5.61759">
        <ele>778</ele>
        <time>2022-10-19T09:09:05.630Z</time>
      </trkpt>
      <trkpt lat="43.5296" lon="5.61758">
        <ele>778</ele>
        <time>2022-10-19T09:09:06.630Z</time>
      </trkpt>
      <trkpt lat="43.5296" lon="5.61757">
        <ele>778</ele>
        <time>2022-10-19T09:09:07.630Z</time>
      </trkpt>
      <trkpt lat="43.5296" lon="5.61756">
        <ele>778</ele>
        <time>2022-10-19T09:09:08.630Z</time>
      </trkpt>
      <trkpt lat="43.52959" lon="5.61755">
        <ele>777</ele>
        <time>2022-10-19T09:09:09.630Z</time>
      </trkpt>
      <trkpt lat="43.52958" lon="5.61754">
        <ele>777</ele>
        <time>2022-10-19T09:09:10.630Z</time>
      </trkpt>
      <trkpt lat="43.52958" lon="5.61753">
        <ele>777</ele>
        <time>2022-10-19T09:09:11.630Z</time>
      </trkpt>
      <trkpt lat="43.52957" lon="5.61752">
        <ele>777</ele>
        <time>2022-10-19T09:09:12.630Z</time>
      </trkpt>
      <trkpt lat="43.52957" lon="5.61751">
        <ele>777</ele>
        <time>2022-10-19T09:09:13.630Z</time>
      </trkpt>
      <trkpt lat="43.52956" lon="5.6175">
        <ele>777</ele>
        <time>2022-10-19T09:09:14.630Z</time>
      </trkpt>
      <trkpt lat="43.52956" lon="5.61749">
        <ele>776</ele>
        <time>2022-10-19T09:09:15.630Z</time>
      </trkpt>
      <trkpt lat="43.52955" lon="5.61747">
        <ele>776</ele>
        <time>2022-10-19T09:09:16.630Z</time>
      </trkpt>
      <trkpt lat="43.52955" lon="5.61745">
        <ele>776</ele>
        <time>2022-10-19T09:09:17.630Z</time>
      </trkpt>
      <trkpt lat="43.52955" lon="5.61744">
        <ele>776</ele>
        <time>2022-10-19T09:09:18.630Z</time>
      </trkpt>
      <trkpt lat="43.52956" lon="5.61743">
        <ele>776</ele>
        <time>2022-10-19T09:09:19.630Z</time>
      </trkpt>
      <trkpt lat="43.52956" lon="5.61741">
        <ele>776</ele>
        <time>2022-10-19T09:09:20.630Z</time>
      </trkpt>
      <trkpt lat="43.52957" lon="5.6174">
        <ele>776</ele>
        <time>2022-10-19T09:09:21.630Z</time>
      </trkpt>
      <trkpt lat="43.52957" lon="5.61739">
        <ele>776</ele>
        <time>2022-10-19T09:09:22.630Z</time>
      </trkpt>
      <trkpt lat="43.52957" lon="5.61737">
        <ele>775</ele>
        <time>2022-10-19T09:09:23.630Z</time>
      </trkpt>
      <trkpt lat="43.52958" lon="5.61736">
        <ele>775</ele>
        <time>2022-10-19T09:09:24.630Z</time>
      </trkpt>
      <trkpt lat="43.52958" lon="5.61734">
        <ele>775</ele>
        <time>2022-10-19T09:09:25.630Z</time>
      </trkpt>
      <trkpt lat="43.52958" lon="5.61732">
        <ele>775</ele>
        <time>2022-10-19T09:09:26.630Z</time>
      </trkpt>
      <trkpt lat="43.52958" lon="5.61731">
        <ele>775</ele>
        <time>2022-10-19T09:09:27.630Z</time>
      </trkpt>
      <trkpt lat="43.52958" lon="5.61729">
        <ele>775</ele>
        <time>2022-10-19T09:09:28.630Z</time>
      </trkpt>
      <trkpt lat="43.52959" lon="5.61728">
        <ele>775</ele>
        <time>2022-10-19T09:09:29.630Z</time>
      </trkpt>
      <trkpt lat="43.52959" lon="5.61727">
        <ele>775</ele>
        <time>2022-10-19T09:09:30.630Z</time>
      </trkpt>
      <trkpt lat="43.52959" lon="5.61726">
        <ele>775</ele>
        <time>2022-10-19T09:09:31.630Z</time>
      </trkpt>
      <trkpt lat="43.52959" lon="5.61724">
        <ele>775</ele>
        <time>2022-10-19T09:09:32.630Z</time>
      </trkpt>
      <trkpt lat="43.52959" lon="5.61723">
        <ele>775</ele>
        <time>2022-10-19T09:09:33.630Z</time>
      </trkpt>
      <trkpt lat="43.5296" lon="5.61722">
        <ele>775</ele>
        <time>2022-10-19T09:09:34.630Z</time>
      </trkpt>
      <trkpt lat="43.5296" lon="5.61721">
        <ele>775</ele>
        <time>2022-10-19T09:09:35.630Z</time>
      </trkpt>
      <trkpt lat="43.5296" lon="5.6172">
        <ele>775</ele>
        <time>2022-10-19T09:09:36.630Z</time>
      </trkpt>
      <trkpt lat="43.5296" lon="5.61719">
        <ele>775</ele>
        <time>2022-10-19T09:09:37.630Z</time>
      </trkpt>
      <trkpt lat="43.5296" lon="5.61718">
        <ele>775</ele>
        <time>2022-10-19T09:09:38.630Z</time>
      </trkpt>
      <trkpt lat="43.5296" lon="5.61717">
        <ele>775</ele>
        <time>2022-10-19T09:09:39.630Z</time>
      </trkpt>
      <trkpt lat="43.5296" lon="5.61717">
        <ele>774</ele>
        <time>2022-10-19T09:09:40.630Z</time>
      </trkpt>
      <trkpt lat="43.52959" lon="5.61717">
        <ele>774</ele>
        <time>2022-10-19T09:09:41.630Z</time>
      </trkpt>
      <trkpt lat="43.52958" lon="5.61716">
        <ele>774</ele>
        <time>2022-10-19T09:09:42.630Z</time>
      </trkpt>
      <trkpt lat="43.52958" lon="5.61715">
        <ele>774</ele>
        <time>2022-10-19T09:09:43.630Z</time>
      </trkpt>
      <trkpt lat="43.52957" lon="5.61714">
        <ele>774</ele>
        <time>2022-10-19T09:09:44.630Z</time>
      </trkpt>
      <trkpt lat="43.52957" lon="5.61713">
        <ele>774</ele>
        <time>2022-10-19T09:09:45.630Z</time>
      </trkpt>
      <trkpt lat="43.52957" lon="5.61712">
        <ele>774</ele>
        <time>2022-10-19T09:09:46.630Z</time>
      </trkpt>
      <trkpt lat="43.52956" lon="5.61711">
        <ele>774</ele>
        <time>2022-10-19T09:09:47.630Z</time>
      </trkpt>
      <trkpt lat="43.52956" lon="5.6171">
        <ele>773</ele>
        <time>2022-10-19T09:09:48.630Z</time>
      </trkpt>
      <trkpt lat="43.52956" lon="5.6171">
        <ele>773</ele>
        <time>2022-10-19T09:09:49.630Z</time>
      </trkpt>
      <trkpt lat="43.52955" lon="5.61708">
        <ele>773</ele>
        <time>2022-10-19T09:09:50.630Z</time>
      </trkpt>
      <trkpt lat="43.52955" lon="5.61707">
        <ele>773</ele>
        <time>2022-10-19T09:09:51.630Z</time>
      </trkpt>
      <trkpt lat="43.52955" lon="5.61706">
        <ele>773</ele>
        <time>2022-10-19T09:09:52.630Z</time>
      </trkpt>
      <trkpt lat="43.52955" lon="5.61704">
        <ele>773</ele>
        <time>2022-10-19T09:09:53.630Z</time>
      </trkpt>
      <trkpt lat="43.52955" lon="5.61703">
        <ele>773</ele>
        <time>2022-10-19T09:09:54.630Z</time>
      </trkpt>
      <trkpt lat="43.52955" lon="5.61702">
        <ele>773</ele>
        <time>2022-10-19T09:09:55.630Z</time>
      </trkpt>
      <trkpt lat="43.52955" lon="5.617">
        <ele>773</ele>
        <time>2022-10-19T09:09:56.630Z</time>
      </trkpt>
      <trkpt lat="43.52955" lon="5.61699">
        <ele>772</ele>
        <time>2022-10-19T09:09:57.630Z</time>
      </trkpt>
      <trkpt lat="43.52955" lon="5.61698">
        <ele>772</ele>
        <time>2022-10-19T09:09:58.630Z</time>
      </trkpt>
      <trkpt lat="43.52955" lon="5.61697">
        <ele>772</ele>
        <time>2022-10-19T09:09:59.630Z</time>
      </trkpt>
      <trkpt lat="43.52955" lon="5.61696">
        <ele>772</ele>
        <time>2022-10-19T09:10:00.630Z</time>
      </trkpt>
      <trkpt lat="43.52955" lon="5.61695">
        <ele>772</ele>
        <time>2022-10-19T09:10:01.630Z</time>
      </trkpt>
      <trkpt lat="43.52955" lon="5.61693">
        <ele>771</ele>
        <time>2022-10-19T09:10:02.630Z</time>
      </trkpt>
      <trkpt lat="43.52955" lon="5.61692">
        <ele>771</ele>
        <time>2022-10-19T09:10:03.630Z</time>
      </trkpt>
      <trkpt lat="43.52955" lon="5.6169">
        <ele>771</ele>
        <time>2022-10-19T09:10:04.630Z</time>
      </trkpt>
      <trkpt lat="43.52955" lon="5.61689">
        <ele>771</ele>
        <time>2022-10-19T09:10:05.630Z</time>
      </trkpt>
      <trkpt lat="43.52955" lon="5.61688">
        <ele>771</ele>
        <time>2022-10-19T09:10:06.630Z</time>
      </trkpt>
      <trkpt lat="43.52955" lon="5.61687">
        <ele>771</ele>
        <time>2022-10-19T09:10:07.630Z</time>
      </trkpt>
      <trkpt lat="43.52955" lon="5.61686">
        <ele>771</ele>
        <time>2022-10-19T09:10:08.630Z</time>
      </trkpt>
      <trkpt lat="43.52955" lon="5.61685">
        <ele>770</ele>
        <time>2022-10-19T09:10:09.630Z</time>
      </trkpt>
      <trkpt lat="43.52955" lon="5.61684">
        <ele>770</ele>
        <time>2022-10-19T09:10:10.630Z</time>
      </trkpt>
      <trkpt lat="43.52955" lon="5.61683">
        <ele>770</ele>
        <time>2022-10-19T09:10:11.630Z</time>
      </trkpt>
      <trkpt lat="43.52955" lon="5.61682">
        <ele>770</ele>
        <time>2022-10-19T09:10:12.630Z</time>
      </trkpt>
      <trkpt lat="43.52955" lon="5.61681">
        <ele>770</ele>
        <time>2022-10-19T09:10:13.630Z</time>
      </trkpt>
      <trkpt lat="43.52955" lon="5.6168">
        <ele>770</ele>
        <time>2022-10-19T09:10:14.630Z</time>
      </trkpt>
      <trkpt lat="43.52955" lon="5.61679">
        <ele>770</ele>
        <time>2022-10-19T09:10:15.630Z</time>
      </trkpt>
      <trkpt lat="43.52955" lon="5.61679">
        <ele>769</ele>
        <time>2022-10-19T09:10:16.630Z</time>
      </trkpt>
      <trkpt lat="43.52955" lon="5.61678">
        <ele>769</ele>
        <time>2022-10-19T09:10:17.630Z</time>
      </trkpt>
      <trkpt lat="43.52954" lon="5.61677">
        <ele>769</ele>
        <time>2022-10-19T09:10:18.630Z</time>
      </trkpt>
      <trkpt lat="43.52954" lon="5.61676">
        <ele>769</ele>
        <time>2022-10-19T09:10:19.630Z</time>
      </trkpt>
      <trkpt lat="43.52953" lon="5.61676">
        <ele>769</ele>
        <time>2022-10-19T09:10:20.630Z</time>
      </trkpt>
      <trkpt lat="43.52953" lon="5.61675">
        <ele>769</ele>
        <time>2022-10-19T09:10:21.630Z</time>
      </trkpt>
      <trkpt lat="43.52953" lon="5.61674">
        <ele>769</ele>
        <time>2022-10-19T09:10:22.630Z</time>
      </trkpt>
      <trkpt lat="43.52952" lon="5.61674">
        <ele>768</ele>
        <time>2022-10-19T09:10:23.630Z</time>
      </trkpt>
      <trkpt lat="43.52952" lon="5.61673">
        <ele>768</ele>
        <time>2022-10-19T09:10:24.630Z</time>
      </trkpt>
      <trkpt lat="43.52952" lon="5.61672">
        <ele>768</ele>
        <time>2022-10-19T09:10:25.630Z</time>
      </trkpt>
      <trkpt lat="43.52952" lon="5.61671">
        <ele>768</ele>
        <time>2022-10-19T09:10:26.630Z</time>
      </trkpt>
      <trkpt lat="43.52952" lon="5.6167">
        <ele>768</ele>
        <time>2022-10-19T09:10:27.630Z</time>
      </trkpt>
      <trkpt lat="43.52952" lon="5.61669">
        <ele>768</ele>
        <time>2022-10-19T09:10:28.630Z</time>
      </trkpt>
      <trkpt lat="43.52952" lon="5.61668">
        <ele>768</ele>
        <time>2022-10-19T09:10:29.630Z</time>
      </trkpt>
      <trkpt lat="43.52951" lon="5.61667">
        <ele>768</ele>
        <time>2022-10-19T09:10:30.630Z</time>
      </trkpt>
      <trkpt lat="43.52951" lon="5.61666">
        <ele>768</ele>
        <time>2022-10-19T09:10:31.630Z</time>
      </trkpt>
      <trkpt lat="43.5295" lon="5.61665">
        <ele>767</ele>
        <time>2022-10-19T09:10:32.630Z</time>
      </trkpt>
      <trkpt lat="43.5295" lon="5.61664">
        <ele>767</ele>
        <time>2022-10-19T09:10:33.630Z</time>
      </trkpt>
      <trkpt lat="43.5295" lon="5.61663">
        <ele>767</ele>
        <time>2022-10-19T09:10:34.630Z</time>
      </trkpt>
      <trkpt lat="43.5295" lon="5.61662">
        <ele>767</ele>
        <time>2022-10-19T09:10:35.630Z</time>
      </trkpt>
      <trkpt lat="43.5295" lon="5.61662">
        <ele>767</ele>
        <time>2022-10-19T09:10:36.630Z</time>
      </trkpt>
      <trkpt lat="43.52949" lon="5.61661">
        <ele>766</ele>
        <time>2022-10-19T09:10:37.630Z</time>
      </trkpt>
      <trkpt lat="43.52949" lon="5.6166">
        <ele>766</ele>
        <time>2022-10-19T09:10:38.630Z</time>
      </trkpt>
      <trkpt lat="43.52948" lon="5.6166">
        <ele>766</ele>
        <time>2022-10-19T09:10:39.630Z</time>
      </trkpt>
      <trkpt lat="43.52948" lon="5.61659">
        <ele>766</ele>
        <time>2022-10-19T09:10:40.630Z</time>
      </trkpt>
      <trkpt lat="43.52947" lon="5.61659">
        <ele>766</ele>
        <time>2022-10-19T09:10:41.630Z</time>
      </trkpt>
      <trkpt lat="43.52947" lon="5.61658">
        <ele>766</ele>
        <time>2022-10-19T09:10:42.630Z</time>
      </trkpt>
      <trkpt lat="43.52946" lon="5.61657">
        <ele>766</ele>
        <time>2022-10-19T09:10:43.630Z</time>
      </trkpt>
      <trkpt lat="43.52946" lon="5.61657">
        <ele>766</ele>
        <time>2022-10-19T09:10:44.630Z</time>
      </trkpt>
      <trkpt lat="43.52946" lon="5.61657">
        <ele>766</ele>
        <time>2022-10-19T09:10:45.630Z</time>
      </trkpt>
      <trkpt lat="43.52945" lon="5.61656">
        <ele>765</ele>
        <time>2022-10-19T09:10:46.630Z</time>
      </trkpt>
      <trkpt lat="43.52945" lon="5.61656">
        <ele>765</ele>
        <time>2022-10-19T09:10:47.630Z</time>
      </trkpt>
      <trkpt lat="43.52944" lon="5.61655">
        <ele>765</ele>
        <time>2022-10-19T09:10:48.630Z</time>
      </trkpt>
      <trkpt lat="43.52944" lon="5.61655">
        <ele>765</ele>
        <time>2022-10-19T09:10:49.630Z</time>
      </trkpt>
      <trkpt lat="43.52943" lon="5.61655">
        <ele>765</ele>
        <time>2022-10-19T09:10:50.630Z</time>
      </trkpt>
      <trkpt lat="43.52943" lon="5.61654">
        <ele>765</ele>
        <time>2022-10-19T09:10:51.630Z</time>
      </trkpt>
      <trkpt lat="43.52942" lon="5.61654">
        <ele>765</ele>
        <time>2022-10-19T09:10:52.630Z</time>
      </trkpt>
      <trkpt lat="43.52942" lon="5.61654">
        <ele>765</ele>
        <time>2022-10-19T09:10:53.630Z</time>
      </trkpt>
      <trkpt lat="43.52941" lon="5.61654">
        <ele>765</ele>
        <time>2022-10-19T09:10:54.630Z</time>
      </trkpt>
      <trkpt lat="43.52941" lon="5.61654">
        <ele>765</ele>
        <time>2022-10-19T09:10:55.630Z</time>
      </trkpt>
      <trkpt lat="43.5294" lon="5.61654">
        <ele>765</ele>
        <time>2022-10-19T09:10:56.630Z</time>
      </trkpt>
      <trkpt lat="43.52939" lon="5.61654">
        <ele>765</ele>
        <time>2022-10-19T09:10:57.630Z</time>
      </trkpt>
      <trkpt lat="43.52938" lon="5.61653">
        <ele>765</ele>
        <time>2022-10-19T09:10:58.630Z</time>
      </trkpt>
      <trkpt lat="43.52938" lon="5.61652">
        <ele>765</ele>
        <time>2022-10-19T09:10:59.630Z</time>
      </trkpt>
      <trkpt lat="43.52938" lon="5.61651">
        <ele>765</ele>
        <time>2022-10-19T09:11:00.630Z</time>
      </trkpt>
      <trkpt lat="43.52938" lon="5.61649">
        <ele>764</ele>
        <time>2022-10-19T09:11:01.630Z</time>
      </trkpt>
      <trkpt lat="43.52938" lon="5.61648">
        <ele>764</ele>
        <time>2022-10-19T09:11:02.630Z</time>
      </trkpt>
      <trkpt lat="43.52938" lon="5.61647">
        <ele>764</ele>
        <time>2022-10-19T09:11:03.630Z</time>
      </trkpt>
      <trkpt lat="43.52938" lon="5.61646">
        <ele>764</ele>
        <time>2022-10-19T09:11:04.630Z</time>
      </trkpt>
      <trkpt lat="43.52938" lon="5.61646">
        <ele>764</ele>
        <time>2022-10-19T09:11:05.630Z</time>
      </trkpt>
      <trkpt lat="43.52938" lon="5.61645">
        <ele>763</ele>
        <time>2022-10-19T09:11:06.630Z</time>
      </trkpt>
      <trkpt lat="43.52938" lon="5.61645">
        <ele>763</ele>
        <time>2022-10-19T09:11:07.630Z</time>
      </trkpt>
      <trkpt lat="43.52938" lon="5.61645">
        <ele>763</ele>
        <time>2022-10-19T09:11:08.630Z</time>
      </trkpt>
      <trkpt lat="43.52938" lon="5.61645">
        <ele>763</ele>
        <time>2022-10-19T09:11:09.630Z</time>
      </trkpt>
      <trkpt lat="43.52938" lon="5.61645">
        <ele>763</ele>
        <time>2022-10-19T09:11:10.630Z</time>
      </trkpt>
      <trkpt lat="43.52938" lon="5.61645">
        <ele>763</ele>
        <time>2022-10-19T09:11:11.630Z</time>
      </trkpt>
      <trkpt lat="43.52938" lon="5.61645">
        <ele>763</ele>
        <time>2022-10-19T09:11:12.630Z</time>
      </trkpt>
      <trkpt lat="43.52938" lon="5.61644">
        <ele>763</ele>
        <time>2022-10-19T09:11:13.630Z</time>
      </trkpt>
      <trkpt lat="43.52938" lon="5.61644">
        <ele>763</ele>
        <time>2022-10-19T09:11:14.630Z</time>
      </trkpt>
      <trkpt lat="43.52938" lon="5.61644">
        <ele>763</ele>
        <time>2022-10-19T09:11:15.630Z</time>
      </trkpt>
      <trkpt lat="43.52938" lon="5.61644">
        <ele>763</ele>
        <time>2022-10-19T09:11:16.630Z</time>
      </trkpt>
      <trkpt lat="43.52938" lon="5.61644">
        <ele>762</ele>
        <time>2022-10-19T09:11:17.630Z</time>
      </trkpt>
      <trkpt lat="43.52938" lon="5.61644">
        <ele>762</ele>
        <time>2022-10-19T09:11:18.630Z</time>
      </trkpt>
      <trkpt lat="43.52938" lon="5.61644">
        <ele>762</ele>
        <time>2022-10-19T09:11:19.630Z</time>
      </trkpt>
      <trkpt lat="43.52938" lon="5.61644">
        <ele>762</ele>
        <time>2022-10-19T09:11:20.630Z</time>
      </trkpt>
      <trkpt lat="43.52938" lon="5.61644">
        <ele>762</ele>
        <time>2022-10-19T09:11:21.630Z</time>
      </trkpt>
      <trkpt lat="43.52938" lon="5.61644">
        <ele>762</ele>
        <time>2022-10-19T09:11:22.630Z</time>
      </trkpt>
      <trkpt lat="43.52938" lon="5.61644">
        <ele>762</ele>
        <time>2022-10-19T09:11:23.630Z</time>
      </trkpt>
      <trkpt lat="43.52938" lon="5.61644">
        <ele>762</ele>
        <time>2022-10-19T09:11:24.630Z</time>
      </trkpt>
      <trkpt lat="43.52938" lon="5.61644">
        <ele>762</ele>
        <time>2022-10-19T09:11:25.630Z</time>
      </trkpt>
      <trkpt lat="43.52938" lon="5.61643">
        <ele>762</ele>
        <time>2022-10-19T09:11:26.630Z</time>
      </trkpt>
      <trkpt lat="43.52938" lon="5.61643">
        <ele>762</ele>
        <time>2022-10-19T09:11:27.630Z</time>
      </trkpt>
      <trkpt lat="43.52938" lon="5.61643">
        <ele>762</ele>
        <time>2022-10-19T09:11:28.630Z</time>
      </trkpt>
      <trkpt lat="43.52938" lon="5.61643">
        <ele>762</ele>
        <time>2022-10-19T09:11:29.630Z</time>
      </trkpt>
      <trkpt lat="43.52938" lon="5.61643">
        <ele>762</ele>
        <time>2022-10-19T09:11:30.630Z</time>
      </trkpt>
      <trkpt lat="43.52938" lon="5.61644">
        <ele>762</ele>
        <time>2022-10-19T09:11:31.630Z</time>
      </trkpt>
      <trkpt lat="43.52938" lon="5.61643">
        <ele>762</ele>
        <time>2022-10-19T09:11:32.630Z</time>
      </trkpt>
      <trkpt lat="43.52938" lon="5.61643">
        <ele>762</ele>
        <time>2022-10-19T09:11:33.630Z</time>
      </trkpt>
      <trkpt lat="43.52938" lon="5.61643">
        <ele>762</ele>
        <time>2022-10-19T09:11:34.630Z</time>
      </trkpt>
      <trkpt lat="43.52938" lon="5.61643">
        <ele>762</ele>
        <time>2022-10-19T09:11:35.630Z</time>
      </trkpt>
      <trkpt lat="43.52938" lon="5.61643">
        <ele>762</ele>
        <time>2022-10-19T09:11:36.630Z</time>
      </trkpt>
      <trkpt lat="43.52938" lon="5.61643">
        <ele>762</ele>
        <time>2022-10-19T09:11:37.630Z</time>
      </trkpt>
      <trkpt lat="43.52938" lon="5.61643">
        <ele>762</ele>
        <time>2022-10-19T09:11:38.630Z</time>
      </trkpt>
      <trkpt lat="43.52938" lon="5.61643">
        <ele>762</ele>
        <time>2022-10-19T09:11:39.630Z</time>
      </trkpt>
      <trkpt lat="43.52938" lon="5.61643">
        <ele>762</ele>
        <time>2022-10-19T09:11:40.630Z</time>
      </trkpt>
      <trkpt lat="43.52938" lon="5.61643">
        <ele>762</ele>
        <time>2022-10-19T09:11:41.630Z</time>
      </trkpt>
      <trkpt lat="43.52938" lon="5.61643">
        <ele>762</ele>
        <time>2022-10-19T09:11:42.630Z</time>
      </trkpt>
      <trkpt lat="43.52938" lon="5.61643">
        <ele>762</ele>
        <time>2022-10-19T09:11:43.630Z</time>
      </trkpt>
      <trkpt lat="43.52938" lon="5.61642">
        <ele>762</ele>
        <time>2022-10-19T09:11:44.630Z</time>
      </trkpt>
      <trkpt lat="43.52937" lon="5.61642">
        <ele>762</ele>
        <time>2022-10-19T09:11:45.630Z</time>
      </trkpt>
      <trkpt lat="43.52937" lon="5.61641">
        <ele>761</ele>
        <time>2022-10-19T09:11:46.630Z</time>
      </trkpt>
      <trkpt lat="43.52937" lon="5.6164">
        <ele>761</ele>
        <time>2022-10-19T09:11:47.630Z</time>
      </trkpt>
      <trkpt lat="43.52936" lon="5.6164">
        <ele>761</ele>
        <time>2022-10-19T09:11:48.630Z</time>
      </trkpt>
      <trkpt lat="43.52936" lon="5.61639">
        <ele>761</ele>
        <time>2022-10-19T09:11:49.630Z</time>
      </trkpt>
      <trkpt lat="43.52935" lon="5.61639">
        <ele>761</ele>
        <time>2022-10-19T09:11:50.630Z</time>
      </trkpt>
      <trkpt lat="43.52935" lon="5.61639">
        <ele>761</ele>
        <time>2022-10-19T09:11:51.630Z</time>
      </trkpt>
      <trkpt lat="43.52934" lon="5.61638">
        <ele>761</ele>
        <time>2022-10-19T09:11:52.630Z</time>
      </trkpt>
      <trkpt lat="43.52934" lon="5.61638">
        <ele>761</ele>
        <time>2022-10-19T09:11:53.630Z</time>
      </trkpt>
      <trkpt lat="43.52933" lon="5.61638">
        <ele>761</ele>
        <time>2022-10-19T09:11:54.630Z</time>
      </trkpt>
      <trkpt lat="43.52933" lon="5.61637">
        <ele>760</ele>
        <time>2022-10-19T09:11:55.630Z</time>
      </trkpt>
      <trkpt lat="43.52933" lon="5.61636">
        <ele>760</ele>
        <time>2022-10-19T09:11:56.630Z</time>
      </trkpt>
      <trkpt lat="43.52933" lon="5.61636">
        <ele>760</ele>
        <time>2022-10-19T09:11:57.630Z</time>
      </trkpt>
      <trkpt lat="43.52932" lon="5.61635">
        <ele>760</ele>
        <time>2022-10-19T09:11:58.630Z</time>
      </trkpt>
      <trkpt lat="43.52932" lon="5.61635">
        <ele>760</ele>
        <time>2022-10-19T09:11:59.630Z</time>
      </trkpt>
      <trkpt lat="43.52932" lon="5.61634">
        <ele>760</ele>
        <time>2022-10-19T09:12:00.630Z</time>
      </trkpt>
      <trkpt lat="43.52931" lon="5.61634">
        <ele>760</ele>
        <time>2022-10-19T09:12:01.630Z</time>
      </trkpt>
      <trkpt lat="43.52931" lon="5.61633">
        <ele>759</ele>
        <time>2022-10-19T09:12:02.630Z</time>
      </trkpt>
      <trkpt lat="43.52931" lon="5.61633">
        <ele>759</ele>
        <time>2022-10-19T09:12:03.630Z</time>
      </trkpt>
      <trkpt lat="43.5293" lon="5.61632">
        <ele>759</ele>
        <time>2022-10-19T09:12:04.630Z</time>
      </trkpt>
      <trkpt lat="43.5293" lon="5.61632">
        <ele>759</ele>
        <time>2022-10-19T09:12:05.630Z</time>
      </trkpt>
      <trkpt lat="43.52929" lon="5.61631">
        <ele>759</ele>
        <time>2022-10-19T09:12:06.630Z</time>
      </trkpt>
      <trkpt lat="43.52929" lon="5.61631">
        <ele>758</ele>
        <time>2022-10-19T09:12:07.630Z</time>
      </trkpt>
      <trkpt lat="43.52928" lon="5.6163">
        <ele>758</ele>
        <time>2022-10-19T09:12:08.630Z</time>
      </trkpt>
      <trkpt lat="43.52928" lon="5.61629">
        <ele>758</ele>
        <time>2022-10-19T09:12:09.630Z</time>
      </trkpt>
      <trkpt lat="43.52928" lon="5.61629">
        <ele>758</ele>
        <time>2022-10-19T09:12:10.630Z</time>
      </trkpt>
      <trkpt lat="43.52928" lon="5.61628">
        <ele>757</ele>
        <time>2022-10-19T09:12:11.630Z</time>
      </trkpt>
      <trkpt lat="43.52927" lon="5.61628">
        <ele>757</ele>
        <time>2022-10-19T09:12:12.630Z</time>
      </trkpt>
      <trkpt lat="43.52927" lon="5.61627">
        <ele>757</ele>
        <time>2022-10-19T09:12:13.630Z</time>
      </trkpt>
      <trkpt lat="43.52927" lon="5.61626">
        <ele>757</ele>
        <time>2022-10-19T09:12:14.630Z</time>
      </trkpt>
      <trkpt lat="43.52927" lon="5.61625">
        <ele>756</ele>
        <time>2022-10-19T09:12:15.630Z</time>
      </trkpt>
      <trkpt lat="43.52927" lon="5.61625">
        <ele>756</ele>
        <time>2022-10-19T09:12:16.630Z</time>
      </trkpt>
      <trkpt lat="43.52928" lon="5.61624">
        <ele>756</ele>
        <time>2022-10-19T09:12:17.630Z</time>
      </trkpt>
      <trkpt lat="43.52928" lon="5.61623">
        <ele>755</ele>
        <time>2022-10-19T09:12:18.630Z</time>
      </trkpt>
      <trkpt lat="43.52928" lon="5.61623">
        <ele>755</ele>
        <time>2022-10-19T09:12:19.630Z</time>
      </trkpt>
      <trkpt lat="43.52927" lon="5.61622">
        <ele>755</ele>
        <time>2022-10-19T09:12:20.630Z</time>
      </trkpt>
      <trkpt lat="43.52927" lon="5.61622">
        <ele>755</ele>
        <time>2022-10-19T09:12:21.630Z</time>
      </trkpt>
      <trkpt lat="43.52927" lon="5.61622">
        <ele>755</ele>
        <time>2022-10-19T09:12:22.630Z</time>
      </trkpt>
      <trkpt lat="43.52926" lon="5.61621">
        <ele>754</ele>
        <time>2022-10-19T09:12:23.630Z</time>
      </trkpt>
      <trkpt lat="43.52926" lon="5.61621">
        <ele>754</ele>
        <time>2022-10-19T09:12:24.630Z</time>
      </trkpt>
      <trkpt lat="43.52925" lon="5.6162">
        <ele>754</ele>
        <time>2022-10-19T09:12:25.630Z</time>
      </trkpt>
      <trkpt lat="43.52925" lon="5.6162">
        <ele>754</ele>
        <time>2022-10-19T09:12:26.630Z</time>
      </trkpt>
      <trkpt lat="43.52925" lon="5.6162">
        <ele>754</ele>
        <time>2022-10-19T09:12:27.630Z</time>
      </trkpt>
      <trkpt lat="43.52925" lon="5.61619">
        <ele>754</ele>
        <time>2022-10-19T09:12:28.630Z</time>
      </trkpt>
      <trkpt lat="43.52925" lon="5.61618">
        <ele>754</ele>
        <time>2022-10-19T09:12:29.630Z</time>
      </trkpt>
      <trkpt lat="43.52925" lon="5.61617">
        <ele>753</ele>
        <time>2022-10-19T09:12:30.630Z</time>
      </trkpt>
      <trkpt lat="43.52925" lon="5.61617">
        <ele>753</ele>
        <time>2022-10-19T09:12:31.630Z</time>
      </trkpt>
      <trkpt lat="43.52925" lon="5.61617">
        <ele>753</ele>
        <time>2022-10-19T09:12:32.630Z</time>
      </trkpt>
      <trkpt lat="43.52925" lon="5.61616">
        <ele>753</ele>
        <time>2022-10-19T09:12:33.630Z</time>
      </trkpt>
      <trkpt lat="43.52925" lon="5.61616">
        <ele>753</ele>
        <time>2022-10-19T09:12:34.630Z</time>
      </trkpt>
      <trkpt lat="43.52925" lon="5.61616">
        <ele>752</ele>
        <time>2022-10-19T09:12:35.630Z</time>
      </trkpt>
      <trkpt lat="43.52924" lon="5.61616">
        <ele>752</ele>
        <time>2022-10-19T09:12:36.630Z</time>
      </trkpt>
      <trkpt lat="43.52924" lon="5.61615">
        <ele>752</ele>
        <time>2022-10-19T09:12:37.630Z</time>
      </trkpt>
      <trkpt lat="43.52923" lon="5.61615">
        <ele>752</ele>
        <time>2022-10-19T09:12:38.630Z</time>
      </trkpt>
      <trkpt lat="43.52923" lon="5.61614">
        <ele>751</ele>
        <time>2022-10-19T09:12:39.630Z</time>
      </trkpt>
      <trkpt lat="43.52923" lon="5.61613">
        <ele>751</ele>
        <time>2022-10-19T09:12:40.630Z</time>
      </trkpt>
      <trkpt lat="43.52923" lon="5.61612">
        <ele>751</ele>
        <time>2022-10-19T09:12:41.630Z</time>
      </trkpt>
      <trkpt lat="43.52923" lon="5.61611">
        <ele>751</ele>
        <time>2022-10-19T09:12:42.630Z</time>
      </trkpt>
      <trkpt lat="43.52923" lon="5.6161">
        <ele>750</ele>
        <time>2022-10-19T09:12:43.630Z</time>
      </trkpt>
      <trkpt lat="43.52923" lon="5.61609">
        <ele>750</ele>
        <time>2022-10-19T09:12:44.630Z</time>
      </trkpt>
      <trkpt lat="43.52924" lon="5.61608">
        <ele>750</ele>
        <time>2022-10-19T09:12:45.630Z</time>
      </trkpt>
      <trkpt lat="43.52924" lon="5.61607">
        <ele>749</ele>
        <time>2022-10-19T09:12:46.630Z</time>
      </trkpt>
      <trkpt lat="43.52925" lon="5.61606">
        <ele>749</ele>
        <time>2022-10-19T09:12:47.630Z</time>
      </trkpt>
      <trkpt lat="43.52925" lon="5.61605">
        <ele>749</ele>
        <time>2022-10-19T09:12:48.630Z</time>
      </trkpt>
      <trkpt lat="43.52925" lon="5.61603">
        <ele>749</ele>
        <time>2022-10-19T09:12:49.630Z</time>
      </trkpt>
      <trkpt lat="43.52925" lon="5.61602">
        <ele>748</ele>
        <time>2022-10-19T09:12:50.630Z</time>
      </trkpt>
      <trkpt lat="43.52926" lon="5.61601">
        <ele>748</ele>
        <time>2022-10-19T09:12:51.630Z</time>
      </trkpt>
      <trkpt lat="43.52926" lon="5.616">
        <ele>748</ele>
        <time>2022-10-19T09:12:52.630Z</time>
      </trkpt>
      <trkpt lat="43.52926" lon="5.61599">
        <ele>748</ele>
        <time>2022-10-19T09:12:53.630Z</time>
      </trkpt>
      <trkpt lat="43.52926" lon="5.61599">
        <ele>748</ele>
        <time>2022-10-19T09:12:54.630Z</time>
      </trkpt>
      <trkpt lat="43.52926" lon="5.61598">
        <ele>748</ele>
        <time>2022-10-19T09:12:55.630Z</time>
      </trkpt>
      <trkpt lat="43.52926" lon="5.61597">
        <ele>747</ele>
        <time>2022-10-19T09:12:56.630Z</time>
      </trkpt>
      <trkpt lat="43.52926" lon="5.61597">
        <ele>747</ele>
        <time>2022-10-19T09:12:57.630Z</time>
      </trkpt>
      <trkpt lat="43.52926" lon="5.61596">
        <ele>747</ele>
        <time>2022-10-19T09:12:58.630Z</time>
      </trkpt>
      <trkpt lat="43.52926" lon="5.61595">
        <ele>747</ele>
        <time>2022-10-19T09:12:59.630Z</time>
      </trkpt>
      <trkpt lat="43.52926" lon="5.61594">
        <ele>747</ele>
        <time>2022-10-19T09:13:00.630Z</time>
      </trkpt>
      <trkpt lat="43.52926" lon="5.61594">
        <ele>746</ele>
        <time>2022-10-19T09:13:01.630Z</time>
      </trkpt>
      <trkpt lat="43.52926" lon="5.61593">
        <ele>746</ele>
        <time>2022-10-19T09:13:02.630Z</time>
      </trkpt>
      <trkpt lat="43.52926" lon="5.61592">
        <ele>746</ele>
        <time>2022-10-19T09:13:03.630Z</time>
      </trkpt>
      <trkpt lat="43.52926" lon="5.61591">
        <ele>746</ele>
        <time>2022-10-19T09:13:04.630Z</time>
      </trkpt>
      <trkpt lat="43.52926" lon="5.6159">
        <ele>746</ele>
        <time>2022-10-19T09:13:05.630Z</time>
      </trkpt>
      <trkpt lat="43.52926" lon="5.61589">
        <ele>745</ele>
        <time>2022-10-19T09:13:06.630Z</time>
      </trkpt>
      <trkpt lat="43.52926" lon="5.61589">
        <ele>745</ele>
        <time>2022-10-19T09:13:07.630Z</time>
      </trkpt>
      <trkpt lat="43.52926" lon="5.61588">
        <ele>745</ele>
        <time>2022-10-19T09:13:08.630Z</time>
      </trkpt>
      <trkpt lat="43.52925" lon="5.61587">
        <ele>745</ele>
        <time>2022-10-19T09:13:09.630Z</time>
      </trkpt>
      <trkpt lat="43.52925" lon="5.61586">
        <ele>745</ele>
        <time>2022-10-19T09:13:10.630Z</time>
      </trkpt>
      <trkpt lat="43.52925" lon="5.61585">
        <ele>744</ele>
        <time>2022-10-19T09:13:11.630Z</time>
      </trkpt>
      <trkpt lat="43.52925" lon="5.61584">
        <ele>744</ele>
        <time>2022-10-19T09:13:12.630Z</time>
      </trkpt>
      <trkpt lat="43.52925" lon="5.61583">
        <ele>744</ele>
        <time>2022-10-19T09:13:13.630Z</time>
      </trkpt>
      <trkpt lat="43.52925" lon="5.61583">
        <ele>744</ele>
        <time>2022-10-19T09:13:14.630Z</time>
      </trkpt>
      <trkpt lat="43.52924" lon="5.61581">
        <ele>743</ele>
        <time>2022-10-19T09:13:15.630Z</time>
      </trkpt>
      <trkpt lat="43.52924" lon="5.6158">
        <ele>743</ele>
        <time>2022-10-19T09:13:16.630Z</time>
      </trkpt>
      <trkpt lat="43.52924" lon="5.61579">
        <ele>743</ele>
        <time>2022-10-19T09:13:17.630Z</time>
      </trkpt>
      <trkpt lat="43.52925" lon="5.61578">
        <ele>743</ele>
        <time>2022-10-19T09:13:18.630Z</time>
      </trkpt>
      <trkpt lat="43.52925" lon="5.61577">
        <ele>742</ele>
        <time>2022-10-19T09:13:19.630Z</time>
      </trkpt>
      <trkpt lat="43.52925" lon="5.61575">
        <ele>742</ele>
        <time>2022-10-19T09:13:20.630Z</time>
      </trkpt>
      <trkpt lat="43.52925" lon="5.61574">
        <ele>742</ele>
        <time>2022-10-19T09:13:21.630Z</time>
      </trkpt>
      <trkpt lat="43.52925" lon="5.61573">
        <ele>742</ele>
        <time>2022-10-19T09:13:22.630Z</time>
      </trkpt>
      <trkpt lat="43.52925" lon="5.61572">
        <ele>741</ele>
        <time>2022-10-19T09:13:23.630Z</time>
      </trkpt>
      <trkpt lat="43.52925" lon="5.61571">
        <ele>741</ele>
        <time>2022-10-19T09:13:24.630Z</time>
      </trkpt>
      <trkpt lat="43.52926" lon="5.61569">
        <ele>741</ele>
        <time>2022-10-19T09:13:25.630Z</time>
      </trkpt>
      <trkpt lat="43.52926" lon="5.61568">
        <ele>741</ele>
        <time>2022-10-19T09:13:26.630Z</time>
      </trkpt>
      <trkpt lat="43.52926" lon="5.61566">
        <ele>741</ele>
        <time>2022-10-19T09:13:27.630Z</time>
      </trkpt>
      <trkpt lat="43.52927" lon="5.61565">
        <ele>740</ele>
        <time>2022-10-19T09:13:28.630Z</time>
      </trkpt>
      <trkpt lat="43.52927" lon="5.61564">
        <ele>740</ele>
        <time>2022-10-19T09:13:29.630Z</time>
      </trkpt>
      <trkpt lat="43.52928" lon="5.61563">
        <ele>740</ele>
        <time>2022-10-19T09:13:30.630Z</time>
      </trkpt>
      <trkpt lat="43.52928" lon="5.61563">
        <ele>740</ele>
        <time>2022-10-19T09:13:31.630Z</time>
      </trkpt>
      <trkpt lat="43.52928" lon="5.61562">
        <ele>740</ele>
        <time>2022-10-19T09:13:32.630Z</time>
      </trkpt>
      <trkpt lat="43.52929" lon="5.61561">
        <ele>740</ele>
        <time>2022-10-19T09:13:33.630Z</time>
      </trkpt>
      <trkpt lat="43.52929" lon="5.6156">
        <ele>740</ele>
        <time>2022-10-19T09:13:34.630Z</time>
      </trkpt>
      <trkpt lat="43.52929" lon="5.61559">
        <ele>739</ele>
        <time>2022-10-19T09:13:35.630Z</time>
      </trkpt>
      <trkpt lat="43.5293" lon="5.61559">
        <ele>739</ele>
        <time>2022-10-19T09:13:36.630Z</time>
      </trkpt>
      <trkpt lat="43.5293" lon="5.61558">
        <ele>739</ele>
        <time>2022-10-19T09:13:37.630Z</time>
      </trkpt>
      <trkpt lat="43.52929" lon="5.61557">
        <ele>739</ele>
        <time>2022-10-19T09:13:38.630Z</time>
      </trkpt>
      <trkpt lat="43.52929" lon="5.61556">
        <ele>739</ele>
        <time>2022-10-19T09:13:39.630Z</time>
      </trkpt>
      <trkpt lat="43.52929" lon="5.61555">
        <ele>739</ele>
        <time>2022-10-19T09:13:40.630Z</time>
      </trkpt>
      <trkpt lat="43.52929" lon="5.61554">
        <ele>739</ele>
        <time>2022-10-19T09:13:41.630Z</time>
      </trkpt>
      <trkpt lat="43.52929" lon="5.61554">
        <ele>739</ele>
        <time>2022-10-19T09:13:42.630Z</time>
      </trkpt>
      <trkpt lat="43.52929" lon="5.61553">
        <ele>738</ele>
        <time>2022-10-19T09:13:43.630Z</time>
      </trkpt>
      <trkpt lat="43.52929" lon="5.61552">
        <ele>738</ele>
        <time>2022-10-19T09:13:44.630Z</time>
      </trkpt>
      <trkpt lat="43.52928" lon="5.61552">
        <ele>738</ele>
        <time>2022-10-19T09:13:45.630Z</time>
      </trkpt>
      <trkpt lat="43.52928" lon="5.61551">
        <ele>738</ele>
        <time>2022-10-19T09:13:46.630Z</time>
      </trkpt>
      <trkpt lat="43.52928" lon="5.6155">
        <ele>738</ele>
        <time>2022-10-19T09:13:47.630Z</time>
      </trkpt>
      <trkpt lat="43.52928" lon="5.6155">
        <ele>738</ele>
        <time>2022-10-19T09:13:48.630Z</time>
      </trkpt>
      <trkpt lat="43.52928" lon="5.6155">
        <ele>738</ele>
        <time>2022-10-19T09:13:49.630Z</time>
      </trkpt>
      <trkpt lat="43.52928" lon="5.61549">
        <ele>738</ele>
        <time>2022-10-19T09:13:50.630Z</time>
      </trkpt>
      <trkpt lat="43.52928" lon="5.61549">
        <ele>737</ele>
        <time>2022-10-19T09:13:51.630Z</time>
      </trkpt>
      <trkpt lat="43.52928" lon="5.61548">
        <ele>737</ele>
        <time>2022-10-19T09:13:52.630Z</time>
      </trkpt>
      <trkpt lat="43.52928" lon="5.61547">
        <ele>737</ele>
        <time>2022-10-19T09:13:53.630Z</time>
      </trkpt>
      <trkpt lat="43.52928" lon="5.61546">
        <ele>737</ele>
        <time>2022-10-19T09:13:54.630Z</time>
      </trkpt>
      <trkpt lat="43.52927" lon="5.61546">
        <ele>737</ele>
        <time>2022-10-19T09:13:55.630Z</time>
      </trkpt>
      <trkpt lat="43.52927" lon="5.61546">
        <ele>736</ele>
        <time>2022-10-19T09:13:56.630Z</time>
      </trkpt>
      <trkpt lat="43.52926" lon="5.61546">
        <ele>736</ele>
        <time>2022-10-19T09:13:57.630Z</time>
      </trkpt>
      <trkpt lat="43.52926" lon="5.61546">
        <ele>736</ele>
        <time>2022-10-19T09:13:58.630Z</time>
      </trkpt>
      <trkpt lat="43.52925" lon="5.61547">
        <ele>736</ele>
        <time>2022-10-19T09:13:59.630Z</time>
      </trkpt>
      <trkpt lat="43.52924" lon="5.61548">
        <ele>736</ele>
        <time>2022-10-19T09:14:00.630Z</time>
      </trkpt>
      <trkpt lat="43.52923" lon="5.61548">
        <ele>736</ele>
        <time>2022-10-19T09:14:01.630Z</time>
      </trkpt>
      <trkpt lat="43.52923" lon="5.61549">
        <ele>736</ele>
        <time>2022-10-19T09:14:02.630Z</time>
      </trkpt>
      <trkpt lat="43.52923" lon="5.61549">
        <ele>736</ele>
        <time>2022-10-19T09:14:03.630Z</time>
      </trkpt>
      <trkpt lat="43.52922" lon="5.61549">
        <ele>736</ele>
        <time>2022-10-19T09:14:04.630Z</time>
      </trkpt>
      <trkpt lat="43.52922" lon="5.61549">
        <ele>736</ele>
        <time>2022-10-19T09:14:05.630Z</time>
      </trkpt>
      <trkpt lat="43.52922" lon="5.61549">
        <ele>736</ele>
        <time>2022-10-19T09:14:06.630Z</time>
      </trkpt>
      <trkpt lat="43.52922" lon="5.61549">
        <ele>736</ele>
        <time>2022-10-19T09:14:07.630Z</time>
      </trkpt>
      <trkpt lat="43.52922" lon="5.61549">
        <ele>736</ele>
        <time>2022-10-19T09:14:08.630Z</time>
      </trkpt>
      <trkpt lat="43.52922" lon="5.61549">
        <ele>736</ele>
        <time>2022-10-19T09:14:09.630Z</time>
      </trkpt>
      <trkpt lat="43.52922" lon="5.61549">
        <ele>736</ele>
        <time>2022-10-19T09:14:10.630Z</time>
      </trkpt>
      <trkpt lat="43.52922" lon="5.61549">
        <ele>736</ele>
        <time>2022-10-19T09:14:11.630Z</time>
      </trkpt>
      <trkpt lat="43.52922" lon="5.61548">
        <ele>736</ele>
        <time>2022-10-19T09:14:12.630Z</time>
      </trkpt>
      <trkpt lat="43.52922" lon="5.61548">
        <ele>736</ele>
        <time>2022-10-19T09:14:13.630Z</time>
      </trkpt>
      <trkpt lat="43.52922" lon="5.61549">
        <ele>736</ele>
        <time>2022-10-19T09:14:14.630Z</time>
      </trkpt>
      <trkpt lat="43.52922" lon="5.61549">
        <ele>736</ele>
        <time>2022-10-19T09:14:15.630Z</time>
      </trkpt>
      <trkpt lat="43.52922" lon="5.61549">
        <ele>736</ele>
        <time>2022-10-19T09:14:16.630Z</time>
      </trkpt>
      <trkpt lat="43.52922" lon="5.61549">
        <ele>736</ele>
        <time>2022-10-19T09:14:17.630Z</time>
      </trkpt>
      <trkpt lat="43.52922" lon="5.61549">
        <ele>736</ele>
        <time>2022-10-19T09:14:18.630Z</time>
      </trkpt>
      <trkpt lat="43.52922" lon="5.61549">
        <ele>736</ele>
        <time>2022-10-19T09:14:19.630Z</time>
      </trkpt>
      <trkpt lat="43.52922" lon="5.61549">
        <ele>736</ele>
        <time>2022-10-19T09:14:20.630Z</time>
      </trkpt>
      <trkpt lat="43.52922" lon="5.61549">
        <ele>736</ele>
        <time>2022-10-19T09:14:21.630Z</time>
      </trkpt>
      <trkpt lat="43.52922" lon="5.61549">
        <ele>736</ele>
        <time>2022-10-19T09:14:22.630Z</time>
      </trkpt>
      <trkpt lat="43.52922" lon="5.61549">
        <ele>736</ele>
        <time>2022-10-19T09:14:23.630Z</time>
      </trkpt>
      <trkpt lat="43.52922" lon="5.61549">
        <ele>736</ele>
        <time>2022-10-19T09:14:24.630Z</time>
      </trkpt>
      <trkpt lat="43.52921" lon="5.6155">
        <ele>736</ele>
        <time>2022-10-19T09:14:25.630Z</time>
      </trkpt>
      <trkpt lat="43.5292" lon="5.6155">
        <ele>736</ele>
        <time>2022-10-19T09:14:26.630Z</time>
      </trkpt>
      <trkpt lat="43.5292" lon="5.61551">
        <ele>736</ele>
        <time>2022-10-19T09:14:27.630Z</time>
      </trkpt>
      <trkpt lat="43.5292" lon="5.61551">
        <ele>736</ele>
        <time>2022-10-19T09:14:28.630Z</time>
      </trkpt>
      <trkpt lat="43.5292" lon="5.61551">
        <ele>736</ele>
        <time>2022-10-19T09:14:29.630Z</time>
      </trkpt>
      <trkpt lat="43.5292" lon="5.61551">
        <ele>736</ele>
        <time>2022-10-19T09:14:30.630Z</time>
      </trkpt>
      <trkpt lat="43.5292" lon="5.61551">
        <ele>736</ele>
        <time>2022-10-19T09:14:31.630Z</time>
      </trkpt>
      <trkpt lat="43.5292" lon="5.61551">
        <ele>736</ele>
        <time>2022-10-19T09:14:32.630Z</time>
      </trkpt>
      <trkpt lat="43.52919" lon="5.61552">
        <ele>736</ele>
        <time>2022-10-19T09:14:33.630Z</time>
      </trkpt>
      <trkpt lat="43.52919" lon="5.61552">
        <ele>736</ele>
        <time>2022-10-19T09:14:34.630Z</time>
      </trkpt>
      <trkpt lat="43.52918" lon="5.61553">
        <ele>736</ele>
        <time>2022-10-19T09:14:35.630Z</time>
      </trkpt>
      <trkpt lat="43.52917" lon="5.61554">
        <ele>736</ele>
        <time>2022-10-19T09:14:36.630Z</time>
      </trkpt>
      <trkpt lat="43.52917" lon="5.61555">
        <ele>736</ele>
        <time>2022-10-19T09:14:37.630Z</time>
      </trkpt>
      <trkpt lat="43.52916" lon="5.61556">
        <ele>736</ele>
        <time>2022-10-19T09:14:38.630Z</time>
      </trkpt>
      <trkpt lat="43.52916" lon="5.61556">
        <ele>735</ele>
        <time>2022-10-19T09:14:39.630Z</time>
      </trkpt>
      <trkpt lat="43.52916" lon="5.61557">
        <ele>735</ele>
        <time>2022-10-19T09:14:40.630Z</time>
      </trkpt>
      <trkpt lat="43.52915" lon="5.61558">
        <ele>735</ele>
        <time>2022-10-19T09:14:41.630Z</time>
      </trkpt>
      <trkpt lat="43.52914" lon="5.61559">
        <ele>735</ele>
        <time>2022-10-19T09:14:42.630Z</time>
      </trkpt>
      <trkpt lat="43.52914" lon="5.6156">
        <ele>735</ele>
        <time>2022-10-19T09:14:43.630Z</time>
      </trkpt>
      <trkpt lat="43.52913" lon="5.6156">
        <ele>735</ele>
        <time>2022-10-19T09:14:44.630Z</time>
      </trkpt>
      <trkpt lat="43.52913" lon="5.61561">
        <ele>735</ele>
        <time>2022-10-19T09:14:45.630Z</time>
      </trkpt>
      <trkpt lat="43.52912" lon="5.61562">
        <ele>735</ele>
        <time>2022-10-19T09:14:46.630Z</time>
      </trkpt>
      <trkpt lat="43.52911" lon="5.61563">
        <ele>735</ele>
        <time>2022-10-19T09:14:47.630Z</time>
      </trkpt>
      <trkpt lat="43.52911" lon="5.61563">
        <ele>735</ele>
        <time>2022-10-19T09:14:48.630Z</time>
      </trkpt>
      <trkpt lat="43.52911" lon="5.61564">
        <ele>735</ele>
        <time>2022-10-19T09:14:49.630Z</time>
      </trkpt>
      <trkpt lat="43.52911" lon="5.61565">
        <ele>734</ele>
        <time>2022-10-19T09:14:50.630Z</time>
      </trkpt>
      <trkpt lat="43.52911" lon="5.61567">
        <ele>734</ele>
        <time>2022-10-19T09:14:51.630Z</time>
      </trkpt>
      <trkpt lat="43.52911" lon="5.61568">
        <ele>734</ele>
        <time>2022-10-19T09:14:52.630Z</time>
      </trkpt>
      <trkpt lat="43.5291" lon="5.61569">
        <ele>734</ele>
        <time>2022-10-19T09:14:53.630Z</time>
      </trkpt>
      <trkpt lat="43.52909" lon="5.6157">
        <ele>734</ele>
        <time>2022-10-19T09:14:54.630Z</time>
      </trkpt>
      <trkpt lat="43.52909" lon="5.61571">
        <ele>734</ele>
        <time>2022-10-19T09:14:55.630Z</time>
      </trkpt>
      <trkpt lat="43.52908" lon="5.61572">
        <ele>734</ele>
        <time>2022-10-19T09:14:56.630Z</time>
      </trkpt>
      <trkpt lat="43.52907" lon="5.61573">
        <ele>734</ele>
        <time>2022-10-19T09:14:57.630Z</time>
      </trkpt>
      <trkpt lat="43.52906" lon="5.61575">
        <ele>734</ele>
        <time>2022-10-19T09:14:58.630Z</time>
      </trkpt>
      <trkpt lat="43.52906" lon="5.61576">
        <ele>733</ele>
        <time>2022-10-19T09:14:59.630Z</time>
      </trkpt>
      <trkpt lat="43.52905" lon="5.61576">
        <ele>733</ele>
        <time>2022-10-19T09:15:00.630Z</time>
      </trkpt>
      <trkpt lat="43.52904" lon="5.61577">
        <ele>733</ele>
        <time>2022-10-19T09:15:01.630Z</time>
      </trkpt>
      <trkpt lat="43.52903" lon="5.61578">
        <ele>733</ele>
        <time>2022-10-19T09:15:02.630Z</time>
      </trkpt>
      <trkpt lat="43.52903" lon="5.61579">
        <ele>733</ele>
        <time>2022-10-19T09:15:03.630Z</time>
      </trkpt>
      <trkpt lat="43.52902" lon="5.6158">
        <ele>732</ele>
        <time>2022-10-19T09:15:04.630Z</time>
      </trkpt>
      <trkpt lat="43.52901" lon="5.61581">
        <ele>732</ele>
        <time>2022-10-19T09:15:05.630Z</time>
      </trkpt>
      <trkpt lat="43.529" lon="5.61582">
        <ele>732</ele>
        <time>2022-10-19T09:15:06.630Z</time>
      </trkpt>
      <trkpt lat="43.52899" lon="5.61583">
        <ele>732</ele>
        <time>2022-10-19T09:15:07.630Z</time>
      </trkpt>
      <trkpt lat="43.52899" lon="5.61584">
        <ele>732</ele>
        <time>2022-10-19T09:15:08.630Z</time>
      </trkpt>
      <trkpt lat="43.52898" lon="5.61585">
        <ele>731</ele>
        <time>2022-10-19T09:15:09.630Z</time>
      </trkpt>
      <trkpt lat="43.52897" lon="5.61586">
        <ele>731</ele>
        <time>2022-10-19T09:15:10.630Z</time>
      </trkpt>
      <trkpt lat="43.52896" lon="5.61587">
        <ele>731</ele>
        <time>2022-10-19T09:15:11.630Z</time>
      </trkpt>
      <trkpt lat="43.52895" lon="5.61588">
        <ele>731</ele>
        <time>2022-10-19T09:15:12.630Z</time>
      </trkpt>
      <trkpt lat="43.52895" lon="5.61589">
        <ele>731</ele>
        <time>2022-10-19T09:15:13.630Z</time>
      </trkpt>
      <trkpt lat="43.52894" lon="5.61589">
        <ele>731</ele>
        <time>2022-10-19T09:15:14.630Z</time>
      </trkpt>
      <trkpt lat="43.52893" lon="5.6159">
        <ele>731</ele>
        <time>2022-10-19T09:15:15.630Z</time>
      </trkpt>
      <trkpt lat="43.52893" lon="5.61591">
        <ele>730</ele>
        <time>2022-10-19T09:15:16.630Z</time>
      </trkpt>
      <trkpt lat="43.52892" lon="5.61591">
        <ele>730</ele>
        <time>2022-10-19T09:15:17.630Z</time>
      </trkpt>
      <trkpt lat="43.52891" lon="5.61592">
        <ele>730</ele>
        <time>2022-10-19T09:15:18.630Z</time>
      </trkpt>
      <trkpt lat="43.52891" lon="5.61593">
        <ele>730</ele>
        <time>2022-10-19T09:15:19.630Z</time>
      </trkpt>
      <trkpt lat="43.5289" lon="5.61594">
        <ele>730</ele>
        <time>2022-10-19T09:15:20.630Z</time>
      </trkpt>
      <trkpt lat="43.52889" lon="5.61594">
        <ele>730</ele>
        <time>2022-10-19T09:15:21.630Z</time>
      </trkpt>
      <trkpt lat="43.52888" lon="5.61595">
        <ele>730</ele>
        <time>2022-10-19T09:15:22.630Z</time>
      </trkpt>
      <trkpt lat="43.52888" lon="5.61596">
        <ele>730</ele>
        <time>2022-10-19T09:15:23.630Z</time>
      </trkpt>
      <trkpt lat="43.52887" lon="5.61597">
        <ele>729</ele>
        <time>2022-10-19T09:15:24.630Z</time>
      </trkpt>
      <trkpt lat="43.52886" lon="5.61597">
        <ele>729</ele>
        <time>2022-10-19T09:15:25.630Z</time>
      </trkpt>
      <trkpt lat="43.52885" lon="5.61598">
        <ele>729</ele>
        <time>2022-10-19T09:15:26.630Z</time>
      </trkpt>
      <trkpt lat="43.52884" lon="5.61598">
        <ele>729</ele>
        <time>2022-10-19T09:15:27.630Z</time>
      </trkpt>
      <trkpt lat="43.52883" lon="5.61599">
        <ele>729</ele>
        <time>2022-10-19T09:15:28.630Z</time>
      </trkpt>
      <trkpt lat="43.52882" lon="5.616">
        <ele>729</ele>
        <time>2022-10-19T09:15:29.630Z</time>
      </trkpt>
      <trkpt lat="43.52882" lon="5.61601">
        <ele>729</ele>
        <time>2022-10-19T09:15:30.630Z</time>
      </trkpt>
      <trkpt lat="43.52881" lon="5.61602">
        <ele>729</ele>
        <time>2022-10-19T09:15:31.630Z</time>
      </trkpt>
      <trkpt lat="43.5288" lon="5.61603">
        <ele>728</ele>
        <time>2022-10-19T09:15:32.630Z</time>
      </trkpt>
      <trkpt lat="43.52879" lon="5.61604">
        <ele>728</ele>
        <time>2022-10-19T09:15:33.630Z</time>
      </trkpt>
      <trkpt lat="43.52879" lon="5.61605">
        <ele>728</ele>
        <time>2022-10-19T09:15:34.630Z</time>
      </trkpt>
      <trkpt lat="43.52878" lon="5.61606">
        <ele>728</ele>
        <time>2022-10-19T09:15:35.630Z</time>
      </trkpt>
      <trkpt lat="43.52877" lon="5.61607">
        <ele>728</ele>
        <time>2022-10-19T09:15:36.630Z</time>
      </trkpt>
      <trkpt lat="43.52876" lon="5.61608">
        <ele>728</ele>
        <time>2022-10-19T09:15:37.630Z</time>
      </trkpt>
      <trkpt lat="43.52875" lon="5.61609">
        <ele>728</ele>
        <time>2022-10-19T09:15:38.630Z</time>
      </trkpt>
      <trkpt lat="43.52874" lon="5.6161">
        <ele>728</ele>
        <time>2022-10-19T09:15:39.630Z</time>
      </trkpt>
      <trkpt lat="43.52873" lon="5.61611">
        <ele>728</ele>
        <time>2022-10-19T09:15:40.630Z</time>
      </trkpt>
      <trkpt lat="43.52872" lon="5.61612">
        <ele>728</ele>
        <time>2022-10-19T09:15:41.630Z</time>
      </trkpt>
      <trkpt lat="43.52871" lon="5.61612">
        <ele>728</ele>
        <time>2022-10-19T09:15:42.630Z</time>
      </trkpt>
      <trkpt lat="43.5287" lon="5.61613">
        <ele>728</ele>
        <time>2022-10-19T09:15:43.630Z</time>
      </trkpt>
      <trkpt lat="43.52869" lon="5.61614">
        <ele>728</ele>
        <time>2022-10-19T09:15:44.630Z</time>
      </trkpt>
      <trkpt lat="43.52868" lon="5.61615">
        <ele>728</ele>
        <time>2022-10-19T09:15:45.630Z</time>
      </trkpt>
      <trkpt lat="43.52867" lon="5.61616">
        <ele>728</ele>
        <time>2022-10-19T09:15:46.630Z</time>
      </trkpt>
      <trkpt lat="43.52866" lon="5.61617">
        <ele>728</ele>
        <time>2022-10-19T09:15:47.630Z</time>
      </trkpt>
      <trkpt lat="43.52865" lon="5.61617">
        <ele>728</ele>
        <time>2022-10-19T09:15:48.630Z</time>
      </trkpt>
      <trkpt lat="43.52864" lon="5.61618">
        <ele>727</ele>
        <time>2022-10-19T09:15:49.630Z</time>
      </trkpt>
      <trkpt lat="43.52863" lon="5.61619">
        <ele>727</ele>
        <time>2022-10-19T09:15:50.630Z</time>
      </trkpt>
      <trkpt lat="43.52862" lon="5.61619">
        <ele>727</ele>
        <time>2022-10-19T09:15:51.630Z</time>
      </trkpt>
      <trkpt lat="43.52861" lon="5.6162">
        <ele>727</ele>
        <time>2022-10-19T09:15:52.630Z</time>
      </trkpt>
      <trkpt lat="43.5286" lon="5.61621">
        <ele>727</ele>
        <time>2022-10-19T09:15:53.630Z</time>
      </trkpt>
      <trkpt lat="43.52859" lon="5.61621">
        <ele>727</ele>
        <time>2022-10-19T09:15:54.630Z</time>
      </trkpt>
      <trkpt lat="43.52858" lon="5.61622">
        <ele>727</ele>
        <time>2022-10-19T09:15:55.630Z</time>
      </trkpt>
      <trkpt lat="43.52857" lon="5.61623">
        <ele>727</ele>
        <time>2022-10-19T09:15:56.630Z</time>
      </trkpt>
      <trkpt lat="43.52856" lon="5.61623">
        <ele>727</ele>
        <time>2022-10-19T09:15:57.630Z</time>
      </trkpt>
      <trkpt lat="43.52855" lon="5.61623">
        <ele>727</ele>
        <time>2022-10-19T09:15:58.630Z</time>
      </trkpt>
      <trkpt lat="43.52854" lon="5.61623">
        <ele>727</ele>
        <time>2022-10-19T09:15:59.630Z</time>
      </trkpt>
      <trkpt lat="43.52853" lon="5.61623">
        <ele>727</ele>
        <time>2022-10-19T09:16:00.630Z</time>
      </trkpt>
      <trkpt lat="43.52852" lon="5.61623">
        <ele>728</ele>
        <time>2022-10-19T09:16:01.630Z</time>
      </trkpt>
      <trkpt lat="43.52851" lon="5.61622">
        <ele>728</ele>
        <time>2022-10-19T09:16:02.630Z</time>
      </trkpt>
      <trkpt lat="43.5285" lon="5.61622">
        <ele>728</ele>
        <time>2022-10-19T09:16:03.630Z</time>
      </trkpt>
      <trkpt lat="43.52849" lon="5.61621">
        <ele>728</ele>
        <time>2022-10-19T09:16:04.630Z</time>
      </trkpt>
      <trkpt lat="43.52848" lon="5.6162">
        <ele>728</ele>
        <time>2022-10-19T09:16:05.630Z</time>
      </trkpt>
      <trkpt lat="43.52847" lon="5.6162">
        <ele>728</ele>
        <time>2022-10-19T09:16:06.630Z</time>
      </trkpt>
      <trkpt lat="43.52846" lon="5.61619">
        <ele>728</ele>
        <time>2022-10-19T09:16:07.630Z</time>
      </trkpt>
      <trkpt lat="43.52845" lon="5.61618">
        <ele>728</ele>
        <time>2022-10-19T09:16:08.630Z</time>
      </trkpt>
      <trkpt lat="43.52844" lon="5.61618">
        <ele>728</ele>
        <time>2022-10-19T09:16:09.630Z</time>
      </trkpt>
      <trkpt lat="43.52843" lon="5.61617">
        <ele>728</ele>
        <time>2022-10-19T09:16:10.630Z</time>
      </trkpt>
      <trkpt lat="43.52842" lon="5.61616">
        <ele>728</ele>
        <time>2022-10-19T09:16:11.630Z</time>
      </trkpt>
      <trkpt lat="43.52841" lon="5.61616">
        <ele>728</ele>
        <time>2022-10-19T09:16:12.630Z</time>
      </trkpt>
      <trkpt lat="43.5284" lon="5.61615">
        <ele>728</ele>
        <time>2022-10-19T09:16:13.630Z</time>
      </trkpt>
      <trkpt lat="43.52839" lon="5.61614">
        <ele>728</ele>
        <time>2022-10-19T09:16:14.630Z</time>
      </trkpt>
      <trkpt lat="43.52838" lon="5.61613">
        <ele>728</ele>
        <time>2022-10-19T09:16:15.630Z</time>
      </trkpt>
      <trkpt lat="43.52837" lon="5.61613">
        <ele>728</ele>
        <time>2022-10-19T09:16:16.630Z</time>
      </trkpt>
      <trkpt lat="43.52836" lon="5.61612">
        <ele>728</ele>
        <time>2022-10-19T09:16:17.630Z</time>
      </trkpt>
      <trkpt lat="43.52835" lon="5.61612">
        <ele>728</ele>
        <time>2022-10-19T09:16:18.630Z</time>
      </trkpt>
      <trkpt lat="43.52834" lon="5.61611">
        <ele>728</ele>
        <time>2022-10-19T09:16:19.630Z</time>
      </trkpt>
      <trkpt lat="43.52833" lon="5.6161">
        <ele>728</ele>
        <time>2022-10-19T09:16:20.630Z</time>
      </trkpt>
      <trkpt lat="43.52832" lon="5.6161">
        <ele>728</ele>
        <time>2022-10-19T09:16:21.630Z</time>
      </trkpt>
      <trkpt lat="43.52832" lon="5.6161">
        <ele>727</ele>
        <time>2022-10-19T09:16:22.630Z</time>
      </trkpt>
      <trkpt lat="43.52831" lon="5.61609">
        <ele>727</ele>
        <time>2022-10-19T09:16:23.630Z</time>
      </trkpt>
      <trkpt lat="43.5283" lon="5.61609">
        <ele>727</ele>
        <time>2022-10-19T09:16:24.630Z</time>
      </trkpt>
      <trkpt lat="43.52829" lon="5.61608">
        <ele>727</ele>
        <time>2022-10-19T09:16:25.630Z</time>
      </trkpt>
      <trkpt lat="43.52829" lon="5.61608">
        <ele>727</ele>
        <time>2022-10-19T09:16:26.630Z</time>
      </trkpt>
      <trkpt lat="43.52828" lon="5.61608">
        <ele>727</ele>
        <time>2022-10-19T09:16:27.630Z</time>
      </trkpt>
      <trkpt lat="43.52827" lon="5.61608">
        <ele>727</ele>
        <time>2022-10-19T09:16:28.630Z</time>
      </trkpt>
      <trkpt lat="43.52826" lon="5.61608">
        <ele>727</ele>
        <time>2022-10-19T09:16:29.630Z</time>
      </trkpt>
      <trkpt lat="43.52825" lon="5.61608">
        <ele>727</ele>
        <time>2022-10-19T09:16:30.630Z</time>
      </trkpt>
      <trkpt lat="43.52825" lon="5.61607">
        <ele>727</ele>
        <time>2022-10-19T09:16:31.630Z</time>
      </trkpt>
      <trkpt lat="43.52824" lon="5.61606">
        <ele>727</ele>
        <time>2022-10-19T09:16:32.630Z</time>
      </trkpt>
      <trkpt lat="43.52824" lon="5.61606">
        <ele>727</ele>
        <time>2022-10-19T09:16:33.630Z</time>
      </trkpt>
      <trkpt lat="43.52824" lon="5.61606">
        <ele>727</ele>
        <time>2022-10-19T09:16:34.630Z</time>
      </trkpt>
      <trkpt lat="43.52824" lon="5.61606">
        <ele>727</ele>
        <time>2022-10-19T09:16:35.630Z</time>
      </trkpt>
      <trkpt lat="43.52824" lon="5.61606">
        <ele>727</ele>
        <time>2022-10-19T09:16:36.630Z</time>
      </trkpt>
      <trkpt lat="43.52824" lon="5.61606">
        <ele>727</ele>
        <time>2022-10-19T09:16:37.630Z</time>
      </trkpt>
      <trkpt lat="43.52824" lon="5.61605">
        <ele>726</ele>
        <time>2022-10-19T09:16:38.630Z</time>
      </trkpt>
      <trkpt lat="43.52824" lon="5.61605">
        <ele>726</ele>
        <time>2022-10-19T09:16:39.630Z</time>
      </trkpt>
      <trkpt lat="43.52824" lon="5.61605">
        <ele>726</ele>
        <time>2022-10-19T09:16:40.630Z</time>
      </trkpt>
      <trkpt lat="43.52824" lon="5.61605">
        <ele>726</ele>
        <time>2022-10-19T09:16:41.630Z</time>
      </trkpt>
      <trkpt lat="43.52824" lon="5.61605">
        <ele>726</ele>
        <time>2022-10-19T09:16:42.630Z</time>
      </trkpt>
      <trkpt lat="43.52824" lon="5.61605">
        <ele>726</ele>
        <time>2022-10-19T09:16:43.630Z</time>
      </trkpt>
      <trkpt lat="43.52824" lon="5.61605">
        <ele>726</ele>
        <time>2022-10-19T09:16:44.630Z</time>
      </trkpt>
      <trkpt lat="43.52823" lon="5.61605">
        <ele>726</ele>
        <time>2022-10-19T09:16:45.630Z</time>
      </trkpt>
      <trkpt lat="43.52823" lon="5.61604">
        <ele>726</ele>
        <time>2022-10-19T09:16:46.630Z</time>
      </trkpt>
      <trkpt lat="43.52822" lon="5.61604">
        <ele>726</ele>
        <time>2022-10-19T09:16:47.630Z</time>
      </trkpt>
      <trkpt lat="43.52821" lon="5.61604">
        <ele>726</ele>
        <time>2022-10-19T09:16:48.630Z</time>
      </trkpt>
      <trkpt lat="43.5282" lon="5.61604">
        <ele>726</ele>
        <time>2022-10-19T09:16:49.630Z</time>
      </trkpt>
      <trkpt lat="43.5282" lon="5.61604">
        <ele>726</ele>
        <time>2022-10-19T09:16:50.630Z</time>
      </trkpt>
      <trkpt lat="43.52819" lon="5.61604">
        <ele>726</ele>
        <time>2022-10-19T09:16:51.630Z</time>
      </trkpt>
      <trkpt lat="43.52818" lon="5.61604">
        <ele>725</ele>
        <time>2022-10-19T09:16:52.630Z</time>
      </trkpt>
      <trkpt lat="43.52817" lon="5.61604">
        <ele>725</ele>
        <time>2022-10-19T09:16:53.630Z</time>
      </trkpt>
      <trkpt lat="43.52816" lon="5.61604">
        <ele>725</ele>
        <time>2022-10-19T09:16:54.630Z</time>
      </trkpt>
      <trkpt lat="43.52815" lon="5.61603">
        <ele>725</ele>
        <time>2022-10-19T09:16:55.630Z</time>
      </trkpt>
      <trkpt lat="43.52814" lon="5.61603">
        <ele>725</ele>
        <time>2022-10-19T09:16:56.630Z</time>
      </trkpt>
      <trkpt lat="43.52813" lon="5.61603">
        <ele>725</ele>
        <time>2022-10-19T09:16:57.630Z</time>
      </trkpt>
      <trkpt lat="43.52812" lon="5.61603">
        <ele>725</ele>
        <time>2022-10-19T09:16:58.630Z</time>
      </trkpt>
      <trkpt lat="43.52811" lon="5.61603">
        <ele>725</ele>
        <time>2022-10-19T09:16:59.630Z</time>
      </trkpt>
      <trkpt lat="43.52811" lon="5.61603">
        <ele>725</ele>
        <time>2022-10-19T09:17:00.630Z</time>
      </trkpt>
      <trkpt lat="43.5281" lon="5.61603">
        <ele>725</ele>
        <time>2022-10-19T09:17:01.630Z</time>
      </trkpt>
      <trkpt lat="43.52809" lon="5.61603">
        <ele>725</ele>
        <time>2022-10-19T09:17:02.630Z</time>
      </trkpt>
      <trkpt lat="43.52808" lon="5.61603">
        <ele>725</ele>
        <time>2022-10-19T09:17:03.630Z</time>
      </trkpt>
      <trkpt lat="43.52808" lon="5.61603">
        <ele>725</ele>
        <time>2022-10-19T09:17:04.630Z</time>
      </trkpt>
      <trkpt lat="43.52807" lon="5.61603">
        <ele>724</ele>
        <time>2022-10-19T09:17:05.630Z</time>
      </trkpt>
      <trkpt lat="43.52806" lon="5.61603">
        <ele>724</ele>
        <time>2022-10-19T09:17:06.630Z</time>
      </trkpt>
      <trkpt lat="43.52805" lon="5.61603">
        <ele>724</ele>
        <time>2022-10-19T09:17:07.630Z</time>
      </trkpt>
      <trkpt lat="43.52805" lon="5.61602">
        <ele>724</ele>
        <time>2022-10-19T09:17:08.630Z</time>
      </trkpt>
      <trkpt lat="43.52804" lon="5.61603">
        <ele>724</ele>
        <time>2022-10-19T09:17:09.630Z</time>
      </trkpt>
      <trkpt lat="43.52804" lon="5.61603">
        <ele>724</ele>
        <time>2022-10-19T09:17:10.630Z</time>
      </trkpt>
      <trkpt lat="43.52803" lon="5.61603">
        <ele>724</ele>
        <time>2022-10-19T09:17:11.630Z</time>
      </trkpt>
      <trkpt lat="43.52803" lon="5.61603">
        <ele>723</ele>
        <time>2022-10-19T09:17:12.630Z</time>
      </trkpt>
      <trkpt lat="43.52802" lon="5.61603">
        <ele>723</ele>
        <time>2022-10-19T09:17:13.630Z</time>
      </trkpt>
      <trkpt lat="43.52801" lon="5.61603">
        <ele>723</ele>
        <time>2022-10-19T09:17:14.630Z</time>
      </trkpt>
      <trkpt lat="43.528" lon="5.61603">
        <ele>723</ele>
        <time>2022-10-19T09:17:15.630Z</time>
      </trkpt>
      <trkpt lat="43.528" lon="5.61603">
        <ele>723</ele>
        <time>2022-10-19T09:17:16.630Z</time>
      </trkpt>
      <trkpt lat="43.52799" lon="5.61604">
        <ele>723</ele>
        <time>2022-10-19T09:17:17.630Z</time>
      </trkpt>
      <trkpt lat="43.52798" lon="5.61604">
        <ele>723</ele>
        <time>2022-10-19T09:17:18.630Z</time>
      </trkpt>
      <trkpt lat="43.52798" lon="5.61604">
        <ele>722</ele>
        <time>2022-10-19T09:17:19.630Z</time>
      </trkpt>
      <trkpt lat="43.52797" lon="5.61605">
        <ele>722</ele>
        <time>2022-10-19T09:17:20.630Z</time>
      </trkpt>
      <trkpt lat="43.52797" lon="5.61605">
        <ele>722</ele>
        <time>2022-10-19T09:17:21.630Z</time>
      </trkpt>
      <trkpt lat="43.52796" lon="5.61605">
        <ele>722</ele>
        <time>2022-10-19T09:17:22.630Z</time>
      </trkpt>
      <trkpt lat="43.52796" lon="5.61605">
        <ele>722</ele>
        <time>2022-10-19T09:17:23.630Z</time>
      </trkpt>
      <trkpt lat="43.52795" lon="5.61605">
        <ele>722</ele>
        <time>2022-10-19T09:17:24.630Z</time>
      </trkpt>
      <trkpt lat="43.52795" lon="5.61605">
        <ele>722</ele>
        <time>2022-10-19T09:17:25.630Z</time>
      </trkpt>
      <trkpt lat="43.52794" lon="5.61605">
        <ele>722</ele>
        <time>2022-10-19T09:17:26.630Z</time>
      </trkpt>
      <trkpt lat="43.52793" lon="5.61605">
        <ele>722</ele>
        <time>2022-10-19T09:17:27.630Z</time>
      </trkpt>
      <trkpt lat="43.52792" lon="5.61605">
        <ele>721</ele>
        <time>2022-10-19T09:17:28.630Z</time>
      </trkpt>
      <trkpt lat="43.52791" lon="5.61605">
        <ele>721</ele>
        <time>2022-10-19T09:17:29.630Z</time>
      </trkpt>
      <trkpt lat="43.52791" lon="5.61605">
        <ele>721</ele>
        <time>2022-10-19T09:17:30.630Z</time>
      </trkpt>
      <trkpt lat="43.5279" lon="5.61605">
        <ele>721</ele>
        <time>2022-10-19T09:17:31.630Z</time>
      </trkpt>
      <trkpt lat="43.5279" lon="5.61605">
        <ele>721</ele>
        <time>2022-10-19T09:17:32.630Z</time>
      </trkpt>
      <trkpt lat="43.52789" lon="5.61605">
        <ele>721</ele>
        <time>2022-10-19T09:17:33.630Z</time>
      </trkpt>
      <trkpt lat="43.52789" lon="5.61605">
        <ele>721</ele>
        <time>2022-10-19T09:17:34.630Z</time>
      </trkpt>
      <trkpt lat="43.52788" lon="5.61605">
        <ele>720</ele>
        <time>2022-10-19T09:17:35.630Z</time>
      </trkpt>
      <trkpt lat="43.52787" lon="5.61605">
        <ele>720</ele>
        <time>2022-10-19T09:17:36.630Z</time>
      </trkpt>
      <trkpt lat="43.52787" lon="5.61604">
        <ele>720</ele>
        <time>2022-10-19T09:17:37.630Z</time>
      </trkpt>
      <trkpt lat="43.52786" lon="5.61603">
        <ele>720</ele>
        <time>2022-10-19T09:17:38.630Z</time>
      </trkpt>
      <trkpt lat="43.52785" lon="5.61603">
        <ele>720</ele>
        <time>2022-10-19T09:17:39.630Z</time>
      </trkpt>
      <trkpt lat="43.52784" lon="5.61603">
        <ele>720</ele>
        <time>2022-10-19T09:17:40.630Z</time>
      </trkpt>
      <trkpt lat="43.52784" lon="5.61603">
        <ele>720</ele>
        <time>2022-10-19T09:17:41.630Z</time>
      </trkpt>
      <trkpt lat="43.52783" lon="5.61603">
        <ele>719</ele>
        <time>2022-10-19T09:17:42.630Z</time>
      </trkpt>
      <trkpt lat="43.52782" lon="5.61603">
        <ele>719</ele>
        <time>2022-10-19T09:17:43.630Z</time>
      </trkpt>
      <trkpt lat="43.52781" lon="5.61603">
        <ele>719</ele>
        <time>2022-10-19T09:17:44.630Z</time>
      </trkpt>
      <trkpt lat="43.5278" lon="5.61603">
        <ele>719</ele>
        <time>2022-10-19T09:17:45.630Z</time>
      </trkpt>
      <trkpt lat="43.5278" lon="5.61602">
        <ele>719</ele>
        <time>2022-10-19T09:17:46.630Z</time>
      </trkpt>
      <trkpt lat="43.52779" lon="5.61603">
        <ele>719</ele>
        <time>2022-10-19T09:17:47.630Z</time>
      </trkpt>
      <trkpt lat="43.52778" lon="5.61603">
        <ele>719</ele>
        <time>2022-10-19T09:17:48.630Z</time>
      </trkpt>
      <trkpt lat="43.52778" lon="5.61602">
        <ele>719</ele>
        <time>2022-10-19T09:17:49.630Z</time>
      </trkpt>
      <trkpt lat="43.52778" lon="5.61602">
        <ele>718</ele>
        <time>2022-10-19T09:17:50.630Z</time>
      </trkpt>
      <trkpt lat="43.52778" lon="5.61601">
        <ele>718</ele>
        <time>2022-10-19T09:17:51.630Z</time>
      </trkpt>
      <trkpt lat="43.52778" lon="5.61601">
        <ele>718</ele>
        <time>2022-10-19T09:17:52.630Z</time>
      </trkpt>
      <trkpt lat="43.52778" lon="5.61601">
        <ele>718</ele>
        <time>2022-10-19T09:17:53.630Z</time>
      </trkpt>
      <trkpt lat="43.52778" lon="5.61601">
        <ele>718</ele>
        <time>2022-10-19T09:17:54.630Z</time>
      </trkpt>
      <trkpt lat="43.52778" lon="5.61601">
        <ele>718</ele>
        <time>2022-10-19T09:17:55.630Z</time>
      </trkpt>
      <trkpt lat="43.52778" lon="5.61601">
        <ele>718</ele>
        <time>2022-10-19T09:17:56.630Z</time>
      </trkpt>
      <trkpt lat="43.52778" lon="5.61601">
        <ele>718</ele>
        <time>2022-10-19T09:17:57.630Z</time>
      </trkpt>
      <trkpt lat="43.52778" lon="5.61601">
        <ele>718</ele>
        <time>2022-10-19T09:17:58.630Z</time>
      </trkpt>
      <trkpt lat="43.52778" lon="5.61601">
        <ele>718</ele>
        <time>2022-10-19T09:17:59.630Z</time>
      </trkpt>
      <trkpt lat="43.52778" lon="5.61601">
        <ele>718</ele>
        <time>2022-10-19T09:18:00.630Z</time>
      </trkpt>
      <trkpt lat="43.52778" lon="5.61601">
        <ele>718</ele>
        <time>2022-10-19T09:18:01.630Z</time>
      </trkpt>
      <trkpt lat="43.52778" lon="5.61601">
        <ele>718</ele>
        <time>2022-10-19T09:18:02.630Z</time>
      </trkpt>
      <trkpt lat="43.52778" lon="5.61601">
        <ele>717</ele>
        <time>2022-10-19T09:18:03.630Z</time>
      </trkpt>
      <trkpt lat="43.52778" lon="5.61601">
        <ele>717</ele>
        <time>2022-10-19T09:18:04.630Z</time>
      </trkpt>
      <trkpt lat="43.52778" lon="5.61601">
        <ele>717</ele>
        <time>2022-10-19T09:18:05.630Z</time>
      </trkpt>
      <trkpt lat="43.52778" lon="5.616">
        <ele>717</ele>
        <time>2022-10-19T09:18:06.630Z</time>
      </trkpt>
      <trkpt lat="43.52778" lon="5.616">
        <ele>717</ele>
        <time>2022-10-19T09:18:07.630Z</time>
      </trkpt>
      <trkpt lat="43.52778" lon="5.616">
        <ele>717</ele>
        <time>2022-10-19T09:18:08.630Z</time>
      </trkpt>
      <trkpt lat="43.52778" lon="5.616">
        <ele>717</ele>
        <time>2022-10-19T09:18:09.630Z</time>
      </trkpt>
      <trkpt lat="43.52778" lon="5.616">
        <ele>717</ele>
        <time>2022-10-19T09:18:10.630Z</time>
      </trkpt>
      <trkpt lat="43.52778" lon="5.616">
        <ele>717</ele>
        <time>2022-10-19T09:18:11.630Z</time>
      </trkpt>
      <trkpt lat="43.52778" lon="5.616">
        <ele>717</ele>
        <time>2022-10-19T09:18:12.630Z</time>
      </trkpt>
      <trkpt lat="43.52778" lon="5.616">
        <ele>717</ele>
        <time>2022-10-19T09:18:13.630Z</time>
      </trkpt>
      <trkpt lat="43.52778" lon="5.616">
        <ele>717</ele>
        <time>2022-10-19T09:18:14.630Z</time>
      </trkpt>
      <trkpt lat="43.52778" lon="5.616">
        <ele>717</ele>
        <time>2022-10-19T09:18:15.630Z</time>
      </trkpt>
      <trkpt lat="43.52778" lon="5.616">
        <ele>717</ele>
        <time>2022-10-19T09:18:16.630Z</time>
      </trkpt>
      <trkpt lat="43.52778" lon="5.616">
        <ele>717</ele>
        <time>2022-10-19T09:18:17.630Z</time>
      </trkpt>
      <trkpt lat="43.52778" lon="5.616">
        <ele>717</ele>
        <time>2022-10-19T09:18:18.630Z</time>
      </trkpt>
      <trkpt lat="43.52778" lon="5.616">
        <ele>717</ele>
        <time>2022-10-19T09:18:19.630Z</time>
      </trkpt>
      <trkpt lat="43.52778" lon="5.616">
        <ele>717</ele>
        <time>2022-10-19T09:18:20.630Z</time>
      </trkpt>
      <trkpt lat="43.52778" lon="5.616">
        <ele>717</ele>
        <time>2022-10-19T09:18:21.630Z</time>
      </trkpt>
      <trkpt lat="43.52778" lon="5.616">
        <ele>717</ele>
        <time>2022-10-19T09:18:22.630Z</time>
      </trkpt>
      <trkpt lat="43.52778" lon="5.61599">
        <ele>717</ele>
        <time>2022-10-19T09:18:23.630Z</time>
      </trkpt>
      <trkpt lat="43.52778" lon="5.61599">
        <ele>717</ele>
        <time>2022-10-19T09:18:24.630Z</time>
      </trkpt>
      <trkpt lat="43.52778" lon="5.61599">
        <ele>717</ele>
        <time>2022-10-19T09:18:25.630Z</time>
      </trkpt>
      <trkpt lat="43.52779" lon="5.61599">
        <ele>717</ele>
        <time>2022-10-19T09:18:26.630Z</time>
      </trkpt>
      <trkpt lat="43.52779" lon="5.61599">
        <ele>716</ele>
        <time>2022-10-19T09:18:27.630Z</time>
      </trkpt>
      <trkpt lat="43.52779" lon="5.61598">
        <ele>716</ele>
        <time>2022-10-19T09:18:28.630Z</time>
      </trkpt>
      <trkpt lat="43.52779" lon="5.61598">
        <ele>716</ele>
        <time>2022-10-19T09:18:29.630Z</time>
      </trkpt>
      <trkpt lat="43.52779" lon="5.61598">
        <ele>716</ele>
        <time>2022-10-19T09:18:30.630Z</time>
      </trkpt>
      <trkpt lat="43.52779" lon="5.61598">
        <ele>716</ele>
        <time>2022-10-19T09:18:31.630Z</time>
      </trkpt>
      <trkpt lat="43.52779" lon="5.61597">
        <ele>716</ele>
        <time>2022-10-19T09:18:32.630Z</time>
      </trkpt>
      <trkpt lat="43.5278" lon="5.61597">
        <ele>716</ele>
        <time>2022-10-19T09:18:33.630Z</time>
      </trkpt>
      <trkpt lat="43.5278" lon="5.61596">
        <ele>716</ele>
        <time>2022-10-19T09:18:34.630Z</time>
      </trkpt>
      <trkpt lat="43.52781" lon="5.61595">
        <ele>716</ele>
        <time>2022-10-19T09:18:35.630Z</time>
      </trkpt>
      <trkpt lat="43.52781" lon="5.61595">
        <ele>716</ele>
        <time>2022-10-19T09:18:36.630Z</time>
      </trkpt>
      <trkpt lat="43.52782" lon="5.61594">
        <ele>715</ele>
        <time>2022-10-19T09:18:37.630Z</time>
      </trkpt>
      <trkpt lat="43.52783" lon="5.61594">
        <ele>715</ele>
        <time>2022-10-19T09:18:38.630Z</time>
      </trkpt>
      <trkpt lat="43.52784" lon="5.61593">
        <ele>715</ele>
        <time>2022-10-19T09:18:39.630Z</time>
      </trkpt>
      <trkpt lat="43.52785" lon="5.61593">
        <ele>715</ele>
        <time>2022-10-19T09:18:40.630Z</time>
      </trkpt>
      <trkpt lat="43.52786" lon="5.61592">
        <ele>715</ele>
        <time>2022-10-19T09:18:41.630Z</time>
      </trkpt>
      <trkpt lat="43.52786" lon="5.61592">
        <ele>715</ele>
        <time>2022-10-19T09:18:42.630Z</time>
      </trkpt>
      <trkpt lat="43.52786" lon="5.61591">
        <ele>714</ele>
        <time>2022-10-19T09:18:43.630Z</time>
      </trkpt>
      <trkpt lat="43.52787" lon="5.61591">
        <ele>714</ele>
        <time>2022-10-19T09:18:44.630Z</time>
      </trkpt>
      <trkpt lat="43.52787" lon="5.61591">
        <ele>714</ele>
        <time>2022-10-19T09:18:45.630Z</time>
      </trkpt>
      <trkpt lat="43.52788" lon="5.6159">
        <ele>714</ele>
        <time>2022-10-19T09:18:46.630Z</time>
      </trkpt>
      <trkpt lat="43.52789" lon="5.61589">
        <ele>714</ele>
        <time>2022-10-19T09:18:47.630Z</time>
      </trkpt>
      <trkpt lat="43.5279" lon="5.61588">
        <ele>714</ele>
        <time>2022-10-19T09:18:48.630Z</time>
      </trkpt>
      <trkpt lat="43.52791" lon="5.61588">
        <ele>713</ele>
        <time>2022-10-19T09:18:49.630Z</time>
      </trkpt>
      <trkpt lat="43.52792" lon="5.61587">
        <ele>713</ele>
        <time>2022-10-19T09:18:50.630Z</time>
      </trkpt>
      <trkpt lat="43.52792" lon="5.61586">
        <ele>713</ele>
        <time>2022-10-19T09:18:51.630Z</time>
      </trkpt>
      <trkpt lat="43.52794" lon="5.61586">
        <ele>713</ele>
        <time>2022-10-19T09:18:52.630Z</time>
      </trkpt>
      <trkpt lat="43.52794" lon="5.61586">
        <ele>713</ele>
        <time>2022-10-19T09:18:53.630Z</time>
      </trkpt>
      <trkpt lat="43.52795" lon="5.61585">
        <ele>713</ele>
        <time>2022-10-19T09:18:54.630Z</time>
      </trkpt>
      <trkpt lat="43.52796" lon="5.61585">
        <ele>713</ele>
        <time>2022-10-19T09:18:55.630Z</time>
      </trkpt>
      <trkpt lat="43.52797" lon="5.61584">
        <ele>712</ele>
        <time>2022-10-19T09:18:56.630Z</time>
      </trkpt>
      <trkpt lat="43.52798" lon="5.61583">
        <ele>712</ele>
        <time>2022-10-19T09:18:57.630Z</time>
      </trkpt>
      <trkpt lat="43.52799" lon="5.61583">
        <ele>712</ele>
        <time>2022-10-19T09:18:58.630Z</time>
      </trkpt>
      <trkpt lat="43.528" lon="5.61582">
        <ele>712</ele>
        <time>2022-10-19T09:18:59.630Z</time>
      </trkpt>
      <trkpt lat="43.528" lon="5.61581">
        <ele>712</ele>
        <time>2022-10-19T09:19:00.630Z</time>
      </trkpt>
      <trkpt lat="43.52801" lon="5.6158">
        <ele>712</ele>
        <time>2022-10-19T09:19:01.630Z</time>
      </trkpt>
      <trkpt lat="43.52802" lon="5.6158">
        <ele>712</ele>
        <time>2022-10-19T09:19:02.630Z</time>
      </trkpt>
      <trkpt lat="43.52803" lon="5.61579">
        <ele>712</ele>
        <time>2022-10-19T09:19:03.630Z</time>
      </trkpt>
      <trkpt lat="43.52804" lon="5.61578">
        <ele>711</ele>
        <time>2022-10-19T09:19:04.630Z</time>
      </trkpt>
      <trkpt lat="43.52805" lon="5.61577">
        <ele>711</ele>
        <time>2022-10-19T09:19:05.630Z</time>
      </trkpt>
      <trkpt lat="43.52806" lon="5.61577">
        <ele>711</ele>
        <time>2022-10-19T09:19:06.630Z</time>
      </trkpt>
      <trkpt lat="43.52807" lon="5.61576">
        <ele>711</ele>
        <time>2022-10-19T09:19:07.630Z</time>
      </trkpt>
      <trkpt lat="43.52807" lon="5.61575">
        <ele>711</ele>
        <time>2022-10-19T09:19:08.630Z</time>
      </trkpt>
      <trkpt lat="43.52808" lon="5.61575">
        <ele>711</ele>
        <time>2022-10-19T09:19:09.630Z</time>
      </trkpt>
      <trkpt lat="43.5281" lon="5.61574">
        <ele>711</ele>
        <time>2022-10-19T09:19:10.630Z</time>
      </trkpt>
      <trkpt lat="43.52811" lon="5.61574">
        <ele>710</ele>
        <time>2022-10-19T09:19:11.630Z</time>
      </trkpt>
      <trkpt lat="43.52811" lon="5.61573">
        <ele>710</ele>
        <time>2022-10-19T09:19:12.630Z</time>
      </trkpt>
      <trkpt lat="43.52812" lon="5.61573">
        <ele>710</ele>
        <time>2022-10-19T09:19:13.630Z</time>
      </trkpt>
      <trkpt lat="43.52813" lon="5.61572">
        <ele>710</ele>
        <time>2022-10-19T09:19:14.630Z</time>
      </trkpt>
      <trkpt lat="43.52814" lon="5.61571">
        <ele>710</ele>
        <time>2022-10-19T09:19:15.630Z</time>
      </trkpt>
      <trkpt lat="43.52815" lon="5.61571">
        <ele>710</ele>
        <time>2022-10-19T09:19:16.630Z</time>
      </trkpt>
      <trkpt lat="43.52816" lon="5.6157">
        <ele>710</ele>
        <time>2022-10-19T09:19:17.630Z</time>
      </trkpt>
      <trkpt lat="43.52817" lon="5.6157">
        <ele>709</ele>
        <time>2022-10-19T09:19:18.630Z</time>
      </trkpt>
      <trkpt lat="43.52819" lon="5.6157">
        <ele>709</ele>
        <time>2022-10-19T09:19:19.630Z</time>
      </trkpt>
      <trkpt lat="43.5282" lon="5.61569">
        <ele>709</ele>
        <time>2022-10-19T09:19:20.630Z</time>
      </trkpt>
      <trkpt lat="43.5282" lon="5.61569">
        <ele>709</ele>
        <time>2022-10-19T09:19:21.630Z</time>
      </trkpt>
      <trkpt lat="43.52821" lon="5.61568">
        <ele>709</ele>
        <time>2022-10-19T09:19:22.630Z</time>
      </trkpt>
      <trkpt lat="43.52822" lon="5.61567">
        <ele>709</ele>
        <time>2022-10-19T09:19:23.630Z</time>
      </trkpt>
      <trkpt lat="43.52823" lon="5.61567">
        <ele>709</ele>
        <time>2022-10-19T09:19:24.630Z</time>
      </trkpt>
      <trkpt lat="43.52823" lon="5.61566">
        <ele>709</ele>
        <time>2022-10-19T09:19:25.630Z</time>
      </trkpt>
      <trkpt lat="43.52824" lon="5.61565">
        <ele>709</ele>
        <time>2022-10-19T09:19:26.630Z</time>
      </trkpt>
      <trkpt lat="43.52825" lon="5.61564">
        <ele>709</ele>
        <time>2022-10-19T09:19:27.630Z</time>
      </trkpt>
      <trkpt lat="43.52826" lon="5.61564">
        <ele>709</ele>
        <time>2022-10-19T09:19:28.630Z</time>
      </trkpt>
      <trkpt lat="43.52827" lon="5.61563">
        <ele>709</ele>
        <time>2022-10-19T09:19:29.630Z</time>
      </trkpt>
      <trkpt lat="43.52829" lon="5.61563">
        <ele>709</ele>
        <time>2022-10-19T09:19:30.630Z</time>
      </trkpt>
      <trkpt lat="43.5283" lon="5.61562">
        <ele>708</ele>
        <time>2022-10-19T09:19:31.630Z</time>
      </trkpt>
      <trkpt lat="43.52831" lon="5.61562">
        <ele>708</ele>
        <time>2022-10-19T09:19:32.630Z</time>
      </trkpt>
      <trkpt lat="43.52832" lon="5.61561">
        <ele>708</ele>
        <time>2022-10-19T09:19:33.630Z</time>
      </trkpt>
      <trkpt lat="43.52833" lon="5.61561">
        <ele>708</ele>
        <time>2022-10-19T09:19:34.630Z</time>
      </trkpt>
      <trkpt lat="43.52834" lon="5.6156">
        <ele>708</ele>
        <time>2022-10-19T09:19:35.630Z</time>
      </trkpt>
      <trkpt lat="43.52835" lon="5.61559">
        <ele>708</ele>
        <time>2022-10-19T09:19:36.630Z</time>
      </trkpt>
      <trkpt lat="43.52835" lon="5.61559">
        <ele>708</ele>
        <time>2022-10-19T09:19:37.630Z</time>
      </trkpt>
      <trkpt lat="43.52836" lon="5.61559">
        <ele>708</ele>
        <time>2022-10-19T09:19:38.630Z</time>
      </trkpt>
      <trkpt lat="43.52837" lon="5.61559">
        <ele>708</ele>
        <time>2022-10-19T09:19:39.630Z</time>
      </trkpt>
      <trkpt lat="43.52838" lon="5.61558">
        <ele>708</ele>
        <time>2022-10-19T09:19:40.630Z</time>
      </trkpt>
      <trkpt lat="43.52839" lon="5.61557">
        <ele>708</ele>
        <time>2022-10-19T09:19:41.630Z</time>
      </trkpt>
      <trkpt lat="43.5284" lon="5.61557">
        <ele>708</ele>
        <time>2022-10-19T09:19:42.630Z</time>
      </trkpt>
      <trkpt lat="43.52841" lon="5.61556">
        <ele>708</ele>
        <time>2022-10-19T09:19:43.630Z</time>
      </trkpt>
      <trkpt lat="43.52842" lon="5.61556">
        <ele>708</ele>
        <time>2022-10-19T09:19:44.630Z</time>
      </trkpt>
      <trkpt lat="43.52843" lon="5.61555">
        <ele>708</ele>
        <time>2022-10-19T09:19:45.630Z</time>
      </trkpt>
      <trkpt lat="43.52844" lon="5.61555">
        <ele>708</ele>
        <time>2022-10-19T09:19:46.630Z</time>
      </trkpt>
      <trkpt lat="43.52845" lon="5.61554">
        <ele>707</ele>
        <time>2022-10-19T09:19:47.630Z</time>
      </trkpt>
      <trkpt lat="43.52846" lon="5.61554">
        <ele>707</ele>
        <time>2022-10-19T09:19:48.630Z</time>
      </trkpt>
      <trkpt lat="43.52846" lon="5.61553">
        <ele>707</ele>
        <time>2022-10-19T09:19:49.630Z</time>
      </trkpt>
      <trkpt lat="43.52847" lon="5.61552">
        <ele>707</ele>
        <time>2022-10-19T09:19:50.630Z</time>
      </trkpt>
      <trkpt lat="43.52848" lon="5.61551">
        <ele>707</ele>
        <time>2022-10-19T09:19:51.630Z</time>
      </trkpt>
      <trkpt lat="43.52849" lon="5.6155">
        <ele>707</ele>
        <time>2022-10-19T09:19:52.630Z</time>
      </trkpt>
      <trkpt lat="43.52849" lon="5.61549">
        <ele>707</ele>
        <time>2022-10-19T09:19:53.630Z</time>
      </trkpt>
      <trkpt lat="43.5285" lon="5.61548">
        <ele>707</ele>
        <time>2022-10-19T09:19:54.630Z</time>
      </trkpt>
      <trkpt lat="43.52851" lon="5.61547">
        <ele>706</ele>
        <time>2022-10-19T09:19:55.630Z</time>
      </trkpt>
      <trkpt lat="43.52851" lon="5.61546">
        <ele>706</ele>
        <time>2022-10-19T09:19:56.630Z</time>
      </trkpt>
      <trkpt lat="43.52852" lon="5.61545">
        <ele>706</ele>
        <time>2022-10-19T09:19:57.630Z</time>
      </trkpt>
      <trkpt lat="43.52853" lon="5.61544">
        <ele>706</ele>
        <time>2022-10-19T09:19:58.630Z</time>
      </trkpt>
      <trkpt lat="43.52854" lon="5.61543">
        <ele>706</ele>
        <time>2022-10-19T09:19:59.630Z</time>
      </trkpt>
      <trkpt lat="43.52854" lon="5.61542">
        <ele>706</ele>
        <time>2022-10-19T09:20:00.630Z</time>
      </trkpt>
      <trkpt lat="43.52855" lon="5.61541">
        <ele>706</ele>
        <time>2022-10-19T09:20:01.630Z</time>
      </trkpt>
      <trkpt lat="43.52855" lon="5.6154">
        <ele>706</ele>
        <time>2022-10-19T09:20:02.630Z</time>
      </trkpt>
      <trkpt lat="43.52855" lon="5.61538">
        <ele>705</ele>
        <time>2022-10-19T09:20:03.630Z</time>
      </trkpt>
      <trkpt lat="43.52856" lon="5.61537">
        <ele>705</ele>
        <time>2022-10-19T09:20:04.630Z</time>
      </trkpt>
      <trkpt lat="43.52856" lon="5.61536">
        <ele>705</ele>
        <time>2022-10-19T09:20:05.630Z</time>
      </trkpt>
      <trkpt lat="43.52856" lon="5.61535">
        <ele>705</ele>
        <time>2022-10-19T09:20:06.630Z</time>
      </trkpt>
      <trkpt lat="43.52857" lon="5.61534">
        <ele>705</ele>
        <time>2022-10-19T09:20:07.630Z</time>
      </trkpt>
      <trkpt lat="43.52857" lon="5.61532">
        <ele>705</ele>
        <time>2022-10-19T09:20:08.630Z</time>
      </trkpt>
      <trkpt lat="43.52857" lon="5.61531">
        <ele>705</ele>
        <time>2022-10-19T09:20:09.630Z</time>
      </trkpt>
      <trkpt lat="43.52857" lon="5.61529">
        <ele>705</ele>
        <time>2022-10-19T09:20:10.630Z</time>
      </trkpt>
      <trkpt lat="43.52858" lon="5.61528">
        <ele>705</ele>
        <time>2022-10-19T09:20:11.630Z</time>
      </trkpt>
      <trkpt lat="43.52858" lon="5.61527">
        <ele>705</ele>
        <time>2022-10-19T09:20:12.630Z</time>
      </trkpt>
      <trkpt lat="43.52858" lon="5.61525">
        <ele>704</ele>
        <time>2022-10-19T09:20:13.630Z</time>
      </trkpt>
      <trkpt lat="43.52858" lon="5.61523">
        <ele>704</ele>
        <time>2022-10-19T09:20:14.630Z</time>
      </trkpt>
      <trkpt lat="43.52858" lon="5.61522">
        <ele>704</ele>
        <time>2022-10-19T09:20:15.630Z</time>
      </trkpt>
      <trkpt lat="43.52858" lon="5.61521">
        <ele>704</ele>
        <time>2022-10-19T09:20:16.630Z</time>
      </trkpt>
      <trkpt lat="43.52857" lon="5.6152">
        <ele>704</ele>
        <time>2022-10-19T09:20:17.630Z</time>
      </trkpt>
      <trkpt lat="43.52857" lon="5.61518">
        <ele>704</ele>
        <time>2022-10-19T09:20:18.630Z</time>
      </trkpt>
      <trkpt lat="43.52857" lon="5.61517">
        <ele>704</ele>
        <time>2022-10-19T09:20:19.630Z</time>
      </trkpt>
      <trkpt lat="43.52856" lon="5.61516">
        <ele>704</ele>
        <time>2022-10-19T09:20:20.630Z</time>
      </trkpt>
      <trkpt lat="43.52856" lon="5.61516">
        <ele>703</ele>
        <time>2022-10-19T09:20:21.630Z</time>
      </trkpt>
      <trkpt lat="43.52855" lon="5.61515">
        <ele>703</ele>
        <time>2022-10-19T09:20:22.630Z</time>
      </trkpt>
      <trkpt lat="43.52854" lon="5.61514">
        <ele>703</ele>
        <time>2022-10-19T09:20:23.630Z</time>
      </trkpt>
      <trkpt lat="43.52853" lon="5.61513">
        <ele>703</ele>
        <time>2022-10-19T09:20:24.630Z</time>
      </trkpt>
      <trkpt lat="43.52852" lon="5.61512">
        <ele>703</ele>
        <time>2022-10-19T09:20:25.630Z</time>
      </trkpt>
      <trkpt lat="43.52851" lon="5.61512">
        <ele>703</ele>
        <time>2022-10-19T09:20:26.630Z</time>
      </trkpt>
      <trkpt lat="43.5285" lon="5.61511">
        <ele>703</ele>
        <time>2022-10-19T09:20:27.630Z</time>
      </trkpt>
      <trkpt lat="43.52849" lon="5.61511">
        <ele>703</ele>
        <time>2022-10-19T09:20:28.630Z</time>
      </trkpt>
      <trkpt lat="43.52848" lon="5.6151">
        <ele>703</ele>
        <time>2022-10-19T09:20:29.630Z</time>
      </trkpt>
      <trkpt lat="43.52848" lon="5.61509">
        <ele>703</ele>
        <time>2022-10-19T09:20:30.630Z</time>
      </trkpt>
      <trkpt lat="43.52847" lon="5.61509">
        <ele>703</ele>
        <time>2022-10-19T09:20:31.630Z</time>
      </trkpt>
      <trkpt lat="43.52846" lon="5.61509">
        <ele>703</ele>
        <time>2022-10-19T09:20:32.630Z</time>
      </trkpt>
      <trkpt lat="43.52845" lon="5.61508">
        <ele>703</ele>
        <time>2022-10-19T09:20:33.630Z</time>
      </trkpt>
      <trkpt lat="43.52845" lon="5.61508">
        <ele>703</ele>
        <time>2022-10-19T09:20:34.630Z</time>
      </trkpt>
      <trkpt lat="43.52844" lon="5.61507">
        <ele>703</ele>
        <time>2022-10-19T09:20:35.630Z</time>
      </trkpt>
      <trkpt lat="43.52843" lon="5.61507">
        <ele>703</ele>
        <time>2022-10-19T09:20:36.630Z</time>
      </trkpt>
      <trkpt lat="43.52843" lon="5.61507">
        <ele>703</ele>
        <time>2022-10-19T09:20:37.630Z</time>
      </trkpt>
      <trkpt lat="43.52842" lon="5.61507">
        <ele>703</ele>
        <time>2022-10-19T09:20:38.630Z</time>
      </trkpt>
      <trkpt lat="43.52841" lon="5.61507">
        <ele>703</ele>
        <time>2022-10-19T09:20:39.630Z</time>
      </trkpt>
      <trkpt lat="43.5284" lon="5.61507">
        <ele>703</ele>
        <time>2022-10-19T09:20:40.630Z</time>
      </trkpt>
      <trkpt lat="43.5284" lon="5.61507">
        <ele>703</ele>
        <time>2022-10-19T09:20:41.630Z</time>
      </trkpt>
      <trkpt lat="43.52839" lon="5.61508">
        <ele>703</ele>
        <time>2022-10-19T09:20:42.630Z</time>
      </trkpt>
      <trkpt lat="43.52839" lon="5.61508">
        <ele>703</ele>
        <time>2022-10-19T09:20:43.630Z</time>
      </trkpt>
      <trkpt lat="43.52838" lon="5.61509">
        <ele>703</ele>
        <time>2022-10-19T09:20:44.630Z</time>
      </trkpt>
      <trkpt lat="43.52837" lon="5.6151">
        <ele>703</ele>
        <time>2022-10-19T09:20:45.630Z</time>
      </trkpt>
      <trkpt lat="43.52837" lon="5.6151">
        <ele>703</ele>
        <time>2022-10-19T09:20:46.630Z</time>
      </trkpt>
      <trkpt lat="43.52836" lon="5.61511">
        <ele>703</ele>
        <time>2022-10-19T09:20:47.630Z</time>
      </trkpt>
      <trkpt lat="43.52835" lon="5.61511">
        <ele>703</ele>
        <time>2022-10-19T09:20:48.630Z</time>
      </trkpt>
      <trkpt lat="43.52835" lon="5.61512">
        <ele>703</ele>
        <time>2022-10-19T09:20:49.630Z</time>
      </trkpt>
      <trkpt lat="43.52834" lon="5.61513">
        <ele>703</ele>
        <time>2022-10-19T09:20:50.630Z</time>
      </trkpt>
      <trkpt lat="43.52834" lon="5.61514">
        <ele>703</ele>
        <time>2022-10-19T09:20:51.630Z</time>
      </trkpt>
      <trkpt lat="43.52834" lon="5.61515">
        <ele>703</ele>
        <time>2022-10-19T09:20:52.630Z</time>
      </trkpt>
      <trkpt lat="43.52834" lon="5.61516">
        <ele>703</ele>
        <time>2022-10-19T09:20:53.630Z</time>
      </trkpt>
      <trkpt lat="43.52834" lon="5.61517">
        <ele>703</ele>
        <time>2022-10-19T09:20:54.630Z</time>
      </trkpt>
      <trkpt lat="43.52834" lon="5.61518">
        <ele>703</ele>
        <time>2022-10-19T09:20:55.630Z</time>
      </trkpt>
      <trkpt lat="43.52834" lon="5.61519">
        <ele>703</ele>
        <time>2022-10-19T09:20:56.630Z</time>
      </trkpt>
      <trkpt lat="43.52833" lon="5.6152">
        <ele>703</ele>
        <time>2022-10-19T09:20:57.630Z</time>
      </trkpt>
      <trkpt lat="43.52833" lon="5.61521">
        <ele>703</ele>
        <time>2022-10-19T09:20:58.630Z</time>
      </trkpt>
      <trkpt lat="43.52833" lon="5.61522">
        <ele>703</ele>
        <time>2022-10-19T09:20:59.630Z</time>
      </trkpt>
      <trkpt lat="43.52832" lon="5.61523">
        <ele>703</ele>
        <time>2022-10-19T09:21:00.630Z</time>
      </trkpt>
      <trkpt lat="43.52831" lon="5.61524">
        <ele>703</ele>
        <time>2022-10-19T09:21:01.630Z</time>
      </trkpt>
      <trkpt lat="43.52831" lon="5.61525">
        <ele>702</ele>
        <time>2022-10-19T09:21:02.630Z</time>
      </trkpt>
      <trkpt lat="43.5283" lon="5.61526">
        <ele>702</ele>
        <time>2022-10-19T09:21:03.630Z</time>
      </trkpt>
      <trkpt lat="43.52829" lon="5.61528">
        <ele>702</ele>
        <time>2022-10-19T09:21:04.630Z</time>
      </trkpt>
      <trkpt lat="43.52829" lon="5.61528">
        <ele>702</ele>
        <time>2022-10-19T09:21:05.630Z</time>
      </trkpt>
      <trkpt lat="43.52828" lon="5.61529">
        <ele>702</ele>
        <time>2022-10-19T09:21:06.630Z</time>
      </trkpt>
      <trkpt lat="43.52827" lon="5.6153">
        <ele>702</ele>
        <time>2022-10-19T09:21:07.630Z</time>
      </trkpt>
      <trkpt lat="43.52827" lon="5.6153">
        <ele>702</ele>
        <time>2022-10-19T09:21:08.630Z</time>
      </trkpt>
      <trkpt lat="43.52826" lon="5.61531">
        <ele>702</ele>
        <time>2022-10-19T09:21:09.630Z</time>
      </trkpt>
      <trkpt lat="43.52825" lon="5.61531">
        <ele>702</ele>
        <time>2022-10-19T09:21:10.630Z</time>
      </trkpt>
      <trkpt lat="43.52824" lon="5.61532">
        <ele>702</ele>
        <time>2022-10-19T09:21:11.630Z</time>
      </trkpt>
      <trkpt lat="43.52823" lon="5.61533">
        <ele>702</ele>
        <time>2022-10-19T09:21:12.630Z</time>
      </trkpt>
      <trkpt lat="43.52822" lon="5.61534">
        <ele>702</ele>
        <time>2022-10-19T09:21:13.630Z</time>
      </trkpt>
      <trkpt lat="43.52822" lon="5.61534">
        <ele>702</ele>
        <time>2022-10-19T09:21:14.630Z</time>
      </trkpt>
      <trkpt lat="43.52821" lon="5.61535">
        <ele>702</ele>
        <time>2022-10-19T09:21:15.630Z</time>
      </trkpt>
      <trkpt lat="43.5282" lon="5.61536">
        <ele>702</ele>
        <time>2022-10-19T09:21:16.630Z</time>
      </trkpt>
      <trkpt lat="43.5282" lon="5.61536">
        <ele>702</ele>
        <time>2022-10-19T09:21:17.630Z</time>
      </trkpt>
      <trkpt lat="43.52819" lon="5.61536">
        <ele>702</ele>
        <time>2022-10-19T09:21:18.630Z</time>
      </trkpt>
      <trkpt lat="43.52818" lon="5.61537">
        <ele>702</ele>
        <time>2022-10-19T09:21:19.630Z</time>
      </trkpt>
      <trkpt lat="43.52817" lon="5.61537">
        <ele>702</ele>
        <time>2022-10-19T09:21:20.630Z</time>
      </trkpt>
      <trkpt lat="43.52817" lon="5.61537">
        <ele>702</ele>
        <time>2022-10-19T09:21:21.630Z</time>
      </trkpt>
      <trkpt lat="43.52816" lon="5.61538">
        <ele>702</ele>
        <time>2022-10-19T09:21:22.630Z</time>
      </trkpt>
      <trkpt lat="43.52815" lon="5.61538">
        <ele>702</ele>
        <time>2022-10-19T09:21:23.630Z</time>
      </trkpt>
      <trkpt lat="43.52815" lon="5.61538">
        <ele>702</ele>
        <time>2022-10-19T09:21:24.630Z</time>
      </trkpt>
      <trkpt lat="43.52814" lon="5.61538">
        <ele>702</ele>
        <time>2022-10-19T09:21:25.630Z</time>
      </trkpt>
      <trkpt lat="43.52813" lon="5.61538">
        <ele>702</ele>
        <time>2022-10-19T09:21:26.630Z</time>
      </trkpt>
      <trkpt lat="43.52813" lon="5.61538">
        <ele>702</ele>
        <time>2022-10-19T09:21:27.630Z</time>
      </trkpt>
      <trkpt lat="43.52812" lon="5.61539">
        <ele>701</ele>
        <time>2022-10-19T09:21:28.630Z</time>
      </trkpt>
      <trkpt lat="43.52811" lon="5.61539">
        <ele>701</ele>
        <time>2022-10-19T09:21:29.630Z</time>
      </trkpt>
      <trkpt lat="43.5281" lon="5.6154">
        <ele>701</ele>
        <time>2022-10-19T09:21:30.630Z</time>
      </trkpt>
      <trkpt lat="43.52809" lon="5.6154">
        <ele>701</ele>
        <time>2022-10-19T09:21:31.630Z</time>
      </trkpt>
      <trkpt lat="43.52808" lon="5.6154">
        <ele>701</ele>
        <time>2022-10-19T09:21:32.630Z</time>
      </trkpt>
      <trkpt lat="43.52808" lon="5.6154">
        <ele>701</ele>
        <time>2022-10-19T09:21:33.630Z</time>
      </trkpt>
      <trkpt lat="43.52807" lon="5.6154">
        <ele>701</ele>
        <time>2022-10-19T09:21:34.630Z</time>
      </trkpt>
      <trkpt lat="43.52806" lon="5.6154">
        <ele>701</ele>
        <time>2022-10-19T09:21:35.630Z</time>
      </trkpt>
      <trkpt lat="43.52805" lon="5.61541">
        <ele>701</ele>
        <time>2022-10-19T09:21:36.630Z</time>
      </trkpt>
      <trkpt lat="43.52804" lon="5.61541">
        <ele>701</ele>
        <time>2022-10-19T09:21:37.630Z</time>
      </trkpt>
      <trkpt lat="43.52802" lon="5.61541">
        <ele>701</ele>
        <time>2022-10-19T09:21:38.630Z</time>
      </trkpt>
      <trkpt lat="43.52801" lon="5.61541">
        <ele>701</ele>
        <time>2022-10-19T09:21:39.630Z</time>
      </trkpt>
      <trkpt lat="43.528" lon="5.61541">
        <ele>701</ele>
        <time>2022-10-19T09:21:40.630Z</time>
      </trkpt>
      <trkpt lat="43.528" lon="5.6154">
        <ele>701</ele>
        <time>2022-10-19T09:21:41.630Z</time>
      </trkpt>
      <trkpt lat="43.52799" lon="5.61539">
        <ele>701</ele>
        <time>2022-10-19T09:21:42.630Z</time>
      </trkpt>
      <trkpt lat="43.528" lon="5.61537">
        <ele>700</ele>
        <time>2022-10-19T09:21:43.630Z</time>
      </trkpt>
      <trkpt lat="43.528" lon="5.61537">
        <ele>700</ele>
        <time>2022-10-19T09:21:44.630Z</time>
      </trkpt>
      <trkpt lat="43.52801" lon="5.61536">
        <ele>700</ele>
        <time>2022-10-19T09:21:45.630Z</time>
      </trkpt>
      <trkpt lat="43.52802" lon="5.61535">
        <ele>700</ele>
        <time>2022-10-19T09:21:46.630Z</time>
      </trkpt>
      <trkpt lat="43.52803" lon="5.61534">
        <ele>700</ele>
        <time>2022-10-19T09:21:47.630Z</time>
      </trkpt>
      <trkpt lat="43.52803" lon="5.61533">
        <ele>699</ele>
        <time>2022-10-19T09:21:48.630Z</time>
      </trkpt>
      <trkpt lat="43.52804" lon="5.61532">
        <ele>699</ele>
        <time>2022-10-19T09:21:49.630Z</time>
      </trkpt>
      <trkpt lat="43.52805" lon="5.61531">
        <ele>699</ele>
        <time>2022-10-19T09:21:50.630Z</time>
      </trkpt>
      <trkpt lat="43.52805" lon="5.6153">
        <ele>699</ele>
        <time>2022-10-19T09:21:51.630Z</time>
      </trkpt>
      <trkpt lat="43.52806" lon="5.61529">
        <ele>699</ele>
        <time>2022-10-19T09:21:52.630Z</time>
      </trkpt>
      <trkpt lat="43.52806" lon="5.61529">
        <ele>699</ele>
        <time>2022-10-19T09:21:53.630Z</time>
      </trkpt>
      <trkpt lat="43.52806" lon="5.61528">
        <ele>698</ele>
        <time>2022-10-19T09:21:54.630Z</time>
      </trkpt>
      <trkpt lat="43.52806" lon="5.61526">
        <ele>698</ele>
        <time>2022-10-19T09:21:55.630Z</time>
      </trkpt>
      <trkpt lat="43.52806" lon="5.61525">
        <ele>698</ele>
        <time>2022-10-19T09:21:56.630Z</time>
      </trkpt>
      <trkpt lat="43.52806" lon="5.61524">
        <ele>698</ele>
        <time>2022-10-19T09:21:57.630Z</time>
      </trkpt>
      <trkpt lat="43.52806" lon="5.61523">
        <ele>698</ele>
        <time>2022-10-19T09:21:58.630Z</time>
      </trkpt>
      <trkpt lat="43.52806" lon="5.61522">
        <ele>698</ele>
        <time>2022-10-19T09:21:59.630Z</time>
      </trkpt>
      <trkpt lat="43.52806" lon="5.61521">
        <ele>698</ele>
        <time>2022-10-19T09:22:00.630Z</time>
      </trkpt>
      <trkpt lat="43.52805" lon="5.61519">
        <ele>698</ele>
        <time>2022-10-19T09:22:01.630Z</time>
      </trkpt>
      <trkpt lat="43.52805" lon="5.61518">
        <ele>698</ele>
        <time>2022-10-19T09:22:02.630Z</time>
      </trkpt>
      <trkpt lat="43.52804" lon="5.61516">
        <ele>698</ele>
        <time>2022-10-19T09:22:03.630Z</time>
      </trkpt>
      <trkpt lat="43.52804" lon="5.61515">
        <ele>697</ele>
        <time>2022-10-19T09:22:04.630Z</time>
      </trkpt>
      <trkpt lat="43.52803" lon="5.61514">
        <ele>697</ele>
        <time>2022-10-19T09:22:05.630Z</time>
      </trkpt>
      <trkpt lat="43.52803" lon="5.61512">
        <ele>697</ele>
        <time>2022-10-19T09:22:06.630Z</time>
      </trkpt>
      <trkpt lat="43.52803" lon="5.61511">
        <ele>697</ele>
        <time>2022-10-19T09:22:07.630Z</time>
      </trkpt>
      <trkpt lat="43.52802" lon="5.6151">
        <ele>697</ele>
        <time>2022-10-19T09:22:08.630Z</time>
      </trkpt>
      <trkpt lat="43.52802" lon="5.61509">
        <ele>696</ele>
        <time>2022-10-19T09:22:09.630Z</time>
      </trkpt>
      <trkpt lat="43.52801" lon="5.61508">
        <ele>696</ele>
        <time>2022-10-19T09:22:10.630Z</time>
      </trkpt>
      <trkpt lat="43.52801" lon="5.61507">
        <ele>696</ele>
        <time>2022-10-19T09:22:11.630Z</time>
      </trkpt>
      <trkpt lat="43.528" lon="5.61506">
        <ele>696</ele>
        <time>2022-10-19T09:22:12.630Z</time>
      </trkpt>
      <trkpt lat="43.52799" lon="5.61505">
        <ele>696</ele>
        <time>2022-10-19T09:22:13.630Z</time>
      </trkpt>
      <trkpt lat="43.52798" lon="5.61505">
        <ele>696</ele>
        <time>2022-10-19T09:22:14.630Z</time>
      </trkpt>
      <trkpt lat="43.52797" lon="5.61504">
        <ele>696</ele>
        <time>2022-10-19T09:22:15.630Z</time>
      </trkpt>
      <trkpt lat="43.52796" lon="5.61503">
        <ele>696</ele>
        <time>2022-10-19T09:22:16.630Z</time>
      </trkpt>
      <trkpt lat="43.52795" lon="5.61502">
        <ele>695</ele>
        <time>2022-10-19T09:22:17.630Z</time>
      </trkpt>
      <trkpt lat="43.52794" lon="5.61501">
        <ele>695</ele>
        <time>2022-10-19T09:22:18.630Z</time>
      </trkpt>
      <trkpt lat="43.52794" lon="5.615">
        <ele>695</ele>
        <time>2022-10-19T09:22:19.630Z</time>
      </trkpt>
      <trkpt lat="43.52793" lon="5.61499">
        <ele>695</ele>
        <time>2022-10-19T09:22:20.630Z</time>
      </trkpt>
      <trkpt lat="43.52792" lon="5.61498">
        <ele>695</ele>
        <time>2022-10-19T09:22:21.630Z</time>
      </trkpt>
      <trkpt lat="43.52791" lon="5.61497">
        <ele>695</ele>
        <time>2022-10-19T09:22:22.630Z</time>
      </trkpt>
      <trkpt lat="43.52791" lon="5.61495">
        <ele>695</ele>
        <time>2022-10-19T09:22:23.630Z</time>
      </trkpt>
      <trkpt lat="43.52791" lon="5.61494">
        <ele>695</ele>
        <time>2022-10-19T09:22:24.630Z</time>
      </trkpt>
      <trkpt lat="43.52791" lon="5.61493">
        <ele>695</ele>
        <time>2022-10-19T09:22:25.630Z</time>
      </trkpt>
      <trkpt lat="43.5279" lon="5.61492">
        <ele>695</ele>
        <time>2022-10-19T09:22:26.630Z</time>
      </trkpt>
      <trkpt lat="43.5279" lon="5.61491">
        <ele>695</ele>
        <time>2022-10-19T09:22:27.630Z</time>
      </trkpt>
      <trkpt lat="43.5279" lon="5.6149">
        <ele>694</ele>
        <time>2022-10-19T09:22:28.630Z</time>
      </trkpt>
      <trkpt lat="43.5279" lon="5.61489">
        <ele>694</ele>
        <time>2022-10-19T09:22:29.630Z</time>
      </trkpt>
      <trkpt lat="43.52789" lon="5.61487">
        <ele>694</ele>
        <time>2022-10-19T09:22:30.630Z</time>
      </trkpt>
      <trkpt lat="43.52789" lon="5.61486">
        <ele>694</ele>
        <time>2022-10-19T09:22:31.630Z</time>
      </trkpt>
      <trkpt lat="43.52789" lon="5.61486">
        <ele>694</ele>
        <time>2022-10-19T09:22:32.630Z</time>
      </trkpt>
      <trkpt lat="43.52788" lon="5.61485">
        <ele>694</ele>
        <time>2022-10-19T09:22:33.630Z</time>
      </trkpt>
      <trkpt lat="43.52788" lon="5.61484">
        <ele>694</ele>
        <time>2022-10-19T09:22:34.630Z</time>
      </trkpt>
      <trkpt lat="43.52787" lon="5.61483">
        <ele>694</ele>
        <time>2022-10-19T09:22:35.630Z</time>
      </trkpt>
      <trkpt lat="43.52787" lon="5.61482">
        <ele>694</ele>
        <time>2022-10-19T09:22:36.630Z</time>
      </trkpt>
      <trkpt lat="43.52786" lon="5.61481">
        <ele>694</ele>
        <time>2022-10-19T09:22:37.630Z</time>
      </trkpt>
      <trkpt lat="43.52786" lon="5.6148">
        <ele>694</ele>
        <time>2022-10-19T09:22:38.630Z</time>
      </trkpt>
      <trkpt lat="43.52785" lon="5.61479">
        <ele>694</ele>
        <time>2022-10-19T09:22:39.630Z</time>
      </trkpt>
      <trkpt lat="43.52785" lon="5.61478">
        <ele>694</ele>
        <time>2022-10-19T09:22:40.630Z</time>
      </trkpt>
      <trkpt lat="43.52784" lon="5.61477">
        <ele>694</ele>
        <time>2022-10-19T09:22:41.630Z</time>
      </trkpt>
      <trkpt lat="43.52784" lon="5.61476">
        <ele>694</ele>
        <time>2022-10-19T09:22:42.630Z</time>
      </trkpt>
      <trkpt lat="43.52783" lon="5.61475">
        <ele>694</ele>
        <time>2022-10-19T09:22:43.630Z</time>
      </trkpt>
      <trkpt lat="43.52783" lon="5.61474">
        <ele>694</ele>
        <time>2022-10-19T09:22:44.630Z</time>
      </trkpt>
      <trkpt lat="43.52783" lon="5.61472">
        <ele>694</ele>
        <time>2022-10-19T09:22:45.630Z</time>
      </trkpt>
      <trkpt lat="43.52783" lon="5.61472">
        <ele>694</ele>
        <time>2022-10-19T09:22:46.630Z</time>
      </trkpt>
      <trkpt lat="43.52783" lon="5.61471">
        <ele>694</ele>
        <time>2022-10-19T09:22:47.630Z</time>
      </trkpt>
      <trkpt lat="43.52782" lon="5.6147">
        <ele>694</ele>
        <time>2022-10-19T09:22:48.630Z</time>
      </trkpt>
      <trkpt lat="43.52782" lon="5.6147">
        <ele>694</ele>
        <time>2022-10-19T09:22:49.630Z</time>
      </trkpt>
      <trkpt lat="43.52781" lon="5.6147">
        <ele>694</ele>
        <time>2022-10-19T09:22:50.630Z</time>
      </trkpt>
      <trkpt lat="43.5278" lon="5.61469">
        <ele>694</ele>
        <time>2022-10-19T09:22:51.630Z</time>
      </trkpt>
      <trkpt lat="43.52779" lon="5.61469">
        <ele>694</ele>
        <time>2022-10-19T09:22:52.630Z</time>
      </trkpt>
      <trkpt lat="43.52779" lon="5.61468">
        <ele>694</ele>
        <time>2022-10-19T09:22:53.630Z</time>
      </trkpt>
      <trkpt lat="43.52778" lon="5.61467">
        <ele>694</ele>
        <time>2022-10-19T09:22:54.630Z</time>
      </trkpt>
      <trkpt lat="43.52777" lon="5.61467">
        <ele>695</ele>
        <time>2022-10-19T09:22:55.630Z</time>
      </trkpt>
      <trkpt lat="43.52777" lon="5.61466">
        <ele>695</ele>
        <time>2022-10-19T09:22:56.630Z</time>
      </trkpt>
      <trkpt lat="43.52776" lon="5.61465">
        <ele>695</ele>
        <time>2022-10-19T09:22:57.630Z</time>
      </trkpt>
      <trkpt lat="43.52776" lon="5.61464">
        <ele>695</ele>
        <time>2022-10-19T09:22:58.630Z</time>
      </trkpt>
      <trkpt lat="43.52775" lon="5.61464">
        <ele>695</ele>
        <time>2022-10-19T09:22:59.630Z</time>
      </trkpt>
      <trkpt lat="43.52775" lon="5.61463">
        <ele>695</ele>
        <time>2022-10-19T09:23:00.630Z</time>
      </trkpt>
      <trkpt lat="43.52775" lon="5.61463">
        <ele>694</ele>
        <time>2022-10-19T09:23:01.630Z</time>
      </trkpt>
      <trkpt lat="43.52775" lon="5.61463">
        <ele>694</ele>
        <time>2022-10-19T09:23:02.630Z</time>
      </trkpt>
      <trkpt lat="43.52775" lon="5.61463">
        <ele>694</ele>
        <time>2022-10-19T09:23:03.630Z</time>
      </trkpt>
      <trkpt lat="43.52775" lon="5.61463">
        <ele>694</ele>
        <time>2022-10-19T09:23:04.630Z</time>
      </trkpt>
      <trkpt lat="43.52775" lon="5.61463">
        <ele>694</ele>
        <time>2022-10-19T09:23:05.630Z</time>
      </trkpt>
      <trkpt lat="43.52775" lon="5.61462">
        <ele>694</ele>
        <time>2022-10-19T09:23:06.630Z</time>
      </trkpt>
      <trkpt lat="43.52774" lon="5.61462">
        <ele>694</ele>
        <time>2022-10-19T09:23:07.630Z</time>
      </trkpt>
      <trkpt lat="43.52774" lon="5.61461">
        <ele>694</ele>
        <time>2022-10-19T09:23:08.630Z</time>
      </trkpt>
      <trkpt lat="43.52774" lon="5.6146">
        <ele>694</ele>
        <time>2022-10-19T09:23:09.630Z</time>
      </trkpt>
      <trkpt lat="43.52773" lon="5.61459">
        <ele>694</ele>
        <time>2022-10-19T09:23:10.630Z</time>
      </trkpt>
      <trkpt lat="43.52773" lon="5.61458">
        <ele>694</ele>
        <time>2022-10-19T09:23:11.630Z</time>
      </trkpt>
      <trkpt lat="43.52773" lon="5.61457">
        <ele>694</ele>
        <time>2022-10-19T09:23:12.630Z</time>
      </trkpt>
      <trkpt lat="43.52773" lon="5.61457">
        <ele>694</ele>
        <time>2022-10-19T09:23:13.630Z</time>
      </trkpt>
      <trkpt lat="43.52772" lon="5.61456">
        <ele>694</ele>
        <time>2022-10-19T09:23:14.630Z</time>
      </trkpt>
      <trkpt lat="43.52772" lon="5.61455">
        <ele>694</ele>
        <time>2022-10-19T09:23:15.630Z</time>
      </trkpt>
      <trkpt lat="43.52771" lon="5.61455">
        <ele>694</ele>
        <time>2022-10-19T09:23:16.630Z</time>
      </trkpt>
      <trkpt lat="43.52771" lon="5.61454">
        <ele>694</ele>
        <time>2022-10-19T09:23:17.630Z</time>
      </trkpt>
      <trkpt lat="43.5277" lon="5.61453">
        <ele>694</ele>
        <time>2022-10-19T09:23:18.630Z</time>
      </trkpt>
      <trkpt lat="43.5277" lon="5.61453">
        <ele>695</ele>
        <time>2022-10-19T09:23:19.630Z</time>
      </trkpt>
      <trkpt lat="43.52769" lon="5.61452">
        <ele>695</ele>
        <time>2022-10-19T09:23:20.630Z</time>
      </trkpt>
      <trkpt lat="43.52769" lon="5.61451">
        <ele>695</ele>
        <time>2022-10-19T09:23:21.630Z</time>
      </trkpt>
      <trkpt lat="43.52769" lon="5.6145">
        <ele>695</ele>
        <time>2022-10-19T09:23:22.630Z</time>
      </trkpt>
      <trkpt lat="43.52768" lon="5.61449">
        <ele>695</ele>
        <time>2022-10-19T09:23:23.630Z</time>
      </trkpt>
      <trkpt lat="43.52768" lon="5.61449">
        <ele>695</ele>
        <time>2022-10-19T09:23:24.630Z</time>
      </trkpt>
      <trkpt lat="43.52768" lon="5.61448">
        <ele>695</ele>
        <time>2022-10-19T09:23:25.630Z</time>
      </trkpt>
      <trkpt lat="43.52767" lon="5.61448">
        <ele>695</ele>
        <time>2022-10-19T09:23:26.630Z</time>
      </trkpt>
      <trkpt lat="43.52767" lon="5.61448">
        <ele>695</ele>
        <time>2022-10-19T09:23:27.630Z</time>
      </trkpt>
      <trkpt lat="43.52766" lon="5.61447">
        <ele>696</ele>
        <time>2022-10-19T09:23:28.630Z</time>
      </trkpt>
      <trkpt lat="43.52766" lon="5.61446">
        <ele>696</ele>
        <time>2022-10-19T09:23:29.630Z</time>
      </trkpt>
      <trkpt lat="43.52765" lon="5.61445">
        <ele>696</ele>
        <time>2022-10-19T09:23:30.630Z</time>
      </trkpt>
      <trkpt lat="43.52765" lon="5.61445">
        <ele>696</ele>
        <time>2022-10-19T09:23:31.630Z</time>
      </trkpt>
      <trkpt lat="43.52765" lon="5.61444">
        <ele>696</ele>
        <time>2022-10-19T09:23:32.630Z</time>
      </trkpt>
      <trkpt lat="43.52765" lon="5.61443">
        <ele>696</ele>
        <time>2022-10-19T09:23:33.630Z</time>
      </trkpt>
      <trkpt lat="43.52765" lon="5.61443">
        <ele>696</ele>
        <time>2022-10-19T09:23:34.630Z</time>
      </trkpt>
      <trkpt lat="43.52764" lon="5.61442">
        <ele>696</ele>
        <time>2022-10-19T09:23:35.630Z</time>
      </trkpt>
      <trkpt lat="43.52764" lon="5.61441">
        <ele>696</ele>
        <time>2022-10-19T09:23:36.630Z</time>
      </trkpt>
      <trkpt lat="43.52763" lon="5.61441">
        <ele>696</ele>
        <time>2022-10-19T09:23:37.630Z</time>
      </trkpt>
      <trkpt lat="43.52763" lon="5.6144">
        <ele>696</ele>
        <time>2022-10-19T09:23:38.630Z</time>
      </trkpt>
      <trkpt lat="43.52763" lon="5.61439">
        <ele>696</ele>
        <time>2022-10-19T09:23:39.630Z</time>
      </trkpt>
      <trkpt lat="43.52763" lon="5.61438">
        <ele>696</ele>
        <time>2022-10-19T09:23:40.630Z</time>
      </trkpt>
      <trkpt lat="43.52762" lon="5.61438">
        <ele>696</ele>
        <time>2022-10-19T09:23:41.630Z</time>
      </trkpt>
      <trkpt lat="43.52762" lon="5.61437">
        <ele>696</ele>
        <time>2022-10-19T09:23:42.630Z</time>
      </trkpt>
      <trkpt lat="43.52761" lon="5.61437">
        <ele>697</ele>
        <time>2022-10-19T09:23:43.630Z</time>
      </trkpt>
      <trkpt lat="43.52761" lon="5.61436">
        <ele>697</ele>
        <time>2022-10-19T09:23:44.630Z</time>
      </trkpt>
      <trkpt lat="43.5276" lon="5.61435">
        <ele>697</ele>
        <time>2022-10-19T09:23:45.630Z</time>
      </trkpt>
      <trkpt lat="43.5276" lon="5.61434">
        <ele>697</ele>
        <time>2022-10-19T09:23:46.630Z</time>
      </trkpt>
      <trkpt lat="43.52759" lon="5.61434">
        <ele>697</ele>
        <time>2022-10-19T09:23:47.630Z</time>
      </trkpt>
      <trkpt lat="43.52759" lon="5.61433">
        <ele>697</ele>
        <time>2022-10-19T09:23:48.630Z</time>
      </trkpt>
      <trkpt lat="43.52758" lon="5.61432">
        <ele>697</ele>
        <time>2022-10-19T09:23:49.630Z</time>
      </trkpt>
      <trkpt lat="43.52758" lon="5.61432">
        <ele>697</ele>
        <time>2022-10-19T09:23:50.630Z</time>
      </trkpt>
      <trkpt lat="43.52758" lon="5.61431">
        <ele>698</ele>
        <time>2022-10-19T09:23:51.630Z</time>
      </trkpt>
      <trkpt lat="43.52757" lon="5.61431">
        <ele>698</ele>
        <time>2022-10-19T09:23:52.630Z</time>
      </trkpt>
      <trkpt lat="43.52757" lon="5.6143">
        <ele>698</ele>
        <time>2022-10-19T09:23:53.630Z</time>
      </trkpt>
      <trkpt lat="43.52756" lon="5.61429">
        <ele>698</ele>
        <time>2022-10-19T09:23:54.630Z</time>
      </trkpt>
      <trkpt lat="43.52756" lon="5.61428">
        <ele>698</ele>
        <time>2022-10-19T09:23:55.630Z</time>
      </trkpt>
      <trkpt lat="43.52755" lon="5.61427">
        <ele>698</ele>
        <time>2022-10-19T09:23:56.630Z</time>
      </trkpt>
      <trkpt lat="43.52755" lon="5.61426">
        <ele>699</ele>
        <time>2022-10-19T09:23:57.630Z</time>
      </trkpt>
      <trkpt lat="43.52755" lon="5.61425">
        <ele>699</ele>
        <time>2022-10-19T09:23:58.630Z</time>
      </trkpt>
      <trkpt lat="43.52754" lon="5.61425">
        <ele>699</ele>
        <time>2022-10-19T09:23:59.630Z</time>
      </trkpt>
      <trkpt lat="43.52754" lon="5.61424">
        <ele>699</ele>
        <time>2022-10-19T09:24:00.630Z</time>
      </trkpt>
      <trkpt lat="43.52753" lon="5.61423">
        <ele>699</ele>
        <time>2022-10-19T09:24:01.630Z</time>
      </trkpt>
      <trkpt lat="43.52753" lon="5.61422">
        <ele>699</ele>
        <time>2022-10-19T09:24:02.630Z</time>
      </trkpt>
      <trkpt lat="43.52753" lon="5.61422">
        <ele>699</ele>
        <time>2022-10-19T09:24:03.630Z</time>
      </trkpt>
      <trkpt lat="43.52753" lon="5.61421">
        <ele>699</ele>
        <time>2022-10-19T09:24:04.630Z</time>
      </trkpt>
      <trkpt lat="43.52753" lon="5.61419">
        <ele>699</ele>
        <time>2022-10-19T09:24:05.630Z</time>
      </trkpt>
      <trkpt lat="43.52753" lon="5.61419">
        <ele>699</ele>
        <time>2022-10-19T09:24:06.630Z</time>
      </trkpt>
      <trkpt lat="43.52753" lon="5.61417">
        <ele>699</ele>
        <time>2022-10-19T09:24:07.630Z</time>
      </trkpt>
      <trkpt lat="43.52752" lon="5.61416">
        <ele>699</ele>
        <time>2022-10-19T09:24:08.630Z</time>
      </trkpt>
      <trkpt lat="43.52752" lon="5.61415">
        <ele>699</ele>
        <time>2022-10-19T09:24:09.630Z</time>
      </trkpt>
      <trkpt lat="43.52753" lon="5.61414">
        <ele>699</ele>
        <time>2022-10-19T09:24:10.630Z</time>
      </trkpt>
      <trkpt lat="43.52753" lon="5.61412">
        <ele>699</ele>
        <time>2022-10-19T09:24:11.630Z</time>
      </trkpt>
      <trkpt lat="43.52753" lon="5.61411">
        <ele>699</ele>
        <time>2022-10-19T09:24:12.630Z</time>
      </trkpt>
      <trkpt lat="43.52753" lon="5.6141">
        <ele>699</ele>
        <time>2022-10-19T09:24:13.630Z</time>
      </trkpt>
      <trkpt lat="43.52754" lon="5.61409">
        <ele>699</ele>
        <time>2022-10-19T09:24:14.630Z</time>
      </trkpt>
      <trkpt lat="43.52754" lon="5.61408">
        <ele>699</ele>
        <time>2022-10-19T09:24:15.630Z</time>
      </trkpt>
      <trkpt lat="43.52754" lon="5.61407">
        <ele>699</ele>
        <time>2022-10-19T09:24:16.630Z</time>
      </trkpt>
      <trkpt lat="43.52755" lon="5.61406">
        <ele>699</ele>
        <time>2022-10-19T09:24:17.630Z</time>
      </trkpt>
      <trkpt lat="43.52755" lon="5.61405">
        <ele>699</ele>
        <time>2022-10-19T09:24:18.630Z</time>
      </trkpt>
      <trkpt lat="43.52756" lon="5.61404">
        <ele>699</ele>
        <time>2022-10-19T09:24:19.630Z</time>
      </trkpt>
      <trkpt lat="43.52756" lon="5.61403">
        <ele>699</ele>
        <time>2022-10-19T09:24:20.630Z</time>
      </trkpt>
      <trkpt lat="43.52756" lon="5.61402">
        <ele>699</ele>
        <time>2022-10-19T09:24:21.630Z</time>
      </trkpt>
      <trkpt lat="43.52757" lon="5.61401">
        <ele>699</ele>
        <time>2022-10-19T09:24:22.630Z</time>
      </trkpt>
      <trkpt lat="43.52757" lon="5.614">
        <ele>699</ele>
        <time>2022-10-19T09:24:23.630Z</time>
      </trkpt>
      <trkpt lat="43.52757" lon="5.61399">
        <ele>699</ele>
        <time>2022-10-19T09:24:24.630Z</time>
      </trkpt>
      <trkpt lat="43.52757" lon="5.61398">
        <ele>699</ele>
        <time>2022-10-19T09:24:25.630Z</time>
      </trkpt>
      <trkpt lat="43.52757" lon="5.61397">
        <ele>699</ele>
        <time>2022-10-19T09:24:26.630Z</time>
      </trkpt>
      <trkpt lat="43.52758" lon="5.61397">
        <ele>699</ele>
        <time>2022-10-19T09:24:27.630Z</time>
      </trkpt>
      <trkpt lat="43.52758" lon="5.61396">
        <ele>699</ele>
        <time>2022-10-19T09:24:28.630Z</time>
      </trkpt>
      <trkpt lat="43.52758" lon="5.61396">
        <ele>698</ele>
        <time>2022-10-19T09:24:29.630Z</time>
      </trkpt>
      <trkpt lat="43.52758" lon="5.61396">
        <ele>698</ele>
        <time>2022-10-19T09:24:30.630Z</time>
      </trkpt>
      <trkpt lat="43.52758" lon="5.61396">
        <ele>698</ele>
        <time>2022-10-19T09:24:31.630Z</time>
      </trkpt>
      <trkpt lat="43.52758" lon="5.61396">
        <ele>698</ele>
        <time>2022-10-19T09:24:32.630Z</time>
      </trkpt>
      <trkpt lat="43.52758" lon="5.61396">
        <ele>698</ele>
        <time>2022-10-19T09:24:33.630Z</time>
      </trkpt>
      <trkpt lat="43.52758" lon="5.61396">
        <ele>698</ele>
        <time>2022-10-19T09:24:34.630Z</time>
      </trkpt>
      <trkpt lat="43.52758" lon="5.61396">
        <ele>698</ele>
        <time>2022-10-19T09:24:35.630Z</time>
      </trkpt>
      <trkpt lat="43.52758" lon="5.61396">
        <ele>698</ele>
        <time>2022-10-19T09:24:36.630Z</time>
      </trkpt>
      <trkpt lat="43.52758" lon="5.61396">
        <ele>698</ele>
        <time>2022-10-19T09:24:37.630Z</time>
      </trkpt>
      <trkpt lat="43.52758" lon="5.61396">
        <ele>698</ele>
        <time>2022-10-19T09:24:38.630Z</time>
      </trkpt>
      <trkpt lat="43.52758" lon="5.61396">
        <ele>698</ele>
        <time>2022-10-19T09:24:39.630Z</time>
      </trkpt>
      <trkpt lat="43.52758" lon="5.61396">
        <ele>698</ele>
        <time>2022-10-19T09:24:40.630Z</time>
      </trkpt>
      <trkpt lat="43.52758" lon="5.61396">
        <ele>698</ele>
        <time>2022-10-19T09:24:41.630Z</time>
      </trkpt>
      <trkpt lat="43.52758" lon="5.61396">
        <ele>698</ele>
        <time>2022-10-19T09:24:42.630Z</time>
      </trkpt>
      <trkpt lat="43.52758" lon="5.61395">
        <ele>698</ele>
        <time>2022-10-19T09:24:43.630Z</time>
      </trkpt>
      <trkpt lat="43.52758" lon="5.61395">
        <ele>698</ele>
        <time>2022-10-19T09:24:44.630Z</time>
      </trkpt>
      <trkpt lat="43.52758" lon="5.61395">
        <ele>698</ele>
        <time>2022-10-19T09:24:45.630Z</time>
      </trkpt>
      <trkpt lat="43.52758" lon="5.61395">
        <ele>698</ele>
        <time>2022-10-19T09:24:46.630Z</time>
      </trkpt>
      <trkpt lat="43.52758" lon="5.61395">
        <ele>698</ele>
        <time>2022-10-19T09:24:47.630Z</time>
      </trkpt>
      <trkpt lat="43.52758" lon="5.61395">
        <ele>698</ele>
        <time>2022-10-19T09:24:48.630Z</time>
      </trkpt>
      <trkpt lat="43.52758" lon="5.61395">
        <ele>698</ele>
        <time>2022-10-19T09:24:49.630Z</time>
      </trkpt>
      <trkpt lat="43.52758" lon="5.61395">
        <ele>698</ele>
        <time>2022-10-19T09:24:50.630Z</time>
      </trkpt>
      <trkpt lat="43.52758" lon="5.61395">
        <ele>698</ele>
        <time>2022-10-19T09:24:51.630Z</time>
      </trkpt>
      <trkpt lat="43.52758" lon="5.61395">
        <ele>698</ele>
        <time>2022-10-19T09:24:52.630Z</time>
      </trkpt>
      <trkpt lat="43.52758" lon="5.61395">
        <ele>698</ele>
        <time>2022-10-19T09:24:53.630Z</time>
      </trkpt>
      <trkpt lat="43.52758" lon="5.61395">
        <ele>698</ele>
        <time>2022-10-19T09:24:54.630Z</time>
      </trkpt>
      <trkpt lat="43.52758" lon="5.61395">
        <ele>698</ele>
        <time>2022-10-19T09:24:55.630Z</time>
      </trkpt>
      <trkpt lat="43.52758" lon="5.61395">
        <ele>698</ele>
        <time>2022-10-19T09:24:56.630Z</time>
      </trkpt>
      <trkpt lat="43.52758" lon="5.61395">
        <ele>698</ele>
        <time>2022-10-19T09:24:57.630Z</time>
      </trkpt>
      <trkpt lat="43.52758" lon="5.61395">
        <ele>698</ele>
        <time>2022-10-19T09:24:58.630Z</time>
      </trkpt>
      <trkpt lat="43.52758" lon="5.61395">
        <ele>698</ele>
        <time>2022-10-19T09:24:59.630Z</time>
      </trkpt>
      <trkpt lat="43.52758" lon="5.61395">
        <ele>698</ele>
        <time>2022-10-19T09:25:00.630Z</time>
      </trkpt>
      <trkpt lat="43.52758" lon="5.61395">
        <ele>698</ele>
        <time>2022-10-19T09:25:01.630Z</time>
      </trkpt>
      <trkpt lat="43.52758" lon="5.61395">
        <ele>698</ele>
        <time>2022-10-19T09:25:02.630Z</time>
      </trkpt>
      <trkpt lat="43.52758" lon="5.61395">
        <ele>698</ele>
        <time>2022-10-19T09:25:03.630Z</time>
      </trkpt>
      <trkpt lat="43.52758" lon="5.61395">
        <ele>698</ele>
        <time>2022-10-19T09:25:04.630Z</time>
      </trkpt>
      <trkpt lat="43.52758" lon="5.61395">
        <ele>698</ele>
        <time>2022-10-19T09:25:05.630Z</time>
      </trkpt>
      <trkpt lat="43.52758" lon="5.61395">
        <ele>698</ele>
        <time>2022-10-19T09:25:06.630Z</time>
      </trkpt>
      <trkpt lat="43.52758" lon="5.61395">
        <ele>698</ele>
        <time>2022-10-19T09:25:07.630Z</time>
      </trkpt>
      <trkpt lat="43.52758" lon="5.61395">
        <ele>698</ele>
        <time>2022-10-19T09:25:08.630Z</time>
      </trkpt>
      <trkpt lat="43.52758" lon="5.61395">
        <ele>698</ele>
        <time>2022-10-19T09:25:09.630Z</time>
      </trkpt>
      <trkpt lat="43.52758" lon="5.61395">
        <ele>697</ele>
        <time>2022-10-19T09:25:10.630Z</time>
      </trkpt>
      <trkpt lat="43.52758" lon="5.61395">
        <ele>697</ele>
        <time>2022-10-19T09:25:11.630Z</time>
      </trkpt>
      <trkpt lat="43.52758" lon="5.61395">
        <ele>697</ele>
        <time>2022-10-19T09:25:12.630Z</time>
      </trkpt>
      <trkpt lat="43.52758" lon="5.61395">
        <ele>697</ele>
        <time>2022-10-19T09:25:13.630Z</time>
      </trkpt>
      <trkpt lat="43.52758" lon="5.61395">
        <ele>697</ele>
        <time>2022-10-19T09:25:14.630Z</time>
      </trkpt>
      <trkpt lat="43.52758" lon="5.61395">
        <ele>697</ele>
        <time>2022-10-19T09:25:15.630Z</time>
      </trkpt>
      <trkpt lat="43.52758" lon="5.61395">
        <ele>697</ele>
        <time>2022-10-19T09:25:16.630Z</time>
      </trkpt>
      <trkpt lat="43.52758" lon="5.61395">
        <ele>697</ele>
        <time>2022-10-19T09:25:17.630Z</time>
      </trkpt>
      <trkpt lat="43.52758" lon="5.61395">
        <ele>697</ele>
        <time>2022-10-19T09:25:18.630Z</time>
      </trkpt>
      <trkpt lat="43.52758" lon="5.61395">
        <ele>697</ele>
        <time>2022-10-19T09:25:19.630Z</time>
      </trkpt>
      <trkpt lat="43.52758" lon="5.61395">
        <ele>697</ele>
        <time>2022-10-19T09:25:20.630Z</time>
      </trkpt>
      <trkpt lat="43.52758" lon="5.61395">
        <ele>697</ele>
        <time>2022-10-19T09:25:21.630Z</time>
      </trkpt>
      <trkpt lat="43.52758" lon="5.61395">
        <ele>697</ele>
        <time>2022-10-19T09:25:22.630Z</time>
      </trkpt>
      <trkpt lat="43.52758" lon="5.61395">
        <ele>697</ele>
        <time>2022-10-19T09:25:23.630Z</time>
      </trkpt>
      <trkpt lat="43.52758" lon="5.61395">
        <ele>697</ele>
        <time>2022-10-19T09:25:24.630Z</time>
      </trkpt>
      <trkpt lat="43.52758" lon="5.61395">
        <ele>697</ele>
        <time>2022-10-19T09:25:25.630Z</time>
      </trkpt>
      <trkpt lat="43.52758" lon="5.61395">
        <ele>697</ele>
        <time>2022-10-19T09:25:26.630Z</time>
      </trkpt>
      <trkpt lat="43.52758" lon="5.61395">
        <ele>697</ele>
        <time>2022-10-19T09:25:27.630Z</time>
      </trkpt>
      <trkpt lat="43.52758" lon="5.61395">
        <ele>697</ele>
        <time>2022-10-19T09:25:28.630Z</time>
      </trkpt>
      <trkpt lat="43.52758" lon="5.61395">
        <ele>697</ele>
        <time>2022-10-19T09:25:29.630Z</time>
      </trkpt>
      <trkpt lat="43.52758" lon="5.61395">
        <ele>697</ele>
        <time>2022-10-19T09:25:30.630Z</time>
      </trkpt>
      <trkpt lat="43.52758" lon="5.61395">
        <ele>697</ele>
        <time>2022-10-19T09:25:31.630Z</time>
      </trkpt>
      <trkpt lat="43.52758" lon="5.61395">
        <ele>697</ele>
        <time>2022-10-19T09:25:32.630Z</time>
      </trkpt>
      <trkpt lat="43.52758" lon="5.61395">
        <ele>697</ele>
        <time>2022-10-19T09:25:33.630Z</time>
      </trkpt>
      <trkpt lat="43.52758" lon="5.61395">
        <ele>697</ele>
        <time>2022-10-19T09:25:34.630Z</time>
      </trkpt>
      <trkpt lat="43.52758" lon="5.61395">
        <ele>697</ele>
        <time>2022-10-19T09:25:35.630Z</time>
      </trkpt>
      <trkpt lat="43.52758" lon="5.61395">
        <ele>697</ele>
        <time>2022-10-19T09:25:36.630Z</time>
      </trkpt>
      <trkpt lat="43.52758" lon="5.61395">
        <ele>697</ele>
        <time>2022-10-19T09:25:37.630Z</time>
      </trkpt>
      <trkpt lat="43.52758" lon="5.61395">
        <ele>697</ele>
        <time>2022-10-19T09:25:38.630Z</time>
      </trkpt>
      <trkpt lat="43.52758" lon="5.61395">
        <ele>697</ele>
        <time>2022-10-19T09:25:39.630Z</time>
      </trkpt>
      <trkpt lat="43.52758" lon="5.61395">
        <ele>697</ele>
        <time>2022-10-19T09:25:40.630Z</time>
      </trkpt>
      <trkpt lat="43.52758" lon="5.61395">
        <ele>697</ele>
        <time>2022-10-19T09:25:41.630Z</time>
      </trkpt>
      <trkpt lat="43.52758" lon="5.61395">
        <ele>697</ele>
        <time>2022-10-19T09:25:42.630Z</time>
      </trkpt>
      <trkpt lat="43.52758" lon="5.61395">
        <ele>697</ele>
        <time>2022-10-19T09:25:43.630Z</time>
      </trkpt>
      <trkpt lat="43.52758" lon="5.61395">
        <ele>697</ele>
        <time>2022-10-19T09:25:44.630Z</time>
      </trkpt>
      <trkpt lat="43.52758" lon="5.61395">
        <ele>697</ele>
        <time>2022-10-19T09:25:45.630Z</time>
      </trkpt>
      <trkpt lat="43.52758" lon="5.61395">
        <ele>697</ele>
        <time>2022-10-19T09:25:46.630Z</time>
      </trkpt>
      <trkpt lat="43.52758" lon="5.61395">
        <ele>697</ele>
        <time>2022-10-19T09:25:47.630Z</time>
      </trkpt>
      <trkpt lat="43.52758" lon="5.61395">
        <ele>697</ele>
        <time>2022-10-19T09:25:48.630Z</time>
      </trkpt>
      <trkpt lat="43.52758" lon="5.61395">
        <ele>697</ele>
        <time>2022-10-19T09:25:49.630Z</time>
      </trkpt>
      <trkpt lat="43.52758" lon="5.61395">
        <ele>697</ele>
        <time>2022-10-19T09:25:50.630Z</time>
      </trkpt>
      <trkpt lat="43.52758" lon="5.61395">
        <ele>697</ele>
        <time>2022-10-19T09:25:51.630Z</time>
      </trkpt>
      <trkpt lat="43.52758" lon="5.61395">
        <ele>697</ele>
        <time>2022-10-19T09:25:52.630Z</time>
      </trkpt>
      <trkpt lat="43.52758" lon="5.61395">
        <ele>697</ele>
        <time>2022-10-19T09:25:53.630Z</time>
      </trkpt>
      <trkpt lat="43.52758" lon="5.61395">
        <ele>697</ele>
        <time>2022-10-19T09:25:54.630Z</time>
      </trkpt>
      <trkpt lat="43.52758" lon="5.61395">
        <ele>697</ele>
        <time>2022-10-19T09:25:55.630Z</time>
      </trkpt>
      <trkpt lat="43.52758" lon="5.61396">
        <ele>697</ele>
        <time>2022-10-19T09:25:56.630Z</time>
      </trkpt>
      <trkpt lat="43.52758" lon="5.61396">
        <ele>697</ele>
        <time>2022-10-19T09:25:57.630Z</time>
      </trkpt>
      <trkpt lat="43.52758" lon="5.61396">
        <ele>697</ele>
        <time>2022-10-19T09:25:58.630Z</time>
      </trkpt>
      <trkpt lat="43.52758" lon="5.61396">
        <ele>697</ele>
        <time>2022-10-19T09:25:59.630Z</time>
      </trkpt>
      <trkpt lat="43.52758" lon="5.61396">
        <ele>697</ele>
        <time>2022-10-19T09:26:00.630Z</time>
      </trkpt>
      <trkpt lat="43.52758" lon="5.61396">
        <ele>697</ele>
        <time>2022-10-19T09:26:01.630Z</time>
      </trkpt>
      <trkpt lat="43.52758" lon="5.61396">
        <ele>697</ele>
        <time>2022-10-19T09:26:02.630Z</time>
      </trkpt>
      <trkpt lat="43.52758" lon="5.61396">
        <ele>697</ele>
        <time>2022-10-19T09:26:03.630Z</time>
      </trkpt>
      <trkpt lat="43.52758" lon="5.61396">
        <ele>697</ele>
        <time>2022-10-19T09:26:04.630Z</time>
      </trkpt>
      <trkpt lat="43.52758" lon="5.61396">
        <ele>697</ele>
        <time>2022-10-19T09:26:05.630Z</time>
      </trkpt>
      <trkpt lat="43.52758" lon="5.61396">
        <ele>697</ele>
        <time>2022-10-19T09:26:06.630Z</time>
      </trkpt>
      <trkpt lat="43.52758" lon="5.61396">
        <ele>697</ele>
        <time>2022-10-19T09:26:07.630Z</time>
      </trkpt>
      <trkpt lat="43.52758" lon="5.61396">
        <ele>697</ele>
        <time>2022-10-19T09:26:08.630Z</time>
      </trkpt>
      <trkpt lat="43.52758" lon="5.61396">
        <ele>697</ele>
        <time>2022-10-19T09:26:09.630Z</time>
      </trkpt>
      <trkpt lat="43.52758" lon="5.61396">
        <ele>697</ele>
        <time>2022-10-19T09:26:10.630Z</time>
      </trkpt>
      <trkpt lat="43.52759" lon="5.61395">
        <ele>697</ele>
        <time>2022-10-19T09:26:11.630Z</time>
      </trkpt>
      <trkpt lat="43.52759" lon="5.61395">
        <ele>697</ele>
        <time>2022-10-19T09:26:12.630Z</time>
      </trkpt>
      <trkpt lat="43.52759" lon="5.61395">
        <ele>697</ele>
        <time>2022-10-19T09:26:13.630Z</time>
      </trkpt>
      <trkpt lat="43.52759" lon="5.61395">
        <ele>697</ele>
        <time>2022-10-19T09:26:14.630Z</time>
      </trkpt>
      <trkpt lat="43.52759" lon="5.61395">
        <ele>697</ele>
        <time>2022-10-19T09:26:15.630Z</time>
      </trkpt>
      <trkpt lat="43.52759" lon="5.61395">
        <ele>697</ele>
        <time>2022-10-19T09:26:16.630Z</time>
      </trkpt>
      <trkpt lat="43.52759" lon="5.61395">
        <ele>697</ele>
        <time>2022-10-19T09:26:17.630Z</time>
      </trkpt>
      <trkpt lat="43.52759" lon="5.61395">
        <ele>697</ele>
        <time>2022-10-19T09:26:18.630Z</time>
      </trkpt>
      <trkpt lat="43.52759" lon="5.61395">
        <ele>697</ele>
        <time>2022-10-19T09:26:19.630Z</time>
      </trkpt>
      <trkpt lat="43.52759" lon="5.61395">
        <ele>697</ele>
        <time>2022-10-19T09:26:20.630Z</time>
      </trkpt>
      <trkpt lat="43.52759" lon="5.61396">
        <ele>697</ele>
        <time>2022-10-19T09:26:21.630Z</time>
      </trkpt>
      <trkpt lat="43.52759" lon="5.61396">
        <ele>697</ele>
        <time>2022-10-19T09:26:22.630Z</time>
      </trkpt>
      <trkpt lat="43.52759" lon="5.61396">
        <ele>697</ele>
        <time>2022-10-19T09:26:23.630Z</time>
      </trkpt>
      <trkpt lat="43.52759" lon="5.61396">
        <ele>697</ele>
        <time>2022-10-19T09:26:24.630Z</time>
      </trkpt>
      <trkpt lat="43.52759" lon="5.61396">
        <ele>697</ele>
        <time>2022-10-19T09:26:25.630Z</time>
      </trkpt>
      <trkpt lat="43.52759" lon="5.61396">
        <ele>697</ele>
        <time>2022-10-19T09:26:26.630Z</time>
      </trkpt>
      <trkpt lat="43.52759" lon="5.61396">
        <ele>697</ele>
        <time>2022-10-19T09:26:27.630Z</time>
      </trkpt>
      <trkpt lat="43.52759" lon="5.61396">
        <ele>697</ele>
        <time>2022-10-19T09:26:28.630Z</time>
      </trkpt>
      <trkpt lat="43.52759" lon="5.61396">
        <ele>697</ele>
        <time>2022-10-19T09:26:29.630Z</time>
      </trkpt>
      <trkpt lat="43.52759" lon="5.61396">
        <ele>697</ele>
        <time>2022-10-19T09:26:30.630Z</time>
      </trkpt>
      <trkpt lat="43.52759" lon="5.61396">
        <ele>697</ele>
        <time>2022-10-19T09:26:31.630Z</time>
      </trkpt>
      <trkpt lat="43.52759" lon="5.61396">
        <ele>697</ele>
        <time>2022-10-19T09:26:32.630Z</time>
      </trkpt>
      <trkpt lat="43.52759" lon="5.61396">
        <ele>697</ele>
        <time>2022-10-19T09:26:33.630Z</time>
      </trkpt>
      <trkpt lat="43.52759" lon="5.61396">
        <ele>697</ele>
        <time>2022-10-19T09:26:34.630Z</time>
      </trkpt>
      <trkpt lat="43.52759" lon="5.61396">
        <ele>697</ele>
        <time>2022-10-19T09:26:35.630Z</time>
      </trkpt>
      <trkpt lat="43.52759" lon="5.61396">
        <ele>697</ele>
        <time>2022-10-19T09:26:36.630Z</time>
      </trkpt>
      <trkpt lat="43.52759" lon="5.61396">
        <ele>697</ele>
        <time>2022-10-19T09:26:37.630Z</time>
      </trkpt>
      <trkpt lat="43.52759" lon="5.61396">
        <ele>697</ele>
        <time>2022-10-19T09:26:38.630Z</time>
      </trkpt>
      <trkpt lat="43.52759" lon="5.61396">
        <ele>697</ele>
        <time>2022-10-19T09:26:39.630Z</time>
      </trkpt>
      <trkpt lat="43.52759" lon="5.61396">
        <ele>697</ele>
        <time>2022-10-19T09:26:40.630Z</time>
      </trkpt>
      <trkpt lat="43.52759" lon="5.61396">
        <ele>697</ele>
        <time>2022-10-19T09:26:41.630Z</time>
      </trkpt>
      <trkpt lat="43.52759" lon="5.61396">
        <ele>697</ele>
        <time>2022-10-19T09:26:42.630Z</time>
      </trkpt>
      <trkpt lat="43.52759" lon="5.61396">
        <ele>697</ele>
        <time>2022-10-19T09:26:43.630Z</time>
      </trkpt>
      <trkpt lat="43.52759" lon="5.61396">
        <ele>697</ele>
        <time>2022-10-19T09:26:44.630Z</time>
      </trkpt>
      <trkpt lat="43.52759" lon="5.61396">
        <ele>697</ele>
        <time>2022-10-19T09:26:45.630Z</time>
      </trkpt>
      <trkpt lat="43.52759" lon="5.61396">
        <ele>697</ele>
        <time>2022-10-19T09:26:46.630Z</time>
      </trkpt>
      <trkpt lat="43.52759" lon="5.61396">
        <ele>697</ele>
        <time>2022-10-19T09:26:47.630Z</time>
      </trkpt>
      <trkpt lat="43.52759" lon="5.61396">
        <ele>697</ele>
        <time>2022-10-19T09:26:48.630Z</time>
      </trkpt>
      <trkpt lat="43.52759" lon="5.61396">
        <ele>697</ele>
        <time>2022-10-19T09:26:49.630Z</time>
      </trkpt>
      <trkpt lat="43.52759" lon="5.61396">
        <ele>697</ele>
        <time>2022-10-19T09:26:50.630Z</time>
      </trkpt>
      <trkpt lat="43.52759" lon="5.61396">
        <ele>697</ele>
        <time>2022-10-19T09:26:51.630Z</time>
      </trkpt>
      <trkpt lat="43.52759" lon="5.61396">
        <ele>697</ele>
        <time>2022-10-19T09:26:52.630Z</time>
      </trkpt>
      <trkpt lat="43.52759" lon="5.61396">
        <ele>697</ele>
        <time>2022-10-19T09:26:53.630Z</time>
      </trkpt>
      <trkpt lat="43.52759" lon="5.61396">
        <ele>697</ele>
        <time>2022-10-19T09:26:54.630Z</time>
      </trkpt>
      <trkpt lat="43.52759" lon="5.61396">
        <ele>697</ele>
        <time>2022-10-19T09:26:55.630Z</time>
      </trkpt>
      <trkpt lat="43.52759" lon="5.61396">
        <ele>697</ele>
        <time>2022-10-19T09:26:56.630Z</time>
      </trkpt>
      <trkpt lat="43.52759" lon="5.61396">
        <ele>697</ele>
        <time>2022-10-19T09:26:57.630Z</time>
      </trkpt>
      <trkpt lat="43.52759" lon="5.61396">
        <ele>697</ele>
        <time>2022-10-19T09:26:58.630Z</time>
      </trkpt>
      <trkpt lat="43.52759" lon="5.61396">
        <ele>697</ele>
        <time>2022-10-19T09:26:59.630Z</time>
      </trkpt>
      <trkpt lat="43.52759" lon="5.61396">
        <ele>697</ele>
        <time>2022-10-19T09:27:00.630Z</time>
      </trkpt>
      <trkpt lat="43.52759" lon="5.61396">
        <ele>697</ele>
        <time>2022-10-19T09:27:01.630Z</time>
      </trkpt>
      <trkpt lat="43.52759" lon="5.61396">
        <ele>697</ele>
        <time>2022-10-19T09:27:02.630Z</time>
      </trkpt>
      <trkpt lat="43.52759" lon="5.61395">
        <ele>697</ele>
        <time>2022-10-19T09:27:03.630Z</time>
      </trkpt>
      <trkpt lat="43.52759" lon="5.61394">
        <ele>697</ele>
        <time>2022-10-19T09:27:04.630Z</time>
      </trkpt>
      <trkpt lat="43.52759" lon="5.61393">
        <ele>697</ele>
        <time>2022-10-19T09:27:05.630Z</time>
      </trkpt>
      <trkpt lat="43.52759" lon="5.61392">
        <ele>697</ele>
        <time>2022-10-19T09:27:06.630Z</time>
      </trkpt>
      <trkpt lat="43.52759" lon="5.61391">
        <ele>697</ele>
        <time>2022-10-19T09:27:07.630Z</time>
      </trkpt>
      <trkpt lat="43.52759" lon="5.6139">
        <ele>697</ele>
        <time>2022-10-19T09:27:08.630Z</time>
      </trkpt>
      <trkpt lat="43.52759" lon="5.61389">
        <ele>697</ele>
        <time>2022-10-19T09:27:09.630Z</time>
      </trkpt>
      <trkpt lat="43.52759" lon="5.61387">
        <ele>697</ele>
        <time>2022-10-19T09:27:10.630Z</time>
      </trkpt>
      <trkpt lat="43.52759" lon="5.61386">
        <ele>696</ele>
        <time>2022-10-19T09:27:11.630Z</time>
      </trkpt>
      <trkpt lat="43.52759" lon="5.61385">
        <ele>696</ele>
        <time>2022-10-19T09:27:12.630Z</time>
      </trkpt>
      <trkpt lat="43.5276" lon="5.61384">
        <ele>696</ele>
        <time>2022-10-19T09:27:13.630Z</time>
      </trkpt>
      <trkpt lat="43.5276" lon="5.61382">
        <ele>696</ele>
        <time>2022-10-19T09:27:14.630Z</time>
      </trkpt>
      <trkpt lat="43.5276" lon="5.61381">
        <ele>696</ele>
        <time>2022-10-19T09:27:15.630Z</time>
      </trkpt>
      <trkpt lat="43.5276" lon="5.6138">
        <ele>696</ele>
        <time>2022-10-19T09:27:16.630Z</time>
      </trkpt>
      <trkpt lat="43.52761" lon="5.61379">
        <ele>696</ele>
        <time>2022-10-19T09:27:17.630Z</time>
      </trkpt>
      <trkpt lat="43.52761" lon="5.61378">
        <ele>696</ele>
        <time>2022-10-19T09:27:18.630Z</time>
      </trkpt>
      <trkpt lat="43.5276" lon="5.61376">
        <ele>696</ele>
        <time>2022-10-19T09:27:19.630Z</time>
      </trkpt>
      <trkpt lat="43.5276" lon="5.61374">
        <ele>696</ele>
        <time>2022-10-19T09:27:20.630Z</time>
      </trkpt>
      <trkpt lat="43.52761" lon="5.61373">
        <ele>696</ele>
        <time>2022-10-19T09:27:21.630Z</time>
      </trkpt>
      <trkpt lat="43.52761" lon="5.61372">
        <ele>696</ele>
        <time>2022-10-19T09:27:22.630Z</time>
      </trkpt>
      <trkpt lat="43.52761" lon="5.61371">
        <ele>696</ele>
        <time>2022-10-19T09:27:23.630Z</time>
      </trkpt>
      <trkpt lat="43.52761" lon="5.6137">
        <ele>695</ele>
        <time>2022-10-19T09:27:24.630Z</time>
      </trkpt>
      <trkpt lat="43.52761" lon="5.61368">
        <ele>695</ele>
        <time>2022-10-19T09:27:25.630Z</time>
      </trkpt>
      <trkpt lat="43.52761" lon="5.61367">
        <ele>695</ele>
        <time>2022-10-19T09:27:26.630Z</time>
      </trkpt>
      <trkpt lat="43.52761" lon="5.61365">
        <ele>695</ele>
        <time>2022-10-19T09:27:27.630Z</time>
      </trkpt>
      <trkpt lat="43.52761" lon="5.61364">
        <ele>695</ele>
        <time>2022-10-19T09:27:28.630Z</time>
      </trkpt>
      <trkpt lat="43.52762" lon="5.61363">
        <ele>695</ele>
        <time>2022-10-19T09:27:29.630Z</time>
      </trkpt>
      <trkpt lat="43.52762" lon="5.61361">
        <ele>695</ele>
        <time>2022-10-19T09:27:30.630Z</time>
      </trkpt>
      <trkpt lat="43.52762" lon="5.6136">
        <ele>695</ele>
        <time>2022-10-19T09:27:31.630Z</time>
      </trkpt>
      <trkpt lat="43.52762" lon="5.61359">
        <ele>695</ele>
        <time>2022-10-19T09:27:32.630Z</time>
      </trkpt>
      <trkpt lat="43.52763" lon="5.61357">
        <ele>695</ele>
        <time>2022-10-19T09:27:33.630Z</time>
      </trkpt>
      <trkpt lat="43.52763" lon="5.61356">
        <ele>695</ele>
        <time>2022-10-19T09:27:34.630Z</time>
      </trkpt>
      <trkpt lat="43.52763" lon="5.61355">
        <ele>695</ele>
        <time>2022-10-19T09:27:35.630Z</time>
      </trkpt>
      <trkpt lat="43.52763" lon="5.61354">
        <ele>695</ele>
        <time>2022-10-19T09:27:36.630Z</time>
      </trkpt>
      <trkpt lat="43.52763" lon="5.61352">
        <ele>695</ele>
        <time>2022-10-19T09:27:37.630Z</time>
      </trkpt>
      <trkpt lat="43.52764" lon="5.61351">
        <ele>695</ele>
        <time>2022-10-19T09:27:38.630Z</time>
      </trkpt>
      <trkpt lat="43.52764" lon="5.6135">
        <ele>695</ele>
        <time>2022-10-19T09:27:39.630Z</time>
      </trkpt>
      <trkpt lat="43.52764" lon="5.61348">
        <ele>695</ele>
        <time>2022-10-19T09:27:40.630Z</time>
      </trkpt>
      <trkpt lat="43.52764" lon="5.61347">
        <ele>694</ele>
        <time>2022-10-19T09:27:41.630Z</time>
      </trkpt>
      <trkpt lat="43.52764" lon="5.61345">
        <ele>694</ele>
        <time>2022-10-19T09:27:42.630Z</time>
      </trkpt>
      <trkpt lat="43.52765" lon="5.61344">
        <ele>694</ele>
        <time>2022-10-19T09:27:43.630Z</time>
      </trkpt>
      <trkpt lat="43.52765" lon="5.61343">
        <ele>694</ele>
        <time>2022-10-19T09:27:44.630Z</time>
      </trkpt>
      <trkpt lat="43.52765" lon="5.61342">
        <ele>694</ele>
        <time>2022-10-19T09:27:45.630Z</time>
      </trkpt>
      <trkpt lat="43.52766" lon="5.61341">
        <ele>694</ele>
        <time>2022-10-19T09:27:46.630Z</time>
      </trkpt>
      <trkpt lat="43.52766" lon="5.61339">
        <ele>694</ele>
        <time>2022-10-19T09:27:47.630Z</time>
      </trkpt>
      <trkpt lat="43.52766" lon="5.61337">
        <ele>694</ele>
        <time>2022-10-19T09:27:48.630Z</time>
      </trkpt>
      <trkpt lat="43.52766" lon="5.61336">
        <ele>694</ele>
        <time>2022-10-19T09:27:49.630Z</time>
      </trkpt>
      <trkpt lat="43.52766" lon="5.61335">
        <ele>694</ele>
        <time>2022-10-19T09:27:50.630Z</time>
      </trkpt>
      <trkpt lat="43.52767" lon="5.61334">
        <ele>694</ele>
        <time>2022-10-19T09:27:51.630Z</time>
      </trkpt>
      <trkpt lat="43.52767" lon="5.61332">
        <ele>694</ele>
        <time>2022-10-19T09:27:52.630Z</time>
      </trkpt>
      <trkpt lat="43.52767" lon="5.61331">
        <ele>693</ele>
        <time>2022-10-19T09:27:53.630Z</time>
      </trkpt>
      <trkpt lat="43.52768" lon="5.6133">
        <ele>693</ele>
        <time>2022-10-19T09:27:54.630Z</time>
      </trkpt>
      <trkpt lat="43.52768" lon="5.61328">
        <ele>693</ele>
        <time>2022-10-19T09:27:55.630Z</time>
      </trkpt>
      <trkpt lat="43.52768" lon="5.61327">
        <ele>693</ele>
        <time>2022-10-19T09:27:56.630Z</time>
      </trkpt>
      <trkpt lat="43.52769" lon="5.61326">
        <ele>693</ele>
        <time>2022-10-19T09:27:57.630Z</time>
      </trkpt>
      <trkpt lat="43.52769" lon="5.61324">
        <ele>693</ele>
        <time>2022-10-19T09:27:58.630Z</time>
      </trkpt>
      <trkpt lat="43.52769" lon="5.61322">
        <ele>693</ele>
        <time>2022-10-19T09:27:59.630Z</time>
      </trkpt>
      <trkpt lat="43.5277" lon="5.61321">
        <ele>693</ele>
        <time>2022-10-19T09:28:00.630Z</time>
      </trkpt>
      <trkpt lat="43.5277" lon="5.6132">
        <ele>693</ele>
        <time>2022-10-19T09:28:01.630Z</time>
      </trkpt>
      <trkpt lat="43.5277" lon="5.61318">
        <ele>693</ele>
        <time>2022-10-19T09:28:02.630Z</time>
      </trkpt>
      <trkpt lat="43.52771" lon="5.61317">
        <ele>693</ele>
        <time>2022-10-19T09:28:03.630Z</time>
      </trkpt>
      <trkpt lat="43.52772" lon="5.61316">
        <ele>693</ele>
        <time>2022-10-19T09:28:04.630Z</time>
      </trkpt>
      <trkpt lat="43.52772" lon="5.61314">
        <ele>693</ele>
        <time>2022-10-19T09:28:05.630Z</time>
      </trkpt>
      <trkpt lat="43.52773" lon="5.61313">
        <ele>693</ele>
        <time>2022-10-19T09:28:06.630Z</time>
      </trkpt>
      <trkpt lat="43.52773" lon="5.61312">
        <ele>693</ele>
        <time>2022-10-19T09:28:07.630Z</time>
      </trkpt>
      <trkpt lat="43.52773" lon="5.61311">
        <ele>693</ele>
        <time>2022-10-19T09:28:08.630Z</time>
      </trkpt>
      <trkpt lat="43.52773" lon="5.6131">
        <ele>693</ele>
        <time>2022-10-19T09:28:09.630Z</time>
      </trkpt>
      <trkpt lat="43.52774" lon="5.61309">
        <ele>693</ele>
        <time>2022-10-19T09:28:10.630Z</time>
      </trkpt>
      <trkpt lat="43.52774" lon="5.61307">
        <ele>693</ele>
        <time>2022-10-19T09:28:11.630Z</time>
      </trkpt>
      <trkpt lat="43.52774" lon="5.61306">
        <ele>693</ele>
        <time>2022-10-19T09:28:12.630Z</time>
      </trkpt>
      <trkpt lat="43.52774" lon="5.61304">
        <ele>693</ele>
        <time>2022-10-19T09:28:13.630Z</time>
      </trkpt>
      <trkpt lat="43.52774" lon="5.61303">
        <ele>693</ele>
        <time>2022-10-19T09:28:14.630Z</time>
      </trkpt>
      <trkpt lat="43.52775" lon="5.61301">
        <ele>693</ele>
        <time>2022-10-19T09:28:15.630Z</time>
      </trkpt>
      <trkpt lat="43.52776" lon="5.613">
        <ele>693</ele>
        <time>2022-10-19T09:28:16.630Z</time>
      </trkpt>
      <trkpt lat="43.52776" lon="5.61299">
        <ele>693</ele>
        <time>2022-10-19T09:28:17.630Z</time>
      </trkpt>
      <trkpt lat="43.52777" lon="5.61298">
        <ele>693</ele>
        <time>2022-10-19T09:28:18.630Z</time>
      </trkpt>
      <trkpt lat="43.52777" lon="5.61297">
        <ele>693</ele>
        <time>2022-10-19T09:28:19.630Z</time>
      </trkpt>
      <trkpt lat="43.52778" lon="5.61295">
        <ele>693</ele>
        <time>2022-10-19T09:28:20.630Z</time>
      </trkpt>
      <trkpt lat="43.52778" lon="5.61294">
        <ele>693</ele>
        <time>2022-10-19T09:28:21.630Z</time>
      </trkpt>
      <trkpt lat="43.52779" lon="5.61293">
        <ele>693</ele>
        <time>2022-10-19T09:28:22.630Z</time>
      </trkpt>
      <trkpt lat="43.52779" lon="5.61292">
        <ele>693</ele>
        <time>2022-10-19T09:28:23.630Z</time>
      </trkpt>
      <trkpt lat="43.52779" lon="5.6129">
        <ele>693</ele>
        <time>2022-10-19T09:28:24.630Z</time>
      </trkpt>
      <trkpt lat="43.5278" lon="5.61289">
        <ele>692</ele>
        <time>2022-10-19T09:28:25.630Z</time>
      </trkpt>
      <trkpt lat="43.5278" lon="5.61288">
        <ele>692</ele>
        <time>2022-10-19T09:28:26.630Z</time>
      </trkpt>
      <trkpt lat="43.52781" lon="5.61287">
        <ele>692</ele>
        <time>2022-10-19T09:28:27.630Z</time>
      </trkpt>
      <trkpt lat="43.52781" lon="5.61285">
        <ele>692</ele>
        <time>2022-10-19T09:28:28.630Z</time>
      </trkpt>
      <trkpt lat="43.52782" lon="5.61284">
        <ele>692</ele>
        <time>2022-10-19T09:28:29.630Z</time>
      </trkpt>
      <trkpt lat="43.52782" lon="5.61283">
        <ele>692</ele>
        <time>2022-10-19T09:28:30.630Z</time>
      </trkpt>
      <trkpt lat="43.52782" lon="5.61282">
        <ele>692</ele>
        <time>2022-10-19T09:28:31.630Z</time>
      </trkpt>
      <trkpt lat="43.52782" lon="5.61282">
        <ele>692</ele>
        <time>2022-10-19T09:28:32.630Z</time>
      </trkpt>
      <trkpt lat="43.52782" lon="5.61281">
        <ele>692</ele>
        <time>2022-10-19T09:28:33.630Z</time>
      </trkpt>
      <trkpt lat="43.52782" lon="5.61281">
        <ele>692</ele>
        <time>2022-10-19T09:28:34.630Z</time>
      </trkpt>
      <trkpt lat="43.52782" lon="5.61281">
        <ele>692</ele>
        <time>2022-10-19T09:28:35.630Z</time>
      </trkpt>
      <trkpt lat="43.52782" lon="5.61281">
        <ele>692</ele>
        <time>2022-10-19T09:28:36.630Z</time>
      </trkpt>
      <trkpt lat="43.52782" lon="5.61281">
        <ele>692</ele>
        <time>2022-10-19T09:28:37.630Z</time>
      </trkpt>
      <trkpt lat="43.52782" lon="5.61281">
        <ele>692</ele>
        <time>2022-10-19T09:28:38.630Z</time>
      </trkpt>
      <trkpt lat="43.52782" lon="5.6128">
        <ele>692</ele>
        <time>2022-10-19T09:28:39.630Z</time>
      </trkpt>
      <trkpt lat="43.52782" lon="5.61279">
        <ele>692</ele>
        <time>2022-10-19T09:28:40.630Z</time>
      </trkpt>
      <trkpt lat="43.52782" lon="5.61279">
        <ele>692</ele>
        <time>2022-10-19T09:28:41.630Z</time>
      </trkpt>
      <trkpt lat="43.52782" lon="5.61279">
        <ele>692</ele>
        <time>2022-10-19T09:28:42.630Z</time>
      </trkpt>
      <trkpt lat="43.52782" lon="5.61278">
        <ele>692</ele>
        <time>2022-10-19T09:28:43.630Z</time>
      </trkpt>
      <trkpt lat="43.52782" lon="5.61278">
        <ele>692</ele>
        <time>2022-10-19T09:28:44.630Z</time>
      </trkpt>
      <trkpt lat="43.52782" lon="5.61277">
        <ele>691</ele>
        <time>2022-10-19T09:28:45.630Z</time>
      </trkpt>
      <trkpt lat="43.52782" lon="5.61275">
        <ele>691</ele>
        <time>2022-10-19T09:28:46.630Z</time>
      </trkpt>
      <trkpt lat="43.52782" lon="5.61274">
        <ele>691</ele>
        <time>2022-10-19T09:28:47.630Z</time>
      </trkpt>
      <trkpt lat="43.52782" lon="5.61273">
        <ele>691</ele>
        <time>2022-10-19T09:28:48.630Z</time>
      </trkpt>
      <trkpt lat="43.52782" lon="5.61271">
        <ele>691</ele>
        <time>2022-10-19T09:28:49.630Z</time>
      </trkpt>
      <trkpt lat="43.52781" lon="5.6127">
        <ele>691</ele>
        <time>2022-10-19T09:28:50.630Z</time>
      </trkpt>
      <trkpt lat="43.52781" lon="5.61269">
        <ele>691</ele>
        <time>2022-10-19T09:28:51.630Z</time>
      </trkpt>
      <trkpt lat="43.5278" lon="5.61268">
        <ele>691</ele>
        <time>2022-10-19T09:28:52.630Z</time>
      </trkpt>
      <trkpt lat="43.5278" lon="5.61267">
        <ele>691</ele>
        <time>2022-10-19T09:28:53.630Z</time>
      </trkpt>
      <trkpt lat="43.52779" lon="5.61266">
        <ele>691</ele>
        <time>2022-10-19T09:28:54.630Z</time>
      </trkpt>
      <trkpt lat="43.52779" lon="5.61265">
        <ele>691</ele>
        <time>2022-10-19T09:28:55.630Z</time>
      </trkpt>
      <trkpt lat="43.52778" lon="5.61264">
        <ele>691</ele>
        <time>2022-10-19T09:28:56.630Z</time>
      </trkpt>
      <trkpt lat="43.52778" lon="5.61263">
        <ele>691</ele>
        <time>2022-10-19T09:28:57.630Z</time>
      </trkpt>
      <trkpt lat="43.52777" lon="5.61261">
        <ele>691</ele>
        <time>2022-10-19T09:28:58.630Z</time>
      </trkpt>
      <trkpt lat="43.52777" lon="5.6126">
        <ele>691</ele>
        <time>2022-10-19T09:28:59.630Z</time>
      </trkpt>
      <trkpt lat="43.52776" lon="5.61259">
        <ele>691</ele>
        <time>2022-10-19T09:29:00.630Z</time>
      </trkpt>
      <trkpt lat="43.52775" lon="5.61258">
        <ele>691</ele>
        <time>2022-10-19T09:29:01.630Z</time>
      </trkpt>
      <trkpt lat="43.52775" lon="5.61257">
        <ele>691</ele>
        <time>2022-10-19T09:29:02.630Z</time>
      </trkpt>
      <trkpt lat="43.52774" lon="5.61256">
        <ele>691</ele>
        <time>2022-10-19T09:29:03.630Z</time>
      </trkpt>
      <trkpt lat="43.52773" lon="5.61256">
        <ele>691</ele>
        <time>2022-10-19T09:29:04.630Z</time>
      </trkpt>
      <trkpt lat="43.52773" lon="5.61255">
        <ele>692</ele>
        <time>2022-10-19T09:29:05.630Z</time>
      </trkpt>
      <trkpt lat="43.52772" lon="5.61255">
        <ele>692</ele>
        <time>2022-10-19T09:29:06.630Z</time>
      </trkpt>
      <trkpt lat="43.52771" lon="5.61255">
        <ele>692</ele>
        <time>2022-10-19T09:29:07.630Z</time>
      </trkpt>
      <trkpt lat="43.5277" lon="5.61255">
        <ele>692</ele>
        <time>2022-10-19T09:29:08.630Z</time>
      </trkpt>
      <trkpt lat="43.52769" lon="5.61255">
        <ele>692</ele>
        <time>2022-10-19T09:29:09.630Z</time>
      </trkpt>
      <trkpt lat="43.52768" lon="5.61254">
        <ele>692</ele>
        <time>2022-10-19T09:29:10.630Z</time>
      </trkpt>
      <trkpt lat="43.52767" lon="5.61254">
        <ele>693</ele>
        <time>2022-10-19T09:29:11.630Z</time>
      </trkpt>
      <trkpt lat="43.52767" lon="5.61254">
        <ele>693</ele>
        <time>2022-10-19T09:29:12.630Z</time>
      </trkpt>
      <trkpt lat="43.52766" lon="5.61254">
        <ele>693</ele>
        <time>2022-10-19T09:29:13.630Z</time>
      </trkpt>
      <trkpt lat="43.52765" lon="5.61253">
        <ele>693</ele>
        <time>2022-10-19T09:29:14.630Z</time>
      </trkpt>
      <trkpt lat="43.52764" lon="5.61253">
        <ele>693</ele>
        <time>2022-10-19T09:29:15.630Z</time>
      </trkpt>
      <trkpt lat="43.52763" lon="5.61253">
        <ele>694</ele>
        <time>2022-10-19T09:29:16.630Z</time>
      </trkpt>
      <trkpt lat="43.52762" lon="5.61252">
        <ele>694</ele>
        <time>2022-10-19T09:29:17.630Z</time>
      </trkpt>
      <trkpt lat="43.52761" lon="5.61252">
        <ele>694</ele>
        <time>2022-10-19T09:29:18.630Z</time>
      </trkpt>
      <trkpt lat="43.5276" lon="5.61251">
        <ele>694</ele>
        <time>2022-10-19T09:29:19.630Z</time>
      </trkpt>
      <trkpt lat="43.52759" lon="5.6125">
        <ele>694</ele>
        <time>2022-10-19T09:29:20.630Z</time>
      </trkpt>
      <trkpt lat="43.52758" lon="5.6125">
        <ele>694</ele>
        <time>2022-10-19T09:29:21.630Z</time>
      </trkpt>
      <trkpt lat="43.52757" lon="5.6125">
        <ele>694</ele>
        <time>2022-10-19T09:29:22.630Z</time>
      </trkpt>
      <trkpt lat="43.52756" lon="5.61249">
        <ele>694</ele>
        <time>2022-10-19T09:29:23.630Z</time>
      </trkpt>
      <trkpt lat="43.52755" lon="5.61248">
        <ele>694</ele>
        <time>2022-10-19T09:29:24.630Z</time>
      </trkpt>
      <trkpt lat="43.52755" lon="5.61247">
        <ele>694</ele>
        <time>2022-10-19T09:29:25.630Z</time>
      </trkpt>
      <trkpt lat="43.52754" lon="5.61246">
        <ele>695</ele>
        <time>2022-10-19T09:29:26.630Z</time>
      </trkpt>
      <trkpt lat="43.52753" lon="5.61245">
        <ele>695</ele>
        <time>2022-10-19T09:29:27.630Z</time>
      </trkpt>
      <trkpt lat="43.52752" lon="5.61245">
        <ele>695</ele>
        <time>2022-10-19T09:29:28.630Z</time>
      </trkpt>
      <trkpt lat="43.52751" lon="5.61244">
        <ele>695</ele>
        <time>2022-10-19T09:29:29.630Z</time>
      </trkpt>
      <trkpt lat="43.52751" lon="5.61243">
        <ele>695</ele>
        <time>2022-10-19T09:29:30.630Z</time>
      </trkpt>
      <trkpt lat="43.5275" lon="5.61242">
        <ele>695</ele>
        <time>2022-10-19T09:29:31.630Z</time>
      </trkpt>
      <trkpt lat="43.52749" lon="5.61241">
        <ele>695</ele>
        <time>2022-10-19T09:29:32.630Z</time>
      </trkpt>
      <trkpt lat="43.52748" lon="5.6124">
        <ele>695</ele>
        <time>2022-10-19T09:29:33.630Z</time>
      </trkpt>
      <trkpt lat="43.52747" lon="5.6124">
        <ele>695</ele>
        <time>2022-10-19T09:29:34.630Z</time>
      </trkpt>
      <trkpt lat="43.52747" lon="5.61239">
        <ele>695</ele>
        <time>2022-10-19T09:29:35.630Z</time>
      </trkpt>
      <trkpt lat="43.52746" lon="5.61238">
        <ele>696</ele>
        <time>2022-10-19T09:29:36.630Z</time>
      </trkpt>
      <trkpt lat="43.52746" lon="5.61238">
        <ele>696</ele>
        <time>2022-10-19T09:29:37.630Z</time>
      </trkpt>
      <trkpt lat="43.52745" lon="5.61237">
        <ele>696</ele>
        <time>2022-10-19T09:29:38.630Z</time>
      </trkpt>
      <trkpt lat="43.52744" lon="5.61236">
        <ele>696</ele>
        <time>2022-10-19T09:29:39.630Z</time>
      </trkpt>
      <trkpt lat="43.52743" lon="5.61235">
        <ele>696</ele>
        <time>2022-10-19T09:29:40.630Z</time>
      </trkpt>
      <trkpt lat="43.52743" lon="5.61234">
        <ele>696</ele>
        <time>2022-10-19T09:29:41.630Z</time>
      </trkpt>
      <trkpt lat="43.52742" lon="5.61233">
        <ele>696</ele>
        <time>2022-10-19T09:29:42.630Z</time>
      </trkpt>
      <trkpt lat="43.52741" lon="5.61232">
        <ele>696</ele>
        <time>2022-10-19T09:29:43.630Z</time>
      </trkpt>
      <trkpt lat="43.52741" lon="5.61231">
        <ele>696</ele>
        <time>2022-10-19T09:29:44.630Z</time>
      </trkpt>
      <trkpt lat="43.5274" lon="5.61231">
        <ele>696</ele>
        <time>2022-10-19T09:29:45.630Z</time>
      </trkpt>
      <trkpt lat="43.52739" lon="5.6123">
        <ele>696</ele>
        <time>2022-10-19T09:29:46.630Z</time>
      </trkpt>
      <trkpt lat="43.52739" lon="5.61229">
        <ele>696</ele>
        <time>2022-10-19T09:29:47.630Z</time>
      </trkpt>
      <trkpt lat="43.52738" lon="5.61229">
        <ele>696</ele>
        <time>2022-10-19T09:29:48.630Z</time>
      </trkpt>
      <trkpt lat="43.52737" lon="5.61228">
        <ele>696</ele>
        <time>2022-10-19T09:29:49.630Z</time>
      </trkpt>
      <trkpt lat="43.52736" lon="5.61227">
        <ele>696</ele>
        <time>2022-10-19T09:29:50.630Z</time>
      </trkpt>
      <trkpt lat="43.52735" lon="5.61227">
        <ele>696</ele>
        <time>2022-10-19T09:29:51.630Z</time>
      </trkpt>
      <trkpt lat="43.52735" lon="5.61226">
        <ele>696</ele>
        <time>2022-10-19T09:29:52.630Z</time>
      </trkpt>
      <trkpt lat="43.52734" lon="5.61225">
        <ele>696</ele>
        <time>2022-10-19T09:29:53.630Z</time>
      </trkpt>
      <trkpt lat="43.52733" lon="5.61224">
        <ele>696</ele>
        <time>2022-10-19T09:29:54.630Z</time>
      </trkpt>
      <trkpt lat="43.52732" lon="5.61222">
        <ele>696</ele>
        <time>2022-10-19T09:29:55.630Z</time>
      </trkpt>
      <trkpt lat="43.52732" lon="5.61221">
        <ele>696</ele>
        <time>2022-10-19T09:29:56.630Z</time>
      </trkpt>
      <trkpt lat="43.52732" lon="5.6122">
        <ele>696</ele>
        <time>2022-10-19T09:29:57.630Z</time>
      </trkpt>
      <trkpt lat="43.52732" lon="5.61219">
        <ele>696</ele>
        <time>2022-10-19T09:29:58.630Z</time>
      </trkpt>
      <trkpt lat="43.52731" lon="5.61218">
        <ele>696</ele>
        <time>2022-10-19T09:29:59.630Z</time>
      </trkpt>
      <trkpt lat="43.52731" lon="5.61217">
        <ele>696</ele>
        <time>2022-10-19T09:30:00.630Z</time>
      </trkpt>
      <trkpt lat="43.5273" lon="5.61216">
        <ele>696</ele>
        <time>2022-10-19T09:30:01.630Z</time>
      </trkpt>
      <trkpt lat="43.5273" lon="5.61214">
        <ele>696</ele>
        <time>2022-10-19T09:30:02.630Z</time>
      </trkpt>
      <trkpt lat="43.52729" lon="5.61213">
        <ele>696</ele>
        <time>2022-10-19T09:30:03.630Z</time>
      </trkpt>
      <trkpt lat="43.52729" lon="5.61212">
        <ele>696</ele>
        <time>2022-10-19T09:30:04.630Z</time>
      </trkpt>
      <trkpt lat="43.52729" lon="5.6121">
        <ele>696</ele>
        <time>2022-10-19T09:30:05.630Z</time>
      </trkpt>
      <trkpt lat="43.52729" lon="5.61209">
        <ele>696</ele>
        <time>2022-10-19T09:30:06.630Z</time>
      </trkpt>
      <trkpt lat="43.52729" lon="5.61208">
        <ele>696</ele>
        <time>2022-10-19T09:30:07.630Z</time>
      </trkpt>
      <trkpt lat="43.52728" lon="5.61206">
        <ele>696</ele>
        <time>2022-10-19T09:30:08.630Z</time>
      </trkpt>
      <trkpt lat="43.52728" lon="5.61205">
        <ele>697</ele>
        <time>2022-10-19T09:30:09.630Z</time>
      </trkpt>
      <trkpt lat="43.52727" lon="5.61204">
        <ele>697</ele>
        <time>2022-10-19T09:30:10.630Z</time>
      </trkpt>
      <trkpt lat="43.52727" lon="5.61202">
        <ele>697</ele>
        <time>2022-10-19T09:30:11.630Z</time>
      </trkpt>
      <trkpt lat="43.52726" lon="5.61201">
        <ele>697</ele>
        <time>2022-10-19T09:30:12.630Z</time>
      </trkpt>
      <trkpt lat="43.52726" lon="5.61199">
        <ele>697</ele>
        <time>2022-10-19T09:30:13.630Z</time>
      </trkpt>
      <trkpt lat="43.52726" lon="5.61198">
        <ele>697</ele>
        <time>2022-10-19T09:30:14.630Z</time>
      </trkpt>
      <trkpt lat="43.52726" lon="5.61196">
        <ele>697</ele>
        <time>2022-10-19T09:30:15.630Z</time>
      </trkpt>
      <trkpt lat="43.52725" lon="5.61195">
        <ele>697</ele>
        <time>2022-10-19T09:30:16.630Z</time>
      </trkpt>
      <trkpt lat="43.52725" lon="5.61193">
        <ele>697</ele>
        <time>2022-10-19T09:30:17.630Z</time>
      </trkpt>
      <trkpt lat="43.52725" lon="5.61192">
        <ele>697</ele>
        <time>2022-10-19T09:30:18.630Z</time>
      </trkpt>
      <trkpt lat="43.52725" lon="5.61191">
        <ele>697</ele>
        <time>2022-10-19T09:30:19.630Z</time>
      </trkpt>
      <trkpt lat="43.52725" lon="5.61189">
        <ele>697</ele>
        <time>2022-10-19T09:30:20.630Z</time>
      </trkpt>
      <trkpt lat="43.52724" lon="5.61188">
        <ele>696</ele>
        <time>2022-10-19T09:30:21.630Z</time>
      </trkpt>
      <trkpt lat="43.52724" lon="5.61186">
        <ele>696</ele>
        <time>2022-10-19T09:30:22.630Z</time>
      </trkpt>
      <trkpt lat="43.52725" lon="5.61184">
        <ele>696</ele>
        <time>2022-10-19T09:30:23.630Z</time>
      </trkpt>
      <trkpt lat="43.52725" lon="5.61183">
        <ele>696</ele>
        <time>2022-10-19T09:30:24.630Z</time>
      </trkpt>
      <trkpt lat="43.52725" lon="5.61182">
        <ele>696</ele>
        <time>2022-10-19T09:30:25.630Z</time>
      </trkpt>
      <trkpt lat="43.52725" lon="5.61181">
        <ele>696</ele>
        <time>2022-10-19T09:30:26.630Z</time>
      </trkpt>
      <trkpt lat="43.52725" lon="5.61179">
        <ele>696</ele>
        <time>2022-10-19T09:30:27.630Z</time>
      </trkpt>
      <trkpt lat="43.52725" lon="5.61178">
        <ele>696</ele>
        <time>2022-10-19T09:30:28.630Z</time>
      </trkpt>
      <trkpt lat="43.52725" lon="5.61177">
        <ele>696</ele>
        <time>2022-10-19T09:30:29.630Z</time>
      </trkpt>
      <trkpt lat="43.52725" lon="5.61175">
        <ele>696</ele>
        <time>2022-10-19T09:30:30.630Z</time>
      </trkpt>
      <trkpt lat="43.52725" lon="5.61173">
        <ele>696</ele>
        <time>2022-10-19T09:30:31.630Z</time>
      </trkpt>
      <trkpt lat="43.52725" lon="5.61172">
        <ele>696</ele>
        <time>2022-10-19T09:30:32.630Z</time>
      </trkpt>
      <trkpt lat="43.52726" lon="5.61171">
        <ele>696</ele>
        <time>2022-10-19T09:30:33.630Z</time>
      </trkpt>
      <trkpt lat="43.52726" lon="5.6117">
        <ele>696</ele>
        <time>2022-10-19T09:30:34.630Z</time>
      </trkpt>
      <trkpt lat="43.52726" lon="5.61168">
        <ele>696</ele>
        <time>2022-10-19T09:30:35.630Z</time>
      </trkpt>
      <trkpt lat="43.52726" lon="5.61167">
        <ele>696</ele>
        <time>2022-10-19T09:30:36.630Z</time>
      </trkpt>
      <trkpt lat="43.52726" lon="5.61166">
        <ele>695</ele>
        <time>2022-10-19T09:30:37.630Z</time>
      </trkpt>
      <trkpt lat="43.52726" lon="5.61164">
        <ele>695</ele>
        <time>2022-10-19T09:30:38.630Z</time>
      </trkpt>
      <trkpt lat="43.52726" lon="5.61163">
        <ele>695</ele>
        <time>2022-10-19T09:30:39.630Z</time>
      </trkpt>
      <trkpt lat="43.52726" lon="5.61161">
        <ele>695</ele>
        <time>2022-10-19T09:30:40.630Z</time>
      </trkpt>
      <trkpt lat="43.52726" lon="5.6116">
        <ele>695</ele>
        <time>2022-10-19T09:30:41.630Z</time>
      </trkpt>
      <trkpt lat="43.52726" lon="5.61159">
        <ele>695</ele>
        <time>2022-10-19T09:30:42.630Z</time>
      </trkpt>
      <trkpt lat="43.52726" lon="5.61157">
        <ele>695</ele>
        <time>2022-10-19T09:30:43.630Z</time>
      </trkpt>
      <trkpt lat="43.52726" lon="5.61156">
        <ele>695</ele>
        <time>2022-10-19T09:30:44.630Z</time>
      </trkpt>
      <trkpt lat="43.52726" lon="5.61154">
        <ele>695</ele>
        <time>2022-10-19T09:30:45.630Z</time>
      </trkpt>
      <trkpt lat="43.52726" lon="5.61153">
        <ele>694</ele>
        <time>2022-10-19T09:30:46.630Z</time>
      </trkpt>
      <trkpt lat="43.52726" lon="5.61152">
        <ele>694</ele>
        <time>2022-10-19T09:30:47.630Z</time>
      </trkpt>
      <trkpt lat="43.52726" lon="5.6115">
        <ele>694</ele>
        <time>2022-10-19T09:30:48.630Z</time>
      </trkpt>
      <trkpt lat="43.52726" lon="5.61149">
        <ele>694</ele>
        <time>2022-10-19T09:30:49.630Z</time>
      </trkpt>
      <trkpt lat="43.52726" lon="5.61147">
        <ele>694</ele>
        <time>2022-10-19T09:30:50.630Z</time>
      </trkpt>
      <trkpt lat="43.52726" lon="5.61146">
        <ele>694</ele>
        <time>2022-10-19T09:30:51.630Z</time>
      </trkpt>
      <trkpt lat="43.52726" lon="5.61144">
        <ele>694</ele>
        <time>2022-10-19T09:30:52.630Z</time>
      </trkpt>
      <trkpt lat="43.52726" lon="5.61143">
        <ele>694</ele>
        <time>2022-10-19T09:30:53.630Z</time>
      </trkpt>
      <trkpt lat="43.52726" lon="5.61141">
        <ele>694</ele>
        <time>2022-10-19T09:30:54.630Z</time>
      </trkpt>
      <trkpt lat="43.52726" lon="5.61139">
        <ele>694</ele>
        <time>2022-10-19T09:30:55.630Z</time>
      </trkpt>
      <trkpt lat="43.52726" lon="5.61138">
        <ele>694</ele>
        <time>2022-10-19T09:30:56.630Z</time>
      </trkpt>
      <trkpt lat="43.52726" lon="5.61137">
        <ele>694</ele>
        <time>2022-10-19T09:30:57.630Z</time>
      </trkpt>
      <trkpt lat="43.52725" lon="5.61135">
        <ele>694</ele>
        <time>2022-10-19T09:30:58.630Z</time>
      </trkpt>
      <trkpt lat="43.52725" lon="5.61134">
        <ele>693</ele>
        <time>2022-10-19T09:30:59.630Z</time>
      </trkpt>
      <trkpt lat="43.52725" lon="5.61132">
        <ele>693</ele>
        <time>2022-10-19T09:31:00.630Z</time>
      </trkpt>
      <trkpt lat="43.52725" lon="5.61131">
        <ele>693</ele>
        <time>2022-10-19T09:31:01.630Z</time>
      </trkpt>
      <trkpt lat="43.52725" lon="5.61129">
        <ele>693</ele>
        <time>2022-10-19T09:31:02.630Z</time>
      </trkpt>
      <trkpt lat="43.52724" lon="5.61128">
        <ele>693</ele>
        <time>2022-10-19T09:31:03.630Z</time>
      </trkpt>
      <trkpt lat="43.52724" lon="5.61126">
        <ele>693</ele>
        <time>2022-10-19T09:31:04.630Z</time>
      </trkpt>
      <trkpt lat="43.52724" lon="5.61125">
        <ele>693</ele>
        <time>2022-10-19T09:31:05.630Z</time>
      </trkpt>
      <trkpt lat="43.52724" lon="5.61124">
        <ele>693</ele>
        <time>2022-10-19T09:31:06.630Z</time>
      </trkpt>
      <trkpt lat="43.52724" lon="5.61122">
        <ele>693</ele>
        <time>2022-10-19T09:31:07.630Z</time>
      </trkpt>
      <trkpt lat="43.52723" lon="5.61121">
        <ele>693</ele>
        <time>2022-10-19T09:31:08.630Z</time>
      </trkpt>
      <trkpt lat="43.52723" lon="5.6112">
        <ele>693</ele>
        <time>2022-10-19T09:31:09.630Z</time>
      </trkpt>
      <trkpt lat="43.52723" lon="5.61119">
        <ele>693</ele>
        <time>2022-10-19T09:31:10.630Z</time>
      </trkpt>
      <trkpt lat="43.52723" lon="5.61118">
        <ele>693</ele>
        <time>2022-10-19T09:31:11.630Z</time>
      </trkpt>
      <trkpt lat="43.52723" lon="5.61117">
        <ele>693</ele>
        <time>2022-10-19T09:31:12.630Z</time>
      </trkpt>
      <trkpt lat="43.52723" lon="5.61117">
        <ele>693</ele>
        <time>2022-10-19T09:31:13.630Z</time>
      </trkpt>
      <trkpt lat="43.52722" lon="5.61117">
        <ele>693</ele>
        <time>2022-10-19T09:31:14.630Z</time>
      </trkpt>
      <trkpt lat="43.52722" lon="5.61117">
        <ele>693</ele>
        <time>2022-10-19T09:31:15.630Z</time>
      </trkpt>
      <trkpt lat="43.52722" lon="5.61117">
        <ele>693</ele>
        <time>2022-10-19T09:31:16.630Z</time>
      </trkpt>
      <trkpt lat="43.52722" lon="5.61117">
        <ele>693</ele>
        <time>2022-10-19T09:31:17.630Z</time>
      </trkpt>
      <trkpt lat="43.52722" lon="5.61117">
        <ele>693</ele>
        <time>2022-10-19T09:31:18.630Z</time>
      </trkpt>
      <trkpt lat="43.52722" lon="5.61117">
        <ele>693</ele>
        <time>2022-10-19T09:31:19.630Z</time>
      </trkpt>
      <trkpt lat="43.52722" lon="5.61117">
        <ele>693</ele>
        <time>2022-10-19T09:31:20.630Z</time>
      </trkpt>
      <trkpt lat="43.52722" lon="5.61117">
        <ele>693</ele>
        <time>2022-10-19T09:31:21.630Z</time>
      </trkpt>
      <trkpt lat="43.52722" lon="5.61116">
        <ele>693</ele>
        <time>2022-10-19T09:31:22.630Z</time>
      </trkpt>
      <trkpt lat="43.52722" lon="5.61116">
        <ele>693</ele>
        <time>2022-10-19T09:31:23.630Z</time>
      </trkpt>
      <trkpt lat="43.52722" lon="5.61115">
        <ele>693</ele>
        <time>2022-10-19T09:31:24.630Z</time>
      </trkpt>
      <trkpt lat="43.52722" lon="5.61113">
        <ele>693</ele>
        <time>2022-10-19T09:31:25.630Z</time>
      </trkpt>
      <trkpt lat="43.52722" lon="5.61112">
        <ele>693</ele>
        <time>2022-10-19T09:31:26.630Z</time>
      </trkpt>
      <trkpt lat="43.52723" lon="5.61112">
        <ele>693</ele>
        <time>2022-10-19T09:31:27.630Z</time>
      </trkpt>
      <trkpt lat="43.52723" lon="5.61112">
        <ele>693</ele>
        <time>2022-10-19T09:31:28.630Z</time>
      </trkpt>
      <trkpt lat="43.52723" lon="5.61111">
        <ele>693</ele>
        <time>2022-10-19T09:31:29.630Z</time>
      </trkpt>
      <trkpt lat="43.52722" lon="5.61111">
        <ele>693</ele>
        <time>2022-10-19T09:31:30.630Z</time>
      </trkpt>
      <trkpt lat="43.52722" lon="5.61111">
        <ele>693</ele>
        <time>2022-10-19T09:31:31.630Z</time>
      </trkpt>
      <trkpt lat="43.52722" lon="5.61111">
        <ele>693</ele>
        <time>2022-10-19T09:31:32.630Z</time>
      </trkpt>
      <trkpt lat="43.52722" lon="5.61111">
        <ele>693</ele>
        <time>2022-10-19T09:31:33.630Z</time>
      </trkpt>
      <trkpt lat="43.52722" lon="5.61111">
        <ele>693</ele>
        <time>2022-10-19T09:31:34.630Z</time>
      </trkpt>
      <trkpt lat="43.52722" lon="5.61111">
        <ele>693</ele>
        <time>2022-10-19T09:31:35.630Z</time>
      </trkpt>
      <trkpt lat="43.52722" lon="5.61111">
        <ele>693</ele>
        <time>2022-10-19T09:31:36.630Z</time>
      </trkpt>
      <trkpt lat="43.52722" lon="5.61111">
        <ele>693</ele>
        <time>2022-10-19T09:31:37.630Z</time>
      </trkpt>
      <trkpt lat="43.52722" lon="5.61111">
        <ele>693</ele>
        <time>2022-10-19T09:31:38.630Z</time>
      </trkpt>
      <trkpt lat="43.52722" lon="5.61111">
        <ele>693</ele>
        <time>2022-10-19T09:31:39.630Z</time>
      </trkpt>
      <trkpt lat="43.52722" lon="5.6111">
        <ele>692</ele>
        <time>2022-10-19T09:31:40.630Z</time>
      </trkpt>
      <trkpt lat="43.52722" lon="5.61109">
        <ele>692</ele>
        <time>2022-10-19T09:31:41.630Z</time>
      </trkpt>
      <trkpt lat="43.52722" lon="5.61108">
        <ele>692</ele>
        <time>2022-10-19T09:31:42.630Z</time>
      </trkpt>
      <trkpt lat="43.52722" lon="5.61107">
        <ele>692</ele>
        <time>2022-10-19T09:31:43.630Z</time>
      </trkpt>
      <trkpt lat="43.52722" lon="5.61106">
        <ele>692</ele>
        <time>2022-10-19T09:31:44.630Z</time>
      </trkpt>
      <trkpt lat="43.52723" lon="5.61105">
        <ele>692</ele>
        <time>2022-10-19T09:31:45.630Z</time>
      </trkpt>
      <trkpt lat="43.52723" lon="5.61105">
        <ele>692</ele>
        <time>2022-10-19T09:31:46.630Z</time>
      </trkpt>
      <trkpt lat="43.52724" lon="5.61104">
        <ele>692</ele>
        <time>2022-10-19T09:31:47.630Z</time>
      </trkpt>
      <trkpt lat="43.52724" lon="5.61102">
        <ele>692</ele>
        <time>2022-10-19T09:31:48.630Z</time>
      </trkpt>
      <trkpt lat="43.52724" lon="5.61101">
        <ele>692</ele>
        <time>2022-10-19T09:31:49.630Z</time>
      </trkpt>
      <trkpt lat="43.52725" lon="5.611">
        <ele>692</ele>
        <time>2022-10-19T09:31:50.630Z</time>
      </trkpt>
      <trkpt lat="43.52725" lon="5.61099">
        <ele>692</ele>
        <time>2022-10-19T09:31:51.630Z</time>
      </trkpt>
      <trkpt lat="43.52726" lon="5.61099">
        <ele>691</ele>
        <time>2022-10-19T09:31:52.630Z</time>
      </trkpt>
      <trkpt lat="43.52727" lon="5.61099">
        <ele>691</ele>
        <time>2022-10-19T09:31:53.630Z</time>
      </trkpt>
      <trkpt lat="43.52727" lon="5.61099">
        <ele>691</ele>
        <time>2022-10-19T09:31:54.630Z</time>
      </trkpt>
      <trkpt lat="43.52728" lon="5.61098">
        <ele>691</ele>
        <time>2022-10-19T09:31:55.630Z</time>
      </trkpt>
      <trkpt lat="43.52729" lon="5.61097">
        <ele>691</ele>
        <time>2022-10-19T09:31:56.630Z</time>
      </trkpt>
      <trkpt lat="43.52729" lon="5.61096">
        <ele>691</ele>
        <time>2022-10-19T09:31:57.630Z</time>
      </trkpt>
      <trkpt lat="43.5273" lon="5.61094">
        <ele>690</ele>
        <time>2022-10-19T09:31:58.630Z</time>
      </trkpt>
      <trkpt lat="43.5273" lon="5.61093">
        <ele>690</ele>
        <time>2022-10-19T09:31:59.630Z</time>
      </trkpt>
      <trkpt lat="43.5273" lon="5.61092">
        <ele>690</ele>
        <time>2022-10-19T09:32:00.630Z</time>
      </trkpt>
      <trkpt lat="43.52731" lon="5.61091">
        <ele>690</ele>
        <time>2022-10-19T09:32:01.630Z</time>
      </trkpt>
      <trkpt lat="43.52731" lon="5.6109">
        <ele>690</ele>
        <time>2022-10-19T09:32:02.630Z</time>
      </trkpt>
      <trkpt lat="43.52731" lon="5.61089">
        <ele>690</ele>
        <time>2022-10-19T09:32:03.630Z</time>
      </trkpt>
      <trkpt lat="43.52732" lon="5.61088">
        <ele>689</ele>
        <time>2022-10-19T09:32:04.630Z</time>
      </trkpt>
      <trkpt lat="43.52732" lon="5.61086">
        <ele>689</ele>
        <time>2022-10-19T09:32:05.630Z</time>
      </trkpt>
      <trkpt lat="43.52733" lon="5.61085">
        <ele>689</ele>
        <time>2022-10-19T09:32:06.630Z</time>
      </trkpt>
      <trkpt lat="43.52733" lon="5.61084">
        <ele>689</ele>
        <time>2022-10-19T09:32:07.630Z</time>
      </trkpt>
      <trkpt lat="43.52734" lon="5.61083">
        <ele>689</ele>
        <time>2022-10-19T09:32:08.630Z</time>
      </trkpt>
      <trkpt lat="43.52734" lon="5.61082">
        <ele>689</ele>
        <time>2022-10-19T09:32:09.630Z</time>
      </trkpt>
      <trkpt lat="43.52735" lon="5.61081">
        <ele>689</ele>
        <time>2022-10-19T09:32:10.630Z</time>
      </trkpt>
      <trkpt lat="43.52735" lon="5.6108">
        <ele>688</ele>
        <time>2022-10-19T09:32:11.630Z</time>
      </trkpt>
      <trkpt lat="43.52735" lon="5.61079">
        <ele>688</ele>
        <time>2022-10-19T09:32:12.630Z</time>
      </trkpt>
      <trkpt lat="43.52735" lon="5.61078">
        <ele>688</ele>
        <time>2022-10-19T09:32:13.630Z</time>
      </trkpt>
      <trkpt lat="43.52736" lon="5.61076">
        <ele>688</ele>
        <time>2022-10-19T09:32:14.630Z</time>
      </trkpt>
      <trkpt lat="43.52736" lon="5.61075">
        <ele>688</ele>
        <time>2022-10-19T09:32:15.630Z</time>
      </trkpt>
      <trkpt lat="43.52736" lon="5.61074">
        <ele>688</ele>
        <time>2022-10-19T09:32:16.630Z</time>
      </trkpt>
      <trkpt lat="43.52736" lon="5.61073">
        <ele>688</ele>
        <time>2022-10-19T09:32:17.630Z</time>
      </trkpt>
      <trkpt lat="43.52736" lon="5.61071">
        <ele>688</ele>
        <time>2022-10-19T09:32:18.630Z</time>
      </trkpt>
      <trkpt lat="43.52736" lon="5.6107">
        <ele>687</ele>
        <time>2022-10-19T09:32:19.630Z</time>
      </trkpt>
      <trkpt lat="43.52737" lon="5.61069">
        <ele>687</ele>
        <time>2022-10-19T09:32:20.630Z</time>
      </trkpt>
      <trkpt lat="43.52737" lon="5.61068">
        <ele>687</ele>
        <time>2022-10-19T09:32:21.630Z</time>
      </trkpt>
      <trkpt lat="43.52737" lon="5.61067">
        <ele>687</ele>
        <time>2022-10-19T09:32:22.630Z</time>
      </trkpt>
      <trkpt lat="43.52737" lon="5.61066">
        <ele>687</ele>
        <time>2022-10-19T09:32:23.630Z</time>
      </trkpt>
      <trkpt lat="43.52737" lon="5.61064">
        <ele>687</ele>
        <time>2022-10-19T09:32:24.630Z</time>
      </trkpt>
      <trkpt lat="43.52737" lon="5.61063">
        <ele>687</ele>
        <time>2022-10-19T09:32:25.630Z</time>
      </trkpt>
      <trkpt lat="43.52737" lon="5.61062">
        <ele>687</ele>
        <time>2022-10-19T09:32:26.630Z</time>
      </trkpt>
      <trkpt lat="43.52738" lon="5.61062">
        <ele>687</ele>
        <time>2022-10-19T09:32:27.630Z</time>
      </trkpt>
      <trkpt lat="43.52738" lon="5.61061">
        <ele>687</ele>
        <time>2022-10-19T09:32:28.630Z</time>
      </trkpt>
      <trkpt lat="43.52738" lon="5.6106">
        <ele>687</ele>
        <time>2022-10-19T09:32:29.630Z</time>
      </trkpt>
      <trkpt lat="43.52738" lon="5.61059">
        <ele>686</ele>
        <time>2022-10-19T09:32:30.630Z</time>
      </trkpt>
      <trkpt lat="43.52738" lon="5.61058">
        <ele>686</ele>
        <time>2022-10-19T09:32:31.630Z</time>
      </trkpt>
      <trkpt lat="43.52738" lon="5.61058">
        <ele>686</ele>
        <time>2022-10-19T09:32:32.630Z</time>
      </trkpt>
      <trkpt lat="43.52738" lon="5.61058">
        <ele>686</ele>
        <time>2022-10-19T09:32:33.630Z</time>
      </trkpt>
      <trkpt lat="43.52738" lon="5.61058">
        <ele>686</ele>
        <time>2022-10-19T09:32:34.630Z</time>
      </trkpt>
      <trkpt lat="43.52738" lon="5.61058">
        <ele>686</ele>
        <time>2022-10-19T09:32:35.630Z</time>
      </trkpt>
      <trkpt lat="43.52738" lon="5.61058">
        <ele>686</ele>
        <time>2022-10-19T09:32:36.630Z</time>
      </trkpt>
      <trkpt lat="43.52738" lon="5.61058">
        <ele>686</ele>
        <time>2022-10-19T09:32:37.630Z</time>
      </trkpt>
      <trkpt lat="43.52738" lon="5.61058">
        <ele>686</ele>
        <time>2022-10-19T09:32:38.630Z</time>
      </trkpt>
      <trkpt lat="43.52738" lon="5.61058">
        <ele>686</ele>
        <time>2022-10-19T09:32:39.630Z</time>
      </trkpt>
      <trkpt lat="43.52738" lon="5.61058">
        <ele>686</ele>
        <time>2022-10-19T09:32:40.630Z</time>
      </trkpt>
      <trkpt lat="43.52738" lon="5.61058">
        <ele>686</ele>
        <time>2022-10-19T09:32:41.630Z</time>
      </trkpt>
      <trkpt lat="43.52738" lon="5.61058">
        <ele>686</ele>
        <time>2022-10-19T09:32:42.630Z</time>
      </trkpt>
      <trkpt lat="43.52738" lon="5.61058">
        <ele>686</ele>
        <time>2022-10-19T09:32:43.630Z</time>
      </trkpt>
      <trkpt lat="43.52738" lon="5.61058">
        <ele>686</ele>
        <time>2022-10-19T09:32:44.630Z</time>
      </trkpt>
      <trkpt lat="43.52738" lon="5.61058">
        <ele>686</ele>
        <time>2022-10-19T09:32:45.630Z</time>
      </trkpt>
      <trkpt lat="43.52738" lon="5.61058">
        <ele>686</ele>
        <time>2022-10-19T09:32:46.630Z</time>
      </trkpt>
      <trkpt lat="43.52738" lon="5.61058">
        <ele>686</ele>
        <time>2022-10-19T09:32:47.630Z</time>
      </trkpt>
      <trkpt lat="43.52738" lon="5.61058">
        <ele>686</ele>
        <time>2022-10-19T09:32:48.630Z</time>
      </trkpt>
      <trkpt lat="43.52738" lon="5.61058">
        <ele>686</ele>
        <time>2022-10-19T09:32:49.630Z</time>
      </trkpt>
      <trkpt lat="43.52738" lon="5.61058">
        <ele>686</ele>
        <time>2022-10-19T09:32:50.630Z</time>
      </trkpt>
      <trkpt lat="43.52738" lon="5.61057">
        <ele>686</ele>
        <time>2022-10-19T09:32:51.630Z</time>
      </trkpt>
      <trkpt lat="43.52738" lon="5.61057">
        <ele>686</ele>
        <time>2022-10-19T09:32:52.630Z</time>
      </trkpt>
      <trkpt lat="43.52738" lon="5.61057">
        <ele>686</ele>
        <time>2022-10-19T09:32:53.630Z</time>
      </trkpt>
      <trkpt lat="43.52738" lon="5.61057">
        <ele>686</ele>
        <time>2022-10-19T09:32:54.630Z</time>
      </trkpt>
      <trkpt lat="43.52738" lon="5.61057">
        <ele>686</ele>
        <time>2022-10-19T09:32:55.630Z</time>
      </trkpt>
      <trkpt lat="43.52738" lon="5.61058">
        <ele>686</ele>
        <time>2022-10-19T09:32:56.630Z</time>
      </trkpt>
      <trkpt lat="43.52738" lon="5.61057">
        <ele>686</ele>
        <time>2022-10-19T09:32:57.630Z</time>
      </trkpt>
      <trkpt lat="43.52738" lon="5.61057">
        <ele>686</ele>
        <time>2022-10-19T09:32:58.630Z</time>
      </trkpt>
      <trkpt lat="43.52737" lon="5.61055">
        <ele>686</ele>
        <time>2022-10-19T09:32:59.630Z</time>
      </trkpt>
      <trkpt lat="43.52738" lon="5.61054">
        <ele>686</ele>
        <time>2022-10-19T09:33:00.630Z</time>
      </trkpt>
      <trkpt lat="43.52738" lon="5.61053">
        <ele>686</ele>
        <time>2022-10-19T09:33:01.630Z</time>
      </trkpt>
      <trkpt lat="43.52738" lon="5.61052">
        <ele>685</ele>
        <time>2022-10-19T09:33:02.630Z</time>
      </trkpt>
      <trkpt lat="43.52738" lon="5.61051">
        <ele>685</ele>
        <time>2022-10-19T09:33:03.630Z</time>
      </trkpt>
      <trkpt lat="43.52738" lon="5.6105">
        <ele>685</ele>
        <time>2022-10-19T09:33:04.630Z</time>
      </trkpt>
      <trkpt lat="43.52738" lon="5.61049">
        <ele>685</ele>
        <time>2022-10-19T09:33:05.630Z</time>
      </trkpt>
      <trkpt lat="43.52739" lon="5.61048">
        <ele>685</ele>
        <time>2022-10-19T09:33:06.630Z</time>
      </trkpt>
      <trkpt lat="43.52739" lon="5.61048">
        <ele>685</ele>
        <time>2022-10-19T09:33:07.630Z</time>
      </trkpt>
      <trkpt lat="43.52739" lon="5.61047">
        <ele>685</ele>
        <time>2022-10-19T09:33:08.630Z</time>
      </trkpt>
      <trkpt lat="43.52739" lon="5.61046">
        <ele>685</ele>
        <time>2022-10-19T09:33:09.630Z</time>
      </trkpt>
      <trkpt lat="43.52739" lon="5.61046">
        <ele>685</ele>
        <time>2022-10-19T09:33:10.630Z</time>
      </trkpt>
      <trkpt lat="43.52739" lon="5.61046">
        <ele>685</ele>
        <time>2022-10-19T09:33:11.630Z</time>
      </trkpt>
      <trkpt lat="43.52739" lon="5.61046">
        <ele>685</ele>
        <time>2022-10-19T09:33:12.630Z</time>
      </trkpt>
      <trkpt lat="43.52739" lon="5.61046">
        <ele>685</ele>
        <time>2022-10-19T09:33:13.630Z</time>
      </trkpt>
      <trkpt lat="43.52739" lon="5.61046">
        <ele>685</ele>
        <time>2022-10-19T09:33:14.630Z</time>
      </trkpt>
      <trkpt lat="43.52739" lon="5.61046">
        <ele>685</ele>
        <time>2022-10-19T09:33:15.630Z</time>
      </trkpt>
      <trkpt lat="43.5274" lon="5.61045">
        <ele>685</ele>
        <time>2022-10-19T09:33:16.630Z</time>
      </trkpt>
      <trkpt lat="43.5274" lon="5.61045">
        <ele>685</ele>
        <time>2022-10-19T09:33:17.630Z</time>
      </trkpt>
      <trkpt lat="43.5274" lon="5.61044">
        <ele>685</ele>
        <time>2022-10-19T09:33:18.630Z</time>
      </trkpt>
      <trkpt lat="43.52741" lon="5.61043">
        <ele>685</ele>
        <time>2022-10-19T09:33:19.630Z</time>
      </trkpt>
      <trkpt lat="43.52741" lon="5.61043">
        <ele>685</ele>
        <time>2022-10-19T09:33:20.630Z</time>
      </trkpt>
      <trkpt lat="43.52741" lon="5.61042">
        <ele>685</ele>
        <time>2022-10-19T09:33:21.630Z</time>
      </trkpt>
      <trkpt lat="43.52742" lon="5.61041">
        <ele>685</ele>
        <time>2022-10-19T09:33:22.630Z</time>
      </trkpt>
      <trkpt lat="43.52742" lon="5.6104">
        <ele>684</ele>
        <time>2022-10-19T09:33:23.630Z</time>
      </trkpt>
      <trkpt lat="43.52742" lon="5.61039">
        <ele>684</ele>
        <time>2022-10-19T09:33:24.630Z</time>
      </trkpt>
      <trkpt lat="43.52743" lon="5.61037">
        <ele>684</ele>
        <time>2022-10-19T09:33:25.630Z</time>
      </trkpt>
      <trkpt lat="43.52744" lon="5.61037">
        <ele>684</ele>
        <time>2022-10-19T09:33:26.630Z</time>
      </trkpt>
      <trkpt lat="43.52745" lon="5.61036">
        <ele>684</ele>
        <time>2022-10-19T09:33:27.630Z</time>
      </trkpt>
      <trkpt lat="43.52745" lon="5.61036">
        <ele>684</ele>
        <time>2022-10-19T09:33:28.630Z</time>
      </trkpt>
      <trkpt lat="43.52746" lon="5.61035">
        <ele>684</ele>
        <time>2022-10-19T09:33:29.630Z</time>
      </trkpt>
      <trkpt lat="43.52747" lon="5.61034">
        <ele>684</ele>
        <time>2022-10-19T09:33:30.630Z</time>
      </trkpt>
      <trkpt lat="43.52748" lon="5.61034">
        <ele>684</ele>
        <time>2022-10-19T09:33:31.630Z</time>
      </trkpt>
      <trkpt lat="43.52748" lon="5.61033">
        <ele>684</ele>
        <time>2022-10-19T09:33:32.630Z</time>
      </trkpt>
      <trkpt lat="43.52749" lon="5.61032">
        <ele>683</ele>
        <time>2022-10-19T09:33:33.630Z</time>
      </trkpt>
      <trkpt lat="43.5275" lon="5.61031">
        <ele>683</ele>
        <time>2022-10-19T09:33:34.630Z</time>
      </trkpt>
      <trkpt lat="43.5275" lon="5.6103">
        <ele>683</ele>
        <time>2022-10-19T09:33:35.630Z</time>
      </trkpt>
      <trkpt lat="43.52751" lon="5.61029">
        <ele>683</ele>
        <time>2022-10-19T09:33:36.630Z</time>
      </trkpt>
      <trkpt lat="43.52751" lon="5.61028">
        <ele>683</ele>
        <time>2022-10-19T09:33:37.630Z</time>
      </trkpt>
      <trkpt lat="43.52752" lon="5.61027">
        <ele>683</ele>
        <time>2022-10-19T09:33:38.630Z</time>
      </trkpt>
      <trkpt lat="43.52752" lon="5.61026">
        <ele>683</ele>
        <time>2022-10-19T09:33:39.630Z</time>
      </trkpt>
      <trkpt lat="43.52753" lon="5.61024">
        <ele>683</ele>
        <time>2022-10-19T09:33:40.630Z</time>
      </trkpt>
      <trkpt lat="43.52754" lon="5.61023">
        <ele>683</ele>
        <time>2022-10-19T09:33:41.630Z</time>
      </trkpt>
      <trkpt lat="43.52755" lon="5.61023">
        <ele>683</ele>
        <time>2022-10-19T09:33:42.630Z</time>
      </trkpt>
      <trkpt lat="43.52755" lon="5.61022">
        <ele>683</ele>
        <time>2022-10-19T09:33:43.630Z</time>
      </trkpt>
      <trkpt lat="43.52756" lon="5.61021">
        <ele>683</ele>
        <time>2022-10-19T09:33:44.630Z</time>
      </trkpt>
      <trkpt lat="43.52757" lon="5.6102">
        <ele>683</ele>
        <time>2022-10-19T09:33:45.630Z</time>
      </trkpt>
      <trkpt lat="43.52758" lon="5.6102">
        <ele>683</ele>
        <time>2022-10-19T09:33:46.630Z</time>
      </trkpt>
      <trkpt lat="43.52759" lon="5.6102">
        <ele>683</ele>
        <time>2022-10-19T09:33:47.630Z</time>
      </trkpt>
      <trkpt lat="43.5276" lon="5.61019">
        <ele>683</ele>
        <time>2022-10-19T09:33:48.630Z</time>
      </trkpt>
      <trkpt lat="43.5276" lon="5.61019">
        <ele>683</ele>
        <time>2022-10-19T09:33:49.630Z</time>
      </trkpt>
      <trkpt lat="43.52761" lon="5.61018">
        <ele>683</ele>
        <time>2022-10-19T09:33:50.630Z</time>
      </trkpt>
      <trkpt lat="43.52762" lon="5.61017">
        <ele>683</ele>
        <time>2022-10-19T09:33:51.630Z</time>
      </trkpt>
      <trkpt lat="43.52763" lon="5.61016">
        <ele>683</ele>
        <time>2022-10-19T09:33:52.630Z</time>
      </trkpt>
      <trkpt lat="43.52763" lon="5.61015">
        <ele>683</ele>
        <time>2022-10-19T09:33:53.630Z</time>
      </trkpt>
      <trkpt lat="43.52763" lon="5.61014">
        <ele>683</ele>
        <time>2022-10-19T09:33:54.630Z</time>
      </trkpt>
      <trkpt lat="43.52764" lon="5.61012">
        <ele>683</ele>
        <time>2022-10-19T09:33:55.630Z</time>
      </trkpt>
      <trkpt lat="43.52765" lon="5.61011">
        <ele>683</ele>
        <time>2022-10-19T09:33:56.630Z</time>
      </trkpt>
      <trkpt lat="43.52766" lon="5.6101">
        <ele>683</ele>
        <time>2022-10-19T09:33:57.630Z</time>
      </trkpt>
      <trkpt lat="43.52766" lon="5.61009">
        <ele>683</ele>
        <time>2022-10-19T09:33:58.630Z</time>
      </trkpt>
      <trkpt lat="43.52767" lon="5.61008">
        <ele>683</ele>
        <time>2022-10-19T09:33:59.630Z</time>
      </trkpt>
      <trkpt lat="43.52768" lon="5.61007">
        <ele>683</ele>
        <time>2022-10-19T09:34:00.630Z</time>
      </trkpt>
      <trkpt lat="43.52768" lon="5.61005">
        <ele>683</ele>
        <time>2022-10-19T09:34:01.630Z</time>
      </trkpt>
      <trkpt lat="43.52769" lon="5.61004">
        <ele>682</ele>
        <time>2022-10-19T09:34:02.630Z</time>
      </trkpt>
      <trkpt lat="43.5277" lon="5.61003">
        <ele>682</ele>
        <time>2022-10-19T09:34:03.630Z</time>
      </trkpt>
      <trkpt lat="43.5277" lon="5.61002">
        <ele>682</ele>
        <time>2022-10-19T09:34:04.630Z</time>
      </trkpt>
      <trkpt lat="43.52771" lon="5.61001">
        <ele>682</ele>
        <time>2022-10-19T09:34:05.630Z</time>
      </trkpt>
      <trkpt lat="43.52772" lon="5.60999">
        <ele>683</ele>
        <time>2022-10-19T09:34:06.630Z</time>
      </trkpt>
      <trkpt lat="43.52773" lon="5.60998">
        <ele>683</ele>
        <time>2022-10-19T09:34:07.630Z</time>
      </trkpt>
      <trkpt lat="43.52773" lon="5.60997">
        <ele>683</ele>
        <time>2022-10-19T09:34:08.630Z</time>
      </trkpt>
      <trkpt lat="43.52773" lon="5.60995">
        <ele>683</ele>
        <time>2022-10-19T09:34:09.630Z</time>
      </trkpt>
      <trkpt lat="43.52774" lon="5.60994">
        <ele>683</ele>
        <time>2022-10-19T09:34:10.630Z</time>
      </trkpt>
      <trkpt lat="43.52774" lon="5.60993">
        <ele>683</ele>
        <time>2022-10-19T09:34:11.630Z</time>
      </trkpt>
      <trkpt lat="43.52775" lon="5.60992">
        <ele>683</ele>
        <time>2022-10-19T09:34:12.630Z</time>
      </trkpt>
      <trkpt lat="43.52775" lon="5.60991">
        <ele>683</ele>
        <time>2022-10-19T09:34:13.630Z</time>
      </trkpt>
      <trkpt lat="43.52776" lon="5.6099">
        <ele>683</ele>
        <time>2022-10-19T09:34:14.630Z</time>
      </trkpt>
      <trkpt lat="43.52776" lon="5.60988">
        <ele>683</ele>
        <time>2022-10-19T09:34:15.630Z</time>
      </trkpt>
      <trkpt lat="43.52776" lon="5.60988">
        <ele>683</ele>
        <time>2022-10-19T09:34:16.630Z</time>
      </trkpt>
      <trkpt lat="43.52776" lon="5.60987">
        <ele>683</ele>
        <time>2022-10-19T09:34:17.630Z</time>
      </trkpt>
      <trkpt lat="43.52776" lon="5.60986">
        <ele>683</ele>
        <time>2022-10-19T09:34:18.630Z</time>
      </trkpt>
      <trkpt lat="43.52776" lon="5.60985">
        <ele>683</ele>
        <time>2022-10-19T09:34:19.630Z</time>
      </trkpt>
      <trkpt lat="43.52776" lon="5.60984">
        <ele>683</ele>
        <time>2022-10-19T09:34:20.630Z</time>
      </trkpt>
      <trkpt lat="43.52777" lon="5.60982">
        <ele>683</ele>
        <time>2022-10-19T09:34:21.630Z</time>
      </trkpt>
      <trkpt lat="43.52778" lon="5.60981">
        <ele>683</ele>
        <time>2022-10-19T09:34:22.630Z</time>
      </trkpt>
      <trkpt lat="43.52779" lon="5.6098">
        <ele>683</ele>
        <time>2022-10-19T09:34:23.630Z</time>
      </trkpt>
      <trkpt lat="43.52779" lon="5.60979">
        <ele>683</ele>
        <time>2022-10-19T09:34:24.630Z</time>
      </trkpt>
      <trkpt lat="43.5278" lon="5.60978">
        <ele>683</ele>
        <time>2022-10-19T09:34:25.630Z</time>
      </trkpt>
      <trkpt lat="43.52781" lon="5.60977">
        <ele>683</ele>
        <time>2022-10-19T09:34:26.630Z</time>
      </trkpt>
      <trkpt lat="43.52782" lon="5.60976">
        <ele>683</ele>
        <time>2022-10-19T09:34:27.630Z</time>
      </trkpt>
      <trkpt lat="43.52782" lon="5.60975">
        <ele>683</ele>
        <time>2022-10-19T09:34:28.630Z</time>
      </trkpt>
      <trkpt lat="43.52783" lon="5.60973">
        <ele>683</ele>
        <time>2022-10-19T09:34:29.630Z</time>
      </trkpt>
      <trkpt lat="43.52783" lon="5.60972">
        <ele>683</ele>
        <time>2022-10-19T09:34:30.630Z</time>
      </trkpt>
      <trkpt lat="43.52783" lon="5.60972">
        <ele>683</ele>
        <time>2022-10-19T09:34:31.630Z</time>
      </trkpt>
      <trkpt lat="43.52783" lon="5.60971">
        <ele>683</ele>
        <time>2022-10-19T09:34:32.630Z</time>
      </trkpt>
      <trkpt lat="43.52782" lon="5.6097">
        <ele>682</ele>
        <time>2022-10-19T09:34:33.630Z</time>
      </trkpt>
      <trkpt lat="43.52781" lon="5.60969">
        <ele>682</ele>
        <time>2022-10-19T09:34:34.630Z</time>
      </trkpt>
      <trkpt lat="43.52781" lon="5.60967">
        <ele>682</ele>
        <time>2022-10-19T09:34:35.630Z</time>
      </trkpt>
      <trkpt lat="43.52781" lon="5.60966">
        <ele>682</ele>
        <time>2022-10-19T09:34:36.630Z</time>
      </trkpt>
      <trkpt lat="43.52781" lon="5.60965">
        <ele>682</ele>
        <time>2022-10-19T09:34:37.630Z</time>
      </trkpt>
      <trkpt lat="43.52781" lon="5.60964">
        <ele>682</ele>
        <time>2022-10-19T09:34:38.630Z</time>
      </trkpt>
      <trkpt lat="43.52781" lon="5.60962">
        <ele>682</ele>
        <time>2022-10-19T09:34:39.630Z</time>
      </trkpt>
      <trkpt lat="43.52781" lon="5.60961">
        <ele>682</ele>
        <time>2022-10-19T09:34:40.630Z</time>
      </trkpt>
      <trkpt lat="43.5278" lon="5.6096">
        <ele>682</ele>
        <time>2022-10-19T09:34:41.630Z</time>
      </trkpt>
      <trkpt lat="43.5278" lon="5.60959">
        <ele>682</ele>
        <time>2022-10-19T09:34:42.630Z</time>
      </trkpt>
      <trkpt lat="43.5278" lon="5.60959">
        <ele>683</ele>
        <time>2022-10-19T09:34:43.630Z</time>
      </trkpt>
      <trkpt lat="43.5278" lon="5.60958">
        <ele>683</ele>
        <time>2022-10-19T09:34:44.630Z</time>
      </trkpt>
      <trkpt lat="43.5278" lon="5.60958">
        <ele>683</ele>
        <time>2022-10-19T09:34:45.630Z</time>
      </trkpt>
      <trkpt lat="43.52779" lon="5.60957">
        <ele>683</ele>
        <time>2022-10-19T09:34:46.630Z</time>
      </trkpt>
      <trkpt lat="43.52779" lon="5.60957">
        <ele>683</ele>
        <time>2022-10-19T09:34:47.630Z</time>
      </trkpt>
      <trkpt lat="43.52779" lon="5.60956">
        <ele>683</ele>
        <time>2022-10-19T09:34:48.630Z</time>
      </trkpt>
      <trkpt lat="43.52779" lon="5.60955">
        <ele>683</ele>
        <time>2022-10-19T09:34:49.630Z</time>
      </trkpt>
      <trkpt lat="43.52779" lon="5.60954">
        <ele>683</ele>
        <time>2022-10-19T09:34:50.630Z</time>
      </trkpt>
      <trkpt lat="43.52779" lon="5.60954">
        <ele>684</ele>
        <time>2022-10-19T09:34:51.630Z</time>
      </trkpt>
      <trkpt lat="43.52779" lon="5.60953">
        <ele>684</ele>
        <time>2022-10-19T09:34:52.630Z</time>
      </trkpt>
      <trkpt lat="43.52779" lon="5.60953">
        <ele>684</ele>
        <time>2022-10-19T09:34:53.630Z</time>
      </trkpt>
      <trkpt lat="43.52779" lon="5.60952">
        <ele>684</ele>
        <time>2022-10-19T09:34:54.630Z</time>
      </trkpt>
      <trkpt lat="43.52778" lon="5.60951">
        <ele>684</ele>
        <time>2022-10-19T09:34:55.630Z</time>
      </trkpt>
      <trkpt lat="43.52778" lon="5.60951">
        <ele>684</ele>
        <time>2022-10-19T09:34:56.630Z</time>
      </trkpt>
      <trkpt lat="43.52778" lon="5.6095">
        <ele>684</ele>
        <time>2022-10-19T09:34:57.630Z</time>
      </trkpt>
      <trkpt lat="43.52778" lon="5.6095">
        <ele>684</ele>
        <time>2022-10-19T09:34:58.630Z</time>
      </trkpt>
      <trkpt lat="43.52778" lon="5.60949">
        <ele>685</ele>
        <time>2022-10-19T09:34:59.630Z</time>
      </trkpt>
      <trkpt lat="43.52777" lon="5.60949">
        <ele>685</ele>
        <time>2022-10-19T09:35:00.630Z</time>
      </trkpt>
      <trkpt lat="43.52777" lon="5.60948">
        <ele>685</ele>
        <time>2022-10-19T09:35:01.630Z</time>
      </trkpt>
      <trkpt lat="43.52777" lon="5.60947">
        <ele>685</ele>
        <time>2022-10-19T09:35:02.630Z</time>
      </trkpt>
      <trkpt lat="43.52777" lon="5.60947">
        <ele>685</ele>
        <time>2022-10-19T09:35:03.630Z</time>
      </trkpt>
      <trkpt lat="43.52777" lon="5.60946">
        <ele>685</ele>
        <time>2022-10-19T09:35:04.630Z</time>
      </trkpt>
      <trkpt lat="43.52777" lon="5.60946">
        <ele>685</ele>
        <time>2022-10-19T09:35:05.630Z</time>
      </trkpt>
      <trkpt lat="43.52777" lon="5.60945">
        <ele>686</ele>
        <time>2022-10-19T09:35:06.630Z</time>
      </trkpt>
      <trkpt lat="43.52776" lon="5.60945">
        <ele>686</ele>
        <time>2022-10-19T09:35:07.630Z</time>
      </trkpt>
      <trkpt lat="43.52776" lon="5.60944">
        <ele>686</ele>
        <time>2022-10-19T09:35:08.630Z</time>
      </trkpt>
      <trkpt lat="43.52776" lon="5.60944">
        <ele>686</ele>
        <time>2022-10-19T09:35:09.630Z</time>
      </trkpt>
      <trkpt lat="43.52776" lon="5.60944">
        <ele>686</ele>
        <time>2022-10-19T09:35:10.630Z</time>
      </trkpt>
      <trkpt lat="43.52776" lon="5.60944">
        <ele>686</ele>
        <time>2022-10-19T09:35:11.630Z</time>
      </trkpt>
      <trkpt lat="43.52776" lon="5.60943">
        <ele>686</ele>
        <time>2022-10-19T09:35:12.630Z</time>
      </trkpt>
      <trkpt lat="43.52775" lon="5.60943">
        <ele>686</ele>
        <time>2022-10-19T09:35:13.630Z</time>
      </trkpt>
      <trkpt lat="43.52775" lon="5.60942">
        <ele>686</ele>
        <time>2022-10-19T09:35:14.630Z</time>
      </trkpt>
      <trkpt lat="43.52775" lon="5.60942">
        <ele>687</ele>
        <time>2022-10-19T09:35:15.630Z</time>
      </trkpt>
      <trkpt lat="43.52775" lon="5.60942">
        <ele>687</ele>
        <time>2022-10-19T09:35:16.630Z</time>
      </trkpt>
      <trkpt lat="43.52774" lon="5.60941">
        <ele>687</ele>
        <time>2022-10-19T09:35:17.630Z</time>
      </trkpt>
      <trkpt lat="43.52774" lon="5.60941">
        <ele>687</ele>
        <time>2022-10-19T09:35:18.630Z</time>
      </trkpt>
      <trkpt lat="43.52773" lon="5.6094">
        <ele>687</ele>
        <time>2022-10-19T09:35:19.630Z</time>
      </trkpt>
      <trkpt lat="43.52772" lon="5.6094">
        <ele>688</ele>
        <time>2022-10-19T09:35:20.630Z</time>
      </trkpt>
      <trkpt lat="43.52772" lon="5.60939">
        <ele>688</ele>
        <time>2022-10-19T09:35:21.630Z</time>
      </trkpt>
      <trkpt lat="43.52771" lon="5.60938">
        <ele>688</ele>
        <time>2022-10-19T09:35:22.630Z</time>
      </trkpt>
      <trkpt lat="43.52771" lon="5.60937">
        <ele>688</ele>
        <time>2022-10-19T09:35:23.630Z</time>
      </trkpt>
      <trkpt lat="43.5277" lon="5.60937">
        <ele>689</ele>
        <time>2022-10-19T09:35:24.630Z</time>
      </trkpt>
      <trkpt lat="43.5277" lon="5.60936">
        <ele>689</ele>
        <time>2022-10-19T09:35:25.630Z</time>
      </trkpt>
      <trkpt lat="43.52769" lon="5.60936">
        <ele>689</ele>
        <time>2022-10-19T09:35:26.630Z</time>
      </trkpt>
      <trkpt lat="43.52769" lon="5.60936">
        <ele>689</ele>
        <time>2022-10-19T09:35:27.630Z</time>
      </trkpt>
      <trkpt lat="43.52769" lon="5.60935">
        <ele>689</ele>
        <time>2022-10-19T09:35:28.630Z</time>
      </trkpt>
      <trkpt lat="43.52768" lon="5.60935">
        <ele>689</ele>
        <time>2022-10-19T09:35:29.630Z</time>
      </trkpt>
      <trkpt lat="43.52768" lon="5.60934">
        <ele>689</ele>
        <time>2022-10-19T09:35:30.630Z</time>
      </trkpt>
      <trkpt lat="43.52768" lon="5.60934">
        <ele>690</ele>
        <time>2022-10-19T09:35:31.630Z</time>
      </trkpt>
      <trkpt lat="43.52767" lon="5.60933">
        <ele>690</ele>
        <time>2022-10-19T09:35:32.630Z</time>
      </trkpt>
      <trkpt lat="43.52767" lon="5.60933">
        <ele>690</ele>
        <time>2022-10-19T09:35:33.630Z</time>
      </trkpt>
      <trkpt lat="43.52767" lon="5.60932">
        <ele>690</ele>
        <time>2022-10-19T09:35:34.630Z</time>
      </trkpt>
      <trkpt lat="43.52768" lon="5.60931">
        <ele>690</ele>
        <time>2022-10-19T09:35:35.630Z</time>
      </trkpt>
      <trkpt lat="43.52768" lon="5.60931">
        <ele>690</ele>
        <time>2022-10-19T09:35:36.630Z</time>
      </trkpt>
      <trkpt lat="43.52767" lon="5.6093">
        <ele>690</ele>
        <time>2022-10-19T09:35:37.630Z</time>
      </trkpt>
      <trkpt lat="43.52768" lon="5.60929">
        <ele>691</ele>
        <time>2022-10-19T09:35:38.630Z</time>
      </trkpt>
      <trkpt lat="43.52768" lon="5.60929">
        <ele>691</ele>
        <time>2022-10-19T09:35:39.630Z</time>
      </trkpt>
      <trkpt lat="43.52768" lon="5.60928">
        <ele>691</ele>
        <time>2022-10-19T09:35:40.630Z</time>
      </trkpt>
      <trkpt lat="43.52768" lon="5.60928">
        <ele>691</ele>
        <time>2022-10-19T09:35:41.630Z</time>
      </trkpt>
      <trkpt lat="43.52768" lon="5.60928">
        <ele>691</ele>
        <time>2022-10-19T09:35:42.630Z</time>
      </trkpt>
      <trkpt lat="43.52768" lon="5.60927">
        <ele>691</ele>
        <time>2022-10-19T09:35:43.630Z</time>
      </trkpt>
      <trkpt lat="43.52769" lon="5.60927">
        <ele>691</ele>
        <time>2022-10-19T09:35:44.630Z</time>
      </trkpt>
      <trkpt lat="43.52769" lon="5.60926">
        <ele>691</ele>
        <time>2022-10-19T09:35:45.630Z</time>
      </trkpt>
      <trkpt lat="43.52769" lon="5.60926">
        <ele>691</ele>
        <time>2022-10-19T09:35:46.630Z</time>
      </trkpt>
      <trkpt lat="43.52769" lon="5.60925">
        <ele>692</ele>
        <time>2022-10-19T09:35:47.630Z</time>
      </trkpt>
      <trkpt lat="43.52769" lon="5.60925">
        <ele>692</ele>
        <time>2022-10-19T09:35:48.630Z</time>
      </trkpt>
      <trkpt lat="43.52769" lon="5.60924">
        <ele>692</ele>
        <time>2022-10-19T09:35:49.630Z</time>
      </trkpt>
      <trkpt lat="43.52769" lon="5.60924">
        <ele>692</ele>
        <time>2022-10-19T09:35:50.630Z</time>
      </trkpt>
      <trkpt lat="43.52769" lon="5.60923">
        <ele>692</ele>
        <time>2022-10-19T09:35:51.630Z</time>
      </trkpt>
      <trkpt lat="43.52769" lon="5.60923">
        <ele>692</ele>
        <time>2022-10-19T09:35:52.630Z</time>
      </trkpt>
      <trkpt lat="43.52769" lon="5.60922">
        <ele>692</ele>
        <time>2022-10-19T09:35:53.630Z</time>
      </trkpt>
      <trkpt lat="43.52768" lon="5.60921">
        <ele>692</ele>
        <time>2022-10-19T09:35:54.630Z</time>
      </trkpt>
      <trkpt lat="43.52768" lon="5.60921">
        <ele>692</ele>
        <time>2022-10-19T09:35:55.630Z</time>
      </trkpt>
      <trkpt lat="43.52767" lon="5.60921">
        <ele>692</ele>
        <time>2022-10-19T09:35:56.630Z</time>
      </trkpt>
      <trkpt lat="43.52767" lon="5.6092">
        <ele>692</ele>
        <time>2022-10-19T09:35:57.630Z</time>
      </trkpt>
      <trkpt lat="43.52766" lon="5.60919">
        <ele>693</ele>
        <time>2022-10-19T09:35:58.630Z</time>
      </trkpt>
      <trkpt lat="43.52766" lon="5.60918">
        <ele>693</ele>
        <time>2022-10-19T09:35:59.630Z</time>
      </trkpt>
      <trkpt lat="43.52766" lon="5.60917">
        <ele>693</ele>
        <time>2022-10-19T09:36:00.630Z</time>
      </trkpt>
      <trkpt lat="43.52766" lon="5.60917">
        <ele>693</ele>
        <time>2022-10-19T09:36:01.630Z</time>
      </trkpt>
      <trkpt lat="43.52766" lon="5.60916">
        <ele>693</ele>
        <time>2022-10-19T09:36:02.630Z</time>
      </trkpt>
      <trkpt lat="43.52765" lon="5.60916">
        <ele>693</ele>
        <time>2022-10-19T09:36:03.630Z</time>
      </trkpt>
      <trkpt lat="43.52765" lon="5.60915">
        <ele>693</ele>
        <time>2022-10-19T09:36:04.630Z</time>
      </trkpt>
      <trkpt lat="43.52765" lon="5.60915">
        <ele>693</ele>
        <time>2022-10-19T09:36:05.630Z</time>
      </trkpt>
      <trkpt lat="43.52764" lon="5.60914">
        <ele>694</ele>
        <time>2022-10-19T09:36:06.630Z</time>
      </trkpt>
      <trkpt lat="43.52764" lon="5.60914">
        <ele>694</ele>
        <time>2022-10-19T09:36:07.630Z</time>
      </trkpt>
      <trkpt lat="43.52764" lon="5.60913">
        <ele>694</ele>
        <time>2022-10-19T09:36:08.630Z</time>
      </trkpt>
      <trkpt lat="43.52763" lon="5.60912">
        <ele>694</ele>
        <time>2022-10-19T09:36:09.630Z</time>
      </trkpt>
      <trkpt lat="43.52764" lon="5.60911">
        <ele>694</ele>
        <time>2022-10-19T09:36:10.630Z</time>
      </trkpt>
      <trkpt lat="43.52763" lon="5.60911">
        <ele>694</ele>
        <time>2022-10-19T09:36:11.630Z</time>
      </trkpt>
      <trkpt lat="43.52763" lon="5.6091">
        <ele>695</ele>
        <time>2022-10-19T09:36:12.630Z</time>
      </trkpt>
      <trkpt lat="43.52763" lon="5.6091">
        <ele>695</ele>
        <time>2022-10-19T09:36:13.630Z</time>
      </trkpt>
      <trkpt lat="43.52763" lon="5.60909">
        <ele>695</ele>
        <time>2022-10-19T09:36:14.630Z</time>
      </trkpt>
      <trkpt lat="43.52763" lon="5.60909">
        <ele>695</ele>
        <time>2022-10-19T09:36:15.630Z</time>
      </trkpt>
      <trkpt lat="43.52763" lon="5.60909">
        <ele>695</ele>
        <time>2022-10-19T09:36:16.630Z</time>
      </trkpt>
      <trkpt lat="43.52763" lon="5.60908">
        <ele>695</ele>
        <time>2022-10-19T09:36:17.630Z</time>
      </trkpt>
      <trkpt lat="43.52763" lon="5.60908">
        <ele>695</ele>
        <time>2022-10-19T09:36:18.630Z</time>
      </trkpt>
      <trkpt lat="43.52763" lon="5.60907">
        <ele>695</ele>
        <time>2022-10-19T09:36:19.630Z</time>
      </trkpt>
      <trkpt lat="43.52762" lon="5.60907">
        <ele>696</ele>
        <time>2022-10-19T09:36:20.630Z</time>
      </trkpt>
      <trkpt lat="43.52762" lon="5.60906">
        <ele>696</ele>
        <time>2022-10-19T09:36:21.630Z</time>
      </trkpt>
      <trkpt lat="43.52761" lon="5.60906">
        <ele>696</ele>
        <time>2022-10-19T09:36:22.630Z</time>
      </trkpt>
      <trkpt lat="43.52761" lon="5.60905">
        <ele>696</ele>
        <time>2022-10-19T09:36:23.630Z</time>
      </trkpt>
      <trkpt lat="43.52761" lon="5.60905">
        <ele>696</ele>
        <time>2022-10-19T09:36:24.630Z</time>
      </trkpt>
      <trkpt lat="43.52761" lon="5.60905">
        <ele>697</ele>
        <time>2022-10-19T09:36:25.630Z</time>
      </trkpt>
      <trkpt lat="43.52761" lon="5.60905">
        <ele>697</ele>
        <time>2022-10-19T09:36:26.630Z</time>
      </trkpt>
      <trkpt lat="43.52761" lon="5.60906">
        <ele>697</ele>
        <time>2022-10-19T09:36:27.630Z</time>
      </trkpt>
      <trkpt lat="43.52761" lon="5.60906">
        <ele>697</ele>
        <time>2022-10-19T09:36:28.630Z</time>
      </trkpt>
      <trkpt lat="43.52761" lon="5.60906">
        <ele>697</ele>
        <time>2022-10-19T09:36:29.630Z</time>
      </trkpt>
      <trkpt lat="43.52761" lon="5.60906">
        <ele>697</ele>
        <time>2022-10-19T09:36:30.630Z</time>
      </trkpt>
      <trkpt lat="43.52761" lon="5.60906">
        <ele>697</ele>
        <time>2022-10-19T09:36:31.630Z</time>
      </trkpt>
      <trkpt lat="43.52761" lon="5.60906">
        <ele>698</ele>
        <time>2022-10-19T09:36:32.630Z</time>
      </trkpt>
      <trkpt lat="43.52761" lon="5.60906">
        <ele>698</ele>
        <time>2022-10-19T09:36:33.630Z</time>
      </trkpt>
      <trkpt lat="43.52761" lon="5.60906">
        <ele>698</ele>
        <time>2022-10-19T09:36:34.630Z</time>
      </trkpt>
      <trkpt lat="43.52761" lon="5.60906">
        <ele>698</ele>
        <time>2022-10-19T09:36:35.630Z</time>
      </trkpt>
      <trkpt lat="43.52761" lon="5.60906">
        <ele>698</ele>
        <time>2022-10-19T09:36:36.630Z</time>
      </trkpt>
      <trkpt lat="43.52761" lon="5.60906">
        <ele>698</ele>
        <time>2022-10-19T09:36:37.630Z</time>
      </trkpt>
      <trkpt lat="43.52761" lon="5.60906">
        <ele>698</ele>
        <time>2022-10-19T09:36:38.630Z</time>
      </trkpt>
      <trkpt lat="43.5276" lon="5.60906">
        <ele>698</ele>
        <time>2022-10-19T09:36:39.630Z</time>
      </trkpt>
      <trkpt lat="43.5276" lon="5.60906">
        <ele>698</ele>
        <time>2022-10-19T09:36:40.630Z</time>
      </trkpt>
      <trkpt lat="43.5276" lon="5.60906">
        <ele>699</ele>
        <time>2022-10-19T09:36:41.630Z</time>
      </trkpt>
      <trkpt lat="43.5276" lon="5.60906">
        <ele>699</ele>
        <time>2022-10-19T09:36:42.630Z</time>
      </trkpt>
      <trkpt lat="43.5276" lon="5.60906">
        <ele>699</ele>
        <time>2022-10-19T09:36:43.630Z</time>
      </trkpt>
      <trkpt lat="43.52759" lon="5.60906">
        <ele>699</ele>
        <time>2022-10-19T09:36:44.630Z</time>
      </trkpt>
      <trkpt lat="43.52758" lon="5.60905">
        <ele>699</ele>
        <time>2022-10-19T09:36:45.630Z</time>
      </trkpt>
      <trkpt lat="43.52758" lon="5.60905">
        <ele>699</ele>
        <time>2022-10-19T09:36:46.630Z</time>
      </trkpt>
      <trkpt lat="43.52757" lon="5.60904">
        <ele>699</ele>
        <time>2022-10-19T09:36:47.630Z</time>
      </trkpt>
      <trkpt lat="43.52757" lon="5.60904">
        <ele>700</ele>
        <time>2022-10-19T09:36:48.630Z</time>
      </trkpt>
      <trkpt lat="43.52756" lon="5.60904">
        <ele>700</ele>
        <time>2022-10-19T09:36:49.630Z</time>
      </trkpt>
      <trkpt lat="43.52756" lon="5.60903">
        <ele>700</ele>
        <time>2022-10-19T09:36:50.630Z</time>
      </trkpt>
      <trkpt lat="43.52755" lon="5.60903">
        <ele>700</ele>
        <time>2022-10-19T09:36:51.630Z</time>
      </trkpt>
      <trkpt lat="43.52755" lon="5.60902">
        <ele>700</ele>
        <time>2022-10-19T09:36:52.630Z</time>
      </trkpt>
      <trkpt lat="43.52754" lon="5.60902">
        <ele>700</ele>
        <time>2022-10-19T09:36:53.630Z</time>
      </trkpt>
      <trkpt lat="43.52753" lon="5.60902">
        <ele>700</ele>
        <time>2022-10-19T09:36:54.630Z</time>
      </trkpt>
      <trkpt lat="43.52753" lon="5.60901">
        <ele>701</ele>
        <time>2022-10-19T09:36:55.630Z</time>
      </trkpt>
      <trkpt lat="43.52753" lon="5.609">
        <ele>701</ele>
        <time>2022-10-19T09:36:56.630Z</time>
      </trkpt>
      <trkpt lat="43.52752" lon="5.609">
        <ele>701</ele>
        <time>2022-10-19T09:36:57.630Z</time>
      </trkpt>
      <trkpt lat="43.52751" lon="5.609">
        <ele>701</ele>
        <time>2022-10-19T09:36:58.630Z</time>
      </trkpt>
      <trkpt lat="43.52751" lon="5.60899">
        <ele>701</ele>
        <time>2022-10-19T09:36:59.630Z</time>
      </trkpt>
      <trkpt lat="43.52751" lon="5.60899">
        <ele>701</ele>
        <time>2022-10-19T09:37:00.630Z</time>
      </trkpt>
      <trkpt lat="43.5275" lon="5.60898">
        <ele>701</ele>
        <time>2022-10-19T09:37:01.630Z</time>
      </trkpt>
      <trkpt lat="43.5275" lon="5.60897">
        <ele>701</ele>
        <time>2022-10-19T09:37:02.630Z</time>
      </trkpt>
      <trkpt lat="43.5275" lon="5.60897">
        <ele>701</ele>
        <time>2022-10-19T09:37:03.630Z</time>
      </trkpt>
      <trkpt lat="43.5275" lon="5.60896">
        <ele>702</ele>
        <time>2022-10-19T09:37:04.630Z</time>
      </trkpt>
      <trkpt lat="43.5275" lon="5.60895">
        <ele>702</ele>
        <time>2022-10-19T09:37:05.630Z</time>
      </trkpt>
      <trkpt lat="43.5275" lon="5.60894">
        <ele>702</ele>
        <time>2022-10-19T09:37:06.630Z</time>
      </trkpt>
      <trkpt lat="43.5275" lon="5.60894">
        <ele>702</ele>
        <time>2022-10-19T09:37:07.630Z</time>
      </trkpt>
      <trkpt lat="43.5275" lon="5.60893">
        <ele>702</ele>
        <time>2022-10-19T09:37:08.630Z</time>
      </trkpt>
      <trkpt lat="43.5275" lon="5.60893">
        <ele>702</ele>
        <time>2022-10-19T09:37:09.630Z</time>
      </trkpt>
      <trkpt lat="43.5275" lon="5.60892">
        <ele>702</ele>
        <time>2022-10-19T09:37:10.630Z</time>
      </trkpt>
      <trkpt lat="43.5275" lon="5.60891">
        <ele>702</ele>
        <time>2022-10-19T09:37:11.630Z</time>
      </trkpt>
      <trkpt lat="43.5275" lon="5.6089">
        <ele>702</ele>
        <time>2022-10-19T09:37:12.630Z</time>
      </trkpt>
      <trkpt lat="43.5275" lon="5.6089">
        <ele>702</ele>
        <time>2022-10-19T09:37:13.630Z</time>
      </trkpt>
      <trkpt lat="43.52751" lon="5.60889">
        <ele>702</ele>
        <time>2022-10-19T09:37:14.630Z</time>
      </trkpt>
      <trkpt lat="43.52751" lon="5.60889">
        <ele>702</ele>
        <time>2022-10-19T09:37:15.630Z</time>
      </trkpt>
      <trkpt lat="43.52752" lon="5.60889">
        <ele>702</ele>
        <time>2022-10-19T09:37:16.630Z</time>
      </trkpt>
      <trkpt lat="43.52752" lon="5.60889">
        <ele>702</ele>
        <time>2022-10-19T09:37:17.630Z</time>
      </trkpt>
      <trkpt lat="43.52752" lon="5.60889">
        <ele>702</ele>
        <time>2022-10-19T09:37:18.630Z</time>
      </trkpt>
      <trkpt lat="43.52752" lon="5.60889">
        <ele>702</ele>
        <time>2022-10-19T09:37:19.630Z</time>
      </trkpt>
      <trkpt lat="43.52752" lon="5.60888">
        <ele>702</ele>
        <time>2022-10-19T09:37:20.630Z</time>
      </trkpt>
      <trkpt lat="43.52752" lon="5.60887">
        <ele>702</ele>
        <time>2022-10-19T09:37:21.630Z</time>
      </trkpt>
      <trkpt lat="43.52753" lon="5.60887">
        <ele>702</ele>
        <time>2022-10-19T09:37:22.630Z</time>
      </trkpt>
      <trkpt lat="43.52753" lon="5.60887">
        <ele>702</ele>
        <time>2022-10-19T09:37:23.630Z</time>
      </trkpt>
      <trkpt lat="43.52754" lon="5.60887">
        <ele>702</ele>
        <time>2022-10-19T09:37:24.630Z</time>
      </trkpt>
      <trkpt lat="43.52754" lon="5.60886">
        <ele>703</ele>
        <time>2022-10-19T09:37:25.630Z</time>
      </trkpt>
      <trkpt lat="43.52754" lon="5.60886">
        <ele>702</ele>
        <time>2022-10-19T09:37:26.630Z</time>
      </trkpt>
      <trkpt lat="43.52754" lon="5.60886">
        <ele>702</ele>
        <time>2022-10-19T09:37:27.630Z</time>
      </trkpt>
      <trkpt lat="43.52755" lon="5.60886">
        <ele>703</ele>
        <time>2022-10-19T09:37:28.630Z</time>
      </trkpt>
      <trkpt lat="43.52755" lon="5.60886">
        <ele>703</ele>
        <time>2022-10-19T09:37:29.630Z</time>
      </trkpt>
      <trkpt lat="43.52756" lon="5.60886">
        <ele>703</ele>
        <time>2022-10-19T09:37:30.630Z</time>
      </trkpt>
      <trkpt lat="43.52756" lon="5.60886">
        <ele>703</ele>
        <time>2022-10-19T09:37:31.630Z</time>
      </trkpt>
      <trkpt lat="43.52756" lon="5.60886">
        <ele>703</ele>
        <time>2022-10-19T09:37:32.630Z</time>
      </trkpt>
      <trkpt lat="43.52756" lon="5.60886">
        <ele>703</ele>
        <time>2022-10-19T09:37:33.630Z</time>
      </trkpt>
      <trkpt lat="43.52757" lon="5.60885">
        <ele>703</ele>
        <time>2022-10-19T09:37:34.630Z</time>
      </trkpt>
      <trkpt lat="43.52757" lon="5.60885">
        <ele>703</ele>
        <time>2022-10-19T09:37:35.630Z</time>
      </trkpt>
      <trkpt lat="43.52757" lon="5.60885">
        <ele>703</ele>
        <time>2022-10-19T09:37:36.630Z</time>
      </trkpt>
      <trkpt lat="43.52758" lon="5.60884">
        <ele>703</ele>
        <time>2022-10-19T09:37:37.630Z</time>
      </trkpt>
      <trkpt lat="43.52758" lon="5.60884">
        <ele>703</ele>
        <time>2022-10-19T09:37:38.630Z</time>
      </trkpt>
      <trkpt lat="43.52758" lon="5.60884">
        <ele>703</ele>
        <time>2022-10-19T09:37:39.630Z</time>
      </trkpt>
      <trkpt lat="43.52759" lon="5.60884">
        <ele>703</ele>
        <time>2022-10-19T09:37:40.630Z</time>
      </trkpt>
      <trkpt lat="43.52759" lon="5.60884">
        <ele>703</ele>
        <time>2022-10-19T09:37:41.630Z</time>
      </trkpt>
      <trkpt lat="43.52759" lon="5.60884">
        <ele>703</ele>
        <time>2022-10-19T09:37:42.630Z</time>
      </trkpt>
      <trkpt lat="43.52759" lon="5.60884">
        <ele>703</ele>
        <time>2022-10-19T09:37:43.630Z</time>
      </trkpt>
      <trkpt lat="43.52759" lon="5.60884">
        <ele>703</ele>
        <time>2022-10-19T09:37:44.630Z</time>
      </trkpt>
      <trkpt lat="43.52759" lon="5.60884">
        <ele>703</ele>
        <time>2022-10-19T09:37:45.630Z</time>
      </trkpt>
      <trkpt lat="43.52759" lon="5.60884">
        <ele>703</ele>
        <time>2022-10-19T09:37:46.630Z</time>
      </trkpt>
      <trkpt lat="43.52759" lon="5.60884">
        <ele>703</ele>
        <time>2022-10-19T09:37:47.630Z</time>
      </trkpt>
      <trkpt lat="43.52759" lon="5.60884">
        <ele>704</ele>
        <time>2022-10-19T09:37:48.630Z</time>
      </trkpt>
      <trkpt lat="43.52759" lon="5.60884">
        <ele>704</ele>
        <time>2022-10-19T09:37:49.630Z</time>
      </trkpt>
      <trkpt lat="43.52759" lon="5.60884">
        <ele>704</ele>
        <time>2022-10-19T09:37:50.630Z</time>
      </trkpt>
      <trkpt lat="43.52759" lon="5.60884">
        <ele>704</ele>
        <time>2022-10-19T09:37:51.630Z</time>
      </trkpt>
      <trkpt lat="43.52759" lon="5.60884">
        <ele>704</ele>
        <time>2022-10-19T09:37:52.630Z</time>
      </trkpt>
      <trkpt lat="43.52759" lon="5.60884">
        <ele>704</ele>
        <time>2022-10-19T09:37:53.630Z</time>
      </trkpt>
      <trkpt lat="43.52759" lon="5.60884">
        <ele>703</ele>
        <time>2022-10-19T09:37:54.630Z</time>
      </trkpt>
      <trkpt lat="43.52759" lon="5.60884">
        <ele>703</ele>
        <time>2022-10-19T09:37:55.630Z</time>
      </trkpt>
      <trkpt lat="43.52759" lon="5.60884">
        <ele>703</ele>
        <time>2022-10-19T09:37:56.630Z</time>
      </trkpt>
      <trkpt lat="43.52759" lon="5.60884">
        <ele>703</ele>
        <time>2022-10-19T09:37:57.630Z</time>
      </trkpt>
      <trkpt lat="43.52759" lon="5.60884">
        <ele>703</ele>
        <time>2022-10-19T09:37:58.630Z</time>
      </trkpt>
      <trkpt lat="43.52759" lon="5.60884">
        <ele>703</ele>
        <time>2022-10-19T09:37:59.630Z</time>
      </trkpt>
      <trkpt lat="43.52759" lon="5.60883">
        <ele>703</ele>
        <time>2022-10-19T09:38:00.630Z</time>
      </trkpt>
      <trkpt lat="43.5276" lon="5.60883">
        <ele>703</ele>
        <time>2022-10-19T09:38:01.630Z</time>
      </trkpt>
      <trkpt lat="43.5276" lon="5.60883">
        <ele>703</ele>
        <time>2022-10-19T09:38:02.630Z</time>
      </trkpt>
      <trkpt lat="43.5276" lon="5.60883">
        <ele>703</ele>
        <time>2022-10-19T09:38:03.630Z</time>
      </trkpt>
      <trkpt lat="43.5276" lon="5.60883">
        <ele>703</ele>
        <time>2022-10-19T09:38:04.630Z</time>
      </trkpt>
      <trkpt lat="43.5276" lon="5.60883">
        <ele>703</ele>
        <time>2022-10-19T09:38:05.630Z</time>
      </trkpt>
      <trkpt lat="43.5276" lon="5.60883">
        <ele>703</ele>
        <time>2022-10-19T09:38:06.630Z</time>
      </trkpt>
      <trkpt lat="43.5276" lon="5.60883">
        <ele>703</ele>
        <time>2022-10-19T09:38:07.630Z</time>
      </trkpt>
      <trkpt lat="43.5276" lon="5.60883">
        <ele>703</ele>
        <time>2022-10-19T09:38:08.630Z</time>
      </trkpt>
      <trkpt lat="43.5276" lon="5.60883">
        <ele>703</ele>
        <time>2022-10-19T09:38:09.630Z</time>
      </trkpt>
      <trkpt lat="43.5276" lon="5.60883">
        <ele>703</ele>
        <time>2022-10-19T09:38:10.630Z</time>
      </trkpt>
      <trkpt lat="43.5276" lon="5.60883">
        <ele>703</ele>
        <time>2022-10-19T09:38:11.630Z</time>
      </trkpt>
      <trkpt lat="43.5276" lon="5.60883">
        <ele>703</ele>
        <time>2022-10-19T09:38:12.630Z</time>
      </trkpt>
      <trkpt lat="43.5276" lon="5.60883">
        <ele>703</ele>
        <time>2022-10-19T09:38:13.630Z</time>
      </trkpt>
      <trkpt lat="43.5276" lon="5.60883">
        <ele>703</ele>
        <time>2022-10-19T09:38:14.630Z</time>
      </trkpt>
      <trkpt lat="43.52761" lon="5.60882">
        <ele>703</ele>
        <time>2022-10-19T09:38:15.630Z</time>
      </trkpt>
      <trkpt lat="43.52761" lon="5.60882">
        <ele>703</ele>
        <time>2022-10-19T09:38:16.630Z</time>
      </trkpt>
      <trkpt lat="43.52761" lon="5.60882">
        <ele>703</ele>
        <time>2022-10-19T09:38:17.630Z</time>
      </trkpt>
      <trkpt lat="43.52762" lon="5.60881">
        <ele>703</ele>
        <time>2022-10-19T09:38:18.630Z</time>
      </trkpt>
      <trkpt lat="43.52762" lon="5.60881">
        <ele>703</ele>
        <time>2022-10-19T09:38:19.630Z</time>
      </trkpt>
      <trkpt lat="43.52763" lon="5.60881">
        <ele>703</ele>
        <time>2022-10-19T09:38:20.630Z</time>
      </trkpt>
      <trkpt lat="43.52763" lon="5.60881">
        <ele>703</ele>
        <time>2022-10-19T09:38:21.630Z</time>
      </trkpt>
      <trkpt lat="43.52763" lon="5.60881">
        <ele>703</ele>
        <time>2022-10-19T09:38:22.630Z</time>
      </trkpt>
      <trkpt lat="43.52764" lon="5.60881">
        <ele>703</ele>
        <time>2022-10-19T09:38:23.630Z</time>
      </trkpt>
      <trkpt lat="43.52764" lon="5.6088">
        <ele>703</ele>
        <time>2022-10-19T09:38:24.630Z</time>
      </trkpt>
      <trkpt lat="43.52765" lon="5.6088">
        <ele>703</ele>
        <time>2022-10-19T09:38:25.630Z</time>
      </trkpt>
      <trkpt lat="43.52765" lon="5.6088">
        <ele>703</ele>
        <time>2022-10-19T09:38:26.630Z</time>
      </trkpt>
      <trkpt lat="43.52766" lon="5.6088">
        <ele>703</ele>
        <time>2022-10-19T09:38:27.630Z</time>
      </trkpt>
      <trkpt lat="43.52766" lon="5.6088">
        <ele>703</ele>
        <time>2022-10-19T09:38:28.630Z</time>
      </trkpt>
      <trkpt lat="43.52766" lon="5.60879">
        <ele>704</ele>
        <time>2022-10-19T09:38:29.630Z</time>
      </trkpt>
      <trkpt lat="43.52766" lon="5.60879">
        <ele>704</ele>
        <time>2022-10-19T09:38:30.630Z</time>
      </trkpt>
      <trkpt lat="43.52767" lon="5.60879">
        <ele>704</ele>
        <time>2022-10-19T09:38:31.630Z</time>
      </trkpt>
      <trkpt lat="43.52767" lon="5.60879">
        <ele>704</ele>
        <time>2022-10-19T09:38:32.630Z</time>
      </trkpt>
      <trkpt lat="43.52767" lon="5.60879">
        <ele>704</ele>
        <time>2022-10-19T09:38:33.630Z</time>
      </trkpt>
      <trkpt lat="43.52767" lon="5.60879">
        <ele>704</ele>
        <time>2022-10-19T09:38:34.630Z</time>
      </trkpt>
      <trkpt lat="43.52767" lon="5.60878">
        <ele>704</ele>
        <time>2022-10-19T09:38:35.630Z</time>
      </trkpt>
      <trkpt lat="43.52766" lon="5.60877">
        <ele>704</ele>
        <time>2022-10-19T09:38:36.630Z</time>
      </trkpt>
      <trkpt lat="43.52766" lon="5.60877">
        <ele>705</ele>
        <time>2022-10-19T09:38:37.630Z</time>
      </trkpt>
      <trkpt lat="43.52766" lon="5.60876">
        <ele>705</ele>
        <time>2022-10-19T09:38:38.630Z</time>
      </trkpt>
      <trkpt lat="43.52766" lon="5.60876">
        <ele>705</ele>
        <time>2022-10-19T09:38:39.630Z</time>
      </trkpt>
      <trkpt lat="43.52766" lon="5.60875">
        <ele>705</ele>
        <time>2022-10-19T09:38:40.630Z</time>
      </trkpt>
      <trkpt lat="43.52766" lon="5.60875">
        <ele>705</ele>
        <time>2022-10-19T09:38:41.630Z</time>
      </trkpt>
      <trkpt lat="43.52765" lon="5.60874">
        <ele>705</ele>
        <time>2022-10-19T09:38:42.630Z</time>
      </trkpt>
      <trkpt lat="43.52765" lon="5.60874">
        <ele>705</ele>
        <time>2022-10-19T09:38:43.630Z</time>
      </trkpt>
      <trkpt lat="43.52765" lon="5.60874">
        <ele>705</ele>
        <time>2022-10-19T09:38:44.630Z</time>
      </trkpt>
      <trkpt lat="43.52765" lon="5.60873">
        <ele>706</ele>
        <time>2022-10-19T09:38:45.630Z</time>
      </trkpt>
      <trkpt lat="43.52765" lon="5.60873">
        <ele>706</ele>
        <time>2022-10-19T09:38:46.630Z</time>
      </trkpt>
      <trkpt lat="43.52765" lon="5.60873">
        <ele>706</ele>
        <time>2022-10-19T09:38:47.630Z</time>
      </trkpt>
      <trkpt lat="43.52765" lon="5.60872">
        <ele>706</ele>
        <time>2022-10-19T09:38:48.630Z</time>
      </trkpt>
      <trkpt lat="43.52765" lon="5.60872">
        <ele>706</ele>
        <time>2022-10-19T09:38:49.630Z</time>
      </trkpt>
      <trkpt lat="43.52765" lon="5.60872">
        <ele>706</ele>
        <time>2022-10-19T09:38:50.630Z</time>
      </trkpt>
      <trkpt lat="43.52765" lon="5.60871">
        <ele>706</ele>
        <time>2022-10-19T09:38:51.630Z</time>
      </trkpt>
      <trkpt lat="43.52765" lon="5.6087">
        <ele>706</ele>
        <time>2022-10-19T09:38:52.630Z</time>
      </trkpt>
      <trkpt lat="43.52764" lon="5.6087">
        <ele>707</ele>
        <time>2022-10-19T09:38:53.630Z</time>
      </trkpt>
      <trkpt lat="43.52764" lon="5.60869">
        <ele>707</ele>
        <time>2022-10-19T09:38:54.630Z</time>
      </trkpt>
      <trkpt lat="43.52764" lon="5.60869">
        <ele>707</ele>
        <time>2022-10-19T09:38:55.630Z</time>
      </trkpt>
      <trkpt lat="43.52763" lon="5.60868">
        <ele>707</ele>
        <time>2022-10-19T09:38:56.630Z</time>
      </trkpt>
      <trkpt lat="43.52763" lon="5.60868">
        <ele>707</ele>
        <time>2022-10-19T09:38:57.630Z</time>
      </trkpt>
      <trkpt lat="43.52763" lon="5.60868">
        <ele>707</ele>
        <time>2022-10-19T09:38:58.630Z</time>
      </trkpt>
      <trkpt lat="43.52763" lon="5.60867">
        <ele>708</ele>
        <time>2022-10-19T09:38:59.630Z</time>
      </trkpt>
      <trkpt lat="43.52763" lon="5.60867">
        <ele>708</ele>
        <time>2022-10-19T09:39:00.630Z</time>
      </trkpt>
      <trkpt lat="43.52763" lon="5.60866">
        <ele>708</ele>
        <time>2022-10-19T09:39:01.630Z</time>
      </trkpt>
      <trkpt lat="43.52763" lon="5.60866">
        <ele>708</ele>
        <time>2022-10-19T09:39:02.630Z</time>
      </trkpt>
      <trkpt lat="43.52763" lon="5.60865">
        <ele>708</ele>
        <time>2022-10-19T09:39:03.630Z</time>
      </trkpt>
      <trkpt lat="43.52763" lon="5.60865">
        <ele>708</ele>
        <time>2022-10-19T09:39:04.630Z</time>
      </trkpt>
      <trkpt lat="43.52763" lon="5.60864">
        <ele>708</ele>
        <time>2022-10-19T09:39:05.630Z</time>
      </trkpt>
      <trkpt lat="43.52762" lon="5.60864">
        <ele>708</ele>
        <time>2022-10-19T09:39:06.630Z</time>
      </trkpt>
      <trkpt lat="43.52762" lon="5.60863">
        <ele>709</ele>
        <time>2022-10-19T09:39:07.630Z</time>
      </trkpt>
      <trkpt lat="43.52762" lon="5.60863">
        <ele>709</ele>
        <time>2022-10-19T09:39:08.630Z</time>
      </trkpt>
      <trkpt lat="43.52762" lon="5.60862">
        <ele>709</ele>
        <time>2022-10-19T09:39:09.630Z</time>
      </trkpt>
      <trkpt lat="43.52762" lon="5.60862">
        <ele>709</ele>
        <time>2022-10-19T09:39:10.630Z</time>
      </trkpt>
      <trkpt lat="43.52762" lon="5.60861">
        <ele>709</ele>
        <time>2022-10-19T09:39:11.630Z</time>
      </trkpt>
      <trkpt lat="43.52762" lon="5.60861">
        <ele>709</ele>
        <time>2022-10-19T09:39:12.630Z</time>
      </trkpt>
      <trkpt lat="43.52762" lon="5.60861">
        <ele>709</ele>
        <time>2022-10-19T09:39:13.630Z</time>
      </trkpt>
      <trkpt lat="43.52762" lon="5.6086">
        <ele>709</ele>
        <time>2022-10-19T09:39:14.630Z</time>
      </trkpt>
      <trkpt lat="43.52762" lon="5.6086">
        <ele>710</ele>
        <time>2022-10-19T09:39:15.630Z</time>
      </trkpt>
      <trkpt lat="43.52761" lon="5.6086">
        <ele>710</ele>
        <time>2022-10-19T09:39:16.630Z</time>
      </trkpt>
      <trkpt lat="43.52761" lon="5.6086">
        <ele>710</ele>
        <time>2022-10-19T09:39:17.630Z</time>
      </trkpt>
      <trkpt lat="43.52761" lon="5.6086">
        <ele>710</ele>
        <time>2022-10-19T09:39:18.630Z</time>
      </trkpt>
      <trkpt lat="43.52761" lon="5.6086">
        <ele>710</ele>
        <time>2022-10-19T09:39:19.630Z</time>
      </trkpt>
      <trkpt lat="43.52761" lon="5.6086">
        <ele>710</ele>
        <time>2022-10-19T09:39:20.630Z</time>
      </trkpt>
      <trkpt lat="43.52761" lon="5.6086">
        <ele>710</ele>
        <time>2022-10-19T09:39:21.630Z</time>
      </trkpt>
      <trkpt lat="43.52761" lon="5.6086">
        <ele>710</ele>
        <time>2022-10-19T09:39:22.630Z</time>
      </trkpt>
      <trkpt lat="43.52761" lon="5.6086">
        <ele>710</ele>
        <time>2022-10-19T09:39:23.630Z</time>
      </trkpt>
      <trkpt lat="43.52761" lon="5.6086">
        <ele>710</ele>
        <time>2022-10-19T09:39:24.630Z</time>
      </trkpt>
      <trkpt lat="43.52761" lon="5.6086">
        <ele>710</ele>
        <time>2022-10-19T09:39:25.630Z</time>
      </trkpt>
      <trkpt lat="43.52761" lon="5.6086">
        <ele>710</ele>
        <time>2022-10-19T09:39:26.630Z</time>
      </trkpt>
      <trkpt lat="43.52761" lon="5.6086">
        <ele>710</ele>
        <time>2022-10-19T09:39:27.630Z</time>
      </trkpt>
      <trkpt lat="43.52761" lon="5.6086">
        <ele>710</ele>
        <time>2022-10-19T09:39:28.630Z</time>
      </trkpt>
      <trkpt lat="43.52761" lon="5.6086">
        <ele>710</ele>
        <time>2022-10-19T09:39:29.630Z</time>
      </trkpt>
      <trkpt lat="43.52761" lon="5.6086">
        <ele>711</ele>
        <time>2022-10-19T09:39:30.630Z</time>
      </trkpt>
      <trkpt lat="43.52761" lon="5.6086">
        <ele>711</ele>
        <time>2022-10-19T09:39:31.630Z</time>
      </trkpt>
      <trkpt lat="43.52761" lon="5.6086">
        <ele>711</ele>
        <time>2022-10-19T09:39:32.630Z</time>
      </trkpt>
      <trkpt lat="43.52761" lon="5.6086">
        <ele>711</ele>
        <time>2022-10-19T09:39:33.630Z</time>
      </trkpt>
      <trkpt lat="43.5276" lon="5.6086">
        <ele>711</ele>
        <time>2022-10-19T09:39:34.630Z</time>
      </trkpt>
      <trkpt lat="43.5276" lon="5.6086">
        <ele>711</ele>
        <time>2022-10-19T09:39:35.630Z</time>
      </trkpt>
      <trkpt lat="43.5276" lon="5.6086">
        <ele>711</ele>
        <time>2022-10-19T09:39:36.630Z</time>
      </trkpt>
      <trkpt lat="43.5276" lon="5.6086">
        <ele>711</ele>
        <time>2022-10-19T09:39:37.630Z</time>
      </trkpt>
      <trkpt lat="43.5276" lon="5.6086">
        <ele>711</ele>
        <time>2022-10-19T09:39:38.630Z</time>
      </trkpt>
      <trkpt lat="43.5276" lon="5.6086">
        <ele>711</ele>
        <time>2022-10-19T09:39:39.630Z</time>
      </trkpt>
      <trkpt lat="43.5276" lon="5.60859">
        <ele>711</ele>
        <time>2022-10-19T09:39:40.630Z</time>
      </trkpt>
      <trkpt lat="43.5276" lon="5.60859">
        <ele>711</ele>
        <time>2022-10-19T09:39:41.630Z</time>
      </trkpt>
      <trkpt lat="43.5276" lon="5.60859">
        <ele>711</ele>
        <time>2022-10-19T09:39:42.630Z</time>
      </trkpt>
      <trkpt lat="43.5276" lon="5.60859">
        <ele>711</ele>
        <time>2022-10-19T09:39:43.630Z</time>
      </trkpt>
      <trkpt lat="43.5276" lon="5.60859">
        <ele>711</ele>
        <time>2022-10-19T09:39:44.630Z</time>
      </trkpt>
      <trkpt lat="43.5276" lon="5.60859">
        <ele>711</ele>
        <time>2022-10-19T09:39:45.630Z</time>
      </trkpt>
      <trkpt lat="43.5276" lon="5.60859">
        <ele>711</ele>
        <time>2022-10-19T09:39:46.630Z</time>
      </trkpt>
      <trkpt lat="43.5276" lon="5.60859">
        <ele>711</ele>
        <time>2022-10-19T09:39:47.630Z</time>
      </trkpt>
      <trkpt lat="43.5276" lon="5.60859">
        <ele>711</ele>
        <time>2022-10-19T09:39:48.630Z</time>
      </trkpt>
      <trkpt lat="43.5276" lon="5.60859">
        <ele>711</ele>
        <time>2022-10-19T09:39:49.630Z</time>
      </trkpt>
      <trkpt lat="43.5276" lon="5.60859">
        <ele>711</ele>
        <time>2022-10-19T09:39:50.630Z</time>
      </trkpt>
      <trkpt lat="43.5276" lon="5.60859">
        <ele>711</ele>
        <time>2022-10-19T09:39:51.630Z</time>
      </trkpt>
      <trkpt lat="43.5276" lon="5.60859">
        <ele>711</ele>
        <time>2022-10-19T09:39:52.630Z</time>
      </trkpt>
      <trkpt lat="43.5276" lon="5.60859">
        <ele>711</ele>
        <time>2022-10-19T09:39:53.630Z</time>
      </trkpt>
      <trkpt lat="43.5276" lon="5.60859">
        <ele>711</ele>
        <time>2022-10-19T09:39:54.630Z</time>
      </trkpt>
      <trkpt lat="43.5276" lon="5.60859">
        <ele>711</ele>
        <time>2022-10-19T09:39:55.630Z</time>
      </trkpt>
      <trkpt lat="43.5276" lon="5.60859">
        <ele>711</ele>
        <time>2022-10-19T09:39:56.630Z</time>
      </trkpt>
      <trkpt lat="43.5276" lon="5.60859">
        <ele>711</ele>
        <time>2022-10-19T09:39:57.630Z</time>
      </trkpt>
      <trkpt lat="43.5276" lon="5.60859">
        <ele>711</ele>
        <time>2022-10-19T09:39:58.630Z</time>
      </trkpt>
      <trkpt lat="43.5276" lon="5.60859">
        <ele>711</ele>
        <time>2022-10-19T09:39:59.630Z</time>
      </trkpt>
      <trkpt lat="43.5276" lon="5.60859">
        <ele>711</ele>
        <time>2022-10-19T09:40:00.630Z</time>
      </trkpt>
      <trkpt lat="43.5276" lon="5.60859">
        <ele>711</ele>
        <time>2022-10-19T09:40:01.630Z</time>
      </trkpt>
      <trkpt lat="43.5276" lon="5.60859">
        <ele>712</ele>
        <time>2022-10-19T09:40:02.630Z</time>
      </trkpt>
      <trkpt lat="43.5276" lon="5.60859">
        <ele>712</ele>
        <time>2022-10-19T09:40:03.630Z</time>
      </trkpt>
      <trkpt lat="43.5276" lon="5.60859">
        <ele>712</ele>
        <time>2022-10-19T09:40:04.630Z</time>
      </trkpt>
      <trkpt lat="43.5276" lon="5.60859">
        <ele>712</ele>
        <time>2022-10-19T09:40:05.630Z</time>
      </trkpt>
      <trkpt lat="43.5276" lon="5.60859">
        <ele>712</ele>
        <time>2022-10-19T09:40:06.630Z</time>
      </trkpt>
      <trkpt lat="43.5276" lon="5.60859">
        <ele>712</ele>
        <time>2022-10-19T09:40:07.630Z</time>
      </trkpt>
      <trkpt lat="43.5276" lon="5.60859">
        <ele>712</ele>
        <time>2022-10-19T09:40:08.630Z</time>
      </trkpt>
      <trkpt lat="43.5276" lon="5.60859">
        <ele>712</ele>
        <time>2022-10-19T09:40:09.630Z</time>
      </trkpt>
      <trkpt lat="43.5276" lon="5.60859">
        <ele>712</ele>
        <time>2022-10-19T09:40:10.630Z</time>
      </trkpt>
      <trkpt lat="43.5276" lon="5.60858">
        <ele>712</ele>
        <time>2022-10-19T09:40:11.630Z</time>
      </trkpt>
      <trkpt lat="43.5276" lon="5.60858">
        <ele>712</ele>
        <time>2022-10-19T09:40:12.630Z</time>
      </trkpt>
      <trkpt lat="43.5276" lon="5.60858">
        <ele>712</ele>
        <time>2022-10-19T09:40:13.630Z</time>
      </trkpt>
      <trkpt lat="43.5276" lon="5.60858">
        <ele>712</ele>
        <time>2022-10-19T09:40:14.630Z</time>
      </trkpt>
      <trkpt lat="43.5276" lon="5.60858">
        <ele>712</ele>
        <time>2022-10-19T09:40:15.630Z</time>
      </trkpt>
      <trkpt lat="43.52759" lon="5.60857">
        <ele>712</ele>
        <time>2022-10-19T09:40:16.630Z</time>
      </trkpt>
      <trkpt lat="43.52759" lon="5.60856">
        <ele>712</ele>
        <time>2022-10-19T09:40:17.630Z</time>
      </trkpt>
      <trkpt lat="43.52759" lon="5.60856">
        <ele>713</ele>
        <time>2022-10-19T09:40:18.630Z</time>
      </trkpt>
      <trkpt lat="43.52759" lon="5.60855">
        <ele>713</ele>
        <time>2022-10-19T09:40:19.630Z</time>
      </trkpt>
      <trkpt lat="43.52758" lon="5.60854">
        <ele>713</ele>
        <time>2022-10-19T09:40:20.630Z</time>
      </trkpt>
      <trkpt lat="43.52758" lon="5.60854">
        <ele>713</ele>
        <time>2022-10-19T09:40:21.630Z</time>
      </trkpt>
      <trkpt lat="43.52758" lon="5.60854">
        <ele>714</ele>
        <time>2022-10-19T09:40:22.630Z</time>
      </trkpt>
      <trkpt lat="43.52758" lon="5.60853">
        <ele>714</ele>
        <time>2022-10-19T09:40:23.630Z</time>
      </trkpt>
      <trkpt lat="43.52758" lon="5.60853">
        <ele>714</ele>
        <time>2022-10-19T09:40:24.630Z</time>
      </trkpt>
      <trkpt lat="43.52757" lon="5.60852">
        <ele>715</ele>
        <time>2022-10-19T09:40:25.630Z</time>
      </trkpt>
      <trkpt lat="43.52757" lon="5.60852">
        <ele>715</ele>
        <time>2022-10-19T09:40:26.630Z</time>
      </trkpt>
      <trkpt lat="43.52756" lon="5.60852">
        <ele>715</ele>
        <time>2022-10-19T09:40:27.630Z</time>
      </trkpt>
      <trkpt lat="43.52755" lon="5.60851">
        <ele>715</ele>
        <time>2022-10-19T09:40:28.630Z</time>
      </trkpt>
      <trkpt lat="43.52755" lon="5.60851">
        <ele>716</ele>
        <time>2022-10-19T09:40:29.630Z</time>
      </trkpt>
      <trkpt lat="43.52754" lon="5.60851">
        <ele>716</ele>
        <time>2022-10-19T09:40:30.630Z</time>
      </trkpt>
      <trkpt lat="43.52754" lon="5.6085">
        <ele>716</ele>
        <time>2022-10-19T09:40:31.630Z</time>
      </trkpt>
      <trkpt lat="43.52753" lon="5.6085">
        <ele>717</ele>
        <time>2022-10-19T09:40:32.630Z</time>
      </trkpt>
      <trkpt lat="43.52752" lon="5.6085">
        <ele>717</ele>
        <time>2022-10-19T09:40:33.630Z</time>
      </trkpt>
      <trkpt lat="43.52752" lon="5.60849">
        <ele>717</ele>
        <time>2022-10-19T09:40:34.630Z</time>
      </trkpt>
      <trkpt lat="43.52751" lon="5.60849">
        <ele>717</ele>
        <time>2022-10-19T09:40:35.630Z</time>
      </trkpt>
      <trkpt lat="43.52751" lon="5.60848">
        <ele>718</ele>
        <time>2022-10-19T09:40:36.630Z</time>
      </trkpt>
      <trkpt lat="43.5275" lon="5.60848">
        <ele>718</ele>
        <time>2022-10-19T09:40:37.630Z</time>
      </trkpt>
      <trkpt lat="43.5275" lon="5.60847">
        <ele>718</ele>
        <time>2022-10-19T09:40:38.630Z</time>
      </trkpt>
      <trkpt lat="43.5275" lon="5.60846">
        <ele>718</ele>
        <time>2022-10-19T09:40:39.630Z</time>
      </trkpt>
      <trkpt lat="43.5275" lon="5.60846">
        <ele>719</ele>
        <time>2022-10-19T09:40:40.630Z</time>
      </trkpt>
      <trkpt lat="43.52751" lon="5.60846">
        <ele>719</ele>
        <time>2022-10-19T09:40:41.630Z</time>
      </trkpt>
      <trkpt lat="43.52751" lon="5.60846">
        <ele>719</ele>
        <time>2022-10-19T09:40:42.630Z</time>
      </trkpt>
      <trkpt lat="43.52751" lon="5.60846">
        <ele>719</ele>
        <time>2022-10-19T09:40:43.630Z</time>
      </trkpt>
      <trkpt lat="43.52751" lon="5.60846">
        <ele>719</ele>
        <time>2022-10-19T09:40:44.630Z</time>
      </trkpt>
      <trkpt lat="43.52751" lon="5.60845">
        <ele>719</ele>
        <time>2022-10-19T09:40:45.630Z</time>
      </trkpt>
      <trkpt lat="43.52751" lon="5.60845">
        <ele>720</ele>
        <time>2022-10-19T09:40:46.630Z</time>
      </trkpt>
      <trkpt lat="43.52751" lon="5.60845">
        <ele>720</ele>
        <time>2022-10-19T09:40:47.630Z</time>
      </trkpt>
      <trkpt lat="43.52751" lon="5.60845">
        <ele>720</ele>
        <time>2022-10-19T09:40:48.630Z</time>
      </trkpt>
      <trkpt lat="43.52752" lon="5.60844">
        <ele>720</ele>
        <time>2022-10-19T09:40:49.630Z</time>
      </trkpt>
      <trkpt lat="43.52752" lon="5.60844">
        <ele>720</ele>
        <time>2022-10-19T09:40:50.630Z</time>
      </trkpt>
      <trkpt lat="43.52752" lon="5.60844">
        <ele>720</ele>
        <time>2022-10-19T09:40:51.630Z</time>
      </trkpt>
      <trkpt lat="43.52751" lon="5.60843">
        <ele>720</ele>
        <time>2022-10-19T09:40:52.630Z</time>
      </trkpt>
      <trkpt lat="43.52751" lon="5.60843">
        <ele>720</ele>
        <time>2022-10-19T09:40:53.630Z</time>
      </trkpt>
      <trkpt lat="43.52751" lon="5.60842">
        <ele>720</ele>
        <time>2022-10-19T09:40:54.630Z</time>
      </trkpt>
      <trkpt lat="43.52751" lon="5.60842">
        <ele>720</ele>
        <time>2022-10-19T09:40:55.630Z</time>
      </trkpt>
      <trkpt lat="43.52751" lon="5.60841">
        <ele>721</ele>
        <time>2022-10-19T09:40:56.630Z</time>
      </trkpt>
      <trkpt lat="43.5275" lon="5.60841">
        <ele>721</ele>
        <time>2022-10-19T09:40:57.630Z</time>
      </trkpt>
      <trkpt lat="43.5275" lon="5.60841">
        <ele>721</ele>
        <time>2022-10-19T09:40:58.630Z</time>
      </trkpt>
      <trkpt lat="43.52749" lon="5.6084">
        <ele>721</ele>
        <time>2022-10-19T09:40:59.630Z</time>
      </trkpt>
      <trkpt lat="43.52749" lon="5.60839">
        <ele>721</ele>
        <time>2022-10-19T09:41:00.630Z</time>
      </trkpt>
      <trkpt lat="43.52748" lon="5.60839">
        <ele>721</ele>
        <time>2022-10-19T09:41:01.630Z</time>
      </trkpt>
      <trkpt lat="43.52748" lon="5.60838">
        <ele>721</ele>
        <time>2022-10-19T09:41:02.630Z</time>
      </trkpt>
      <trkpt lat="43.52748" lon="5.60838">
        <ele>722</ele>
        <time>2022-10-19T09:41:03.630Z</time>
      </trkpt>
      <trkpt lat="43.52747" lon="5.60837">
        <ele>722</ele>
        <time>2022-10-19T09:41:04.630Z</time>
      </trkpt>
      <trkpt lat="43.52747" lon="5.60837">
        <ele>722</ele>
        <time>2022-10-19T09:41:05.630Z</time>
      </trkpt>
      <trkpt lat="43.52747" lon="5.60836">
        <ele>722</ele>
        <time>2022-10-19T09:41:06.630Z</time>
      </trkpt>
      <trkpt lat="43.52746" lon="5.60836">
        <ele>722</ele>
        <time>2022-10-19T09:41:07.630Z</time>
      </trkpt>
      <trkpt lat="43.52746" lon="5.60836">
        <ele>722</ele>
        <time>2022-10-19T09:41:08.630Z</time>
      </trkpt>
      <trkpt lat="43.52745" lon="5.60835">
        <ele>722</ele>
        <time>2022-10-19T09:41:09.630Z</time>
      </trkpt>
      <trkpt lat="43.52745" lon="5.60835">
        <ele>722</ele>
        <time>2022-10-19T09:41:10.630Z</time>
      </trkpt>
      <trkpt lat="43.52744" lon="5.60835">
        <ele>722</ele>
        <time>2022-10-19T09:41:11.630Z</time>
      </trkpt>
      <trkpt lat="43.52744" lon="5.60834">
        <ele>722</ele>
        <time>2022-10-19T09:41:12.630Z</time>
      </trkpt>
      <trkpt lat="43.52744" lon="5.60834">
        <ele>722</ele>
        <time>2022-10-19T09:41:13.630Z</time>
      </trkpt>
      <trkpt lat="43.52743" lon="5.60833">
        <ele>722</ele>
        <time>2022-10-19T09:41:14.630Z</time>
      </trkpt>
      <trkpt lat="43.52743" lon="5.60833">
        <ele>722</ele>
        <time>2022-10-19T09:41:15.630Z</time>
      </trkpt>
      <trkpt lat="43.52742" lon="5.60832">
        <ele>722</ele>
        <time>2022-10-19T09:41:16.630Z</time>
      </trkpt>
      <trkpt lat="43.52742" lon="5.60831">
        <ele>723</ele>
        <time>2022-10-19T09:41:17.630Z</time>
      </trkpt>
      <trkpt lat="43.52741" lon="5.60831">
        <ele>723</ele>
        <time>2022-10-19T09:41:18.630Z</time>
      </trkpt>
      <trkpt lat="43.52741" lon="5.60831">
        <ele>723</ele>
        <time>2022-10-19T09:41:19.630Z</time>
      </trkpt>
      <trkpt lat="43.5274" lon="5.6083">
        <ele>723</ele>
        <time>2022-10-19T09:41:20.630Z</time>
      </trkpt>
      <trkpt lat="43.5274" lon="5.6083">
        <ele>723</ele>
        <time>2022-10-19T09:41:21.630Z</time>
      </trkpt>
      <trkpt lat="43.52739" lon="5.60829">
        <ele>723</ele>
        <time>2022-10-19T09:41:22.630Z</time>
      </trkpt>
      <trkpt lat="43.52739" lon="5.60829">
        <ele>723</ele>
        <time>2022-10-19T09:41:23.630Z</time>
      </trkpt>
      <trkpt lat="43.52739" lon="5.60828">
        <ele>724</ele>
        <time>2022-10-19T09:41:24.630Z</time>
      </trkpt>
      <trkpt lat="43.52738" lon="5.60828">
        <ele>724</ele>
        <time>2022-10-19T09:41:25.630Z</time>
      </trkpt>
      <trkpt lat="43.52737" lon="5.60827">
        <ele>724</ele>
        <time>2022-10-19T09:41:26.630Z</time>
      </trkpt>
      <trkpt lat="43.52737" lon="5.60827">
        <ele>724</ele>
        <time>2022-10-19T09:41:27.630Z</time>
      </trkpt>
      <trkpt lat="43.52736" lon="5.60826">
        <ele>724</ele>
        <time>2022-10-19T09:41:28.630Z</time>
      </trkpt>
      <trkpt lat="43.52736" lon="5.60826">
        <ele>724</ele>
        <time>2022-10-19T09:41:29.630Z</time>
      </trkpt>
      <trkpt lat="43.52735" lon="5.60825">
        <ele>724</ele>
        <time>2022-10-19T09:41:30.630Z</time>
      </trkpt>
      <trkpt lat="43.52735" lon="5.60825">
        <ele>725</ele>
        <time>2022-10-19T09:41:31.630Z</time>
      </trkpt>
      <trkpt lat="43.52735" lon="5.60824">
        <ele>725</ele>
        <time>2022-10-19T09:41:32.630Z</time>
      </trkpt>
      <trkpt lat="43.52735" lon="5.60823">
        <ele>725</ele>
        <time>2022-10-19T09:41:33.630Z</time>
      </trkpt>
      <trkpt lat="43.52735" lon="5.60823">
        <ele>725</ele>
        <time>2022-10-19T09:41:34.630Z</time>
      </trkpt>
      <trkpt lat="43.52734" lon="5.60823">
        <ele>725</ele>
        <time>2022-10-19T09:41:35.630Z</time>
      </trkpt>
      <trkpt lat="43.52734" lon="5.60822">
        <ele>725</ele>
        <time>2022-10-19T09:41:36.630Z</time>
      </trkpt>
      <trkpt lat="43.52734" lon="5.60822">
        <ele>725</ele>
        <time>2022-10-19T09:41:37.630Z</time>
      </trkpt>
      <trkpt lat="43.52734" lon="5.60821">
        <ele>725</ele>
        <time>2022-10-19T09:41:38.630Z</time>
      </trkpt>
      <trkpt lat="43.52735" lon="5.60821">
        <ele>725</ele>
        <time>2022-10-19T09:41:39.630Z</time>
      </trkpt>
      <trkpt lat="43.52735" lon="5.6082">
        <ele>726</ele>
        <time>2022-10-19T09:41:40.630Z</time>
      </trkpt>
      <trkpt lat="43.52735" lon="5.6082">
        <ele>726</ele>
        <time>2022-10-19T09:41:41.630Z</time>
      </trkpt>
      <trkpt lat="43.52735" lon="5.6082">
        <ele>726</ele>
        <time>2022-10-19T09:41:42.630Z</time>
      </trkpt>
      <trkpt lat="43.52735" lon="5.6082">
        <ele>726</ele>
        <time>2022-10-19T09:41:43.630Z</time>
      </trkpt>
      <trkpt lat="43.52736" lon="5.6082">
        <ele>726</ele>
        <time>2022-10-19T09:41:44.630Z</time>
      </trkpt>
      <trkpt lat="43.52736" lon="5.6082">
        <ele>726</ele>
        <time>2022-10-19T09:41:45.630Z</time>
      </trkpt>
      <trkpt lat="43.52737" lon="5.6082">
        <ele>726</ele>
        <time>2022-10-19T09:41:46.630Z</time>
      </trkpt>
      <trkpt lat="43.52737" lon="5.60819">
        <ele>726</ele>
        <time>2022-10-19T09:41:47.630Z</time>
      </trkpt>
      <trkpt lat="43.52737" lon="5.60819">
        <ele>726</ele>
        <time>2022-10-19T09:41:48.630Z</time>
      </trkpt>
      <trkpt lat="43.52738" lon="5.60819">
        <ele>726</ele>
        <time>2022-10-19T09:41:49.630Z</time>
      </trkpt>
      <trkpt lat="43.52738" lon="5.60819">
        <ele>726</ele>
        <time>2022-10-19T09:41:50.630Z</time>
      </trkpt>
      <trkpt lat="43.52739" lon="5.60819">
        <ele>726</ele>
        <time>2022-10-19T09:41:51.630Z</time>
      </trkpt>
      <trkpt lat="43.52739" lon="5.60818">
        <ele>726</ele>
        <time>2022-10-19T09:41:52.630Z</time>
      </trkpt>
      <trkpt lat="43.52739" lon="5.60818">
        <ele>726</ele>
        <time>2022-10-19T09:41:53.630Z</time>
      </trkpt>
      <trkpt lat="43.5274" lon="5.60818">
        <ele>726</ele>
        <time>2022-10-19T09:41:54.630Z</time>
      </trkpt>
      <trkpt lat="43.5274" lon="5.60818">
        <ele>726</ele>
        <time>2022-10-19T09:41:55.630Z</time>
      </trkpt>
      <trkpt lat="43.52741" lon="5.60817">
        <ele>726</ele>
        <time>2022-10-19T09:41:56.630Z</time>
      </trkpt>
      <trkpt lat="43.52741" lon="5.60816">
        <ele>726</ele>
        <time>2022-10-19T09:41:57.630Z</time>
      </trkpt>
      <trkpt lat="43.52741" lon="5.60816">
        <ele>726</ele>
        <time>2022-10-19T09:41:58.630Z</time>
      </trkpt>
      <trkpt lat="43.52742" lon="5.60816">
        <ele>726</ele>
        <time>2022-10-19T09:41:59.630Z</time>
      </trkpt>
      <trkpt lat="43.52742" lon="5.60815">
        <ele>726</ele>
        <time>2022-10-19T09:42:00.630Z</time>
      </trkpt>
      <trkpt lat="43.52742" lon="5.60815">
        <ele>727</ele>
        <time>2022-10-19T09:42:01.630Z</time>
      </trkpt>
      <trkpt lat="43.52742" lon="5.60814">
        <ele>727</ele>
        <time>2022-10-19T09:42:02.630Z</time>
      </trkpt>
      <trkpt lat="43.52743" lon="5.60814">
        <ele>727</ele>
        <time>2022-10-19T09:42:03.630Z</time>
      </trkpt>
      <trkpt lat="43.52743" lon="5.60814">
        <ele>727</ele>
        <time>2022-10-19T09:42:04.630Z</time>
      </trkpt>
      <trkpt lat="43.52743" lon="5.60814">
        <ele>727</ele>
        <time>2022-10-19T09:42:05.630Z</time>
      </trkpt>
      <trkpt lat="43.52743" lon="5.60814">
        <ele>727</ele>
        <time>2022-10-19T09:42:06.630Z</time>
      </trkpt>
      <trkpt lat="43.52743" lon="5.60814">
        <ele>727</ele>
        <time>2022-10-19T09:42:07.630Z</time>
      </trkpt>
      <trkpt lat="43.52743" lon="5.60814">
        <ele>727</ele>
        <time>2022-10-19T09:42:08.630Z</time>
      </trkpt>
      <trkpt lat="43.52743" lon="5.60814">
        <ele>727</ele>
        <time>2022-10-19T09:42:09.630Z</time>
      </trkpt>
      <trkpt lat="43.52743" lon="5.60814">
        <ele>727</ele>
        <time>2022-10-19T09:42:10.630Z</time>
      </trkpt>
      <trkpt lat="43.52743" lon="5.60814">
        <ele>727</ele>
        <time>2022-10-19T09:42:11.630Z</time>
      </trkpt>
      <trkpt lat="43.52743" lon="5.60814">
        <ele>727</ele>
        <time>2022-10-19T09:42:12.630Z</time>
      </trkpt>
      <trkpt lat="43.52743" lon="5.60814">
        <ele>727</ele>
        <time>2022-10-19T09:42:13.630Z</time>
      </trkpt>
      <trkpt lat="43.52743" lon="5.60813">
        <ele>727</ele>
        <time>2022-10-19T09:42:14.630Z</time>
      </trkpt>
      <trkpt lat="43.52743" lon="5.60813">
        <ele>727</ele>
        <time>2022-10-19T09:42:15.630Z</time>
      </trkpt>
      <trkpt lat="43.52743" lon="5.60813">
        <ele>727</ele>
        <time>2022-10-19T09:42:16.630Z</time>
      </trkpt>
      <trkpt lat="43.52743" lon="5.60813">
        <ele>728</ele>
        <time>2022-10-19T09:42:17.630Z</time>
      </trkpt>
      <trkpt lat="43.52743" lon="5.60813">
        <ele>728</ele>
        <time>2022-10-19T09:42:18.630Z</time>
      </trkpt>
      <trkpt lat="43.52743" lon="5.60813">
        <ele>728</ele>
        <time>2022-10-19T09:42:19.630Z</time>
      </trkpt>
      <trkpt lat="43.52743" lon="5.60813">
        <ele>728</ele>
        <time>2022-10-19T09:42:20.630Z</time>
      </trkpt>
      <trkpt lat="43.52743" lon="5.60813">
        <ele>728</ele>
        <time>2022-10-19T09:42:21.630Z</time>
      </trkpt>
      <trkpt lat="43.52743" lon="5.60813">
        <ele>728</ele>
        <time>2022-10-19T09:42:22.630Z</time>
      </trkpt>
      <trkpt lat="43.52743" lon="5.60813">
        <ele>728</ele>
        <time>2022-10-19T09:42:23.630Z</time>
      </trkpt>
      <trkpt lat="43.52743" lon="5.60813">
        <ele>728</ele>
        <time>2022-10-19T09:42:24.630Z</time>
      </trkpt>
      <trkpt lat="43.52743" lon="5.60813">
        <ele>728</ele>
        <time>2022-10-19T09:42:25.630Z</time>
      </trkpt>
      <trkpt lat="43.52744" lon="5.60814">
        <ele>728</ele>
        <time>2022-10-19T09:42:26.630Z</time>
      </trkpt>
      <trkpt lat="43.52744" lon="5.60814">
        <ele>728</ele>
        <time>2022-10-19T09:42:27.630Z</time>
      </trkpt>
      <trkpt lat="43.52744" lon="5.60814">
        <ele>728</ele>
        <time>2022-10-19T09:42:28.630Z</time>
      </trkpt>
      <trkpt lat="43.52744" lon="5.60814">
        <ele>728</ele>
        <time>2022-10-19T09:42:29.630Z</time>
      </trkpt>
      <trkpt lat="43.52745" lon="5.60813">
        <ele>728</ele>
        <time>2022-10-19T09:42:30.630Z</time>
      </trkpt>
      <trkpt lat="43.52745" lon="5.60813">
        <ele>728</ele>
        <time>2022-10-19T09:42:31.630Z</time>
      </trkpt>
      <trkpt lat="43.52746" lon="5.60813">
        <ele>728</ele>
        <time>2022-10-19T09:42:32.630Z</time>
      </trkpt>
      <trkpt lat="43.52746" lon="5.60813">
        <ele>728</ele>
        <time>2022-10-19T09:42:33.630Z</time>
      </trkpt>
      <trkpt lat="43.52746" lon="5.60813">
        <ele>728</ele>
        <time>2022-10-19T09:42:34.630Z</time>
      </trkpt>
      <trkpt lat="43.52746" lon="5.60813">
        <ele>728</ele>
        <time>2022-10-19T09:42:35.630Z</time>
      </trkpt>
      <trkpt lat="43.52746" lon="5.60812">
        <ele>728</ele>
        <time>2022-10-19T09:42:36.630Z</time>
      </trkpt>
      <trkpt lat="43.52747" lon="5.60812">
        <ele>729</ele>
        <time>2022-10-19T09:42:37.630Z</time>
      </trkpt>
      <trkpt lat="43.52747" lon="5.60812">
        <ele>729</ele>
        <time>2022-10-19T09:42:38.630Z</time>
      </trkpt>
      <trkpt lat="43.52747" lon="5.60812">
        <ele>729</ele>
        <time>2022-10-19T09:42:39.630Z</time>
      </trkpt>
      <trkpt lat="43.52747" lon="5.60812">
        <ele>729</ele>
        <time>2022-10-19T09:42:40.630Z</time>
      </trkpt>
      <trkpt lat="43.52747" lon="5.60812">
        <ele>729</ele>
        <time>2022-10-19T09:42:41.630Z</time>
      </trkpt>
      <trkpt lat="43.52747" lon="5.60812">
        <ele>729</ele>
        <time>2022-10-19T09:42:42.630Z</time>
      </trkpt>
      <trkpt lat="43.52747" lon="5.60812">
        <ele>729</ele>
        <time>2022-10-19T09:42:43.630Z</time>
      </trkpt>
      <trkpt lat="43.52747" lon="5.60812">
        <ele>729</ele>
        <time>2022-10-19T09:42:44.630Z</time>
      </trkpt>
      <trkpt lat="43.52747" lon="5.60812">
        <ele>729</ele>
        <time>2022-10-19T09:42:45.630Z</time>
      </trkpt>
      <trkpt lat="43.52747" lon="5.60812">
        <ele>729</ele>
        <time>2022-10-19T09:42:46.630Z</time>
      </trkpt>
      <trkpt lat="43.52747" lon="5.60812">
        <ele>729</ele>
        <time>2022-10-19T09:42:47.630Z</time>
      </trkpt>
      <trkpt lat="43.52747" lon="5.60812">
        <ele>729</ele>
        <time>2022-10-19T09:42:48.630Z</time>
      </trkpt>
      <trkpt lat="43.52747" lon="5.60812">
        <ele>729</ele>
        <time>2022-10-19T09:42:49.630Z</time>
      </trkpt>
      <trkpt lat="43.52747" lon="5.60812">
        <ele>729</ele>
        <time>2022-10-19T09:42:50.630Z</time>
      </trkpt>
      <trkpt lat="43.52747" lon="5.60812">
        <ele>729</ele>
        <time>2022-10-19T09:42:51.630Z</time>
      </trkpt>
      <trkpt lat="43.52747" lon="5.60812">
        <ele>729</ele>
        <time>2022-10-19T09:42:52.630Z</time>
      </trkpt>
      <trkpt lat="43.52747" lon="5.60812">
        <ele>729</ele>
        <time>2022-10-19T09:42:53.630Z</time>
      </trkpt>
      <trkpt lat="43.52747" lon="5.60812">
        <ele>729</ele>
        <time>2022-10-19T09:42:54.630Z</time>
      </trkpt>
      <trkpt lat="43.52747" lon="5.60812">
        <ele>729</ele>
        <time>2022-10-19T09:42:55.630Z</time>
      </trkpt>
      <trkpt lat="43.52747" lon="5.60812">
        <ele>729</ele>
        <time>2022-10-19T09:42:56.630Z</time>
      </trkpt>
      <trkpt lat="43.52747" lon="5.60812">
        <ele>729</ele>
        <time>2022-10-19T09:42:57.630Z</time>
      </trkpt>
      <trkpt lat="43.52747" lon="5.60812">
        <ele>729</ele>
        <time>2022-10-19T09:42:58.630Z</time>
      </trkpt>
      <trkpt lat="43.52747" lon="5.60812">
        <ele>729</ele>
        <time>2022-10-19T09:42:59.630Z</time>
      </trkpt>
      <trkpt lat="43.52747" lon="5.60812">
        <ele>729</ele>
        <time>2022-10-19T09:43:00.630Z</time>
      </trkpt>
      <trkpt lat="43.52747" lon="5.60812">
        <ele>729</ele>
        <time>2022-10-19T09:43:01.630Z</time>
      </trkpt>
      <trkpt lat="43.52747" lon="5.60812">
        <ele>729</ele>
        <time>2022-10-19T09:43:02.630Z</time>
      </trkpt>
      <trkpt lat="43.52747" lon="5.60812">
        <ele>729</ele>
        <time>2022-10-19T09:43:03.630Z</time>
      </trkpt>
      <trkpt lat="43.52747" lon="5.60812">
        <ele>729</ele>
        <time>2022-10-19T09:43:04.630Z</time>
      </trkpt>
      <trkpt lat="43.52747" lon="5.60812">
        <ele>729</ele>
        <time>2022-10-19T09:43:05.630Z</time>
      </trkpt>
      <trkpt lat="43.52747" lon="5.60812">
        <ele>729</ele>
        <time>2022-10-19T09:43:06.630Z</time>
      </trkpt>
      <trkpt lat="43.52747" lon="5.60812">
        <ele>729</ele>
        <time>2022-10-19T09:43:07.630Z</time>
      </trkpt>
      <trkpt lat="43.52747" lon="5.60812">
        <ele>729</ele>
        <time>2022-10-19T09:43:08.630Z</time>
      </trkpt>
      <trkpt lat="43.52747" lon="5.60812">
        <ele>729</ele>
        <time>2022-10-19T09:43:09.630Z</time>
      </trkpt>
      <trkpt lat="43.52747" lon="5.60812">
        <ele>729</ele>
        <time>2022-10-19T09:43:10.630Z</time>
      </trkpt>
      <trkpt lat="43.52747" lon="5.60812">
        <ele>729</ele>
        <time>2022-10-19T09:43:11.630Z</time>
      </trkpt>
      <trkpt lat="43.52747" lon="5.60812">
        <ele>729</ele>
        <time>2022-10-19T09:43:12.630Z</time>
      </trkpt>
      <trkpt lat="43.52747" lon="5.60812">
        <ele>729</ele>
        <time>2022-10-19T09:43:13.630Z</time>
      </trkpt>
      <trkpt lat="43.52747" lon="5.60812">
        <ele>729</ele>
        <time>2022-10-19T09:43:14.630Z</time>
      </trkpt>
      <trkpt lat="43.52747" lon="5.60812">
        <ele>729</ele>
        <time>2022-10-19T09:43:15.630Z</time>
      </trkpt>
      <trkpt lat="43.52747" lon="5.60812">
        <ele>729</ele>
        <time>2022-10-19T09:43:16.630Z</time>
      </trkpt>
      <trkpt lat="43.52747" lon="5.60812">
        <ele>729</ele>
        <time>2022-10-19T09:43:17.630Z</time>
      </trkpt>
      <trkpt lat="43.52748" lon="5.60811">
        <ele>729</ele>
        <time>2022-10-19T09:43:18.630Z</time>
      </trkpt>
      <trkpt lat="43.52748" lon="5.60811">
        <ele>729</ele>
        <time>2022-10-19T09:43:19.630Z</time>
      </trkpt>
      <trkpt lat="43.52748" lon="5.60811">
        <ele>729</ele>
        <time>2022-10-19T09:43:20.630Z</time>
      </trkpt>
      <trkpt lat="43.52748" lon="5.60811">
        <ele>729</ele>
        <time>2022-10-19T09:43:21.630Z</time>
      </trkpt>
      <trkpt lat="43.52748" lon="5.60811">
        <ele>729</ele>
        <time>2022-10-19T09:43:22.630Z</time>
      </trkpt>
      <trkpt lat="43.52748" lon="5.6081">
        <ele>729</ele>
        <time>2022-10-19T09:43:23.630Z</time>
      </trkpt>
      <trkpt lat="43.52748" lon="5.6081">
        <ele>729</ele>
        <time>2022-10-19T09:43:24.630Z</time>
      </trkpt>
      <trkpt lat="43.52748" lon="5.6081">
        <ele>729</ele>
        <time>2022-10-19T09:43:25.630Z</time>
      </trkpt>
      <trkpt lat="43.52749" lon="5.60809">
        <ele>729</ele>
        <time>2022-10-19T09:43:26.630Z</time>
      </trkpt>
      <trkpt lat="43.52749" lon="5.60809">
        <ele>729</ele>
        <time>2022-10-19T09:43:27.630Z</time>
      </trkpt>
      <trkpt lat="43.52749" lon="5.60809">
        <ele>730</ele>
        <time>2022-10-19T09:43:28.630Z</time>
      </trkpt>
      <trkpt lat="43.52749" lon="5.60809">
        <ele>730</ele>
        <time>2022-10-19T09:43:29.630Z</time>
      </trkpt>
      <trkpt lat="43.52749" lon="5.60808">
        <ele>730</ele>
        <time>2022-10-19T09:43:30.630Z</time>
      </trkpt>
      <trkpt lat="43.52749" lon="5.60808">
        <ele>730</ele>
        <time>2022-10-19T09:43:31.630Z</time>
      </trkpt>
      <trkpt lat="43.52749" lon="5.60808">
        <ele>730</ele>
        <time>2022-10-19T09:43:32.630Z</time>
      </trkpt>
      <trkpt lat="43.52749" lon="5.60807">
        <ele>730</ele>
        <time>2022-10-19T09:43:33.630Z</time>
      </trkpt>
      <trkpt lat="43.52748" lon="5.60806">
        <ele>730</ele>
        <time>2022-10-19T09:43:34.630Z</time>
      </trkpt>
      <trkpt lat="43.52748" lon="5.60806">
        <ele>730</ele>
        <time>2022-10-19T09:43:35.630Z</time>
      </trkpt>
      <trkpt lat="43.52747" lon="5.60805">
        <ele>731</ele>
        <time>2022-10-19T09:43:36.630Z</time>
      </trkpt>
      <trkpt lat="43.52747" lon="5.60804">
        <ele>731</ele>
        <time>2022-10-19T09:43:37.630Z</time>
      </trkpt>
      <trkpt lat="43.52747" lon="5.60804">
        <ele>731</ele>
        <time>2022-10-19T09:43:38.630Z</time>
      </trkpt>
      <trkpt lat="43.52747" lon="5.60804">
        <ele>731</ele>
        <time>2022-10-19T09:43:39.630Z</time>
      </trkpt>
      <trkpt lat="43.52747" lon="5.60803">
        <ele>731</ele>
        <time>2022-10-19T09:43:40.630Z</time>
      </trkpt>
      <trkpt lat="43.52746" lon="5.60803">
        <ele>731</ele>
        <time>2022-10-19T09:43:41.630Z</time>
      </trkpt>
      <trkpt lat="43.52746" lon="5.60802">
        <ele>732</ele>
        <time>2022-10-19T09:43:42.630Z</time>
      </trkpt>
      <trkpt lat="43.52746" lon="5.60802">
        <ele>732</ele>
        <time>2022-10-19T09:43:43.630Z</time>
      </trkpt>
      <trkpt lat="43.52746" lon="5.60801">
        <ele>732</ele>
        <time>2022-10-19T09:43:44.630Z</time>
      </trkpt>
      <trkpt lat="43.52745" lon="5.608">
        <ele>732</ele>
        <time>2022-10-19T09:43:45.630Z</time>
      </trkpt>
      <trkpt lat="43.52745" lon="5.608">
        <ele>732</ele>
        <time>2022-10-19T09:43:46.630Z</time>
      </trkpt>
      <trkpt lat="43.52745" lon="5.60799">
        <ele>732</ele>
        <time>2022-10-19T09:43:47.630Z</time>
      </trkpt>
      <trkpt lat="43.52745" lon="5.60799">
        <ele>732</ele>
        <time>2022-10-19T09:43:48.630Z</time>
      </trkpt>
      <trkpt lat="43.52745" lon="5.60799">
        <ele>732</ele>
        <time>2022-10-19T09:43:49.630Z</time>
      </trkpt>
      <trkpt lat="43.52745" lon="5.60799">
        <ele>732</ele>
        <time>2022-10-19T09:43:50.630Z</time>
      </trkpt>
      <trkpt lat="43.52745" lon="5.60798">
        <ele>732</ele>
        <time>2022-10-19T09:43:51.630Z</time>
      </trkpt>
      <trkpt lat="43.52745" lon="5.60797">
        <ele>733</ele>
        <time>2022-10-19T09:43:52.630Z</time>
      </trkpt>
      <trkpt lat="43.52745" lon="5.60797">
        <ele>733</ele>
        <time>2022-10-19T09:43:53.630Z</time>
      </trkpt>
      <trkpt lat="43.52745" lon="5.60797">
        <ele>733</ele>
        <time>2022-10-19T09:43:54.630Z</time>
      </trkpt>
      <trkpt lat="43.52745" lon="5.60796">
        <ele>733</ele>
        <time>2022-10-19T09:43:55.630Z</time>
      </trkpt>
      <trkpt lat="43.52744" lon="5.60796">
        <ele>733</ele>
        <time>2022-10-19T09:43:56.630Z</time>
      </trkpt>
      <trkpt lat="43.52744" lon="5.60795">
        <ele>733</ele>
        <time>2022-10-19T09:43:57.630Z</time>
      </trkpt>
      <trkpt lat="43.52744" lon="5.60795">
        <ele>733</ele>
        <time>2022-10-19T09:43:58.630Z</time>
      </trkpt>
      <trkpt lat="43.52743" lon="5.60794">
        <ele>733</ele>
        <time>2022-10-19T09:43:59.630Z</time>
      </trkpt>
      <trkpt lat="43.52743" lon="5.60794">
        <ele>733</ele>
        <time>2022-10-19T09:44:00.630Z</time>
      </trkpt>
      <trkpt lat="43.52742" lon="5.60793">
        <ele>734</ele>
        <time>2022-10-19T09:44:01.630Z</time>
      </trkpt>
      <trkpt lat="43.52742" lon="5.60793">
        <ele>734</ele>
        <time>2022-10-19T09:44:02.630Z</time>
      </trkpt>
      <trkpt lat="43.52742" lon="5.60793">
        <ele>734</ele>
        <time>2022-10-19T09:44:03.630Z</time>
      </trkpt>
      <trkpt lat="43.52742" lon="5.60792">
        <ele>734</ele>
        <time>2022-10-19T09:44:04.630Z</time>
      </trkpt>
      <trkpt lat="43.52741" lon="5.60791">
        <ele>734</ele>
        <time>2022-10-19T09:44:05.630Z</time>
      </trkpt>
      <trkpt lat="43.52741" lon="5.60791">
        <ele>734</ele>
        <time>2022-10-19T09:44:06.630Z</time>
      </trkpt>
      <trkpt lat="43.5274" lon="5.60791">
        <ele>735</ele>
        <time>2022-10-19T09:44:07.630Z</time>
      </trkpt>
      <trkpt lat="43.52739" lon="5.6079">
        <ele>735</ele>
        <time>2022-10-19T09:44:08.630Z</time>
      </trkpt>
      <trkpt lat="43.52739" lon="5.6079">
        <ele>735</ele>
        <time>2022-10-19T09:44:09.630Z</time>
      </trkpt>
      <trkpt lat="43.52738" lon="5.60789">
        <ele>735</ele>
        <time>2022-10-19T09:44:10.630Z</time>
      </trkpt>
      <trkpt lat="43.52738" lon="5.60789">
        <ele>735</ele>
        <time>2022-10-19T09:44:11.630Z</time>
      </trkpt>
      <trkpt lat="43.52737" lon="5.60788">
        <ele>735</ele>
        <time>2022-10-19T09:44:12.630Z</time>
      </trkpt>
      <trkpt lat="43.52736" lon="5.60788">
        <ele>735</ele>
        <time>2022-10-19T09:44:13.630Z</time>
      </trkpt>
      <trkpt lat="43.52735" lon="5.60788">
        <ele>735</ele>
        <time>2022-10-19T09:44:14.630Z</time>
      </trkpt>
      <trkpt lat="43.52734" lon="5.60788">
        <ele>736</ele>
        <time>2022-10-19T09:44:15.630Z</time>
      </trkpt>
      <trkpt lat="43.52734" lon="5.60787">
        <ele>736</ele>
        <time>2022-10-19T09:44:16.630Z</time>
      </trkpt>
      <trkpt lat="43.52733" lon="5.60787">
        <ele>736</ele>
        <time>2022-10-19T09:44:17.630Z</time>
      </trkpt>
      <trkpt lat="43.52732" lon="5.60786">
        <ele>736</ele>
        <time>2022-10-19T09:44:18.630Z</time>
      </trkpt>
      <trkpt lat="43.52732" lon="5.60785">
        <ele>736</ele>
        <time>2022-10-19T09:44:19.630Z</time>
      </trkpt>
      <trkpt lat="43.52731" lon="5.60784">
        <ele>736</ele>
        <time>2022-10-19T09:44:20.630Z</time>
      </trkpt>
      <trkpt lat="43.52731" lon="5.60783">
        <ele>736</ele>
        <time>2022-10-19T09:44:21.630Z</time>
      </trkpt>
      <trkpt lat="43.52731" lon="5.60782">
        <ele>736</ele>
        <time>2022-10-19T09:44:22.630Z</time>
      </trkpt>
      <trkpt lat="43.5273" lon="5.60781">
        <ele>737</ele>
        <time>2022-10-19T09:44:23.630Z</time>
      </trkpt>
      <trkpt lat="43.5273" lon="5.6078">
        <ele>737</ele>
        <time>2022-10-19T09:44:24.630Z</time>
      </trkpt>
      <trkpt lat="43.5273" lon="5.6078">
        <ele>737</ele>
        <time>2022-10-19T09:44:25.630Z</time>
      </trkpt>
      <trkpt lat="43.52729" lon="5.60779">
        <ele>737</ele>
        <time>2022-10-19T09:44:26.630Z</time>
      </trkpt>
      <trkpt lat="43.52729" lon="5.60778">
        <ele>737</ele>
        <time>2022-10-19T09:44:27.630Z</time>
      </trkpt>
      <trkpt lat="43.52728" lon="5.60778">
        <ele>737</ele>
        <time>2022-10-19T09:44:28.630Z</time>
      </trkpt>
      <trkpt lat="43.52728" lon="5.60777">
        <ele>737</ele>
        <time>2022-10-19T09:44:29.630Z</time>
      </trkpt>
      <trkpt lat="43.52727" lon="5.60777">
        <ele>738</ele>
        <time>2022-10-19T09:44:30.630Z</time>
      </trkpt>
      <trkpt lat="43.52727" lon="5.60776">
        <ele>738</ele>
        <time>2022-10-19T09:44:31.630Z</time>
      </trkpt>
      <trkpt lat="43.52726" lon="5.60776">
        <ele>738</ele>
        <time>2022-10-19T09:44:32.630Z</time>
      </trkpt>
      <trkpt lat="43.52725" lon="5.60776">
        <ele>738</ele>
        <time>2022-10-19T09:44:33.630Z</time>
      </trkpt>
      <trkpt lat="43.52725" lon="5.60775">
        <ele>738</ele>
        <time>2022-10-19T09:44:34.630Z</time>
      </trkpt>
      <trkpt lat="43.52724" lon="5.60775">
        <ele>738</ele>
        <time>2022-10-19T09:44:35.630Z</time>
      </trkpt>
      <trkpt lat="43.52724" lon="5.60774">
        <ele>739</ele>
        <time>2022-10-19T09:44:36.630Z</time>
      </trkpt>
      <trkpt lat="43.52723" lon="5.60774">
        <ele>739</ele>
        <time>2022-10-19T09:44:37.630Z</time>
      </trkpt>
      <trkpt lat="43.52723" lon="5.60774">
        <ele>739</ele>
        <time>2022-10-19T09:44:38.630Z</time>
      </trkpt>
      <trkpt lat="43.52722" lon="5.60773">
        <ele>739</ele>
        <time>2022-10-19T09:44:39.630Z</time>
      </trkpt>
      <trkpt lat="43.52722" lon="5.60773">
        <ele>739</ele>
        <time>2022-10-19T09:44:40.630Z</time>
      </trkpt>
      <trkpt lat="43.52721" lon="5.60773">
        <ele>739</ele>
        <time>2022-10-19T09:44:41.630Z</time>
      </trkpt>
      <trkpt lat="43.5272" lon="5.60772">
        <ele>739</ele>
        <time>2022-10-19T09:44:42.630Z</time>
      </trkpt>
      <trkpt lat="43.5272" lon="5.60772">
        <ele>739</ele>
        <time>2022-10-19T09:44:43.630Z</time>
      </trkpt>
      <trkpt lat="43.52719" lon="5.60772">
        <ele>739</ele>
        <time>2022-10-19T09:44:44.630Z</time>
      </trkpt>
      <trkpt lat="43.52718" lon="5.60772">
        <ele>740</ele>
        <time>2022-10-19T09:44:45.630Z</time>
      </trkpt>
      <trkpt lat="43.52718" lon="5.60771">
        <ele>740</ele>
        <time>2022-10-19T09:44:46.630Z</time>
      </trkpt>
      <trkpt lat="43.52717" lon="5.60771">
        <ele>740</ele>
        <time>2022-10-19T09:44:47.630Z</time>
      </trkpt>
      <trkpt lat="43.52716" lon="5.60771">
        <ele>740</ele>
        <time>2022-10-19T09:44:48.630Z</time>
      </trkpt>
      <trkpt lat="43.52716" lon="5.60771">
        <ele>740</ele>
        <time>2022-10-19T09:44:49.630Z</time>
      </trkpt>
      <trkpt lat="43.52715" lon="5.6077">
        <ele>741</ele>
        <time>2022-10-19T09:44:50.630Z</time>
      </trkpt>
      <trkpt lat="43.52715" lon="5.6077">
        <ele>741</ele>
        <time>2022-10-19T09:44:51.630Z</time>
      </trkpt>
      <trkpt lat="43.52714" lon="5.60769">
        <ele>741</ele>
        <time>2022-10-19T09:44:52.630Z</time>
      </trkpt>
      <trkpt lat="43.52714" lon="5.60769">
        <ele>741</ele>
        <time>2022-10-19T09:44:53.630Z</time>
      </trkpt>
      <trkpt lat="43.52714" lon="5.60769">
        <ele>741</ele>
        <time>2022-10-19T09:44:54.630Z</time>
      </trkpt>
      <trkpt lat="43.52714" lon="5.60769">
        <ele>741</ele>
        <time>2022-10-19T09:44:55.630Z</time>
      </trkpt>
      <trkpt lat="43.52714" lon="5.60769">
        <ele>741</ele>
        <time>2022-10-19T09:44:56.630Z</time>
      </trkpt>
      <trkpt lat="43.52714" lon="5.60769">
        <ele>741</ele>
        <time>2022-10-19T09:44:57.630Z</time>
      </trkpt>
      <trkpt lat="43.52714" lon="5.60769">
        <ele>742</ele>
        <time>2022-10-19T09:44:58.630Z</time>
      </trkpt>
      <trkpt lat="43.52714" lon="5.60769">
        <ele>742</ele>
        <time>2022-10-19T09:44:59.630Z</time>
      </trkpt>
      <trkpt lat="43.52714" lon="5.60769">
        <ele>742</ele>
        <time>2022-10-19T09:45:00.630Z</time>
      </trkpt>
      <trkpt lat="43.52714" lon="5.6077">
        <ele>742</ele>
        <time>2022-10-19T09:45:01.630Z</time>
      </trkpt>
      <trkpt lat="43.52713" lon="5.6077">
        <ele>742</ele>
        <time>2022-10-19T09:45:02.630Z</time>
      </trkpt>
      <trkpt lat="43.52713" lon="5.6077">
        <ele>742</ele>
        <time>2022-10-19T09:45:03.630Z</time>
      </trkpt>
      <trkpt lat="43.52713" lon="5.60769">
        <ele>742</ele>
        <time>2022-10-19T09:45:04.630Z</time>
      </trkpt>
      <trkpt lat="43.52713" lon="5.60769">
        <ele>742</ele>
        <time>2022-10-19T09:45:05.630Z</time>
      </trkpt>
      <trkpt lat="43.52713" lon="5.60769">
        <ele>742</ele>
        <time>2022-10-19T09:45:06.630Z</time>
      </trkpt>
      <trkpt lat="43.52713" lon="5.60769">
        <ele>742</ele>
        <time>2022-10-19T09:45:07.630Z</time>
      </trkpt>
      <trkpt lat="43.52713" lon="5.60769">
        <ele>742</ele>
        <time>2022-10-19T09:45:08.630Z</time>
      </trkpt>
      <trkpt lat="43.52713" lon="5.60769">
        <ele>742</ele>
        <time>2022-10-19T09:45:09.630Z</time>
      </trkpt>
      <trkpt lat="43.52713" lon="5.60769">
        <ele>742</ele>
        <time>2022-10-19T09:45:10.630Z</time>
      </trkpt>
      <trkpt lat="43.52713" lon="5.60769">
        <ele>742</ele>
        <time>2022-10-19T09:45:11.630Z</time>
      </trkpt>
      <trkpt lat="43.52713" lon="5.60769">
        <ele>742</ele>
        <time>2022-10-19T09:45:12.630Z</time>
      </trkpt>
      <trkpt lat="43.52713" lon="5.60769">
        <ele>742</ele>
        <time>2022-10-19T09:45:13.630Z</time>
      </trkpt>
      <trkpt lat="43.52713" lon="5.60769">
        <ele>742</ele>
        <time>2022-10-19T09:45:14.630Z</time>
      </trkpt>
      <trkpt lat="43.52713" lon="5.60769">
        <ele>742</ele>
        <time>2022-10-19T09:45:15.630Z</time>
      </trkpt>
      <trkpt lat="43.52713" lon="5.60769">
        <ele>742</ele>
        <time>2022-10-19T09:45:16.630Z</time>
      </trkpt>
      <trkpt lat="43.52712" lon="5.60769">
        <ele>742</ele>
        <time>2022-10-19T09:45:17.630Z</time>
      </trkpt>
      <trkpt lat="43.52712" lon="5.60769">
        <ele>742</ele>
        <time>2022-10-19T09:45:18.630Z</time>
      </trkpt>
      <trkpt lat="43.52712" lon="5.60769">
        <ele>742</ele>
        <time>2022-10-19T09:45:19.630Z</time>
      </trkpt>
      <trkpt lat="43.52712" lon="5.60769">
        <ele>742</ele>
        <time>2022-10-19T09:45:20.630Z</time>
      </trkpt>
      <trkpt lat="43.52712" lon="5.60769">
        <ele>742</ele>
        <time>2022-10-19T09:45:21.630Z</time>
      </trkpt>
      <trkpt lat="43.52712" lon="5.60769">
        <ele>742</ele>
        <time>2022-10-19T09:45:22.630Z</time>
      </trkpt>
      <trkpt lat="43.52712" lon="5.60769">
        <ele>742</ele>
        <time>2022-10-19T09:45:23.630Z</time>
      </trkpt>
      <trkpt lat="43.52712" lon="5.60769">
        <ele>742</ele>
        <time>2022-10-19T09:45:24.630Z</time>
      </trkpt>
      <trkpt lat="43.52712" lon="5.60769">
        <ele>742</ele>
        <time>2022-10-19T09:45:25.630Z</time>
      </trkpt>
      <trkpt lat="43.52712" lon="5.60769">
        <ele>742</ele>
        <time>2022-10-19T09:45:26.630Z</time>
      </trkpt>
      <trkpt lat="43.52712" lon="5.60768">
        <ele>742</ele>
        <time>2022-10-19T09:45:27.630Z</time>
      </trkpt>
      <trkpt lat="43.52712" lon="5.60768">
        <ele>742</ele>
        <time>2022-10-19T09:45:28.630Z</time>
      </trkpt>
      <trkpt lat="43.52712" lon="5.60768">
        <ele>742</ele>
        <time>2022-10-19T09:45:29.630Z</time>
      </trkpt>
      <trkpt lat="43.52712" lon="5.60769">
        <ele>742</ele>
        <time>2022-10-19T09:45:30.630Z</time>
      </trkpt>
      <trkpt lat="43.52712" lon="5.60769">
        <ele>743</ele>
        <time>2022-10-19T09:45:31.630Z</time>
      </trkpt>
      <trkpt lat="43.52712" lon="5.60768">
        <ele>743</ele>
        <time>2022-10-19T09:45:32.630Z</time>
      </trkpt>
      <trkpt lat="43.52712" lon="5.60769">
        <ele>743</ele>
        <time>2022-10-19T09:45:33.630Z</time>
      </trkpt>
      <trkpt lat="43.52712" lon="5.60769">
        <ele>743</ele>
        <time>2022-10-19T09:45:34.630Z</time>
      </trkpt>
      <trkpt lat="43.52712" lon="5.60768">
        <ele>743</ele>
        <time>2022-10-19T09:45:35.630Z</time>
      </trkpt>
      <trkpt lat="43.52712" lon="5.60768">
        <ele>743</ele>
        <time>2022-10-19T09:45:36.630Z</time>
      </trkpt>
      <trkpt lat="43.52712" lon="5.60768">
        <ele>743</ele>
        <time>2022-10-19T09:45:37.630Z</time>
      </trkpt>
      <trkpt lat="43.52712" lon="5.60768">
        <ele>743</ele>
        <time>2022-10-19T09:45:38.630Z</time>
      </trkpt>
      <trkpt lat="43.52712" lon="5.60768">
        <ele>743</ele>
        <time>2022-10-19T09:45:39.630Z</time>
      </trkpt>
      <trkpt lat="43.52712" lon="5.60769">
        <ele>743</ele>
        <time>2022-10-19T09:45:40.630Z</time>
      </trkpt>
      <trkpt lat="43.52712" lon="5.60769">
        <ele>743</ele>
        <time>2022-10-19T09:45:41.630Z</time>
      </trkpt>
      <trkpt lat="43.52712" lon="5.60769">
        <ele>743</ele>
        <time>2022-10-19T09:45:42.630Z</time>
      </trkpt>
      <trkpt lat="43.52712" lon="5.60769">
        <ele>743</ele>
        <time>2022-10-19T09:45:43.630Z</time>
      </trkpt>
      <trkpt lat="43.52712" lon="5.60769">
        <ele>743</ele>
        <time>2022-10-19T09:45:44.630Z</time>
      </trkpt>
      <trkpt lat="43.52712" lon="5.60768">
        <ele>743</ele>
        <time>2022-10-19T09:45:45.630Z</time>
      </trkpt>
      <trkpt lat="43.52712" lon="5.60768">
        <ele>743</ele>
        <time>2022-10-19T09:45:46.630Z</time>
      </trkpt>
      <trkpt lat="43.52711" lon="5.60768">
        <ele>743</ele>
        <time>2022-10-19T09:45:47.630Z</time>
      </trkpt>
      <trkpt lat="43.52711" lon="5.60769">
        <ele>743</ele>
        <time>2022-10-19T09:45:48.630Z</time>
      </trkpt>
      <trkpt lat="43.52711" lon="5.60769">
        <ele>743</ele>
        <time>2022-10-19T09:45:49.630Z</time>
      </trkpt>
      <trkpt lat="43.52711" lon="5.60769">
        <ele>743</ele>
        <time>2022-10-19T09:45:50.630Z</time>
      </trkpt>
      <trkpt lat="43.52711" lon="5.60769">
        <ele>743</ele>
        <time>2022-10-19T09:45:51.630Z</time>
      </trkpt>
      <trkpt lat="43.52711" lon="5.60768">
        <ele>743</ele>
        <time>2022-10-19T09:45:52.630Z</time>
      </trkpt>
      <trkpt lat="43.52711" lon="5.60768">
        <ele>743</ele>
        <time>2022-10-19T09:45:53.630Z</time>
      </trkpt>
      <trkpt lat="43.52711" lon="5.60768">
        <ele>743</ele>
        <time>2022-10-19T09:45:54.630Z</time>
      </trkpt>
      <trkpt lat="43.52711" lon="5.60768">
        <ele>743</ele>
        <time>2022-10-19T09:45:55.630Z</time>
      </trkpt>
      <trkpt lat="43.52711" lon="5.60768">
        <ele>743</ele>
        <time>2022-10-19T09:45:56.630Z</time>
      </trkpt>
      <trkpt lat="43.52711" lon="5.60768">
        <ele>743</ele>
        <time>2022-10-19T09:45:57.630Z</time>
      </trkpt>
      <trkpt lat="43.52711" lon="5.60768">
        <ele>743</ele>
        <time>2022-10-19T09:45:58.630Z</time>
      </trkpt>
      <trkpt lat="43.52711" lon="5.60768">
        <ele>743</ele>
        <time>2022-10-19T09:45:59.630Z</time>
      </trkpt>
      <trkpt lat="43.52711" lon="5.60768">
        <ele>743</ele>
        <time>2022-10-19T09:46:00.630Z</time>
      </trkpt>
      <trkpt lat="43.52711" lon="5.60768">
        <ele>743</ele>
        <time>2022-10-19T09:46:01.630Z</time>
      </trkpt>
      <trkpt lat="43.52711" lon="5.60768">
        <ele>743</ele>
        <time>2022-10-19T09:46:02.630Z</time>
      </trkpt>
      <trkpt lat="43.52711" lon="5.60768">
        <ele>743</ele>
        <time>2022-10-19T09:46:03.630Z</time>
      </trkpt>
      <trkpt lat="43.52711" lon="5.60768">
        <ele>743</ele>
        <time>2022-10-19T09:46:04.630Z</time>
      </trkpt>
      <trkpt lat="43.52711" lon="5.60768">
        <ele>743</ele>
        <time>2022-10-19T09:46:05.630Z</time>
      </trkpt>
      <trkpt lat="43.52711" lon="5.60768">
        <ele>743</ele>
        <time>2022-10-19T09:46:06.630Z</time>
      </trkpt>
      <trkpt lat="43.52711" lon="5.60768">
        <ele>743</ele>
        <time>2022-10-19T09:46:07.630Z</time>
      </trkpt>
      <trkpt lat="43.52711" lon="5.60768">
        <ele>743</ele>
        <time>2022-10-19T09:46:08.630Z</time>
      </trkpt>
      <trkpt lat="43.52711" lon="5.60768">
        <ele>743</ele>
        <time>2022-10-19T09:46:09.630Z</time>
      </trkpt>
      <trkpt lat="43.52711" lon="5.60768">
        <ele>743</ele>
        <time>2022-10-19T09:46:10.630Z</time>
      </trkpt>
      <trkpt lat="43.52711" lon="5.60768">
        <ele>743</ele>
        <time>2022-10-19T09:46:11.630Z</time>
      </trkpt>
      <trkpt lat="43.52711" lon="5.60768">
        <ele>743</ele>
        <time>2022-10-19T09:46:12.630Z</time>
      </trkpt>
      <trkpt lat="43.52712" lon="5.60768">
        <ele>743</ele>
        <time>2022-10-19T09:46:13.630Z</time>
      </trkpt>
      <trkpt lat="43.52712" lon="5.60768">
        <ele>743</ele>
        <time>2022-10-19T09:46:14.630Z</time>
      </trkpt>
      <trkpt lat="43.52711" lon="5.60768">
        <ele>743</ele>
        <time>2022-10-19T09:46:15.630Z</time>
      </trkpt>
      <trkpt lat="43.52711" lon="5.60768">
        <ele>743</ele>
        <time>2022-10-19T09:46:16.630Z</time>
      </trkpt>
      <trkpt lat="43.52711" lon="5.60768">
        <ele>743</ele>
        <time>2022-10-19T09:46:17.630Z</time>
      </trkpt>
      <trkpt lat="43.52711" lon="5.60768">
        <ele>743</ele>
        <time>2022-10-19T09:46:18.630Z</time>
      </trkpt>
      <trkpt lat="43.52712" lon="5.60768">
        <ele>743</ele>
        <time>2022-10-19T09:46:19.630Z</time>
      </trkpt>
      <trkpt lat="43.52712" lon="5.60768">
        <ele>743</ele>
        <time>2022-10-19T09:46:20.630Z</time>
      </trkpt>
      <trkpt lat="43.52712" lon="5.60768">
        <ele>743</ele>
        <time>2022-10-19T09:46:21.630Z</time>
      </trkpt>
      <trkpt lat="43.52712" lon="5.60768">
        <ele>743</ele>
        <time>2022-10-19T09:46:22.630Z</time>
      </trkpt>
      <trkpt lat="43.52712" lon="5.60768">
        <ele>743</ele>
        <time>2022-10-19T09:46:23.630Z</time>
      </trkpt>
      <trkpt lat="43.52712" lon="5.60768">
        <ele>743</ele>
        <time>2022-10-19T09:46:24.630Z</time>
      </trkpt>
      <trkpt lat="43.52712" lon="5.60768">
        <ele>743</ele>
        <time>2022-10-19T09:46:25.630Z</time>
      </trkpt>
      <trkpt lat="43.52712" lon="5.60768">
        <ele>743</ele>
        <time>2022-10-19T09:46:26.630Z</time>
      </trkpt>
      <trkpt lat="43.52712" lon="5.60768">
        <ele>743</ele>
        <time>2022-10-19T09:46:27.630Z</time>
      </trkpt>
      <trkpt lat="43.52712" lon="5.60768">
        <ele>743</ele>
        <time>2022-10-19T09:46:28.630Z</time>
      </trkpt>
      <trkpt lat="43.52712" lon="5.60768">
        <ele>743</ele>
        <time>2022-10-19T09:46:29.630Z</time>
      </trkpt>
      <trkpt lat="43.52712" lon="5.60768">
        <ele>743</ele>
        <time>2022-10-19T09:46:30.630Z</time>
      </trkpt>
      <trkpt lat="43.52712" lon="5.60768">
        <ele>743</ele>
        <time>2022-10-19T09:46:31.630Z</time>
      </trkpt>
      <trkpt lat="43.52712" lon="5.60768">
        <ele>743</ele>
        <time>2022-10-19T09:46:32.630Z</time>
      </trkpt>
      <trkpt lat="43.52712" lon="5.60768">
        <ele>743</ele>
        <time>2022-10-19T09:46:33.630Z</time>
      </trkpt>
      <trkpt lat="43.52712" lon="5.60768">
        <ele>743</ele>
        <time>2022-10-19T09:46:34.630Z</time>
      </trkpt>
      <trkpt lat="43.52712" lon="5.60768">
        <ele>743</ele>
        <time>2022-10-19T09:46:35.630Z</time>
      </trkpt>
      <trkpt lat="43.52712" lon="5.60768">
        <ele>743</ele>
        <time>2022-10-19T09:46:36.630Z</time>
      </trkpt>
      <trkpt lat="43.52712" lon="5.60768">
        <ele>743</ele>
        <time>2022-10-19T09:46:37.630Z</time>
      </trkpt>
      <trkpt lat="43.52712" lon="5.60768">
        <ele>743</ele>
        <time>2022-10-19T09:46:38.630Z</time>
      </trkpt>
      <trkpt lat="43.52712" lon="5.60767">
        <ele>743</ele>
        <time>2022-10-19T09:46:39.630Z</time>
      </trkpt>
      <trkpt lat="43.52712" lon="5.60767">
        <ele>743</ele>
        <time>2022-10-19T09:46:40.630Z</time>
      </trkpt>
      <trkpt lat="43.52712" lon="5.60767">
        <ele>743</ele>
        <time>2022-10-19T09:46:41.630Z</time>
      </trkpt>
      <trkpt lat="43.52711" lon="5.60767">
        <ele>743</ele>
        <time>2022-10-19T09:46:42.630Z</time>
      </trkpt>
      <trkpt lat="43.52711" lon="5.60767">
        <ele>743</ele>
        <time>2022-10-19T09:46:43.630Z</time>
      </trkpt>
      <trkpt lat="43.52711" lon="5.60767">
        <ele>743</ele>
        <time>2022-10-19T09:46:44.630Z</time>
      </trkpt>
      <trkpt lat="43.52712" lon="5.60767">
        <ele>743</ele>
        <time>2022-10-19T09:46:45.630Z</time>
      </trkpt>
      <trkpt lat="43.52712" lon="5.60767">
        <ele>743</ele>
        <time>2022-10-19T09:46:46.630Z</time>
      </trkpt>
      <trkpt lat="43.52712" lon="5.60767">
        <ele>743</ele>
        <time>2022-10-19T09:46:47.630Z</time>
      </trkpt>
      <trkpt lat="43.52711" lon="5.60767">
        <ele>743</ele>
        <time>2022-10-19T09:46:48.630Z</time>
      </trkpt>
      <trkpt lat="43.52711" lon="5.60767">
        <ele>743</ele>
        <time>2022-10-19T09:46:49.630Z</time>
      </trkpt>
      <trkpt lat="43.52711" lon="5.60767">
        <ele>743</ele>
        <time>2022-10-19T09:46:50.630Z</time>
      </trkpt>
      <trkpt lat="43.52711" lon="5.60767">
        <ele>743</ele>
        <time>2022-10-19T09:46:51.630Z</time>
      </trkpt>
      <trkpt lat="43.52711" lon="5.60767">
        <ele>743</ele>
        <time>2022-10-19T09:46:52.630Z</time>
      </trkpt>
      <trkpt lat="43.52711" lon="5.60767">
        <ele>743</ele>
        <time>2022-10-19T09:46:53.630Z</time>
      </trkpt>
      <trkpt lat="43.52711" lon="5.60767">
        <ele>743</ele>
        <time>2022-10-19T09:46:54.630Z</time>
      </trkpt>
      <trkpt lat="43.52711" lon="5.60767">
        <ele>743</ele>
        <time>2022-10-19T09:46:55.630Z</time>
      </trkpt>
      <trkpt lat="43.52711" lon="5.60767">
        <ele>743</ele>
        <time>2022-10-19T09:46:56.630Z</time>
      </trkpt>
      <trkpt lat="43.52711" lon="5.60767">
        <ele>743</ele>
        <time>2022-10-19T09:46:57.630Z</time>
      </trkpt>
      <trkpt lat="43.52711" lon="5.60767">
        <ele>743</ele>
        <time>2022-10-19T09:46:58.630Z</time>
      </trkpt>
      <trkpt lat="43.52711" lon="5.60767">
        <ele>743</ele>
        <time>2022-10-19T09:46:59.630Z</time>
      </trkpt>
      <trkpt lat="43.52711" lon="5.60767">
        <ele>743</ele>
        <time>2022-10-19T09:47:00.630Z</time>
      </trkpt>
      <trkpt lat="43.52711" lon="5.60767">
        <ele>743</ele>
        <time>2022-10-19T09:47:01.630Z</time>
      </trkpt>
      <trkpt lat="43.52711" lon="5.60767">
        <ele>743</ele>
        <time>2022-10-19T09:47:02.630Z</time>
      </trkpt>
      <trkpt lat="43.52711" lon="5.60767">
        <ele>743</ele>
        <time>2022-10-19T09:47:03.630Z</time>
      </trkpt>
      <trkpt lat="43.52711" lon="5.60767">
        <ele>743</ele>
        <time>2022-10-19T09:47:04.630Z</time>
      </trkpt>
      <trkpt lat="43.52711" lon="5.60767">
        <ele>743</ele>
        <time>2022-10-19T09:47:05.630Z</time>
      </trkpt>
      <trkpt lat="43.52711" lon="5.60766">
        <ele>743</ele>
        <time>2022-10-19T09:47:06.630Z</time>
      </trkpt>
      <trkpt lat="43.52711" lon="5.60766">
        <ele>743</ele>
        <time>2022-10-19T09:47:07.630Z</time>
      </trkpt>
      <trkpt lat="43.52711" lon="5.60766">
        <ele>743</ele>
        <time>2022-10-19T09:47:08.630Z</time>
      </trkpt>
      <trkpt lat="43.52711" lon="5.60766">
        <ele>743</ele>
        <time>2022-10-19T09:47:09.630Z</time>
      </trkpt>
      <trkpt lat="43.52711" lon="5.60766">
        <ele>743</ele>
        <time>2022-10-19T09:47:10.630Z</time>
      </trkpt>
      <trkpt lat="43.52711" lon="5.60766">
        <ele>743</ele>
        <time>2022-10-19T09:47:11.630Z</time>
      </trkpt>
      <trkpt lat="43.52711" lon="5.60766">
        <ele>743</ele>
        <time>2022-10-19T09:47:12.630Z</time>
      </trkpt>
      <trkpt lat="43.52711" lon="5.60766">
        <ele>743</ele>
        <time>2022-10-19T09:47:13.630Z</time>
      </trkpt>
      <trkpt lat="43.52711" lon="5.60766">
        <ele>743</ele>
        <time>2022-10-19T09:47:14.630Z</time>
      </trkpt>
      <trkpt lat="43.52711" lon="5.60766">
        <ele>743</ele>
        <time>2022-10-19T09:47:15.630Z</time>
      </trkpt>
      <trkpt lat="43.52711" lon="5.60766">
        <ele>743</ele>
        <time>2022-10-19T09:47:16.630Z</time>
      </trkpt>
      <trkpt lat="43.52711" lon="5.60766">
        <ele>743</ele>
        <time>2022-10-19T09:47:17.630Z</time>
      </trkpt>
      <trkpt lat="43.52711" lon="5.60766">
        <ele>744</ele>
        <time>2022-10-19T09:47:18.630Z</time>
      </trkpt>
      <trkpt lat="43.52711" lon="5.60766">
        <ele>744</ele>
        <time>2022-10-19T09:47:19.630Z</time>
      </trkpt>
      <trkpt lat="43.52711" lon="5.60766">
        <ele>744</ele>
        <time>2022-10-19T09:47:20.630Z</time>
      </trkpt>
      <trkpt lat="43.52711" lon="5.60766">
        <ele>744</ele>
        <time>2022-10-19T09:47:21.630Z</time>
      </trkpt>
      <trkpt lat="43.52711" lon="5.60766">
        <ele>744</ele>
        <time>2022-10-19T09:47:22.630Z</time>
      </trkpt>
      <trkpt lat="43.52711" lon="5.60766">
        <ele>744</ele>
        <time>2022-10-19T09:47:23.630Z</time>
      </trkpt>
      <trkpt lat="43.52711" lon="5.60766">
        <ele>744</ele>
        <time>2022-10-19T09:47:24.630Z</time>
      </trkpt>
      <trkpt lat="43.52711" lon="5.60766">
        <ele>744</ele>
        <time>2022-10-19T09:47:25.630Z</time>
      </trkpt>
      <trkpt lat="43.52711" lon="5.60767">
        <ele>744</ele>
        <time>2022-10-19T09:47:26.630Z</time>
      </trkpt>
      <trkpt lat="43.52711" lon="5.60767">
        <ele>744</ele>
        <time>2022-10-19T09:47:27.630Z</time>
      </trkpt>
      <trkpt lat="43.52711" lon="5.60767">
        <ele>744</ele>
        <time>2022-10-19T09:47:28.630Z</time>
      </trkpt>
      <trkpt lat="43.52711" lon="5.60767">
        <ele>744</ele>
        <time>2022-10-19T09:47:29.630Z</time>
      </trkpt>
      <trkpt lat="43.52711" lon="5.60767">
        <ele>744</ele>
        <time>2022-10-19T09:47:30.630Z</time>
      </trkpt>
      <trkpt lat="43.52711" lon="5.60766">
        <ele>744</ele>
        <time>2022-10-19T09:47:31.630Z</time>
      </trkpt>
      <trkpt lat="43.52711" lon="5.60766">
        <ele>744</ele>
        <time>2022-10-19T09:47:32.630Z</time>
      </trkpt>
      <trkpt lat="43.52711" lon="5.60766">
        <ele>744</ele>
        <time>2022-10-19T09:47:33.630Z</time>
      </trkpt>
      <trkpt lat="43.52711" lon="5.60766">
        <ele>744</ele>
        <time>2022-10-19T09:47:34.630Z</time>
      </trkpt>
      <trkpt lat="43.52711" lon="5.60766">
        <ele>744</ele>
        <time>2022-10-19T09:47:35.630Z</time>
      </trkpt>
      <trkpt lat="43.52711" lon="5.60766">
        <ele>744</ele>
        <time>2022-10-19T09:47:36.630Z</time>
      </trkpt>
      <trkpt lat="43.52711" lon="5.60766">
        <ele>744</ele>
        <time>2022-10-19T09:47:37.630Z</time>
      </trkpt>
      <trkpt lat="43.52711" lon="5.60766">
        <ele>744</ele>
        <time>2022-10-19T09:47:38.630Z</time>
      </trkpt>
      <trkpt lat="43.52711" lon="5.60766">
        <ele>744</ele>
        <time>2022-10-19T09:47:39.630Z</time>
      </trkpt>
      <trkpt lat="43.52711" lon="5.60766">
        <ele>744</ele>
        <time>2022-10-19T09:47:40.630Z</time>
      </trkpt>
      <trkpt lat="43.52711" lon="5.60766">
        <ele>744</ele>
        <time>2022-10-19T09:47:41.630Z</time>
      </trkpt>
      <trkpt lat="43.52711" lon="5.60767">
        <ele>744</ele>
        <time>2022-10-19T09:47:42.630Z</time>
      </trkpt>
      <trkpt lat="43.52711" lon="5.60767">
        <ele>744</ele>
        <time>2022-10-19T09:47:43.630Z</time>
      </trkpt>
      <trkpt lat="43.52711" lon="5.60767">
        <ele>744</ele>
        <time>2022-10-19T09:47:44.630Z</time>
      </trkpt>
      <trkpt lat="43.52711" lon="5.60767">
        <ele>744</ele>
        <time>2022-10-19T09:47:45.630Z</time>
      </trkpt>
      <trkpt lat="43.52711" lon="5.60767">
        <ele>744</ele>
        <time>2022-10-19T09:47:46.630Z</time>
      </trkpt>
      <trkpt lat="43.52711" lon="5.60767">
        <ele>744</ele>
        <time>2022-10-19T09:47:47.630Z</time>
      </trkpt>
      <trkpt lat="43.52711" lon="5.60767">
        <ele>744</ele>
        <time>2022-10-19T09:47:48.630Z</time>
      </trkpt>
      <trkpt lat="43.52711" lon="5.60767">
        <ele>744</ele>
        <time>2022-10-19T09:47:49.630Z</time>
      </trkpt>
      <trkpt lat="43.52711" lon="5.60767">
        <ele>744</ele>
        <time>2022-10-19T09:47:50.630Z</time>
      </trkpt>
      <trkpt lat="43.52711" lon="5.60767">
        <ele>744</ele>
        <time>2022-10-19T09:47:51.630Z</time>
      </trkpt>
      <trkpt lat="43.52711" lon="5.60767">
        <ele>744</ele>
        <time>2022-10-19T09:47:52.630Z</time>
      </trkpt>
      <trkpt lat="43.52711" lon="5.60767">
        <ele>744</ele>
        <time>2022-10-19T09:47:53.630Z</time>
      </trkpt>
      <trkpt lat="43.52711" lon="5.60767">
        <ele>744</ele>
        <time>2022-10-19T09:47:54.630Z</time>
      </trkpt>
      <trkpt lat="43.52711" lon="5.60767">
        <ele>744</ele>
        <time>2022-10-19T09:47:55.630Z</time>
      </trkpt>
      <trkpt lat="43.52711" lon="5.60767">
        <ele>744</ele>
        <time>2022-10-19T09:47:56.630Z</time>
      </trkpt>
      <trkpt lat="43.52711" lon="5.60767">
        <ele>744</ele>
        <time>2022-10-19T09:47:57.630Z</time>
      </trkpt>
      <trkpt lat="43.52711" lon="5.60767">
        <ele>744</ele>
        <time>2022-10-19T09:47:58.630Z</time>
      </trkpt>
      <trkpt lat="43.52711" lon="5.60767">
        <ele>744</ele>
        <time>2022-10-19T09:47:59.630Z</time>
      </trkpt>
      <trkpt lat="43.52711" lon="5.60767">
        <ele>744</ele>
        <time>2022-10-19T09:48:00.630Z</time>
      </trkpt>
      <trkpt lat="43.52711" lon="5.60767">
        <ele>744</ele>
        <time>2022-10-19T09:48:01.630Z</time>
      </trkpt>
      <trkpt lat="43.52711" lon="5.60767">
        <ele>744</ele>
        <time>2022-10-19T09:48:02.630Z</time>
      </trkpt>
      <trkpt lat="43.52711" lon="5.60767">
        <ele>744</ele>
        <time>2022-10-19T09:48:03.630Z</time>
      </trkpt>
      <trkpt lat="43.52711" lon="5.60767">
        <ele>744</ele>
        <time>2022-10-19T09:48:04.630Z</time>
      </trkpt>
      <trkpt lat="43.52711" lon="5.60767">
        <ele>743</ele>
        <time>2022-10-19T09:48:05.630Z</time>
      </trkpt>
      <trkpt lat="43.52711" lon="5.60767">
        <ele>743</ele>
        <time>2022-10-19T09:48:06.630Z</time>
      </trkpt>
      <trkpt lat="43.52711" lon="5.60767">
        <ele>743</ele>
        <time>2022-10-19T09:48:07.630Z</time>
      </trkpt>
      <trkpt lat="43.52711" lon="5.60767">
        <ele>743</ele>
        <time>2022-10-19T09:48:08.630Z</time>
      </trkpt>
      <trkpt lat="43.52711" lon="5.60767">
        <ele>743</ele>
        <time>2022-10-19T09:48:09.630Z</time>
      </trkpt>
      <trkpt lat="43.52711" lon="5.60767">
        <ele>743</ele>
        <time>2022-10-19T09:48:10.630Z</time>
      </trkpt>
      <trkpt lat="43.52711" lon="5.60767">
        <ele>743</ele>
        <time>2022-10-19T09:48:11.630Z</time>
      </trkpt>
      <trkpt lat="43.52711" lon="5.60767">
        <ele>743</ele>
        <time>2022-10-19T09:48:12.630Z</time>
      </trkpt>
      <trkpt lat="43.52711" lon="5.60767">
        <ele>743</ele>
        <time>2022-10-19T09:48:13.630Z</time>
      </trkpt>
      <trkpt lat="43.52711" lon="5.60767">
        <ele>743</ele>
        <time>2022-10-19T09:48:14.630Z</time>
      </trkpt>
      <trkpt lat="43.52711" lon="5.60767">
        <ele>743</ele>
        <time>2022-10-19T09:48:15.630Z</time>
      </trkpt>
      <trkpt lat="43.52711" lon="5.60767">
        <ele>743</ele>
        <time>2022-10-19T09:48:16.630Z</time>
      </trkpt>
      <trkpt lat="43.52711" lon="5.60767">
        <ele>743</ele>
        <time>2022-10-19T09:48:17.630Z</time>
      </trkpt>
      <trkpt lat="43.52711" lon="5.60767">
        <ele>743</ele>
        <time>2022-10-19T09:48:18.630Z</time>
      </trkpt>
      <trkpt lat="43.52711" lon="5.60767">
        <ele>743</ele>
        <time>2022-10-19T09:48:19.630Z</time>
      </trkpt>
      <trkpt lat="43.52711" lon="5.60767">
        <ele>743</ele>
        <time>2022-10-19T09:48:20.630Z</time>
      </trkpt>
      <trkpt lat="43.52711" lon="5.60767">
        <ele>743</ele>
        <time>2022-10-19T09:48:21.630Z</time>
      </trkpt>
      <trkpt lat="43.52711" lon="5.60767">
        <ele>743</ele>
        <time>2022-10-19T09:48:22.630Z</time>
      </trkpt>
      <trkpt lat="43.52711" lon="5.60767">
        <ele>743</ele>
        <time>2022-10-19T09:48:23.630Z</time>
      </trkpt>
      <trkpt lat="43.52711" lon="5.60767">
        <ele>743</ele>
        <time>2022-10-19T09:48:24.630Z</time>
      </trkpt>
      <trkpt lat="43.52711" lon="5.60767">
        <ele>743</ele>
        <time>2022-10-19T09:48:25.630Z</time>
      </trkpt>
      <trkpt lat="43.52711" lon="5.60767">
        <ele>743</ele>
        <time>2022-10-19T09:48:26.630Z</time>
      </trkpt>
      <trkpt lat="43.52711" lon="5.60767">
        <ele>743</ele>
        <time>2022-10-19T09:48:27.630Z</time>
      </trkpt>
      <trkpt lat="43.52711" lon="5.60767">
        <ele>743</ele>
        <time>2022-10-19T09:48:28.630Z</time>
      </trkpt>
      <trkpt lat="43.52711" lon="5.60767">
        <ele>743</ele>
        <time>2022-10-19T09:48:29.630Z</time>
      </trkpt>
      <trkpt lat="43.52711" lon="5.60767">
        <ele>743</ele>
        <time>2022-10-19T09:48:30.630Z</time>
      </trkpt>
      <trkpt lat="43.52711" lon="5.60767">
        <ele>743</ele>
        <time>2022-10-19T09:48:31.630Z</time>
      </trkpt>
      <trkpt lat="43.52711" lon="5.60767">
        <ele>743</ele>
        <time>2022-10-19T09:48:32.630Z</time>
      </trkpt>
      <trkpt lat="43.52711" lon="5.60767">
        <ele>743</ele>
        <time>2022-10-19T09:48:33.630Z</time>
      </trkpt>
      <trkpt lat="43.52711" lon="5.60767">
        <ele>743</ele>
        <time>2022-10-19T09:48:34.630Z</time>
      </trkpt>
      <trkpt lat="43.52711" lon="5.60767">
        <ele>743</ele>
        <time>2022-10-19T09:48:35.630Z</time>
      </trkpt>
      <trkpt lat="43.52711" lon="5.60767">
        <ele>743</ele>
        <time>2022-10-19T09:48:36.630Z</time>
      </trkpt>
      <trkpt lat="43.52711" lon="5.60767">
        <ele>743</ele>
        <time>2022-10-19T09:48:37.630Z</time>
      </trkpt>
      <trkpt lat="43.52711" lon="5.60767">
        <ele>743</ele>
        <time>2022-10-19T09:48:38.630Z</time>
      </trkpt>
      <trkpt lat="43.52711" lon="5.60767">
        <ele>743</ele>
        <time>2022-10-19T09:48:39.630Z</time>
      </trkpt>
      <trkpt lat="43.52711" lon="5.60767">
        <ele>743</ele>
        <time>2022-10-19T09:48:40.630Z</time>
      </trkpt>
      <trkpt lat="43.52711" lon="5.60767">
        <ele>743</ele>
        <time>2022-10-19T09:48:41.630Z</time>
      </trkpt>
      <trkpt lat="43.52711" lon="5.60767">
        <ele>743</ele>
        <time>2022-10-19T09:48:42.630Z</time>
      </trkpt>
      <trkpt lat="43.52711" lon="5.60767">
        <ele>743</ele>
        <time>2022-10-19T09:48:43.630Z</time>
      </trkpt>
      <trkpt lat="43.52711" lon="5.60767">
        <ele>743</ele>
        <time>2022-10-19T09:48:44.630Z</time>
      </trkpt>
      <trkpt lat="43.52711" lon="5.60767">
        <ele>743</ele>
        <time>2022-10-19T09:48:45.630Z</time>
      </trkpt>
      <trkpt lat="43.52711" lon="5.60767">
        <ele>743</ele>
        <time>2022-10-19T09:48:46.630Z</time>
      </trkpt>
      <trkpt lat="43.52711" lon="5.60767">
        <ele>743</ele>
        <time>2022-10-19T09:48:47.630Z</time>
      </trkpt>
      <trkpt lat="43.52711" lon="5.60767">
        <ele>743</ele>
        <time>2022-10-19T09:48:48.630Z</time>
      </trkpt>
      <trkpt lat="43.52711" lon="5.60767">
        <ele>743</ele>
        <time>2022-10-19T09:48:49.630Z</time>
      </trkpt>
      <trkpt lat="43.52711" lon="5.60767">
        <ele>743</ele>
        <time>2022-10-19T09:48:50.630Z</time>
      </trkpt>
      <trkpt lat="43.52711" lon="5.60767">
        <ele>743</ele>
        <time>2022-10-19T09:48:51.630Z</time>
      </trkpt>
      <trkpt lat="43.52711" lon="5.60767">
        <ele>743</ele>
        <time>2022-10-19T09:48:52.630Z</time>
      </trkpt>
      <trkpt lat="43.52711" lon="5.60767">
        <ele>743</ele>
        <time>2022-10-19T09:48:53.630Z</time>
      </trkpt>
      <trkpt lat="43.52711" lon="5.60767">
        <ele>743</ele>
        <time>2022-10-19T09:48:54.630Z</time>
      </trkpt>
      <trkpt lat="43.52711" lon="5.60767">
        <ele>743</ele>
        <time>2022-10-19T09:48:55.630Z</time>
      </trkpt>
      <trkpt lat="43.52711" lon="5.60767">
        <ele>743</ele>
        <time>2022-10-19T09:48:56.630Z</time>
      </trkpt>
      <trkpt lat="43.52711" lon="5.60767">
        <ele>743</ele>
        <time>2022-10-19T09:48:57.630Z</time>
      </trkpt>
      <trkpt lat="43.52711" lon="5.60767">
        <ele>743</ele>
        <time>2022-10-19T09:48:58.630Z</time>
      </trkpt>
      <trkpt lat="43.52711" lon="5.60767">
        <ele>743</ele>
        <time>2022-10-19T09:48:59.630Z</time>
      </trkpt>
      <trkpt lat="43.52711" lon="5.60767">
        <ele>743</ele>
        <time>2022-10-19T09:49:00.630Z</time>
      </trkpt>
      <trkpt lat="43.52711" lon="5.60767">
        <ele>743</ele>
        <time>2022-10-19T09:49:01.630Z</time>
      </trkpt>
      <trkpt lat="43.52711" lon="5.60767">
        <ele>743</ele>
        <time>2022-10-19T09:49:02.630Z</time>
      </trkpt>
      <trkpt lat="43.52711" lon="5.60767">
        <ele>743</ele>
        <time>2022-10-19T09:49:03.630Z</time>
      </trkpt>
      <trkpt lat="43.52711" lon="5.60767">
        <ele>743</ele>
        <time>2022-10-19T09:49:04.630Z</time>
      </trkpt>
      <trkpt lat="43.52711" lon="5.60768">
        <ele>743</ele>
        <time>2022-10-19T09:49:05.630Z</time>
      </trkpt>
      <trkpt lat="43.52711" lon="5.60768">
        <ele>743</ele>
        <time>2022-10-19T09:49:06.630Z</time>
      </trkpt>
      <trkpt lat="43.52711" lon="5.60768">
        <ele>743</ele>
        <time>2022-10-19T09:49:07.630Z</time>
      </trkpt>
      <trkpt lat="43.52711" lon="5.60768">
        <ele>743</ele>
        <time>2022-10-19T09:49:08.630Z</time>
      </trkpt>
      <trkpt lat="43.52711" lon="5.60768">
        <ele>743</ele>
        <time>2022-10-19T09:49:09.630Z</time>
      </trkpt>
      <trkpt lat="43.52711" lon="5.60768">
        <ele>743</ele>
        <time>2022-10-19T09:49:10.630Z</time>
      </trkpt>
      <trkpt lat="43.52711" lon="5.60768">
        <ele>743</ele>
        <time>2022-10-19T09:49:11.630Z</time>
      </trkpt>
      <trkpt lat="43.52711" lon="5.60768">
        <ele>743</ele>
        <time>2022-10-19T09:49:12.630Z</time>
      </trkpt>
      <trkpt lat="43.52711" lon="5.60768">
        <ele>743</ele>
        <time>2022-10-19T09:49:13.630Z</time>
      </trkpt>
      <trkpt lat="43.52711" lon="5.60768">
        <ele>743</ele>
        <time>2022-10-19T09:49:14.630Z</time>
      </trkpt>
      <trkpt lat="43.52711" lon="5.60768">
        <ele>743</ele>
        <time>2022-10-19T09:49:15.630Z</time>
      </trkpt>
      <trkpt lat="43.52711" lon="5.60768">
        <ele>743</ele>
        <time>2022-10-19T09:49:16.630Z</time>
      </trkpt>
      <trkpt lat="43.52711" lon="5.60768">
        <ele>743</ele>
        <time>2022-10-19T09:49:17.630Z</time>
      </trkpt>
      <trkpt lat="43.52711" lon="5.60768">
        <ele>743</ele>
        <time>2022-10-19T09:49:18.630Z</time>
      </trkpt>
      <trkpt lat="43.52711" lon="5.60768">
        <ele>743</ele>
        <time>2022-10-19T09:49:19.630Z</time>
      </trkpt>
      <trkpt lat="43.52711" lon="5.60768">
        <ele>743</ele>
        <time>2022-10-19T09:49:20.630Z</time>
      </trkpt>
      <trkpt lat="43.52711" lon="5.60768">
        <ele>743</ele>
        <time>2022-10-19T09:49:21.630Z</time>
      </trkpt>
      <trkpt lat="43.52711" lon="5.60768">
        <ele>743</ele>
        <time>2022-10-19T09:49:22.630Z</time>
      </trkpt>
      <trkpt lat="43.52711" lon="5.60768">
        <ele>743</ele>
        <time>2022-10-19T09:49:23.630Z</time>
      </trkpt>
      <trkpt lat="43.52711" lon="5.60768">
        <ele>743</ele>
        <time>2022-10-19T09:49:24.630Z</time>
      </trkpt>
      <trkpt lat="43.52711" lon="5.60768">
        <ele>743</ele>
        <time>2022-10-19T09:49:25.630Z</time>
      </trkpt>
      <trkpt lat="43.52711" lon="5.60768">
        <ele>743</ele>
        <time>2022-10-19T09:49:26.630Z</time>
      </trkpt>
      <trkpt lat="43.52711" lon="5.60768">
        <ele>743</ele>
        <time>2022-10-19T09:49:27.630Z</time>
      </trkpt>
      <trkpt lat="43.52711" lon="5.60768">
        <ele>743</ele>
        <time>2022-10-19T09:49:28.630Z</time>
      </trkpt>
      <trkpt lat="43.52711" lon="5.60768">
        <ele>743</ele>
        <time>2022-10-19T09:49:29.630Z</time>
      </trkpt>
      <trkpt lat="43.52711" lon="5.60768">
        <ele>743</ele>
        <time>2022-10-19T09:49:30.630Z</time>
      </trkpt>
      <trkpt lat="43.52711" lon="5.60768">
        <ele>743</ele>
        <time>2022-10-19T09:49:31.630Z</time>
      </trkpt>
      <trkpt lat="43.52711" lon="5.60768">
        <ele>743</ele>
        <time>2022-10-19T09:49:32.630Z</time>
      </trkpt>
      <trkpt lat="43.52711" lon="5.60768">
        <ele>743</ele>
        <time>2022-10-19T09:49:33.630Z</time>
      </trkpt>
      <trkpt lat="43.52711" lon="5.60768">
        <ele>743</ele>
        <time>2022-10-19T09:49:34.630Z</time>
      </trkpt>
      <trkpt lat="43.52711" lon="5.60768">
        <ele>743</ele>
        <time>2022-10-19T09:49:35.630Z</time>
      </trkpt>
      <trkpt lat="43.52711" lon="5.60768">
        <ele>743</ele>
        <time>2022-10-19T09:49:36.630Z</time>
      </trkpt>
      <trkpt lat="43.52711" lon="5.60768">
        <ele>743</ele>
        <time>2022-10-19T09:49:37.630Z</time>
      </trkpt>
      <trkpt lat="43.52711" lon="5.60768">
        <ele>743</ele>
        <time>2022-10-19T09:49:38.630Z</time>
      </trkpt>
      <trkpt lat="43.52711" lon="5.60768">
        <ele>744</ele>
        <time>2022-10-19T09:49:39.630Z</time>
      </trkpt>
      <trkpt lat="43.52711" lon="5.60768">
        <ele>744</ele>
        <time>2022-10-19T09:49:40.630Z</time>
      </trkpt>
      <trkpt lat="43.52711" lon="5.60768">
        <ele>744</ele>
        <time>2022-10-19T09:49:41.630Z</time>
      </trkpt>
      <trkpt lat="43.52711" lon="5.60768">
        <ele>744</ele>
        <time>2022-10-19T09:49:42.630Z</time>
      </trkpt>
      <trkpt lat="43.52711" lon="5.60768">
        <ele>744</ele>
        <time>2022-10-19T09:49:43.630Z</time>
      </trkpt>
      <trkpt lat="43.52711" lon="5.60768">
        <ele>744</ele>
        <time>2022-10-19T09:49:44.630Z</time>
      </trkpt>
      <trkpt lat="43.52711" lon="5.60768">
        <ele>744</ele>
        <time>2022-10-19T09:49:45.630Z</time>
      </trkpt>
      <trkpt lat="43.52711" lon="5.60768">
        <ele>744</ele>
        <time>2022-10-19T09:49:46.630Z</time>
      </trkpt>
      <trkpt lat="43.52711" lon="5.60768">
        <ele>744</ele>
        <time>2022-10-19T09:49:47.630Z</time>
      </trkpt>
      <trkpt lat="43.52711" lon="5.60768">
        <ele>744</ele>
        <time>2022-10-19T09:49:48.630Z</time>
      </trkpt>
      <trkpt lat="43.52711" lon="5.60768">
        <ele>744</ele>
        <time>2022-10-19T09:49:49.630Z</time>
      </trkpt>
      <trkpt lat="43.52711" lon="5.60768">
        <ele>744</ele>
        <time>2022-10-19T09:49:50.630Z</time>
      </trkpt>
      <trkpt lat="43.52711" lon="5.60768">
        <ele>744</ele>
        <time>2022-10-19T09:49:51.630Z</time>
      </trkpt>
      <trkpt lat="43.52711" lon="5.60768">
        <ele>744</ele>
        <time>2022-10-19T09:49:52.630Z</time>
      </trkpt>
      <trkpt lat="43.52711" lon="5.60768">
        <ele>744</ele>
        <time>2022-10-19T09:49:53.630Z</time>
      </trkpt>
      <trkpt lat="43.52711" lon="5.60768">
        <ele>744</ele>
        <time>2022-10-19T09:49:54.630Z</time>
      </trkpt>
      <trkpt lat="43.52711" lon="5.60768">
        <ele>744</ele>
        <time>2022-10-19T09:49:55.630Z</time>
      </trkpt>
      <trkpt lat="43.52711" lon="5.60768">
        <ele>744</ele>
        <time>2022-10-19T09:49:56.630Z</time>
      </trkpt>
      <trkpt lat="43.52711" lon="5.60768">
        <ele>744</ele>
        <time>2022-10-19T09:49:57.630Z</time>
      </trkpt>
      <trkpt lat="43.52712" lon="5.60768">
        <ele>744</ele>
        <time>2022-10-19T09:49:58.630Z</time>
      </trkpt>
      <trkpt lat="43.52712" lon="5.60768">
        <ele>744</ele>
        <time>2022-10-19T09:49:59.630Z</time>
      </trkpt>
      <trkpt lat="43.52712" lon="5.60768">
        <ele>744</ele>
        <time>2022-10-19T09:50:00.630Z</time>
      </trkpt>
      <trkpt lat="43.52712" lon="5.60768">
        <ele>744</ele>
        <time>2022-10-19T09:50:01.630Z</time>
      </trkpt>
      <trkpt lat="43.52711" lon="5.60769">
        <ele>744</ele>
        <time>2022-10-19T09:50:02.630Z</time>
      </trkpt>
      <trkpt lat="43.52711" lon="5.60768">
        <ele>744</ele>
        <time>2022-10-19T09:50:03.630Z</time>
      </trkpt>
      <trkpt lat="43.52711" lon="5.60768">
        <ele>744</ele>
        <time>2022-10-19T09:50:04.630Z</time>
      </trkpt>
      <trkpt lat="43.52711" lon="5.60768">
        <ele>744</ele>
        <time>2022-10-19T09:50:05.630Z</time>
      </trkpt>
      <trkpt lat="43.52711" lon="5.60768">
        <ele>743</ele>
        <time>2022-10-19T09:50:06.630Z</time>
      </trkpt>
      <trkpt lat="43.52711" lon="5.60768">
        <ele>743</ele>
        <time>2022-10-19T09:50:07.630Z</time>
      </trkpt>
      <trkpt lat="43.52711" lon="5.60768">
        <ele>743</ele>
        <time>2022-10-19T09:50:08.630Z</time>
      </trkpt>
      <trkpt lat="43.52711" lon="5.60768">
        <ele>743</ele>
        <time>2022-10-19T09:50:09.630Z</time>
      </trkpt>
      <trkpt lat="43.52711" lon="5.60768">
        <ele>743</ele>
        <time>2022-10-19T09:50:10.630Z</time>
      </trkpt>
      <trkpt lat="43.52711" lon="5.60768">
        <ele>743</ele>
        <time>2022-10-19T09:50:11.630Z</time>
      </trkpt>
      <trkpt lat="43.52711" lon="5.60769">
        <ele>743</ele>
        <time>2022-10-19T09:50:12.630Z</time>
      </trkpt>
      <trkpt lat="43.52712" lon="5.60768">
        <ele>743</ele>
        <time>2022-10-19T09:50:13.630Z</time>
      </trkpt>
      <trkpt lat="43.52712" lon="5.60769">
        <ele>743</ele>
        <time>2022-10-19T09:50:14.630Z</time>
      </trkpt>
      <trkpt lat="43.52712" lon="5.60769">
        <ele>743</ele>
        <time>2022-10-19T09:50:15.630Z</time>
      </trkpt>
      <trkpt lat="43.52712" lon="5.60769">
        <ele>743</ele>
        <time>2022-10-19T09:50:16.630Z</time>
      </trkpt>
      <trkpt lat="43.52712" lon="5.60769">
        <ele>743</ele>
        <time>2022-10-19T09:50:17.630Z</time>
      </trkpt>
      <trkpt lat="43.52712" lon="5.60769">
        <ele>743</ele>
        <time>2022-10-19T09:50:18.630Z</time>
      </trkpt>
      <trkpt lat="43.52712" lon="5.60769">
        <ele>743</ele>
        <time>2022-10-19T09:50:19.630Z</time>
      </trkpt>
      <trkpt lat="43.52712" lon="5.60769">
        <ele>743</ele>
        <time>2022-10-19T09:50:20.630Z</time>
      </trkpt>
      <trkpt lat="43.52712" lon="5.60769">
        <ele>743</ele>
        <time>2022-10-19T09:50:21.630Z</time>
      </trkpt>
      <trkpt lat="43.52712" lon="5.60769">
        <ele>743</ele>
        <time>2022-10-19T09:50:22.630Z</time>
      </trkpt>
      <trkpt lat="43.52712" lon="5.60769">
        <ele>743</ele>
        <time>2022-10-19T09:50:23.630Z</time>
      </trkpt>
      <trkpt lat="43.52712" lon="5.60769">
        <ele>743</ele>
        <time>2022-10-19T09:50:24.630Z</time>
      </trkpt>
      <trkpt lat="43.52712" lon="5.60769">
        <ele>743</ele>
        <time>2022-10-19T09:50:25.630Z</time>
      </trkpt>
      <trkpt lat="43.52712" lon="5.60769">
        <ele>743</ele>
        <time>2022-10-19T09:50:26.630Z</time>
      </trkpt>
      <trkpt lat="43.52712" lon="5.60769">
        <ele>743</ele>
        <time>2022-10-19T09:50:27.630Z</time>
      </trkpt>
      <trkpt lat="43.52712" lon="5.60769">
        <ele>743</ele>
        <time>2022-10-19T09:50:28.630Z</time>
      </trkpt>
      <trkpt lat="43.52712" lon="5.60769">
        <ele>743</ele>
        <time>2022-10-19T09:50:29.630Z</time>
      </trkpt>
      <trkpt lat="43.52711" lon="5.60769">
        <ele>743</ele>
        <time>2022-10-19T09:50:30.630Z</time>
      </trkpt>
      <trkpt lat="43.52711" lon="5.60769">
        <ele>743</ele>
        <time>2022-10-19T09:50:31.630Z</time>
      </trkpt>
      <trkpt lat="43.52711" lon="5.60768">
        <ele>743</ele>
        <time>2022-10-19T09:50:32.630Z</time>
      </trkpt>
      <trkpt lat="43.52711" lon="5.60768">
        <ele>743</ele>
        <time>2022-10-19T09:50:33.630Z</time>
      </trkpt>
      <trkpt lat="43.52711" lon="5.60768">
        <ele>743</ele>
        <time>2022-10-19T09:50:34.630Z</time>
      </trkpt>
      <trkpt lat="43.52711" lon="5.60768">
        <ele>743</ele>
        <time>2022-10-19T09:50:35.630Z</time>
      </trkpt>
      <trkpt lat="43.52711" lon="5.60768">
        <ele>743</ele>
        <time>2022-10-19T09:50:36.630Z</time>
      </trkpt>
      <trkpt lat="43.52711" lon="5.60768">
        <ele>743</ele>
        <time>2022-10-19T09:50:37.630Z</time>
      </trkpt>
      <trkpt lat="43.52711" lon="5.60768">
        <ele>743</ele>
        <time>2022-10-19T09:50:38.630Z</time>
      </trkpt>
      <trkpt lat="43.52711" lon="5.60768">
        <ele>743</ele>
        <time>2022-10-19T09:50:39.630Z</time>
      </trkpt>
      <trkpt lat="43.52711" lon="5.60768">
        <ele>743</ele>
        <time>2022-10-19T09:50:40.630Z</time>
      </trkpt>
      <trkpt lat="43.52711" lon="5.60768">
        <ele>743</ele>
        <time>2022-10-19T09:50:41.630Z</time>
      </trkpt>
      <trkpt lat="43.52711" lon="5.60768">
        <ele>743</ele>
        <time>2022-10-19T09:50:42.630Z</time>
      </trkpt>
      <trkpt lat="43.52711" lon="5.60768">
        <ele>743</ele>
        <time>2022-10-19T09:50:43.630Z</time>
      </trkpt>
      <trkpt lat="43.52711" lon="5.60768">
        <ele>743</ele>
        <time>2022-10-19T09:50:44.630Z</time>
      </trkpt>
      <trkpt lat="43.52711" lon="5.60768">
        <ele>743</ele>
        <time>2022-10-19T09:50:45.630Z</time>
      </trkpt>
      <trkpt lat="43.52711" lon="5.60768">
        <ele>743</ele>
        <time>2022-10-19T09:50:46.630Z</time>
      </trkpt>
      <trkpt lat="43.52711" lon="5.60768">
        <ele>743</ele>
        <time>2022-10-19T09:50:47.630Z</time>
      </trkpt>
      <trkpt lat="43.52711" lon="5.60768">
        <ele>743</ele>
        <time>2022-10-19T09:50:48.630Z</time>
      </trkpt>
      <trkpt lat="43.52711" lon="5.60768">
        <ele>743</ele>
        <time>2022-10-19T09:50:49.630Z</time>
      </trkpt>
      <trkpt lat="43.52712" lon="5.60768">
        <ele>743</ele>
        <time>2022-10-19T09:50:50.630Z</time>
      </trkpt>
      <trkpt lat="43.52711" lon="5.60768">
        <ele>743</ele>
        <time>2022-10-19T09:50:51.630Z</time>
      </trkpt>
      <trkpt lat="43.52711" lon="5.60768">
        <ele>743</ele>
        <time>2022-10-19T09:50:52.630Z</time>
      </trkpt>
      <trkpt lat="43.52711" lon="5.60768">
        <ele>743</ele>
        <time>2022-10-19T09:50:53.630Z</time>
      </trkpt>
      <trkpt lat="43.52711" lon="5.60768">
        <ele>743</ele>
        <time>2022-10-19T09:50:54.630Z</time>
      </trkpt>
      <trkpt lat="43.52711" lon="5.60768">
        <ele>743</ele>
        <time>2022-10-19T09:50:55.630Z</time>
      </trkpt>
      <trkpt lat="43.52711" lon="5.60768">
        <ele>743</ele>
        <time>2022-10-19T09:50:56.630Z</time>
      </trkpt>
      <trkpt lat="43.52711" lon="5.60768">
        <ele>743</ele>
        <time>2022-10-19T09:50:57.630Z</time>
      </trkpt>
      <trkpt lat="43.52712" lon="5.60768">
        <ele>743</ele>
        <time>2022-10-19T09:50:58.630Z</time>
      </trkpt>
      <trkpt lat="43.52712" lon="5.60768">
        <ele>743</ele>
        <time>2022-10-19T09:50:59.630Z</time>
      </trkpt>
      <trkpt lat="43.52711" lon="5.60768">
        <ele>743</ele>
        <time>2022-10-19T09:51:00.630Z</time>
      </trkpt>
      <trkpt lat="43.52711" lon="5.60768">
        <ele>743</ele>
        <time>2022-10-19T09:51:01.630Z</time>
      </trkpt>
      <trkpt lat="43.52712" lon="5.60768">
        <ele>743</ele>
        <time>2022-10-19T09:51:02.630Z</time>
      </trkpt>
      <trkpt lat="43.52712" lon="5.60768">
        <ele>743</ele>
        <time>2022-10-19T09:51:03.630Z</time>
      </trkpt>
      <trkpt lat="43.52712" lon="5.60768">
        <ele>743</ele>
        <time>2022-10-19T09:51:04.630Z</time>
      </trkpt>
      <trkpt lat="43.52712" lon="5.60768">
        <ele>743</ele>
        <time>2022-10-19T09:51:05.630Z</time>
      </trkpt>
      <trkpt lat="43.52712" lon="5.60768">
        <ele>743</ele>
        <time>2022-10-19T09:51:06.630Z</time>
      </trkpt>
      <trkpt lat="43.52711" lon="5.60768">
        <ele>743</ele>
        <time>2022-10-19T09:51:07.630Z</time>
      </trkpt>
      <trkpt lat="43.52711" lon="5.60768">
        <ele>743</ele>
        <time>2022-10-19T09:51:08.630Z</time>
      </trkpt>
      <trkpt lat="43.52711" lon="5.60767">
        <ele>743</ele>
        <time>2022-10-19T09:51:09.630Z</time>
      </trkpt>
      <trkpt lat="43.52712" lon="5.60767">
        <ele>743</ele>
        <time>2022-10-19T09:51:10.630Z</time>
      </trkpt>
      <trkpt lat="43.52712" lon="5.60767">
        <ele>743</ele>
        <time>2022-10-19T09:51:11.630Z</time>
      </trkpt>
      <trkpt lat="43.52711" lon="5.60767">
        <ele>743</ele>
        <time>2022-10-19T09:51:12.630Z</time>
      </trkpt>
      <trkpt lat="43.52711" lon="5.60766">
        <ele>743</ele>
        <time>2022-10-19T09:51:13.630Z</time>
      </trkpt>
      <trkpt lat="43.52711" lon="5.60765">
        <ele>743</ele>
        <time>2022-10-19T09:51:14.630Z</time>
      </trkpt>
      <trkpt lat="43.52712" lon="5.60764">
        <ele>743</ele>
        <time>2022-10-19T09:51:15.630Z</time>
      </trkpt>
      <trkpt lat="43.52712" lon="5.60763">
        <ele>743</ele>
        <time>2022-10-19T09:51:16.630Z</time>
      </trkpt>
      <trkpt lat="43.52712" lon="5.60762">
        <ele>743</ele>
        <time>2022-10-19T09:51:17.630Z</time>
      </trkpt>
      <trkpt lat="43.52712" lon="5.60761">
        <ele>743</ele>
        <time>2022-10-19T09:51:18.630Z</time>
      </trkpt>
      <trkpt lat="43.52712" lon="5.6076">
        <ele>743</ele>
        <time>2022-10-19T09:51:19.630Z</time>
      </trkpt>
      <trkpt lat="43.52712" lon="5.60759">
        <ele>743</ele>
        <time>2022-10-19T09:51:20.630Z</time>
      </trkpt>
      <trkpt lat="43.52712" lon="5.60758">
        <ele>743</ele>
        <time>2022-10-19T09:51:21.630Z</time>
      </trkpt>
      <trkpt lat="43.52712" lon="5.60757">
        <ele>743</ele>
        <time>2022-10-19T09:51:22.630Z</time>
      </trkpt>
      <trkpt lat="43.52712" lon="5.60756">
        <ele>743</ele>
        <time>2022-10-19T09:51:23.630Z</time>
      </trkpt>
      <trkpt lat="43.52713" lon="5.60755">
        <ele>743</ele>
        <time>2022-10-19T09:51:24.630Z</time>
      </trkpt>
      <trkpt lat="43.52713" lon="5.60753">
        <ele>743</ele>
        <time>2022-10-19T09:51:25.630Z</time>
      </trkpt>
      <trkpt lat="43.52713" lon="5.60752">
        <ele>743</ele>
        <time>2022-10-19T09:51:26.630Z</time>
      </trkpt>
      <trkpt lat="43.52713" lon="5.60751">
        <ele>743</ele>
        <time>2022-10-19T09:51:27.630Z</time>
      </trkpt>
      <trkpt lat="43.52713" lon="5.6075">
        <ele>743</ele>
        <time>2022-10-19T09:51:28.630Z</time>
      </trkpt>
      <trkpt lat="43.52713" lon="5.60749">
        <ele>743</ele>
        <time>2022-10-19T09:51:29.630Z</time>
      </trkpt>
      <trkpt lat="43.52714" lon="5.60748">
        <ele>743</ele>
        <time>2022-10-19T09:51:30.630Z</time>
      </trkpt>
      <trkpt lat="43.52714" lon="5.60746">
        <ele>743</ele>
        <time>2022-10-19T09:51:31.630Z</time>
      </trkpt>
      <trkpt lat="43.52714" lon="5.60745">
        <ele>743</ele>
        <time>2022-10-19T09:51:32.630Z</time>
      </trkpt>
      <trkpt lat="43.52714" lon="5.60744">
        <ele>743</ele>
        <time>2022-10-19T09:51:33.630Z</time>
      </trkpt>
      <trkpt lat="43.52714" lon="5.60743">
        <ele>743</ele>
        <time>2022-10-19T09:51:34.630Z</time>
      </trkpt>
      <trkpt lat="43.52714" lon="5.60741">
        <ele>743</ele>
        <time>2022-10-19T09:51:35.630Z</time>
      </trkpt>
      <trkpt lat="43.52714" lon="5.6074">
        <ele>743</ele>
        <time>2022-10-19T09:51:36.630Z</time>
      </trkpt>
      <trkpt lat="43.52714" lon="5.60738">
        <ele>743</ele>
        <time>2022-10-19T09:51:37.630Z</time>
      </trkpt>
      <trkpt lat="43.52714" lon="5.60737">
        <ele>743</ele>
        <time>2022-10-19T09:51:38.630Z</time>
      </trkpt>
      <trkpt lat="43.52714" lon="5.60736">
        <ele>743</ele>
        <time>2022-10-19T09:51:39.630Z</time>
      </trkpt>
      <trkpt lat="43.52714" lon="5.60734">
        <ele>743</ele>
        <time>2022-10-19T09:51:40.630Z</time>
      </trkpt>
      <trkpt lat="43.52714" lon="5.60733">
        <ele>743</ele>
        <time>2022-10-19T09:51:41.630Z</time>
      </trkpt>
      <trkpt lat="43.52714" lon="5.60732">
        <ele>743</ele>
        <time>2022-10-19T09:51:42.630Z</time>
      </trkpt>
      <trkpt lat="43.52714" lon="5.60731">
        <ele>743</ele>
        <time>2022-10-19T09:51:43.630Z</time>
      </trkpt>
      <trkpt lat="43.52714" lon="5.60729">
        <ele>743</ele>
        <time>2022-10-19T09:51:44.630Z</time>
      </trkpt>
      <trkpt lat="43.52714" lon="5.60728">
        <ele>743</ele>
        <time>2022-10-19T09:51:45.630Z</time>
      </trkpt>
      <trkpt lat="43.52714" lon="5.60727">
        <ele>743</ele>
        <time>2022-10-19T09:51:46.630Z</time>
      </trkpt>
      <trkpt lat="43.52714" lon="5.60726">
        <ele>743</ele>
        <time>2022-10-19T09:51:47.630Z</time>
      </trkpt>
      <trkpt lat="43.52714" lon="5.60725">
        <ele>743</ele>
        <time>2022-10-19T09:51:48.630Z</time>
      </trkpt>
      <trkpt lat="43.52714" lon="5.60724">
        <ele>744</ele>
        <time>2022-10-19T09:51:49.630Z</time>
      </trkpt>
      <trkpt lat="43.52713" lon="5.60723">
        <ele>744</ele>
        <time>2022-10-19T09:51:50.630Z</time>
      </trkpt>
      <trkpt lat="43.52713" lon="5.60722">
        <ele>744</ele>
        <time>2022-10-19T09:51:51.630Z</time>
      </trkpt>
      <trkpt lat="43.52712" lon="5.6072">
        <ele>744</ele>
        <time>2022-10-19T09:51:52.630Z</time>
      </trkpt>
      <trkpt lat="43.52712" lon="5.60719">
        <ele>744</ele>
        <time>2022-10-19T09:51:53.630Z</time>
      </trkpt>
      <trkpt lat="43.52712" lon="5.60718">
        <ele>744</ele>
        <time>2022-10-19T09:51:54.630Z</time>
      </trkpt>
      <trkpt lat="43.52712" lon="5.60716">
        <ele>743</ele>
        <time>2022-10-19T09:51:55.630Z</time>
      </trkpt>
      <trkpt lat="43.52712" lon="5.60715">
        <ele>743</ele>
        <time>2022-10-19T09:51:56.630Z</time>
      </trkpt>
      <trkpt lat="43.52712" lon="5.60715">
        <ele>744</ele>
        <time>2022-10-19T09:51:57.630Z</time>
      </trkpt>
      <trkpt lat="43.52712" lon="5.60714">
        <ele>744</ele>
        <time>2022-10-19T09:51:58.630Z</time>
      </trkpt>
      <trkpt lat="43.52712" lon="5.60713">
        <ele>744</ele>
        <time>2022-10-19T09:51:59.630Z</time>
      </trkpt>
      <trkpt lat="43.52712" lon="5.60712">
        <ele>744</ele>
        <time>2022-10-19T09:52:00.630Z</time>
      </trkpt>
      <trkpt lat="43.52712" lon="5.60711">
        <ele>744</ele>
        <time>2022-10-19T09:52:01.630Z</time>
      </trkpt>
      <trkpt lat="43.52712" lon="5.60711">
        <ele>744</ele>
        <time>2022-10-19T09:52:02.630Z</time>
      </trkpt>
      <trkpt lat="43.52712" lon="5.60711">
        <ele>744</ele>
        <time>2022-10-19T09:52:03.630Z</time>
      </trkpt>
      <trkpt lat="43.52712" lon="5.6071">
        <ele>744</ele>
        <time>2022-10-19T09:52:04.630Z</time>
      </trkpt>
      <trkpt lat="43.52712" lon="5.6071">
        <ele>744</ele>
        <time>2022-10-19T09:52:05.630Z</time>
      </trkpt>
      <trkpt lat="43.52712" lon="5.6071">
        <ele>744</ele>
        <time>2022-10-19T09:52:06.630Z</time>
      </trkpt>
      <trkpt lat="43.52712" lon="5.6071">
        <ele>744</ele>
        <time>2022-10-19T09:52:07.630Z</time>
      </trkpt>
      <trkpt lat="43.52712" lon="5.6071">
        <ele>744</ele>
        <time>2022-10-19T09:52:08.630Z</time>
      </trkpt>
      <trkpt lat="43.52712" lon="5.6071">
        <ele>744</ele>
        <time>2022-10-19T09:52:09.630Z</time>
      </trkpt>
      <trkpt lat="43.52712" lon="5.6071">
        <ele>744</ele>
        <time>2022-10-19T09:52:10.630Z</time>
      </trkpt>
      <trkpt lat="43.52712" lon="5.6071">
        <ele>744</ele>
        <time>2022-10-19T09:52:11.630Z</time>
      </trkpt>
      <trkpt lat="43.52712" lon="5.60709">
        <ele>744</ele>
        <time>2022-10-19T09:52:12.630Z</time>
      </trkpt>
      <trkpt lat="43.52712" lon="5.60708">
        <ele>744</ele>
        <time>2022-10-19T09:52:13.630Z</time>
      </trkpt>
      <trkpt lat="43.52712" lon="5.60708">
        <ele>744</ele>
        <time>2022-10-19T09:52:14.630Z</time>
      </trkpt>
      <trkpt lat="43.52712" lon="5.60707">
        <ele>744</ele>
        <time>2022-10-19T09:52:15.630Z</time>
      </trkpt>
      <trkpt lat="43.52712" lon="5.60706">
        <ele>744</ele>
        <time>2022-10-19T09:52:16.630Z</time>
      </trkpt>
      <trkpt lat="43.52712" lon="5.60706">
        <ele>744</ele>
        <time>2022-10-19T09:52:17.630Z</time>
      </trkpt>
      <trkpt lat="43.52712" lon="5.60705">
        <ele>744</ele>
        <time>2022-10-19T09:52:18.630Z</time>
      </trkpt>
      <trkpt lat="43.52712" lon="5.60704">
        <ele>744</ele>
        <time>2022-10-19T09:52:19.630Z</time>
      </trkpt>
      <trkpt lat="43.52712" lon="5.60704">
        <ele>744</ele>
        <time>2022-10-19T09:52:20.630Z</time>
      </trkpt>
      <trkpt lat="43.52713" lon="5.60703">
        <ele>744</ele>
        <time>2022-10-19T09:52:21.630Z</time>
      </trkpt>
      <trkpt lat="43.52713" lon="5.60702">
        <ele>744</ele>
        <time>2022-10-19T09:52:22.630Z</time>
      </trkpt>
      <trkpt lat="43.52713" lon="5.60702">
        <ele>744</ele>
        <time>2022-10-19T09:52:23.630Z</time>
      </trkpt>
      <trkpt lat="43.52713" lon="5.60701">
        <ele>745</ele>
        <time>2022-10-19T09:52:24.630Z</time>
      </trkpt>
      <trkpt lat="43.52713" lon="5.60701">
        <ele>745</ele>
        <time>2022-10-19T09:52:25.630Z</time>
      </trkpt>
      <trkpt lat="43.52713" lon="5.607">
        <ele>745</ele>
        <time>2022-10-19T09:52:26.630Z</time>
      </trkpt>
      <trkpt lat="43.52713" lon="5.60699">
        <ele>745</ele>
        <time>2022-10-19T09:52:27.630Z</time>
      </trkpt>
      <trkpt lat="43.52713" lon="5.60699">
        <ele>745</ele>
        <time>2022-10-19T09:52:28.630Z</time>
      </trkpt>
      <trkpt lat="43.52713" lon="5.60698">
        <ele>745</ele>
        <time>2022-10-19T09:52:29.630Z</time>
      </trkpt>
      <trkpt lat="43.52713" lon="5.60697">
        <ele>745</ele>
        <time>2022-10-19T09:52:30.630Z</time>
      </trkpt>
      <trkpt lat="43.52713" lon="5.60697">
        <ele>745</ele>
        <time>2022-10-19T09:52:31.630Z</time>
      </trkpt>
      <trkpt lat="43.52712" lon="5.60696">
        <ele>745</ele>
        <time>2022-10-19T09:52:32.630Z</time>
      </trkpt>
      <trkpt lat="43.52712" lon="5.60695">
        <ele>746</ele>
        <time>2022-10-19T09:52:33.630Z</time>
      </trkpt>
      <trkpt lat="43.52712" lon="5.60694">
        <ele>746</ele>
        <time>2022-10-19T09:52:34.630Z</time>
      </trkpt>
      <trkpt lat="43.52712" lon="5.60694">
        <ele>746</ele>
        <time>2022-10-19T09:52:35.630Z</time>
      </trkpt>
      <trkpt lat="43.52712" lon="5.60693">
        <ele>746</ele>
        <time>2022-10-19T09:52:36.630Z</time>
      </trkpt>
      <trkpt lat="43.52712" lon="5.60692">
        <ele>746</ele>
        <time>2022-10-19T09:52:37.630Z</time>
      </trkpt>
      <trkpt lat="43.52712" lon="5.60691">
        <ele>746</ele>
        <time>2022-10-19T09:52:38.630Z</time>
      </trkpt>
      <trkpt lat="43.52711" lon="5.60691">
        <ele>746</ele>
        <time>2022-10-19T09:52:39.630Z</time>
      </trkpt>
      <trkpt lat="43.52711" lon="5.6069">
        <ele>746</ele>
        <time>2022-10-19T09:52:40.630Z</time>
      </trkpt>
      <trkpt lat="43.52711" lon="5.60689">
        <ele>746</ele>
        <time>2022-10-19T09:52:41.630Z</time>
      </trkpt>
      <trkpt lat="43.52711" lon="5.60689">
        <ele>747</ele>
        <time>2022-10-19T09:52:42.630Z</time>
      </trkpt>
      <trkpt lat="43.52711" lon="5.60688">
        <ele>747</ele>
        <time>2022-10-19T09:52:43.630Z</time>
      </trkpt>
      <trkpt lat="43.52711" lon="5.60687">
        <ele>747</ele>
        <time>2022-10-19T09:52:44.630Z</time>
      </trkpt>
      <trkpt lat="43.52711" lon="5.60686">
        <ele>747</ele>
        <time>2022-10-19T09:52:45.630Z</time>
      </trkpt>
      <trkpt lat="43.52711" lon="5.60685">
        <ele>747</ele>
        <time>2022-10-19T09:52:46.630Z</time>
      </trkpt>
      <trkpt lat="43.52711" lon="5.60685">
        <ele>747</ele>
        <time>2022-10-19T09:52:47.630Z</time>
      </trkpt>
      <trkpt lat="43.52711" lon="5.60684">
        <ele>747</ele>
        <time>2022-10-19T09:52:48.630Z</time>
      </trkpt>
      <trkpt lat="43.52711" lon="5.60684">
        <ele>747</ele>
        <time>2022-10-19T09:52:49.630Z</time>
      </trkpt>
      <trkpt lat="43.52711" lon="5.60683">
        <ele>748</ele>
        <time>2022-10-19T09:52:50.630Z</time>
      </trkpt>
      <trkpt lat="43.5271" lon="5.60682">
        <ele>748</ele>
        <time>2022-10-19T09:52:51.630Z</time>
      </trkpt>
      <trkpt lat="43.5271" lon="5.60681">
        <ele>748</ele>
        <time>2022-10-19T09:52:52.630Z</time>
      </trkpt>
      <trkpt lat="43.5271" lon="5.6068">
        <ele>748</ele>
        <time>2022-10-19T09:52:53.630Z</time>
      </trkpt>
      <trkpt lat="43.5271" lon="5.60679">
        <ele>748</ele>
        <time>2022-10-19T09:52:54.630Z</time>
      </trkpt>
      <trkpt lat="43.5271" lon="5.60678">
        <ele>748</ele>
        <time>2022-10-19T09:52:55.630Z</time>
      </trkpt>
      <trkpt lat="43.5271" lon="5.60677">
        <ele>749</ele>
        <time>2022-10-19T09:52:56.630Z</time>
      </trkpt>
      <trkpt lat="43.5271" lon="5.60676">
        <ele>749</ele>
        <time>2022-10-19T09:52:57.630Z</time>
      </trkpt>
      <trkpt lat="43.5271" lon="5.60675">
        <ele>749</ele>
        <time>2022-10-19T09:52:58.630Z</time>
      </trkpt>
      <trkpt lat="43.5271" lon="5.60674">
        <ele>749</ele>
        <time>2022-10-19T09:52:59.630Z</time>
      </trkpt>
      <trkpt lat="43.5271" lon="5.60673">
        <ele>749</ele>
        <time>2022-10-19T09:53:00.630Z</time>
      </trkpt>
      <trkpt lat="43.5271" lon="5.60672">
        <ele>749</ele>
        <time>2022-10-19T09:53:01.630Z</time>
      </trkpt>
      <trkpt lat="43.5271" lon="5.60671">
        <ele>749</ele>
        <time>2022-10-19T09:53:02.630Z</time>
      </trkpt>
      <trkpt lat="43.5271" lon="5.6067">
        <ele>749</ele>
        <time>2022-10-19T09:53:03.630Z</time>
      </trkpt>
      <trkpt lat="43.5271" lon="5.60669">
        <ele>750</ele>
        <time>2022-10-19T09:53:04.630Z</time>
      </trkpt>
      <trkpt lat="43.5271" lon="5.60668">
        <ele>750</ele>
        <time>2022-10-19T09:53:05.630Z</time>
      </trkpt>
      <trkpt lat="43.5271" lon="5.60667">
        <ele>750</ele>
        <time>2022-10-19T09:53:06.630Z</time>
      </trkpt>
      <trkpt lat="43.5271" lon="5.60666">
        <ele>750</ele>
        <time>2022-10-19T09:53:07.630Z</time>
      </trkpt>
      <trkpt lat="43.5271" lon="5.60665">
        <ele>750</ele>
        <time>2022-10-19T09:53:08.630Z</time>
      </trkpt>
      <trkpt lat="43.52709" lon="5.60664">
        <ele>750</ele>
        <time>2022-10-19T09:53:09.630Z</time>
      </trkpt>
      <trkpt lat="43.52709" lon="5.60663">
        <ele>750</ele>
        <time>2022-10-19T09:53:10.630Z</time>
      </trkpt>
      <trkpt lat="43.52709" lon="5.60662">
        <ele>751</ele>
        <time>2022-10-19T09:53:11.630Z</time>
      </trkpt>
      <trkpt lat="43.52709" lon="5.60661">
        <ele>751</ele>
        <time>2022-10-19T09:53:12.630Z</time>
      </trkpt>
      <trkpt lat="43.52709" lon="5.6066">
        <ele>751</ele>
        <time>2022-10-19T09:53:13.630Z</time>
      </trkpt>
      <trkpt lat="43.52709" lon="5.60659">
        <ele>751</ele>
        <time>2022-10-19T09:53:14.630Z</time>
      </trkpt>
      <trkpt lat="43.52709" lon="5.60659">
        <ele>751</ele>
        <time>2022-10-19T09:53:15.630Z</time>
      </trkpt>
      <trkpt lat="43.52709" lon="5.60658">
        <ele>751</ele>
        <time>2022-10-19T09:53:16.630Z</time>
      </trkpt>
      <trkpt lat="43.52709" lon="5.60657">
        <ele>751</ele>
        <time>2022-10-19T09:53:17.630Z</time>
      </trkpt>
      <trkpt lat="43.5271" lon="5.60656">
        <ele>752</ele>
        <time>2022-10-19T09:53:18.630Z</time>
      </trkpt>
      <trkpt lat="43.5271" lon="5.60656">
        <ele>752</ele>
        <time>2022-10-19T09:53:19.630Z</time>
      </trkpt>
      <trkpt lat="43.5271" lon="5.60655">
        <ele>752</ele>
        <time>2022-10-19T09:53:20.630Z</time>
      </trkpt>
      <trkpt lat="43.5271" lon="5.60654">
        <ele>752</ele>
        <time>2022-10-19T09:53:21.630Z</time>
      </trkpt>
      <trkpt lat="43.5271" lon="5.60654">
        <ele>752</ele>
        <time>2022-10-19T09:53:22.630Z</time>
      </trkpt>
      <trkpt lat="43.5271" lon="5.60653">
        <ele>752</ele>
        <time>2022-10-19T09:53:23.630Z</time>
      </trkpt>
      <trkpt lat="43.5271" lon="5.60652">
        <ele>753</ele>
        <time>2022-10-19T09:53:24.630Z</time>
      </trkpt>
      <trkpt lat="43.52709" lon="5.60651">
        <ele>753</ele>
        <time>2022-10-19T09:53:25.630Z</time>
      </trkpt>
      <trkpt lat="43.52709" lon="5.6065">
        <ele>753</ele>
        <time>2022-10-19T09:53:26.630Z</time>
      </trkpt>
      <trkpt lat="43.52709" lon="5.60649">
        <ele>753</ele>
        <time>2022-10-19T09:53:27.630Z</time>
      </trkpt>
      <trkpt lat="43.52709" lon="5.60648">
        <ele>753</ele>
        <time>2022-10-19T09:53:28.630Z</time>
      </trkpt>
      <trkpt lat="43.52709" lon="5.60647">
        <ele>753</ele>
        <time>2022-10-19T09:53:29.630Z</time>
      </trkpt>
      <trkpt lat="43.52709" lon="5.60646">
        <ele>753</ele>
        <time>2022-10-19T09:53:30.630Z</time>
      </trkpt>
      <trkpt lat="43.52709" lon="5.60645">
        <ele>753</ele>
        <time>2022-10-19T09:53:31.630Z</time>
      </trkpt>
      <trkpt lat="43.5271" lon="5.60645">
        <ele>753</ele>
        <time>2022-10-19T09:53:32.630Z</time>
      </trkpt>
      <trkpt lat="43.5271" lon="5.60645">
        <ele>754</ele>
        <time>2022-10-19T09:53:33.630Z</time>
      </trkpt>
      <trkpt lat="43.5271" lon="5.60644">
        <ele>754</ele>
        <time>2022-10-19T09:53:34.630Z</time>
      </trkpt>
      <trkpt lat="43.52711" lon="5.60644">
        <ele>754</ele>
        <time>2022-10-19T09:53:35.630Z</time>
      </trkpt>
      <trkpt lat="43.52711" lon="5.60643">
        <ele>754</ele>
        <time>2022-10-19T09:53:36.630Z</time>
      </trkpt>
      <trkpt lat="43.52711" lon="5.60642">
        <ele>754</ele>
        <time>2022-10-19T09:53:37.630Z</time>
      </trkpt>
      <trkpt lat="43.5271" lon="5.60642">
        <ele>754</ele>
        <time>2022-10-19T09:53:38.630Z</time>
      </trkpt>
      <trkpt lat="43.5271" lon="5.60641">
        <ele>755</ele>
        <time>2022-10-19T09:53:39.630Z</time>
      </trkpt>
      <trkpt lat="43.5271" lon="5.6064">
        <ele>755</ele>
        <time>2022-10-19T09:53:40.630Z</time>
      </trkpt>
      <trkpt lat="43.5271" lon="5.60639">
        <ele>755</ele>
        <time>2022-10-19T09:53:41.630Z</time>
      </trkpt>
      <trkpt lat="43.5271" lon="5.60638">
        <ele>755</ele>
        <time>2022-10-19T09:53:42.630Z</time>
      </trkpt>
      <trkpt lat="43.5271" lon="5.60637">
        <ele>755</ele>
        <time>2022-10-19T09:53:43.630Z</time>
      </trkpt>
      <trkpt lat="43.52709" lon="5.60636">
        <ele>755</ele>
        <time>2022-10-19T09:53:44.630Z</time>
      </trkpt>
      <trkpt lat="43.52709" lon="5.60634">
        <ele>755</ele>
        <time>2022-10-19T09:53:45.630Z</time>
      </trkpt>
      <trkpt lat="43.52709" lon="5.60633">
        <ele>755</ele>
        <time>2022-10-19T09:53:46.630Z</time>
      </trkpt>
      <trkpt lat="43.52709" lon="5.60632">
        <ele>755</ele>
        <time>2022-10-19T09:53:47.630Z</time>
      </trkpt>
      <trkpt lat="43.52709" lon="5.60631">
        <ele>756</ele>
        <time>2022-10-19T09:53:48.630Z</time>
      </trkpt>
      <trkpt lat="43.52709" lon="5.6063">
        <ele>756</ele>
        <time>2022-10-19T09:53:49.630Z</time>
      </trkpt>
      <trkpt lat="43.52709" lon="5.60629">
        <ele>756</ele>
        <time>2022-10-19T09:53:50.630Z</time>
      </trkpt>
      <trkpt lat="43.52709" lon="5.60627">
        <ele>756</ele>
        <time>2022-10-19T09:53:51.630Z</time>
      </trkpt>
      <trkpt lat="43.52709" lon="5.60626">
        <ele>756</ele>
        <time>2022-10-19T09:53:52.630Z</time>
      </trkpt>
      <trkpt lat="43.52709" lon="5.60625">
        <ele>756</ele>
        <time>2022-10-19T09:53:53.630Z</time>
      </trkpt>
      <trkpt lat="43.52709" lon="5.60624">
        <ele>756</ele>
        <time>2022-10-19T09:53:54.630Z</time>
      </trkpt>
      <trkpt lat="43.52709" lon="5.60623">
        <ele>756</ele>
        <time>2022-10-19T09:53:55.630Z</time>
      </trkpt>
      <trkpt lat="43.5271" lon="5.60622">
        <ele>756</ele>
        <time>2022-10-19T09:53:56.630Z</time>
      </trkpt>
      <trkpt lat="43.5271" lon="5.60621">
        <ele>756</ele>
        <time>2022-10-19T09:53:57.630Z</time>
      </trkpt>
      <trkpt lat="43.5271" lon="5.60619">
        <ele>756</ele>
        <time>2022-10-19T09:53:58.630Z</time>
      </trkpt>
      <trkpt lat="43.5271" lon="5.60619">
        <ele>756</ele>
        <time>2022-10-19T09:53:59.630Z</time>
      </trkpt>
      <trkpt lat="43.5271" lon="5.60617">
        <ele>756</ele>
        <time>2022-10-19T09:54:00.630Z</time>
      </trkpt>
      <trkpt lat="43.5271" lon="5.60616">
        <ele>756</ele>
        <time>2022-10-19T09:54:01.630Z</time>
      </trkpt>
      <trkpt lat="43.5271" lon="5.60614">
        <ele>757</ele>
        <time>2022-10-19T09:54:02.630Z</time>
      </trkpt>
      <trkpt lat="43.52711" lon="5.60613">
        <ele>757</ele>
        <time>2022-10-19T09:54:03.630Z</time>
      </trkpt>
      <trkpt lat="43.52711" lon="5.60612">
        <ele>757</ele>
        <time>2022-10-19T09:54:04.630Z</time>
      </trkpt>
      <trkpt lat="43.52711" lon="5.60611">
        <ele>757</ele>
        <time>2022-10-19T09:54:05.630Z</time>
      </trkpt>
      <trkpt lat="43.52711" lon="5.60609">
        <ele>757</ele>
        <time>2022-10-19T09:54:06.630Z</time>
      </trkpt>
      <trkpt lat="43.52711" lon="5.60608">
        <ele>757</ele>
        <time>2022-10-19T09:54:07.630Z</time>
      </trkpt>
      <trkpt lat="43.52711" lon="5.60607">
        <ele>757</ele>
        <time>2022-10-19T09:54:08.630Z</time>
      </trkpt>
      <trkpt lat="43.52711" lon="5.60606">
        <ele>757</ele>
        <time>2022-10-19T09:54:09.630Z</time>
      </trkpt>
      <trkpt lat="43.52712" lon="5.60605">
        <ele>757</ele>
        <time>2022-10-19T09:54:10.630Z</time>
      </trkpt>
      <trkpt lat="43.52712" lon="5.60603">
        <ele>757</ele>
        <time>2022-10-19T09:54:11.630Z</time>
      </trkpt>
      <trkpt lat="43.52712" lon="5.60602">
        <ele>757</ele>
        <time>2022-10-19T09:54:12.630Z</time>
      </trkpt>
      <trkpt lat="43.52713" lon="5.60601">
        <ele>757</ele>
        <time>2022-10-19T09:54:13.630Z</time>
      </trkpt>
      <trkpt lat="43.52713" lon="5.60601">
        <ele>757</ele>
        <time>2022-10-19T09:54:14.630Z</time>
      </trkpt>
      <trkpt lat="43.52713" lon="5.606">
        <ele>757</ele>
        <time>2022-10-19T09:54:15.630Z</time>
      </trkpt>
      <trkpt lat="43.52714" lon="5.60599">
        <ele>757</ele>
        <time>2022-10-19T09:54:16.630Z</time>
      </trkpt>
      <trkpt lat="43.52714" lon="5.60598">
        <ele>757</ele>
        <time>2022-10-19T09:54:17.630Z</time>
      </trkpt>
      <trkpt lat="43.52715" lon="5.60597">
        <ele>758</ele>
        <time>2022-10-19T09:54:18.630Z</time>
      </trkpt>
      <trkpt lat="43.52715" lon="5.60597">
        <ele>758</ele>
        <time>2022-10-19T09:54:19.630Z</time>
      </trkpt>
      <trkpt lat="43.52716" lon="5.60596">
        <ele>758</ele>
        <time>2022-10-19T09:54:20.630Z</time>
      </trkpt>
      <trkpt lat="43.52716" lon="5.60595">
        <ele>758</ele>
        <time>2022-10-19T09:54:21.630Z</time>
      </trkpt>
      <trkpt lat="43.52716" lon="5.60594">
        <ele>758</ele>
        <time>2022-10-19T09:54:22.630Z</time>
      </trkpt>
      <trkpt lat="43.52716" lon="5.60594">
        <ele>758</ele>
        <time>2022-10-19T09:54:23.630Z</time>
      </trkpt>
      <trkpt lat="43.52716" lon="5.60593">
        <ele>758</ele>
        <time>2022-10-19T09:54:24.630Z</time>
      </trkpt>
      <trkpt lat="43.52716" lon="5.60591">
        <ele>758</ele>
        <time>2022-10-19T09:54:25.630Z</time>
      </trkpt>
      <trkpt lat="43.52716" lon="5.6059">
        <ele>758</ele>
        <time>2022-10-19T09:54:26.630Z</time>
      </trkpt>
      <trkpt lat="43.52716" lon="5.60588">
        <ele>758</ele>
        <time>2022-10-19T09:54:27.630Z</time>
      </trkpt>
      <trkpt lat="43.52716" lon="5.60587">
        <ele>758</ele>
        <time>2022-10-19T09:54:28.630Z</time>
      </trkpt>
      <trkpt lat="43.52716" lon="5.60586">
        <ele>758</ele>
        <time>2022-10-19T09:54:29.630Z</time>
      </trkpt>
      <trkpt lat="43.52716" lon="5.60585">
        <ele>758</ele>
        <time>2022-10-19T09:54:30.630Z</time>
      </trkpt>
      <trkpt lat="43.52716" lon="5.60584">
        <ele>758</ele>
        <time>2022-10-19T09:54:31.630Z</time>
      </trkpt>
      <trkpt lat="43.52716" lon="5.60582">
        <ele>758</ele>
        <time>2022-10-19T09:54:32.630Z</time>
      </trkpt>
      <trkpt lat="43.52716" lon="5.60582">
        <ele>758</ele>
        <time>2022-10-19T09:54:33.630Z</time>
      </trkpt>
      <trkpt lat="43.52717" lon="5.60581">
        <ele>759</ele>
        <time>2022-10-19T09:54:34.630Z</time>
      </trkpt>
      <trkpt lat="43.52717" lon="5.6058">
        <ele>759</ele>
        <time>2022-10-19T09:54:35.630Z</time>
      </trkpt>
      <trkpt lat="43.52717" lon="5.60579">
        <ele>759</ele>
        <time>2022-10-19T09:54:36.630Z</time>
      </trkpt>
      <trkpt lat="43.52717" lon="5.60578">
        <ele>759</ele>
        <time>2022-10-19T09:54:37.630Z</time>
      </trkpt>
      <trkpt lat="43.52717" lon="5.60577">
        <ele>759</ele>
        <time>2022-10-19T09:54:38.630Z</time>
      </trkpt>
      <trkpt lat="43.52717" lon="5.60576">
        <ele>759</ele>
        <time>2022-10-19T09:54:39.630Z</time>
      </trkpt>
      <trkpt lat="43.52717" lon="5.60575">
        <ele>759</ele>
        <time>2022-10-19T09:54:40.630Z</time>
      </trkpt>
      <trkpt lat="43.52717" lon="5.60574">
        <ele>759</ele>
        <time>2022-10-19T09:54:41.630Z</time>
      </trkpt>
      <trkpt lat="43.52717" lon="5.60573">
        <ele>760</ele>
        <time>2022-10-19T09:54:42.630Z</time>
      </trkpt>
      <trkpt lat="43.52717" lon="5.60573">
        <ele>760</ele>
        <time>2022-10-19T09:54:43.630Z</time>
      </trkpt>
      <trkpt lat="43.52717" lon="5.60571">
        <ele>760</ele>
        <time>2022-10-19T09:54:44.630Z</time>
      </trkpt>
      <trkpt lat="43.52717" lon="5.60571">
        <ele>760</ele>
        <time>2022-10-19T09:54:45.630Z</time>
      </trkpt>
      <trkpt lat="43.52717" lon="5.60569">
        <ele>760</ele>
        <time>2022-10-19T09:54:46.630Z</time>
      </trkpt>
      <trkpt lat="43.52717" lon="5.60569">
        <ele>760</ele>
        <time>2022-10-19T09:54:47.630Z</time>
      </trkpt>
      <trkpt lat="43.52717" lon="5.60568">
        <ele>760</ele>
        <time>2022-10-19T09:54:48.630Z</time>
      </trkpt>
      <trkpt lat="43.52717" lon="5.60567">
        <ele>761</ele>
        <time>2022-10-19T09:54:49.630Z</time>
      </trkpt>
      <trkpt lat="43.52717" lon="5.60566">
        <ele>761</ele>
        <time>2022-10-19T09:54:50.630Z</time>
      </trkpt>
      <trkpt lat="43.52717" lon="5.60565">
        <ele>761</ele>
        <time>2022-10-19T09:54:51.630Z</time>
      </trkpt>
      <trkpt lat="43.52717" lon="5.60564">
        <ele>761</ele>
        <time>2022-10-19T09:54:52.630Z</time>
      </trkpt>
      <trkpt lat="43.52716" lon="5.60563">
        <ele>761</ele>
        <time>2022-10-19T09:54:53.630Z</time>
      </trkpt>
      <trkpt lat="43.52716" lon="5.60562">
        <ele>761</ele>
        <time>2022-10-19T09:54:54.630Z</time>
      </trkpt>
      <trkpt lat="43.52717" lon="5.60561">
        <ele>761</ele>
        <time>2022-10-19T09:54:55.630Z</time>
      </trkpt>
      <trkpt lat="43.52717" lon="5.6056">
        <ele>761</ele>
        <time>2022-10-19T09:54:56.630Z</time>
      </trkpt>
      <trkpt lat="43.52717" lon="5.60559">
        <ele>761</ele>
        <time>2022-10-19T09:54:57.630Z</time>
      </trkpt>
      <trkpt lat="43.52717" lon="5.60558">
        <ele>761</ele>
        <time>2022-10-19T09:54:58.630Z</time>
      </trkpt>
      <trkpt lat="43.52717" lon="5.60557">
        <ele>761</ele>
        <time>2022-10-19T09:54:59.630Z</time>
      </trkpt>
      <trkpt lat="43.52717" lon="5.60556">
        <ele>761</ele>
        <time>2022-10-19T09:55:00.630Z</time>
      </trkpt>
      <trkpt lat="43.52718" lon="5.60554">
        <ele>762</ele>
        <time>2022-10-19T09:55:01.630Z</time>
      </trkpt>
      <trkpt lat="43.52718" lon="5.60553">
        <ele>762</ele>
        <time>2022-10-19T09:55:02.630Z</time>
      </trkpt>
      <trkpt lat="43.52718" lon="5.60552">
        <ele>762</ele>
        <time>2022-10-19T09:55:03.630Z</time>
      </trkpt>
      <trkpt lat="43.52718" lon="5.60551">
        <ele>762</ele>
        <time>2022-10-19T09:55:04.630Z</time>
      </trkpt>
      <trkpt lat="43.52718" lon="5.6055">
        <ele>762</ele>
        <time>2022-10-19T09:55:05.630Z</time>
      </trkpt>
      <trkpt lat="43.52719" lon="5.60549">
        <ele>762</ele>
        <time>2022-10-19T09:55:06.630Z</time>
      </trkpt>
      <trkpt lat="43.52719" lon="5.60548">
        <ele>762</ele>
        <time>2022-10-19T09:55:07.630Z</time>
      </trkpt>
      <trkpt lat="43.52719" lon="5.60547">
        <ele>762</ele>
        <time>2022-10-19T09:55:08.630Z</time>
      </trkpt>
      <trkpt lat="43.52719" lon="5.60546">
        <ele>762</ele>
        <time>2022-10-19T09:55:09.630Z</time>
      </trkpt>
      <trkpt lat="43.5272" lon="5.60545">
        <ele>762</ele>
        <time>2022-10-19T09:55:10.630Z</time>
      </trkpt>
      <trkpt lat="43.5272" lon="5.60544">
        <ele>762</ele>
        <time>2022-10-19T09:55:11.630Z</time>
      </trkpt>
      <trkpt lat="43.5272" lon="5.60543">
        <ele>762</ele>
        <time>2022-10-19T09:55:12.630Z</time>
      </trkpt>
      <trkpt lat="43.5272" lon="5.60542">
        <ele>762</ele>
        <time>2022-10-19T09:55:13.630Z</time>
      </trkpt>
      <trkpt lat="43.52719" lon="5.60541">
        <ele>762</ele>
        <time>2022-10-19T09:55:14.630Z</time>
      </trkpt>
      <trkpt lat="43.52719" lon="5.6054">
        <ele>762</ele>
        <time>2022-10-19T09:55:15.630Z</time>
      </trkpt>
      <trkpt lat="43.52719" lon="5.60539">
        <ele>762</ele>
        <time>2022-10-19T09:55:16.630Z</time>
      </trkpt>
      <trkpt lat="43.52719" lon="5.60538">
        <ele>762</ele>
        <time>2022-10-19T09:55:17.630Z</time>
      </trkpt>
      <trkpt lat="43.52719" lon="5.60537">
        <ele>763</ele>
        <time>2022-10-19T09:55:18.630Z</time>
      </trkpt>
      <trkpt lat="43.52719" lon="5.60536">
        <ele>763</ele>
        <time>2022-10-19T09:55:19.630Z</time>
      </trkpt>
      <trkpt lat="43.52719" lon="5.60535">
        <ele>763</ele>
        <time>2022-10-19T09:55:20.630Z</time>
      </trkpt>
      <trkpt lat="43.52719" lon="5.60533">
        <ele>763</ele>
        <time>2022-10-19T09:55:21.630Z</time>
      </trkpt>
      <trkpt lat="43.52719" lon="5.60533">
        <ele>763</ele>
        <time>2022-10-19T09:55:22.630Z</time>
      </trkpt>
      <trkpt lat="43.5272" lon="5.60532">
        <ele>763</ele>
        <time>2022-10-19T09:55:23.630Z</time>
      </trkpt>
      <trkpt lat="43.5272" lon="5.60531">
        <ele>763</ele>
        <time>2022-10-19T09:55:24.630Z</time>
      </trkpt>
      <trkpt lat="43.5272" lon="5.60531">
        <ele>763</ele>
        <time>2022-10-19T09:55:25.630Z</time>
      </trkpt>
      <trkpt lat="43.52721" lon="5.6053">
        <ele>763</ele>
        <time>2022-10-19T09:55:26.630Z</time>
      </trkpt>
      <trkpt lat="43.52721" lon="5.6053">
        <ele>763</ele>
        <time>2022-10-19T09:55:27.630Z</time>
      </trkpt>
      <trkpt lat="43.52721" lon="5.6053">
        <ele>763</ele>
        <time>2022-10-19T09:55:28.630Z</time>
      </trkpt>
      <trkpt lat="43.52721" lon="5.6053">
        <ele>763</ele>
        <time>2022-10-19T09:55:29.630Z</time>
      </trkpt>
      <trkpt lat="43.52721" lon="5.6053">
        <ele>763</ele>
        <time>2022-10-19T09:55:30.630Z</time>
      </trkpt>
      <trkpt lat="43.52721" lon="5.6053">
        <ele>763</ele>
        <time>2022-10-19T09:55:31.630Z</time>
      </trkpt>
      <trkpt lat="43.52721" lon="5.6053">
        <ele>763</ele>
        <time>2022-10-19T09:55:32.630Z</time>
      </trkpt>
      <trkpt lat="43.52721" lon="5.6053">
        <ele>763</ele>
        <time>2022-10-19T09:55:33.630Z</time>
      </trkpt>
      <trkpt lat="43.5272" lon="5.6053">
        <ele>763</ele>
        <time>2022-10-19T09:55:34.630Z</time>
      </trkpt>
      <trkpt lat="43.52721" lon="5.6053">
        <ele>763</ele>
        <time>2022-10-19T09:55:35.630Z</time>
      </trkpt>
      <trkpt lat="43.52721" lon="5.6053">
        <ele>763</ele>
        <time>2022-10-19T09:55:36.630Z</time>
      </trkpt>
      <trkpt lat="43.52721" lon="5.6053">
        <ele>763</ele>
        <time>2022-10-19T09:55:37.630Z</time>
      </trkpt>
      <trkpt lat="43.52721" lon="5.6053">
        <ele>763</ele>
        <time>2022-10-19T09:55:38.630Z</time>
      </trkpt>
      <trkpt lat="43.52721" lon="5.6053">
        <ele>763</ele>
        <time>2022-10-19T09:55:39.630Z</time>
      </trkpt>
      <trkpt lat="43.52721" lon="5.6053">
        <ele>763</ele>
        <time>2022-10-19T09:55:40.630Z</time>
      </trkpt>
      <trkpt lat="43.5272" lon="5.6053">
        <ele>763</ele>
        <time>2022-10-19T09:55:41.630Z</time>
      </trkpt>
      <trkpt lat="43.52721" lon="5.60529">
        <ele>763</ele>
        <time>2022-10-19T09:55:42.630Z</time>
      </trkpt>
      <trkpt lat="43.52721" lon="5.60529">
        <ele>763</ele>
        <time>2022-10-19T09:55:43.630Z</time>
      </trkpt>
      <trkpt lat="43.52722" lon="5.60528">
        <ele>763</ele>
        <time>2022-10-19T09:55:44.630Z</time>
      </trkpt>
      <trkpt lat="43.52722" lon="5.60527">
        <ele>763</ele>
        <time>2022-10-19T09:55:45.630Z</time>
      </trkpt>
      <trkpt lat="43.52723" lon="5.60525">
        <ele>763</ele>
        <time>2022-10-19T09:55:46.630Z</time>
      </trkpt>
      <trkpt lat="43.52723" lon="5.60524">
        <ele>763</ele>
        <time>2022-10-19T09:55:47.630Z</time>
      </trkpt>
      <trkpt lat="43.52724" lon="5.60523">
        <ele>763</ele>
        <time>2022-10-19T09:55:48.630Z</time>
      </trkpt>
      <trkpt lat="43.52725" lon="5.60522">
        <ele>763</ele>
        <time>2022-10-19T09:55:49.630Z</time>
      </trkpt>
      <trkpt lat="43.52725" lon="5.60521">
        <ele>763</ele>
        <time>2022-10-19T09:55:50.630Z</time>
      </trkpt>
      <trkpt lat="43.52726" lon="5.6052">
        <ele>763</ele>
        <time>2022-10-19T09:55:51.630Z</time>
      </trkpt>
      <trkpt lat="43.52726" lon="5.60519">
        <ele>763</ele>
        <time>2022-10-19T09:55:52.630Z</time>
      </trkpt>
      <trkpt lat="43.52727" lon="5.60517">
        <ele>763</ele>
        <time>2022-10-19T09:55:53.630Z</time>
      </trkpt>
      <trkpt lat="43.52727" lon="5.60516">
        <ele>763</ele>
        <time>2022-10-19T09:55:54.630Z</time>
      </trkpt>
      <trkpt lat="43.52728" lon="5.60515">
        <ele>763</ele>
        <time>2022-10-19T09:55:55.630Z</time>
      </trkpt>
      <trkpt lat="43.52729" lon="5.60514">
        <ele>763</ele>
        <time>2022-10-19T09:55:56.630Z</time>
      </trkpt>
      <trkpt lat="43.52729" lon="5.60513">
        <ele>763</ele>
        <time>2022-10-19T09:55:57.630Z</time>
      </trkpt>
      <trkpt lat="43.5273" lon="5.60512">
        <ele>763</ele>
        <time>2022-10-19T09:55:58.630Z</time>
      </trkpt>
      <trkpt lat="43.5273" lon="5.60511">
        <ele>763</ele>
        <time>2022-10-19T09:55:59.630Z</time>
      </trkpt>
      <trkpt lat="43.52731" lon="5.6051">
        <ele>763</ele>
        <time>2022-10-19T09:56:00.630Z</time>
      </trkpt>
      <trkpt lat="43.52731" lon="5.60508">
        <ele>763</ele>
        <time>2022-10-19T09:56:01.630Z</time>
      </trkpt>
      <trkpt lat="43.52731" lon="5.60507">
        <ele>763</ele>
        <time>2022-10-19T09:56:02.630Z</time>
      </trkpt>
      <trkpt lat="43.52732" lon="5.60505">
        <ele>763</ele>
        <time>2022-10-19T09:56:03.630Z</time>
      </trkpt>
      <trkpt lat="43.52732" lon="5.60504">
        <ele>763</ele>
        <time>2022-10-19T09:56:04.630Z</time>
      </trkpt>
      <trkpt lat="43.52733" lon="5.60503">
        <ele>763</ele>
        <time>2022-10-19T09:56:05.630Z</time>
      </trkpt>
      <trkpt lat="43.52733" lon="5.60502">
        <ele>763</ele>
        <time>2022-10-19T09:56:06.630Z</time>
      </trkpt>
      <trkpt lat="43.52734" lon="5.60501">
        <ele>763</ele>
        <time>2022-10-19T09:56:07.630Z</time>
      </trkpt>
      <trkpt lat="43.52734" lon="5.605">
        <ele>763</ele>
        <time>2022-10-19T09:56:08.630Z</time>
      </trkpt>
      <trkpt lat="43.52734" lon="5.60498">
        <ele>763</ele>
        <time>2022-10-19T09:56:09.630Z</time>
      </trkpt>
      <trkpt lat="43.52735" lon="5.60497">
        <ele>763</ele>
        <time>2022-10-19T09:56:10.630Z</time>
      </trkpt>
      <trkpt lat="43.52735" lon="5.60496">
        <ele>763</ele>
        <time>2022-10-19T09:56:11.630Z</time>
      </trkpt>
      <trkpt lat="43.52736" lon="5.60494">
        <ele>763</ele>
        <time>2022-10-19T09:56:12.630Z</time>
      </trkpt>
      <trkpt lat="43.52736" lon="5.60493">
        <ele>763</ele>
        <time>2022-10-19T09:56:13.630Z</time>
      </trkpt>
      <trkpt lat="43.52736" lon="5.60492">
        <ele>763</ele>
        <time>2022-10-19T09:56:14.630Z</time>
      </trkpt>
      <trkpt lat="43.52736" lon="5.6049">
        <ele>763</ele>
        <time>2022-10-19T09:56:15.630Z</time>
      </trkpt>
      <trkpt lat="43.52737" lon="5.60489">
        <ele>763</ele>
        <time>2022-10-19T09:56:16.630Z</time>
      </trkpt>
      <trkpt lat="43.52737" lon="5.60488">
        <ele>763</ele>
        <time>2022-10-19T09:56:17.630Z</time>
      </trkpt>
      <trkpt lat="43.52738" lon="5.60487">
        <ele>763</ele>
        <time>2022-10-19T09:56:18.630Z</time>
      </trkpt>
      <trkpt lat="43.52738" lon="5.60485">
        <ele>763</ele>
        <time>2022-10-19T09:56:19.630Z</time>
      </trkpt>
      <trkpt lat="43.52738" lon="5.60484">
        <ele>763</ele>
        <time>2022-10-19T09:56:20.630Z</time>
      </trkpt>
      <trkpt lat="43.52738" lon="5.60483">
        <ele>763</ele>
        <time>2022-10-19T09:56:21.630Z</time>
      </trkpt>
      <trkpt lat="43.52738" lon="5.60482">
        <ele>763</ele>
        <time>2022-10-19T09:56:22.630Z</time>
      </trkpt>
      <trkpt lat="43.52738" lon="5.6048">
        <ele>762</ele>
        <time>2022-10-19T09:56:23.630Z</time>
      </trkpt>
      <trkpt lat="43.52738" lon="5.60479">
        <ele>762</ele>
        <time>2022-10-19T09:56:24.630Z</time>
      </trkpt>
      <trkpt lat="43.52738" lon="5.60478">
        <ele>762</ele>
        <time>2022-10-19T09:56:25.630Z</time>
      </trkpt>
      <trkpt lat="43.52738" lon="5.60477">
        <ele>762</ele>
        <time>2022-10-19T09:56:26.630Z</time>
      </trkpt>
      <trkpt lat="43.52737" lon="5.60475">
        <ele>762</ele>
        <time>2022-10-19T09:56:27.630Z</time>
      </trkpt>
      <trkpt lat="43.52737" lon="5.60474">
        <ele>762</ele>
        <time>2022-10-19T09:56:28.630Z</time>
      </trkpt>
      <trkpt lat="43.52736" lon="5.60473">
        <ele>762</ele>
        <time>2022-10-19T09:56:29.630Z</time>
      </trkpt>
      <trkpt lat="43.52736" lon="5.60471">
        <ele>762</ele>
        <time>2022-10-19T09:56:30.630Z</time>
      </trkpt>
      <trkpt lat="43.52736" lon="5.6047">
        <ele>762</ele>
        <time>2022-10-19T09:56:31.630Z</time>
      </trkpt>
      <trkpt lat="43.52736" lon="5.60468">
        <ele>762</ele>
        <time>2022-10-19T09:56:32.630Z</time>
      </trkpt>
      <trkpt lat="43.52736" lon="5.60467">
        <ele>762</ele>
        <time>2022-10-19T09:56:33.630Z</time>
      </trkpt>
      <trkpt lat="43.52736" lon="5.60465">
        <ele>762</ele>
        <time>2022-10-19T09:56:34.630Z</time>
      </trkpt>
      <trkpt lat="43.52736" lon="5.60464">
        <ele>762</ele>
        <time>2022-10-19T09:56:35.630Z</time>
      </trkpt>
      <trkpt lat="43.52736" lon="5.60462">
        <ele>762</ele>
        <time>2022-10-19T09:56:36.630Z</time>
      </trkpt>
      <trkpt lat="43.52736" lon="5.60461">
        <ele>762</ele>
        <time>2022-10-19T09:56:37.630Z</time>
      </trkpt>
      <trkpt lat="43.52736" lon="5.6046">
        <ele>762</ele>
        <time>2022-10-19T09:56:38.630Z</time>
      </trkpt>
      <trkpt lat="43.52737" lon="5.60459">
        <ele>762</ele>
        <time>2022-10-19T09:56:39.630Z</time>
      </trkpt>
      <trkpt lat="43.52737" lon="5.60457">
        <ele>762</ele>
        <time>2022-10-19T09:56:40.630Z</time>
      </trkpt>
      <trkpt lat="43.52737" lon="5.60456">
        <ele>762</ele>
        <time>2022-10-19T09:56:41.630Z</time>
      </trkpt>
      <trkpt lat="43.52737" lon="5.60455">
        <ele>762</ele>
        <time>2022-10-19T09:56:42.630Z</time>
      </trkpt>
      <trkpt lat="43.52738" lon="5.60453">
        <ele>762</ele>
        <time>2022-10-19T09:56:43.630Z</time>
      </trkpt>
      <trkpt lat="43.52738" lon="5.60452">
        <ele>762</ele>
        <time>2022-10-19T09:56:44.630Z</time>
      </trkpt>
      <trkpt lat="43.52738" lon="5.60451">
        <ele>762</ele>
        <time>2022-10-19T09:56:45.630Z</time>
      </trkpt>
      <trkpt lat="43.52738" lon="5.6045">
        <ele>762</ele>
        <time>2022-10-19T09:56:46.630Z</time>
      </trkpt>
      <trkpt lat="43.52738" lon="5.60449">
        <ele>762</ele>
        <time>2022-10-19T09:56:47.630Z</time>
      </trkpt>
      <trkpt lat="43.52738" lon="5.60448">
        <ele>762</ele>
        <time>2022-10-19T09:56:48.630Z</time>
      </trkpt>
      <trkpt lat="43.52738" lon="5.60447">
        <ele>762</ele>
        <time>2022-10-19T09:56:49.630Z</time>
      </trkpt>
      <trkpt lat="43.52737" lon="5.60446">
        <ele>762</ele>
        <time>2022-10-19T09:56:50.630Z</time>
      </trkpt>
      <trkpt lat="43.52737" lon="5.60445">
        <ele>762</ele>
        <time>2022-10-19T09:56:51.630Z</time>
      </trkpt>
      <trkpt lat="43.52737" lon="5.60444">
        <ele>762</ele>
        <time>2022-10-19T09:56:52.630Z</time>
      </trkpt>
      <trkpt lat="43.52736" lon="5.60443">
        <ele>762</ele>
        <time>2022-10-19T09:56:53.630Z</time>
      </trkpt>
      <trkpt lat="43.52736" lon="5.60441">
        <ele>762</ele>
        <time>2022-10-19T09:56:54.630Z</time>
      </trkpt>
      <trkpt lat="43.52736" lon="5.6044">
        <ele>762</ele>
        <time>2022-10-19T09:56:55.630Z</time>
      </trkpt>
      <trkpt lat="43.52735" lon="5.60439">
        <ele>762</ele>
        <time>2022-10-19T09:56:56.630Z</time>
      </trkpt>
      <trkpt lat="43.52735" lon="5.60438">
        <ele>762</ele>
        <time>2022-10-19T09:56:57.630Z</time>
      </trkpt>
      <trkpt lat="43.52735" lon="5.60437">
        <ele>762</ele>
        <time>2022-10-19T09:56:58.630Z</time>
      </trkpt>
      <trkpt lat="43.52735" lon="5.60436">
        <ele>762</ele>
        <time>2022-10-19T09:56:59.630Z</time>
      </trkpt>
      <trkpt lat="43.52735" lon="5.60435">
        <ele>762</ele>
        <time>2022-10-19T09:57:00.630Z</time>
      </trkpt>
      <trkpt lat="43.52734" lon="5.60434">
        <ele>762</ele>
        <time>2022-10-19T09:57:01.630Z</time>
      </trkpt>
      <trkpt lat="43.52734" lon="5.60434">
        <ele>761</ele>
        <time>2022-10-19T09:57:02.630Z</time>
      </trkpt>
      <trkpt lat="43.52733" lon="5.60433">
        <ele>761</ele>
        <time>2022-10-19T09:57:03.630Z</time>
      </trkpt>
      <trkpt lat="43.52733" lon="5.60432">
        <ele>761</ele>
        <time>2022-10-19T09:57:04.630Z</time>
      </trkpt>
      <trkpt lat="43.52732" lon="5.60431">
        <ele>761</ele>
        <time>2022-10-19T09:57:05.630Z</time>
      </trkpt>
      <trkpt lat="43.52731" lon="5.6043">
        <ele>761</ele>
        <time>2022-10-19T09:57:06.630Z</time>
      </trkpt>
      <trkpt lat="43.52731" lon="5.60429">
        <ele>761</ele>
        <time>2022-10-19T09:57:07.630Z</time>
      </trkpt>
      <trkpt lat="43.5273" lon="5.60427">
        <ele>761</ele>
        <time>2022-10-19T09:57:08.630Z</time>
      </trkpt>
      <trkpt lat="43.52731" lon="5.60426">
        <ele>761</ele>
        <time>2022-10-19T09:57:09.630Z</time>
      </trkpt>
      <trkpt lat="43.52731" lon="5.60425">
        <ele>761</ele>
        <time>2022-10-19T09:57:10.630Z</time>
      </trkpt>
      <trkpt lat="43.5273" lon="5.60424">
        <ele>761</ele>
        <time>2022-10-19T09:57:11.630Z</time>
      </trkpt>
      <trkpt lat="43.5273" lon="5.60423">
        <ele>761</ele>
        <time>2022-10-19T09:57:12.630Z</time>
      </trkpt>
      <trkpt lat="43.5273" lon="5.60422">
        <ele>761</ele>
        <time>2022-10-19T09:57:13.630Z</time>
      </trkpt>
      <trkpt lat="43.5273" lon="5.60421">
        <ele>761</ele>
        <time>2022-10-19T09:57:14.630Z</time>
      </trkpt>
      <trkpt lat="43.5273" lon="5.6042">
        <ele>761</ele>
        <time>2022-10-19T09:57:15.630Z</time>
      </trkpt>
      <trkpt lat="43.52729" lon="5.60418">
        <ele>761</ele>
        <time>2022-10-19T09:57:16.630Z</time>
      </trkpt>
      <trkpt lat="43.52729" lon="5.60417">
        <ele>761</ele>
        <time>2022-10-19T09:57:17.630Z</time>
      </trkpt>
      <trkpt lat="43.52729" lon="5.60416">
        <ele>761</ele>
        <time>2022-10-19T09:57:18.630Z</time>
      </trkpt>
      <trkpt lat="43.52729" lon="5.60415">
        <ele>761</ele>
        <time>2022-10-19T09:57:19.630Z</time>
      </trkpt>
      <trkpt lat="43.52728" lon="5.60414">
        <ele>761</ele>
        <time>2022-10-19T09:57:20.630Z</time>
      </trkpt>
      <trkpt lat="43.52728" lon="5.60414">
        <ele>761</ele>
        <time>2022-10-19T09:57:21.630Z</time>
      </trkpt>
      <trkpt lat="43.52728" lon="5.60414">
        <ele>761</ele>
        <time>2022-10-19T09:57:22.630Z</time>
      </trkpt>
      <trkpt lat="43.52728" lon="5.60414">
        <ele>761</ele>
        <time>2022-10-19T09:57:23.630Z</time>
      </trkpt>
      <trkpt lat="43.52728" lon="5.60414">
        <ele>761</ele>
        <time>2022-10-19T09:57:24.630Z</time>
      </trkpt>
      <trkpt lat="43.52728" lon="5.60414">
        <ele>761</ele>
        <time>2022-10-19T09:57:25.630Z</time>
      </trkpt>
      <trkpt lat="43.52728" lon="5.60414">
        <ele>761</ele>
        <time>2022-10-19T09:57:26.630Z</time>
      </trkpt>
      <trkpt lat="43.52728" lon="5.60414">
        <ele>761</ele>
        <time>2022-10-19T09:57:27.630Z</time>
      </trkpt>
      <trkpt lat="43.52728" lon="5.60414">
        <ele>761</ele>
        <time>2022-10-19T09:57:28.630Z</time>
      </trkpt>
      <trkpt lat="43.52728" lon="5.60414">
        <ele>761</ele>
        <time>2022-10-19T09:57:29.630Z</time>
      </trkpt>
      <trkpt lat="43.52729" lon="5.60414">
        <ele>761</ele>
        <time>2022-10-19T09:57:30.630Z</time>
      </trkpt>
      <trkpt lat="43.52728" lon="5.60413">
        <ele>761</ele>
        <time>2022-10-19T09:57:31.630Z</time>
      </trkpt>
      <trkpt lat="43.52728" lon="5.60413">
        <ele>761</ele>
        <time>2022-10-19T09:57:32.630Z</time>
      </trkpt>
      <trkpt lat="43.52728" lon="5.60413">
        <ele>761</ele>
        <time>2022-10-19T09:57:33.630Z</time>
      </trkpt>
      <trkpt lat="43.52728" lon="5.60414">
        <ele>761</ele>
        <time>2022-10-19T09:57:34.630Z</time>
      </trkpt>
      <trkpt lat="43.52728" lon="5.60414">
        <ele>761</ele>
        <time>2022-10-19T09:57:35.630Z</time>
      </trkpt>
      <trkpt lat="43.52728" lon="5.60414">
        <ele>761</ele>
        <time>2022-10-19T09:57:36.630Z</time>
      </trkpt>
      <trkpt lat="43.52728" lon="5.60414">
        <ele>761</ele>
        <time>2022-10-19T09:57:37.630Z</time>
      </trkpt>
      <trkpt lat="43.52728" lon="5.60414">
        <ele>761</ele>
        <time>2022-10-19T09:57:38.630Z</time>
      </trkpt>
      <trkpt lat="43.52728" lon="5.60414">
        <ele>761</ele>
        <time>2022-10-19T09:57:39.630Z</time>
      </trkpt>
      <trkpt lat="43.52728" lon="5.60414">
        <ele>761</ele>
        <time>2022-10-19T09:57:40.630Z</time>
      </trkpt>
      <trkpt lat="43.52728" lon="5.60414">
        <ele>761</ele>
        <time>2022-10-19T09:57:41.630Z</time>
      </trkpt>
      <trkpt lat="43.52728" lon="5.60414">
        <ele>761</ele>
        <time>2022-10-19T09:57:42.630Z</time>
      </trkpt>
      <trkpt lat="43.52728" lon="5.60414">
        <ele>761</ele>
        <time>2022-10-19T09:57:43.630Z</time>
      </trkpt>
      <trkpt lat="43.52728" lon="5.60414">
        <ele>761</ele>
        <time>2022-10-19T09:57:44.630Z</time>
      </trkpt>
      <trkpt lat="43.52728" lon="5.60414">
        <ele>761</ele>
        <time>2022-10-19T09:57:45.630Z</time>
      </trkpt>
      <trkpt lat="43.52728" lon="5.60414">
        <ele>761</ele>
        <time>2022-10-19T09:57:46.630Z</time>
      </trkpt>
      <trkpt lat="43.52728" lon="5.60414">
        <ele>761</ele>
        <time>2022-10-19T09:57:47.630Z</time>
      </trkpt>
      <trkpt lat="43.52728" lon="5.60414">
        <ele>761</ele>
        <time>2022-10-19T09:57:48.630Z</time>
      </trkpt>
      <trkpt lat="43.52728" lon="5.60414">
        <ele>761</ele>
        <time>2022-10-19T09:57:49.630Z</time>
      </trkpt>
      <trkpt lat="43.52728" lon="5.60414">
        <ele>761</ele>
        <time>2022-10-19T09:57:50.630Z</time>
      </trkpt>
      <trkpt lat="43.52728" lon="5.60414">
        <ele>761</ele>
        <time>2022-10-19T09:57:51.630Z</time>
      </trkpt>
      <trkpt lat="43.52728" lon="5.60414">
        <ele>761</ele>
        <time>2022-10-19T09:57:52.630Z</time>
      </trkpt>
      <trkpt lat="43.52728" lon="5.60414">
        <ele>761</ele>
        <time>2022-10-19T09:57:53.630Z</time>
      </trkpt>
      <trkpt lat="43.52728" lon="5.60414">
        <ele>761</ele>
        <time>2022-10-19T09:57:54.630Z</time>
      </trkpt>
      <trkpt lat="43.52728" lon="5.60414">
        <ele>761</ele>
        <time>2022-10-19T09:57:55.630Z</time>
      </trkpt>
      <trkpt lat="43.52728" lon="5.60414">
        <ele>761</ele>
        <time>2022-10-19T09:57:56.630Z</time>
      </trkpt>
      <trkpt lat="43.52728" lon="5.60414">
        <ele>761</ele>
        <time>2022-10-19T09:57:57.630Z</time>
      </trkpt>
      <trkpt lat="43.52728" lon="5.60414">
        <ele>761</ele>
        <time>2022-10-19T09:57:58.630Z</time>
      </trkpt>
      <trkpt lat="43.52728" lon="5.60414">
        <ele>761</ele>
        <time>2022-10-19T09:57:59.630Z</time>
      </trkpt>
      <trkpt lat="43.52728" lon="5.60414">
        <ele>761</ele>
        <time>2022-10-19T09:58:00.630Z</time>
      </trkpt>
      <trkpt lat="43.52728" lon="5.60414">
        <ele>761</ele>
        <time>2022-10-19T09:58:01.630Z</time>
      </trkpt>
      <trkpt lat="43.52728" lon="5.60414">
        <ele>761</ele>
        <time>2022-10-19T09:58:02.630Z</time>
      </trkpt>
      <trkpt lat="43.52728" lon="5.60414">
        <ele>761</ele>
        <time>2022-10-19T09:58:03.630Z</time>
      </trkpt>
      <trkpt lat="43.52728" lon="5.60414">
        <ele>761</ele>
        <time>2022-10-19T09:58:04.630Z</time>
      </trkpt>
      <trkpt lat="43.52728" lon="5.60414">
        <ele>761</ele>
        <time>2022-10-19T09:58:05.630Z</time>
      </trkpt>
      <trkpt lat="43.52728" lon="5.60414">
        <ele>761</ele>
        <time>2022-10-19T09:58:06.630Z</time>
      </trkpt>
      <trkpt lat="43.52728" lon="5.60414">
        <ele>761</ele>
        <time>2022-10-19T09:58:07.630Z</time>
      </trkpt>
      <trkpt lat="43.52728" lon="5.60414">
        <ele>761</ele>
        <time>2022-10-19T09:58:08.630Z</time>
      </trkpt>
      <trkpt lat="43.52728" lon="5.60414">
        <ele>761</ele>
        <time>2022-10-19T09:58:09.630Z</time>
      </trkpt>
      <trkpt lat="43.52728" lon="5.60414">
        <ele>761</ele>
        <time>2022-10-19T09:58:10.630Z</time>
      </trkpt>
      <trkpt lat="43.52728" lon="5.60414">
        <ele>761</ele>
        <time>2022-10-19T09:58:11.630Z</time>
      </trkpt>
      <trkpt lat="43.52728" lon="5.60414">
        <ele>761</ele>
        <time>2022-10-19T09:58:12.630Z</time>
      </trkpt>
      <trkpt lat="43.52728" lon="5.60414">
        <ele>761</ele>
        <time>2022-10-19T09:58:13.630Z</time>
      </trkpt>
      <trkpt lat="43.52728" lon="5.60414">
        <ele>761</ele>
        <time>2022-10-19T09:58:14.630Z</time>
      </trkpt>
      <trkpt lat="43.52728" lon="5.60414">
        <ele>761</ele>
        <time>2022-10-19T09:58:15.630Z</time>
      </trkpt>
      <trkpt lat="43.52727" lon="5.60413">
        <ele>761</ele>
        <time>2022-10-19T09:58:16.630Z</time>
      </trkpt>
      <trkpt lat="43.52727" lon="5.60412">
        <ele>761</ele>
        <time>2022-10-19T09:58:17.630Z</time>
      </trkpt>
      <trkpt lat="43.52727" lon="5.60411">
        <ele>761</ele>
        <time>2022-10-19T09:58:18.630Z</time>
      </trkpt>
      <trkpt lat="43.52726" lon="5.6041">
        <ele>761</ele>
        <time>2022-10-19T09:58:19.630Z</time>
      </trkpt>
      <trkpt lat="43.52726" lon="5.60409">
        <ele>761</ele>
        <time>2022-10-19T09:58:20.630Z</time>
      </trkpt>
      <trkpt lat="43.52726" lon="5.60408">
        <ele>761</ele>
        <time>2022-10-19T09:58:21.630Z</time>
      </trkpt>
      <trkpt lat="43.52726" lon="5.60407">
        <ele>761</ele>
        <time>2022-10-19T09:58:22.630Z</time>
      </trkpt>
      <trkpt lat="43.52726" lon="5.60406">
        <ele>761</ele>
        <time>2022-10-19T09:58:23.630Z</time>
      </trkpt>
      <trkpt lat="43.52727" lon="5.60406">
        <ele>761</ele>
        <time>2022-10-19T09:58:24.630Z</time>
      </trkpt>
      <trkpt lat="43.52728" lon="5.60406">
        <ele>761</ele>
        <time>2022-10-19T09:58:25.630Z</time>
      </trkpt>
      <trkpt lat="43.52728" lon="5.60406">
        <ele>761</ele>
        <time>2022-10-19T09:58:26.630Z</time>
      </trkpt>
      <trkpt lat="43.52729" lon="5.60406">
        <ele>761</ele>
        <time>2022-10-19T09:58:27.630Z</time>
      </trkpt>
      <trkpt lat="43.52729" lon="5.60406">
        <ele>761</ele>
        <time>2022-10-19T09:58:28.630Z</time>
      </trkpt>
      <trkpt lat="43.5273" lon="5.60406">
        <ele>761</ele>
        <time>2022-10-19T09:58:29.630Z</time>
      </trkpt>
      <trkpt lat="43.5273" lon="5.60407">
        <ele>761</ele>
        <time>2022-10-19T09:58:30.630Z</time>
      </trkpt>
      <trkpt lat="43.52731" lon="5.60408">
        <ele>762</ele>
        <time>2022-10-19T09:58:31.630Z</time>
      </trkpt>
      <trkpt lat="43.52731" lon="5.60409">
        <ele>762</ele>
        <time>2022-10-19T09:58:32.630Z</time>
      </trkpt>
      <trkpt lat="43.52732" lon="5.6041">
        <ele>762</ele>
        <time>2022-10-19T09:58:33.630Z</time>
      </trkpt>
      <trkpt lat="43.52732" lon="5.6041">
        <ele>762</ele>
        <time>2022-10-19T09:58:34.630Z</time>
      </trkpt>
      <trkpt lat="43.52732" lon="5.60411">
        <ele>762</ele>
        <time>2022-10-19T09:58:35.630Z</time>
      </trkpt>
      <trkpt lat="43.52733" lon="5.60411">
        <ele>762</ele>
        <time>2022-10-19T09:58:36.630Z</time>
      </trkpt>
      <trkpt lat="43.52734" lon="5.60411">
        <ele>762</ele>
        <time>2022-10-19T09:58:37.630Z</time>
      </trkpt>
      <trkpt lat="43.52734" lon="5.60411">
        <ele>762</ele>
        <time>2022-10-19T09:58:38.630Z</time>
      </trkpt>
      <trkpt lat="43.52735" lon="5.60412">
        <ele>762</ele>
        <time>2022-10-19T09:58:39.630Z</time>
      </trkpt>
      <trkpt lat="43.52736" lon="5.60413">
        <ele>762</ele>
        <time>2022-10-19T09:58:40.630Z</time>
      </trkpt>
      <trkpt lat="43.52736" lon="5.60413">
        <ele>762</ele>
        <time>2022-10-19T09:58:41.630Z</time>
      </trkpt>
      <trkpt lat="43.52736" lon="5.60414">
        <ele>762</ele>
        <time>2022-10-19T09:58:42.630Z</time>
      </trkpt>
      <trkpt lat="43.52737" lon="5.60415">
        <ele>763</ele>
        <time>2022-10-19T09:58:43.630Z</time>
      </trkpt>
      <trkpt lat="43.52737" lon="5.60415">
        <ele>763</ele>
        <time>2022-10-19T09:58:44.630Z</time>
      </trkpt>
      <trkpt lat="43.52737" lon="5.60415">
        <ele>763</ele>
        <time>2022-10-19T09:58:45.630Z</time>
      </trkpt>
      <trkpt lat="43.52738" lon="5.60416">
        <ele>763</ele>
        <time>2022-10-19T09:58:46.630Z</time>
      </trkpt>
      <trkpt lat="43.52738" lon="5.60415">
        <ele>763</ele>
        <time>2022-10-19T09:58:47.630Z</time>
      </trkpt>
      <trkpt lat="43.52739" lon="5.60416">
        <ele>763</ele>
        <time>2022-10-19T09:58:48.630Z</time>
      </trkpt>
      <trkpt lat="43.52739" lon="5.60416">
        <ele>763</ele>
        <time>2022-10-19T09:58:49.630Z</time>
      </trkpt>
      <trkpt lat="43.5274" lon="5.60416">
        <ele>763</ele>
        <time>2022-10-19T09:58:50.630Z</time>
      </trkpt>
      <trkpt lat="43.5274" lon="5.60417">
        <ele>763</ele>
        <time>2022-10-19T09:58:51.630Z</time>
      </trkpt>
      <trkpt lat="43.52741" lon="5.60417">
        <ele>763</ele>
        <time>2022-10-19T09:58:52.630Z</time>
      </trkpt>
      <trkpt lat="43.52741" lon="5.60418">
        <ele>763</ele>
        <time>2022-10-19T09:58:53.630Z</time>
      </trkpt>
      <trkpt lat="43.52742" lon="5.60418">
        <ele>763</ele>
        <time>2022-10-19T09:58:54.630Z</time>
      </trkpt>
      <trkpt lat="43.52742" lon="5.60419">
        <ele>763</ele>
        <time>2022-10-19T09:58:55.630Z</time>
      </trkpt>
      <trkpt lat="43.52743" lon="5.6042">
        <ele>764</ele>
        <time>2022-10-19T09:58:56.630Z</time>
      </trkpt>
      <trkpt lat="43.52743" lon="5.6042">
        <ele>764</ele>
        <time>2022-10-19T09:58:57.630Z</time>
      </trkpt>
      <trkpt lat="43.52744" lon="5.60421">
        <ele>764</ele>
        <time>2022-10-19T09:58:58.630Z</time>
      </trkpt>
      <trkpt lat="43.52744" lon="5.60421">
        <ele>764</ele>
        <time>2022-10-19T09:58:59.630Z</time>
      </trkpt>
      <trkpt lat="43.52745" lon="5.60422">
        <ele>764</ele>
        <time>2022-10-19T09:59:00.630Z</time>
      </trkpt>
      <trkpt lat="43.52746" lon="5.60422">
        <ele>764</ele>
        <time>2022-10-19T09:59:01.630Z</time>
      </trkpt>
      <trkpt lat="43.52746" lon="5.60422">
        <ele>764</ele>
        <time>2022-10-19T09:59:02.630Z</time>
      </trkpt>
      <trkpt lat="43.52747" lon="5.60422">
        <ele>764</ele>
        <time>2022-10-19T09:59:03.630Z</time>
      </trkpt>
      <trkpt lat="43.52747" lon="5.60421">
        <ele>764</ele>
        <time>2022-10-19T09:59:04.630Z</time>
      </trkpt>
      <trkpt lat="43.52748" lon="5.60421">
        <ele>764</ele>
        <time>2022-10-19T09:59:05.630Z</time>
      </trkpt>
      <trkpt lat="43.52748" lon="5.60421">
        <ele>764</ele>
        <time>2022-10-19T09:59:06.630Z</time>
      </trkpt>
      <trkpt lat="43.52748" lon="5.60421">
        <ele>764</ele>
        <time>2022-10-19T09:59:07.630Z</time>
      </trkpt>
      <trkpt lat="43.52748" lon="5.60421">
        <ele>764</ele>
        <time>2022-10-19T09:59:08.630Z</time>
      </trkpt>
      <trkpt lat="43.52748" lon="5.60421">
        <ele>765</ele>
        <time>2022-10-19T09:59:09.630Z</time>
      </trkpt>
      <trkpt lat="43.52748" lon="5.60421">
        <ele>765</ele>
        <time>2022-10-19T09:59:10.630Z</time>
      </trkpt>
      <trkpt lat="43.52748" lon="5.60421">
        <ele>765</ele>
        <time>2022-10-19T09:59:11.630Z</time>
      </trkpt>
      <trkpt lat="43.52748" lon="5.60421">
        <ele>765</ele>
        <time>2022-10-19T09:59:12.630Z</time>
      </trkpt>
      <trkpt lat="43.52748" lon="5.60421">
        <ele>765</ele>
        <time>2022-10-19T09:59:13.630Z</time>
      </trkpt>
      <trkpt lat="43.52748" lon="5.60421">
        <ele>765</ele>
        <time>2022-10-19T09:59:14.630Z</time>
      </trkpt>
      <trkpt lat="43.52748" lon="5.60421">
        <ele>765</ele>
        <time>2022-10-19T09:59:15.630Z</time>
      </trkpt>
      <trkpt lat="43.52748" lon="5.60421">
        <ele>765</ele>
        <time>2022-10-19T09:59:16.630Z</time>
      </trkpt>
      <trkpt lat="43.52748" lon="5.60421">
        <ele>765</ele>
        <time>2022-10-19T09:59:17.630Z</time>
      </trkpt>
      <trkpt lat="43.52748" lon="5.60421">
        <ele>765</ele>
        <time>2022-10-19T09:59:18.630Z</time>
      </trkpt>
      <trkpt lat="43.52748" lon="5.60421">
        <ele>765</ele>
        <time>2022-10-19T09:59:19.630Z</time>
      </trkpt>
      <trkpt lat="43.52748" lon="5.60421">
        <ele>765</ele>
        <time>2022-10-19T09:59:20.630Z</time>
      </trkpt>
      <trkpt lat="43.52749" lon="5.60421">
        <ele>765</ele>
        <time>2022-10-19T09:59:21.630Z</time>
      </trkpt>
      <trkpt lat="43.52749" lon="5.60421">
        <ele>765</ele>
        <time>2022-10-19T09:59:22.630Z</time>
      </trkpt>
      <trkpt lat="43.5275" lon="5.60421">
        <ele>765</ele>
        <time>2022-10-19T09:59:23.630Z</time>
      </trkpt>
      <trkpt lat="43.5275" lon="5.60421">
        <ele>765</ele>
        <time>2022-10-19T09:59:24.630Z</time>
      </trkpt>
      <trkpt lat="43.5275" lon="5.60421">
        <ele>765</ele>
        <time>2022-10-19T09:59:25.630Z</time>
      </trkpt>
      <trkpt lat="43.5275" lon="5.60422">
        <ele>765</ele>
        <time>2022-10-19T09:59:26.630Z</time>
      </trkpt>
      <trkpt lat="43.52751" lon="5.60422">
        <ele>765</ele>
        <time>2022-10-19T09:59:27.630Z</time>
      </trkpt>
      <trkpt lat="43.52751" lon="5.60423">
        <ele>765</ele>
        <time>2022-10-19T09:59:28.630Z</time>
      </trkpt>
      <trkpt lat="43.52751" lon="5.60423">
        <ele>765</ele>
        <time>2022-10-19T09:59:29.630Z</time>
      </trkpt>
      <trkpt lat="43.52751" lon="5.60423">
        <ele>765</ele>
        <time>2022-10-19T09:59:30.630Z</time>
      </trkpt>
      <trkpt lat="43.52752" lon="5.60424">
        <ele>766</ele>
        <time>2022-10-19T09:59:31.630Z</time>
      </trkpt>
      <trkpt lat="43.52752" lon="5.60425">
        <ele>766</ele>
        <time>2022-10-19T09:59:32.630Z</time>
      </trkpt>
      <trkpt lat="43.52752" lon="5.60426">
        <ele>766</ele>
        <time>2022-10-19T09:59:33.630Z</time>
      </trkpt>
      <trkpt lat="43.52752" lon="5.60427">
        <ele>766</ele>
        <time>2022-10-19T09:59:34.630Z</time>
      </trkpt>
      <trkpt lat="43.52752" lon="5.60427">
        <ele>766</ele>
        <time>2022-10-19T09:59:35.630Z</time>
      </trkpt>
      <trkpt lat="43.52752" lon="5.60428">
        <ele>766</ele>
        <time>2022-10-19T09:59:36.630Z</time>
      </trkpt>
      <trkpt lat="43.52752" lon="5.60429">
        <ele>766</ele>
        <time>2022-10-19T09:59:37.630Z</time>
      </trkpt>
      <trkpt lat="43.52752" lon="5.60429">
        <ele>766</ele>
        <time>2022-10-19T09:59:38.630Z</time>
      </trkpt>
      <trkpt lat="43.52752" lon="5.6043">
        <ele>766</ele>
        <time>2022-10-19T09:59:39.630Z</time>
      </trkpt>
      <trkpt lat="43.52753" lon="5.6043">
        <ele>766</ele>
        <time>2022-10-19T09:59:40.630Z</time>
      </trkpt>
      <trkpt lat="43.52753" lon="5.60431">
        <ele>766</ele>
        <time>2022-10-19T09:59:41.630Z</time>
      </trkpt>
      <trkpt lat="43.52753" lon="5.60431">
        <ele>767</ele>
        <time>2022-10-19T09:59:42.630Z</time>
      </trkpt>
      <trkpt lat="43.52754" lon="5.60432">
        <ele>767</ele>
        <time>2022-10-19T09:59:43.630Z</time>
      </trkpt>
      <trkpt lat="43.52754" lon="5.60432">
        <ele>767</ele>
        <time>2022-10-19T09:59:44.630Z</time>
      </trkpt>
      <trkpt lat="43.52755" lon="5.60432">
        <ele>767</ele>
        <time>2022-10-19T09:59:45.630Z</time>
      </trkpt>
      <trkpt lat="43.52755" lon="5.60432">
        <ele>767</ele>
        <time>2022-10-19T09:59:46.630Z</time>
      </trkpt>
      <trkpt lat="43.52755" lon="5.60432">
        <ele>767</ele>
        <time>2022-10-19T09:59:47.630Z</time>
      </trkpt>
      <trkpt lat="43.52755" lon="5.60432">
        <ele>768</ele>
        <time>2022-10-19T09:59:48.630Z</time>
      </trkpt>
      <trkpt lat="43.52756" lon="5.60432">
        <ele>768</ele>
        <time>2022-10-19T09:59:49.630Z</time>
      </trkpt>
      <trkpt lat="43.52757" lon="5.60432">
        <ele>768</ele>
        <time>2022-10-19T09:59:50.630Z</time>
      </trkpt>
      <trkpt lat="43.52758" lon="5.60432">
        <ele>768</ele>
        <time>2022-10-19T09:59:51.630Z</time>
      </trkpt>
      <trkpt lat="43.52758" lon="5.60433">
        <ele>768</ele>
        <time>2022-10-19T09:59:52.630Z</time>
      </trkpt>
      <trkpt lat="43.52759" lon="5.60433">
        <ele>768</ele>
        <time>2022-10-19T09:59:53.630Z</time>
      </trkpt>
      <trkpt lat="43.52759" lon="5.60434">
        <ele>769</ele>
        <time>2022-10-19T09:59:54.630Z</time>
      </trkpt>
      <trkpt lat="43.52759" lon="5.60435">
        <ele>769</ele>
        <time>2022-10-19T09:59:55.630Z</time>
      </trkpt>
      <trkpt lat="43.5276" lon="5.60435">
        <ele>769</ele>
        <time>2022-10-19T09:59:56.630Z</time>
      </trkpt>
      <trkpt lat="43.5276" lon="5.60436">
        <ele>769</ele>
        <time>2022-10-19T09:59:57.630Z</time>
      </trkpt>
      <trkpt lat="43.5276" lon="5.60437">
        <ele>769</ele>
        <time>2022-10-19T09:59:58.630Z</time>
      </trkpt>
      <trkpt lat="43.52761" lon="5.60437">
        <ele>769</ele>
        <time>2022-10-19T09:59:59.630Z</time>
      </trkpt>
      <trkpt lat="43.52761" lon="5.60438">
        <ele>769</ele>
        <time>2022-10-19T10:00:00.630Z</time>
      </trkpt>
      <trkpt lat="43.52762" lon="5.60438">
        <ele>770</ele>
        <time>2022-10-19T10:00:01.630Z</time>
      </trkpt>
      <trkpt lat="43.52762" lon="5.60439">
        <ele>770</ele>
        <time>2022-10-19T10:00:02.630Z</time>
      </trkpt>
      <trkpt lat="43.52763" lon="5.60439">
        <ele>770</ele>
        <time>2022-10-19T10:00:03.630Z</time>
      </trkpt>
      <trkpt lat="43.52763" lon="5.60439">
        <ele>770</ele>
        <time>2022-10-19T10:00:04.630Z</time>
      </trkpt>
      <trkpt lat="43.52764" lon="5.6044">
        <ele>770</ele>
        <time>2022-10-19T10:00:05.630Z</time>
      </trkpt>
      <trkpt lat="43.52764" lon="5.6044">
        <ele>771</ele>
        <time>2022-10-19T10:00:06.630Z</time>
      </trkpt>
      <trkpt lat="43.52764" lon="5.6044">
        <ele>771</ele>
        <time>2022-10-19T10:00:07.630Z</time>
      </trkpt>
      <trkpt lat="43.52764" lon="5.60441">
        <ele>771</ele>
        <time>2022-10-19T10:00:08.630Z</time>
      </trkpt>
      <trkpt lat="43.52765" lon="5.60442">
        <ele>771</ele>
        <time>2022-10-19T10:00:09.630Z</time>
      </trkpt>
      <trkpt lat="43.52765" lon="5.60443">
        <ele>771</ele>
        <time>2022-10-19T10:00:10.630Z</time>
      </trkpt>
      <trkpt lat="43.52765" lon="5.60443">
        <ele>771</ele>
        <time>2022-10-19T10:00:11.630Z</time>
      </trkpt>
      <trkpt lat="43.52765" lon="5.60444">
        <ele>771</ele>
        <time>2022-10-19T10:00:12.630Z</time>
      </trkpt>
      <trkpt lat="43.52766" lon="5.60445">
        <ele>772</ele>
        <time>2022-10-19T10:00:13.630Z</time>
      </trkpt>
      <trkpt lat="43.52766" lon="5.60445">
        <ele>772</ele>
        <time>2022-10-19T10:00:14.630Z</time>
      </trkpt>
      <trkpt lat="43.52766" lon="5.60446">
        <ele>772</ele>
        <time>2022-10-19T10:00:15.630Z</time>
      </trkpt>
      <trkpt lat="43.52766" lon="5.60447">
        <ele>772</ele>
        <time>2022-10-19T10:00:16.630Z</time>
      </trkpt>
      <trkpt lat="43.52767" lon="5.60448">
        <ele>772</ele>
        <time>2022-10-19T10:00:17.630Z</time>
      </trkpt>
      <trkpt lat="43.52767" lon="5.60448">
        <ele>772</ele>
        <time>2022-10-19T10:00:18.630Z</time>
      </trkpt>
      <trkpt lat="43.52767" lon="5.60449">
        <ele>773</ele>
        <time>2022-10-19T10:00:19.630Z</time>
      </trkpt>
      <trkpt lat="43.52767" lon="5.6045">
        <ele>773</ele>
        <time>2022-10-19T10:00:20.630Z</time>
      </trkpt>
      <trkpt lat="43.52767" lon="5.60451">
        <ele>773</ele>
        <time>2022-10-19T10:00:21.630Z</time>
      </trkpt>
      <trkpt lat="43.52768" lon="5.60451">
        <ele>773</ele>
        <time>2022-10-19T10:00:22.630Z</time>
      </trkpt>
      <trkpt lat="43.52768" lon="5.60452">
        <ele>773</ele>
        <time>2022-10-19T10:00:23.630Z</time>
      </trkpt>
      <trkpt lat="43.52768" lon="5.60452">
        <ele>773</ele>
        <time>2022-10-19T10:00:24.630Z</time>
      </trkpt>
      <trkpt lat="43.52768" lon="5.60453">
        <ele>773</ele>
        <time>2022-10-19T10:00:25.630Z</time>
      </trkpt>
      <trkpt lat="43.52769" lon="5.60454">
        <ele>774</ele>
        <time>2022-10-19T10:00:26.630Z</time>
      </trkpt>
      <trkpt lat="43.52769" lon="5.60454">
        <ele>774</ele>
        <time>2022-10-19T10:00:27.630Z</time>
      </trkpt>
      <trkpt lat="43.52769" lon="5.60455">
        <ele>774</ele>
        <time>2022-10-19T10:00:28.630Z</time>
      </trkpt>
      <trkpt lat="43.52769" lon="5.60455">
        <ele>774</ele>
        <time>2022-10-19T10:00:29.630Z</time>
      </trkpt>
      <trkpt lat="43.5277" lon="5.60456">
        <ele>774</ele>
        <time>2022-10-19T10:00:30.630Z</time>
      </trkpt>
      <trkpt lat="43.5277" lon="5.60456">
        <ele>774</ele>
        <time>2022-10-19T10:00:31.630Z</time>
      </trkpt>
      <trkpt lat="43.5277" lon="5.60456">
        <ele>774</ele>
        <time>2022-10-19T10:00:32.630Z</time>
      </trkpt>
      <trkpt lat="43.52771" lon="5.60457">
        <ele>774</ele>
        <time>2022-10-19T10:00:33.630Z</time>
      </trkpt>
      <trkpt lat="43.52771" lon="5.60457">
        <ele>774</ele>
        <time>2022-10-19T10:00:34.630Z</time>
      </trkpt>
      <trkpt lat="43.52772" lon="5.60458">
        <ele>774</ele>
        <time>2022-10-19T10:00:35.630Z</time>
      </trkpt>
      <trkpt lat="43.52772" lon="5.60458">
        <ele>774</ele>
        <time>2022-10-19T10:00:36.630Z</time>
      </trkpt>
      <trkpt lat="43.52772" lon="5.60458">
        <ele>775</ele>
        <time>2022-10-19T10:00:37.630Z</time>
      </trkpt>
      <trkpt lat="43.52772" lon="5.60458">
        <ele>775</ele>
        <time>2022-10-19T10:00:38.630Z</time>
      </trkpt>
      <trkpt lat="43.52773" lon="5.60457">
        <ele>775</ele>
        <time>2022-10-19T10:00:39.630Z</time>
      </trkpt>
      <trkpt lat="43.52773" lon="5.60457">
        <ele>775</ele>
        <time>2022-10-19T10:00:40.630Z</time>
      </trkpt>
      <trkpt lat="43.52774" lon="5.60457">
        <ele>775</ele>
        <time>2022-10-19T10:00:41.630Z</time>
      </trkpt>
      <trkpt lat="43.52774" lon="5.60457">
        <ele>775</ele>
        <time>2022-10-19T10:00:42.630Z</time>
      </trkpt>
      <trkpt lat="43.52775" lon="5.60457">
        <ele>775</ele>
        <time>2022-10-19T10:00:43.630Z</time>
      </trkpt>
      <trkpt lat="43.52775" lon="5.60458">
        <ele>775</ele>
        <time>2022-10-19T10:00:44.630Z</time>
      </trkpt>
      <trkpt lat="43.52776" lon="5.60458">
        <ele>775</ele>
        <time>2022-10-19T10:00:45.630Z</time>
      </trkpt>
      <trkpt lat="43.52776" lon="5.60458">
        <ele>775</ele>
        <time>2022-10-19T10:00:46.630Z</time>
      </trkpt>
      <trkpt lat="43.52777" lon="5.60459">
        <ele>775</ele>
        <time>2022-10-19T10:00:47.630Z</time>
      </trkpt>
      <trkpt lat="43.52777" lon="5.60459">
        <ele>775</ele>
        <time>2022-10-19T10:00:48.630Z</time>
      </trkpt>
      <trkpt lat="43.52777" lon="5.60459">
        <ele>775</ele>
        <time>2022-10-19T10:00:49.630Z</time>
      </trkpt>
      <trkpt lat="43.52778" lon="5.60459">
        <ele>775</ele>
        <time>2022-10-19T10:00:50.630Z</time>
      </trkpt>
      <trkpt lat="43.52778" lon="5.6046">
        <ele>775</ele>
        <time>2022-10-19T10:00:51.630Z</time>
      </trkpt>
      <trkpt lat="43.52778" lon="5.60461">
        <ele>775</ele>
        <time>2022-10-19T10:00:52.630Z</time>
      </trkpt>
      <trkpt lat="43.52778" lon="5.60461">
        <ele>775</ele>
        <time>2022-10-19T10:00:53.630Z</time>
      </trkpt>
      <trkpt lat="43.52779" lon="5.60462">
        <ele>775</ele>
        <time>2022-10-19T10:00:54.630Z</time>
      </trkpt>
      <trkpt lat="43.52779" lon="5.60462">
        <ele>775</ele>
        <time>2022-10-19T10:00:55.630Z</time>
      </trkpt>
      <trkpt lat="43.52779" lon="5.60462">
        <ele>776</ele>
        <time>2022-10-19T10:00:56.630Z</time>
      </trkpt>
      <trkpt lat="43.52779" lon="5.60462">
        <ele>776</ele>
        <time>2022-10-19T10:00:57.630Z</time>
      </trkpt>
      <trkpt lat="43.52779" lon="5.60462">
        <ele>776</ele>
        <time>2022-10-19T10:00:58.630Z</time>
      </trkpt>
      <trkpt lat="43.52779" lon="5.60462">
        <ele>776</ele>
        <time>2022-10-19T10:00:59.630Z</time>
      </trkpt>
      <trkpt lat="43.52779" lon="5.60462">
        <ele>776</ele>
        <time>2022-10-19T10:01:00.630Z</time>
      </trkpt>
      <trkpt lat="43.52779" lon="5.60462">
        <ele>776</ele>
        <time>2022-10-19T10:01:01.630Z</time>
      </trkpt>
      <trkpt lat="43.52779" lon="5.60462">
        <ele>776</ele>
        <time>2022-10-19T10:01:02.630Z</time>
      </trkpt>
      <trkpt lat="43.52779" lon="5.60462">
        <ele>776</ele>
        <time>2022-10-19T10:01:03.630Z</time>
      </trkpt>
      <trkpt lat="43.52779" lon="5.60462">
        <ele>776</ele>
        <time>2022-10-19T10:01:04.630Z</time>
      </trkpt>
      <trkpt lat="43.52779" lon="5.60462">
        <ele>776</ele>
        <time>2022-10-19T10:01:05.630Z</time>
      </trkpt>
      <trkpt lat="43.52779" lon="5.60462">
        <ele>776</ele>
        <time>2022-10-19T10:01:06.630Z</time>
      </trkpt>
      <trkpt lat="43.52779" lon="5.60462">
        <ele>776</ele>
        <time>2022-10-19T10:01:07.630Z</time>
      </trkpt>
      <trkpt lat="43.52779" lon="5.60462">
        <ele>776</ele>
        <time>2022-10-19T10:01:08.630Z</time>
      </trkpt>
      <trkpt lat="43.52779" lon="5.60462">
        <ele>776</ele>
        <time>2022-10-19T10:01:09.630Z</time>
      </trkpt>
      <trkpt lat="43.52779" lon="5.60462">
        <ele>776</ele>
        <time>2022-10-19T10:01:10.630Z</time>
      </trkpt>
      <trkpt lat="43.52779" lon="5.60462">
        <ele>776</ele>
        <time>2022-10-19T10:01:11.630Z</time>
      </trkpt>
      <trkpt lat="43.52779" lon="5.60462">
        <ele>776</ele>
        <time>2022-10-19T10:01:12.630Z</time>
      </trkpt>
      <trkpt lat="43.52779" lon="5.60462">
        <ele>776</ele>
        <time>2022-10-19T10:01:13.630Z</time>
      </trkpt>
      <trkpt lat="43.52779" lon="5.60462">
        <ele>776</ele>
        <time>2022-10-19T10:01:14.630Z</time>
      </trkpt>
      <trkpt lat="43.52779" lon="5.60462">
        <ele>776</ele>
        <time>2022-10-19T10:01:15.630Z</time>
      </trkpt>
      <trkpt lat="43.52779" lon="5.60462">
        <ele>776</ele>
        <time>2022-10-19T10:01:16.630Z</time>
      </trkpt>
      <trkpt lat="43.52779" lon="5.60462">
        <ele>776</ele>
        <time>2022-10-19T10:01:17.630Z</time>
      </trkpt>
      <trkpt lat="43.52779" lon="5.60462">
        <ele>776</ele>
        <time>2022-10-19T10:01:18.630Z</time>
      </trkpt>
      <trkpt lat="43.52779" lon="5.60462">
        <ele>776</ele>
        <time>2022-10-19T10:01:19.630Z</time>
      </trkpt>
      <trkpt lat="43.52779" lon="5.60462">
        <ele>776</ele>
        <time>2022-10-19T10:01:20.630Z</time>
      </trkpt>
      <trkpt lat="43.52779" lon="5.60462">
        <ele>776</ele>
        <time>2022-10-19T10:01:21.630Z</time>
      </trkpt>
      <trkpt lat="43.52779" lon="5.60462">
        <ele>776</ele>
        <time>2022-10-19T10:01:22.630Z</time>
      </trkpt>
      <trkpt lat="43.52779" lon="5.60461">
        <ele>776</ele>
        <time>2022-10-19T10:01:23.630Z</time>
      </trkpt>
      <trkpt lat="43.52779" lon="5.60461">
        <ele>776</ele>
        <time>2022-10-19T10:01:24.630Z</time>
      </trkpt>
      <trkpt lat="43.52779" lon="5.60461">
        <ele>777</ele>
        <time>2022-10-19T10:01:25.630Z</time>
      </trkpt>
      <trkpt lat="43.52779" lon="5.60461">
        <ele>777</ele>
        <time>2022-10-19T10:01:26.630Z</time>
      </trkpt>
      <trkpt lat="43.52779" lon="5.60461">
        <ele>777</ele>
        <time>2022-10-19T10:01:27.630Z</time>
      </trkpt>
      <trkpt lat="43.52779" lon="5.60461">
        <ele>777</ele>
        <time>2022-10-19T10:01:28.630Z</time>
      </trkpt>
      <trkpt lat="43.52779" lon="5.60461">
        <ele>777</ele>
        <time>2022-10-19T10:01:29.630Z</time>
      </trkpt>
      <trkpt lat="43.52779" lon="5.60461">
        <ele>777</ele>
        <time>2022-10-19T10:01:30.630Z</time>
      </trkpt>
      <trkpt lat="43.52779" lon="5.60461">
        <ele>777</ele>
        <time>2022-10-19T10:01:31.630Z</time>
      </trkpt>
      <trkpt lat="43.52779" lon="5.60461">
        <ele>777</ele>
        <time>2022-10-19T10:01:32.630Z</time>
      </trkpt>
      <trkpt lat="43.52779" lon="5.60461">
        <ele>777</ele>
        <time>2022-10-19T10:01:33.630Z</time>
      </trkpt>
      <trkpt lat="43.52779" lon="5.60461">
        <ele>777</ele>
        <time>2022-10-19T10:01:34.630Z</time>
      </trkpt>
      <trkpt lat="43.52779" lon="5.60462">
        <ele>776</ele>
        <time>2022-10-19T10:01:35.630Z</time>
      </trkpt>
      <trkpt lat="43.52779" lon="5.60462">
        <ele>777</ele>
        <time>2022-10-19T10:01:36.630Z</time>
      </trkpt>
      <trkpt lat="43.52779" lon="5.60462">
        <ele>777</ele>
        <time>2022-10-19T10:01:37.630Z</time>
      </trkpt>
      <trkpt lat="43.52779" lon="5.60462">
        <ele>777</ele>
        <time>2022-10-19T10:01:38.630Z</time>
      </trkpt>
      <trkpt lat="43.52779" lon="5.60462">
        <ele>777</ele>
        <time>2022-10-19T10:01:39.630Z</time>
      </trkpt>
      <trkpt lat="43.52779" lon="5.60462">
        <ele>777</ele>
        <time>2022-10-19T10:01:40.630Z</time>
      </trkpt>
      <trkpt lat="43.52779" lon="5.60462">
        <ele>777</ele>
        <time>2022-10-19T10:01:41.630Z</time>
      </trkpt>
      <trkpt lat="43.52779" lon="5.60461">
        <ele>777</ele>
        <time>2022-10-19T10:01:42.630Z</time>
      </trkpt>
      <trkpt lat="43.52779" lon="5.60462">
        <ele>777</ele>
        <time>2022-10-19T10:01:43.630Z</time>
      </trkpt>
      <trkpt lat="43.52779" lon="5.60462">
        <ele>777</ele>
        <time>2022-10-19T10:01:44.630Z</time>
      </trkpt>
      <trkpt lat="43.52779" lon="5.60462">
        <ele>777</ele>
        <time>2022-10-19T10:01:45.630Z</time>
      </trkpt>
      <trkpt lat="43.52779" lon="5.60462">
        <ele>777</ele>
        <time>2022-10-19T10:01:46.630Z</time>
      </trkpt>
      <trkpt lat="43.52779" lon="5.60462">
        <ele>777</ele>
        <time>2022-10-19T10:01:47.630Z</time>
      </trkpt>
      <trkpt lat="43.52779" lon="5.60462">
        <ele>777</ele>
        <time>2022-10-19T10:01:48.630Z</time>
      </trkpt>
      <trkpt lat="43.52779" lon="5.60462">
        <ele>777</ele>
        <time>2022-10-19T10:01:49.630Z</time>
      </trkpt>
      <trkpt lat="43.52779" lon="5.60461">
        <ele>777</ele>
        <time>2022-10-19T10:01:50.630Z</time>
      </trkpt>
      <trkpt lat="43.52779" lon="5.60462">
        <ele>777</ele>
        <time>2022-10-19T10:01:51.630Z</time>
      </trkpt>
      <trkpt lat="43.52779" lon="5.60461">
        <ele>777</ele>
        <time>2022-10-19T10:01:52.630Z</time>
      </trkpt>
      <trkpt lat="43.52779" lon="5.60461">
        <ele>776</ele>
        <time>2022-10-19T10:01:53.630Z</time>
      </trkpt>
      <trkpt lat="43.5278" lon="5.60462">
        <ele>776</ele>
        <time>2022-10-19T10:01:54.630Z</time>
      </trkpt>
      <trkpt lat="43.5278" lon="5.60462">
        <ele>776</ele>
        <time>2022-10-19T10:01:55.630Z</time>
      </trkpt>
      <trkpt lat="43.5278" lon="5.60462">
        <ele>776</ele>
        <time>2022-10-19T10:01:56.630Z</time>
      </trkpt>
      <trkpt lat="43.5278" lon="5.60462">
        <ele>776</ele>
        <time>2022-10-19T10:01:57.630Z</time>
      </trkpt>
      <trkpt lat="43.52779" lon="5.60462">
        <ele>776</ele>
        <time>2022-10-19T10:01:58.630Z</time>
      </trkpt>
      <trkpt lat="43.52779" lon="5.60462">
        <ele>776</ele>
        <time>2022-10-19T10:01:59.630Z</time>
      </trkpt>
      <trkpt lat="43.52779" lon="5.60462">
        <ele>776</ele>
        <time>2022-10-19T10:02:00.630Z</time>
      </trkpt>
      <trkpt lat="43.5278" lon="5.60461">
        <ele>776</ele>
        <time>2022-10-19T10:02:01.630Z</time>
      </trkpt>
      <trkpt lat="43.5278" lon="5.60462">
        <ele>776</ele>
        <time>2022-10-19T10:02:02.630Z</time>
      </trkpt>
      <trkpt lat="43.52781" lon="5.60462">
        <ele>776</ele>
        <time>2022-10-19T10:02:03.630Z</time>
      </trkpt>
      <trkpt lat="43.52781" lon="5.60463">
        <ele>776</ele>
        <time>2022-10-19T10:02:04.630Z</time>
      </trkpt>
      <trkpt lat="43.52782" lon="5.60463">
        <ele>776</ele>
        <time>2022-10-19T10:02:05.630Z</time>
      </trkpt>
      <trkpt lat="43.52782" lon="5.60464">
        <ele>776</ele>
        <time>2022-10-19T10:02:06.630Z</time>
      </trkpt>
      <trkpt lat="43.52782" lon="5.60465">
        <ele>776</ele>
        <time>2022-10-19T10:02:07.630Z</time>
      </trkpt>
      <trkpt lat="43.52782" lon="5.60465">
        <ele>776</ele>
        <time>2022-10-19T10:02:08.630Z</time>
      </trkpt>
      <trkpt lat="43.52782" lon="5.60465">
        <ele>776</ele>
        <time>2022-10-19T10:02:09.630Z</time>
      </trkpt>
      <trkpt lat="43.52782" lon="5.60466">
        <ele>776</ele>
        <time>2022-10-19T10:02:10.630Z</time>
      </trkpt>
      <trkpt lat="43.52783" lon="5.60466">
        <ele>776</ele>
        <time>2022-10-19T10:02:11.630Z</time>
      </trkpt>
      <trkpt lat="43.52783" lon="5.60466">
        <ele>776</ele>
        <time>2022-10-19T10:02:12.630Z</time>
      </trkpt>
      <trkpt lat="43.52784" lon="5.60466">
        <ele>776</ele>
        <time>2022-10-19T10:02:13.630Z</time>
      </trkpt>
      <trkpt lat="43.52784" lon="5.60466">
        <ele>776</ele>
        <time>2022-10-19T10:02:14.630Z</time>
      </trkpt>
      <trkpt lat="43.52785" lon="5.60466">
        <ele>777</ele>
        <time>2022-10-19T10:02:15.630Z</time>
      </trkpt>
      <trkpt lat="43.52785" lon="5.60465">
        <ele>777</ele>
        <time>2022-10-19T10:02:16.630Z</time>
      </trkpt>
      <trkpt lat="43.52786" lon="5.60466">
        <ele>777</ele>
        <time>2022-10-19T10:02:17.630Z</time>
      </trkpt>
      <trkpt lat="43.52786" lon="5.60467">
        <ele>777</ele>
        <time>2022-10-19T10:02:18.630Z</time>
      </trkpt>
      <trkpt lat="43.52786" lon="5.60467">
        <ele>777</ele>
        <time>2022-10-19T10:02:19.630Z</time>
      </trkpt>
      <trkpt lat="43.52787" lon="5.60467">
        <ele>777</ele>
        <time>2022-10-19T10:02:20.630Z</time>
      </trkpt>
      <trkpt lat="43.52787" lon="5.60467">
        <ele>777</ele>
        <time>2022-10-19T10:02:21.630Z</time>
      </trkpt>
      <trkpt lat="43.52787" lon="5.60467">
        <ele>777</ele>
        <time>2022-10-19T10:02:22.630Z</time>
      </trkpt>
      <trkpt lat="43.52788" lon="5.60467">
        <ele>777</ele>
        <time>2022-10-19T10:02:23.630Z</time>
      </trkpt>
      <trkpt lat="43.52788" lon="5.60468">
        <ele>777</ele>
        <time>2022-10-19T10:02:24.630Z</time>
      </trkpt>
      <trkpt lat="43.52788" lon="5.60467">
        <ele>778</ele>
        <time>2022-10-19T10:02:25.630Z</time>
      </trkpt>
      <trkpt lat="43.52789" lon="5.60467">
        <ele>778</ele>
        <time>2022-10-19T10:02:26.630Z</time>
      </trkpt>
      <trkpt lat="43.52789" lon="5.60467">
        <ele>778</ele>
        <time>2022-10-19T10:02:27.630Z</time>
      </trkpt>
      <trkpt lat="43.52789" lon="5.60468">
        <ele>778</ele>
        <time>2022-10-19T10:02:28.630Z</time>
      </trkpt>
      <trkpt lat="43.5279" lon="5.60467">
        <ele>778</ele>
        <time>2022-10-19T10:02:29.630Z</time>
      </trkpt>
      <trkpt lat="43.5279" lon="5.60467">
        <ele>779</ele>
        <time>2022-10-19T10:02:30.630Z</time>
      </trkpt>
      <trkpt lat="43.52791" lon="5.60467">
        <ele>779</ele>
        <time>2022-10-19T10:02:31.630Z</time>
      </trkpt>
      <trkpt lat="43.52791" lon="5.60467">
        <ele>779</ele>
        <time>2022-10-19T10:02:32.630Z</time>
      </trkpt>
      <trkpt lat="43.52792" lon="5.60466">
        <ele>779</ele>
        <time>2022-10-19T10:02:33.630Z</time>
      </trkpt>
      <trkpt lat="43.52792" lon="5.60466">
        <ele>779</ele>
        <time>2022-10-19T10:02:34.630Z</time>
      </trkpt>
      <trkpt lat="43.52793" lon="5.60465">
        <ele>779</ele>
        <time>2022-10-19T10:02:35.630Z</time>
      </trkpt>
      <trkpt lat="43.52793" lon="5.60465">
        <ele>779</ele>
        <time>2022-10-19T10:02:36.630Z</time>
      </trkpt>
      <trkpt lat="43.52794" lon="5.60464">
        <ele>780</ele>
        <time>2022-10-19T10:02:37.630Z</time>
      </trkpt>
      <trkpt lat="43.52794" lon="5.60464">
        <ele>780</ele>
        <time>2022-10-19T10:02:38.630Z</time>
      </trkpt>
      <trkpt lat="43.52795" lon="5.60463">
        <ele>780</ele>
        <time>2022-10-19T10:02:39.630Z</time>
      </trkpt>
      <trkpt lat="43.52795" lon="5.60463">
        <ele>780</ele>
        <time>2022-10-19T10:02:40.630Z</time>
      </trkpt>
      <trkpt lat="43.52796" lon="5.60463">
        <ele>780</ele>
        <time>2022-10-19T10:02:41.630Z</time>
      </trkpt>
      <trkpt lat="43.52796" lon="5.60462">
        <ele>780</ele>
        <time>2022-10-19T10:02:42.630Z</time>
      </trkpt>
      <trkpt lat="43.52797" lon="5.60462">
        <ele>781</ele>
        <time>2022-10-19T10:02:43.630Z</time>
      </trkpt>
      <trkpt lat="43.52797" lon="5.60462">
        <ele>781</ele>
        <time>2022-10-19T10:02:44.630Z</time>
      </trkpt>
      <trkpt lat="43.52798" lon="5.60462">
        <ele>781</ele>
        <time>2022-10-19T10:02:45.630Z</time>
      </trkpt>
      <trkpt lat="43.52798" lon="5.60461">
        <ele>781</ele>
        <time>2022-10-19T10:02:46.630Z</time>
      </trkpt>
      <trkpt lat="43.52798" lon="5.60461">
        <ele>781</ele>
        <time>2022-10-19T10:02:47.630Z</time>
      </trkpt>
      <trkpt lat="43.52798" lon="5.60461">
        <ele>782</ele>
        <time>2022-10-19T10:02:48.630Z</time>
      </trkpt>
      <trkpt lat="43.52798" lon="5.60461">
        <ele>782</ele>
        <time>2022-10-19T10:02:49.630Z</time>
      </trkpt>
      <trkpt lat="43.52798" lon="5.60461">
        <ele>782</ele>
        <time>2022-10-19T10:02:50.630Z</time>
      </trkpt>
      <trkpt lat="43.52798" lon="5.60461">
        <ele>782</ele>
        <time>2022-10-19T10:02:51.630Z</time>
      </trkpt>
      <trkpt lat="43.52798" lon="5.60461">
        <ele>782</ele>
        <time>2022-10-19T10:02:52.630Z</time>
      </trkpt>
      <trkpt lat="43.52798" lon="5.60461">
        <ele>782</ele>
        <time>2022-10-19T10:02:53.630Z</time>
      </trkpt>
      <trkpt lat="43.52798" lon="5.60461">
        <ele>782</ele>
        <time>2022-10-19T10:02:54.630Z</time>
      </trkpt>
      <trkpt lat="43.52798" lon="5.60461">
        <ele>782</ele>
        <time>2022-10-19T10:02:55.630Z</time>
      </trkpt>
      <trkpt lat="43.52798" lon="5.60461">
        <ele>782</ele>
        <time>2022-10-19T10:02:56.630Z</time>
      </trkpt>
      <trkpt lat="43.52798" lon="5.60461">
        <ele>782</ele>
        <time>2022-10-19T10:02:57.630Z</time>
      </trkpt>
      <trkpt lat="43.52798" lon="5.60461">
        <ele>782</ele>
        <time>2022-10-19T10:02:58.630Z</time>
      </trkpt>
      <trkpt lat="43.52798" lon="5.60461">
        <ele>782</ele>
        <time>2022-10-19T10:02:59.630Z</time>
      </trkpt>
      <trkpt lat="43.52798" lon="5.60461">
        <ele>782</ele>
        <time>2022-10-19T10:03:00.630Z</time>
      </trkpt>
      <trkpt lat="43.52798" lon="5.60461">
        <ele>782</ele>
        <time>2022-10-19T10:03:01.630Z</time>
      </trkpt>
      <trkpt lat="43.52798" lon="5.60461">
        <ele>782</ele>
        <time>2022-10-19T10:03:02.630Z</time>
      </trkpt>
      <trkpt lat="43.52798" lon="5.60461">
        <ele>782</ele>
        <time>2022-10-19T10:03:03.630Z</time>
      </trkpt>
      <trkpt lat="43.52798" lon="5.60461">
        <ele>782</ele>
        <time>2022-10-19T10:03:04.630Z</time>
      </trkpt>
      <trkpt lat="43.52798" lon="5.60461">
        <ele>782</ele>
        <time>2022-10-19T10:03:05.630Z</time>
      </trkpt>
      <trkpt lat="43.52798" lon="5.60461">
        <ele>783</ele>
        <time>2022-10-19T10:03:06.630Z</time>
      </trkpt>
      <trkpt lat="43.52798" lon="5.60461">
        <ele>783</ele>
        <time>2022-10-19T10:03:07.630Z</time>
      </trkpt>
      <trkpt lat="43.52798" lon="5.60461">
        <ele>783</ele>
        <time>2022-10-19T10:03:08.630Z</time>
      </trkpt>
      <trkpt lat="43.52798" lon="5.60461">
        <ele>783</ele>
        <time>2022-10-19T10:03:09.630Z</time>
      </trkpt>
      <trkpt lat="43.52798" lon="5.60461">
        <ele>783</ele>
        <time>2022-10-19T10:03:10.630Z</time>
      </trkpt>
      <trkpt lat="43.52798" lon="5.6046">
        <ele>783</ele>
        <time>2022-10-19T10:03:11.630Z</time>
      </trkpt>
      <trkpt lat="43.52798" lon="5.6046">
        <ele>783</ele>
        <time>2022-10-19T10:03:12.630Z</time>
      </trkpt>
      <trkpt lat="43.52798" lon="5.6046">
        <ele>783</ele>
        <time>2022-10-19T10:03:13.630Z</time>
      </trkpt>
      <trkpt lat="43.52799" lon="5.6046">
        <ele>783</ele>
        <time>2022-10-19T10:03:14.630Z</time>
      </trkpt>
      <trkpt lat="43.52799" lon="5.6046">
        <ele>783</ele>
        <time>2022-10-19T10:03:15.630Z</time>
      </trkpt>
      <trkpt lat="43.528" lon="5.6046">
        <ele>783</ele>
        <time>2022-10-19T10:03:16.630Z</time>
      </trkpt>
      <trkpt lat="43.528" lon="5.60459">
        <ele>783</ele>
        <time>2022-10-19T10:03:17.630Z</time>
      </trkpt>
      <trkpt lat="43.52801" lon="5.60459">
        <ele>783</ele>
        <time>2022-10-19T10:03:18.630Z</time>
      </trkpt>
      <trkpt lat="43.52801" lon="5.60459">
        <ele>783</ele>
        <time>2022-10-19T10:03:19.630Z</time>
      </trkpt>
      <trkpt lat="43.52802" lon="5.60459">
        <ele>783</ele>
        <time>2022-10-19T10:03:20.630Z</time>
      </trkpt>
      <trkpt lat="43.52802" lon="5.60459">
        <ele>783</ele>
        <time>2022-10-19T10:03:21.630Z</time>
      </trkpt>
      <trkpt lat="43.52802" lon="5.6046">
        <ele>783</ele>
        <time>2022-10-19T10:03:22.630Z</time>
      </trkpt>
      <trkpt lat="43.52802" lon="5.6046">
        <ele>783</ele>
        <time>2022-10-19T10:03:23.630Z</time>
      </trkpt>
      <trkpt lat="43.52802" lon="5.6046">
        <ele>784</ele>
        <time>2022-10-19T10:03:24.630Z</time>
      </trkpt>
      <trkpt lat="43.52803" lon="5.60461">
        <ele>784</ele>
        <time>2022-10-19T10:03:25.630Z</time>
      </trkpt>
      <trkpt lat="43.52803" lon="5.60462">
        <ele>784</ele>
        <time>2022-10-19T10:03:26.630Z</time>
      </trkpt>
      <trkpt lat="43.52803" lon="5.60462">
        <ele>784</ele>
        <time>2022-10-19T10:03:27.630Z</time>
      </trkpt>
      <trkpt lat="43.52803" lon="5.60462">
        <ele>784</ele>
        <time>2022-10-19T10:03:28.630Z</time>
      </trkpt>
      <trkpt lat="43.52803" lon="5.60462">
        <ele>784</ele>
        <time>2022-10-19T10:03:29.630Z</time>
      </trkpt>
      <trkpt lat="43.52803" lon="5.60462">
        <ele>784</ele>
        <time>2022-10-19T10:03:30.630Z</time>
      </trkpt>
      <trkpt lat="43.52803" lon="5.60462">
        <ele>784</ele>
        <time>2022-10-19T10:03:31.630Z</time>
      </trkpt>
      <trkpt lat="43.52803" lon="5.60463">
        <ele>784</ele>
        <time>2022-10-19T10:03:32.630Z</time>
      </trkpt>
      <trkpt lat="43.52803" lon="5.60463">
        <ele>784</ele>
        <time>2022-10-19T10:03:33.630Z</time>
      </trkpt>
      <trkpt lat="43.52803" lon="5.60463">
        <ele>784</ele>
        <time>2022-10-19T10:03:34.630Z</time>
      </trkpt>
      <trkpt lat="43.52803" lon="5.60463">
        <ele>784</ele>
        <time>2022-10-19T10:03:35.630Z</time>
      </trkpt>
      <trkpt lat="43.52803" lon="5.60464">
        <ele>784</ele>
        <time>2022-10-19T10:03:36.630Z</time>
      </trkpt>
      <trkpt lat="43.52803" lon="5.60464">
        <ele>784</ele>
        <time>2022-10-19T10:03:37.630Z</time>
      </trkpt>
      <trkpt lat="43.52803" lon="5.60464">
        <ele>785</ele>
        <time>2022-10-19T10:03:38.630Z</time>
      </trkpt>
      <trkpt lat="43.52803" lon="5.60464">
        <ele>785</ele>
        <time>2022-10-19T10:03:39.630Z</time>
      </trkpt>
      <trkpt lat="43.52803" lon="5.60464">
        <ele>785</ele>
        <time>2022-10-19T10:03:40.630Z</time>
      </trkpt>
      <trkpt lat="43.52804" lon="5.60465">
        <ele>785</ele>
        <time>2022-10-19T10:03:41.630Z</time>
      </trkpt>
      <trkpt lat="43.52804" lon="5.60466">
        <ele>785</ele>
        <time>2022-10-19T10:03:42.630Z</time>
      </trkpt>
      <trkpt lat="43.52804" lon="5.60466">
        <ele>785</ele>
        <time>2022-10-19T10:03:43.630Z</time>
      </trkpt>
      <trkpt lat="43.52804" lon="5.60467">
        <ele>785</ele>
        <time>2022-10-19T10:03:44.630Z</time>
      </trkpt>
      <trkpt lat="43.52804" lon="5.60467">
        <ele>785</ele>
        <time>2022-10-19T10:03:45.630Z</time>
      </trkpt>
      <trkpt lat="43.52804" lon="5.60467">
        <ele>785</ele>
        <time>2022-10-19T10:03:46.630Z</time>
      </trkpt>
      <trkpt lat="43.52804" lon="5.60468">
        <ele>785</ele>
        <time>2022-10-19T10:03:47.630Z</time>
      </trkpt>
      <trkpt lat="43.52804" lon="5.60469">
        <ele>785</ele>
        <time>2022-10-19T10:03:48.630Z</time>
      </trkpt>
      <trkpt lat="43.52804" lon="5.6047">
        <ele>785</ele>
        <time>2022-10-19T10:03:49.630Z</time>
      </trkpt>
      <trkpt lat="43.52804" lon="5.6047">
        <ele>785</ele>
        <time>2022-10-19T10:03:50.630Z</time>
      </trkpt>
      <trkpt lat="43.52803" lon="5.60471">
        <ele>786</ele>
        <time>2022-10-19T10:03:51.630Z</time>
      </trkpt>
      <trkpt lat="43.52803" lon="5.60472">
        <ele>786</ele>
        <time>2022-10-19T10:03:52.630Z</time>
      </trkpt>
      <trkpt lat="43.52803" lon="5.60472">
        <ele>786</ele>
        <time>2022-10-19T10:03:53.630Z</time>
      </trkpt>
      <trkpt lat="43.52803" lon="5.60473">
        <ele>786</ele>
        <time>2022-10-19T10:03:54.630Z</time>
      </trkpt>
      <trkpt lat="43.52803" lon="5.60474">
        <ele>786</ele>
        <time>2022-10-19T10:03:55.630Z</time>
      </trkpt>
      <trkpt lat="43.52803" lon="5.60474">
        <ele>786</ele>
        <time>2022-10-19T10:03:56.630Z</time>
      </trkpt>
      <trkpt lat="43.52804" lon="5.60474">
        <ele>786</ele>
        <time>2022-10-19T10:03:57.630Z</time>
      </trkpt>
      <trkpt lat="43.52804" lon="5.60475">
        <ele>786</ele>
        <time>2022-10-19T10:03:58.630Z</time>
      </trkpt>
      <trkpt lat="43.52804" lon="5.60476">
        <ele>786</ele>
        <time>2022-10-19T10:03:59.630Z</time>
      </trkpt>
      <trkpt lat="43.52804" lon="5.60476">
        <ele>786</ele>
        <time>2022-10-19T10:04:00.630Z</time>
      </trkpt>
      <trkpt lat="43.52803" lon="5.60477">
        <ele>787</ele>
        <time>2022-10-19T10:04:01.630Z</time>
      </trkpt>
      <trkpt lat="43.52803" lon="5.60477">
        <ele>787</ele>
        <time>2022-10-19T10:04:02.630Z</time>
      </trkpt>
      <trkpt lat="43.52803" lon="5.60477">
        <ele>787</ele>
        <time>2022-10-19T10:04:03.630Z</time>
      </trkpt>
      <trkpt lat="43.52803" lon="5.60478">
        <ele>787</ele>
        <time>2022-10-19T10:04:04.630Z</time>
      </trkpt>
      <trkpt lat="43.52803" lon="5.60478">
        <ele>787</ele>
        <time>2022-10-19T10:04:05.630Z</time>
      </trkpt>
      <trkpt lat="43.52803" lon="5.60478">
        <ele>787</ele>
        <time>2022-10-19T10:04:06.630Z</time>
      </trkpt>
      <trkpt lat="43.52803" lon="5.60478">
        <ele>787</ele>
        <time>2022-10-19T10:04:07.630Z</time>
      </trkpt>
      <trkpt lat="43.52803" lon="5.60478">
        <ele>788</ele>
        <time>2022-10-19T10:04:08.630Z</time>
      </trkpt>
      <trkpt lat="43.52803" lon="5.60478">
        <ele>788</ele>
        <time>2022-10-19T10:04:09.630Z</time>
      </trkpt>
      <trkpt lat="43.52803" lon="5.60478">
        <ele>788</ele>
        <time>2022-10-19T10:04:10.630Z</time>
      </trkpt>
      <trkpt lat="43.52803" lon="5.60478">
        <ele>788</ele>
        <time>2022-10-19T10:04:11.630Z</time>
      </trkpt>
      <trkpt lat="43.52803" lon="5.60478">
        <ele>788</ele>
        <time>2022-10-19T10:04:12.630Z</time>
      </trkpt>
      <trkpt lat="43.52803" lon="5.60478">
        <ele>788</ele>
        <time>2022-10-19T10:04:13.630Z</time>
      </trkpt>
      <trkpt lat="43.52803" lon="5.60478">
        <ele>788</ele>
        <time>2022-10-19T10:04:14.630Z</time>
      </trkpt>
      <trkpt lat="43.52803" lon="5.60478">
        <ele>788</ele>
        <time>2022-10-19T10:04:15.630Z</time>
      </trkpt>
      <trkpt lat="43.52803" lon="5.60478">
        <ele>788</ele>
        <time>2022-10-19T10:04:16.630Z</time>
      </trkpt>
      <trkpt lat="43.52803" lon="5.60478">
        <ele>788</ele>
        <time>2022-10-19T10:04:17.630Z</time>
      </trkpt>
      <trkpt lat="43.52803" lon="5.60478">
        <ele>788</ele>
        <time>2022-10-19T10:04:18.630Z</time>
      </trkpt>
      <trkpt lat="43.52803" lon="5.60478">
        <ele>788</ele>
        <time>2022-10-19T10:04:19.630Z</time>
      </trkpt>
      <trkpt lat="43.52803" lon="5.60478">
        <ele>788</ele>
        <time>2022-10-19T10:04:20.630Z</time>
      </trkpt>
      <trkpt lat="43.52803" lon="5.60478">
        <ele>788</ele>
        <time>2022-10-19T10:04:21.630Z</time>
      </trkpt>
      <trkpt lat="43.52803" lon="5.60478">
        <ele>788</ele>
        <time>2022-10-19T10:04:22.630Z</time>
      </trkpt>
      <trkpt lat="43.52803" lon="5.60478">
        <ele>788</ele>
        <time>2022-10-19T10:04:23.630Z</time>
      </trkpt>
      <trkpt lat="43.52803" lon="5.60478">
        <ele>788</ele>
        <time>2022-10-19T10:04:24.630Z</time>
      </trkpt>
      <trkpt lat="43.52803" lon="5.60478">
        <ele>788</ele>
        <time>2022-10-19T10:04:25.630Z</time>
      </trkpt>
      <trkpt lat="43.52803" lon="5.60478">
        <ele>788</ele>
        <time>2022-10-19T10:04:26.630Z</time>
      </trkpt>
      <trkpt lat="43.52803" lon="5.60478">
        <ele>788</ele>
        <time>2022-10-19T10:04:27.630Z</time>
      </trkpt>
      <trkpt lat="43.52804" lon="5.60478">
        <ele>788</ele>
        <time>2022-10-19T10:04:28.630Z</time>
      </trkpt>
      <trkpt lat="43.52804" lon="5.60478">
        <ele>788</ele>
        <time>2022-10-19T10:04:29.630Z</time>
      </trkpt>
      <trkpt lat="43.52804" lon="5.60478">
        <ele>788</ele>
        <time>2022-10-19T10:04:30.630Z</time>
      </trkpt>
      <trkpt lat="43.52804" lon="5.60478">
        <ele>788</ele>
        <time>2022-10-19T10:04:31.630Z</time>
      </trkpt>
      <trkpt lat="43.52804" lon="5.60478">
        <ele>788</ele>
        <time>2022-10-19T10:04:32.630Z</time>
      </trkpt>
      <trkpt lat="43.52804" lon="5.60479">
        <ele>788</ele>
        <time>2022-10-19T10:04:33.630Z</time>
      </trkpt>
      <trkpt lat="43.52804" lon="5.60478">
        <ele>788</ele>
        <time>2022-10-19T10:04:34.630Z</time>
      </trkpt>
      <trkpt lat="43.52804" lon="5.60478">
        <ele>788</ele>
        <time>2022-10-19T10:04:35.630Z</time>
      </trkpt>
      <trkpt lat="43.52804" lon="5.60479">
        <ele>788</ele>
        <time>2022-10-19T10:04:36.630Z</time>
      </trkpt>
      <trkpt lat="43.52804" lon="5.60478">
        <ele>788</ele>
        <time>2022-10-19T10:04:37.630Z</time>
      </trkpt>
      <trkpt lat="43.52804" lon="5.60479">
        <ele>788</ele>
        <time>2022-10-19T10:04:38.630Z</time>
      </trkpt>
      <trkpt lat="43.52804" lon="5.60479">
        <ele>788</ele>
        <time>2022-10-19T10:04:39.630Z</time>
      </trkpt>
      <trkpt lat="43.52804" lon="5.60478">
        <ele>788</ele>
        <time>2022-10-19T10:04:40.630Z</time>
      </trkpt>
      <trkpt lat="43.52804" lon="5.60478">
        <ele>789</ele>
        <time>2022-10-19T10:04:41.630Z</time>
      </trkpt>
      <trkpt lat="43.52804" lon="5.60478">
        <ele>789</ele>
        <time>2022-10-19T10:04:42.630Z</time>
      </trkpt>
      <trkpt lat="43.52804" lon="5.60478">
        <ele>789</ele>
        <time>2022-10-19T10:04:43.630Z</time>
      </trkpt>
      <trkpt lat="43.52804" lon="5.60478">
        <ele>789</ele>
        <time>2022-10-19T10:04:44.630Z</time>
      </trkpt>
      <trkpt lat="43.52803" lon="5.60478">
        <ele>789</ele>
        <time>2022-10-19T10:04:45.630Z</time>
      </trkpt>
      <trkpt lat="43.52803" lon="5.60478">
        <ele>789</ele>
        <time>2022-10-19T10:04:46.630Z</time>
      </trkpt>
      <trkpt lat="43.52803" lon="5.60478">
        <ele>789</ele>
        <time>2022-10-19T10:04:47.630Z</time>
      </trkpt>
      <trkpt lat="43.52803" lon="5.60478">
        <ele>789</ele>
        <time>2022-10-19T10:04:48.630Z</time>
      </trkpt>
      <trkpt lat="43.52803" lon="5.60478">
        <ele>789</ele>
        <time>2022-10-19T10:04:49.630Z</time>
      </trkpt>
      <trkpt lat="43.52803" lon="5.60478">
        <ele>789</ele>
        <time>2022-10-19T10:04:50.630Z</time>
      </trkpt>
      <trkpt lat="43.52803" lon="5.60478">
        <ele>789</ele>
        <time>2022-10-19T10:04:51.630Z</time>
      </trkpt>
      <trkpt lat="43.52803" lon="5.60478">
        <ele>789</ele>
        <time>2022-10-19T10:04:52.630Z</time>
      </trkpt>
      <trkpt lat="43.52803" lon="5.60478">
        <ele>789</ele>
        <time>2022-10-19T10:04:53.630Z</time>
      </trkpt>
      <trkpt lat="43.52803" lon="5.60478">
        <ele>789</ele>
        <time>2022-10-19T10:04:54.630Z</time>
      </trkpt>
      <trkpt lat="43.52803" lon="5.60478">
        <ele>789</ele>
        <time>2022-10-19T10:04:55.630Z</time>
      </trkpt>
      <trkpt lat="43.52803" lon="5.60478">
        <ele>789</ele>
        <time>2022-10-19T10:04:56.630Z</time>
      </trkpt>
      <trkpt lat="43.52803" lon="5.60479">
        <ele>789</ele>
        <time>2022-10-19T10:04:57.630Z</time>
      </trkpt>
      <trkpt lat="43.52803" lon="5.60479">
        <ele>789</ele>
        <time>2022-10-19T10:04:58.630Z</time>
      </trkpt>
      <trkpt lat="43.52803" lon="5.60479">
        <ele>789</ele>
        <time>2022-10-19T10:04:59.630Z</time>
      </trkpt>
      <trkpt lat="43.52803" lon="5.60479">
        <ele>789</ele>
        <time>2022-10-19T10:05:00.630Z</time>
      </trkpt>
      <trkpt lat="43.52803" lon="5.60479">
        <ele>789</ele>
        <time>2022-10-19T10:05:01.630Z</time>
      </trkpt>
      <trkpt lat="43.52803" lon="5.60479">
        <ele>789</ele>
        <time>2022-10-19T10:05:02.630Z</time>
      </trkpt>
      <trkpt lat="43.52803" lon="5.60479">
        <ele>789</ele>
        <time>2022-10-19T10:05:03.630Z</time>
      </trkpt>
      <trkpt lat="43.52803" lon="5.60479">
        <ele>789</ele>
        <time>2022-10-19T10:05:04.630Z</time>
      </trkpt>
      <trkpt lat="43.52803" lon="5.60479">
        <ele>789</ele>
        <time>2022-10-19T10:05:05.630Z</time>
      </trkpt>
      <trkpt lat="43.52803" lon="5.60479">
        <ele>789</ele>
        <time>2022-10-19T10:05:06.630Z</time>
      </trkpt>
      <trkpt lat="43.52803" lon="5.60479">
        <ele>789</ele>
        <time>2022-10-19T10:05:07.630Z</time>
      </trkpt>
      <trkpt lat="43.52803" lon="5.60479">
        <ele>789</ele>
        <time>2022-10-19T10:05:08.630Z</time>
      </trkpt>
      <trkpt lat="43.52803" lon="5.60479">
        <ele>789</ele>
        <time>2022-10-19T10:05:09.630Z</time>
      </trkpt>
      <trkpt lat="43.52803" lon="5.60479">
        <ele>790</ele>
        <time>2022-10-19T10:05:10.630Z</time>
      </trkpt>
      <trkpt lat="43.52803" lon="5.60479">
        <ele>790</ele>
        <time>2022-10-19T10:05:11.630Z</time>
      </trkpt>
      <trkpt lat="43.52803" lon="5.60479">
        <ele>790</ele>
        <time>2022-10-19T10:05:12.630Z</time>
      </trkpt>
      <trkpt lat="43.52803" lon="5.60479">
        <ele>790</ele>
        <time>2022-10-19T10:05:13.630Z</time>
      </trkpt>
      <trkpt lat="43.52803" lon="5.60479">
        <ele>790</ele>
        <time>2022-10-19T10:05:14.630Z</time>
      </trkpt>
      <trkpt lat="43.52803" lon="5.60479">
        <ele>790</ele>
        <time>2022-10-19T10:05:15.630Z</time>
      </trkpt>
      <trkpt lat="43.52803" lon="5.60479">
        <ele>790</ele>
        <time>2022-10-19T10:05:16.630Z</time>
      </trkpt>
      <trkpt lat="43.52803" lon="5.60479">
        <ele>790</ele>
        <time>2022-10-19T10:05:17.630Z</time>
      </trkpt>
      <trkpt lat="43.52803" lon="5.60479">
        <ele>790</ele>
        <time>2022-10-19T10:05:18.630Z</time>
      </trkpt>
      <trkpt lat="43.52803" lon="5.60479">
        <ele>790</ele>
        <time>2022-10-19T10:05:19.630Z</time>
      </trkpt>
      <trkpt lat="43.52803" lon="5.6048">
        <ele>790</ele>
        <time>2022-10-19T10:05:20.630Z</time>
      </trkpt>
      <trkpt lat="43.52803" lon="5.6048">
        <ele>790</ele>
        <time>2022-10-19T10:05:21.630Z</time>
      </trkpt>
      <trkpt lat="43.52803" lon="5.6048">
        <ele>790</ele>
        <time>2022-10-19T10:05:22.630Z</time>
      </trkpt>
      <trkpt lat="43.52803" lon="5.6048">
        <ele>790</ele>
        <time>2022-10-19T10:05:23.630Z</time>
      </trkpt>
      <trkpt lat="43.52803" lon="5.6048">
        <ele>790</ele>
        <time>2022-10-19T10:05:24.630Z</time>
      </trkpt>
      <trkpt lat="43.52803" lon="5.6048">
        <ele>790</ele>
        <time>2022-10-19T10:05:25.630Z</time>
      </trkpt>
      <trkpt lat="43.52803" lon="5.6048">
        <ele>790</ele>
        <time>2022-10-19T10:05:26.630Z</time>
      </trkpt>
      <trkpt lat="43.52803" lon="5.6048">
        <ele>790</ele>
        <time>2022-10-19T10:05:27.630Z</time>
      </trkpt>
      <trkpt lat="43.52803" lon="5.6048">
        <ele>790</ele>
        <time>2022-10-19T10:05:28.630Z</time>
      </trkpt>
      <trkpt lat="43.52803" lon="5.6048">
        <ele>790</ele>
        <time>2022-10-19T10:05:29.630Z</time>
      </trkpt>
      <trkpt lat="43.52803" lon="5.6048">
        <ele>790</ele>
        <time>2022-10-19T10:05:30.630Z</time>
      </trkpt>
      <trkpt lat="43.52803" lon="5.6048">
        <ele>790</ele>
        <time>2022-10-19T10:05:31.630Z</time>
      </trkpt>
      <trkpt lat="43.52803" lon="5.6048">
        <ele>790</ele>
        <time>2022-10-19T10:05:32.630Z</time>
      </trkpt>
      <trkpt lat="43.52803" lon="5.6048">
        <ele>790</ele>
        <time>2022-10-19T10:05:33.630Z</time>
      </trkpt>
      <trkpt lat="43.52803" lon="5.6048">
        <ele>790</ele>
        <time>2022-10-19T10:05:34.630Z</time>
      </trkpt>
      <trkpt lat="43.52803" lon="5.6048">
        <ele>790</ele>
        <time>2022-10-19T10:05:35.630Z</time>
      </trkpt>
      <trkpt lat="43.52803" lon="5.6048">
        <ele>790</ele>
        <time>2022-10-19T10:05:36.630Z</time>
      </trkpt>
      <trkpt lat="43.52803" lon="5.6048">
        <ele>790</ele>
        <time>2022-10-19T10:05:37.630Z</time>
      </trkpt>
      <trkpt lat="43.52803" lon="5.6048">
        <ele>790</ele>
        <time>2022-10-19T10:05:38.630Z</time>
      </trkpt>
      <trkpt lat="43.52803" lon="5.6048">
        <ele>790</ele>
        <time>2022-10-19T10:05:39.630Z</time>
      </trkpt>
      <trkpt lat="43.52803" lon="5.6048">
        <ele>790</ele>
        <time>2022-10-19T10:05:40.630Z</time>
      </trkpt>
      <trkpt lat="43.52803" lon="5.6048">
        <ele>790</ele>
        <time>2022-10-19T10:05:41.630Z</time>
      </trkpt>
      <trkpt lat="43.52803" lon="5.6048">
        <ele>790</ele>
        <time>2022-10-19T10:05:42.630Z</time>
      </trkpt>
      <trkpt lat="43.52803" lon="5.6048">
        <ele>790</ele>
        <time>2022-10-19T10:05:43.630Z</time>
      </trkpt>
      <trkpt lat="43.52803" lon="5.6048">
        <ele>790</ele>
        <time>2022-10-19T10:05:44.630Z</time>
      </trkpt>
      <trkpt lat="43.52803" lon="5.6048">
        <ele>790</ele>
        <time>2022-10-19T10:05:45.630Z</time>
      </trkpt>
      <trkpt lat="43.52803" lon="5.6048">
        <ele>790</ele>
        <time>2022-10-19T10:05:46.630Z</time>
      </trkpt>
      <trkpt lat="43.52803" lon="5.6048">
        <ele>790</ele>
        <time>2022-10-19T10:05:47.630Z</time>
      </trkpt>
      <trkpt lat="43.52803" lon="5.6048">
        <ele>790</ele>
        <time>2022-10-19T10:05:48.630Z</time>
      </trkpt>
      <trkpt lat="43.52803" lon="5.6048">
        <ele>790</ele>
        <time>2022-10-19T10:05:49.630Z</time>
      </trkpt>
      <trkpt lat="43.52803" lon="5.6048">
        <ele>790</ele>
        <time>2022-10-19T10:05:50.630Z</time>
      </trkpt>
      <trkpt lat="43.52803" lon="5.6048">
        <ele>790</ele>
        <time>2022-10-19T10:05:51.630Z</time>
      </trkpt>
      <trkpt lat="43.52803" lon="5.6048">
        <ele>790</ele>
        <time>2022-10-19T10:05:52.630Z</time>
      </trkpt>
      <trkpt lat="43.52803" lon="5.6048">
        <ele>790</ele>
        <time>2022-10-19T10:05:53.630Z</time>
      </trkpt>
      <trkpt lat="43.52803" lon="5.6048">
        <ele>790</ele>
        <time>2022-10-19T10:05:54.630Z</time>
      </trkpt>
      <trkpt lat="43.52803" lon="5.60479">
        <ele>790</ele>
        <time>2022-10-19T10:05:55.630Z</time>
      </trkpt>
      <trkpt lat="43.52803" lon="5.60479">
        <ele>790</ele>
        <time>2022-10-19T10:05:56.630Z</time>
      </trkpt>
      <trkpt lat="43.52803" lon="5.60479">
        <ele>790</ele>
        <time>2022-10-19T10:05:57.630Z</time>
      </trkpt>
      <trkpt lat="43.52803" lon="5.60479">
        <ele>790</ele>
        <time>2022-10-19T10:05:58.630Z</time>
      </trkpt>
      <trkpt lat="43.52803" lon="5.60479">
        <ele>790</ele>
        <time>2022-10-19T10:05:59.630Z</time>
      </trkpt>
      <trkpt lat="43.52803" lon="5.60479">
        <ele>790</ele>
        <time>2022-10-19T10:06:00.630Z</time>
      </trkpt>
      <trkpt lat="43.52803" lon="5.60479">
        <ele>790</ele>
        <time>2022-10-19T10:06:01.630Z</time>
      </trkpt>
      <trkpt lat="43.52803" lon="5.60479">
        <ele>790</ele>
        <time>2022-10-19T10:06:02.630Z</time>
      </trkpt>
      <trkpt lat="43.52803" lon="5.60479">
        <ele>790</ele>
        <time>2022-10-19T10:06:03.630Z</time>
      </trkpt>
      <trkpt lat="43.52803" lon="5.60479">
        <ele>790</ele>
        <time>2022-10-19T10:06:04.630Z</time>
      </trkpt>
      <trkpt lat="43.52803" lon="5.60479">
        <ele>790</ele>
        <time>2022-10-19T10:06:05.630Z</time>
      </trkpt>
      <trkpt lat="43.52803" lon="5.60479">
        <ele>790</ele>
        <time>2022-10-19T10:06:06.630Z</time>
      </trkpt>
      <trkpt lat="43.52803" lon="5.60479">
        <ele>790</ele>
        <time>2022-10-19T10:06:07.630Z</time>
      </trkpt>
      <trkpt lat="43.52803" lon="5.60479">
        <ele>790</ele>
        <time>2022-10-19T10:06:08.630Z</time>
      </trkpt>
      <trkpt lat="43.52803" lon="5.60479">
        <ele>790</ele>
        <time>2022-10-19T10:06:09.630Z</time>
      </trkpt>
      <trkpt lat="43.52803" lon="5.60479">
        <ele>790</ele>
        <time>2022-10-19T10:06:10.630Z</time>
      </trkpt>
      <trkpt lat="43.52803" lon="5.60479">
        <ele>790</ele>
        <time>2022-10-19T10:06:11.630Z</time>
      </trkpt>
      <trkpt lat="43.52803" lon="5.60479">
        <ele>790</ele>
        <time>2022-10-19T10:06:12.630Z</time>
      </trkpt>
      <trkpt lat="43.52803" lon="5.60479">
        <ele>790</ele>
        <time>2022-10-19T10:06:13.630Z</time>
      </trkpt>
      <trkpt lat="43.52803" lon="5.6048">
        <ele>790</ele>
        <time>2022-10-19T10:06:14.630Z</time>
      </trkpt>
      <trkpt lat="43.52803" lon="5.6048">
        <ele>790</ele>
        <time>2022-10-19T10:06:15.630Z</time>
      </trkpt>
      <trkpt lat="43.52803" lon="5.60479">
        <ele>790</ele>
        <time>2022-10-19T10:06:16.630Z</time>
      </trkpt>
      <trkpt lat="43.52803" lon="5.60479">
        <ele>790</ele>
        <time>2022-10-19T10:06:17.630Z</time>
      </trkpt>
      <trkpt lat="43.52803" lon="5.60479">
        <ele>790</ele>
        <time>2022-10-19T10:06:18.630Z</time>
      </trkpt>
      <trkpt lat="43.52803" lon="5.60479">
        <ele>791</ele>
        <time>2022-10-19T10:06:19.630Z</time>
      </trkpt>
      <trkpt lat="43.52803" lon="5.60479">
        <ele>791</ele>
        <time>2022-10-19T10:06:20.630Z</time>
      </trkpt>
      <trkpt lat="43.52803" lon="5.60479">
        <ele>791</ele>
        <time>2022-10-19T10:06:21.630Z</time>
      </trkpt>
      <trkpt lat="43.52803" lon="5.60479">
        <ele>791</ele>
        <time>2022-10-19T10:06:22.630Z</time>
      </trkpt>
      <trkpt lat="43.52803" lon="5.60479">
        <ele>791</ele>
        <time>2022-10-19T10:06:23.630Z</time>
      </trkpt>
      <trkpt lat="43.52803" lon="5.60479">
        <ele>791</ele>
        <time>2022-10-19T10:06:24.630Z</time>
      </trkpt>
      <trkpt lat="43.52803" lon="5.60479">
        <ele>791</ele>
        <time>2022-10-19T10:06:25.630Z</time>
      </trkpt>
      <trkpt lat="43.52803" lon="5.60479">
        <ele>791</ele>
        <time>2022-10-19T10:06:26.630Z</time>
      </trkpt>
      <trkpt lat="43.52803" lon="5.60479">
        <ele>791</ele>
        <time>2022-10-19T10:06:27.630Z</time>
      </trkpt>
      <trkpt lat="43.52803" lon="5.60479">
        <ele>791</ele>
        <time>2022-10-19T10:06:28.630Z</time>
      </trkpt>
      <trkpt lat="43.52803" lon="5.60479">
        <ele>791</ele>
        <time>2022-10-19T10:06:29.630Z</time>
      </trkpt>
      <trkpt lat="43.52803" lon="5.60479">
        <ele>791</ele>
        <time>2022-10-19T10:06:30.630Z</time>
      </trkpt>
      <trkpt lat="43.52803" lon="5.60479">
        <ele>791</ele>
        <time>2022-10-19T10:06:31.630Z</time>
      </trkpt>
      <trkpt lat="43.52803" lon="5.60479">
        <ele>791</ele>
        <time>2022-10-19T10:06:32.630Z</time>
      </trkpt>
      <trkpt lat="43.52803" lon="5.60478">
        <ele>791</ele>
        <time>2022-10-19T10:06:33.630Z</time>
      </trkpt>
      <trkpt lat="43.52803" lon="5.60478">
        <ele>791</ele>
        <time>2022-10-19T10:06:34.630Z</time>
      </trkpt>
      <trkpt lat="43.52803" lon="5.60478">
        <ele>791</ele>
        <time>2022-10-19T10:06:35.630Z</time>
      </trkpt>
      <trkpt lat="43.52803" lon="5.60478">
        <ele>791</ele>
        <time>2022-10-19T10:06:36.630Z</time>
      </trkpt>
      <trkpt lat="43.52803" lon="5.60478">
        <ele>791</ele>
        <time>2022-10-19T10:06:37.630Z</time>
      </trkpt>
      <trkpt lat="43.52803" lon="5.60479">
        <ele>791</ele>
        <time>2022-10-19T10:06:38.630Z</time>
      </trkpt>
      <trkpt lat="43.52803" lon="5.60479">
        <ele>791</ele>
        <time>2022-10-19T10:06:39.630Z</time>
      </trkpt>
      <trkpt lat="43.52803" lon="5.60479">
        <ele>791</ele>
        <time>2022-10-19T10:06:40.630Z</time>
      </trkpt>
      <trkpt lat="43.52803" lon="5.60479">
        <ele>791</ele>
        <time>2022-10-19T10:06:41.630Z</time>
      </trkpt>
      <trkpt lat="43.52803" lon="5.60479">
        <ele>791</ele>
        <time>2022-10-19T10:06:42.630Z</time>
      </trkpt>
      <trkpt lat="43.52803" lon="5.60479">
        <ele>791</ele>
        <time>2022-10-19T10:06:43.630Z</time>
      </trkpt>
      <trkpt lat="43.52803" lon="5.60479">
        <ele>791</ele>
        <time>2022-10-19T10:06:44.630Z</time>
      </trkpt>
      <trkpt lat="43.52803" lon="5.60479">
        <ele>791</ele>
        <time>2022-10-19T10:06:45.630Z</time>
      </trkpt>
      <trkpt lat="43.52803" lon="5.60479">
        <ele>791</ele>
        <time>2022-10-19T10:06:46.630Z</time>
      </trkpt>
      <trkpt lat="43.52803" lon="5.60479">
        <ele>791</ele>
        <time>2022-10-19T10:06:47.630Z</time>
      </trkpt>
      <trkpt lat="43.52803" lon="5.60479">
        <ele>791</ele>
        <time>2022-10-19T10:06:48.630Z</time>
      </trkpt>
      <trkpt lat="43.52803" lon="5.6048">
        <ele>791</ele>
        <time>2022-10-19T10:06:49.630Z</time>
      </trkpt>
      <trkpt lat="43.52803" lon="5.6048">
        <ele>791</ele>
        <time>2022-10-19T10:06:50.630Z</time>
      </trkpt>
      <trkpt lat="43.52803" lon="5.6048">
        <ele>791</ele>
        <time>2022-10-19T10:06:51.630Z</time>
      </trkpt>
      <trkpt lat="43.52803" lon="5.6048">
        <ele>791</ele>
        <time>2022-10-19T10:06:52.630Z</time>
      </trkpt>
      <trkpt lat="43.52803" lon="5.6048">
        <ele>791</ele>
        <time>2022-10-19T10:06:53.630Z</time>
      </trkpt>
      <trkpt lat="43.52803" lon="5.6048">
        <ele>791</ele>
        <time>2022-10-19T10:06:54.630Z</time>
      </trkpt>
      <trkpt lat="43.52803" lon="5.6048">
        <ele>791</ele>
        <time>2022-10-19T10:06:55.630Z</time>
      </trkpt>
      <trkpt lat="43.52803" lon="5.6048">
        <ele>791</ele>
        <time>2022-10-19T10:06:56.630Z</time>
      </trkpt>
      <trkpt lat="43.52803" lon="5.6048">
        <ele>791</ele>
        <time>2022-10-19T10:06:57.630Z</time>
      </trkpt>
      <trkpt lat="43.52803" lon="5.6048">
        <ele>791</ele>
        <time>2022-10-19T10:06:58.630Z</time>
      </trkpt>
      <trkpt lat="43.52803" lon="5.6048">
        <ele>791</ele>
        <time>2022-10-19T10:06:59.630Z</time>
      </trkpt>
      <trkpt lat="43.52803" lon="5.6048">
        <ele>791</ele>
        <time>2022-10-19T10:07:00.630Z</time>
      </trkpt>
      <trkpt lat="43.52803" lon="5.60481">
        <ele>791</ele>
        <time>2022-10-19T10:07:01.630Z</time>
      </trkpt>
      <trkpt lat="43.52803" lon="5.60481">
        <ele>791</ele>
        <time>2022-10-19T10:07:02.630Z</time>
      </trkpt>
      <trkpt lat="43.52803" lon="5.60481">
        <ele>791</ele>
        <time>2022-10-19T10:07:03.630Z</time>
      </trkpt>
      <trkpt lat="43.52803" lon="5.60481">
        <ele>791</ele>
        <time>2022-10-19T10:07:04.630Z</time>
      </trkpt>
      <trkpt lat="43.52803" lon="5.60481">
        <ele>791</ele>
        <time>2022-10-19T10:07:05.630Z</time>
      </trkpt>
      <trkpt lat="43.52803" lon="5.60481">
        <ele>791</ele>
        <time>2022-10-19T10:07:06.630Z</time>
      </trkpt>
      <trkpt lat="43.52803" lon="5.60482">
        <ele>791</ele>
        <time>2022-10-19T10:07:07.630Z</time>
      </trkpt>
      <trkpt lat="43.52803" lon="5.60482">
        <ele>791</ele>
        <time>2022-10-19T10:07:08.630Z</time>
      </trkpt>
      <trkpt lat="43.52803" lon="5.60482">
        <ele>791</ele>
        <time>2022-10-19T10:07:09.630Z</time>
      </trkpt>
      <trkpt lat="43.52803" lon="5.60482">
        <ele>791</ele>
        <time>2022-10-19T10:07:10.630Z</time>
      </trkpt>
      <trkpt lat="43.52803" lon="5.60482">
        <ele>792</ele>
        <time>2022-10-19T10:07:11.630Z</time>
      </trkpt>
      <trkpt lat="43.52803" lon="5.60482">
        <ele>792</ele>
        <time>2022-10-19T10:07:12.630Z</time>
      </trkpt>
      <trkpt lat="43.52803" lon="5.60482">
        <ele>792</ele>
        <time>2022-10-19T10:07:13.630Z</time>
      </trkpt>
      <trkpt lat="43.52803" lon="5.60482">
        <ele>792</ele>
        <time>2022-10-19T10:07:14.630Z</time>
      </trkpt>
      <trkpt lat="43.52803" lon="5.60482">
        <ele>792</ele>
        <time>2022-10-19T10:07:15.630Z</time>
      </trkpt>
      <trkpt lat="43.52803" lon="5.60482">
        <ele>792</ele>
        <time>2022-10-19T10:07:16.630Z</time>
      </trkpt>
      <trkpt lat="43.52802" lon="5.60482">
        <ele>792</ele>
        <time>2022-10-19T10:07:17.630Z</time>
      </trkpt>
      <trkpt lat="43.52803" lon="5.60482">
        <ele>792</ele>
        <time>2022-10-19T10:07:18.630Z</time>
      </trkpt>
      <trkpt lat="43.52803" lon="5.60483">
        <ele>792</ele>
        <time>2022-10-19T10:07:19.630Z</time>
      </trkpt>
      <trkpt lat="43.52803" lon="5.60483">
        <ele>792</ele>
        <time>2022-10-19T10:07:20.630Z</time>
      </trkpt>
      <trkpt lat="43.52803" lon="5.60483">
        <ele>792</ele>
        <time>2022-10-19T10:07:21.630Z</time>
      </trkpt>
      <trkpt lat="43.52803" lon="5.60483">
        <ele>792</ele>
        <time>2022-10-19T10:07:22.630Z</time>
      </trkpt>
      <trkpt lat="43.52803" lon="5.60483">
        <ele>792</ele>
        <time>2022-10-19T10:07:23.630Z</time>
      </trkpt>
      <trkpt lat="43.52803" lon="5.60483">
        <ele>792</ele>
        <time>2022-10-19T10:07:24.630Z</time>
      </trkpt>
      <trkpt lat="43.52803" lon="5.60483">
        <ele>792</ele>
        <time>2022-10-19T10:07:25.630Z</time>
      </trkpt>
      <trkpt lat="43.52803" lon="5.60483">
        <ele>792</ele>
        <time>2022-10-19T10:07:26.630Z</time>
      </trkpt>
      <trkpt lat="43.52803" lon="5.60483">
        <ele>792</ele>
        <time>2022-10-19T10:07:27.630Z</time>
      </trkpt>
      <trkpt lat="43.52803" lon="5.60484">
        <ele>792</ele>
        <time>2022-10-19T10:07:28.630Z</time>
      </trkpt>
      <trkpt lat="43.52803" lon="5.60484">
        <ele>792</ele>
        <time>2022-10-19T10:07:29.630Z</time>
      </trkpt>
      <trkpt lat="43.52803" lon="5.60485">
        <ele>792</ele>
        <time>2022-10-19T10:07:30.630Z</time>
      </trkpt>
      <trkpt lat="43.52803" lon="5.60486">
        <ele>792</ele>
        <time>2022-10-19T10:07:31.630Z</time>
      </trkpt>
      <trkpt lat="43.52803" lon="5.60486">
        <ele>792</ele>
        <time>2022-10-19T10:07:32.630Z</time>
      </trkpt>
      <trkpt lat="43.52803" lon="5.60486">
        <ele>792</ele>
        <time>2022-10-19T10:07:33.630Z</time>
      </trkpt>
      <trkpt lat="43.52803" lon="5.60487">
        <ele>792</ele>
        <time>2022-10-19T10:07:34.630Z</time>
      </trkpt>
      <trkpt lat="43.52803" lon="5.60488">
        <ele>792</ele>
        <time>2022-10-19T10:07:35.630Z</time>
      </trkpt>
      <trkpt lat="43.52803" lon="5.60488">
        <ele>792</ele>
        <time>2022-10-19T10:07:36.630Z</time>
      </trkpt>
      <trkpt lat="43.52803" lon="5.60488">
        <ele>792</ele>
        <time>2022-10-19T10:07:37.630Z</time>
      </trkpt>
      <trkpt lat="43.52803" lon="5.60488">
        <ele>792</ele>
        <time>2022-10-19T10:07:38.630Z</time>
      </trkpt>
      <trkpt lat="43.52803" lon="5.60488">
        <ele>792</ele>
        <time>2022-10-19T10:07:39.630Z</time>
      </trkpt>
      <trkpt lat="43.52803" lon="5.60488">
        <ele>792</ele>
        <time>2022-10-19T10:07:40.630Z</time>
      </trkpt>
      <trkpt lat="43.52803" lon="5.60489">
        <ele>792</ele>
        <time>2022-10-19T10:07:41.630Z</time>
      </trkpt>
      <trkpt lat="43.52804" lon="5.60489">
        <ele>792</ele>
        <time>2022-10-19T10:07:42.630Z</time>
      </trkpt>
      <trkpt lat="43.52804" lon="5.6049">
        <ele>792</ele>
        <time>2022-10-19T10:07:43.630Z</time>
      </trkpt>
      <trkpt lat="43.52804" lon="5.6049">
        <ele>792</ele>
        <time>2022-10-19T10:07:44.630Z</time>
      </trkpt>
      <trkpt lat="43.52804" lon="5.6049">
        <ele>793</ele>
        <time>2022-10-19T10:07:45.630Z</time>
      </trkpt>
      <trkpt lat="43.52804" lon="5.6049">
        <ele>793</ele>
        <time>2022-10-19T10:07:46.630Z</time>
      </trkpt>
      <trkpt lat="43.52804" lon="5.6049">
        <ele>793</ele>
        <time>2022-10-19T10:07:47.630Z</time>
      </trkpt>
      <trkpt lat="43.52804" lon="5.6049">
        <ele>793</ele>
        <time>2022-10-19T10:07:48.630Z</time>
      </trkpt>
      <trkpt lat="43.52804" lon="5.6049">
        <ele>793</ele>
        <time>2022-10-19T10:07:49.630Z</time>
      </trkpt>
      <trkpt lat="43.52804" lon="5.6049">
        <ele>793</ele>
        <time>2022-10-19T10:07:50.630Z</time>
      </trkpt>
      <trkpt lat="43.52804" lon="5.6049">
        <ele>793</ele>
        <time>2022-10-19T10:07:51.630Z</time>
      </trkpt>
      <trkpt lat="43.52804" lon="5.6049">
        <ele>793</ele>
        <time>2022-10-19T10:07:52.630Z</time>
      </trkpt>
      <trkpt lat="43.52804" lon="5.6049">
        <ele>793</ele>
        <time>2022-10-19T10:07:53.630Z</time>
      </trkpt>
      <trkpt lat="43.52804" lon="5.6049">
        <ele>793</ele>
        <time>2022-10-19T10:07:54.630Z</time>
      </trkpt>
      <trkpt lat="43.52805" lon="5.6049">
        <ele>793</ele>
        <time>2022-10-19T10:07:55.630Z</time>
      </trkpt>
      <trkpt lat="43.52805" lon="5.6049">
        <ele>793</ele>
        <time>2022-10-19T10:07:56.630Z</time>
      </trkpt>
      <trkpt lat="43.52805" lon="5.60489">
        <ele>793</ele>
        <time>2022-10-19T10:07:57.630Z</time>
      </trkpt>
      <trkpt lat="43.52806" lon="5.60489">
        <ele>793</ele>
        <time>2022-10-19T10:07:58.630Z</time>
      </trkpt>
      <trkpt lat="43.52806" lon="5.60489">
        <ele>794</ele>
        <time>2022-10-19T10:07:59.630Z</time>
      </trkpt>
      <trkpt lat="43.52806" lon="5.60489">
        <ele>794</ele>
        <time>2022-10-19T10:08:00.630Z</time>
      </trkpt>
      <trkpt lat="43.52807" lon="5.60489">
        <ele>794</ele>
        <time>2022-10-19T10:08:01.630Z</time>
      </trkpt>
      <trkpt lat="43.52807" lon="5.6049">
        <ele>794</ele>
        <time>2022-10-19T10:08:02.630Z</time>
      </trkpt>
      <trkpt lat="43.52807" lon="5.6049">
        <ele>794</ele>
        <time>2022-10-19T10:08:03.630Z</time>
      </trkpt>
      <trkpt lat="43.52808" lon="5.60491">
        <ele>794</ele>
        <time>2022-10-19T10:08:04.630Z</time>
      </trkpt>
      <trkpt lat="43.52807" lon="5.60491">
        <ele>794</ele>
        <time>2022-10-19T10:08:05.630Z</time>
      </trkpt>
      <trkpt lat="43.52807" lon="5.60491">
        <ele>794</ele>
        <time>2022-10-19T10:08:06.630Z</time>
      </trkpt>
      <trkpt lat="43.52807" lon="5.60491">
        <ele>794</ele>
        <time>2022-10-19T10:08:07.630Z</time>
      </trkpt>
      <trkpt lat="43.52807" lon="5.60491">
        <ele>794</ele>
        <time>2022-10-19T10:08:08.630Z</time>
      </trkpt>
      <trkpt lat="43.52807" lon="5.60491">
        <ele>794</ele>
        <time>2022-10-19T10:08:09.630Z</time>
      </trkpt>
      <trkpt lat="43.52807" lon="5.60491">
        <ele>794</ele>
        <time>2022-10-19T10:08:10.630Z</time>
      </trkpt>
      <trkpt lat="43.52807" lon="5.60491">
        <ele>795</ele>
        <time>2022-10-19T10:08:11.630Z</time>
      </trkpt>
      <trkpt lat="43.52807" lon="5.60491">
        <ele>795</ele>
        <time>2022-10-19T10:08:12.630Z</time>
      </trkpt>
      <trkpt lat="43.52807" lon="5.60491">
        <ele>795</ele>
        <time>2022-10-19T10:08:13.630Z</time>
      </trkpt>
      <trkpt lat="43.52807" lon="5.60491">
        <ele>795</ele>
        <time>2022-10-19T10:08:14.630Z</time>
      </trkpt>
      <trkpt lat="43.52807" lon="5.60491">
        <ele>795</ele>
        <time>2022-10-19T10:08:15.630Z</time>
      </trkpt>
      <trkpt lat="43.52807" lon="5.60491">
        <ele>795</ele>
        <time>2022-10-19T10:08:16.630Z</time>
      </trkpt>
      <trkpt lat="43.52807" lon="5.60491">
        <ele>795</ele>
        <time>2022-10-19T10:08:17.630Z</time>
      </trkpt>
      <trkpt lat="43.52807" lon="5.60491">
        <ele>795</ele>
        <time>2022-10-19T10:08:18.630Z</time>
      </trkpt>
      <trkpt lat="43.52807" lon="5.60491">
        <ele>795</ele>
        <time>2022-10-19T10:08:19.630Z</time>
      </trkpt>
      <trkpt lat="43.52807" lon="5.60491">
        <ele>795</ele>
        <time>2022-10-19T10:08:20.630Z</time>
      </trkpt>
      <trkpt lat="43.52807" lon="5.60491">
        <ele>795</ele>
        <time>2022-10-19T10:08:21.630Z</time>
      </trkpt>
      <trkpt lat="43.52807" lon="5.60491">
        <ele>795</ele>
        <time>2022-10-19T10:08:22.630Z</time>
      </trkpt>
      <trkpt lat="43.52807" lon="5.60491">
        <ele>795</ele>
        <time>2022-10-19T10:08:23.630Z</time>
      </trkpt>
      <trkpt lat="43.52807" lon="5.60491">
        <ele>795</ele>
        <time>2022-10-19T10:08:24.630Z</time>
      </trkpt>
      <trkpt lat="43.52807" lon="5.60491">
        <ele>795</ele>
        <time>2022-10-19T10:08:25.630Z</time>
      </trkpt>
      <trkpt lat="43.52807" lon="5.60491">
        <ele>795</ele>
        <time>2022-10-19T10:08:26.630Z</time>
      </trkpt>
      <trkpt lat="43.52807" lon="5.60491">
        <ele>795</ele>
        <time>2022-10-19T10:08:27.630Z</time>
      </trkpt>
      <trkpt lat="43.52807" lon="5.60491">
        <ele>795</ele>
        <time>2022-10-19T10:08:28.630Z</time>
      </trkpt>
      <trkpt lat="43.52807" lon="5.60491">
        <ele>795</ele>
        <time>2022-10-19T10:08:29.630Z</time>
      </trkpt>
      <trkpt lat="43.52807" lon="5.60491">
        <ele>795</ele>
        <time>2022-10-19T10:08:30.630Z</time>
      </trkpt>
      <trkpt lat="43.52807" lon="5.60491">
        <ele>795</ele>
        <time>2022-10-19T10:08:31.630Z</time>
      </trkpt>
      <trkpt lat="43.52807" lon="5.60491">
        <ele>795</ele>
        <time>2022-10-19T10:08:32.630Z</time>
      </trkpt>
      <trkpt lat="43.52807" lon="5.60491">
        <ele>795</ele>
        <time>2022-10-19T10:08:33.630Z</time>
      </trkpt>
      <trkpt lat="43.52807" lon="5.60491">
        <ele>795</ele>
        <time>2022-10-19T10:08:34.630Z</time>
      </trkpt>
      <trkpt lat="43.52807" lon="5.60491">
        <ele>795</ele>
        <time>2022-10-19T10:08:35.630Z</time>
      </trkpt>
      <trkpt lat="43.52807" lon="5.60491">
        <ele>795</ele>
        <time>2022-10-19T10:08:36.630Z</time>
      </trkpt>
      <trkpt lat="43.52807" lon="5.60491">
        <ele>795</ele>
        <time>2022-10-19T10:08:37.630Z</time>
      </trkpt>
      <trkpt lat="43.52807" lon="5.60491">
        <ele>795</ele>
        <time>2022-10-19T10:08:38.630Z</time>
      </trkpt>
      <trkpt lat="43.52807" lon="5.60491">
        <ele>795</ele>
        <time>2022-10-19T10:08:39.630Z</time>
      </trkpt>
      <trkpt lat="43.52807" lon="5.60491">
        <ele>795</ele>
        <time>2022-10-19T10:08:40.630Z</time>
      </trkpt>
      <trkpt lat="43.52807" lon="5.60491">
        <ele>795</ele>
        <time>2022-10-19T10:08:41.630Z</time>
      </trkpt>
      <trkpt lat="43.52807" lon="5.60491">
        <ele>795</ele>
        <time>2022-10-19T10:08:42.630Z</time>
      </trkpt>
      <trkpt lat="43.52807" lon="5.60491">
        <ele>795</ele>
        <time>2022-10-19T10:08:43.630Z</time>
      </trkpt>
      <trkpt lat="43.52807" lon="5.60491">
        <ele>795</ele>
        <time>2022-10-19T10:08:44.630Z</time>
      </trkpt>
      <trkpt lat="43.52807" lon="5.60491">
        <ele>795</ele>
        <time>2022-10-19T10:08:45.630Z</time>
      </trkpt>
      <trkpt lat="43.52807" lon="5.60491">
        <ele>795</ele>
        <time>2022-10-19T10:08:46.630Z</time>
      </trkpt>
      <trkpt lat="43.52807" lon="5.60491">
        <ele>795</ele>
        <time>2022-10-19T10:08:47.630Z</time>
      </trkpt>
      <trkpt lat="43.52807" lon="5.60491">
        <ele>795</ele>
        <time>2022-10-19T10:08:48.630Z</time>
      </trkpt>
      <trkpt lat="43.52807" lon="5.60491">
        <ele>795</ele>
        <time>2022-10-19T10:08:49.630Z</time>
      </trkpt>
      <trkpt lat="43.52807" lon="5.60492">
        <ele>795</ele>
        <time>2022-10-19T10:08:50.630Z</time>
      </trkpt>
      <trkpt lat="43.52807" lon="5.60492">
        <ele>795</ele>
        <time>2022-10-19T10:08:51.630Z</time>
      </trkpt>
      <trkpt lat="43.52807" lon="5.60492">
        <ele>795</ele>
        <time>2022-10-19T10:08:52.630Z</time>
      </trkpt>
      <trkpt lat="43.52807" lon="5.60492">
        <ele>796</ele>
        <time>2022-10-19T10:08:53.630Z</time>
      </trkpt>
      <trkpt lat="43.52807" lon="5.60492">
        <ele>796</ele>
        <time>2022-10-19T10:08:54.630Z</time>
      </trkpt>
      <trkpt lat="43.52807" lon="5.60492">
        <ele>796</ele>
        <time>2022-10-19T10:08:55.630Z</time>
      </trkpt>
      <trkpt lat="43.52807" lon="5.60492">
        <ele>796</ele>
        <time>2022-10-19T10:08:56.630Z</time>
      </trkpt>
      <trkpt lat="43.52807" lon="5.60492">
        <ele>796</ele>
        <time>2022-10-19T10:08:57.630Z</time>
      </trkpt>
      <trkpt lat="43.52807" lon="5.60492">
        <ele>796</ele>
        <time>2022-10-19T10:08:58.630Z</time>
      </trkpt>
      <trkpt lat="43.52807" lon="5.60492">
        <ele>796</ele>
        <time>2022-10-19T10:08:59.630Z</time>
      </trkpt>
      <trkpt lat="43.52807" lon="5.60492">
        <ele>796</ele>
        <time>2022-10-19T10:09:00.630Z</time>
      </trkpt>
      <trkpt lat="43.52807" lon="5.60492">
        <ele>796</ele>
        <time>2022-10-19T10:09:01.630Z</time>
      </trkpt>
      <trkpt lat="43.52807" lon="5.60492">
        <ele>796</ele>
        <time>2022-10-19T10:09:02.630Z</time>
      </trkpt>
      <trkpt lat="43.52807" lon="5.60492">
        <ele>796</ele>
        <time>2022-10-19T10:09:03.630Z</time>
      </trkpt>
      <trkpt lat="43.52807" lon="5.60492">
        <ele>796</ele>
        <time>2022-10-19T10:09:04.630Z</time>
      </trkpt>
      <trkpt lat="43.52807" lon="5.60492">
        <ele>796</ele>
        <time>2022-10-19T10:09:05.630Z</time>
      </trkpt>
      <trkpt lat="43.52807" lon="5.60492">
        <ele>796</ele>
        <time>2022-10-19T10:09:06.630Z</time>
      </trkpt>
      <trkpt lat="43.52807" lon="5.60492">
        <ele>796</ele>
        <time>2022-10-19T10:09:07.630Z</time>
      </trkpt>
      <trkpt lat="43.52807" lon="5.60492">
        <ele>796</ele>
        <time>2022-10-19T10:09:08.630Z</time>
      </trkpt>
      <trkpt lat="43.52807" lon="5.60492">
        <ele>796</ele>
        <time>2022-10-19T10:09:09.630Z</time>
      </trkpt>
      <trkpt lat="43.52807" lon="5.60492">
        <ele>796</ele>
        <time>2022-10-19T10:09:10.630Z</time>
      </trkpt>
      <trkpt lat="43.52807" lon="5.60492">
        <ele>796</ele>
        <time>2022-10-19T10:09:11.630Z</time>
      </trkpt>
      <trkpt lat="43.52807" lon="5.60492">
        <ele>796</ele>
        <time>2022-10-19T10:09:12.630Z</time>
      </trkpt>
      <trkpt lat="43.52807" lon="5.60492">
        <ele>796</ele>
        <time>2022-10-19T10:09:13.630Z</time>
      </trkpt>
      <trkpt lat="43.52807" lon="5.60493">
        <ele>796</ele>
        <time>2022-10-19T10:09:14.630Z</time>
      </trkpt>
      <trkpt lat="43.52807" lon="5.60493">
        <ele>796</ele>
        <time>2022-10-19T10:09:15.630Z</time>
      </trkpt>
      <trkpt lat="43.52807" lon="5.60493">
        <ele>796</ele>
        <time>2022-10-19T10:09:16.630Z</time>
      </trkpt>
      <trkpt lat="43.52808" lon="5.60493">
        <ele>796</ele>
        <time>2022-10-19T10:09:17.630Z</time>
      </trkpt>
      <trkpt lat="43.52808" lon="5.60493">
        <ele>796</ele>
        <time>2022-10-19T10:09:18.630Z</time>
      </trkpt>
      <trkpt lat="43.52808" lon="5.60493">
        <ele>796</ele>
        <time>2022-10-19T10:09:19.630Z</time>
      </trkpt>
      <trkpt lat="43.52808" lon="5.60493">
        <ele>796</ele>
        <time>2022-10-19T10:09:20.630Z</time>
      </trkpt>
      <trkpt lat="43.52808" lon="5.60493">
        <ele>796</ele>
        <time>2022-10-19T10:09:21.630Z</time>
      </trkpt>
      <trkpt lat="43.52808" lon="5.60493">
        <ele>797</ele>
        <time>2022-10-19T10:09:22.630Z</time>
      </trkpt>
      <trkpt lat="43.52808" lon="5.60493">
        <ele>797</ele>
        <time>2022-10-19T10:09:23.630Z</time>
      </trkpt>
      <trkpt lat="43.52808" lon="5.60493">
        <ele>797</ele>
        <time>2022-10-19T10:09:24.630Z</time>
      </trkpt>
      <trkpt lat="43.52809" lon="5.60494">
        <ele>797</ele>
        <time>2022-10-19T10:09:25.630Z</time>
      </trkpt>
      <trkpt lat="43.52809" lon="5.60494">
        <ele>797</ele>
        <time>2022-10-19T10:09:26.630Z</time>
      </trkpt>
      <trkpt lat="43.52809" lon="5.60494">
        <ele>797</ele>
        <time>2022-10-19T10:09:27.630Z</time>
      </trkpt>
      <trkpt lat="43.52809" lon="5.60494">
        <ele>797</ele>
        <time>2022-10-19T10:09:28.630Z</time>
      </trkpt>
      <trkpt lat="43.52809" lon="5.60494">
        <ele>797</ele>
        <time>2022-10-19T10:09:29.630Z</time>
      </trkpt>
      <trkpt lat="43.52809" lon="5.60494">
        <ele>797</ele>
        <time>2022-10-19T10:09:30.630Z</time>
      </trkpt>
      <trkpt lat="43.52809" lon="5.60493">
        <ele>798</ele>
        <time>2022-10-19T10:09:31.630Z</time>
      </trkpt>
      <trkpt lat="43.52809" lon="5.60493">
        <ele>798</ele>
        <time>2022-10-19T10:09:32.630Z</time>
      </trkpt>
      <trkpt lat="43.52809" lon="5.60492">
        <ele>798</ele>
        <time>2022-10-19T10:09:33.630Z</time>
      </trkpt>
      <trkpt lat="43.52809" lon="5.60491">
        <ele>798</ele>
        <time>2022-10-19T10:09:34.630Z</time>
      </trkpt>
      <trkpt lat="43.52809" lon="5.6049">
        <ele>798</ele>
        <time>2022-10-19T10:09:35.630Z</time>
      </trkpt>
      <trkpt lat="43.52809" lon="5.60489">
        <ele>799</ele>
        <time>2022-10-19T10:09:36.630Z</time>
      </trkpt>
      <trkpt lat="43.52809" lon="5.60489">
        <ele>799</ele>
        <time>2022-10-19T10:09:37.630Z</time>
      </trkpt>
      <trkpt lat="43.5281" lon="5.60488">
        <ele>799</ele>
        <time>2022-10-19T10:09:38.630Z</time>
      </trkpt>
      <trkpt lat="43.5281" lon="5.60487">
        <ele>799</ele>
        <time>2022-10-19T10:09:39.630Z</time>
      </trkpt>
      <trkpt lat="43.5281" lon="5.60487">
        <ele>799</ele>
        <time>2022-10-19T10:09:40.630Z</time>
      </trkpt>
      <trkpt lat="43.5281" lon="5.60486">
        <ele>799</ele>
        <time>2022-10-19T10:09:41.630Z</time>
      </trkpt>
      <trkpt lat="43.52811" lon="5.60486">
        <ele>799</ele>
        <time>2022-10-19T10:09:42.630Z</time>
      </trkpt>
      <trkpt lat="43.52811" lon="5.60486">
        <ele>800</ele>
        <time>2022-10-19T10:09:43.630Z</time>
      </trkpt>
      <trkpt lat="43.52811" lon="5.60485">
        <ele>800</ele>
        <time>2022-10-19T10:09:44.630Z</time>
      </trkpt>
      <trkpt lat="43.52812" lon="5.60486">
        <ele>800</ele>
        <time>2022-10-19T10:09:45.630Z</time>
      </trkpt>
      <trkpt lat="43.52812" lon="5.60486">
        <ele>800</ele>
        <time>2022-10-19T10:09:46.630Z</time>
      </trkpt>
      <trkpt lat="43.52813" lon="5.60485">
        <ele>800</ele>
        <time>2022-10-19T10:09:47.630Z</time>
      </trkpt>
      <trkpt lat="43.52813" lon="5.60485">
        <ele>801</ele>
        <time>2022-10-19T10:09:48.630Z</time>
      </trkpt>
      <trkpt lat="43.52813" lon="5.60485">
        <ele>801</ele>
        <time>2022-10-19T10:09:49.630Z</time>
      </trkpt>
      <trkpt lat="43.52813" lon="5.60485">
        <ele>801</ele>
        <time>2022-10-19T10:09:50.630Z</time>
      </trkpt>
      <trkpt lat="43.52814" lon="5.60485">
        <ele>801</ele>
        <time>2022-10-19T10:09:51.630Z</time>
      </trkpt>
      <trkpt lat="43.52814" lon="5.60486">
        <ele>801</ele>
        <time>2022-10-19T10:09:52.630Z</time>
      </trkpt>
      <trkpt lat="43.52814" lon="5.60486">
        <ele>801</ele>
        <time>2022-10-19T10:09:53.630Z</time>
      </trkpt>
      <trkpt lat="43.52814" lon="5.60486">
        <ele>802</ele>
        <time>2022-10-19T10:09:54.630Z</time>
      </trkpt>
      <trkpt lat="43.52814" lon="5.60486">
        <ele>802</ele>
        <time>2022-10-19T10:09:55.630Z</time>
      </trkpt>
      <trkpt lat="43.52814" lon="5.60486">
        <ele>802</ele>
        <time>2022-10-19T10:09:56.630Z</time>
      </trkpt>
      <trkpt lat="43.52815" lon="5.60486">
        <ele>802</ele>
        <time>2022-10-19T10:09:57.630Z</time>
      </trkpt>
      <trkpt lat="43.52815" lon="5.60486">
        <ele>802</ele>
        <time>2022-10-19T10:09:58.630Z</time>
      </trkpt>
      <trkpt lat="43.52815" lon="5.60486">
        <ele>802</ele>
        <time>2022-10-19T10:09:59.630Z</time>
      </trkpt>
      <trkpt lat="43.52815" lon="5.60486">
        <ele>802</ele>
        <time>2022-10-19T10:10:00.630Z</time>
      </trkpt>
      <trkpt lat="43.52815" lon="5.60486">
        <ele>803</ele>
        <time>2022-10-19T10:10:01.630Z</time>
      </trkpt>
      <trkpt lat="43.52815" lon="5.60486">
        <ele>803</ele>
        <time>2022-10-19T10:10:02.630Z</time>
      </trkpt>
      <trkpt lat="43.52815" lon="5.60486">
        <ele>803</ele>
        <time>2022-10-19T10:10:03.630Z</time>
      </trkpt>
      <trkpt lat="43.52815" lon="5.60486">
        <ele>803</ele>
        <time>2022-10-19T10:10:04.630Z</time>
      </trkpt>
      <trkpt lat="43.52815" lon="5.60486">
        <ele>803</ele>
        <time>2022-10-19T10:10:05.630Z</time>
      </trkpt>
      <trkpt lat="43.52815" lon="5.60486">
        <ele>803</ele>
        <time>2022-10-19T10:10:06.630Z</time>
      </trkpt>
      <trkpt lat="43.52815" lon="5.60485">
        <ele>803</ele>
        <time>2022-10-19T10:10:07.630Z</time>
      </trkpt>
      <trkpt lat="43.52815" lon="5.60485">
        <ele>803</ele>
        <time>2022-10-19T10:10:08.630Z</time>
      </trkpt>
      <trkpt lat="43.52815" lon="5.60485">
        <ele>803</ele>
        <time>2022-10-19T10:10:09.630Z</time>
      </trkpt>
      <trkpt lat="43.52815" lon="5.60485">
        <ele>804</ele>
        <time>2022-10-19T10:10:10.630Z</time>
      </trkpt>
      <trkpt lat="43.52815" lon="5.60485">
        <ele>804</ele>
        <time>2022-10-19T10:10:11.630Z</time>
      </trkpt>
      <trkpt lat="43.52815" lon="5.60485">
        <ele>804</ele>
        <time>2022-10-19T10:10:12.630Z</time>
      </trkpt>
      <trkpt lat="43.52815" lon="5.60485">
        <ele>804</ele>
        <time>2022-10-19T10:10:13.630Z</time>
      </trkpt>
      <trkpt lat="43.52815" lon="5.60485">
        <ele>804</ele>
        <time>2022-10-19T10:10:14.630Z</time>
      </trkpt>
      <trkpt lat="43.52815" lon="5.60485">
        <ele>804</ele>
        <time>2022-10-19T10:10:15.630Z</time>
      </trkpt>
      <trkpt lat="43.52815" lon="5.60485">
        <ele>804</ele>
        <time>2022-10-19T10:10:16.630Z</time>
      </trkpt>
      <trkpt lat="43.52815" lon="5.60485">
        <ele>804</ele>
        <time>2022-10-19T10:10:17.630Z</time>
      </trkpt>
      <trkpt lat="43.52815" lon="5.60485">
        <ele>804</ele>
        <time>2022-10-19T10:10:18.630Z</time>
      </trkpt>
      <trkpt lat="43.52815" lon="5.60486">
        <ele>804</ele>
        <time>2022-10-19T10:10:19.630Z</time>
      </trkpt>
      <trkpt lat="43.52815" lon="5.60486">
        <ele>804</ele>
        <time>2022-10-19T10:10:20.630Z</time>
      </trkpt>
      <trkpt lat="43.52815" lon="5.60486">
        <ele>804</ele>
        <time>2022-10-19T10:10:21.630Z</time>
      </trkpt>
      <trkpt lat="43.52815" lon="5.60485">
        <ele>804</ele>
        <time>2022-10-19T10:10:22.630Z</time>
      </trkpt>
      <trkpt lat="43.52815" lon="5.60485">
        <ele>804</ele>
        <time>2022-10-19T10:10:23.630Z</time>
      </trkpt>
      <trkpt lat="43.52815" lon="5.60485">
        <ele>804</ele>
        <time>2022-10-19T10:10:24.630Z</time>
      </trkpt>
      <trkpt lat="43.52815" lon="5.60485">
        <ele>804</ele>
        <time>2022-10-19T10:10:25.630Z</time>
      </trkpt>
      <trkpt lat="43.52815" lon="5.60485">
        <ele>804</ele>
        <time>2022-10-19T10:10:26.630Z</time>
      </trkpt>
      <trkpt lat="43.52815" lon="5.60485">
        <ele>804</ele>
        <time>2022-10-19T10:10:27.630Z</time>
      </trkpt>
      <trkpt lat="43.52815" lon="5.60485">
        <ele>804</ele>
        <time>2022-10-19T10:10:28.630Z</time>
      </trkpt>
      <trkpt lat="43.52815" lon="5.60485">
        <ele>804</ele>
        <time>2022-10-19T10:10:29.630Z</time>
      </trkpt>
      <trkpt lat="43.52815" lon="5.60485">
        <ele>804</ele>
        <time>2022-10-19T10:10:30.630Z</time>
      </trkpt>
      <trkpt lat="43.52815" lon="5.60485">
        <ele>804</ele>
        <time>2022-10-19T10:10:31.630Z</time>
      </trkpt>
      <trkpt lat="43.52815" lon="5.60485">
        <ele>804</ele>
        <time>2022-10-19T10:10:32.630Z</time>
      </trkpt>
      <trkpt lat="43.52815" lon="5.60485">
        <ele>804</ele>
        <time>2022-10-19T10:10:33.630Z</time>
      </trkpt>
      <trkpt lat="43.52815" lon="5.60485">
        <ele>804</ele>
        <time>2022-10-19T10:10:34.630Z</time>
      </trkpt>
      <trkpt lat="43.52815" lon="5.60485">
        <ele>804</ele>
        <time>2022-10-19T10:10:35.630Z</time>
      </trkpt>
      <trkpt lat="43.52815" lon="5.60485">
        <ele>804</ele>
        <time>2022-10-19T10:10:36.630Z</time>
      </trkpt>
      <trkpt lat="43.52815" lon="5.60485">
        <ele>804</ele>
        <time>2022-10-19T10:10:37.630Z</time>
      </trkpt>
      <trkpt lat="43.52815" lon="5.60485">
        <ele>804</ele>
        <time>2022-10-19T10:10:38.630Z</time>
      </trkpt>
      <trkpt lat="43.52815" lon="5.60485">
        <ele>804</ele>
        <time>2022-10-19T10:10:39.630Z</time>
      </trkpt>
      <trkpt lat="43.52815" lon="5.60485">
        <ele>804</ele>
        <time>2022-10-19T10:10:40.630Z</time>
      </trkpt>
      <trkpt lat="43.52815" lon="5.60485">
        <ele>804</ele>
        <time>2022-10-19T10:10:41.630Z</time>
      </trkpt>
      <trkpt lat="43.52815" lon="5.60485">
        <ele>804</ele>
        <time>2022-10-19T10:10:42.630Z</time>
      </trkpt>
      <trkpt lat="43.52815" lon="5.60485">
        <ele>804</ele>
        <time>2022-10-19T10:10:43.630Z</time>
      </trkpt>
      <trkpt lat="43.52815" lon="5.60485">
        <ele>804</ele>
        <time>2022-10-19T10:10:44.630Z</time>
      </trkpt>
      <trkpt lat="43.52815" lon="5.60485">
        <ele>804</ele>
        <time>2022-10-19T10:10:45.630Z</time>
      </trkpt>
      <trkpt lat="43.52815" lon="5.60485">
        <ele>804</ele>
        <time>2022-10-19T10:10:46.630Z</time>
      </trkpt>
      <trkpt lat="43.52815" lon="5.60485">
        <ele>804</ele>
        <time>2022-10-19T10:10:47.630Z</time>
      </trkpt>
      <trkpt lat="43.52815" lon="5.60485">
        <ele>804</ele>
        <time>2022-10-19T10:10:48.630Z</time>
      </trkpt>
      <trkpt lat="43.52815" lon="5.60485">
        <ele>804</ele>
        <time>2022-10-19T10:10:49.630Z</time>
      </trkpt>
      <trkpt lat="43.52815" lon="5.60485">
        <ele>804</ele>
        <time>2022-10-19T10:10:50.630Z</time>
      </trkpt>
      <trkpt lat="43.52815" lon="5.60485">
        <ele>804</ele>
        <time>2022-10-19T10:10:51.630Z</time>
      </trkpt>
      <trkpt lat="43.52815" lon="5.60485">
        <ele>804</ele>
        <time>2022-10-19T10:10:52.630Z</time>
      </trkpt>
      <trkpt lat="43.52815" lon="5.60485">
        <ele>804</ele>
        <time>2022-10-19T10:10:53.630Z</time>
      </trkpt>
      <trkpt lat="43.52815" lon="5.60486">
        <ele>804</ele>
        <time>2022-10-19T10:10:54.630Z</time>
      </trkpt>
      <trkpt lat="43.52815" lon="5.60486">
        <ele>804</ele>
        <time>2022-10-19T10:10:55.630Z</time>
      </trkpt>
      <trkpt lat="43.52815" lon="5.60486">
        <ele>804</ele>
        <time>2022-10-19T10:10:56.630Z</time>
      </trkpt>
      <trkpt lat="43.52815" lon="5.60485">
        <ele>804</ele>
        <time>2022-10-19T10:10:57.630Z</time>
      </trkpt>
      <trkpt lat="43.52815" lon="5.60485">
        <ele>804</ele>
        <time>2022-10-19T10:10:58.630Z</time>
      </trkpt>
      <trkpt lat="43.52815" lon="5.60485">
        <ele>804</ele>
        <time>2022-10-19T10:10:59.630Z</time>
      </trkpt>
      <trkpt lat="43.52815" lon="5.60485">
        <ele>804</ele>
        <time>2022-10-19T10:11:00.630Z</time>
      </trkpt>
      <trkpt lat="43.52815" lon="5.60485">
        <ele>804</ele>
        <time>2022-10-19T10:11:01.630Z</time>
      </trkpt>
      <trkpt lat="43.52815" lon="5.60485">
        <ele>804</ele>
        <time>2022-10-19T10:11:02.630Z</time>
      </trkpt>
      <trkpt lat="43.52815" lon="5.60485">
        <ele>804</ele>
        <time>2022-10-19T10:11:03.630Z</time>
      </trkpt>
      <trkpt lat="43.52815" lon="5.60485">
        <ele>804</ele>
        <time>2022-10-19T10:11:04.630Z</time>
      </trkpt>
      <trkpt lat="43.52815" lon="5.60485">
        <ele>804</ele>
        <time>2022-10-19T10:11:05.630Z</time>
      </trkpt>
      <trkpt lat="43.52815" lon="5.60485">
        <ele>804</ele>
        <time>2022-10-19T10:11:06.630Z</time>
      </trkpt>
      <trkpt lat="43.52815" lon="5.60485">
        <ele>804</ele>
        <time>2022-10-19T10:11:07.630Z</time>
      </trkpt>
      <trkpt lat="43.52815" lon="5.60485">
        <ele>804</ele>
        <time>2022-10-19T10:11:08.630Z</time>
      </trkpt>
      <trkpt lat="43.52815" lon="5.60485">
        <ele>804</ele>
        <time>2022-10-19T10:11:09.630Z</time>
      </trkpt>
      <trkpt lat="43.52815" lon="5.60485">
        <ele>805</ele>
        <time>2022-10-19T10:11:10.630Z</time>
      </trkpt>
      <trkpt lat="43.52815" lon="5.60485">
        <ele>805</ele>
        <time>2022-10-19T10:11:11.630Z</time>
      </trkpt>
      <trkpt lat="43.52815" lon="5.60485">
        <ele>805</ele>
        <time>2022-10-19T10:11:12.630Z</time>
      </trkpt>
      <trkpt lat="43.52815" lon="5.60485">
        <ele>805</ele>
        <time>2022-10-19T10:11:13.630Z</time>
      </trkpt>
      <trkpt lat="43.52815" lon="5.60485">
        <ele>805</ele>
        <time>2022-10-19T10:11:14.630Z</time>
      </trkpt>
      <trkpt lat="43.52815" lon="5.60485">
        <ele>805</ele>
        <time>2022-10-19T10:11:15.630Z</time>
      </trkpt>
      <trkpt lat="43.52815" lon="5.60485">
        <ele>805</ele>
        <time>2022-10-19T10:11:16.630Z</time>
      </trkpt>
      <trkpt lat="43.52815" lon="5.60485">
        <ele>805</ele>
        <time>2022-10-19T10:11:17.630Z</time>
      </trkpt>
      <trkpt lat="43.52815" lon="5.60486">
        <ele>805</ele>
        <time>2022-10-19T10:11:18.630Z</time>
      </trkpt>
      <trkpt lat="43.52815" lon="5.60486">
        <ele>804</ele>
        <time>2022-10-19T10:11:19.630Z</time>
      </trkpt>
      <trkpt lat="43.52815" lon="5.60486">
        <ele>804</ele>
        <time>2022-10-19T10:11:20.630Z</time>
      </trkpt>
      <trkpt lat="43.52815" lon="5.60486">
        <ele>804</ele>
        <time>2022-10-19T10:11:21.630Z</time>
      </trkpt>
      <trkpt lat="43.52815" lon="5.60486">
        <ele>804</ele>
        <time>2022-10-19T10:11:22.630Z</time>
      </trkpt>
      <trkpt lat="43.52815" lon="5.60486">
        <ele>804</ele>
        <time>2022-10-19T10:11:23.630Z</time>
      </trkpt>
      <trkpt lat="43.52815" lon="5.60486">
        <ele>804</ele>
        <time>2022-10-19T10:11:24.630Z</time>
      </trkpt>
      <trkpt lat="43.52815" lon="5.60486">
        <ele>804</ele>
        <time>2022-10-19T10:11:25.630Z</time>
      </trkpt>
      <trkpt lat="43.52815" lon="5.60486">
        <ele>804</ele>
        <time>2022-10-19T10:11:26.630Z</time>
      </trkpt>
      <trkpt lat="43.52815" lon="5.60486">
        <ele>804</ele>
        <time>2022-10-19T10:11:27.630Z</time>
      </trkpt>
      <trkpt lat="43.52815" lon="5.60486">
        <ele>804</ele>
        <time>2022-10-19T10:11:28.630Z</time>
      </trkpt>
      <trkpt lat="43.52815" lon="5.60486">
        <ele>804</ele>
        <time>2022-10-19T10:11:29.630Z</time>
      </trkpt>
      <trkpt lat="43.52815" lon="5.60485">
        <ele>804</ele>
        <time>2022-10-19T10:11:30.630Z</time>
      </trkpt>
      <trkpt lat="43.52815" lon="5.60485">
        <ele>804</ele>
        <time>2022-10-19T10:11:31.630Z</time>
      </trkpt>
      <trkpt lat="43.52815" lon="5.60485">
        <ele>804</ele>
        <time>2022-10-19T10:11:32.630Z</time>
      </trkpt>
      <trkpt lat="43.52815" lon="5.60485">
        <ele>804</ele>
        <time>2022-10-19T10:11:33.630Z</time>
      </trkpt>
      <trkpt lat="43.52815" lon="5.60485">
        <ele>804</ele>
        <time>2022-10-19T10:11:34.630Z</time>
      </trkpt>
      <trkpt lat="43.52815" lon="5.60485">
        <ele>804</ele>
        <time>2022-10-19T10:11:35.630Z</time>
      </trkpt>
      <trkpt lat="43.52815" lon="5.60486">
        <ele>804</ele>
        <time>2022-10-19T10:11:36.630Z</time>
      </trkpt>
      <trkpt lat="43.52815" lon="5.60486">
        <ele>804</ele>
        <time>2022-10-19T10:11:37.630Z</time>
      </trkpt>
      <trkpt lat="43.52815" lon="5.60486">
        <ele>804</ele>
        <time>2022-10-19T10:11:38.630Z</time>
      </trkpt>
      <trkpt lat="43.52815" lon="5.60486">
        <ele>804</ele>
        <time>2022-10-19T10:11:39.630Z</time>
      </trkpt>
      <trkpt lat="43.52815" lon="5.60486">
        <ele>804</ele>
        <time>2022-10-19T10:11:40.630Z</time>
      </trkpt>
      <trkpt lat="43.52815" lon="5.60486">
        <ele>804</ele>
        <time>2022-10-19T10:11:41.630Z</time>
      </trkpt>
      <trkpt lat="43.52815" lon="5.60486">
        <ele>804</ele>
        <time>2022-10-19T10:11:42.630Z</time>
      </trkpt>
      <trkpt lat="43.52815" lon="5.60486">
        <ele>804</ele>
        <time>2022-10-19T10:11:43.630Z</time>
      </trkpt>
      <trkpt lat="43.52815" lon="5.60486">
        <ele>804</ele>
        <time>2022-10-19T10:11:44.630Z</time>
      </trkpt>
      <trkpt lat="43.52815" lon="5.60486">
        <ele>804</ele>
        <time>2022-10-19T10:11:45.630Z</time>
      </trkpt>
      <trkpt lat="43.52815" lon="5.60485">
        <ele>804</ele>
        <time>2022-10-19T10:11:46.630Z</time>
      </trkpt>
      <trkpt lat="43.52815" lon="5.60484">
        <ele>804</ele>
        <time>2022-10-19T10:11:47.630Z</time>
      </trkpt>
      <trkpt lat="43.52815" lon="5.60483">
        <ele>803</ele>
        <time>2022-10-19T10:11:48.630Z</time>
      </trkpt>
      <trkpt lat="43.52816" lon="5.60482">
        <ele>803</ele>
        <time>2022-10-19T10:11:49.630Z</time>
      </trkpt>
      <trkpt lat="43.52816" lon="5.60482">
        <ele>803</ele>
        <time>2022-10-19T10:11:50.630Z</time>
      </trkpt>
      <trkpt lat="43.52816" lon="5.60481">
        <ele>803</ele>
        <time>2022-10-19T10:11:51.630Z</time>
      </trkpt>
      <trkpt lat="43.52816" lon="5.6048">
        <ele>803</ele>
        <time>2022-10-19T10:11:52.630Z</time>
      </trkpt>
      <trkpt lat="43.52816" lon="5.60479">
        <ele>802</ele>
        <time>2022-10-19T10:11:53.630Z</time>
      </trkpt>
      <trkpt lat="43.52816" lon="5.60478">
        <ele>802</ele>
        <time>2022-10-19T10:11:54.630Z</time>
      </trkpt>
      <trkpt lat="43.52816" lon="5.60477">
        <ele>802</ele>
        <time>2022-10-19T10:11:55.630Z</time>
      </trkpt>
      <trkpt lat="43.52816" lon="5.60476">
        <ele>802</ele>
        <time>2022-10-19T10:11:56.630Z</time>
      </trkpt>
      <trkpt lat="43.52816" lon="5.60475">
        <ele>802</ele>
        <time>2022-10-19T10:11:57.630Z</time>
      </trkpt>
      <trkpt lat="43.52816" lon="5.60474">
        <ele>801</ele>
        <time>2022-10-19T10:11:58.630Z</time>
      </trkpt>
      <trkpt lat="43.52816" lon="5.60473">
        <ele>801</ele>
        <time>2022-10-19T10:11:59.630Z</time>
      </trkpt>
      <trkpt lat="43.52817" lon="5.60472">
        <ele>801</ele>
        <time>2022-10-19T10:12:00.630Z</time>
      </trkpt>
      <trkpt lat="43.52817" lon="5.60472">
        <ele>801</ele>
        <time>2022-10-19T10:12:01.630Z</time>
      </trkpt>
      <trkpt lat="43.52816" lon="5.60471">
        <ele>801</ele>
        <time>2022-10-19T10:12:02.630Z</time>
      </trkpt>
      <trkpt lat="43.52816" lon="5.60471">
        <ele>801</ele>
        <time>2022-10-19T10:12:03.630Z</time>
      </trkpt>
      <trkpt lat="43.52816" lon="5.60471">
        <ele>801</ele>
        <time>2022-10-19T10:12:04.630Z</time>
      </trkpt>
      <trkpt lat="43.52816" lon="5.6047">
        <ele>800</ele>
        <time>2022-10-19T10:12:05.630Z</time>
      </trkpt>
      <trkpt lat="43.52816" lon="5.60469">
        <ele>800</ele>
        <time>2022-10-19T10:12:06.630Z</time>
      </trkpt>
      <trkpt lat="43.52817" lon="5.60469">
        <ele>800</ele>
        <time>2022-10-19T10:12:07.630Z</time>
      </trkpt>
      <trkpt lat="43.52817" lon="5.60468">
        <ele>801</ele>
        <time>2022-10-19T10:12:08.630Z</time>
      </trkpt>
      <trkpt lat="43.52818" lon="5.60468">
        <ele>801</ele>
        <time>2022-10-19T10:12:09.630Z</time>
      </trkpt>
      <trkpt lat="43.52818" lon="5.60467">
        <ele>801</ele>
        <time>2022-10-19T10:12:10.630Z</time>
      </trkpt>
      <trkpt lat="43.52818" lon="5.60467">
        <ele>801</ele>
        <time>2022-10-19T10:12:11.630Z</time>
      </trkpt>
      <trkpt lat="43.52819" lon="5.60467">
        <ele>801</ele>
        <time>2022-10-19T10:12:12.630Z</time>
      </trkpt>
      <trkpt lat="43.52819" lon="5.60467">
        <ele>801</ele>
        <time>2022-10-19T10:12:13.630Z</time>
      </trkpt>
      <trkpt lat="43.52819" lon="5.60467">
        <ele>801</ele>
        <time>2022-10-19T10:12:14.630Z</time>
      </trkpt>
      <trkpt lat="43.52819" lon="5.60467">
        <ele>801</ele>
        <time>2022-10-19T10:12:15.630Z</time>
      </trkpt>
      <trkpt lat="43.52819" lon="5.60467">
        <ele>801</ele>
        <time>2022-10-19T10:12:16.630Z</time>
      </trkpt>
      <trkpt lat="43.52819" lon="5.60467">
        <ele>801</ele>
        <time>2022-10-19T10:12:17.630Z</time>
      </trkpt>
      <trkpt lat="43.52819" lon="5.60467">
        <ele>801</ele>
        <time>2022-10-19T10:12:18.630Z</time>
      </trkpt>
      <trkpt lat="43.52819" lon="5.60467">
        <ele>801</ele>
        <time>2022-10-19T10:12:19.630Z</time>
      </trkpt>
      <trkpt lat="43.52819" lon="5.60466">
        <ele>801</ele>
        <time>2022-10-19T10:12:20.630Z</time>
      </trkpt>
      <trkpt lat="43.52819" lon="5.60466">
        <ele>801</ele>
        <time>2022-10-19T10:12:21.630Z</time>
      </trkpt>
      <trkpt lat="43.52819" lon="5.60466">
        <ele>801</ele>
        <time>2022-10-19T10:12:22.630Z</time>
      </trkpt>
      <trkpt lat="43.52818" lon="5.60466">
        <ele>801</ele>
        <time>2022-10-19T10:12:23.630Z</time>
      </trkpt>
      <trkpt lat="43.52818" lon="5.60467">
        <ele>801</ele>
        <time>2022-10-19T10:12:24.630Z</time>
      </trkpt>
      <trkpt lat="43.52818" lon="5.60467">
        <ele>801</ele>
        <time>2022-10-19T10:12:25.630Z</time>
      </trkpt>
      <trkpt lat="43.52818" lon="5.60466">
        <ele>801</ele>
        <time>2022-10-19T10:12:26.630Z</time>
      </trkpt>
      <trkpt lat="43.52818" lon="5.60466">
        <ele>801</ele>
        <time>2022-10-19T10:12:27.630Z</time>
      </trkpt>
      <trkpt lat="43.52818" lon="5.60466">
        <ele>801</ele>
        <time>2022-10-19T10:12:28.630Z</time>
      </trkpt>
      <trkpt lat="43.52818" lon="5.60466">
        <ele>801</ele>
        <time>2022-10-19T10:12:29.630Z</time>
      </trkpt>
      <trkpt lat="43.52818" lon="5.60466">
        <ele>801</ele>
        <time>2022-10-19T10:12:30.630Z</time>
      </trkpt>
      <trkpt lat="43.52818" lon="5.60466">
        <ele>801</ele>
        <time>2022-10-19T10:12:31.630Z</time>
      </trkpt>
      <trkpt lat="43.52818" lon="5.60466">
        <ele>801</ele>
        <time>2022-10-19T10:12:32.630Z</time>
      </trkpt>
      <trkpt lat="43.52818" lon="5.60466">
        <ele>801</ele>
        <time>2022-10-19T10:12:33.630Z</time>
      </trkpt>
      <trkpt lat="43.52818" lon="5.60466">
        <ele>801</ele>
        <time>2022-10-19T10:12:34.630Z</time>
      </trkpt>
      <trkpt lat="43.52818" lon="5.60466">
        <ele>801</ele>
        <time>2022-10-19T10:12:35.630Z</time>
      </trkpt>
      <trkpt lat="43.52818" lon="5.60466">
        <ele>801</ele>
        <time>2022-10-19T10:12:36.630Z</time>
      </trkpt>
      <trkpt lat="43.52818" lon="5.60466">
        <ele>801</ele>
        <time>2022-10-19T10:12:37.630Z</time>
      </trkpt>
      <trkpt lat="43.52818" lon="5.60466">
        <ele>801</ele>
        <time>2022-10-19T10:12:38.630Z</time>
      </trkpt>
      <trkpt lat="43.52818" lon="5.60466">
        <ele>801</ele>
        <time>2022-10-19T10:12:39.630Z</time>
      </trkpt>
      <trkpt lat="43.52818" lon="5.60466">
        <ele>801</ele>
        <time>2022-10-19T10:12:40.630Z</time>
      </trkpt>
      <trkpt lat="43.52818" lon="5.60466">
        <ele>801</ele>
        <time>2022-10-19T10:12:41.630Z</time>
      </trkpt>
      <trkpt lat="43.52818" lon="5.60466">
        <ele>801</ele>
        <time>2022-10-19T10:12:42.630Z</time>
      </trkpt>
      <trkpt lat="43.52818" lon="5.60466">
        <ele>801</ele>
        <time>2022-10-19T10:12:43.630Z</time>
      </trkpt>
      <trkpt lat="43.52818" lon="5.60466">
        <ele>801</ele>
        <time>2022-10-19T10:12:44.630Z</time>
      </trkpt>
      <trkpt lat="43.52818" lon="5.60466">
        <ele>801</ele>
        <time>2022-10-19T10:12:45.630Z</time>
      </trkpt>
      <trkpt lat="43.52818" lon="5.60466">
        <ele>801</ele>
        <time>2022-10-19T10:12:46.630Z</time>
      </trkpt>
      <trkpt lat="43.52818" lon="5.60466">
        <ele>801</ele>
        <time>2022-10-19T10:12:47.630Z</time>
      </trkpt>
      <trkpt lat="43.52818" lon="5.60466">
        <ele>801</ele>
        <time>2022-10-19T10:12:48.630Z</time>
      </trkpt>
      <trkpt lat="43.52818" lon="5.60466">
        <ele>801</ele>
        <time>2022-10-19T10:12:49.630Z</time>
      </trkpt>
      <trkpt lat="43.52818" lon="5.60466">
        <ele>802</ele>
        <time>2022-10-19T10:12:50.630Z</time>
      </trkpt>
      <trkpt lat="43.52818" lon="5.60466">
        <ele>802</ele>
        <time>2022-10-19T10:12:51.630Z</time>
      </trkpt>
      <trkpt lat="43.52818" lon="5.60466">
        <ele>802</ele>
        <time>2022-10-19T10:12:52.630Z</time>
      </trkpt>
      <trkpt lat="43.52818" lon="5.60466">
        <ele>802</ele>
        <time>2022-10-19T10:12:53.630Z</time>
      </trkpt>
      <trkpt lat="43.52818" lon="5.60466">
        <ele>802</ele>
        <time>2022-10-19T10:12:54.630Z</time>
      </trkpt>
      <trkpt lat="43.52818" lon="5.60466">
        <ele>802</ele>
        <time>2022-10-19T10:12:55.630Z</time>
      </trkpt>
      <trkpt lat="43.52818" lon="5.60466">
        <ele>802</ele>
        <time>2022-10-19T10:12:56.630Z</time>
      </trkpt>
      <trkpt lat="43.52818" lon="5.60466">
        <ele>802</ele>
        <time>2022-10-19T10:12:57.630Z</time>
      </trkpt>
      <trkpt lat="43.52818" lon="5.60466">
        <ele>802</ele>
        <time>2022-10-19T10:12:58.630Z</time>
      </trkpt>
      <trkpt lat="43.52818" lon="5.60466">
        <ele>802</ele>
        <time>2022-10-19T10:12:59.630Z</time>
      </trkpt>
      <trkpt lat="43.52818" lon="5.60466">
        <ele>802</ele>
        <time>2022-10-19T10:13:00.630Z</time>
      </trkpt>
      <trkpt lat="43.52818" lon="5.60466">
        <ele>802</ele>
        <time>2022-10-19T10:13:01.630Z</time>
      </trkpt>
      <trkpt lat="43.52818" lon="5.60466">
        <ele>802</ele>
        <time>2022-10-19T10:13:02.630Z</time>
      </trkpt>
      <trkpt lat="43.52818" lon="5.60466">
        <ele>802</ele>
        <time>2022-10-19T10:13:03.630Z</time>
      </trkpt>
      <trkpt lat="43.52818" lon="5.60466">
        <ele>802</ele>
        <time>2022-10-19T10:13:04.630Z</time>
      </trkpt>
      <trkpt lat="43.52818" lon="5.60466">
        <ele>802</ele>
        <time>2022-10-19T10:13:05.630Z</time>
      </trkpt>
      <trkpt lat="43.52818" lon="5.60466">
        <ele>802</ele>
        <time>2022-10-19T10:13:06.630Z</time>
      </trkpt>
      <trkpt lat="43.52818" lon="5.60466">
        <ele>802</ele>
        <time>2022-10-19T10:13:07.630Z</time>
      </trkpt>
      <trkpt lat="43.52818" lon="5.60466">
        <ele>802</ele>
        <time>2022-10-19T10:13:08.630Z</time>
      </trkpt>
      <trkpt lat="43.52818" lon="5.60466">
        <ele>802</ele>
        <time>2022-10-19T10:13:09.630Z</time>
      </trkpt>
      <trkpt lat="43.52818" lon="5.60466">
        <ele>802</ele>
        <time>2022-10-19T10:13:10.630Z</time>
      </trkpt>
      <trkpt lat="43.52818" lon="5.60466">
        <ele>802</ele>
        <time>2022-10-19T10:13:11.630Z</time>
      </trkpt>
      <trkpt lat="43.52818" lon="5.60466">
        <ele>802</ele>
        <time>2022-10-19T10:13:12.630Z</time>
      </trkpt>
      <trkpt lat="43.52818" lon="5.60466">
        <ele>802</ele>
        <time>2022-10-19T10:13:13.630Z</time>
      </trkpt>
      <trkpt lat="43.52818" lon="5.60466">
        <ele>802</ele>
        <time>2022-10-19T10:13:14.630Z</time>
      </trkpt>
      <trkpt lat="43.52818" lon="5.60466">
        <ele>802</ele>
        <time>2022-10-19T10:13:15.630Z</time>
      </trkpt>
      <trkpt lat="43.52818" lon="5.60466">
        <ele>802</ele>
        <time>2022-10-19T10:13:16.630Z</time>
      </trkpt>
      <trkpt lat="43.52818" lon="5.60466">
        <ele>802</ele>
        <time>2022-10-19T10:13:17.630Z</time>
      </trkpt>
      <trkpt lat="43.52818" lon="5.60466">
        <ele>802</ele>
        <time>2022-10-19T10:13:18.630Z</time>
      </trkpt>
      <trkpt lat="43.52818" lon="5.60466">
        <ele>802</ele>
        <time>2022-10-19T10:13:19.630Z</time>
      </trkpt>
      <trkpt lat="43.52818" lon="5.60466">
        <ele>802</ele>
        <time>2022-10-19T10:13:20.630Z</time>
      </trkpt>
      <trkpt lat="43.52818" lon="5.60466">
        <ele>802</ele>
        <time>2022-10-19T10:13:21.630Z</time>
      </trkpt>
      <trkpt lat="43.52818" lon="5.60466">
        <ele>802</ele>
        <time>2022-10-19T10:13:22.630Z</time>
      </trkpt>
      <trkpt lat="43.52818" lon="5.60466">
        <ele>802</ele>
        <time>2022-10-19T10:13:23.630Z</time>
      </trkpt>
      <trkpt lat="43.52818" lon="5.60466">
        <ele>802</ele>
        <time>2022-10-19T10:13:24.630Z</time>
      </trkpt>
      <trkpt lat="43.52818" lon="5.60466">
        <ele>802</ele>
        <time>2022-10-19T10:13:25.630Z</time>
      </trkpt>
      <trkpt lat="43.52818" lon="5.60466">
        <ele>802</ele>
        <time>2022-10-19T10:13:26.630Z</time>
      </trkpt>
      <trkpt lat="43.52818" lon="5.60466">
        <ele>802</ele>
        <time>2022-10-19T10:13:27.630Z</time>
      </trkpt>
      <trkpt lat="43.52818" lon="5.60467">
        <ele>801</ele>
        <time>2022-10-19T10:13:28.630Z</time>
      </trkpt>
      <trkpt lat="43.52818" lon="5.60467">
        <ele>801</ele>
        <time>2022-10-19T10:13:29.630Z</time>
      </trkpt>
      <trkpt lat="43.52818" lon="5.60467">
        <ele>801</ele>
        <time>2022-10-19T10:13:30.630Z</time>
      </trkpt>
      <trkpt lat="43.52818" lon="5.60467">
        <ele>801</ele>
        <time>2022-10-19T10:13:31.630Z</time>
      </trkpt>
      <trkpt lat="43.52818" lon="5.60467">
        <ele>801</ele>
        <time>2022-10-19T10:13:32.630Z</time>
      </trkpt>
      <trkpt lat="43.52818" lon="5.60467">
        <ele>801</ele>
        <time>2022-10-19T10:13:33.630Z</time>
      </trkpt>
      <trkpt lat="43.52818" lon="5.60467">
        <ele>801</ele>
        <time>2022-10-19T10:13:34.630Z</time>
      </trkpt>
      <trkpt lat="43.52818" lon="5.60467">
        <ele>801</ele>
        <time>2022-10-19T10:13:35.630Z</time>
      </trkpt>
      <trkpt lat="43.52819" lon="5.60467">
        <ele>801</ele>
        <time>2022-10-19T10:13:36.630Z</time>
      </trkpt>
      <trkpt lat="43.52819" lon="5.60467">
        <ele>801</ele>
        <time>2022-10-19T10:13:37.630Z</time>
      </trkpt>
      <trkpt lat="43.52819" lon="5.60466">
        <ele>801</ele>
        <time>2022-10-19T10:13:38.630Z</time>
      </trkpt>
      <trkpt lat="43.52819" lon="5.60466">
        <ele>801</ele>
        <time>2022-10-19T10:13:39.630Z</time>
      </trkpt>
      <trkpt lat="43.52819" lon="5.60465">
        <ele>801</ele>
        <time>2022-10-19T10:13:40.630Z</time>
      </trkpt>
      <trkpt lat="43.52818" lon="5.60465">
        <ele>801</ele>
        <time>2022-10-19T10:13:41.630Z</time>
      </trkpt>
      <trkpt lat="43.52818" lon="5.60465">
        <ele>801</ele>
        <time>2022-10-19T10:13:42.630Z</time>
      </trkpt>
      <trkpt lat="43.52818" lon="5.60465">
        <ele>801</ele>
        <time>2022-10-19T10:13:43.630Z</time>
      </trkpt>
      <trkpt lat="43.52818" lon="5.60465">
        <ele>800</ele>
        <time>2022-10-19T10:13:44.630Z</time>
      </trkpt>
      <trkpt lat="43.52817" lon="5.60465">
        <ele>800</ele>
        <time>2022-10-19T10:13:45.630Z</time>
      </trkpt>
      <trkpt lat="43.52816" lon="5.60465">
        <ele>800</ele>
        <time>2022-10-19T10:13:46.630Z</time>
      </trkpt>
      <trkpt lat="43.52816" lon="5.60464">
        <ele>800</ele>
        <time>2022-10-19T10:13:47.630Z</time>
      </trkpt>
      <trkpt lat="43.52816" lon="5.60463">
        <ele>800</ele>
        <time>2022-10-19T10:13:48.630Z</time>
      </trkpt>
      <trkpt lat="43.52816" lon="5.60463">
        <ele>800</ele>
        <time>2022-10-19T10:13:49.630Z</time>
      </trkpt>
      <trkpt lat="43.52816" lon="5.60462">
        <ele>800</ele>
        <time>2022-10-19T10:13:50.630Z</time>
      </trkpt>
      <trkpt lat="43.52816" lon="5.60461">
        <ele>800</ele>
        <time>2022-10-19T10:13:51.630Z</time>
      </trkpt>
      <trkpt lat="43.52816" lon="5.6046">
        <ele>800</ele>
        <time>2022-10-19T10:13:52.630Z</time>
      </trkpt>
      <trkpt lat="43.52816" lon="5.6046">
        <ele>800</ele>
        <time>2022-10-19T10:13:53.630Z</time>
      </trkpt>
      <trkpt lat="43.52816" lon="5.6046">
        <ele>800</ele>
        <time>2022-10-19T10:13:54.630Z</time>
      </trkpt>
      <trkpt lat="43.52816" lon="5.6046">
        <ele>800</ele>
        <time>2022-10-19T10:13:55.630Z</time>
      </trkpt>
      <trkpt lat="43.52817" lon="5.60459">
        <ele>800</ele>
        <time>2022-10-19T10:13:56.630Z</time>
      </trkpt>
      <trkpt lat="43.52817" lon="5.60459">
        <ele>800</ele>
        <time>2022-10-19T10:13:57.630Z</time>
      </trkpt>
      <trkpt lat="43.52817" lon="5.60459">
        <ele>800</ele>
        <time>2022-10-19T10:13:58.630Z</time>
      </trkpt>
      <trkpt lat="43.52817" lon="5.60459">
        <ele>800</ele>
        <time>2022-10-19T10:13:59.630Z</time>
      </trkpt>
      <trkpt lat="43.52816" lon="5.60459">
        <ele>800</ele>
        <time>2022-10-19T10:14:00.630Z</time>
      </trkpt>
      <trkpt lat="43.52816" lon="5.60459">
        <ele>800</ele>
        <time>2022-10-19T10:14:01.630Z</time>
      </trkpt>
      <trkpt lat="43.52816" lon="5.60459">
        <ele>800</ele>
        <time>2022-10-19T10:14:02.630Z</time>
      </trkpt>
      <trkpt lat="43.52816" lon="5.60459">
        <ele>800</ele>
        <time>2022-10-19T10:14:03.630Z</time>
      </trkpt>
      <trkpt lat="43.52816" lon="5.60459">
        <ele>800</ele>
        <time>2022-10-19T10:14:04.630Z</time>
      </trkpt>
      <trkpt lat="43.52816" lon="5.60459">
        <ele>800</ele>
        <time>2022-10-19T10:14:05.630Z</time>
      </trkpt>
      <trkpt lat="43.52816" lon="5.60459">
        <ele>800</ele>
        <time>2022-10-19T10:14:06.630Z</time>
      </trkpt>
      <trkpt lat="43.52816" lon="5.60459">
        <ele>800</ele>
        <time>2022-10-19T10:14:07.630Z</time>
      </trkpt>
      <trkpt lat="43.52816" lon="5.60459">
        <ele>800</ele>
        <time>2022-10-19T10:14:08.630Z</time>
      </trkpt>
      <trkpt lat="43.52816" lon="5.60459">
        <ele>800</ele>
        <time>2022-10-19T10:14:09.630Z</time>
      </trkpt>
      <trkpt lat="43.52816" lon="5.60459">
        <ele>800</ele>
        <time>2022-10-19T10:14:10.630Z</time>
      </trkpt>
      <trkpt lat="43.52816" lon="5.60459">
        <ele>800</ele>
        <time>2022-10-19T10:14:11.630Z</time>
      </trkpt>
      <trkpt lat="43.52816" lon="5.60459">
        <ele>800</ele>
        <time>2022-10-19T10:14:12.630Z</time>
      </trkpt>
      <trkpt lat="43.52816" lon="5.60459">
        <ele>800</ele>
        <time>2022-10-19T10:14:13.630Z</time>
      </trkpt>
      <trkpt lat="43.52816" lon="5.60459">
        <ele>800</ele>
        <time>2022-10-19T10:14:14.630Z</time>
      </trkpt>
      <trkpt lat="43.52816" lon="5.60459">
        <ele>800</ele>
        <time>2022-10-19T10:14:15.630Z</time>
      </trkpt>
      <trkpt lat="43.52816" lon="5.60459">
        <ele>800</ele>
        <time>2022-10-19T10:14:16.630Z</time>
      </trkpt>
      <trkpt lat="43.52816" lon="5.60459">
        <ele>800</ele>
        <time>2022-10-19T10:14:17.630Z</time>
      </trkpt>
      <trkpt lat="43.52816" lon="5.60459">
        <ele>800</ele>
        <time>2022-10-19T10:14:18.630Z</time>
      </trkpt>
      <trkpt lat="43.52816" lon="5.60459">
        <ele>800</ele>
        <time>2022-10-19T10:14:19.630Z</time>
      </trkpt>
      <trkpt lat="43.52816" lon="5.60459">
        <ele>800</ele>
        <time>2022-10-19T10:14:20.630Z</time>
      </trkpt>
      <trkpt lat="43.52816" lon="5.60459">
        <ele>800</ele>
        <time>2022-10-19T10:14:21.630Z</time>
      </trkpt>
      <trkpt lat="43.52816" lon="5.60459">
        <ele>800</ele>
        <time>2022-10-19T10:14:22.630Z</time>
      </trkpt>
      <trkpt lat="43.52816" lon="5.60459">
        <ele>800</ele>
        <time>2022-10-19T10:14:23.630Z</time>
      </trkpt>
      <trkpt lat="43.52816" lon="5.60459">
        <ele>800</ele>
        <time>2022-10-19T10:14:24.630Z</time>
      </trkpt>
      <trkpt lat="43.52816" lon="5.60459">
        <ele>799</ele>
        <time>2022-10-19T10:14:25.630Z</time>
      </trkpt>
      <trkpt lat="43.52816" lon="5.60459">
        <ele>799</ele>
        <time>2022-10-19T10:14:26.630Z</time>
      </trkpt>
      <trkpt lat="43.52817" lon="5.60459">
        <ele>799</ele>
        <time>2022-10-19T10:14:27.630Z</time>
      </trkpt>
      <trkpt lat="43.52817" lon="5.60459">
        <ele>799</ele>
        <time>2022-10-19T10:14:28.630Z</time>
      </trkpt>
      <trkpt lat="43.52817" lon="5.60459">
        <ele>798</ele>
        <time>2022-10-19T10:14:29.630Z</time>
      </trkpt>
      <trkpt lat="43.52817" lon="5.60459">
        <ele>798</ele>
        <time>2022-10-19T10:14:30.630Z</time>
      </trkpt>
      <trkpt lat="43.52817" lon="5.60459">
        <ele>798</ele>
        <time>2022-10-19T10:14:31.630Z</time>
      </trkpt>
      <trkpt lat="43.52817" lon="5.60459">
        <ele>798</ele>
        <time>2022-10-19T10:14:32.630Z</time>
      </trkpt>
      <trkpt lat="43.52817" lon="5.60458">
        <ele>798</ele>
        <time>2022-10-19T10:14:33.630Z</time>
      </trkpt>
      <trkpt lat="43.52817" lon="5.60458">
        <ele>798</ele>
        <time>2022-10-19T10:14:34.630Z</time>
      </trkpt>
      <trkpt lat="43.52817" lon="5.60458">
        <ele>797</ele>
        <time>2022-10-19T10:14:35.630Z</time>
      </trkpt>
      <trkpt lat="43.52817" lon="5.60458">
        <ele>797</ele>
        <time>2022-10-19T10:14:36.630Z</time>
      </trkpt>
      <trkpt lat="43.52817" lon="5.60458">
        <ele>797</ele>
        <time>2022-10-19T10:14:37.630Z</time>
      </trkpt>
      <trkpt lat="43.52817" lon="5.60458">
        <ele>797</ele>
        <time>2022-10-19T10:14:38.630Z</time>
      </trkpt>
      <trkpt lat="43.52817" lon="5.60458">
        <ele>796</ele>
        <time>2022-10-19T10:14:39.630Z</time>
      </trkpt>
      <trkpt lat="43.52817" lon="5.60458">
        <ele>796</ele>
        <time>2022-10-19T10:14:40.630Z</time>
      </trkpt>
      <trkpt lat="43.52817" lon="5.60458">
        <ele>796</ele>
        <time>2022-10-19T10:14:41.630Z</time>
      </trkpt>
      <trkpt lat="43.52817" lon="5.60458">
        <ele>796</ele>
        <time>2022-10-19T10:14:42.630Z</time>
      </trkpt>
      <trkpt lat="43.52817" lon="5.60458">
        <ele>795</ele>
        <time>2022-10-19T10:14:43.630Z</time>
      </trkpt>
      <trkpt lat="43.52817" lon="5.60458">
        <ele>795</ele>
        <time>2022-10-19T10:14:44.630Z</time>
      </trkpt>
      <trkpt lat="43.52817" lon="5.60458">
        <ele>795</ele>
        <time>2022-10-19T10:14:45.630Z</time>
      </trkpt>
      <trkpt lat="43.52818" lon="5.60458">
        <ele>795</ele>
        <time>2022-10-19T10:14:46.630Z</time>
      </trkpt>
      <trkpt lat="43.52818" lon="5.60458">
        <ele>794</ele>
        <time>2022-10-19T10:14:47.630Z</time>
      </trkpt>
      <trkpt lat="43.52818" lon="5.60458">
        <ele>794</ele>
        <time>2022-10-19T10:14:48.630Z</time>
      </trkpt>
      <trkpt lat="43.52818" lon="5.60458">
        <ele>794</ele>
        <time>2022-10-19T10:14:49.630Z</time>
      </trkpt>
      <trkpt lat="43.52818" lon="5.60458">
        <ele>794</ele>
        <time>2022-10-19T10:14:50.630Z</time>
      </trkpt>
      <trkpt lat="43.52818" lon="5.60458">
        <ele>794</ele>
        <time>2022-10-19T10:14:51.630Z</time>
      </trkpt>
      <trkpt lat="43.52818" lon="5.60458">
        <ele>793</ele>
        <time>2022-10-19T10:14:52.630Z</time>
      </trkpt>
      <trkpt lat="43.52818" lon="5.60458">
        <ele>793</ele>
        <time>2022-10-19T10:14:53.630Z</time>
      </trkpt>
      <trkpt lat="43.52818" lon="5.60458">
        <ele>793</ele>
        <time>2022-10-19T10:14:54.630Z</time>
      </trkpt>
      <trkpt lat="43.52818" lon="5.60458">
        <ele>793</ele>
        <time>2022-10-19T10:14:55.630Z</time>
      </trkpt>
      <trkpt lat="43.52818" lon="5.60458">
        <ele>793</ele>
        <time>2022-10-19T10:14:56.630Z</time>
      </trkpt>
      <trkpt lat="43.52818" lon="5.60458">
        <ele>793</ele>
        <time>2022-10-19T10:14:57.630Z</time>
      </trkpt>
      <trkpt lat="43.52818" lon="5.60458">
        <ele>793</ele>
        <time>2022-10-19T10:14:58.630Z</time>
      </trkpt>
      <trkpt lat="43.52818" lon="5.60458">
        <ele>793</ele>
        <time>2022-10-19T10:14:59.630Z</time>
      </trkpt>
      <trkpt lat="43.52818" lon="5.60458">
        <ele>793</ele>
        <time>2022-10-19T10:15:00.630Z</time>
      </trkpt>
      <trkpt lat="43.52818" lon="5.60458">
        <ele>793</ele>
        <time>2022-10-19T10:15:01.630Z</time>
      </trkpt>
      <trkpt lat="43.52818" lon="5.60458">
        <ele>792</ele>
        <time>2022-10-19T10:15:02.630Z</time>
      </trkpt>
      <trkpt lat="43.52818" lon="5.60458">
        <ele>792</ele>
        <time>2022-10-19T10:15:03.630Z</time>
      </trkpt>
      <trkpt lat="43.52818" lon="5.60458">
        <ele>792</ele>
        <time>2022-10-19T10:15:04.630Z</time>
      </trkpt>
      <trkpt lat="43.52818" lon="5.60458">
        <ele>792</ele>
        <time>2022-10-19T10:15:05.630Z</time>
      </trkpt>
      <trkpt lat="43.52818" lon="5.60458">
        <ele>792</ele>
        <time>2022-10-19T10:15:06.630Z</time>
      </trkpt>
      <trkpt lat="43.52818" lon="5.60458">
        <ele>792</ele>
        <time>2022-10-19T10:15:07.630Z</time>
      </trkpt>
      <trkpt lat="43.52818" lon="5.60458">
        <ele>792</ele>
        <time>2022-10-19T10:15:08.630Z</time>
      </trkpt>
      <trkpt lat="43.52818" lon="5.60458">
        <ele>792</ele>
        <time>2022-10-19T10:15:09.630Z</time>
      </trkpt>
      <trkpt lat="43.52818" lon="5.60458">
        <ele>792</ele>
        <time>2022-10-19T10:15:10.630Z</time>
      </trkpt>
      <trkpt lat="43.52818" lon="5.60458">
        <ele>792</ele>
        <time>2022-10-19T10:15:11.630Z</time>
      </trkpt>
      <trkpt lat="43.52818" lon="5.60458">
        <ele>792</ele>
        <time>2022-10-19T10:15:12.630Z</time>
      </trkpt>
      <trkpt lat="43.52819" lon="5.60458">
        <ele>792</ele>
        <time>2022-10-19T10:15:13.630Z</time>
      </trkpt>
      <trkpt lat="43.52819" lon="5.60458">
        <ele>793</ele>
        <time>2022-10-19T10:15:14.630Z</time>
      </trkpt>
      <trkpt lat="43.52819" lon="5.60458">
        <ele>793</ele>
        <time>2022-10-19T10:15:15.630Z</time>
      </trkpt>
      <trkpt lat="43.52819" lon="5.60458">
        <ele>793</ele>
        <time>2022-10-19T10:15:16.630Z</time>
      </trkpt>
      <trkpt lat="43.52819" lon="5.60458">
        <ele>793</ele>
        <time>2022-10-19T10:15:17.630Z</time>
      </trkpt>
      <trkpt lat="43.52819" lon="5.60458">
        <ele>793</ele>
        <time>2022-10-19T10:15:18.630Z</time>
      </trkpt>
      <trkpt lat="43.52819" lon="5.60459">
        <ele>793</ele>
        <time>2022-10-19T10:15:19.630Z</time>
      </trkpt>
      <trkpt lat="43.52819" lon="5.60458">
        <ele>793</ele>
        <time>2022-10-19T10:15:20.630Z</time>
      </trkpt>
      <trkpt lat="43.52819" lon="5.60458">
        <ele>793</ele>
        <time>2022-10-19T10:15:21.630Z</time>
      </trkpt>
      <trkpt lat="43.52819" lon="5.60458">
        <ele>793</ele>
        <time>2022-10-19T10:15:22.630Z</time>
      </trkpt>
      <trkpt lat="43.52819" lon="5.60458">
        <ele>793</ele>
        <time>2022-10-19T10:15:23.630Z</time>
      </trkpt>
      <trkpt lat="43.52819" lon="5.60459">
        <ele>793</ele>
        <time>2022-10-19T10:15:24.630Z</time>
      </trkpt>
      <trkpt lat="43.52819" lon="5.60459">
        <ele>793</ele>
        <time>2022-10-19T10:15:25.630Z</time>
      </trkpt>
      <trkpt lat="43.52819" lon="5.60459">
        <ele>793</ele>
        <time>2022-10-19T10:15:26.630Z</time>
      </trkpt>
      <trkpt lat="43.52819" lon="5.60459">
        <ele>793</ele>
        <time>2022-10-19T10:15:27.630Z</time>
      </trkpt>
      <trkpt lat="43.52819" lon="5.60458">
        <ele>793</ele>
        <time>2022-10-19T10:15:28.630Z</time>
      </trkpt>
      <trkpt lat="43.52819" lon="5.60458">
        <ele>793</ele>
        <time>2022-10-19T10:15:29.630Z</time>
      </trkpt>
      <trkpt lat="43.52819" lon="5.60459">
        <ele>793</ele>
        <time>2022-10-19T10:15:30.630Z</time>
      </trkpt>
      <trkpt lat="43.52819" lon="5.60459">
        <ele>793</ele>
        <time>2022-10-19T10:15:31.630Z</time>
      </trkpt>
      <trkpt lat="43.52819" lon="5.60459">
        <ele>793</ele>
        <time>2022-10-19T10:15:32.630Z</time>
      </trkpt>
      <trkpt lat="43.52819" lon="5.60459">
        <ele>793</ele>
        <time>2022-10-19T10:15:33.630Z</time>
      </trkpt>
      <trkpt lat="43.52819" lon="5.60459">
        <ele>793</ele>
        <time>2022-10-19T10:15:34.630Z</time>
      </trkpt>
      <trkpt lat="43.52819" lon="5.60459">
        <ele>794</ele>
        <time>2022-10-19T10:15:35.630Z</time>
      </trkpt>
      <trkpt lat="43.52819" lon="5.60459">
        <ele>794</ele>
        <time>2022-10-19T10:15:36.630Z</time>
      </trkpt>
      <trkpt lat="43.52819" lon="5.60459">
        <ele>794</ele>
        <time>2022-10-19T10:15:37.630Z</time>
      </trkpt>
      <trkpt lat="43.52819" lon="5.60459">
        <ele>794</ele>
        <time>2022-10-19T10:15:38.630Z</time>
      </trkpt>
      <trkpt lat="43.52819" lon="5.60459">
        <ele>794</ele>
        <time>2022-10-19T10:15:39.630Z</time>
      </trkpt>
      <trkpt lat="43.52819" lon="5.60459">
        <ele>794</ele>
        <time>2022-10-19T10:15:40.630Z</time>
      </trkpt>
      <trkpt lat="43.52819" lon="5.60459">
        <ele>794</ele>
        <time>2022-10-19T10:15:41.630Z</time>
      </trkpt>
      <trkpt lat="43.52819" lon="5.60459">
        <ele>794</ele>
        <time>2022-10-19T10:15:42.630Z</time>
      </trkpt>
      <trkpt lat="43.52819" lon="5.60459">
        <ele>794</ele>
        <time>2022-10-19T10:15:43.630Z</time>
      </trkpt>
      <trkpt lat="43.52819" lon="5.60459">
        <ele>794</ele>
        <time>2022-10-19T10:15:44.630Z</time>
      </trkpt>
      <trkpt lat="43.52819" lon="5.60459">
        <ele>794</ele>
        <time>2022-10-19T10:15:45.630Z</time>
      </trkpt>
      <trkpt lat="43.52819" lon="5.60459">
        <ele>794</ele>
        <time>2022-10-19T10:15:46.630Z</time>
      </trkpt>
      <trkpt lat="43.52819" lon="5.60459">
        <ele>794</ele>
        <time>2022-10-19T10:15:47.630Z</time>
      </trkpt>
      <trkpt lat="43.52819" lon="5.60459">
        <ele>794</ele>
        <time>2022-10-19T10:15:48.630Z</time>
      </trkpt>
      <trkpt lat="43.52819" lon="5.60459">
        <ele>794</ele>
        <time>2022-10-19T10:15:49.630Z</time>
      </trkpt>
      <trkpt lat="43.52819" lon="5.60459">
        <ele>794</ele>
        <time>2022-10-19T10:15:50.630Z</time>
      </trkpt>
      <trkpt lat="43.52819" lon="5.60459">
        <ele>794</ele>
        <time>2022-10-19T10:15:51.630Z</time>
      </trkpt>
      <trkpt lat="43.52819" lon="5.60459">
        <ele>795</ele>
        <time>2022-10-19T10:15:52.630Z</time>
      </trkpt>
      <trkpt lat="43.52819" lon="5.60459">
        <ele>795</ele>
        <time>2022-10-19T10:15:53.630Z</time>
      </trkpt>
      <trkpt lat="43.52819" lon="5.60459">
        <ele>795</ele>
        <time>2022-10-19T10:15:54.630Z</time>
      </trkpt>
      <trkpt lat="43.52819" lon="5.60459">
        <ele>795</ele>
        <time>2022-10-19T10:15:55.630Z</time>
      </trkpt>
      <trkpt lat="43.52819" lon="5.60459">
        <ele>795</ele>
        <time>2022-10-19T10:15:56.630Z</time>
      </trkpt>
      <trkpt lat="43.52819" lon="5.60459">
        <ele>795</ele>
        <time>2022-10-19T10:15:57.630Z</time>
      </trkpt>
      <trkpt lat="43.52819" lon="5.60459">
        <ele>795</ele>
        <time>2022-10-19T10:15:58.630Z</time>
      </trkpt>
      <trkpt lat="43.52819" lon="5.60459">
        <ele>795</ele>
        <time>2022-10-19T10:15:59.630Z</time>
      </trkpt>
      <trkpt lat="43.52819" lon="5.60459">
        <ele>795</ele>
        <time>2022-10-19T10:16:00.630Z</time>
      </trkpt>
      <trkpt lat="43.52818" lon="5.60459">
        <ele>795</ele>
        <time>2022-10-19T10:16:01.630Z</time>
      </trkpt>
      <trkpt lat="43.52818" lon="5.60459">
        <ele>795</ele>
        <time>2022-10-19T10:16:02.630Z</time>
      </trkpt>
      <trkpt lat="43.52818" lon="5.60459">
        <ele>795</ele>
        <time>2022-10-19T10:16:03.630Z</time>
      </trkpt>
      <trkpt lat="43.52818" lon="5.60459">
        <ele>795</ele>
        <time>2022-10-19T10:16:04.630Z</time>
      </trkpt>
      <trkpt lat="43.52818" lon="5.60459">
        <ele>795</ele>
        <time>2022-10-19T10:16:05.630Z</time>
      </trkpt>
      <trkpt lat="43.52818" lon="5.60459">
        <ele>795</ele>
        <time>2022-10-19T10:16:06.630Z</time>
      </trkpt>
      <trkpt lat="43.52818" lon="5.60459">
        <ele>795</ele>
        <time>2022-10-19T10:16:07.630Z</time>
      </trkpt>
      <trkpt lat="43.52818" lon="5.60459">
        <ele>795</ele>
        <time>2022-10-19T10:16:08.630Z</time>
      </trkpt>
      <trkpt lat="43.52818" lon="5.60459">
        <ele>795</ele>
        <time>2022-10-19T10:16:09.630Z</time>
      </trkpt>
      <trkpt lat="43.52818" lon="5.60459">
        <ele>795</ele>
        <time>2022-10-19T10:16:10.630Z</time>
      </trkpt>
      <trkpt lat="43.52818" lon="5.60459">
        <ele>795</ele>
        <time>2022-10-19T10:16:11.630Z</time>
      </trkpt>
      <trkpt lat="43.52818" lon="5.60459">
        <ele>795</ele>
        <time>2022-10-19T10:16:12.630Z</time>
      </trkpt>
      <trkpt lat="43.52818" lon="5.60459">
        <ele>795</ele>
        <time>2022-10-19T10:16:13.630Z</time>
      </trkpt>
      <trkpt lat="43.52818" lon="5.60459">
        <ele>795</ele>
        <time>2022-10-19T10:16:14.630Z</time>
      </trkpt>
      <trkpt lat="43.52818" lon="5.60459">
        <ele>795</ele>
        <time>2022-10-19T10:16:15.630Z</time>
      </trkpt>
      <trkpt lat="43.52818" lon="5.60459">
        <ele>795</ele>
        <time>2022-10-19T10:16:16.630Z</time>
      </trkpt>
      <trkpt lat="43.52818" lon="5.60459">
        <ele>795</ele>
        <time>2022-10-19T10:16:17.630Z</time>
      </trkpt>
      <trkpt lat="43.52819" lon="5.60459">
        <ele>795</ele>
        <time>2022-10-19T10:16:18.630Z</time>
      </trkpt>
      <trkpt lat="43.52819" lon="5.60459">
        <ele>795</ele>
        <time>2022-10-19T10:16:19.630Z</time>
      </trkpt>
      <trkpt lat="43.52819" lon="5.60459">
        <ele>795</ele>
        <time>2022-10-19T10:16:20.630Z</time>
      </trkpt>
      <trkpt lat="43.52819" lon="5.60459">
        <ele>795</ele>
        <time>2022-10-19T10:16:21.630Z</time>
      </trkpt>
      <trkpt lat="43.52819" lon="5.60459">
        <ele>795</ele>
        <time>2022-10-19T10:16:22.630Z</time>
      </trkpt>
      <trkpt lat="43.52819" lon="5.60459">
        <ele>795</ele>
        <time>2022-10-19T10:16:23.630Z</time>
      </trkpt>
      <trkpt lat="43.52819" lon="5.60459">
        <ele>795</ele>
        <time>2022-10-19T10:16:24.630Z</time>
      </trkpt>
      <trkpt lat="43.52819" lon="5.60459">
        <ele>795</ele>
        <time>2022-10-19T10:16:25.630Z</time>
      </trkpt>
      <trkpt lat="43.52819" lon="5.60459">
        <ele>795</ele>
        <time>2022-10-19T10:16:26.630Z</time>
      </trkpt>
      <trkpt lat="43.52819" lon="5.60459">
        <ele>795</ele>
        <time>2022-10-19T10:16:27.630Z</time>
      </trkpt>
      <trkpt lat="43.52819" lon="5.60459">
        <ele>795</ele>
        <time>2022-10-19T10:16:28.630Z</time>
      </trkpt>
      <trkpt lat="43.52819" lon="5.60459">
        <ele>795</ele>
        <time>2022-10-19T10:16:29.630Z</time>
      </trkpt>
      <trkpt lat="43.52819" lon="5.60459">
        <ele>795</ele>
        <time>2022-10-19T10:16:30.630Z</time>
      </trkpt>
      <trkpt lat="43.52819" lon="5.60459">
        <ele>795</ele>
        <time>2022-10-19T10:16:31.630Z</time>
      </trkpt>
      <trkpt lat="43.52819" lon="5.60459">
        <ele>795</ele>
        <time>2022-10-19T10:16:32.630Z</time>
      </trkpt>
      <trkpt lat="43.52819" lon="5.60459">
        <ele>795</ele>
        <time>2022-10-19T10:16:33.630Z</time>
      </trkpt>
      <trkpt lat="43.52819" lon="5.60459">
        <ele>795</ele>
        <time>2022-10-19T10:16:34.630Z</time>
      </trkpt>
      <trkpt lat="43.52819" lon="5.60459">
        <ele>795</ele>
        <time>2022-10-19T10:16:35.630Z</time>
      </trkpt>
      <trkpt lat="43.52819" lon="5.60459">
        <ele>795</ele>
        <time>2022-10-19T10:16:36.630Z</time>
      </trkpt>
      <trkpt lat="43.52819" lon="5.60459">
        <ele>795</ele>
        <time>2022-10-19T10:16:37.630Z</time>
      </trkpt>
      <trkpt lat="43.52819" lon="5.60459">
        <ele>795</ele>
        <time>2022-10-19T10:16:38.630Z</time>
      </trkpt>
      <trkpt lat="43.52819" lon="5.60459">
        <ele>795</ele>
        <time>2022-10-19T10:16:39.630Z</time>
      </trkpt>
      <trkpt lat="43.52819" lon="5.60459">
        <ele>795</ele>
        <time>2022-10-19T10:16:40.630Z</time>
      </trkpt>
      <trkpt lat="43.52819" lon="5.60459">
        <ele>795</ele>
        <time>2022-10-19T10:16:41.630Z</time>
      </trkpt>
      <trkpt lat="43.52819" lon="5.60459">
        <ele>795</ele>
        <time>2022-10-19T10:16:42.630Z</time>
      </trkpt>
      <trkpt lat="43.52819" lon="5.60459">
        <ele>795</ele>
        <time>2022-10-19T10:16:43.630Z</time>
      </trkpt>
      <trkpt lat="43.52819" lon="5.60459">
        <ele>795</ele>
        <time>2022-10-19T10:16:44.630Z</time>
      </trkpt>
      <trkpt lat="43.52819" lon="5.60459">
        <ele>795</ele>
        <time>2022-10-19T10:16:45.630Z</time>
      </trkpt>
      <trkpt lat="43.52819" lon="5.60459">
        <ele>795</ele>
        <time>2022-10-19T10:16:46.630Z</time>
      </trkpt>
      <trkpt lat="43.52819" lon="5.60459">
        <ele>795</ele>
        <time>2022-10-19T10:16:47.630Z</time>
      </trkpt>
      <trkpt lat="43.52819" lon="5.60459">
        <ele>795</ele>
        <time>2022-10-19T10:16:48.630Z</time>
      </trkpt>
      <trkpt lat="43.52819" lon="5.60459">
        <ele>795</ele>
        <time>2022-10-19T10:16:49.630Z</time>
      </trkpt>
      <trkpt lat="43.52819" lon="5.60459">
        <ele>795</ele>
        <time>2022-10-19T10:16:50.630Z</time>
      </trkpt>
      <trkpt lat="43.52819" lon="5.60459">
        <ele>795</ele>
        <time>2022-10-19T10:16:51.630Z</time>
      </trkpt>
      <trkpt lat="43.52819" lon="5.60459">
        <ele>795</ele>
        <time>2022-10-19T10:16:52.630Z</time>
      </trkpt>
      <trkpt lat="43.52819" lon="5.60459">
        <ele>796</ele>
        <time>2022-10-19T10:16:53.630Z</time>
      </trkpt>
      <trkpt lat="43.52818" lon="5.60459">
        <ele>796</ele>
        <time>2022-10-19T10:16:54.630Z</time>
      </trkpt>
      <trkpt lat="43.52818" lon="5.60459">
        <ele>796</ele>
        <time>2022-10-19T10:16:55.630Z</time>
      </trkpt>
      <trkpt lat="43.52818" lon="5.60459">
        <ele>796</ele>
        <time>2022-10-19T10:16:56.630Z</time>
      </trkpt>
      <trkpt lat="43.52818" lon="5.60459">
        <ele>796</ele>
        <time>2022-10-19T10:16:57.630Z</time>
      </trkpt>
      <trkpt lat="43.52818" lon="5.60459">
        <ele>796</ele>
        <time>2022-10-19T10:16:58.630Z</time>
      </trkpt>
      <trkpt lat="43.52818" lon="5.60459">
        <ele>796</ele>
        <time>2022-10-19T10:16:59.630Z</time>
      </trkpt>
      <trkpt lat="43.52818" lon="5.60459">
        <ele>796</ele>
        <time>2022-10-19T10:17:00.630Z</time>
      </trkpt>
      <trkpt lat="43.52818" lon="5.60459">
        <ele>796</ele>
        <time>2022-10-19T10:17:01.630Z</time>
      </trkpt>
      <trkpt lat="43.52818" lon="5.60459">
        <ele>796</ele>
        <time>2022-10-19T10:17:02.630Z</time>
      </trkpt>
      <trkpt lat="43.52818" lon="5.60459">
        <ele>796</ele>
        <time>2022-10-19T10:17:03.630Z</time>
      </trkpt>
      <trkpt lat="43.52818" lon="5.60459">
        <ele>796</ele>
        <time>2022-10-19T10:17:04.630Z</time>
      </trkpt>
      <trkpt lat="43.52818" lon="5.60459">
        <ele>796</ele>
        <time>2022-10-19T10:17:05.630Z</time>
      </trkpt>
      <trkpt lat="43.52818" lon="5.60459">
        <ele>796</ele>
        <time>2022-10-19T10:17:06.630Z</time>
      </trkpt>
      <trkpt lat="43.52818" lon="5.60459">
        <ele>796</ele>
        <time>2022-10-19T10:17:07.630Z</time>
      </trkpt>
      <trkpt lat="43.52818" lon="5.60459">
        <ele>796</ele>
        <time>2022-10-19T10:17:08.630Z</time>
      </trkpt>
      <trkpt lat="43.52818" lon="5.60459">
        <ele>796</ele>
        <time>2022-10-19T10:17:09.630Z</time>
      </trkpt>
      <trkpt lat="43.52818" lon="5.60459">
        <ele>796</ele>
        <time>2022-10-19T10:17:10.630Z</time>
      </trkpt>
      <trkpt lat="43.52818" lon="5.60459">
        <ele>796</ele>
        <time>2022-10-19T10:17:11.630Z</time>
      </trkpt>
      <trkpt lat="43.52818" lon="5.60459">
        <ele>796</ele>
        <time>2022-10-19T10:17:12.630Z</time>
      </trkpt>
      <trkpt lat="43.52818" lon="5.60459">
        <ele>796</ele>
        <time>2022-10-19T10:17:13.630Z</time>
      </trkpt>
      <trkpt lat="43.52818" lon="5.60459">
        <ele>796</ele>
        <time>2022-10-19T10:17:14.630Z</time>
      </trkpt>
      <trkpt lat="43.52819" lon="5.60459">
        <ele>796</ele>
        <time>2022-10-19T10:17:15.630Z</time>
      </trkpt>
      <trkpt lat="43.52819" lon="5.60459">
        <ele>796</ele>
        <time>2022-10-19T10:17:16.630Z</time>
      </trkpt>
      <trkpt lat="43.52819" lon="5.6046">
        <ele>796</ele>
        <time>2022-10-19T10:17:17.630Z</time>
      </trkpt>
      <trkpt lat="43.52819" lon="5.6046">
        <ele>795</ele>
        <time>2022-10-19T10:17:18.630Z</time>
      </trkpt>
      <trkpt lat="43.52819" lon="5.60459">
        <ele>795</ele>
        <time>2022-10-19T10:17:19.630Z</time>
      </trkpt>
      <trkpt lat="43.52819" lon="5.60459">
        <ele>795</ele>
        <time>2022-10-19T10:17:20.630Z</time>
      </trkpt>
      <trkpt lat="43.52819" lon="5.60459">
        <ele>795</ele>
        <time>2022-10-19T10:17:21.630Z</time>
      </trkpt>
      <trkpt lat="43.52819" lon="5.60459">
        <ele>795</ele>
        <time>2022-10-19T10:17:22.630Z</time>
      </trkpt>
      <trkpt lat="43.52819" lon="5.60459">
        <ele>795</ele>
        <time>2022-10-19T10:17:23.630Z</time>
      </trkpt>
      <trkpt lat="43.52819" lon="5.60459">
        <ele>795</ele>
        <time>2022-10-19T10:17:24.630Z</time>
      </trkpt>
      <trkpt lat="43.52819" lon="5.60459">
        <ele>795</ele>
        <time>2022-10-19T10:17:25.630Z</time>
      </trkpt>
      <trkpt lat="43.52819" lon="5.60459">
        <ele>795</ele>
        <time>2022-10-19T10:17:26.630Z</time>
      </trkpt>
      <trkpt lat="43.52819" lon="5.6046">
        <ele>794</ele>
        <time>2022-10-19T10:17:27.630Z</time>
      </trkpt>
      <trkpt lat="43.52819" lon="5.6046">
        <ele>794</ele>
        <time>2022-10-19T10:17:28.630Z</time>
      </trkpt>
      <trkpt lat="43.52819" lon="5.6046">
        <ele>794</ele>
        <time>2022-10-19T10:17:29.630Z</time>
      </trkpt>
      <trkpt lat="43.52819" lon="5.6046">
        <ele>794</ele>
        <time>2022-10-19T10:17:30.630Z</time>
      </trkpt>
      <trkpt lat="43.52819" lon="5.6046">
        <ele>794</ele>
        <time>2022-10-19T10:17:31.630Z</time>
      </trkpt>
      <trkpt lat="43.52819" lon="5.6046">
        <ele>794</ele>
        <time>2022-10-19T10:17:32.630Z</time>
      </trkpt>
      <trkpt lat="43.5282" lon="5.6046">
        <ele>794</ele>
        <time>2022-10-19T10:17:33.630Z</time>
      </trkpt>
      <trkpt lat="43.52819" lon="5.6046">
        <ele>794</ele>
        <time>2022-10-19T10:17:34.630Z</time>
      </trkpt>
      <trkpt lat="43.52819" lon="5.6046">
        <ele>794</ele>
        <time>2022-10-19T10:17:35.630Z</time>
      </trkpt>
      <trkpt lat="43.52819" lon="5.6046">
        <ele>794</ele>
        <time>2022-10-19T10:17:36.630Z</time>
      </trkpt>
      <trkpt lat="43.52819" lon="5.6046">
        <ele>794</ele>
        <time>2022-10-19T10:17:37.630Z</time>
      </trkpt>
      <trkpt lat="43.52819" lon="5.6046">
        <ele>794</ele>
        <time>2022-10-19T10:17:38.630Z</time>
      </trkpt>
      <trkpt lat="43.52819" lon="5.6046">
        <ele>794</ele>
        <time>2022-10-19T10:17:39.630Z</time>
      </trkpt>
      <trkpt lat="43.52819" lon="5.6046">
        <ele>794</ele>
        <time>2022-10-19T10:17:40.630Z</time>
      </trkpt>
      <trkpt lat="43.52819" lon="5.6046">
        <ele>794</ele>
        <time>2022-10-19T10:17:41.630Z</time>
      </trkpt>
      <trkpt lat="43.52819" lon="5.6046">
        <ele>795</ele>
        <time>2022-10-19T10:17:42.630Z</time>
      </trkpt>
      <trkpt lat="43.52819" lon="5.60459">
        <ele>795</ele>
        <time>2022-10-19T10:17:43.630Z</time>
      </trkpt>
      <trkpt lat="43.52819" lon="5.6046">
        <ele>795</ele>
        <time>2022-10-19T10:17:44.630Z</time>
      </trkpt>
      <trkpt lat="43.5282" lon="5.60459">
        <ele>795</ele>
        <time>2022-10-19T10:17:45.630Z</time>
      </trkpt>
      <trkpt lat="43.5282" lon="5.60459">
        <ele>795</ele>
        <time>2022-10-19T10:17:46.630Z</time>
      </trkpt>
      <trkpt lat="43.52819" lon="5.6046">
        <ele>795</ele>
        <time>2022-10-19T10:17:47.630Z</time>
      </trkpt>
      <trkpt lat="43.52819" lon="5.6046">
        <ele>795</ele>
        <time>2022-10-19T10:17:48.630Z</time>
      </trkpt>
      <trkpt lat="43.52819" lon="5.6046">
        <ele>795</ele>
        <time>2022-10-19T10:17:49.630Z</time>
      </trkpt>
      <trkpt lat="43.52819" lon="5.60459">
        <ele>795</ele>
        <time>2022-10-19T10:17:50.630Z</time>
      </trkpt>
      <trkpt lat="43.52819" lon="5.60459">
        <ele>795</ele>
        <time>2022-10-19T10:17:51.630Z</time>
      </trkpt>
      <trkpt lat="43.52819" lon="5.60459">
        <ele>795</ele>
        <time>2022-10-19T10:17:52.630Z</time>
      </trkpt>
      <trkpt lat="43.52819" lon="5.60459">
        <ele>795</ele>
        <time>2022-10-19T10:17:53.630Z</time>
      </trkpt>
      <trkpt lat="43.52819" lon="5.60459">
        <ele>795</ele>
        <time>2022-10-19T10:17:54.630Z</time>
      </trkpt>
      <trkpt lat="43.52819" lon="5.60459">
        <ele>795</ele>
        <time>2022-10-19T10:17:55.630Z</time>
      </trkpt>
      <trkpt lat="43.52819" lon="5.60459">
        <ele>795</ele>
        <time>2022-10-19T10:17:56.630Z</time>
      </trkpt>
      <trkpt lat="43.52819" lon="5.60459">
        <ele>795</ele>
        <time>2022-10-19T10:17:57.630Z</time>
      </trkpt>
      <trkpt lat="43.52819" lon="5.60459">
        <ele>795</ele>
        <time>2022-10-19T10:17:58.630Z</time>
      </trkpt>
      <trkpt lat="43.52819" lon="5.60459">
        <ele>795</ele>
        <time>2022-10-19T10:17:59.630Z</time>
      </trkpt>
      <trkpt lat="43.52819" lon="5.6046">
        <ele>795</ele>
        <time>2022-10-19T10:18:00.630Z</time>
      </trkpt>
      <trkpt lat="43.52819" lon="5.6046">
        <ele>795</ele>
        <time>2022-10-19T10:18:01.630Z</time>
      </trkpt>
      <trkpt lat="43.52819" lon="5.6046">
        <ele>795</ele>
        <time>2022-10-19T10:18:02.630Z</time>
      </trkpt>
      <trkpt lat="43.52819" lon="5.6046">
        <ele>795</ele>
        <time>2022-10-19T10:18:03.630Z</time>
      </trkpt>
      <trkpt lat="43.52819" lon="5.60459">
        <ele>795</ele>
        <time>2022-10-19T10:18:04.630Z</time>
      </trkpt>
      <trkpt lat="43.52819" lon="5.60459">
        <ele>795</ele>
        <time>2022-10-19T10:18:05.630Z</time>
      </trkpt>
      <trkpt lat="43.52819" lon="5.60459">
        <ele>795</ele>
        <time>2022-10-19T10:18:06.630Z</time>
      </trkpt>
      <trkpt lat="43.52819" lon="5.60459">
        <ele>795</ele>
        <time>2022-10-19T10:18:07.630Z</time>
      </trkpt>
      <trkpt lat="43.52819" lon="5.60459">
        <ele>795</ele>
        <time>2022-10-19T10:18:08.630Z</time>
      </trkpt>
      <trkpt lat="43.52819" lon="5.60459">
        <ele>795</ele>
        <time>2022-10-19T10:18:09.630Z</time>
      </trkpt>
      <trkpt lat="43.52819" lon="5.60459">
        <ele>795</ele>
        <time>2022-10-19T10:18:10.630Z</time>
      </trkpt>
      <trkpt lat="43.52819" lon="5.60459">
        <ele>795</ele>
        <time>2022-10-19T10:18:11.630Z</time>
      </trkpt>
      <trkpt lat="43.52819" lon="5.60459">
        <ele>796</ele>
        <time>2022-10-19T10:18:12.630Z</time>
      </trkpt>
      <trkpt lat="43.52819" lon="5.60459">
        <ele>796</ele>
        <time>2022-10-19T10:18:13.630Z</time>
      </trkpt>
      <trkpt lat="43.52819" lon="5.6046">
        <ele>796</ele>
        <time>2022-10-19T10:18:14.630Z</time>
      </trkpt>
      <trkpt lat="43.52819" lon="5.6046">
        <ele>796</ele>
        <time>2022-10-19T10:18:15.630Z</time>
      </trkpt>
      <trkpt lat="43.52819" lon="5.60459">
        <ele>796</ele>
        <time>2022-10-19T10:18:16.630Z</time>
      </trkpt>
      <trkpt lat="43.52819" lon="5.60459">
        <ele>796</ele>
        <time>2022-10-19T10:18:17.630Z</time>
      </trkpt>
      <trkpt lat="43.52819" lon="5.60459">
        <ele>796</ele>
        <time>2022-10-19T10:18:18.630Z</time>
      </trkpt>
      <trkpt lat="43.52819" lon="5.60459">
        <ele>796</ele>
        <time>2022-10-19T10:18:19.630Z</time>
      </trkpt>
      <trkpt lat="43.52819" lon="5.60459">
        <ele>796</ele>
        <time>2022-10-19T10:18:20.630Z</time>
      </trkpt>
      <trkpt lat="43.52819" lon="5.60459">
        <ele>796</ele>
        <time>2022-10-19T10:18:21.630Z</time>
      </trkpt>
      <trkpt lat="43.52819" lon="5.60459">
        <ele>796</ele>
        <time>2022-10-19T10:18:22.630Z</time>
      </trkpt>
      <trkpt lat="43.52819" lon="5.60459">
        <ele>796</ele>
        <time>2022-10-19T10:18:23.630Z</time>
      </trkpt>
      <trkpt lat="43.52819" lon="5.6046">
        <ele>796</ele>
        <time>2022-10-19T10:18:24.630Z</time>
      </trkpt>
      <trkpt lat="43.52819" lon="5.60459">
        <ele>796</ele>
        <time>2022-10-19T10:18:25.630Z</time>
      </trkpt>
      <trkpt lat="43.52819" lon="5.60459">
        <ele>796</ele>
        <time>2022-10-19T10:18:26.630Z</time>
      </trkpt>
      <trkpt lat="43.52819" lon="5.60459">
        <ele>796</ele>
        <time>2022-10-19T10:18:27.630Z</time>
      </trkpt>
      <trkpt lat="43.52819" lon="5.60459">
        <ele>796</ele>
        <time>2022-10-19T10:18:28.630Z</time>
      </trkpt>
      <trkpt lat="43.52819" lon="5.60459">
        <ele>796</ele>
        <time>2022-10-19T10:18:29.630Z</time>
      </trkpt>
      <trkpt lat="43.52819" lon="5.60459">
        <ele>796</ele>
        <time>2022-10-19T10:18:30.630Z</time>
      </trkpt>
      <trkpt lat="43.52819" lon="5.60459">
        <ele>796</ele>
        <time>2022-10-19T10:18:31.630Z</time>
      </trkpt>
      <trkpt lat="43.52819" lon="5.60459">
        <ele>796</ele>
        <time>2022-10-19T10:18:32.630Z</time>
      </trkpt>
      <trkpt lat="43.52819" lon="5.60459">
        <ele>796</ele>
        <time>2022-10-19T10:18:33.630Z</time>
      </trkpt>
      <trkpt lat="43.52819" lon="5.60459">
        <ele>796</ele>
        <time>2022-10-19T10:18:34.630Z</time>
      </trkpt>
      <trkpt lat="43.52819" lon="5.60459">
        <ele>796</ele>
        <time>2022-10-19T10:18:35.630Z</time>
      </trkpt>
      <trkpt lat="43.52819" lon="5.60459">
        <ele>796</ele>
        <time>2022-10-19T10:18:36.630Z</time>
      </trkpt>
      <trkpt lat="43.52819" lon="5.60459">
        <ele>796</ele>
        <time>2022-10-19T10:18:37.630Z</time>
      </trkpt>
      <trkpt lat="43.52819" lon="5.60459">
        <ele>796</ele>
        <time>2022-10-19T10:18:38.630Z</time>
      </trkpt>
      <trkpt lat="43.52819" lon="5.60459">
        <ele>796</ele>
        <time>2022-10-19T10:18:39.630Z</time>
      </trkpt>
      <trkpt lat="43.52819" lon="5.60459">
        <ele>796</ele>
        <time>2022-10-19T10:18:40.630Z</time>
      </trkpt>
      <trkpt lat="43.52819" lon="5.60459">
        <ele>796</ele>
        <time>2022-10-19T10:18:41.630Z</time>
      </trkpt>
      <trkpt lat="43.52819" lon="5.60459">
        <ele>796</ele>
        <time>2022-10-19T10:18:42.630Z</time>
      </trkpt>
      <trkpt lat="43.52819" lon="5.60459">
        <ele>796</ele>
        <time>2022-10-19T10:18:43.630Z</time>
      </trkpt>
      <trkpt lat="43.52819" lon="5.60459">
        <ele>796</ele>
        <time>2022-10-19T10:18:44.630Z</time>
      </trkpt>
      <trkpt lat="43.52819" lon="5.60459">
        <ele>796</ele>
        <time>2022-10-19T10:18:45.630Z</time>
      </trkpt>
      <trkpt lat="43.52819" lon="5.60459">
        <ele>796</ele>
        <time>2022-10-19T10:18:46.630Z</time>
      </trkpt>
      <trkpt lat="43.52819" lon="5.60459">
        <ele>796</ele>
        <time>2022-10-19T10:18:47.630Z</time>
      </trkpt>
      <trkpt lat="43.52819" lon="5.60459">
        <ele>796</ele>
        <time>2022-10-19T10:18:48.630Z</time>
      </trkpt>
      <trkpt lat="43.52819" lon="5.60459">
        <ele>796</ele>
        <time>2022-10-19T10:18:49.630Z</time>
      </trkpt>
      <trkpt lat="43.52819" lon="5.6046">
        <ele>796</ele>
        <time>2022-10-19T10:18:50.630Z</time>
      </trkpt>
      <trkpt lat="43.52819" lon="5.60459">
        <ele>796</ele>
        <time>2022-10-19T10:18:51.630Z</time>
      </trkpt>
      <trkpt lat="43.52819" lon="5.60459">
        <ele>796</ele>
        <time>2022-10-19T10:18:52.630Z</time>
      </trkpt>
      <trkpt lat="43.52819" lon="5.60459">
        <ele>796</ele>
        <time>2022-10-19T10:18:53.630Z</time>
      </trkpt>
      <trkpt lat="43.52819" lon="5.60459">
        <ele>796</ele>
        <time>2022-10-19T10:18:54.630Z</time>
      </trkpt>
      <trkpt lat="43.52819" lon="5.60459">
        <ele>796</ele>
        <time>2022-10-19T10:18:55.630Z</time>
      </trkpt>
      <trkpt lat="43.5282" lon="5.60459">
        <ele>796</ele>
        <time>2022-10-19T10:18:56.630Z</time>
      </trkpt>
      <trkpt lat="43.5282" lon="5.60459">
        <ele>796</ele>
        <time>2022-10-19T10:18:57.630Z</time>
      </trkpt>
      <trkpt lat="43.5282" lon="5.60459">
        <ele>796</ele>
        <time>2022-10-19T10:18:58.630Z</time>
      </trkpt>
      <trkpt lat="43.52819" lon="5.60459">
        <ele>796</ele>
        <time>2022-10-19T10:18:59.630Z</time>
      </trkpt>
      <trkpt lat="43.52819" lon="5.60459">
        <ele>796</ele>
        <time>2022-10-19T10:19:00.630Z</time>
      </trkpt>
      <trkpt lat="43.52819" lon="5.60459">
        <ele>796</ele>
        <time>2022-10-19T10:19:01.630Z</time>
      </trkpt>
      <trkpt lat="43.52819" lon="5.60459">
        <ele>796</ele>
        <time>2022-10-19T10:19:02.630Z</time>
      </trkpt>
      <trkpt lat="43.52819" lon="5.60459">
        <ele>796</ele>
        <time>2022-10-19T10:19:03.630Z</time>
      </trkpt>
      <trkpt lat="43.52819" lon="5.60459">
        <ele>796</ele>
        <time>2022-10-19T10:19:04.630Z</time>
      </trkpt>
      <trkpt lat="43.52819" lon="5.60459">
        <ele>796</ele>
        <time>2022-10-19T10:19:05.630Z</time>
      </trkpt>
      <trkpt lat="43.52819" lon="5.60459">
        <ele>797</ele>
        <time>2022-10-19T10:19:06.630Z</time>
      </trkpt>
      <trkpt lat="43.52819" lon="5.60459">
        <ele>797</ele>
        <time>2022-10-19T10:19:07.630Z</time>
      </trkpt>
      <trkpt lat="43.52819" lon="5.60459">
        <ele>797</ele>
        <time>2022-10-19T10:19:08.630Z</time>
      </trkpt>
      <trkpt lat="43.52819" lon="5.60459">
        <ele>797</ele>
        <time>2022-10-19T10:19:09.630Z</time>
      </trkpt>
      <trkpt lat="43.52819" lon="5.60459">
        <ele>797</ele>
        <time>2022-10-19T10:19:10.630Z</time>
      </trkpt>
      <trkpt lat="43.52819" lon="5.60459">
        <ele>797</ele>
        <time>2022-10-19T10:19:11.630Z</time>
      </trkpt>
      <trkpt lat="43.52819" lon="5.60459">
        <ele>797</ele>
        <time>2022-10-19T10:19:12.630Z</time>
      </trkpt>
      <trkpt lat="43.52819" lon="5.60459">
        <ele>797</ele>
        <time>2022-10-19T10:19:13.630Z</time>
      </trkpt>
      <trkpt lat="43.52819" lon="5.60459">
        <ele>797</ele>
        <time>2022-10-19T10:19:14.630Z</time>
      </trkpt>
      <trkpt lat="43.52819" lon="5.60459">
        <ele>797</ele>
        <time>2022-10-19T10:19:15.630Z</time>
      </trkpt>
      <trkpt lat="43.52818" lon="5.60459">
        <ele>798</ele>
        <time>2022-10-19T10:19:16.630Z</time>
      </trkpt>
      <trkpt lat="43.52818" lon="5.60459">
        <ele>798</ele>
        <time>2022-10-19T10:19:17.630Z</time>
      </trkpt>
      <trkpt lat="43.52818" lon="5.60459">
        <ele>798</ele>
        <time>2022-10-19T10:19:18.630Z</time>
      </trkpt>
      <trkpt lat="43.52818" lon="5.60459">
        <ele>798</ele>
        <time>2022-10-19T10:19:19.630Z</time>
      </trkpt>
      <trkpt lat="43.52818" lon="5.60459">
        <ele>798</ele>
        <time>2022-10-19T10:19:20.630Z</time>
      </trkpt>
      <trkpt lat="43.52818" lon="5.60459">
        <ele>798</ele>
        <time>2022-10-19T10:19:21.630Z</time>
      </trkpt>
      <trkpt lat="43.52818" lon="5.60459">
        <ele>798</ele>
        <time>2022-10-19T10:19:22.630Z</time>
      </trkpt>
      <trkpt lat="43.52818" lon="5.60459">
        <ele>798</ele>
        <time>2022-10-19T10:19:23.630Z</time>
      </trkpt>
      <trkpt lat="43.52818" lon="5.60459">
        <ele>798</ele>
        <time>2022-10-19T10:19:24.630Z</time>
      </trkpt>
      <trkpt lat="43.52818" lon="5.60459">
        <ele>798</ele>
        <time>2022-10-19T10:19:25.630Z</time>
      </trkpt>
      <trkpt lat="43.52818" lon="5.60459">
        <ele>798</ele>
        <time>2022-10-19T10:19:26.630Z</time>
      </trkpt>
      <trkpt lat="43.52818" lon="5.60459">
        <ele>798</ele>
        <time>2022-10-19T10:19:27.630Z</time>
      </trkpt>
      <trkpt lat="43.52818" lon="5.60459">
        <ele>798</ele>
        <time>2022-10-19T10:19:28.630Z</time>
      </trkpt>
      <trkpt lat="43.52818" lon="5.60459">
        <ele>798</ele>
        <time>2022-10-19T10:19:29.630Z</time>
      </trkpt>
      <trkpt lat="43.52818" lon="5.60459">
        <ele>798</ele>
        <time>2022-10-19T10:19:30.630Z</time>
      </trkpt>
      <trkpt lat="43.52818" lon="5.60459">
        <ele>798</ele>
        <time>2022-10-19T10:19:31.630Z</time>
      </trkpt>
      <trkpt lat="43.52818" lon="5.6046">
        <ele>798</ele>
        <time>2022-10-19T10:19:32.630Z</time>
      </trkpt>
      <trkpt lat="43.52818" lon="5.6046">
        <ele>798</ele>
        <time>2022-10-19T10:19:33.630Z</time>
      </trkpt>
      <trkpt lat="43.52817" lon="5.6046">
        <ele>798</ele>
        <time>2022-10-19T10:19:34.630Z</time>
      </trkpt>
      <trkpt lat="43.52817" lon="5.6046">
        <ele>798</ele>
        <time>2022-10-19T10:19:35.630Z</time>
      </trkpt>
      <trkpt lat="43.52817" lon="5.6046">
        <ele>798</ele>
        <time>2022-10-19T10:19:36.630Z</time>
      </trkpt>
      <trkpt lat="43.52818" lon="5.60459">
        <ele>799</ele>
        <time>2022-10-19T10:19:37.630Z</time>
      </trkpt>
      <trkpt lat="43.52818" lon="5.60459">
        <ele>799</ele>
        <time>2022-10-19T10:19:38.630Z</time>
      </trkpt>
      <trkpt lat="43.52818" lon="5.60459">
        <ele>799</ele>
        <time>2022-10-19T10:19:39.630Z</time>
      </trkpt>
      <trkpt lat="43.52818" lon="5.60459">
        <ele>799</ele>
        <time>2022-10-19T10:19:40.630Z</time>
      </trkpt>
      <trkpt lat="43.52818" lon="5.60459">
        <ele>799</ele>
        <time>2022-10-19T10:19:41.630Z</time>
      </trkpt>
      <trkpt lat="43.52818" lon="5.60459">
        <ele>799</ele>
        <time>2022-10-19T10:19:42.630Z</time>
      </trkpt>
      <trkpt lat="43.52818" lon="5.60459">
        <ele>799</ele>
        <time>2022-10-19T10:19:43.630Z</time>
      </trkpt>
      <trkpt lat="43.52818" lon="5.60459">
        <ele>799</ele>
        <time>2022-10-19T10:19:44.630Z</time>
      </trkpt>
      <trkpt lat="43.52818" lon="5.60459">
        <ele>799</ele>
        <time>2022-10-19T10:19:45.630Z</time>
      </trkpt>
      <trkpt lat="43.52817" lon="5.60459">
        <ele>799</ele>
        <time>2022-10-19T10:19:46.630Z</time>
      </trkpt>
      <trkpt lat="43.52817" lon="5.60459">
        <ele>799</ele>
        <time>2022-10-19T10:19:47.630Z</time>
      </trkpt>
      <trkpt lat="43.52817" lon="5.60459">
        <ele>799</ele>
        <time>2022-10-19T10:19:48.630Z</time>
      </trkpt>
      <trkpt lat="43.52817" lon="5.60459">
        <ele>799</ele>
        <time>2022-10-19T10:19:49.630Z</time>
      </trkpt>
      <trkpt lat="43.52818" lon="5.60459">
        <ele>799</ele>
        <time>2022-10-19T10:19:50.630Z</time>
      </trkpt>
      <trkpt lat="43.52817" lon="5.60459">
        <ele>799</ele>
        <time>2022-10-19T10:19:51.630Z</time>
      </trkpt>
      <trkpt lat="43.52817" lon="5.60459">
        <ele>799</ele>
        <time>2022-10-19T10:19:52.630Z</time>
      </trkpt>
      <trkpt lat="43.52817" lon="5.60459">
        <ele>799</ele>
        <time>2022-10-19T10:19:53.630Z</time>
      </trkpt>
      <trkpt lat="43.52817" lon="5.60459">
        <ele>799</ele>
        <time>2022-10-19T10:19:54.630Z</time>
      </trkpt>
      <trkpt lat="43.52817" lon="5.60459">
        <ele>799</ele>
        <time>2022-10-19T10:19:55.630Z</time>
      </trkpt>
      <trkpt lat="43.52817" lon="5.60459">
        <ele>799</ele>
        <time>2022-10-19T10:19:56.630Z</time>
      </trkpt>
      <trkpt lat="43.52817" lon="5.60459">
        <ele>799</ele>
        <time>2022-10-19T10:19:57.630Z</time>
      </trkpt>
      <trkpt lat="43.52817" lon="5.60459">
        <ele>799</ele>
        <time>2022-10-19T10:19:58.630Z</time>
      </trkpt>
      <trkpt lat="43.52818" lon="5.60459">
        <ele>799</ele>
        <time>2022-10-19T10:19:59.630Z</time>
      </trkpt>
      <trkpt lat="43.52817" lon="5.60459">
        <ele>799</ele>
        <time>2022-10-19T10:20:00.630Z</time>
      </trkpt>
      <trkpt lat="43.52817" lon="5.60459">
        <ele>799</ele>
        <time>2022-10-19T10:20:01.630Z</time>
      </trkpt>
      <trkpt lat="43.52817" lon="5.60459">
        <ele>799</ele>
        <time>2022-10-19T10:20:02.630Z</time>
      </trkpt>
      <trkpt lat="43.52817" lon="5.60459">
        <ele>799</ele>
        <time>2022-10-19T10:20:03.630Z</time>
      </trkpt>
      <trkpt lat="43.52818" lon="5.60459">
        <ele>799</ele>
        <time>2022-10-19T10:20:04.630Z</time>
      </trkpt>
      <trkpt lat="43.52818" lon="5.60459">
        <ele>799</ele>
        <time>2022-10-19T10:20:05.630Z</time>
      </trkpt>
      <trkpt lat="43.52818" lon="5.60459">
        <ele>799</ele>
        <time>2022-10-19T10:20:06.630Z</time>
      </trkpt>
      <trkpt lat="43.52818" lon="5.60459">
        <ele>799</ele>
        <time>2022-10-19T10:20:07.630Z</time>
      </trkpt>
      <trkpt lat="43.52818" lon="5.60459">
        <ele>799</ele>
        <time>2022-10-19T10:20:08.630Z</time>
      </trkpt>
      <trkpt lat="43.52817" lon="5.60459">
        <ele>799</ele>
        <time>2022-10-19T10:20:09.630Z</time>
      </trkpt>
      <trkpt lat="43.52817" lon="5.60459">
        <ele>799</ele>
        <time>2022-10-19T10:20:10.630Z</time>
      </trkpt>
      <trkpt lat="43.52817" lon="5.60459">
        <ele>799</ele>
        <time>2022-10-19T10:20:11.630Z</time>
      </trkpt>
      <trkpt lat="43.52817" lon="5.60459">
        <ele>799</ele>
        <time>2022-10-19T10:20:12.630Z</time>
      </trkpt>
      <trkpt lat="43.52817" lon="5.60459">
        <ele>799</ele>
        <time>2022-10-19T10:20:13.630Z</time>
      </trkpt>
      <trkpt lat="43.52817" lon="5.60459">
        <ele>799</ele>
        <time>2022-10-19T10:20:14.630Z</time>
      </trkpt>
      <trkpt lat="43.52817" lon="5.60459">
        <ele>799</ele>
        <time>2022-10-19T10:20:15.630Z</time>
      </trkpt>
      <trkpt lat="43.52818" lon="5.60459">
        <ele>799</ele>
        <time>2022-10-19T10:20:16.630Z</time>
      </trkpt>
      <trkpt lat="43.52818" lon="5.60459">
        <ele>799</ele>
        <time>2022-10-19T10:20:17.630Z</time>
      </trkpt>
      <trkpt lat="43.52818" lon="5.60459">
        <ele>799</ele>
        <time>2022-10-19T10:20:18.630Z</time>
      </trkpt>
      <trkpt lat="43.52818" lon="5.60459">
        <ele>799</ele>
        <time>2022-10-19T10:20:19.630Z</time>
      </trkpt>
      <trkpt lat="43.52818" lon="5.60459">
        <ele>799</ele>
        <time>2022-10-19T10:20:20.630Z</time>
      </trkpt>
      <trkpt lat="43.52818" lon="5.60459">
        <ele>799</ele>
        <time>2022-10-19T10:20:21.630Z</time>
      </trkpt>
      <trkpt lat="43.52818" lon="5.60459">
        <ele>799</ele>
        <time>2022-10-19T10:20:22.630Z</time>
      </trkpt>
      <trkpt lat="43.52818" lon="5.60459">
        <ele>799</ele>
        <time>2022-10-19T10:20:23.630Z</time>
      </trkpt>
      <trkpt lat="43.52818" lon="5.60459">
        <ele>799</ele>
        <time>2022-10-19T10:20:24.630Z</time>
      </trkpt>
      <trkpt lat="43.52818" lon="5.60459">
        <ele>799</ele>
        <time>2022-10-19T10:20:25.630Z</time>
      </trkpt>
      <trkpt lat="43.52818" lon="5.60459">
        <ele>798</ele>
        <time>2022-10-19T10:20:26.630Z</time>
      </trkpt>
      <trkpt lat="43.52818" lon="5.60459">
        <ele>798</ele>
        <time>2022-10-19T10:20:27.630Z</time>
      </trkpt>
      <trkpt lat="43.52818" lon="5.60459">
        <ele>798</ele>
        <time>2022-10-19T10:20:28.630Z</time>
      </trkpt>
      <trkpt lat="43.52818" lon="5.60459">
        <ele>798</ele>
        <time>2022-10-19T10:20:29.630Z</time>
      </trkpt>
      <trkpt lat="43.52818" lon="5.60459">
        <ele>798</ele>
        <time>2022-10-19T10:20:30.630Z</time>
      </trkpt>
      <trkpt lat="43.52818" lon="5.60459">
        <ele>798</ele>
        <time>2022-10-19T10:20:31.630Z</time>
      </trkpt>
      <trkpt lat="43.52818" lon="5.60459">
        <ele>798</ele>
        <time>2022-10-19T10:20:32.630Z</time>
      </trkpt>
      <trkpt lat="43.52817" lon="5.60459">
        <ele>798</ele>
        <time>2022-10-19T10:20:33.630Z</time>
      </trkpt>
      <trkpt lat="43.52817" lon="5.60459">
        <ele>798</ele>
        <time>2022-10-19T10:20:34.630Z</time>
      </trkpt>
      <trkpt lat="43.52818" lon="5.60459">
        <ele>798</ele>
        <time>2022-10-19T10:20:35.630Z</time>
      </trkpt>
      <trkpt lat="43.52818" lon="5.60459">
        <ele>798</ele>
        <time>2022-10-19T10:20:36.630Z</time>
      </trkpt>
      <trkpt lat="43.52818" lon="5.60459">
        <ele>798</ele>
        <time>2022-10-19T10:20:37.630Z</time>
      </trkpt>
      <trkpt lat="43.52818" lon="5.60459">
        <ele>798</ele>
        <time>2022-10-19T10:20:38.630Z</time>
      </trkpt>
      <trkpt lat="43.52818" lon="5.60459">
        <ele>798</ele>
        <time>2022-10-19T10:20:39.630Z</time>
      </trkpt>
      <trkpt lat="43.52818" lon="5.60459">
        <ele>798</ele>
        <time>2022-10-19T10:20:40.630Z</time>
      </trkpt>
      <trkpt lat="43.52818" lon="5.60459">
        <ele>798</ele>
        <time>2022-10-19T10:20:41.630Z</time>
      </trkpt>
      <trkpt lat="43.52818" lon="5.60459">
        <ele>798</ele>
        <time>2022-10-19T10:20:42.630Z</time>
      </trkpt>
      <trkpt lat="43.52818" lon="5.60459">
        <ele>798</ele>
        <time>2022-10-19T10:20:43.630Z</time>
      </trkpt>
      <trkpt lat="43.52818" lon="5.60459">
        <ele>798</ele>
        <time>2022-10-19T10:20:44.630Z</time>
      </trkpt>
      <trkpt lat="43.52818" lon="5.60459">
        <ele>798</ele>
        <time>2022-10-19T10:20:45.630Z</time>
      </trkpt>
      <trkpt lat="43.52818" lon="5.60459">
        <ele>798</ele>
        <time>2022-10-19T10:20:46.630Z</time>
      </trkpt>
      <trkpt lat="43.52818" lon="5.60459">
        <ele>798</ele>
        <time>2022-10-19T10:20:47.630Z</time>
      </trkpt>
      <trkpt lat="43.52817" lon="5.60459">
        <ele>798</ele>
        <time>2022-10-19T10:20:48.630Z</time>
      </trkpt>
      <trkpt lat="43.52817" lon="5.60459">
        <ele>798</ele>
        <time>2022-10-19T10:20:49.630Z</time>
      </trkpt>
      <trkpt lat="43.52817" lon="5.60459">
        <ele>798</ele>
        <time>2022-10-19T10:20:50.630Z</time>
      </trkpt>
      <trkpt lat="43.52817" lon="5.60459">
        <ele>798</ele>
        <time>2022-10-19T10:20:51.630Z</time>
      </trkpt>
      <trkpt lat="43.52817" lon="5.60459">
        <ele>798</ele>
        <time>2022-10-19T10:20:52.630Z</time>
      </trkpt>
      <trkpt lat="43.52817" lon="5.60459">
        <ele>799</ele>
        <time>2022-10-19T10:20:53.630Z</time>
      </trkpt>
      <trkpt lat="43.52817" lon="5.60459">
        <ele>799</ele>
        <time>2022-10-19T10:20:54.630Z</time>
      </trkpt>
      <trkpt lat="43.52817" lon="5.60459">
        <ele>799</ele>
        <time>2022-10-19T10:20:55.630Z</time>
      </trkpt>
      <trkpt lat="43.52817" lon="5.60459">
        <ele>799</ele>
        <time>2022-10-19T10:20:56.630Z</time>
      </trkpt>
      <trkpt lat="43.52817" lon="5.60459">
        <ele>799</ele>
        <time>2022-10-19T10:20:57.630Z</time>
      </trkpt>
      <trkpt lat="43.52817" lon="5.60459">
        <ele>799</ele>
        <time>2022-10-19T10:20:58.630Z</time>
      </trkpt>
      <trkpt lat="43.52817" lon="5.60459">
        <ele>799</ele>
        <time>2022-10-19T10:20:59.630Z</time>
      </trkpt>
      <trkpt lat="43.52817" lon="5.60459">
        <ele>799</ele>
        <time>2022-10-19T10:21:00.630Z</time>
      </trkpt>
      <trkpt lat="43.52817" lon="5.60459">
        <ele>799</ele>
        <time>2022-10-19T10:21:01.630Z</time>
      </trkpt>
      <trkpt lat="43.52817" lon="5.60459">
        <ele>799</ele>
        <time>2022-10-19T10:21:02.630Z</time>
      </trkpt>
      <trkpt lat="43.52818" lon="5.60459">
        <ele>799</ele>
        <time>2022-10-19T10:21:03.630Z</time>
      </trkpt>
      <trkpt lat="43.52818" lon="5.60459">
        <ele>799</ele>
        <time>2022-10-19T10:21:04.630Z</time>
      </trkpt>
      <trkpt lat="43.52818" lon="5.60459">
        <ele>799</ele>
        <time>2022-10-19T10:21:05.630Z</time>
      </trkpt>
      <trkpt lat="43.52818" lon="5.60459">
        <ele>798</ele>
        <time>2022-10-19T10:21:06.630Z</time>
      </trkpt>
      <trkpt lat="43.52818" lon="5.60459">
        <ele>798</ele>
        <time>2022-10-19T10:21:07.630Z</time>
      </trkpt>
      <trkpt lat="43.52818" lon="5.60459">
        <ele>798</ele>
        <time>2022-10-19T10:21:08.630Z</time>
      </trkpt>
      <trkpt lat="43.52818" lon="5.60459">
        <ele>798</ele>
        <time>2022-10-19T10:21:09.630Z</time>
      </trkpt>
      <trkpt lat="43.52818" lon="5.60459">
        <ele>798</ele>
        <time>2022-10-19T10:21:10.630Z</time>
      </trkpt>
      <trkpt lat="43.52818" lon="5.60459">
        <ele>798</ele>
        <time>2022-10-19T10:21:11.630Z</time>
      </trkpt>
      <trkpt lat="43.52818" lon="5.60459">
        <ele>798</ele>
        <time>2022-10-19T10:21:12.630Z</time>
      </trkpt>
      <trkpt lat="43.52818" lon="5.60459">
        <ele>798</ele>
        <time>2022-10-19T10:21:13.630Z</time>
      </trkpt>
      <trkpt lat="43.52818" lon="5.60459">
        <ele>798</ele>
        <time>2022-10-19T10:21:14.630Z</time>
      </trkpt>
      <trkpt lat="43.52818" lon="5.60459">
        <ele>798</ele>
        <time>2022-10-19T10:21:15.630Z</time>
      </trkpt>
      <trkpt lat="43.52818" lon="5.60459">
        <ele>798</ele>
        <time>2022-10-19T10:21:16.630Z</time>
      </trkpt>
      <trkpt lat="43.52818" lon="5.60459">
        <ele>798</ele>
        <time>2022-10-19T10:21:17.630Z</time>
      </trkpt>
      <trkpt lat="43.52818" lon="5.60459">
        <ele>798</ele>
        <time>2022-10-19T10:21:18.630Z</time>
      </trkpt>
      <trkpt lat="43.52818" lon="5.60459">
        <ele>798</ele>
        <time>2022-10-19T10:21:19.630Z</time>
      </trkpt>
      <trkpt lat="43.52818" lon="5.60459">
        <ele>798</ele>
        <time>2022-10-19T10:21:20.630Z</time>
      </trkpt>
      <trkpt lat="43.52819" lon="5.60459">
        <ele>798</ele>
        <time>2022-10-19T10:21:21.630Z</time>
      </trkpt>
      <trkpt lat="43.52819" lon="5.60459">
        <ele>798</ele>
        <time>2022-10-19T10:21:22.630Z</time>
      </trkpt>
      <trkpt lat="43.52819" lon="5.60459">
        <ele>798</ele>
        <time>2022-10-19T10:21:23.630Z</time>
      </trkpt>
      <trkpt lat="43.52819" lon="5.60459">
        <ele>798</ele>
        <time>2022-10-19T10:21:24.630Z</time>
      </trkpt>
      <trkpt lat="43.52819" lon="5.60459">
        <ele>798</ele>
        <time>2022-10-19T10:21:25.630Z</time>
      </trkpt>
      <trkpt lat="43.52819" lon="5.60459">
        <ele>798</ele>
        <time>2022-10-19T10:21:26.630Z</time>
      </trkpt>
      <trkpt lat="43.52819" lon="5.60459">
        <ele>798</ele>
        <time>2022-10-19T10:21:27.630Z</time>
      </trkpt>
      <trkpt lat="43.52819" lon="5.60459">
        <ele>798</ele>
        <time>2022-10-19T10:21:28.630Z</time>
      </trkpt>
      <trkpt lat="43.52819" lon="5.60459">
        <ele>798</ele>
        <time>2022-10-19T10:21:29.630Z</time>
      </trkpt>
      <trkpt lat="43.52818" lon="5.60459">
        <ele>798</ele>
        <time>2022-10-19T10:21:30.630Z</time>
      </trkpt>
      <trkpt lat="43.52818" lon="5.60459">
        <ele>798</ele>
        <time>2022-10-19T10:21:31.630Z</time>
      </trkpt>
      <trkpt lat="43.52818" lon="5.60459">
        <ele>798</ele>
        <time>2022-10-19T10:21:32.630Z</time>
      </trkpt>
      <trkpt lat="43.52818" lon="5.60459">
        <ele>798</ele>
        <time>2022-10-19T10:21:33.630Z</time>
      </trkpt>
      <trkpt lat="43.52818" lon="5.60459">
        <ele>798</ele>
        <time>2022-10-19T10:21:34.630Z</time>
      </trkpt>
      <trkpt lat="43.52818" lon="5.60459">
        <ele>798</ele>
        <time>2022-10-19T10:21:35.630Z</time>
      </trkpt>
      <trkpt lat="43.52818" lon="5.60459">
        <ele>798</ele>
        <time>2022-10-19T10:21:36.630Z</time>
      </trkpt>
      <trkpt lat="43.52818" lon="5.60459">
        <ele>798</ele>
        <time>2022-10-19T10:21:37.630Z</time>
      </trkpt>
      <trkpt lat="43.52818" lon="5.60459">
        <ele>798</ele>
        <time>2022-10-19T10:21:38.630Z</time>
      </trkpt>
      <trkpt lat="43.52818" lon="5.60459">
        <ele>798</ele>
        <time>2022-10-19T10:21:39.630Z</time>
      </trkpt>
      <trkpt lat="43.52818" lon="5.60459">
        <ele>798</ele>
        <time>2022-10-19T10:21:40.630Z</time>
      </trkpt>
      <trkpt lat="43.52818" lon="5.60459">
        <ele>798</ele>
        <time>2022-10-19T10:21:41.630Z</time>
      </trkpt>
      <trkpt lat="43.52817" lon="5.6046">
        <ele>798</ele>
        <time>2022-10-19T10:21:42.630Z</time>
      </trkpt>
      <trkpt lat="43.52817" lon="5.6046">
        <ele>798</ele>
        <time>2022-10-19T10:21:43.630Z</time>
      </trkpt>
      <trkpt lat="43.52816" lon="5.6046">
        <ele>798</ele>
        <time>2022-10-19T10:21:44.630Z</time>
      </trkpt>
      <trkpt lat="43.52815" lon="5.6046">
        <ele>798</ele>
        <time>2022-10-19T10:21:45.630Z</time>
      </trkpt>
      <trkpt lat="43.52815" lon="5.60461">
        <ele>798</ele>
        <time>2022-10-19T10:21:46.630Z</time>
      </trkpt>
      <trkpt lat="43.52814" lon="5.60462">
        <ele>797</ele>
        <time>2022-10-19T10:21:47.630Z</time>
      </trkpt>
      <trkpt lat="43.52813" lon="5.60462">
        <ele>797</ele>
        <time>2022-10-19T10:21:48.630Z</time>
      </trkpt>
      <trkpt lat="43.52813" lon="5.60463">
        <ele>797</ele>
        <time>2022-10-19T10:21:49.630Z</time>
      </trkpt>
      <trkpt lat="43.52812" lon="5.60463">
        <ele>797</ele>
        <time>2022-10-19T10:21:50.630Z</time>
      </trkpt>
      <trkpt lat="43.52812" lon="5.60463">
        <ele>797</ele>
        <time>2022-10-19T10:21:51.630Z</time>
      </trkpt>
      <trkpt lat="43.52812" lon="5.60464">
        <ele>797</ele>
        <time>2022-10-19T10:21:52.630Z</time>
      </trkpt>
      <trkpt lat="43.52812" lon="5.60465">
        <ele>797</ele>
        <time>2022-10-19T10:21:53.630Z</time>
      </trkpt>
      <trkpt lat="43.52812" lon="5.60466">
        <ele>797</ele>
        <time>2022-10-19T10:21:54.630Z</time>
      </trkpt>
      <trkpt lat="43.52812" lon="5.60467">
        <ele>797</ele>
        <time>2022-10-19T10:21:55.630Z</time>
      </trkpt>
      <trkpt lat="43.52812" lon="5.60467">
        <ele>797</ele>
        <time>2022-10-19T10:21:56.630Z</time>
      </trkpt>
      <trkpt lat="43.52811" lon="5.60468">
        <ele>797</ele>
        <time>2022-10-19T10:21:57.630Z</time>
      </trkpt>
      <trkpt lat="43.52811" lon="5.60468">
        <ele>797</ele>
        <time>2022-10-19T10:21:58.630Z</time>
      </trkpt>
      <trkpt lat="43.52811" lon="5.60469">
        <ele>797</ele>
        <time>2022-10-19T10:21:59.630Z</time>
      </trkpt>
      <trkpt lat="43.52811" lon="5.6047">
        <ele>797</ele>
        <time>2022-10-19T10:22:00.630Z</time>
      </trkpt>
      <trkpt lat="43.52811" lon="5.6047">
        <ele>797</ele>
        <time>2022-10-19T10:22:01.630Z</time>
      </trkpt>
      <trkpt lat="43.52811" lon="5.6047">
        <ele>797</ele>
        <time>2022-10-19T10:22:02.630Z</time>
      </trkpt>
      <trkpt lat="43.5281" lon="5.6047">
        <ele>797</ele>
        <time>2022-10-19T10:22:03.630Z</time>
      </trkpt>
      <trkpt lat="43.5281" lon="5.6047">
        <ele>797</ele>
        <time>2022-10-19T10:22:04.630Z</time>
      </trkpt>
      <trkpt lat="43.5281" lon="5.6047">
        <ele>796</ele>
        <time>2022-10-19T10:22:05.630Z</time>
      </trkpt>
      <trkpt lat="43.52809" lon="5.60471">
        <ele>796</ele>
        <time>2022-10-19T10:22:06.630Z</time>
      </trkpt>
      <trkpt lat="43.52809" lon="5.60471">
        <ele>796</ele>
        <time>2022-10-19T10:22:07.630Z</time>
      </trkpt>
      <trkpt lat="43.52808" lon="5.60472">
        <ele>796</ele>
        <time>2022-10-19T10:22:08.630Z</time>
      </trkpt>
      <trkpt lat="43.52808" lon="5.60472">
        <ele>796</ele>
        <time>2022-10-19T10:22:09.630Z</time>
      </trkpt>
      <trkpt lat="43.52808" lon="5.60472">
        <ele>796</ele>
        <time>2022-10-19T10:22:10.630Z</time>
      </trkpt>
      <trkpt lat="43.52808" lon="5.60472">
        <ele>796</ele>
        <time>2022-10-19T10:22:11.630Z</time>
      </trkpt>
      <trkpt lat="43.52807" lon="5.60472">
        <ele>795</ele>
        <time>2022-10-19T10:22:12.630Z</time>
      </trkpt>
      <trkpt lat="43.52807" lon="5.60472">
        <ele>795</ele>
        <time>2022-10-19T10:22:13.630Z</time>
      </trkpt>
      <trkpt lat="43.52807" lon="5.60471">
        <ele>795</ele>
        <time>2022-10-19T10:22:14.630Z</time>
      </trkpt>
      <trkpt lat="43.52807" lon="5.60472">
        <ele>795</ele>
        <time>2022-10-19T10:22:15.630Z</time>
      </trkpt>
      <trkpt lat="43.52807" lon="5.60472">
        <ele>795</ele>
        <time>2022-10-19T10:22:16.630Z</time>
      </trkpt>
      <trkpt lat="43.52807" lon="5.60472">
        <ele>795</ele>
        <time>2022-10-19T10:22:17.630Z</time>
      </trkpt>
      <trkpt lat="43.52806" lon="5.60472">
        <ele>795</ele>
        <time>2022-10-19T10:22:18.630Z</time>
      </trkpt>
      <trkpt lat="43.52806" lon="5.60472">
        <ele>795</ele>
        <time>2022-10-19T10:22:19.630Z</time>
      </trkpt>
      <trkpt lat="43.52805" lon="5.60472">
        <ele>795</ele>
        <time>2022-10-19T10:22:20.630Z</time>
      </trkpt>
      <trkpt lat="43.52805" lon="5.60472">
        <ele>795</ele>
        <time>2022-10-19T10:22:21.630Z</time>
      </trkpt>
      <trkpt lat="43.52805" lon="5.60472">
        <ele>795</ele>
        <time>2022-10-19T10:22:22.630Z</time>
      </trkpt>
      <trkpt lat="43.52805" lon="5.60472">
        <ele>795</ele>
        <time>2022-10-19T10:22:23.630Z</time>
      </trkpt>
      <trkpt lat="43.52805" lon="5.60472">
        <ele>795</ele>
        <time>2022-10-19T10:22:24.630Z</time>
      </trkpt>
      <trkpt lat="43.52805" lon="5.60472">
        <ele>795</ele>
        <time>2022-10-19T10:22:25.630Z</time>
      </trkpt>
      <trkpt lat="43.52805" lon="5.60472">
        <ele>795</ele>
        <time>2022-10-19T10:22:26.630Z</time>
      </trkpt>
      <trkpt lat="43.52805" lon="5.60471">
        <ele>795</ele>
        <time>2022-10-19T10:22:27.630Z</time>
      </trkpt>
      <trkpt lat="43.52805" lon="5.60471">
        <ele>795</ele>
        <time>2022-10-19T10:22:28.630Z</time>
      </trkpt>
      <trkpt lat="43.52805" lon="5.60471">
        <ele>795</ele>
        <time>2022-10-19T10:22:29.630Z</time>
      </trkpt>
      <trkpt lat="43.52805" lon="5.60471">
        <ele>795</ele>
        <time>2022-10-19T10:22:30.630Z</time>
      </trkpt>
      <trkpt lat="43.52805" lon="5.60471">
        <ele>795</ele>
        <time>2022-10-19T10:22:31.630Z</time>
      </trkpt>
      <trkpt lat="43.52805" lon="5.60471">
        <ele>795</ele>
        <time>2022-10-19T10:22:32.630Z</time>
      </trkpt>
      <trkpt lat="43.52805" lon="5.60471">
        <ele>795</ele>
        <time>2022-10-19T10:22:33.630Z</time>
      </trkpt>
      <trkpt lat="43.52805" lon="5.60471">
        <ele>795</ele>
        <time>2022-10-19T10:22:34.630Z</time>
      </trkpt>
      <trkpt lat="43.52805" lon="5.60471">
        <ele>795</ele>
        <time>2022-10-19T10:22:35.630Z</time>
      </trkpt>
      <trkpt lat="43.52805" lon="5.60471">
        <ele>795</ele>
        <time>2022-10-19T10:22:36.630Z</time>
      </trkpt>
      <trkpt lat="43.52805" lon="5.60471">
        <ele>795</ele>
        <time>2022-10-19T10:22:37.630Z</time>
      </trkpt>
      <trkpt lat="43.52805" lon="5.60471">
        <ele>795</ele>
        <time>2022-10-19T10:22:38.630Z</time>
      </trkpt>
      <trkpt lat="43.52805" lon="5.60471">
        <ele>795</ele>
        <time>2022-10-19T10:22:39.630Z</time>
      </trkpt>
      <trkpt lat="43.52805" lon="5.60471">
        <ele>795</ele>
        <time>2022-10-19T10:22:40.630Z</time>
      </trkpt>
      <trkpt lat="43.52805" lon="5.60471">
        <ele>795</ele>
        <time>2022-10-19T10:22:41.630Z</time>
      </trkpt>
      <trkpt lat="43.52805" lon="5.6047">
        <ele>795</ele>
        <time>2022-10-19T10:22:42.630Z</time>
      </trkpt>
      <trkpt lat="43.52805" lon="5.6047">
        <ele>795</ele>
        <time>2022-10-19T10:22:43.630Z</time>
      </trkpt>
      <trkpt lat="43.52805" lon="5.6047">
        <ele>795</ele>
        <time>2022-10-19T10:22:44.630Z</time>
      </trkpt>
      <trkpt lat="43.52805" lon="5.6047">
        <ele>795</ele>
        <time>2022-10-19T10:22:45.630Z</time>
      </trkpt>
      <trkpt lat="43.52805" lon="5.6047">
        <ele>795</ele>
        <time>2022-10-19T10:22:46.630Z</time>
      </trkpt>
      <trkpt lat="43.52805" lon="5.6047">
        <ele>795</ele>
        <time>2022-10-19T10:22:47.630Z</time>
      </trkpt>
      <trkpt lat="43.52805" lon="5.6047">
        <ele>795</ele>
        <time>2022-10-19T10:22:48.630Z</time>
      </trkpt>
      <trkpt lat="43.52805" lon="5.6047">
        <ele>795</ele>
        <time>2022-10-19T10:22:49.630Z</time>
      </trkpt>
      <trkpt lat="43.52805" lon="5.6047">
        <ele>795</ele>
        <time>2022-10-19T10:22:50.630Z</time>
      </trkpt>
      <trkpt lat="43.52805" lon="5.6047">
        <ele>795</ele>
        <time>2022-10-19T10:22:51.630Z</time>
      </trkpt>
      <trkpt lat="43.52805" lon="5.6047">
        <ele>795</ele>
        <time>2022-10-19T10:22:52.630Z</time>
      </trkpt>
      <trkpt lat="43.52805" lon="5.6047">
        <ele>795</ele>
        <time>2022-10-19T10:22:53.630Z</time>
      </trkpt>
      <trkpt lat="43.52805" lon="5.60471">
        <ele>795</ele>
        <time>2022-10-19T10:22:54.630Z</time>
      </trkpt>
      <trkpt lat="43.52805" lon="5.60471">
        <ele>795</ele>
        <time>2022-10-19T10:22:55.630Z</time>
      </trkpt>
      <trkpt lat="43.52805" lon="5.60471">
        <ele>795</ele>
        <time>2022-10-19T10:22:56.630Z</time>
      </trkpt>
      <trkpt lat="43.52805" lon="5.6047">
        <ele>795</ele>
        <time>2022-10-19T10:22:57.630Z</time>
      </trkpt>
      <trkpt lat="43.52805" lon="5.6047">
        <ele>794</ele>
        <time>2022-10-19T10:22:58.630Z</time>
      </trkpt>
      <trkpt lat="43.52805" lon="5.6047">
        <ele>794</ele>
        <time>2022-10-19T10:22:59.630Z</time>
      </trkpt>
      <trkpt lat="43.52805" lon="5.6047">
        <ele>794</ele>
        <time>2022-10-19T10:23:00.630Z</time>
      </trkpt>
      <trkpt lat="43.52805" lon="5.6047">
        <ele>794</ele>
        <time>2022-10-19T10:23:01.630Z</time>
      </trkpt>
      <trkpt lat="43.52805" lon="5.6047">
        <ele>794</ele>
        <time>2022-10-19T10:23:02.630Z</time>
      </trkpt>
      <trkpt lat="43.52805" lon="5.6047">
        <ele>794</ele>
        <time>2022-10-19T10:23:03.630Z</time>
      </trkpt>
      <trkpt lat="43.52805" lon="5.6047">
        <ele>794</ele>
        <time>2022-10-19T10:23:04.630Z</time>
      </trkpt>
      <trkpt lat="43.52804" lon="5.60469">
        <ele>794</ele>
        <time>2022-10-19T10:23:05.630Z</time>
      </trkpt>
      <trkpt lat="43.52805" lon="5.6047">
        <ele>794</ele>
        <time>2022-10-19T10:23:06.630Z</time>
      </trkpt>
      <trkpt lat="43.52805" lon="5.6047">
        <ele>794</ele>
        <time>2022-10-19T10:23:07.630Z</time>
      </trkpt>
      <trkpt lat="43.52805" lon="5.6047">
        <ele>794</ele>
        <time>2022-10-19T10:23:08.630Z</time>
      </trkpt>
      <trkpt lat="43.52805" lon="5.6047">
        <ele>794</ele>
        <time>2022-10-19T10:23:09.630Z</time>
      </trkpt>
      <trkpt lat="43.52805" lon="5.6047">
        <ele>794</ele>
        <time>2022-10-19T10:23:10.630Z</time>
      </trkpt>
      <trkpt lat="43.52805" lon="5.6047">
        <ele>794</ele>
        <time>2022-10-19T10:23:11.630Z</time>
      </trkpt>
      <trkpt lat="43.52805" lon="5.60469">
        <ele>794</ele>
        <time>2022-10-19T10:23:12.630Z</time>
      </trkpt>
      <trkpt lat="43.52805" lon="5.60469">
        <ele>794</ele>
        <time>2022-10-19T10:23:13.630Z</time>
      </trkpt>
      <trkpt lat="43.52805" lon="5.60469">
        <ele>794</ele>
        <time>2022-10-19T10:23:14.630Z</time>
      </trkpt>
      <trkpt lat="43.52804" lon="5.60469">
        <ele>794</ele>
        <time>2022-10-19T10:23:15.630Z</time>
      </trkpt>
      <trkpt lat="43.52804" lon="5.60469">
        <ele>794</ele>
        <time>2022-10-19T10:23:16.630Z</time>
      </trkpt>
      <trkpt lat="43.52804" lon="5.60469">
        <ele>793</ele>
        <time>2022-10-19T10:23:17.630Z</time>
      </trkpt>
      <trkpt lat="43.52804" lon="5.60469">
        <ele>793</ele>
        <time>2022-10-19T10:23:18.630Z</time>
      </trkpt>
      <trkpt lat="43.52804" lon="5.60469">
        <ele>793</ele>
        <time>2022-10-19T10:23:19.630Z</time>
      </trkpt>
      <trkpt lat="43.52804" lon="5.60469">
        <ele>793</ele>
        <time>2022-10-19T10:23:20.630Z</time>
      </trkpt>
      <trkpt lat="43.52804" lon="5.60469">
        <ele>793</ele>
        <time>2022-10-19T10:23:21.630Z</time>
      </trkpt>
      <trkpt lat="43.52804" lon="5.60469">
        <ele>793</ele>
        <time>2022-10-19T10:23:22.630Z</time>
      </trkpt>
      <trkpt lat="43.52804" lon="5.60468">
        <ele>793</ele>
        <time>2022-10-19T10:23:23.630Z</time>
      </trkpt>
      <trkpt lat="43.52804" lon="5.60468">
        <ele>793</ele>
        <time>2022-10-19T10:23:24.630Z</time>
      </trkpt>
      <trkpt lat="43.52804" lon="5.60468">
        <ele>793</ele>
        <time>2022-10-19T10:23:25.630Z</time>
      </trkpt>
      <trkpt lat="43.52804" lon="5.60468">
        <ele>793</ele>
        <time>2022-10-19T10:23:26.630Z</time>
      </trkpt>
      <trkpt lat="43.52804" lon="5.60468">
        <ele>793</ele>
        <time>2022-10-19T10:23:27.630Z</time>
      </trkpt>
      <trkpt lat="43.52804" lon="5.60468">
        <ele>793</ele>
        <time>2022-10-19T10:23:28.630Z</time>
      </trkpt>
      <trkpt lat="43.52804" lon="5.60468">
        <ele>793</ele>
        <time>2022-10-19T10:23:29.630Z</time>
      </trkpt>
      <trkpt lat="43.52804" lon="5.60468">
        <ele>793</ele>
        <time>2022-10-19T10:23:30.630Z</time>
      </trkpt>
      <trkpt lat="43.52804" lon="5.60468">
        <ele>793</ele>
        <time>2022-10-19T10:23:31.630Z</time>
      </trkpt>
      <trkpt lat="43.52804" lon="5.60468">
        <ele>793</ele>
        <time>2022-10-19T10:23:32.630Z</time>
      </trkpt>
      <trkpt lat="43.52804" lon="5.60468">
        <ele>793</ele>
        <time>2022-10-19T10:23:33.630Z</time>
      </trkpt>
      <trkpt lat="43.52804" lon="5.60468">
        <ele>793</ele>
        <time>2022-10-19T10:23:34.630Z</time>
      </trkpt>
      <trkpt lat="43.52803" lon="5.60468">
        <ele>793</ele>
        <time>2022-10-19T10:23:35.630Z</time>
      </trkpt>
      <trkpt lat="43.52803" lon="5.60468">
        <ele>793</ele>
        <time>2022-10-19T10:23:36.630Z</time>
      </trkpt>
      <trkpt lat="43.52803" lon="5.60468">
        <ele>793</ele>
        <time>2022-10-19T10:23:37.630Z</time>
      </trkpt>
      <trkpt lat="43.52803" lon="5.60468">
        <ele>793</ele>
        <time>2022-10-19T10:23:38.630Z</time>
      </trkpt>
      <trkpt lat="43.52803" lon="5.60468">
        <ele>793</ele>
        <time>2022-10-19T10:23:39.630Z</time>
      </trkpt>
      <trkpt lat="43.52803" lon="5.60468">
        <ele>793</ele>
        <time>2022-10-19T10:23:40.630Z</time>
      </trkpt>
      <trkpt lat="43.52803" lon="5.60468">
        <ele>793</ele>
        <time>2022-10-19T10:23:41.630Z</time>
      </trkpt>
      <trkpt lat="43.52803" lon="5.60468">
        <ele>793</ele>
        <time>2022-10-19T10:23:42.630Z</time>
      </trkpt>
      <trkpt lat="43.52803" lon="5.60468">
        <ele>792</ele>
        <time>2022-10-19T10:23:43.630Z</time>
      </trkpt>
      <trkpt lat="43.52803" lon="5.60468">
        <ele>792</ele>
        <time>2022-10-19T10:23:44.630Z</time>
      </trkpt>
      <trkpt lat="43.52803" lon="5.60468">
        <ele>792</ele>
        <time>2022-10-19T10:23:45.630Z</time>
      </trkpt>
      <trkpt lat="43.52803" lon="5.60468">
        <ele>792</ele>
        <time>2022-10-19T10:23:46.630Z</time>
      </trkpt>
      <trkpt lat="43.52803" lon="5.60468">
        <ele>792</ele>
        <time>2022-10-19T10:23:47.630Z</time>
      </trkpt>
      <trkpt lat="43.52803" lon="5.60468">
        <ele>792</ele>
        <time>2022-10-19T10:23:48.630Z</time>
      </trkpt>
      <trkpt lat="43.52802" lon="5.60468">
        <ele>792</ele>
        <time>2022-10-19T10:23:49.630Z</time>
      </trkpt>
      <trkpt lat="43.52802" lon="5.60468">
        <ele>792</ele>
        <time>2022-10-19T10:23:50.630Z</time>
      </trkpt>
      <trkpt lat="43.52802" lon="5.60467">
        <ele>792</ele>
        <time>2022-10-19T10:23:51.630Z</time>
      </trkpt>
      <trkpt lat="43.52802" lon="5.60466">
        <ele>792</ele>
        <time>2022-10-19T10:23:52.630Z</time>
      </trkpt>
      <trkpt lat="43.52802" lon="5.60465">
        <ele>792</ele>
        <time>2022-10-19T10:23:53.630Z</time>
      </trkpt>
      <trkpt lat="43.52802" lon="5.60465">
        <ele>792</ele>
        <time>2022-10-19T10:23:54.630Z</time>
      </trkpt>
      <trkpt lat="43.52802" lon="5.60465">
        <ele>792</ele>
        <time>2022-10-19T10:23:55.630Z</time>
      </trkpt>
      <trkpt lat="43.52802" lon="5.60465">
        <ele>792</ele>
        <time>2022-10-19T10:23:56.630Z</time>
      </trkpt>
      <trkpt lat="43.52802" lon="5.60465">
        <ele>792</ele>
        <time>2022-10-19T10:23:57.630Z</time>
      </trkpt>
      <trkpt lat="43.52802" lon="5.60465">
        <ele>792</ele>
        <time>2022-10-19T10:23:58.630Z</time>
      </trkpt>
      <trkpt lat="43.52802" lon="5.60465">
        <ele>792</ele>
        <time>2022-10-19T10:23:59.630Z</time>
      </trkpt>
      <trkpt lat="43.52802" lon="5.60465">
        <ele>792</ele>
        <time>2022-10-19T10:24:00.630Z</time>
      </trkpt>
      <trkpt lat="43.52802" lon="5.60464">
        <ele>792</ele>
        <time>2022-10-19T10:24:01.630Z</time>
      </trkpt>
      <trkpt lat="43.52801" lon="5.60463">
        <ele>792</ele>
        <time>2022-10-19T10:24:02.630Z</time>
      </trkpt>
      <trkpt lat="43.52801" lon="5.60463">
        <ele>792</ele>
        <time>2022-10-19T10:24:03.630Z</time>
      </trkpt>
      <trkpt lat="43.52801" lon="5.60462">
        <ele>792</ele>
        <time>2022-10-19T10:24:04.630Z</time>
      </trkpt>
      <trkpt lat="43.52801" lon="5.60462">
        <ele>791</ele>
        <time>2022-10-19T10:24:05.630Z</time>
      </trkpt>
      <trkpt lat="43.52801" lon="5.60461">
        <ele>791</ele>
        <time>2022-10-19T10:24:06.630Z</time>
      </trkpt>
      <trkpt lat="43.52801" lon="5.60461">
        <ele>791</ele>
        <time>2022-10-19T10:24:07.630Z</time>
      </trkpt>
      <trkpt lat="43.52801" lon="5.6046">
        <ele>791</ele>
        <time>2022-10-19T10:24:08.630Z</time>
      </trkpt>
      <trkpt lat="43.52801" lon="5.6046">
        <ele>791</ele>
        <time>2022-10-19T10:24:09.630Z</time>
      </trkpt>
      <trkpt lat="43.528" lon="5.60461">
        <ele>791</ele>
        <time>2022-10-19T10:24:10.630Z</time>
      </trkpt>
      <trkpt lat="43.52799" lon="5.60461">
        <ele>790</ele>
        <time>2022-10-19T10:24:11.630Z</time>
      </trkpt>
      <trkpt lat="43.52799" lon="5.60461">
        <ele>790</ele>
        <time>2022-10-19T10:24:12.630Z</time>
      </trkpt>
      <trkpt lat="43.52798" lon="5.60461">
        <ele>790</ele>
        <time>2022-10-19T10:24:13.630Z</time>
      </trkpt>
      <trkpt lat="43.52798" lon="5.60461">
        <ele>790</ele>
        <time>2022-10-19T10:24:14.630Z</time>
      </trkpt>
      <trkpt lat="43.52797" lon="5.60462">
        <ele>790</ele>
        <time>2022-10-19T10:24:15.630Z</time>
      </trkpt>
      <trkpt lat="43.52796" lon="5.60463">
        <ele>790</ele>
        <time>2022-10-19T10:24:16.630Z</time>
      </trkpt>
      <trkpt lat="43.52795" lon="5.60463">
        <ele>790</ele>
        <time>2022-10-19T10:24:17.630Z</time>
      </trkpt>
      <trkpt lat="43.52795" lon="5.60464">
        <ele>790</ele>
        <time>2022-10-19T10:24:18.630Z</time>
      </trkpt>
      <trkpt lat="43.52794" lon="5.60465">
        <ele>790</ele>
        <time>2022-10-19T10:24:19.630Z</time>
      </trkpt>
      <trkpt lat="43.52793" lon="5.60465">
        <ele>790</ele>
        <time>2022-10-19T10:24:20.630Z</time>
      </trkpt>
      <trkpt lat="43.52792" lon="5.60466">
        <ele>789</ele>
        <time>2022-10-19T10:24:21.630Z</time>
      </trkpt>
      <trkpt lat="43.52791" lon="5.60466">
        <ele>789</ele>
        <time>2022-10-19T10:24:22.630Z</time>
      </trkpt>
      <trkpt lat="43.52791" lon="5.60467">
        <ele>789</ele>
        <time>2022-10-19T10:24:23.630Z</time>
      </trkpt>
      <trkpt lat="43.5279" lon="5.60468">
        <ele>789</ele>
        <time>2022-10-19T10:24:24.630Z</time>
      </trkpt>
      <trkpt lat="43.52789" lon="5.60469">
        <ele>789</ele>
        <time>2022-10-19T10:24:25.630Z</time>
      </trkpt>
      <trkpt lat="43.52789" lon="5.60469">
        <ele>789</ele>
        <time>2022-10-19T10:24:26.630Z</time>
      </trkpt>
      <trkpt lat="43.52788" lon="5.60469">
        <ele>789</ele>
        <time>2022-10-19T10:24:27.630Z</time>
      </trkpt>
      <trkpt lat="43.52787" lon="5.60469">
        <ele>789</ele>
        <time>2022-10-19T10:24:28.630Z</time>
      </trkpt>
      <trkpt lat="43.52787" lon="5.60469">
        <ele>789</ele>
        <time>2022-10-19T10:24:29.630Z</time>
      </trkpt>
      <trkpt lat="43.52786" lon="5.60469">
        <ele>788</ele>
        <time>2022-10-19T10:24:30.630Z</time>
      </trkpt>
      <trkpt lat="43.52785" lon="5.60469">
        <ele>788</ele>
        <time>2022-10-19T10:24:31.630Z</time>
      </trkpt>
      <trkpt lat="43.52785" lon="5.60468">
        <ele>788</ele>
        <time>2022-10-19T10:24:32.630Z</time>
      </trkpt>
      <trkpt lat="43.52784" lon="5.60467">
        <ele>788</ele>
        <time>2022-10-19T10:24:33.630Z</time>
      </trkpt>
      <trkpt lat="43.52784" lon="5.60467">
        <ele>787</ele>
        <time>2022-10-19T10:24:34.630Z</time>
      </trkpt>
      <trkpt lat="43.52783" lon="5.60467">
        <ele>787</ele>
        <time>2022-10-19T10:24:35.630Z</time>
      </trkpt>
      <trkpt lat="43.52782" lon="5.60467">
        <ele>787</ele>
        <time>2022-10-19T10:24:36.630Z</time>
      </trkpt>
      <trkpt lat="43.52781" lon="5.60467">
        <ele>787</ele>
        <time>2022-10-19T10:24:37.630Z</time>
      </trkpt>
      <trkpt lat="43.5278" lon="5.60466">
        <ele>786</ele>
        <time>2022-10-19T10:24:38.630Z</time>
      </trkpt>
      <trkpt lat="43.5278" lon="5.60465">
        <ele>786</ele>
        <time>2022-10-19T10:24:39.630Z</time>
      </trkpt>
      <trkpt lat="43.52779" lon="5.60464">
        <ele>786</ele>
        <time>2022-10-19T10:24:40.630Z</time>
      </trkpt>
      <trkpt lat="43.52779" lon="5.60463">
        <ele>786</ele>
        <time>2022-10-19T10:24:41.630Z</time>
      </trkpt>
      <trkpt lat="43.52778" lon="5.60463">
        <ele>785</ele>
        <time>2022-10-19T10:24:42.630Z</time>
      </trkpt>
      <trkpt lat="43.52778" lon="5.60462">
        <ele>785</ele>
        <time>2022-10-19T10:24:43.630Z</time>
      </trkpt>
      <trkpt lat="43.52777" lon="5.60461">
        <ele>785</ele>
        <time>2022-10-19T10:24:44.630Z</time>
      </trkpt>
      <trkpt lat="43.52776" lon="5.60461">
        <ele>784</ele>
        <time>2022-10-19T10:24:45.630Z</time>
      </trkpt>
      <trkpt lat="43.52776" lon="5.6046">
        <ele>784</ele>
        <time>2022-10-19T10:24:46.630Z</time>
      </trkpt>
      <trkpt lat="43.52775" lon="5.6046">
        <ele>784</ele>
        <time>2022-10-19T10:24:47.630Z</time>
      </trkpt>
      <trkpt lat="43.52774" lon="5.60459">
        <ele>783</ele>
        <time>2022-10-19T10:24:48.630Z</time>
      </trkpt>
      <trkpt lat="43.52774" lon="5.60459">
        <ele>783</ele>
        <time>2022-10-19T10:24:49.630Z</time>
      </trkpt>
      <trkpt lat="43.52773" lon="5.60458">
        <ele>782</ele>
        <time>2022-10-19T10:24:50.630Z</time>
      </trkpt>
      <trkpt lat="43.52772" lon="5.60458">
        <ele>782</ele>
        <time>2022-10-19T10:24:51.630Z</time>
      </trkpt>
      <trkpt lat="43.52771" lon="5.60458">
        <ele>782</ele>
        <time>2022-10-19T10:24:52.630Z</time>
      </trkpt>
      <trkpt lat="43.5277" lon="5.60459">
        <ele>781</ele>
        <time>2022-10-19T10:24:53.630Z</time>
      </trkpt>
      <trkpt lat="43.5277" lon="5.60458">
        <ele>781</ele>
        <time>2022-10-19T10:24:54.630Z</time>
      </trkpt>
      <trkpt lat="43.52769" lon="5.60458">
        <ele>781</ele>
        <time>2022-10-19T10:24:55.630Z</time>
      </trkpt>
      <trkpt lat="43.52768" lon="5.60457">
        <ele>780</ele>
        <time>2022-10-19T10:24:56.630Z</time>
      </trkpt>
      <trkpt lat="43.52769" lon="5.60457">
        <ele>780</ele>
        <time>2022-10-19T10:24:57.630Z</time>
      </trkpt>
      <trkpt lat="43.52769" lon="5.60457">
        <ele>780</ele>
        <time>2022-10-19T10:24:58.630Z</time>
      </trkpt>
      <trkpt lat="43.52769" lon="5.60457">
        <ele>780</ele>
        <time>2022-10-19T10:24:59.630Z</time>
      </trkpt>
      <trkpt lat="43.52769" lon="5.60456">
        <ele>780</ele>
        <time>2022-10-19T10:25:00.630Z</time>
      </trkpt>
      <trkpt lat="43.52769" lon="5.60456">
        <ele>780</ele>
        <time>2022-10-19T10:25:01.630Z</time>
      </trkpt>
      <trkpt lat="43.52769" lon="5.60456">
        <ele>779</ele>
        <time>2022-10-19T10:25:02.630Z</time>
      </trkpt>
      <trkpt lat="43.52769" lon="5.60456">
        <ele>779</ele>
        <time>2022-10-19T10:25:03.630Z</time>
      </trkpt>
      <trkpt lat="43.52768" lon="5.60456">
        <ele>779</ele>
        <time>2022-10-19T10:25:04.630Z</time>
      </trkpt>
      <trkpt lat="43.52768" lon="5.60455">
        <ele>779</ele>
        <time>2022-10-19T10:25:05.630Z</time>
      </trkpt>
      <trkpt lat="43.52767" lon="5.60455">
        <ele>779</ele>
        <time>2022-10-19T10:25:06.630Z</time>
      </trkpt>
      <trkpt lat="43.52767" lon="5.60454">
        <ele>778</ele>
        <time>2022-10-19T10:25:07.630Z</time>
      </trkpt>
      <trkpt lat="43.52767" lon="5.60453">
        <ele>778</ele>
        <time>2022-10-19T10:25:08.630Z</time>
      </trkpt>
      <trkpt lat="43.52766" lon="5.60452">
        <ele>778</ele>
        <time>2022-10-19T10:25:09.630Z</time>
      </trkpt>
      <trkpt lat="43.52766" lon="5.60451">
        <ele>777</ele>
        <time>2022-10-19T10:25:10.630Z</time>
      </trkpt>
      <trkpt lat="43.52766" lon="5.6045">
        <ele>777</ele>
        <time>2022-10-19T10:25:11.630Z</time>
      </trkpt>
      <trkpt lat="43.52766" lon="5.60449">
        <ele>777</ele>
        <time>2022-10-19T10:25:12.630Z</time>
      </trkpt>
      <trkpt lat="43.52766" lon="5.60448">
        <ele>777</ele>
        <time>2022-10-19T10:25:13.630Z</time>
      </trkpt>
      <trkpt lat="43.52766" lon="5.60448">
        <ele>777</ele>
        <time>2022-10-19T10:25:14.630Z</time>
      </trkpt>
      <trkpt lat="43.52766" lon="5.60448">
        <ele>777</ele>
        <time>2022-10-19T10:25:15.630Z</time>
      </trkpt>
      <trkpt lat="43.52766" lon="5.60448">
        <ele>776</ele>
        <time>2022-10-19T10:25:16.630Z</time>
      </trkpt>
      <trkpt lat="43.52766" lon="5.60448">
        <ele>776</ele>
        <time>2022-10-19T10:25:17.630Z</time>
      </trkpt>
      <trkpt lat="43.52766" lon="5.60448">
        <ele>776</ele>
        <time>2022-10-19T10:25:18.630Z</time>
      </trkpt>
      <trkpt lat="43.52766" lon="5.60448">
        <ele>776</ele>
        <time>2022-10-19T10:25:19.630Z</time>
      </trkpt>
      <trkpt lat="43.52766" lon="5.60448">
        <ele>776</ele>
        <time>2022-10-19T10:25:20.630Z</time>
      </trkpt>
      <trkpt lat="43.52766" lon="5.60448">
        <ele>776</ele>
        <time>2022-10-19T10:25:21.630Z</time>
      </trkpt>
      <trkpt lat="43.52766" lon="5.60448">
        <ele>776</ele>
        <time>2022-10-19T10:25:22.630Z</time>
      </trkpt>
      <trkpt lat="43.52766" lon="5.60448">
        <ele>776</ele>
        <time>2022-10-19T10:25:23.630Z</time>
      </trkpt>
      <trkpt lat="43.52766" lon="5.60448">
        <ele>776</ele>
        <time>2022-10-19T10:25:24.630Z</time>
      </trkpt>
      <trkpt lat="43.52766" lon="5.60448">
        <ele>776</ele>
        <time>2022-10-19T10:25:25.630Z</time>
      </trkpt>
      <trkpt lat="43.52765" lon="5.60448">
        <ele>776</ele>
        <time>2022-10-19T10:25:26.630Z</time>
      </trkpt>
      <trkpt lat="43.52765" lon="5.60447">
        <ele>776</ele>
        <time>2022-10-19T10:25:27.630Z</time>
      </trkpt>
      <trkpt lat="43.52764" lon="5.60445">
        <ele>776</ele>
        <time>2022-10-19T10:25:28.630Z</time>
      </trkpt>
      <trkpt lat="43.52764" lon="5.60445">
        <ele>775</ele>
        <time>2022-10-19T10:25:29.630Z</time>
      </trkpt>
      <trkpt lat="43.52764" lon="5.60443">
        <ele>775</ele>
        <time>2022-10-19T10:25:30.630Z</time>
      </trkpt>
      <trkpt lat="43.52764" lon="5.60442">
        <ele>775</ele>
        <time>2022-10-19T10:25:31.630Z</time>
      </trkpt>
      <trkpt lat="43.52764" lon="5.60441">
        <ele>775</ele>
        <time>2022-10-19T10:25:32.630Z</time>
      </trkpt>
      <trkpt lat="43.52764" lon="5.60441">
        <ele>775</ele>
        <time>2022-10-19T10:25:33.630Z</time>
      </trkpt>
      <trkpt lat="43.52763" lon="5.6044">
        <ele>774</ele>
        <time>2022-10-19T10:25:34.630Z</time>
      </trkpt>
      <trkpt lat="43.52762" lon="5.60439">
        <ele>774</ele>
        <time>2022-10-19T10:25:35.630Z</time>
      </trkpt>
      <trkpt lat="43.52761" lon="5.60439">
        <ele>774</ele>
        <time>2022-10-19T10:25:36.630Z</time>
      </trkpt>
      <trkpt lat="43.5276" lon="5.60438">
        <ele>774</ele>
        <time>2022-10-19T10:25:37.630Z</time>
      </trkpt>
      <trkpt lat="43.5276" lon="5.60437">
        <ele>774</ele>
        <time>2022-10-19T10:25:38.630Z</time>
      </trkpt>
      <trkpt lat="43.52759" lon="5.60436">
        <ele>774</ele>
        <time>2022-10-19T10:25:39.630Z</time>
      </trkpt>
      <trkpt lat="43.52758" lon="5.60434">
        <ele>773</ele>
        <time>2022-10-19T10:25:40.630Z</time>
      </trkpt>
      <trkpt lat="43.52758" lon="5.60433">
        <ele>773</ele>
        <time>2022-10-19T10:25:41.630Z</time>
      </trkpt>
      <trkpt lat="43.52757" lon="5.60433">
        <ele>773</ele>
        <time>2022-10-19T10:25:42.630Z</time>
      </trkpt>
      <trkpt lat="43.52756" lon="5.60433">
        <ele>773</ele>
        <time>2022-10-19T10:25:43.630Z</time>
      </trkpt>
      <trkpt lat="43.52755" lon="5.60433">
        <ele>773</ele>
        <time>2022-10-19T10:25:44.630Z</time>
      </trkpt>
      <trkpt lat="43.52755" lon="5.60433">
        <ele>772</ele>
        <time>2022-10-19T10:25:45.630Z</time>
      </trkpt>
      <trkpt lat="43.52754" lon="5.60433">
        <ele>772</ele>
        <time>2022-10-19T10:25:46.630Z</time>
      </trkpt>
      <trkpt lat="43.52753" lon="5.60432">
        <ele>772</ele>
        <time>2022-10-19T10:25:47.630Z</time>
      </trkpt>
      <trkpt lat="43.52752" lon="5.60431">
        <ele>772</ele>
        <time>2022-10-19T10:25:48.630Z</time>
      </trkpt>
      <trkpt lat="43.52752" lon="5.60431">
        <ele>771</ele>
        <time>2022-10-19T10:25:49.630Z</time>
      </trkpt>
      <trkpt lat="43.52751" lon="5.60429">
        <ele>771</ele>
        <time>2022-10-19T10:25:50.630Z</time>
      </trkpt>
      <trkpt lat="43.52751" lon="5.60428">
        <ele>771</ele>
        <time>2022-10-19T10:25:51.630Z</time>
      </trkpt>
      <trkpt lat="43.52751" lon="5.60427">
        <ele>771</ele>
        <time>2022-10-19T10:25:52.630Z</time>
      </trkpt>
      <trkpt lat="43.52751" lon="5.60425">
        <ele>771</ele>
        <time>2022-10-19T10:25:53.630Z</time>
      </trkpt>
      <trkpt lat="43.52751" lon="5.60424">
        <ele>770</ele>
        <time>2022-10-19T10:25:54.630Z</time>
      </trkpt>
      <trkpt lat="43.52751" lon="5.60424">
        <ele>770</ele>
        <time>2022-10-19T10:25:55.630Z</time>
      </trkpt>
      <trkpt lat="43.5275" lon="5.60423">
        <ele>770</ele>
        <time>2022-10-19T10:25:56.630Z</time>
      </trkpt>
      <trkpt lat="43.5275" lon="5.60422">
        <ele>770</ele>
        <time>2022-10-19T10:25:57.630Z</time>
      </trkpt>
      <trkpt lat="43.52749" lon="5.60421">
        <ele>770</ele>
        <time>2022-10-19T10:25:58.630Z</time>
      </trkpt>
      <trkpt lat="43.52749" lon="5.60421">
        <ele>769</ele>
        <time>2022-10-19T10:25:59.630Z</time>
      </trkpt>
      <trkpt lat="43.52748" lon="5.6042">
        <ele>769</ele>
        <time>2022-10-19T10:26:00.630Z</time>
      </trkpt>
      <trkpt lat="43.52747" lon="5.6042">
        <ele>769</ele>
        <time>2022-10-19T10:26:01.630Z</time>
      </trkpt>
      <trkpt lat="43.52746" lon="5.60421">
        <ele>769</ele>
        <time>2022-10-19T10:26:02.630Z</time>
      </trkpt>
      <trkpt lat="43.52745" lon="5.60421">
        <ele>768</ele>
        <time>2022-10-19T10:26:03.630Z</time>
      </trkpt>
      <trkpt lat="43.52744" lon="5.60421">
        <ele>768</ele>
        <time>2022-10-19T10:26:04.630Z</time>
      </trkpt>
      <trkpt lat="43.52743" lon="5.6042">
        <ele>768</ele>
        <time>2022-10-19T10:26:05.630Z</time>
      </trkpt>
      <trkpt lat="43.52742" lon="5.6042">
        <ele>768</ele>
        <time>2022-10-19T10:26:06.630Z</time>
      </trkpt>
      <trkpt lat="43.52741" lon="5.60419">
        <ele>768</ele>
        <time>2022-10-19T10:26:07.630Z</time>
      </trkpt>
      <trkpt lat="43.52741" lon="5.60418">
        <ele>768</ele>
        <time>2022-10-19T10:26:08.630Z</time>
      </trkpt>
      <trkpt lat="43.5274" lon="5.60417">
        <ele>767</ele>
        <time>2022-10-19T10:26:09.630Z</time>
      </trkpt>
      <trkpt lat="43.52739" lon="5.60417">
        <ele>767</ele>
        <time>2022-10-19T10:26:10.630Z</time>
      </trkpt>
      <trkpt lat="43.52739" lon="5.60416">
        <ele>767</ele>
        <time>2022-10-19T10:26:11.630Z</time>
      </trkpt>
      <trkpt lat="43.52738" lon="5.60416">
        <ele>766</ele>
        <time>2022-10-19T10:26:12.630Z</time>
      </trkpt>
      <trkpt lat="43.52737" lon="5.60416">
        <ele>766</ele>
        <time>2022-10-19T10:26:13.630Z</time>
      </trkpt>
      <trkpt lat="43.52736" lon="5.60415">
        <ele>766</ele>
        <time>2022-10-19T10:26:14.630Z</time>
      </trkpt>
      <trkpt lat="43.52735" lon="5.60414">
        <ele>766</ele>
        <time>2022-10-19T10:26:15.630Z</time>
      </trkpt>
      <trkpt lat="43.52735" lon="5.60413">
        <ele>765</ele>
        <time>2022-10-19T10:26:16.630Z</time>
      </trkpt>
      <trkpt lat="43.52734" lon="5.60412">
        <ele>765</ele>
        <time>2022-10-19T10:26:17.630Z</time>
      </trkpt>
      <trkpt lat="43.52733" lon="5.60411">
        <ele>765</ele>
        <time>2022-10-19T10:26:18.630Z</time>
      </trkpt>
      <trkpt lat="43.52733" lon="5.6041">
        <ele>765</ele>
        <time>2022-10-19T10:26:19.630Z</time>
      </trkpt>
      <trkpt lat="43.52732" lon="5.60408">
        <ele>764</ele>
        <time>2022-10-19T10:26:20.630Z</time>
      </trkpt>
      <trkpt lat="43.52732" lon="5.60407">
        <ele>764</ele>
        <time>2022-10-19T10:26:21.630Z</time>
      </trkpt>
      <trkpt lat="43.52731" lon="5.60406">
        <ele>764</ele>
        <time>2022-10-19T10:26:22.630Z</time>
      </trkpt>
      <trkpt lat="43.52731" lon="5.60404">
        <ele>764</ele>
        <time>2022-10-19T10:26:23.630Z</time>
      </trkpt>
      <trkpt lat="43.52731" lon="5.60403">
        <ele>764</ele>
        <time>2022-10-19T10:26:24.630Z</time>
      </trkpt>
      <trkpt lat="43.5273" lon="5.60401">
        <ele>763</ele>
        <time>2022-10-19T10:26:25.630Z</time>
      </trkpt>
      <trkpt lat="43.5273" lon="5.604">
        <ele>763</ele>
        <time>2022-10-19T10:26:26.630Z</time>
      </trkpt>
      <trkpt lat="43.5273" lon="5.60399">
        <ele>763</ele>
        <time>2022-10-19T10:26:27.630Z</time>
      </trkpt>
      <trkpt lat="43.52729" lon="5.60398">
        <ele>763</ele>
        <time>2022-10-19T10:26:28.630Z</time>
      </trkpt>
      <trkpt lat="43.52728" lon="5.60397">
        <ele>763</ele>
        <time>2022-10-19T10:26:29.630Z</time>
      </trkpt>
      <trkpt lat="43.52728" lon="5.60396">
        <ele>762</ele>
        <time>2022-10-19T10:26:30.630Z</time>
      </trkpt>
      <trkpt lat="43.52727" lon="5.60394">
        <ele>762</ele>
        <time>2022-10-19T10:26:31.630Z</time>
      </trkpt>
      <trkpt lat="43.52726" lon="5.60393">
        <ele>762</ele>
        <time>2022-10-19T10:26:32.630Z</time>
      </trkpt>
      <trkpt lat="43.52726" lon="5.60392">
        <ele>761</ele>
        <time>2022-10-19T10:26:33.630Z</time>
      </trkpt>
      <trkpt lat="43.52725" lon="5.60391">
        <ele>761</ele>
        <time>2022-10-19T10:26:34.630Z</time>
      </trkpt>
      <trkpt lat="43.52725" lon="5.6039">
        <ele>761</ele>
        <time>2022-10-19T10:26:35.630Z</time>
      </trkpt>
      <trkpt lat="43.52725" lon="5.60388">
        <ele>761</ele>
        <time>2022-10-19T10:26:36.630Z</time>
      </trkpt>
      <trkpt lat="43.52725" lon="5.60387">
        <ele>761</ele>
        <time>2022-10-19T10:26:37.630Z</time>
      </trkpt>
      <trkpt lat="43.52726" lon="5.60386">
        <ele>760</ele>
        <time>2022-10-19T10:26:38.630Z</time>
      </trkpt>
      <trkpt lat="43.52726" lon="5.60385">
        <ele>760</ele>
        <time>2022-10-19T10:26:39.630Z</time>
      </trkpt>
      <trkpt lat="43.52727" lon="5.60384">
        <ele>760</ele>
        <time>2022-10-19T10:26:40.630Z</time>
      </trkpt>
      <trkpt lat="43.52727" lon="5.60383">
        <ele>760</ele>
        <time>2022-10-19T10:26:41.630Z</time>
      </trkpt>
      <trkpt lat="43.52727" lon="5.60382">
        <ele>760</ele>
        <time>2022-10-19T10:26:42.630Z</time>
      </trkpt>
      <trkpt lat="43.52727" lon="5.60381">
        <ele>759</ele>
        <time>2022-10-19T10:26:43.630Z</time>
      </trkpt>
      <trkpt lat="43.52727" lon="5.6038">
        <ele>759</ele>
        <time>2022-10-19T10:26:44.630Z</time>
      </trkpt>
      <trkpt lat="43.52726" lon="5.60379">
        <ele>759</ele>
        <time>2022-10-19T10:26:45.630Z</time>
      </trkpt>
      <trkpt lat="43.52726" lon="5.60378">
        <ele>759</ele>
        <time>2022-10-19T10:26:46.630Z</time>
      </trkpt>
      <trkpt lat="43.52726" lon="5.60377">
        <ele>759</ele>
        <time>2022-10-19T10:26:47.630Z</time>
      </trkpt>
      <trkpt lat="43.52727" lon="5.60376">
        <ele>758</ele>
        <time>2022-10-19T10:26:48.630Z</time>
      </trkpt>
      <trkpt lat="43.52727" lon="5.60374">
        <ele>758</ele>
        <time>2022-10-19T10:26:49.630Z</time>
      </trkpt>
      <trkpt lat="43.52727" lon="5.60374">
        <ele>758</ele>
        <time>2022-10-19T10:26:50.630Z</time>
      </trkpt>
      <trkpt lat="43.52728" lon="5.60373">
        <ele>758</ele>
        <time>2022-10-19T10:26:51.630Z</time>
      </trkpt>
      <trkpt lat="43.52728" lon="5.60372">
        <ele>758</ele>
        <time>2022-10-19T10:26:52.630Z</time>
      </trkpt>
      <trkpt lat="43.52728" lon="5.60372">
        <ele>758</ele>
        <time>2022-10-19T10:26:53.630Z</time>
      </trkpt>
      <trkpt lat="43.52728" lon="5.60372">
        <ele>757</ele>
        <time>2022-10-19T10:26:54.630Z</time>
      </trkpt>
      <trkpt lat="43.52728" lon="5.60372">
        <ele>757</ele>
        <time>2022-10-19T10:26:55.630Z</time>
      </trkpt>
      <trkpt lat="43.52728" lon="5.60372">
        <ele>757</ele>
        <time>2022-10-19T10:26:56.630Z</time>
      </trkpt>
      <trkpt lat="43.52728" lon="5.60372">
        <ele>757</ele>
        <time>2022-10-19T10:26:57.630Z</time>
      </trkpt>
      <trkpt lat="43.52728" lon="5.60371">
        <ele>757</ele>
        <time>2022-10-19T10:26:58.630Z</time>
      </trkpt>
      <trkpt lat="43.52728" lon="5.6037">
        <ele>757</ele>
        <time>2022-10-19T10:26:59.630Z</time>
      </trkpt>
      <trkpt lat="43.52728" lon="5.60369">
        <ele>757</ele>
        <time>2022-10-19T10:27:00.630Z</time>
      </trkpt>
      <trkpt lat="43.52728" lon="5.60367">
        <ele>757</ele>
        <time>2022-10-19T10:27:01.630Z</time>
      </trkpt>
      <trkpt lat="43.52728" lon="5.60366">
        <ele>757</ele>
        <time>2022-10-19T10:27:02.630Z</time>
      </trkpt>
      <trkpt lat="43.52729" lon="5.60365">
        <ele>757</ele>
        <time>2022-10-19T10:27:03.630Z</time>
      </trkpt>
      <trkpt lat="43.52729" lon="5.60364">
        <ele>757</ele>
        <time>2022-10-19T10:27:04.630Z</time>
      </trkpt>
      <trkpt lat="43.52729" lon="5.60364">
        <ele>757</ele>
        <time>2022-10-19T10:27:05.630Z</time>
      </trkpt>
      <trkpt lat="43.52729" lon="5.60363">
        <ele>756</ele>
        <time>2022-10-19T10:27:06.630Z</time>
      </trkpt>
      <trkpt lat="43.5273" lon="5.60363">
        <ele>756</ele>
        <time>2022-10-19T10:27:07.630Z</time>
      </trkpt>
      <trkpt lat="43.5273" lon="5.60363">
        <ele>756</ele>
        <time>2022-10-19T10:27:08.630Z</time>
      </trkpt>
      <trkpt lat="43.5273" lon="5.60363">
        <ele>756</ele>
        <time>2022-10-19T10:27:09.630Z</time>
      </trkpt>
      <trkpt lat="43.5273" lon="5.60363">
        <ele>756</ele>
        <time>2022-10-19T10:27:10.630Z</time>
      </trkpt>
      <trkpt lat="43.5273" lon="5.60363">
        <ele>756</ele>
        <time>2022-10-19T10:27:11.630Z</time>
      </trkpt>
      <trkpt lat="43.5273" lon="5.60363">
        <ele>756</ele>
        <time>2022-10-19T10:27:12.630Z</time>
      </trkpt>
      <trkpt lat="43.5273" lon="5.60363">
        <ele>756</ele>
        <time>2022-10-19T10:27:13.630Z</time>
      </trkpt>
      <trkpt lat="43.5273" lon="5.60363">
        <ele>756</ele>
        <time>2022-10-19T10:27:14.630Z</time>
      </trkpt>
      <trkpt lat="43.5273" lon="5.60363">
        <ele>756</ele>
        <time>2022-10-19T10:27:15.630Z</time>
      </trkpt>
      <trkpt lat="43.5273" lon="5.60363">
        <ele>756</ele>
        <time>2022-10-19T10:27:16.630Z</time>
      </trkpt>
      <trkpt lat="43.5273" lon="5.60363">
        <ele>756</ele>
        <time>2022-10-19T10:27:17.630Z</time>
      </trkpt>
      <trkpt lat="43.52729" lon="5.60363">
        <ele>756</ele>
        <time>2022-10-19T10:27:18.630Z</time>
      </trkpt>
      <trkpt lat="43.52729" lon="5.60362">
        <ele>756</ele>
        <time>2022-10-19T10:27:19.630Z</time>
      </trkpt>
      <trkpt lat="43.52729" lon="5.60362">
        <ele>756</ele>
        <time>2022-10-19T10:27:20.630Z</time>
      </trkpt>
      <trkpt lat="43.52729" lon="5.60362">
        <ele>756</ele>
        <time>2022-10-19T10:27:21.630Z</time>
      </trkpt>
      <trkpt lat="43.52729" lon="5.60362">
        <ele>756</ele>
        <time>2022-10-19T10:27:22.630Z</time>
      </trkpt>
      <trkpt lat="43.52729" lon="5.60361">
        <ele>756</ele>
        <time>2022-10-19T10:27:23.630Z</time>
      </trkpt>
      <trkpt lat="43.52729" lon="5.60361">
        <ele>755</ele>
        <time>2022-10-19T10:27:24.630Z</time>
      </trkpt>
      <trkpt lat="43.52728" lon="5.60361">
        <ele>755</ele>
        <time>2022-10-19T10:27:25.630Z</time>
      </trkpt>
      <trkpt lat="43.52728" lon="5.60361">
        <ele>755</ele>
        <time>2022-10-19T10:27:26.630Z</time>
      </trkpt>
      <trkpt lat="43.52728" lon="5.6036">
        <ele>755</ele>
        <time>2022-10-19T10:27:27.630Z</time>
      </trkpt>
      <trkpt lat="43.52728" lon="5.6036">
        <ele>755</ele>
        <time>2022-10-19T10:27:28.630Z</time>
      </trkpt>
      <trkpt lat="43.52727" lon="5.6036">
        <ele>755</ele>
        <time>2022-10-19T10:27:29.630Z</time>
      </trkpt>
      <trkpt lat="43.52727" lon="5.6036">
        <ele>755</ele>
        <time>2022-10-19T10:27:30.630Z</time>
      </trkpt>
      <trkpt lat="43.52727" lon="5.6036">
        <ele>755</ele>
        <time>2022-10-19T10:27:31.630Z</time>
      </trkpt>
      <trkpt lat="43.52727" lon="5.6036">
        <ele>755</ele>
        <time>2022-10-19T10:27:32.630Z</time>
      </trkpt>
      <trkpt lat="43.52727" lon="5.60359">
        <ele>754</ele>
        <time>2022-10-19T10:27:33.630Z</time>
      </trkpt>
      <trkpt lat="43.52727" lon="5.60359">
        <ele>754</ele>
        <time>2022-10-19T10:27:34.630Z</time>
      </trkpt>
      <trkpt lat="43.52727" lon="5.60359">
        <ele>754</ele>
        <time>2022-10-19T10:27:35.630Z</time>
      </trkpt>
      <trkpt lat="43.52727" lon="5.60359">
        <ele>754</ele>
        <time>2022-10-19T10:27:36.630Z</time>
      </trkpt>
      <trkpt lat="43.52727" lon="5.60358">
        <ele>754</ele>
        <time>2022-10-19T10:27:37.630Z</time>
      </trkpt>
      <trkpt lat="43.52726" lon="5.60358">
        <ele>754</ele>
        <time>2022-10-19T10:27:38.630Z</time>
      </trkpt>
      <trkpt lat="43.52726" lon="5.60358">
        <ele>754</ele>
        <time>2022-10-19T10:27:39.630Z</time>
      </trkpt>
      <trkpt lat="43.52726" lon="5.60357">
        <ele>754</ele>
        <time>2022-10-19T10:27:40.630Z</time>
      </trkpt>
      <trkpt lat="43.52726" lon="5.60357">
        <ele>754</ele>
        <time>2022-10-19T10:27:41.630Z</time>
      </trkpt>
      <trkpt lat="43.52726" lon="5.60357">
        <ele>753</ele>
        <time>2022-10-19T10:27:42.630Z</time>
      </trkpt>
      <trkpt lat="43.52725" lon="5.60356">
        <ele>753</ele>
        <time>2022-10-19T10:27:43.630Z</time>
      </trkpt>
      <trkpt lat="43.52725" lon="5.60356">
        <ele>753</ele>
        <time>2022-10-19T10:27:44.630Z</time>
      </trkpt>
      <trkpt lat="43.52725" lon="5.60356">
        <ele>753</ele>
        <time>2022-10-19T10:27:45.630Z</time>
      </trkpt>
      <trkpt lat="43.52726" lon="5.60356">
        <ele>752</ele>
        <time>2022-10-19T10:27:46.630Z</time>
      </trkpt>
      <trkpt lat="43.52725" lon="5.60356">
        <ele>752</ele>
        <time>2022-10-19T10:27:47.630Z</time>
      </trkpt>
      <trkpt lat="43.52725" lon="5.60356">
        <ele>752</ele>
        <time>2022-10-19T10:27:48.630Z</time>
      </trkpt>
      <trkpt lat="43.52725" lon="5.60356">
        <ele>752</ele>
        <time>2022-10-19T10:27:49.630Z</time>
      </trkpt>
      <trkpt lat="43.52725" lon="5.60356">
        <ele>752</ele>
        <time>2022-10-19T10:27:50.630Z</time>
      </trkpt>
      <trkpt lat="43.52725" lon="5.60355">
        <ele>752</ele>
        <time>2022-10-19T10:27:51.630Z</time>
      </trkpt>
      <trkpt lat="43.52725" lon="5.60355">
        <ele>752</ele>
        <time>2022-10-19T10:27:52.630Z</time>
      </trkpt>
      <trkpt lat="43.52724" lon="5.60355">
        <ele>752</ele>
        <time>2022-10-19T10:27:53.630Z</time>
      </trkpt>
      <trkpt lat="43.52724" lon="5.60355">
        <ele>751</ele>
        <time>2022-10-19T10:27:54.630Z</time>
      </trkpt>
      <trkpt lat="43.52724" lon="5.60355">
        <ele>751</ele>
        <time>2022-10-19T10:27:55.630Z</time>
      </trkpt>
      <trkpt lat="43.52724" lon="5.60355">
        <ele>751</ele>
        <time>2022-10-19T10:27:56.630Z</time>
      </trkpt>
      <trkpt lat="43.52723" lon="5.60354">
        <ele>751</ele>
        <time>2022-10-19T10:27:57.630Z</time>
      </trkpt>
      <trkpt lat="43.52723" lon="5.60354">
        <ele>751</ele>
        <time>2022-10-19T10:27:58.630Z</time>
      </trkpt>
      <trkpt lat="43.52723" lon="5.60354">
        <ele>751</ele>
        <time>2022-10-19T10:27:59.630Z</time>
      </trkpt>
      <trkpt lat="43.52722" lon="5.60353">
        <ele>750</ele>
        <time>2022-10-19T10:28:00.630Z</time>
      </trkpt>
      <trkpt lat="43.52722" lon="5.60353">
        <ele>750</ele>
        <time>2022-10-19T10:28:01.630Z</time>
      </trkpt>
      <trkpt lat="43.52722" lon="5.60352">
        <ele>750</ele>
        <time>2022-10-19T10:28:02.630Z</time>
      </trkpt>
      <trkpt lat="43.52722" lon="5.60352">
        <ele>749</ele>
        <time>2022-10-19T10:28:03.630Z</time>
      </trkpt>
      <trkpt lat="43.52722" lon="5.60351">
        <ele>749</ele>
        <time>2022-10-19T10:28:04.630Z</time>
      </trkpt>
      <trkpt lat="43.52722" lon="5.60351">
        <ele>749</ele>
        <time>2022-10-19T10:28:05.630Z</time>
      </trkpt>
      <trkpt lat="43.52722" lon="5.60352">
        <ele>749</ele>
        <time>2022-10-19T10:28:06.630Z</time>
      </trkpt>
      <trkpt lat="43.52722" lon="5.60351">
        <ele>749</ele>
        <time>2022-10-19T10:28:07.630Z</time>
      </trkpt>
      <trkpt lat="43.52722" lon="5.60351">
        <ele>749</ele>
        <time>2022-10-19T10:28:08.630Z</time>
      </trkpt>
      <trkpt lat="43.52721" lon="5.6035">
        <ele>749</ele>
        <time>2022-10-19T10:28:09.630Z</time>
      </trkpt>
      <trkpt lat="43.52722" lon="5.60349">
        <ele>749</ele>
        <time>2022-10-19T10:28:10.630Z</time>
      </trkpt>
      <trkpt lat="43.52722" lon="5.60348">
        <ele>748</ele>
        <time>2022-10-19T10:28:11.630Z</time>
      </trkpt>
      <trkpt lat="43.52723" lon="5.60348">
        <ele>748</ele>
        <time>2022-10-19T10:28:12.630Z</time>
      </trkpt>
      <trkpt lat="43.52723" lon="5.60347">
        <ele>748</ele>
        <time>2022-10-19T10:28:13.630Z</time>
      </trkpt>
      <trkpt lat="43.52723" lon="5.60346">
        <ele>748</ele>
        <time>2022-10-19T10:28:14.630Z</time>
      </trkpt>
      <trkpt lat="43.52723" lon="5.60345">
        <ele>747</ele>
        <time>2022-10-19T10:28:15.630Z</time>
      </trkpt>
      <trkpt lat="43.52722" lon="5.60344">
        <ele>747</ele>
        <time>2022-10-19T10:28:16.630Z</time>
      </trkpt>
      <trkpt lat="43.52722" lon="5.60344">
        <ele>747</ele>
        <time>2022-10-19T10:28:17.630Z</time>
      </trkpt>
      <trkpt lat="43.52721" lon="5.60344">
        <ele>747</ele>
        <time>2022-10-19T10:28:18.630Z</time>
      </trkpt>
      <trkpt lat="43.52721" lon="5.60344">
        <ele>746</ele>
        <time>2022-10-19T10:28:19.630Z</time>
      </trkpt>
      <trkpt lat="43.5272" lon="5.60343">
        <ele>746</ele>
        <time>2022-10-19T10:28:20.630Z</time>
      </trkpt>
      <trkpt lat="43.52719" lon="5.60343">
        <ele>746</ele>
        <time>2022-10-19T10:28:21.630Z</time>
      </trkpt>
      <trkpt lat="43.52718" lon="5.60343">
        <ele>746</ele>
        <time>2022-10-19T10:28:22.630Z</time>
      </trkpt>
      <trkpt lat="43.52718" lon="5.60343">
        <ele>746</ele>
        <time>2022-10-19T10:28:23.630Z</time>
      </trkpt>
      <trkpt lat="43.52717" lon="5.60343">
        <ele>746</ele>
        <time>2022-10-19T10:28:24.630Z</time>
      </trkpt>
      <trkpt lat="43.52717" lon="5.60343">
        <ele>745</ele>
        <time>2022-10-19T10:28:25.630Z</time>
      </trkpt>
      <trkpt lat="43.52716" lon="5.60343">
        <ele>745</ele>
        <time>2022-10-19T10:28:26.630Z</time>
      </trkpt>
      <trkpt lat="43.52716" lon="5.60343">
        <ele>745</ele>
        <time>2022-10-19T10:28:27.630Z</time>
      </trkpt>
      <trkpt lat="43.52715" lon="5.60342">
        <ele>745</ele>
        <time>2022-10-19T10:28:28.630Z</time>
      </trkpt>
      <trkpt lat="43.52714" lon="5.60341">
        <ele>744</ele>
        <time>2022-10-19T10:28:29.630Z</time>
      </trkpt>
      <trkpt lat="43.52714" lon="5.6034">
        <ele>744</ele>
        <time>2022-10-19T10:28:30.630Z</time>
      </trkpt>
      <trkpt lat="43.52713" lon="5.60339">
        <ele>744</ele>
        <time>2022-10-19T10:28:31.630Z</time>
      </trkpt>
      <trkpt lat="43.52713" lon="5.60339">
        <ele>744</ele>
        <time>2022-10-19T10:28:32.630Z</time>
      </trkpt>
      <trkpt lat="43.52712" lon="5.60339">
        <ele>743</ele>
        <time>2022-10-19T10:28:33.630Z</time>
      </trkpt>
      <trkpt lat="43.52711" lon="5.60338">
        <ele>743</ele>
        <time>2022-10-19T10:28:34.630Z</time>
      </trkpt>
      <trkpt lat="43.52711" lon="5.60337">
        <ele>743</ele>
        <time>2022-10-19T10:28:35.630Z</time>
      </trkpt>
      <trkpt lat="43.5271" lon="5.60337">
        <ele>743</ele>
        <time>2022-10-19T10:28:36.630Z</time>
      </trkpt>
      <trkpt lat="43.5271" lon="5.60336">
        <ele>743</ele>
        <time>2022-10-19T10:28:37.630Z</time>
      </trkpt>
      <trkpt lat="43.52709" lon="5.60336">
        <ele>742</ele>
        <time>2022-10-19T10:28:38.630Z</time>
      </trkpt>
      <trkpt lat="43.52708" lon="5.60335">
        <ele>742</ele>
        <time>2022-10-19T10:28:39.630Z</time>
      </trkpt>
      <trkpt lat="43.52707" lon="5.60335">
        <ele>742</ele>
        <time>2022-10-19T10:28:40.630Z</time>
      </trkpt>
      <trkpt lat="43.52706" lon="5.60334">
        <ele>742</ele>
        <time>2022-10-19T10:28:41.630Z</time>
      </trkpt>
      <trkpt lat="43.52705" lon="5.60334">
        <ele>742</ele>
        <time>2022-10-19T10:28:42.630Z</time>
      </trkpt>
      <trkpt lat="43.52705" lon="5.60335">
        <ele>741</ele>
        <time>2022-10-19T10:28:43.630Z</time>
      </trkpt>
      <trkpt lat="43.52703" lon="5.60335">
        <ele>741</ele>
        <time>2022-10-19T10:28:44.630Z</time>
      </trkpt>
      <trkpt lat="43.52702" lon="5.60335">
        <ele>741</ele>
        <time>2022-10-19T10:28:45.630Z</time>
      </trkpt>
      <trkpt lat="43.52702" lon="5.60334">
        <ele>741</ele>
        <time>2022-10-19T10:28:46.630Z</time>
      </trkpt>
      <trkpt lat="43.52701" lon="5.60333">
        <ele>741</ele>
        <time>2022-10-19T10:28:47.630Z</time>
      </trkpt>
      <trkpt lat="43.527" lon="5.60332">
        <ele>741</ele>
        <time>2022-10-19T10:28:48.630Z</time>
      </trkpt>
      <trkpt lat="43.52699" lon="5.60331">
        <ele>741</ele>
        <time>2022-10-19T10:28:49.630Z</time>
      </trkpt>
      <trkpt lat="43.52698" lon="5.60331">
        <ele>741</ele>
        <time>2022-10-19T10:28:50.630Z</time>
      </trkpt>
      <trkpt lat="43.52697" lon="5.6033">
        <ele>741</ele>
        <time>2022-10-19T10:28:51.630Z</time>
      </trkpt>
      <trkpt lat="43.52696" lon="5.6033">
        <ele>741</ele>
        <time>2022-10-19T10:28:52.630Z</time>
      </trkpt>
      <trkpt lat="43.52695" lon="5.6033">
        <ele>741</ele>
        <time>2022-10-19T10:28:53.630Z</time>
      </trkpt>
      <trkpt lat="43.52694" lon="5.60329">
        <ele>740</ele>
        <time>2022-10-19T10:28:54.630Z</time>
      </trkpt>
      <trkpt lat="43.52693" lon="5.60329">
        <ele>740</ele>
        <time>2022-10-19T10:28:55.630Z</time>
      </trkpt>
      <trkpt lat="43.52692" lon="5.60329">
        <ele>740</ele>
        <time>2022-10-19T10:28:56.630Z</time>
      </trkpt>
      <trkpt lat="43.52691" lon="5.60328">
        <ele>740</ele>
        <time>2022-10-19T10:28:57.630Z</time>
      </trkpt>
      <trkpt lat="43.52691" lon="5.60327">
        <ele>740</ele>
        <time>2022-10-19T10:28:58.630Z</time>
      </trkpt>
      <trkpt lat="43.5269" lon="5.60327">
        <ele>740</ele>
        <time>2022-10-19T10:28:59.630Z</time>
      </trkpt>
      <trkpt lat="43.5269" lon="5.60327">
        <ele>740</ele>
        <time>2022-10-19T10:29:00.630Z</time>
      </trkpt>
      <trkpt lat="43.5269" lon="5.60327">
        <ele>740</ele>
        <time>2022-10-19T10:29:01.630Z</time>
      </trkpt>
      <trkpt lat="43.5269" lon="5.60327">
        <ele>740</ele>
        <time>2022-10-19T10:29:02.630Z</time>
      </trkpt>
      <trkpt lat="43.52689" lon="5.60327">
        <ele>740</ele>
        <time>2022-10-19T10:29:03.630Z</time>
      </trkpt>
      <trkpt lat="43.52689" lon="5.60327">
        <ele>740</ele>
        <time>2022-10-19T10:29:04.630Z</time>
      </trkpt>
      <trkpt lat="43.52689" lon="5.60327">
        <ele>740</ele>
        <time>2022-10-19T10:29:05.630Z</time>
      </trkpt>
      <trkpt lat="43.52689" lon="5.60327">
        <ele>740</ele>
        <time>2022-10-19T10:29:06.630Z</time>
      </trkpt>
      <trkpt lat="43.52689" lon="5.60327">
        <ele>740</ele>
        <time>2022-10-19T10:29:07.630Z</time>
      </trkpt>
      <trkpt lat="43.52689" lon="5.60327">
        <ele>740</ele>
        <time>2022-10-19T10:29:08.630Z</time>
      </trkpt>
      <trkpt lat="43.52689" lon="5.60327">
        <ele>740</ele>
        <time>2022-10-19T10:29:09.630Z</time>
      </trkpt>
      <trkpt lat="43.52689" lon="5.60327">
        <ele>740</ele>
        <time>2022-10-19T10:29:10.630Z</time>
      </trkpt>
      <trkpt lat="43.52689" lon="5.60327">
        <ele>740</ele>
        <time>2022-10-19T10:29:11.630Z</time>
      </trkpt>
      <trkpt lat="43.52689" lon="5.60327">
        <ele>740</ele>
        <time>2022-10-19T10:29:12.630Z</time>
      </trkpt>
      <trkpt lat="43.52689" lon="5.60327">
        <ele>740</ele>
        <time>2022-10-19T10:29:13.630Z</time>
      </trkpt>
      <trkpt lat="43.52689" lon="5.60327">
        <ele>739</ele>
        <time>2022-10-19T10:29:14.630Z</time>
      </trkpt>
      <trkpt lat="43.52689" lon="5.60327">
        <ele>739</ele>
        <time>2022-10-19T10:29:15.630Z</time>
      </trkpt>
      <trkpt lat="43.52689" lon="5.60327">
        <ele>739</ele>
        <time>2022-10-19T10:29:16.630Z</time>
      </trkpt>
      <trkpt lat="43.52689" lon="5.60327">
        <ele>739</ele>
        <time>2022-10-19T10:29:17.630Z</time>
      </trkpt>
      <trkpt lat="43.52689" lon="5.60327">
        <ele>739</ele>
        <time>2022-10-19T10:29:18.630Z</time>
      </trkpt>
      <trkpt lat="43.52689" lon="5.60327">
        <ele>739</ele>
        <time>2022-10-19T10:29:19.630Z</time>
      </trkpt>
      <trkpt lat="43.52689" lon="5.60327">
        <ele>739</ele>
        <time>2022-10-19T10:29:20.630Z</time>
      </trkpt>
      <trkpt lat="43.52689" lon="5.60327">
        <ele>739</ele>
        <time>2022-10-19T10:29:21.630Z</time>
      </trkpt>
      <trkpt lat="43.52689" lon="5.60327">
        <ele>739</ele>
        <time>2022-10-19T10:29:22.630Z</time>
      </trkpt>
      <trkpt lat="43.52689" lon="5.60327">
        <ele>739</ele>
        <time>2022-10-19T10:29:23.630Z</time>
      </trkpt>
      <trkpt lat="43.52689" lon="5.60327">
        <ele>739</ele>
        <time>2022-10-19T10:29:24.630Z</time>
      </trkpt>
      <trkpt lat="43.52689" lon="5.60327">
        <ele>739</ele>
        <time>2022-10-19T10:29:25.630Z</time>
      </trkpt>
      <trkpt lat="43.52689" lon="5.60327">
        <ele>739</ele>
        <time>2022-10-19T10:29:26.630Z</time>
      </trkpt>
      <trkpt lat="43.52689" lon="5.60327">
        <ele>739</ele>
        <time>2022-10-19T10:29:27.630Z</time>
      </trkpt>
      <trkpt lat="43.52689" lon="5.60327">
        <ele>739</ele>
        <time>2022-10-19T10:29:28.630Z</time>
      </trkpt>
      <trkpt lat="43.52689" lon="5.60327">
        <ele>739</ele>
        <time>2022-10-19T10:29:29.630Z</time>
      </trkpt>
      <trkpt lat="43.52689" lon="5.60327">
        <ele>739</ele>
        <time>2022-10-19T10:29:30.630Z</time>
      </trkpt>
      <trkpt lat="43.52689" lon="5.60327">
        <ele>739</ele>
        <time>2022-10-19T10:29:31.630Z</time>
      </trkpt>
      <trkpt lat="43.52689" lon="5.60327">
        <ele>739</ele>
        <time>2022-10-19T10:29:32.630Z</time>
      </trkpt>
      <trkpt lat="43.52689" lon="5.60327">
        <ele>739</ele>
        <time>2022-10-19T10:29:33.630Z</time>
      </trkpt>
      <trkpt lat="43.52688" lon="5.60327">
        <ele>739</ele>
        <time>2022-10-19T10:29:34.630Z</time>
      </trkpt>
      <trkpt lat="43.52688" lon="5.60327">
        <ele>739</ele>
        <time>2022-10-19T10:29:35.630Z</time>
      </trkpt>
      <trkpt lat="43.52688" lon="5.60327">
        <ele>739</ele>
        <time>2022-10-19T10:29:36.630Z</time>
      </trkpt>
      <trkpt lat="43.52688" lon="5.60327">
        <ele>739</ele>
        <time>2022-10-19T10:29:37.630Z</time>
      </trkpt>
      <trkpt lat="43.52687" lon="5.60326">
        <ele>739</ele>
        <time>2022-10-19T10:29:38.630Z</time>
      </trkpt>
      <trkpt lat="43.52687" lon="5.60326">
        <ele>739</ele>
        <time>2022-10-19T10:29:39.630Z</time>
      </trkpt>
      <trkpt lat="43.52686" lon="5.60325">
        <ele>739</ele>
        <time>2022-10-19T10:29:40.630Z</time>
      </trkpt>
      <trkpt lat="43.52686" lon="5.60324">
        <ele>739</ele>
        <time>2022-10-19T10:29:41.630Z</time>
      </trkpt>
      <trkpt lat="43.52685" lon="5.60323">
        <ele>739</ele>
        <time>2022-10-19T10:29:42.630Z</time>
      </trkpt>
      <trkpt lat="43.52685" lon="5.60323">
        <ele>740</ele>
        <time>2022-10-19T10:29:43.630Z</time>
      </trkpt>
      <trkpt lat="43.52684" lon="5.60322">
        <ele>740</ele>
        <time>2022-10-19T10:29:44.630Z</time>
      </trkpt>
      <trkpt lat="43.52684" lon="5.60321">
        <ele>740</ele>
        <time>2022-10-19T10:29:45.630Z</time>
      </trkpt>
      <trkpt lat="43.52683" lon="5.60319">
        <ele>740</ele>
        <time>2022-10-19T10:29:46.630Z</time>
      </trkpt>
      <trkpt lat="43.52683" lon="5.60318">
        <ele>740</ele>
        <time>2022-10-19T10:29:47.630Z</time>
      </trkpt>
      <trkpt lat="43.52682" lon="5.60317">
        <ele>740</ele>
        <time>2022-10-19T10:29:48.630Z</time>
      </trkpt>
      <trkpt lat="43.52682" lon="5.60316">
        <ele>740</ele>
        <time>2022-10-19T10:29:49.630Z</time>
      </trkpt>
      <trkpt lat="43.52683" lon="5.60314">
        <ele>740</ele>
        <time>2022-10-19T10:29:50.630Z</time>
      </trkpt>
      <trkpt lat="43.52683" lon="5.60313">
        <ele>740</ele>
        <time>2022-10-19T10:29:51.630Z</time>
      </trkpt>
      <trkpt lat="43.52682" lon="5.60312">
        <ele>740</ele>
        <time>2022-10-19T10:29:52.630Z</time>
      </trkpt>
      <trkpt lat="43.52682" lon="5.60311">
        <ele>740</ele>
        <time>2022-10-19T10:29:53.630Z</time>
      </trkpt>
      <trkpt lat="43.52681" lon="5.60309">
        <ele>740</ele>
        <time>2022-10-19T10:29:54.630Z</time>
      </trkpt>
      <trkpt lat="43.52681" lon="5.60308">
        <ele>740</ele>
        <time>2022-10-19T10:29:55.630Z</time>
      </trkpt>
      <trkpt lat="43.52681" lon="5.60307">
        <ele>740</ele>
        <time>2022-10-19T10:29:56.630Z</time>
      </trkpt>
      <trkpt lat="43.52681" lon="5.60306">
        <ele>740</ele>
        <time>2022-10-19T10:29:57.630Z</time>
      </trkpt>
      <trkpt lat="43.52681" lon="5.60305">
        <ele>740</ele>
        <time>2022-10-19T10:29:58.630Z</time>
      </trkpt>
      <trkpt lat="43.5268" lon="5.60304">
        <ele>740</ele>
        <time>2022-10-19T10:29:59.630Z</time>
      </trkpt>
      <trkpt lat="43.5268" lon="5.60303">
        <ele>740</ele>
        <time>2022-10-19T10:30:00.630Z</time>
      </trkpt>
      <trkpt lat="43.5268" lon="5.60301">
        <ele>739</ele>
        <time>2022-10-19T10:30:01.630Z</time>
      </trkpt>
      <trkpt lat="43.5268" lon="5.603">
        <ele>739</ele>
        <time>2022-10-19T10:30:02.630Z</time>
      </trkpt>
      <trkpt lat="43.5268" lon="5.60299">
        <ele>739</ele>
        <time>2022-10-19T10:30:03.630Z</time>
      </trkpt>
      <trkpt lat="43.5268" lon="5.60298">
        <ele>739</ele>
        <time>2022-10-19T10:30:04.630Z</time>
      </trkpt>
      <trkpt lat="43.5268" lon="5.60297">
        <ele>739</ele>
        <time>2022-10-19T10:30:05.630Z</time>
      </trkpt>
      <trkpt lat="43.5268" lon="5.60296">
        <ele>739</ele>
        <time>2022-10-19T10:30:06.630Z</time>
      </trkpt>
      <trkpt lat="43.5268" lon="5.60295">
        <ele>739</ele>
        <time>2022-10-19T10:30:07.630Z</time>
      </trkpt>
      <trkpt lat="43.5268" lon="5.60293">
        <ele>738</ele>
        <time>2022-10-19T10:30:08.630Z</time>
      </trkpt>
      <trkpt lat="43.5268" lon="5.60292">
        <ele>738</ele>
        <time>2022-10-19T10:30:09.630Z</time>
      </trkpt>
      <trkpt lat="43.5268" lon="5.60291">
        <ele>738</ele>
        <time>2022-10-19T10:30:10.630Z</time>
      </trkpt>
      <trkpt lat="43.5268" lon="5.60291">
        <ele>738</ele>
        <time>2022-10-19T10:30:11.630Z</time>
      </trkpt>
      <trkpt lat="43.52681" lon="5.6029">
        <ele>738</ele>
        <time>2022-10-19T10:30:12.630Z</time>
      </trkpt>
      <trkpt lat="43.52681" lon="5.6029">
        <ele>738</ele>
        <time>2022-10-19T10:30:13.630Z</time>
      </trkpt>
      <trkpt lat="43.52681" lon="5.6029">
        <ele>738</ele>
        <time>2022-10-19T10:30:14.630Z</time>
      </trkpt>
      <trkpt lat="43.52681" lon="5.6029">
        <ele>737</ele>
        <time>2022-10-19T10:30:15.630Z</time>
      </trkpt>
      <trkpt lat="43.52682" lon="5.6029">
        <ele>737</ele>
        <time>2022-10-19T10:30:16.630Z</time>
      </trkpt>
      <trkpt lat="43.52682" lon="5.60289">
        <ele>737</ele>
        <time>2022-10-19T10:30:17.630Z</time>
      </trkpt>
      <trkpt lat="43.52682" lon="5.60289">
        <ele>737</ele>
        <time>2022-10-19T10:30:18.630Z</time>
      </trkpt>
      <trkpt lat="43.52682" lon="5.60288">
        <ele>737</ele>
        <time>2022-10-19T10:30:19.630Z</time>
      </trkpt>
      <trkpt lat="43.52682" lon="5.60287">
        <ele>737</ele>
        <time>2022-10-19T10:30:20.630Z</time>
      </trkpt>
      <trkpt lat="43.52682" lon="5.60287">
        <ele>737</ele>
        <time>2022-10-19T10:30:21.630Z</time>
      </trkpt>
      <trkpt lat="43.52682" lon="5.60286">
        <ele>737</ele>
        <time>2022-10-19T10:30:22.630Z</time>
      </trkpt>
      <trkpt lat="43.52681" lon="5.60286">
        <ele>737</ele>
        <time>2022-10-19T10:30:23.630Z</time>
      </trkpt>
      <trkpt lat="43.52681" lon="5.60286">
        <ele>737</ele>
        <time>2022-10-19T10:30:24.630Z</time>
      </trkpt>
      <trkpt lat="43.52681" lon="5.60286">
        <ele>737</ele>
        <time>2022-10-19T10:30:25.630Z</time>
      </trkpt>
      <trkpt lat="43.52681" lon="5.60286">
        <ele>737</ele>
        <time>2022-10-19T10:30:26.630Z</time>
      </trkpt>
      <trkpt lat="43.52681" lon="5.60286">
        <ele>737</ele>
        <time>2022-10-19T10:30:27.630Z</time>
      </trkpt>
      <trkpt lat="43.52681" lon="5.60285">
        <ele>737</ele>
        <time>2022-10-19T10:30:28.630Z</time>
      </trkpt>
      <trkpt lat="43.52681" lon="5.60285">
        <ele>737</ele>
        <time>2022-10-19T10:30:29.630Z</time>
      </trkpt>
      <trkpt lat="43.52682" lon="5.60284">
        <ele>736</ele>
        <time>2022-10-19T10:30:30.630Z</time>
      </trkpt>
      <trkpt lat="43.52682" lon="5.60284">
        <ele>736</ele>
        <time>2022-10-19T10:30:31.630Z</time>
      </trkpt>
      <trkpt lat="43.52682" lon="5.60284">
        <ele>736</ele>
        <time>2022-10-19T10:30:32.630Z</time>
      </trkpt>
      <trkpt lat="43.52683" lon="5.60283">
        <ele>736</ele>
        <time>2022-10-19T10:30:33.630Z</time>
      </trkpt>
      <trkpt lat="43.52683" lon="5.60283">
        <ele>736</ele>
        <time>2022-10-19T10:30:34.630Z</time>
      </trkpt>
      <trkpt lat="43.52684" lon="5.60283">
        <ele>736</ele>
        <time>2022-10-19T10:30:35.630Z</time>
      </trkpt>
      <trkpt lat="43.52684" lon="5.60282">
        <ele>736</ele>
        <time>2022-10-19T10:30:36.630Z</time>
      </trkpt>
      <trkpt lat="43.52685" lon="5.60282">
        <ele>735</ele>
        <time>2022-10-19T10:30:37.630Z</time>
      </trkpt>
      <trkpt lat="43.52685" lon="5.60281">
        <ele>735</ele>
        <time>2022-10-19T10:30:38.630Z</time>
      </trkpt>
      <trkpt lat="43.52686" lon="5.6028">
        <ele>735</ele>
        <time>2022-10-19T10:30:39.630Z</time>
      </trkpt>
      <trkpt lat="43.52686" lon="5.60279">
        <ele>735</ele>
        <time>2022-10-19T10:30:40.630Z</time>
      </trkpt>
      <trkpt lat="43.52686" lon="5.60279">
        <ele>735</ele>
        <time>2022-10-19T10:30:41.630Z</time>
      </trkpt>
      <trkpt lat="43.52686" lon="5.60277">
        <ele>735</ele>
        <time>2022-10-19T10:30:42.630Z</time>
      </trkpt>
      <trkpt lat="43.52685" lon="5.60276">
        <ele>735</ele>
        <time>2022-10-19T10:30:43.630Z</time>
      </trkpt>
      <trkpt lat="43.52685" lon="5.60275">
        <ele>735</ele>
        <time>2022-10-19T10:30:44.630Z</time>
      </trkpt>
      <trkpt lat="43.52685" lon="5.60273">
        <ele>734</ele>
        <time>2022-10-19T10:30:45.630Z</time>
      </trkpt>
      <trkpt lat="43.52685" lon="5.60272">
        <ele>734</ele>
        <time>2022-10-19T10:30:46.630Z</time>
      </trkpt>
      <trkpt lat="43.52685" lon="5.60271">
        <ele>734</ele>
        <time>2022-10-19T10:30:47.630Z</time>
      </trkpt>
      <trkpt lat="43.52686" lon="5.60271">
        <ele>734</ele>
        <time>2022-10-19T10:30:48.630Z</time>
      </trkpt>
      <trkpt lat="43.52686" lon="5.6027">
        <ele>734</ele>
        <time>2022-10-19T10:30:49.630Z</time>
      </trkpt>
      <trkpt lat="43.52687" lon="5.6027">
        <ele>734</ele>
        <time>2022-10-19T10:30:50.630Z</time>
      </trkpt>
      <trkpt lat="43.52688" lon="5.60269">
        <ele>734</ele>
        <time>2022-10-19T10:30:51.630Z</time>
      </trkpt>
      <trkpt lat="43.52688" lon="5.60269">
        <ele>733</ele>
        <time>2022-10-19T10:30:52.630Z</time>
      </trkpt>
      <trkpt lat="43.52689" lon="5.60268">
        <ele>733</ele>
        <time>2022-10-19T10:30:53.630Z</time>
      </trkpt>
      <trkpt lat="43.5269" lon="5.60268">
        <ele>733</ele>
        <time>2022-10-19T10:30:54.630Z</time>
      </trkpt>
      <trkpt lat="43.5269" lon="5.60267">
        <ele>733</ele>
        <time>2022-10-19T10:30:55.630Z</time>
      </trkpt>
      <trkpt lat="43.52691" lon="5.60266">
        <ele>733</ele>
        <time>2022-10-19T10:30:56.630Z</time>
      </trkpt>
      <trkpt lat="43.52691" lon="5.60266">
        <ele>733</ele>
        <time>2022-10-19T10:30:57.630Z</time>
      </trkpt>
      <trkpt lat="43.52692" lon="5.60265">
        <ele>732</ele>
        <time>2022-10-19T10:30:58.630Z</time>
      </trkpt>
      <trkpt lat="43.52692" lon="5.60264">
        <ele>732</ele>
        <time>2022-10-19T10:30:59.630Z</time>
      </trkpt>
      <trkpt lat="43.52692" lon="5.60264">
        <ele>732</ele>
        <time>2022-10-19T10:31:00.630Z</time>
      </trkpt>
      <trkpt lat="43.52692" lon="5.60264">
        <ele>732</ele>
        <time>2022-10-19T10:31:01.630Z</time>
      </trkpt>
      <trkpt lat="43.52692" lon="5.60264">
        <ele>732</ele>
        <time>2022-10-19T10:31:02.630Z</time>
      </trkpt>
      <trkpt lat="43.52692" lon="5.60265">
        <ele>732</ele>
        <time>2022-10-19T10:31:03.630Z</time>
      </trkpt>
      <trkpt lat="43.52692" lon="5.60264">
        <ele>732</ele>
        <time>2022-10-19T10:31:04.630Z</time>
      </trkpt>
      <trkpt lat="43.52693" lon="5.60264">
        <ele>732</ele>
        <time>2022-10-19T10:31:05.630Z</time>
      </trkpt>
      <trkpt lat="43.52693" lon="5.60264">
        <ele>732</ele>
        <time>2022-10-19T10:31:06.630Z</time>
      </trkpt>
      <trkpt lat="43.52694" lon="5.60263">
        <ele>732</ele>
        <time>2022-10-19T10:31:07.630Z</time>
      </trkpt>
      <trkpt lat="43.52694" lon="5.60262">
        <ele>732</ele>
        <time>2022-10-19T10:31:08.630Z</time>
      </trkpt>
      <trkpt lat="43.52695" lon="5.60262">
        <ele>732</ele>
        <time>2022-10-19T10:31:09.630Z</time>
      </trkpt>
      <trkpt lat="43.52696" lon="5.60261">
        <ele>731</ele>
        <time>2022-10-19T10:31:10.630Z</time>
      </trkpt>
      <trkpt lat="43.52697" lon="5.6026">
        <ele>731</ele>
        <time>2022-10-19T10:31:11.630Z</time>
      </trkpt>
      <trkpt lat="43.52698" lon="5.60259">
        <ele>731</ele>
        <time>2022-10-19T10:31:12.630Z</time>
      </trkpt>
      <trkpt lat="43.52698" lon="5.60258">
        <ele>731</ele>
        <time>2022-10-19T10:31:13.630Z</time>
      </trkpt>
      <trkpt lat="43.52699" lon="5.60256">
        <ele>731</ele>
        <time>2022-10-19T10:31:14.630Z</time>
      </trkpt>
      <trkpt lat="43.527" lon="5.60255">
        <ele>731</ele>
        <time>2022-10-19T10:31:15.630Z</time>
      </trkpt>
      <trkpt lat="43.527" lon="5.60254">
        <ele>731</ele>
        <time>2022-10-19T10:31:16.630Z</time>
      </trkpt>
      <trkpt lat="43.52701" lon="5.60253">
        <ele>730</ele>
        <time>2022-10-19T10:31:17.630Z</time>
      </trkpt>
      <trkpt lat="43.52702" lon="5.60252">
        <ele>730</ele>
        <time>2022-10-19T10:31:18.630Z</time>
      </trkpt>
      <trkpt lat="43.52703" lon="5.60251">
        <ele>730</ele>
        <time>2022-10-19T10:31:19.630Z</time>
      </trkpt>
      <trkpt lat="43.52704" lon="5.60251">
        <ele>730</ele>
        <time>2022-10-19T10:31:20.630Z</time>
      </trkpt>
      <trkpt lat="43.52705" lon="5.60251">
        <ele>730</ele>
        <time>2022-10-19T10:31:21.630Z</time>
      </trkpt>
      <trkpt lat="43.52706" lon="5.60251">
        <ele>730</ele>
        <time>2022-10-19T10:31:22.630Z</time>
      </trkpt>
      <trkpt lat="43.52707" lon="5.6025">
        <ele>730</ele>
        <time>2022-10-19T10:31:23.630Z</time>
      </trkpt>
      <trkpt lat="43.52708" lon="5.60249">
        <ele>730</ele>
        <time>2022-10-19T10:31:24.630Z</time>
      </trkpt>
      <trkpt lat="43.52709" lon="5.60249">
        <ele>730</ele>
        <time>2022-10-19T10:31:25.630Z</time>
      </trkpt>
      <trkpt lat="43.5271" lon="5.60248">
        <ele>730</ele>
        <time>2022-10-19T10:31:26.630Z</time>
      </trkpt>
      <trkpt lat="43.5271" lon="5.60247">
        <ele>729</ele>
        <time>2022-10-19T10:31:27.630Z</time>
      </trkpt>
      <trkpt lat="43.5271" lon="5.60247">
        <ele>729</ele>
        <time>2022-10-19T10:31:28.630Z</time>
      </trkpt>
      <trkpt lat="43.52711" lon="5.60246">
        <ele>729</ele>
        <time>2022-10-19T10:31:29.630Z</time>
      </trkpt>
      <trkpt lat="43.52711" lon="5.60245">
        <ele>729</ele>
        <time>2022-10-19T10:31:30.630Z</time>
      </trkpt>
      <trkpt lat="43.52711" lon="5.60243">
        <ele>729</ele>
        <time>2022-10-19T10:31:31.630Z</time>
      </trkpt>
      <trkpt lat="43.52711" lon="5.60242">
        <ele>729</ele>
        <time>2022-10-19T10:31:32.630Z</time>
      </trkpt>
      <trkpt lat="43.52712" lon="5.60241">
        <ele>728</ele>
        <time>2022-10-19T10:31:33.630Z</time>
      </trkpt>
      <trkpt lat="43.52713" lon="5.6024">
        <ele>728</ele>
        <time>2022-10-19T10:31:34.630Z</time>
      </trkpt>
      <trkpt lat="43.52713" lon="5.60239">
        <ele>728</ele>
        <time>2022-10-19T10:31:35.630Z</time>
      </trkpt>
      <trkpt lat="43.52714" lon="5.60239">
        <ele>728</ele>
        <time>2022-10-19T10:31:36.630Z</time>
      </trkpt>
      <trkpt lat="43.52715" lon="5.60238">
        <ele>728</ele>
        <time>2022-10-19T10:31:37.630Z</time>
      </trkpt>
      <trkpt lat="43.52716" lon="5.60237">
        <ele>728</ele>
        <time>2022-10-19T10:31:38.630Z</time>
      </trkpt>
      <trkpt lat="43.52716" lon="5.60236">
        <ele>728</ele>
        <time>2022-10-19T10:31:39.630Z</time>
      </trkpt>
      <trkpt lat="43.52717" lon="5.60236">
        <ele>727</ele>
        <time>2022-10-19T10:31:40.630Z</time>
      </trkpt>
      <trkpt lat="43.52717" lon="5.60235">
        <ele>727</ele>
        <time>2022-10-19T10:31:41.630Z</time>
      </trkpt>
      <trkpt lat="43.52718" lon="5.60234">
        <ele>727</ele>
        <time>2022-10-19T10:31:42.630Z</time>
      </trkpt>
      <trkpt lat="43.52718" lon="5.60233">
        <ele>727</ele>
        <time>2022-10-19T10:31:43.630Z</time>
      </trkpt>
      <trkpt lat="43.52718" lon="5.60232">
        <ele>727</ele>
        <time>2022-10-19T10:31:44.630Z</time>
      </trkpt>
      <trkpt lat="43.52719" lon="5.60232">
        <ele>727</ele>
        <time>2022-10-19T10:31:45.630Z</time>
      </trkpt>
      <trkpt lat="43.52719" lon="5.60231">
        <ele>727</ele>
        <time>2022-10-19T10:31:46.630Z</time>
      </trkpt>
      <trkpt lat="43.5272" lon="5.6023">
        <ele>727</ele>
        <time>2022-10-19T10:31:47.630Z</time>
      </trkpt>
      <trkpt lat="43.5272" lon="5.6023">
        <ele>726</ele>
        <time>2022-10-19T10:31:48.630Z</time>
      </trkpt>
      <trkpt lat="43.52721" lon="5.6023">
        <ele>726</ele>
        <time>2022-10-19T10:31:49.630Z</time>
      </trkpt>
      <trkpt lat="43.52721" lon="5.60229">
        <ele>726</ele>
        <time>2022-10-19T10:31:50.630Z</time>
      </trkpt>
      <trkpt lat="43.5272" lon="5.60229">
        <ele>725</ele>
        <time>2022-10-19T10:31:51.630Z</time>
      </trkpt>
      <trkpt lat="43.5272" lon="5.60228">
        <ele>725</ele>
        <time>2022-10-19T10:31:52.630Z</time>
      </trkpt>
      <trkpt lat="43.52719" lon="5.60228">
        <ele>725</ele>
        <time>2022-10-19T10:31:53.630Z</time>
      </trkpt>
      <trkpt lat="43.52718" lon="5.60228">
        <ele>725</ele>
        <time>2022-10-19T10:31:54.630Z</time>
      </trkpt>
      <trkpt lat="43.52718" lon="5.60228">
        <ele>725</ele>
        <time>2022-10-19T10:31:55.630Z</time>
      </trkpt>
      <trkpt lat="43.52717" lon="5.60228">
        <ele>724</ele>
        <time>2022-10-19T10:31:56.630Z</time>
      </trkpt>
      <trkpt lat="43.52717" lon="5.60228">
        <ele>724</ele>
        <time>2022-10-19T10:31:57.630Z</time>
      </trkpt>
      <trkpt lat="43.52716" lon="5.60228">
        <ele>724</ele>
        <time>2022-10-19T10:31:58.630Z</time>
      </trkpt>
      <trkpt lat="43.52716" lon="5.60227">
        <ele>724</ele>
        <time>2022-10-19T10:31:59.630Z</time>
      </trkpt>
      <trkpt lat="43.52717" lon="5.60226">
        <ele>724</ele>
        <time>2022-10-19T10:32:00.630Z</time>
      </trkpt>
      <trkpt lat="43.52717" lon="5.60225">
        <ele>723</ele>
        <time>2022-10-19T10:32:01.630Z</time>
      </trkpt>
      <trkpt lat="43.52717" lon="5.60224">
        <ele>723</ele>
        <time>2022-10-19T10:32:02.630Z</time>
      </trkpt>
      <trkpt lat="43.52717" lon="5.60224">
        <ele>723</ele>
        <time>2022-10-19T10:32:03.630Z</time>
      </trkpt>
      <trkpt lat="43.52717" lon="5.60223">
        <ele>723</ele>
        <time>2022-10-19T10:32:04.630Z</time>
      </trkpt>
      <trkpt lat="43.52717" lon="5.60222">
        <ele>723</ele>
        <time>2022-10-19T10:32:05.630Z</time>
      </trkpt>
      <trkpt lat="43.52717" lon="5.60221">
        <ele>723</ele>
        <time>2022-10-19T10:32:06.630Z</time>
      </trkpt>
      <trkpt lat="43.52718" lon="5.60221">
        <ele>723</ele>
        <time>2022-10-19T10:32:07.630Z</time>
      </trkpt>
      <trkpt lat="43.52718" lon="5.6022">
        <ele>722</ele>
        <time>2022-10-19T10:32:08.630Z</time>
      </trkpt>
      <trkpt lat="43.52719" lon="5.6022">
        <ele>722</ele>
        <time>2022-10-19T10:32:09.630Z</time>
      </trkpt>
      <trkpt lat="43.5272" lon="5.60219">
        <ele>722</ele>
        <time>2022-10-19T10:32:10.630Z</time>
      </trkpt>
      <trkpt lat="43.52721" lon="5.60219">
        <ele>722</ele>
        <time>2022-10-19T10:32:11.630Z</time>
      </trkpt>
      <trkpt lat="43.52721" lon="5.60218">
        <ele>722</ele>
        <time>2022-10-19T10:32:12.630Z</time>
      </trkpt>
      <trkpt lat="43.52722" lon="5.60217">
        <ele>722</ele>
        <time>2022-10-19T10:32:13.630Z</time>
      </trkpt>
      <trkpt lat="43.52722" lon="5.60216">
        <ele>722</ele>
        <time>2022-10-19T10:32:14.630Z</time>
      </trkpt>
      <trkpt lat="43.52723" lon="5.60215">
        <ele>721</ele>
        <time>2022-10-19T10:32:15.630Z</time>
      </trkpt>
      <trkpt lat="43.52723" lon="5.60214">
        <ele>721</ele>
        <time>2022-10-19T10:32:16.630Z</time>
      </trkpt>
      <trkpt lat="43.52723" lon="5.60213">
        <ele>721</ele>
        <time>2022-10-19T10:32:17.630Z</time>
      </trkpt>
      <trkpt lat="43.52723" lon="5.60212">
        <ele>721</ele>
        <time>2022-10-19T10:32:18.630Z</time>
      </trkpt>
      <trkpt lat="43.52723" lon="5.60211">
        <ele>720</ele>
        <time>2022-10-19T10:32:19.630Z</time>
      </trkpt>
      <trkpt lat="43.52722" lon="5.6021">
        <ele>720</ele>
        <time>2022-10-19T10:32:20.630Z</time>
      </trkpt>
      <trkpt lat="43.52722" lon="5.60209">
        <ele>720</ele>
        <time>2022-10-19T10:32:21.630Z</time>
      </trkpt>
      <trkpt lat="43.52722" lon="5.60207">
        <ele>719</ele>
        <time>2022-10-19T10:32:22.630Z</time>
      </trkpt>
      <trkpt lat="43.52722" lon="5.60206">
        <ele>719</ele>
        <time>2022-10-19T10:32:23.630Z</time>
      </trkpt>
      <trkpt lat="43.52722" lon="5.60204">
        <ele>719</ele>
        <time>2022-10-19T10:32:24.630Z</time>
      </trkpt>
      <trkpt lat="43.52722" lon="5.60203">
        <ele>718</ele>
        <time>2022-10-19T10:32:25.630Z</time>
      </trkpt>
      <trkpt lat="43.52722" lon="5.60202">
        <ele>718</ele>
        <time>2022-10-19T10:32:26.630Z</time>
      </trkpt>
      <trkpt lat="43.52723" lon="5.60201">
        <ele>718</ele>
        <time>2022-10-19T10:32:27.630Z</time>
      </trkpt>
      <trkpt lat="43.52723" lon="5.60201">
        <ele>717</ele>
        <time>2022-10-19T10:32:28.630Z</time>
      </trkpt>
      <trkpt lat="43.52723" lon="5.602">
        <ele>717</ele>
        <time>2022-10-19T10:32:29.630Z</time>
      </trkpt>
      <trkpt lat="43.52722" lon="5.60199">
        <ele>717</ele>
        <time>2022-10-19T10:32:30.630Z</time>
      </trkpt>
      <trkpt lat="43.52722" lon="5.60198">
        <ele>716</ele>
        <time>2022-10-19T10:32:31.630Z</time>
      </trkpt>
      <trkpt lat="43.52722" lon="5.60197">
        <ele>716</ele>
        <time>2022-10-19T10:32:32.630Z</time>
      </trkpt>
      <trkpt lat="43.52721" lon="5.60196">
        <ele>716</ele>
        <time>2022-10-19T10:32:33.630Z</time>
      </trkpt>
      <trkpt lat="43.52722" lon="5.60195">
        <ele>715</ele>
        <time>2022-10-19T10:32:34.630Z</time>
      </trkpt>
      <trkpt lat="43.52721" lon="5.60195">
        <ele>715</ele>
        <time>2022-10-19T10:32:35.630Z</time>
      </trkpt>
      <trkpt lat="43.52721" lon="5.60194">
        <ele>715</ele>
        <time>2022-10-19T10:32:36.630Z</time>
      </trkpt>
      <trkpt lat="43.52721" lon="5.60193">
        <ele>714</ele>
        <time>2022-10-19T10:32:37.630Z</time>
      </trkpt>
      <trkpt lat="43.52721" lon="5.60192">
        <ele>714</ele>
        <time>2022-10-19T10:32:38.630Z</time>
      </trkpt>
      <trkpt lat="43.52721" lon="5.60191">
        <ele>714</ele>
        <time>2022-10-19T10:32:39.630Z</time>
      </trkpt>
      <trkpt lat="43.52721" lon="5.6019">
        <ele>713</ele>
        <time>2022-10-19T10:32:40.630Z</time>
      </trkpt>
      <trkpt lat="43.52721" lon="5.60189">
        <ele>713</ele>
        <time>2022-10-19T10:32:41.630Z</time>
      </trkpt>
      <trkpt lat="43.5272" lon="5.60188">
        <ele>713</ele>
        <time>2022-10-19T10:32:42.630Z</time>
      </trkpt>
      <trkpt lat="43.5272" lon="5.60187">
        <ele>712</ele>
        <time>2022-10-19T10:32:43.630Z</time>
      </trkpt>
      <trkpt lat="43.5272" lon="5.60186">
        <ele>712</ele>
        <time>2022-10-19T10:32:44.630Z</time>
      </trkpt>
      <trkpt lat="43.5272" lon="5.60185">
        <ele>712</ele>
        <time>2022-10-19T10:32:45.630Z</time>
      </trkpt>
      <trkpt lat="43.5272" lon="5.60184">
        <ele>712</ele>
        <time>2022-10-19T10:32:46.630Z</time>
      </trkpt>
      <trkpt lat="43.52719" lon="5.60183">
        <ele>711</ele>
        <time>2022-10-19T10:32:47.630Z</time>
      </trkpt>
      <trkpt lat="43.52719" lon="5.60182">
        <ele>711</ele>
        <time>2022-10-19T10:32:48.630Z</time>
      </trkpt>
      <trkpt lat="43.52718" lon="5.60181">
        <ele>710</ele>
        <time>2022-10-19T10:32:49.630Z</time>
      </trkpt>
      <trkpt lat="43.52718" lon="5.60181">
        <ele>710</ele>
        <time>2022-10-19T10:32:50.630Z</time>
      </trkpt>
      <trkpt lat="43.52718" lon="5.6018">
        <ele>710</ele>
        <time>2022-10-19T10:32:51.630Z</time>
      </trkpt>
      <trkpt lat="43.52717" lon="5.60179">
        <ele>709</ele>
        <time>2022-10-19T10:32:52.630Z</time>
      </trkpt>
      <trkpt lat="43.52717" lon="5.60179">
        <ele>709</ele>
        <time>2022-10-19T10:32:53.630Z</time>
      </trkpt>
      <trkpt lat="43.52716" lon="5.60178">
        <ele>709</ele>
        <time>2022-10-19T10:32:54.630Z</time>
      </trkpt>
      <trkpt lat="43.52716" lon="5.60177">
        <ele>709</ele>
        <time>2022-10-19T10:32:55.630Z</time>
      </trkpt>
      <trkpt lat="43.52716" lon="5.60176">
        <ele>709</ele>
        <time>2022-10-19T10:32:56.630Z</time>
      </trkpt>
      <trkpt lat="43.52715" lon="5.60176">
        <ele>708</ele>
        <time>2022-10-19T10:32:57.630Z</time>
      </trkpt>
      <trkpt lat="43.52715" lon="5.60175">
        <ele>708</ele>
        <time>2022-10-19T10:32:58.630Z</time>
      </trkpt>
      <trkpt lat="43.52715" lon="5.60174">
        <ele>708</ele>
        <time>2022-10-19T10:32:59.630Z</time>
      </trkpt>
      <trkpt lat="43.52715" lon="5.60174">
        <ele>708</ele>
        <time>2022-10-19T10:33:00.630Z</time>
      </trkpt>
      <trkpt lat="43.52715" lon="5.60173">
        <ele>707</ele>
        <time>2022-10-19T10:33:01.630Z</time>
      </trkpt>
      <trkpt lat="43.52714" lon="5.60172">
        <ele>707</ele>
        <time>2022-10-19T10:33:02.630Z</time>
      </trkpt>
      <trkpt lat="43.52714" lon="5.60171">
        <ele>707</ele>
        <time>2022-10-19T10:33:03.630Z</time>
      </trkpt>
      <trkpt lat="43.52714" lon="5.6017">
        <ele>707</ele>
        <time>2022-10-19T10:33:04.630Z</time>
      </trkpt>
      <trkpt lat="43.52714" lon="5.6017">
        <ele>706</ele>
        <time>2022-10-19T10:33:05.630Z</time>
      </trkpt>
      <trkpt lat="43.52713" lon="5.60169">
        <ele>706</ele>
        <time>2022-10-19T10:33:06.630Z</time>
      </trkpt>
      <trkpt lat="43.52713" lon="5.60168">
        <ele>706</ele>
        <time>2022-10-19T10:33:07.630Z</time>
      </trkpt>
      <trkpt lat="43.52713" lon="5.60167">
        <ele>706</ele>
        <time>2022-10-19T10:33:08.630Z</time>
      </trkpt>
      <trkpt lat="43.52712" lon="5.60166">
        <ele>705</ele>
        <time>2022-10-19T10:33:09.630Z</time>
      </trkpt>
      <trkpt lat="43.52712" lon="5.60165">
        <ele>705</ele>
        <time>2022-10-19T10:33:10.630Z</time>
      </trkpt>
      <trkpt lat="43.52711" lon="5.60164">
        <ele>705</ele>
        <time>2022-10-19T10:33:11.630Z</time>
      </trkpt>
      <trkpt lat="43.52711" lon="5.60163">
        <ele>705</ele>
        <time>2022-10-19T10:33:12.630Z</time>
      </trkpt>
      <trkpt lat="43.5271" lon="5.60161">
        <ele>704</ele>
        <time>2022-10-19T10:33:13.630Z</time>
      </trkpt>
      <trkpt lat="43.5271" lon="5.6016">
        <ele>704</ele>
        <time>2022-10-19T10:33:14.630Z</time>
      </trkpt>
      <trkpt lat="43.52709" lon="5.60159">
        <ele>704</ele>
        <time>2022-10-19T10:33:15.630Z</time>
      </trkpt>
      <trkpt lat="43.52709" lon="5.60158">
        <ele>704</ele>
        <time>2022-10-19T10:33:16.630Z</time>
      </trkpt>
      <trkpt lat="43.52708" lon="5.60157">
        <ele>703</ele>
        <time>2022-10-19T10:33:17.630Z</time>
      </trkpt>
      <trkpt lat="43.52708" lon="5.60157">
        <ele>703</ele>
        <time>2022-10-19T10:33:18.630Z</time>
      </trkpt>
      <trkpt lat="43.52707" lon="5.60156">
        <ele>703</ele>
        <time>2022-10-19T10:33:19.630Z</time>
      </trkpt>
      <trkpt lat="43.52707" lon="5.60155">
        <ele>703</ele>
        <time>2022-10-19T10:33:20.630Z</time>
      </trkpt>
      <trkpt lat="43.52707" lon="5.60154">
        <ele>702</ele>
        <time>2022-10-19T10:33:21.630Z</time>
      </trkpt>
      <trkpt lat="43.52706" lon="5.60153">
        <ele>702</ele>
        <time>2022-10-19T10:33:22.630Z</time>
      </trkpt>
      <trkpt lat="43.52706" lon="5.60152">
        <ele>702</ele>
        <time>2022-10-19T10:33:23.630Z</time>
      </trkpt>
      <trkpt lat="43.52706" lon="5.60151">
        <ele>702</ele>
        <time>2022-10-19T10:33:24.630Z</time>
      </trkpt>
      <trkpt lat="43.52705" lon="5.60149">
        <ele>701</ele>
        <time>2022-10-19T10:33:25.630Z</time>
      </trkpt>
      <trkpt lat="43.52705" lon="5.60148">
        <ele>701</ele>
        <time>2022-10-19T10:33:26.630Z</time>
      </trkpt>
      <trkpt lat="43.52704" lon="5.60147">
        <ele>701</ele>
        <time>2022-10-19T10:33:27.630Z</time>
      </trkpt>
      <trkpt lat="43.52704" lon="5.60146">
        <ele>701</ele>
        <time>2022-10-19T10:33:28.630Z</time>
      </trkpt>
      <trkpt lat="43.52704" lon="5.60145">
        <ele>701</ele>
        <time>2022-10-19T10:33:29.630Z</time>
      </trkpt>
      <trkpt lat="43.52704" lon="5.60144">
        <ele>700</ele>
        <time>2022-10-19T10:33:30.630Z</time>
      </trkpt>
      <trkpt lat="43.52704" lon="5.60143">
        <ele>700</ele>
        <time>2022-10-19T10:33:31.630Z</time>
      </trkpt>
      <trkpt lat="43.52704" lon="5.60143">
        <ele>700</ele>
        <time>2022-10-19T10:33:32.630Z</time>
      </trkpt>
      <trkpt lat="43.52704" lon="5.60143">
        <ele>700</ele>
        <time>2022-10-19T10:33:33.630Z</time>
      </trkpt>
      <trkpt lat="43.52704" lon="5.60143">
        <ele>700</ele>
        <time>2022-10-19T10:33:34.630Z</time>
      </trkpt>
      <trkpt lat="43.52704" lon="5.60142">
        <ele>700</ele>
        <time>2022-10-19T10:33:35.630Z</time>
      </trkpt>
      <trkpt lat="43.52704" lon="5.60141">
        <ele>699</ele>
        <time>2022-10-19T10:33:36.630Z</time>
      </trkpt>
      <trkpt lat="43.52703" lon="5.6014">
        <ele>699</ele>
        <time>2022-10-19T10:33:37.630Z</time>
      </trkpt>
      <trkpt lat="43.52703" lon="5.60139">
        <ele>699</ele>
        <time>2022-10-19T10:33:38.630Z</time>
      </trkpt>
      <trkpt lat="43.52703" lon="5.60138">
        <ele>699</ele>
        <time>2022-10-19T10:33:39.630Z</time>
      </trkpt>
      <trkpt lat="43.52702" lon="5.60137">
        <ele>698</ele>
        <time>2022-10-19T10:33:40.630Z</time>
      </trkpt>
      <trkpt lat="43.52702" lon="5.60137">
        <ele>698</ele>
        <time>2022-10-19T10:33:41.630Z</time>
      </trkpt>
      <trkpt lat="43.52701" lon="5.60136">
        <ele>698</ele>
        <time>2022-10-19T10:33:42.630Z</time>
      </trkpt>
      <trkpt lat="43.52701" lon="5.60135">
        <ele>698</ele>
        <time>2022-10-19T10:33:43.630Z</time>
      </trkpt>
      <trkpt lat="43.527" lon="5.60134">
        <ele>697</ele>
        <time>2022-10-19T10:33:44.630Z</time>
      </trkpt>
      <trkpt lat="43.527" lon="5.60134">
        <ele>697</ele>
        <time>2022-10-19T10:33:45.630Z</time>
      </trkpt>
      <trkpt lat="43.52699" lon="5.60133">
        <ele>697</ele>
        <time>2022-10-19T10:33:46.630Z</time>
      </trkpt>
      <trkpt lat="43.52698" lon="5.60132">
        <ele>697</ele>
        <time>2022-10-19T10:33:47.630Z</time>
      </trkpt>
      <trkpt lat="43.52698" lon="5.60131">
        <ele>696</ele>
        <time>2022-10-19T10:33:48.630Z</time>
      </trkpt>
      <trkpt lat="43.52697" lon="5.6013">
        <ele>696</ele>
        <time>2022-10-19T10:33:49.630Z</time>
      </trkpt>
      <trkpt lat="43.52697" lon="5.60128">
        <ele>696</ele>
        <time>2022-10-19T10:33:50.630Z</time>
      </trkpt>
      <trkpt lat="43.52697" lon="5.60127">
        <ele>695</ele>
        <time>2022-10-19T10:33:51.630Z</time>
      </trkpt>
      <trkpt lat="43.52697" lon="5.60125">
        <ele>695</ele>
        <time>2022-10-19T10:33:52.630Z</time>
      </trkpt>
      <trkpt lat="43.52697" lon="5.60124">
        <ele>695</ele>
        <time>2022-10-19T10:33:53.630Z</time>
      </trkpt>
      <trkpt lat="43.52697" lon="5.60122">
        <ele>695</ele>
        <time>2022-10-19T10:33:54.630Z</time>
      </trkpt>
      <trkpt lat="43.52697" lon="5.60121">
        <ele>694</ele>
        <time>2022-10-19T10:33:55.630Z</time>
      </trkpt>
      <trkpt lat="43.52697" lon="5.6012">
        <ele>694</ele>
        <time>2022-10-19T10:33:56.630Z</time>
      </trkpt>
      <trkpt lat="43.52697" lon="5.60119">
        <ele>694</ele>
        <time>2022-10-19T10:33:57.630Z</time>
      </trkpt>
      <trkpt lat="43.52697" lon="5.60118">
        <ele>694</ele>
        <time>2022-10-19T10:33:58.630Z</time>
      </trkpt>
      <trkpt lat="43.52697" lon="5.60118">
        <ele>694</ele>
        <time>2022-10-19T10:33:59.630Z</time>
      </trkpt>
      <trkpt lat="43.52697" lon="5.60118">
        <ele>694</ele>
        <time>2022-10-19T10:34:00.630Z</time>
      </trkpt>
      <trkpt lat="43.52697" lon="5.60117">
        <ele>694</ele>
        <time>2022-10-19T10:34:01.630Z</time>
      </trkpt>
      <trkpt lat="43.52697" lon="5.60117">
        <ele>693</ele>
        <time>2022-10-19T10:34:02.630Z</time>
      </trkpt>
      <trkpt lat="43.52697" lon="5.60117">
        <ele>693</ele>
        <time>2022-10-19T10:34:03.630Z</time>
      </trkpt>
      <trkpt lat="43.52697" lon="5.60117">
        <ele>693</ele>
        <time>2022-10-19T10:34:04.630Z</time>
      </trkpt>
      <trkpt lat="43.52697" lon="5.60117">
        <ele>693</ele>
        <time>2022-10-19T10:34:05.630Z</time>
      </trkpt>
      <trkpt lat="43.52697" lon="5.60117">
        <ele>693</ele>
        <time>2022-10-19T10:34:06.630Z</time>
      </trkpt>
      <trkpt lat="43.52697" lon="5.60117">
        <ele>693</ele>
        <time>2022-10-19T10:34:07.630Z</time>
      </trkpt>
      <trkpt lat="43.52697" lon="5.60117">
        <ele>693</ele>
        <time>2022-10-19T10:34:08.630Z</time>
      </trkpt>
      <trkpt lat="43.52697" lon="5.60117">
        <ele>693</ele>
        <time>2022-10-19T10:34:09.630Z</time>
      </trkpt>
      <trkpt lat="43.52697" lon="5.60117">
        <ele>693</ele>
        <time>2022-10-19T10:34:10.630Z</time>
      </trkpt>
      <trkpt lat="43.52697" lon="5.60116">
        <ele>693</ele>
        <time>2022-10-19T10:34:11.630Z</time>
      </trkpt>
      <trkpt lat="43.52697" lon="5.60114">
        <ele>693</ele>
        <time>2022-10-19T10:34:12.630Z</time>
      </trkpt>
      <trkpt lat="43.52697" lon="5.60113">
        <ele>693</ele>
        <time>2022-10-19T10:34:13.630Z</time>
      </trkpt>
      <trkpt lat="43.52697" lon="5.60112">
        <ele>693</ele>
        <time>2022-10-19T10:34:14.630Z</time>
      </trkpt>
      <trkpt lat="43.52697" lon="5.60111">
        <ele>692</ele>
        <time>2022-10-19T10:34:15.630Z</time>
      </trkpt>
      <trkpt lat="43.52696" lon="5.60109">
        <ele>692</ele>
        <time>2022-10-19T10:34:16.630Z</time>
      </trkpt>
      <trkpt lat="43.52696" lon="5.60108">
        <ele>692</ele>
        <time>2022-10-19T10:34:17.630Z</time>
      </trkpt>
      <trkpt lat="43.52696" lon="5.60107">
        <ele>692</ele>
        <time>2022-10-19T10:34:18.630Z</time>
      </trkpt>
      <trkpt lat="43.52695" lon="5.60105">
        <ele>692</ele>
        <time>2022-10-19T10:34:19.630Z</time>
      </trkpt>
      <trkpt lat="43.52695" lon="5.60104">
        <ele>692</ele>
        <time>2022-10-19T10:34:20.630Z</time>
      </trkpt>
      <trkpt lat="43.52695" lon="5.60103">
        <ele>691</ele>
        <time>2022-10-19T10:34:21.630Z</time>
      </trkpt>
      <trkpt lat="43.52695" lon="5.60103">
        <ele>691</ele>
        <time>2022-10-19T10:34:22.630Z</time>
      </trkpt>
      <trkpt lat="43.52695" lon="5.60103">
        <ele>691</ele>
        <time>2022-10-19T10:34:23.630Z</time>
      </trkpt>
      <trkpt lat="43.52694" lon="5.60103">
        <ele>691</ele>
        <time>2022-10-19T10:34:24.630Z</time>
      </trkpt>
      <trkpt lat="43.52694" lon="5.60102">
        <ele>690</ele>
        <time>2022-10-19T10:34:25.630Z</time>
      </trkpt>
      <trkpt lat="43.52693" lon="5.60102">
        <ele>690</ele>
        <time>2022-10-19T10:34:26.630Z</time>
      </trkpt>
      <trkpt lat="43.52692" lon="5.60102">
        <ele>690</ele>
        <time>2022-10-19T10:34:27.630Z</time>
      </trkpt>
      <trkpt lat="43.52692" lon="5.60102">
        <ele>690</ele>
        <time>2022-10-19T10:34:28.630Z</time>
      </trkpt>
      <trkpt lat="43.52692" lon="5.60101">
        <ele>689</ele>
        <time>2022-10-19T10:34:29.630Z</time>
      </trkpt>
      <trkpt lat="43.52692" lon="5.601">
        <ele>689</ele>
        <time>2022-10-19T10:34:30.630Z</time>
      </trkpt>
      <trkpt lat="43.52692" lon="5.60099">
        <ele>689</ele>
        <time>2022-10-19T10:34:31.630Z</time>
      </trkpt>
      <trkpt lat="43.52692" lon="5.60099">
        <ele>689</ele>
        <time>2022-10-19T10:34:32.630Z</time>
      </trkpt>
      <trkpt lat="43.52691" lon="5.60098">
        <ele>688</ele>
        <time>2022-10-19T10:34:33.630Z</time>
      </trkpt>
      <trkpt lat="43.52691" lon="5.60098">
        <ele>688</ele>
        <time>2022-10-19T10:34:34.630Z</time>
      </trkpt>
      <trkpt lat="43.5269" lon="5.60098">
        <ele>688</ele>
        <time>2022-10-19T10:34:35.630Z</time>
      </trkpt>
      <trkpt lat="43.5269" lon="5.60097">
        <ele>687</ele>
        <time>2022-10-19T10:34:36.630Z</time>
      </trkpt>
      <trkpt lat="43.5269" lon="5.60097">
        <ele>687</ele>
        <time>2022-10-19T10:34:37.630Z</time>
      </trkpt>
      <trkpt lat="43.52689" lon="5.60096">
        <ele>687</ele>
        <time>2022-10-19T10:34:38.630Z</time>
      </trkpt>
      <trkpt lat="43.52689" lon="5.60095">
        <ele>687</ele>
        <time>2022-10-19T10:34:39.630Z</time>
      </trkpt>
      <trkpt lat="43.52689" lon="5.60094">
        <ele>686</ele>
        <time>2022-10-19T10:34:40.630Z</time>
      </trkpt>
      <trkpt lat="43.52688" lon="5.60093">
        <ele>686</ele>
        <time>2022-10-19T10:34:41.630Z</time>
      </trkpt>
      <trkpt lat="43.52687" lon="5.60092">
        <ele>686</ele>
        <time>2022-10-19T10:34:42.630Z</time>
      </trkpt>
      <trkpt lat="43.52687" lon="5.60091">
        <ele>686</ele>
        <time>2022-10-19T10:34:43.630Z</time>
      </trkpt>
      <trkpt lat="43.52686" lon="5.6009">
        <ele>685</ele>
        <time>2022-10-19T10:34:44.630Z</time>
      </trkpt>
      <trkpt lat="43.52686" lon="5.60088">
        <ele>685</ele>
        <time>2022-10-19T10:34:45.630Z</time>
      </trkpt>
      <trkpt lat="43.52686" lon="5.60087">
        <ele>685</ele>
        <time>2022-10-19T10:34:46.630Z</time>
      </trkpt>
      <trkpt lat="43.52686" lon="5.60086">
        <ele>685</ele>
        <time>2022-10-19T10:34:47.630Z</time>
      </trkpt>
      <trkpt lat="43.52686" lon="5.60084">
        <ele>685</ele>
        <time>2022-10-19T10:34:48.630Z</time>
      </trkpt>
      <trkpt lat="43.52686" lon="5.60083">
        <ele>684</ele>
        <time>2022-10-19T10:34:49.630Z</time>
      </trkpt>
      <trkpt lat="43.52686" lon="5.60082">
        <ele>684</ele>
        <time>2022-10-19T10:34:50.630Z</time>
      </trkpt>
      <trkpt lat="43.52685" lon="5.60081">
        <ele>684</ele>
        <time>2022-10-19T10:34:51.630Z</time>
      </trkpt>
      <trkpt lat="43.52684" lon="5.6008">
        <ele>684</ele>
        <time>2022-10-19T10:34:52.630Z</time>
      </trkpt>
      <trkpt lat="43.52684" lon="5.6008">
        <ele>683</ele>
        <time>2022-10-19T10:34:53.630Z</time>
      </trkpt>
      <trkpt lat="43.52683" lon="5.60079">
        <ele>683</ele>
        <time>2022-10-19T10:34:54.630Z</time>
      </trkpt>
      <trkpt lat="43.52682" lon="5.60077">
        <ele>683</ele>
        <time>2022-10-19T10:34:55.630Z</time>
      </trkpt>
      <trkpt lat="43.52682" lon="5.60076">
        <ele>683</ele>
        <time>2022-10-19T10:34:56.630Z</time>
      </trkpt>
      <trkpt lat="43.52682" lon="5.60075">
        <ele>682</ele>
        <time>2022-10-19T10:34:57.630Z</time>
      </trkpt>
      <trkpt lat="43.52681" lon="5.60074">
        <ele>682</ele>
        <time>2022-10-19T10:34:58.630Z</time>
      </trkpt>
      <trkpt lat="43.52681" lon="5.60074">
        <ele>682</ele>
        <time>2022-10-19T10:34:59.630Z</time>
      </trkpt>
      <trkpt lat="43.52681" lon="5.60074">
        <ele>682</ele>
        <time>2022-10-19T10:35:00.630Z</time>
      </trkpt>
      <trkpt lat="43.5268" lon="5.60074">
        <ele>682</ele>
        <time>2022-10-19T10:35:01.630Z</time>
      </trkpt>
      <trkpt lat="43.52679" lon="5.60074">
        <ele>682</ele>
        <time>2022-10-19T10:35:02.630Z</time>
      </trkpt>
      <trkpt lat="43.52678" lon="5.60074">
        <ele>681</ele>
        <time>2022-10-19T10:35:03.630Z</time>
      </trkpt>
      <trkpt lat="43.52677" lon="5.60073">
        <ele>681</ele>
        <time>2022-10-19T10:35:04.630Z</time>
      </trkpt>
      <trkpt lat="43.52677" lon="5.60071">
        <ele>681</ele>
        <time>2022-10-19T10:35:05.630Z</time>
      </trkpt>
      <trkpt lat="43.52676" lon="5.6007">
        <ele>681</ele>
        <time>2022-10-19T10:35:06.630Z</time>
      </trkpt>
      <trkpt lat="43.52676" lon="5.60069">
        <ele>681</ele>
        <time>2022-10-19T10:35:07.630Z</time>
      </trkpt>
      <trkpt lat="43.52675" lon="5.60067">
        <ele>681</ele>
        <time>2022-10-19T10:35:08.630Z</time>
      </trkpt>
      <trkpt lat="43.52675" lon="5.60066">
        <ele>681</ele>
        <time>2022-10-19T10:35:09.630Z</time>
      </trkpt>
      <trkpt lat="43.52674" lon="5.60065">
        <ele>681</ele>
        <time>2022-10-19T10:35:10.630Z</time>
      </trkpt>
      <trkpt lat="43.52673" lon="5.60065">
        <ele>681</ele>
        <time>2022-10-19T10:35:11.630Z</time>
      </trkpt>
      <trkpt lat="43.52673" lon="5.60063">
        <ele>681</ele>
        <time>2022-10-19T10:35:12.630Z</time>
      </trkpt>
      <trkpt lat="43.52672" lon="5.60062">
        <ele>680</ele>
        <time>2022-10-19T10:35:13.630Z</time>
      </trkpt>
      <trkpt lat="43.52672" lon="5.6006">
        <ele>680</ele>
        <time>2022-10-19T10:35:14.630Z</time>
      </trkpt>
      <trkpt lat="43.52671" lon="5.60059">
        <ele>680</ele>
        <time>2022-10-19T10:35:15.630Z</time>
      </trkpt>
      <trkpt lat="43.52671" lon="5.60058">
        <ele>680</ele>
        <time>2022-10-19T10:35:16.630Z</time>
      </trkpt>
      <trkpt lat="43.5267" lon="5.60058">
        <ele>680</ele>
        <time>2022-10-19T10:35:17.630Z</time>
      </trkpt>
      <trkpt lat="43.5267" lon="5.60057">
        <ele>679</ele>
        <time>2022-10-19T10:35:18.630Z</time>
      </trkpt>
      <trkpt lat="43.52669" lon="5.60056">
        <ele>679</ele>
        <time>2022-10-19T10:35:19.630Z</time>
      </trkpt>
      <trkpt lat="43.52668" lon="5.60056">
        <ele>679</ele>
        <time>2022-10-19T10:35:20.630Z</time>
      </trkpt>
      <trkpt lat="43.52667" lon="5.60055">
        <ele>679</ele>
        <time>2022-10-19T10:35:21.630Z</time>
      </trkpt>
      <trkpt lat="43.52667" lon="5.60055">
        <ele>678</ele>
        <time>2022-10-19T10:35:22.630Z</time>
      </trkpt>
      <trkpt lat="43.52666" lon="5.60055">
        <ele>678</ele>
        <time>2022-10-19T10:35:23.630Z</time>
      </trkpt>
      <trkpt lat="43.52666" lon="5.60055">
        <ele>678</ele>
        <time>2022-10-19T10:35:24.630Z</time>
      </trkpt>
      <trkpt lat="43.52665" lon="5.60056">
        <ele>678</ele>
        <time>2022-10-19T10:35:25.630Z</time>
      </trkpt>
      <trkpt lat="43.52664" lon="5.60056">
        <ele>678</ele>
        <time>2022-10-19T10:35:26.630Z</time>
      </trkpt>
      <trkpt lat="43.52664" lon="5.60056">
        <ele>677</ele>
        <time>2022-10-19T10:35:27.630Z</time>
      </trkpt>
      <trkpt lat="43.52663" lon="5.60056">
        <ele>677</ele>
        <time>2022-10-19T10:35:28.630Z</time>
      </trkpt>
      <trkpt lat="43.52662" lon="5.60055">
        <ele>677</ele>
        <time>2022-10-19T10:35:29.630Z</time>
      </trkpt>
      <trkpt lat="43.52662" lon="5.60055">
        <ele>677</ele>
        <time>2022-10-19T10:35:30.630Z</time>
      </trkpt>
      <trkpt lat="43.52661" lon="5.60055">
        <ele>677</ele>
        <time>2022-10-19T10:35:31.630Z</time>
      </trkpt>
      <trkpt lat="43.5266" lon="5.60055">
        <ele>677</ele>
        <time>2022-10-19T10:35:32.630Z</time>
      </trkpt>
      <trkpt lat="43.52659" lon="5.60054">
        <ele>676</ele>
        <time>2022-10-19T10:35:33.630Z</time>
      </trkpt>
      <trkpt lat="43.52658" lon="5.60054">
        <ele>676</ele>
        <time>2022-10-19T10:35:34.630Z</time>
      </trkpt>
      <trkpt lat="43.52657" lon="5.60054">
        <ele>676</ele>
        <time>2022-10-19T10:35:35.630Z</time>
      </trkpt>
      <trkpt lat="43.52657" lon="5.60054">
        <ele>676</ele>
        <time>2022-10-19T10:35:36.630Z</time>
      </trkpt>
      <trkpt lat="43.52656" lon="5.60054">
        <ele>676</ele>
        <time>2022-10-19T10:35:37.630Z</time>
      </trkpt>
      <trkpt lat="43.52655" lon="5.60054">
        <ele>676</ele>
        <time>2022-10-19T10:35:38.630Z</time>
      </trkpt>
      <trkpt lat="43.52654" lon="5.60053">
        <ele>676</ele>
        <time>2022-10-19T10:35:39.630Z</time>
      </trkpt>
      <trkpt lat="43.52653" lon="5.60053">
        <ele>675</ele>
        <time>2022-10-19T10:35:40.630Z</time>
      </trkpt>
      <trkpt lat="43.52653" lon="5.60053">
        <ele>675</ele>
        <time>2022-10-19T10:35:41.630Z</time>
      </trkpt>
      <trkpt lat="43.52652" lon="5.60053">
        <ele>675</ele>
        <time>2022-10-19T10:35:42.630Z</time>
      </trkpt>
      <trkpt lat="43.52652" lon="5.60054">
        <ele>675</ele>
        <time>2022-10-19T10:35:43.630Z</time>
      </trkpt>
      <trkpt lat="43.52652" lon="5.60054">
        <ele>675</ele>
        <time>2022-10-19T10:35:44.630Z</time>
      </trkpt>
      <trkpt lat="43.52652" lon="5.60055">
        <ele>675</ele>
        <time>2022-10-19T10:35:45.630Z</time>
      </trkpt>
      <trkpt lat="43.52651" lon="5.60055">
        <ele>675</ele>
        <time>2022-10-19T10:35:46.630Z</time>
      </trkpt>
      <trkpt lat="43.52651" lon="5.60056">
        <ele>675</ele>
        <time>2022-10-19T10:35:47.630Z</time>
      </trkpt>
      <trkpt lat="43.52652" lon="5.60057">
        <ele>674</ele>
        <time>2022-10-19T10:35:48.630Z</time>
      </trkpt>
      <trkpt lat="43.52652" lon="5.60057">
        <ele>674</ele>
        <time>2022-10-19T10:35:49.630Z</time>
      </trkpt>
      <trkpt lat="43.52652" lon="5.60058">
        <ele>674</ele>
        <time>2022-10-19T10:35:50.630Z</time>
      </trkpt>
      <trkpt lat="43.52652" lon="5.60059">
        <ele>674</ele>
        <time>2022-10-19T10:35:51.630Z</time>
      </trkpt>
      <trkpt lat="43.52651" lon="5.6006">
        <ele>674</ele>
        <time>2022-10-19T10:35:52.630Z</time>
      </trkpt>
      <trkpt lat="43.52651" lon="5.6006">
        <ele>673</ele>
        <time>2022-10-19T10:35:53.630Z</time>
      </trkpt>
      <trkpt lat="43.52651" lon="5.60061">
        <ele>673</ele>
        <time>2022-10-19T10:35:54.630Z</time>
      </trkpt>
      <trkpt lat="43.52651" lon="5.60062">
        <ele>673</ele>
        <time>2022-10-19T10:35:55.630Z</time>
      </trkpt>
      <trkpt lat="43.52651" lon="5.60063">
        <ele>673</ele>
        <time>2022-10-19T10:35:56.630Z</time>
      </trkpt>
      <trkpt lat="43.5265" lon="5.60064">
        <ele>672</ele>
        <time>2022-10-19T10:35:57.630Z</time>
      </trkpt>
      <trkpt lat="43.5265" lon="5.60065">
        <ele>672</ele>
        <time>2022-10-19T10:35:58.630Z</time>
      </trkpt>
      <trkpt lat="43.52649" lon="5.60065">
        <ele>672</ele>
        <time>2022-10-19T10:35:59.630Z</time>
      </trkpt>
      <trkpt lat="43.52648" lon="5.60065">
        <ele>672</ele>
        <time>2022-10-19T10:36:00.630Z</time>
      </trkpt>
      <trkpt lat="43.52647" lon="5.60065">
        <ele>671</ele>
        <time>2022-10-19T10:36:01.630Z</time>
      </trkpt>
      <trkpt lat="43.52646" lon="5.60064">
        <ele>671</ele>
        <time>2022-10-19T10:36:02.630Z</time>
      </trkpt>
      <trkpt lat="43.52646" lon="5.60064">
        <ele>671</ele>
        <time>2022-10-19T10:36:03.630Z</time>
      </trkpt>
      <trkpt lat="43.52646" lon="5.60063">
        <ele>671</ele>
        <time>2022-10-19T10:36:04.630Z</time>
      </trkpt>
      <trkpt lat="43.52646" lon="5.60064">
        <ele>670</ele>
        <time>2022-10-19T10:36:05.630Z</time>
      </trkpt>
      <trkpt lat="43.52646" lon="5.60064">
        <ele>670</ele>
        <time>2022-10-19T10:36:06.630Z</time>
      </trkpt>
      <trkpt lat="43.52646" lon="5.60064">
        <ele>670</ele>
        <time>2022-10-19T10:36:07.630Z</time>
      </trkpt>
      <trkpt lat="43.52646" lon="5.60064">
        <ele>670</ele>
        <time>2022-10-19T10:36:08.630Z</time>
      </trkpt>
      <trkpt lat="43.52646" lon="5.60064">
        <ele>670</ele>
        <time>2022-10-19T10:36:09.630Z</time>
      </trkpt>
      <trkpt lat="43.52645" lon="5.60064">
        <ele>670</ele>
        <time>2022-10-19T10:36:10.630Z</time>
      </trkpt>
      <trkpt lat="43.52645" lon="5.60064">
        <ele>669</ele>
        <time>2022-10-19T10:36:11.630Z</time>
      </trkpt>
      <trkpt lat="43.52644" lon="5.60064">
        <ele>669</ele>
        <time>2022-10-19T10:36:12.630Z</time>
      </trkpt>
      <trkpt lat="43.52643" lon="5.60063">
        <ele>669</ele>
        <time>2022-10-19T10:36:13.630Z</time>
      </trkpt>
      <trkpt lat="43.52643" lon="5.60064">
        <ele>669</ele>
        <time>2022-10-19T10:36:14.630Z</time>
      </trkpt>
      <trkpt lat="43.52642" lon="5.60064">
        <ele>669</ele>
        <time>2022-10-19T10:36:15.630Z</time>
      </trkpt>
      <trkpt lat="43.52641" lon="5.60064">
        <ele>668</ele>
        <time>2022-10-19T10:36:16.630Z</time>
      </trkpt>
      <trkpt lat="43.52641" lon="5.60065">
        <ele>668</ele>
        <time>2022-10-19T10:36:17.630Z</time>
      </trkpt>
      <trkpt lat="43.52641" lon="5.60066">
        <ele>668</ele>
        <time>2022-10-19T10:36:18.630Z</time>
      </trkpt>
      <trkpt lat="43.5264" lon="5.60067">
        <ele>668</ele>
        <time>2022-10-19T10:36:19.630Z</time>
      </trkpt>
      <trkpt lat="43.5264" lon="5.60067">
        <ele>668</ele>
        <time>2022-10-19T10:36:20.630Z</time>
      </trkpt>
      <trkpt lat="43.52639" lon="5.60068">
        <ele>667</ele>
        <time>2022-10-19T10:36:21.630Z</time>
      </trkpt>
      <trkpt lat="43.52638" lon="5.60068">
        <ele>667</ele>
        <time>2022-10-19T10:36:22.630Z</time>
      </trkpt>
      <trkpt lat="43.52638" lon="5.60068">
        <ele>667</ele>
        <time>2022-10-19T10:36:23.630Z</time>
      </trkpt>
      <trkpt lat="43.52637" lon="5.60068">
        <ele>667</ele>
        <time>2022-10-19T10:36:24.630Z</time>
      </trkpt>
      <trkpt lat="43.52637" lon="5.60068">
        <ele>666</ele>
        <time>2022-10-19T10:36:25.630Z</time>
      </trkpt>
      <trkpt lat="43.52637" lon="5.60069">
        <ele>666</ele>
        <time>2022-10-19T10:36:26.630Z</time>
      </trkpt>
      <trkpt lat="43.52637" lon="5.60069">
        <ele>666</ele>
        <time>2022-10-19T10:36:27.630Z</time>
      </trkpt>
      <trkpt lat="43.52637" lon="5.6007">
        <ele>666</ele>
        <time>2022-10-19T10:36:28.630Z</time>
      </trkpt>
      <trkpt lat="43.52637" lon="5.6007">
        <ele>666</ele>
        <time>2022-10-19T10:36:29.630Z</time>
      </trkpt>
      <trkpt lat="43.52636" lon="5.6007">
        <ele>666</ele>
        <time>2022-10-19T10:36:30.630Z</time>
      </trkpt>
      <trkpt lat="43.52636" lon="5.60071">
        <ele>666</ele>
        <time>2022-10-19T10:36:31.630Z</time>
      </trkpt>
      <trkpt lat="43.52635" lon="5.60072">
        <ele>665</ele>
        <time>2022-10-19T10:36:32.630Z</time>
      </trkpt>
      <trkpt lat="43.52635" lon="5.60073">
        <ele>665</ele>
        <time>2022-10-19T10:36:33.630Z</time>
      </trkpt>
      <trkpt lat="43.52635" lon="5.60073">
        <ele>665</ele>
        <time>2022-10-19T10:36:34.630Z</time>
      </trkpt>
      <trkpt lat="43.52635" lon="5.60073">
        <ele>665</ele>
        <time>2022-10-19T10:36:35.630Z</time>
      </trkpt>
      <trkpt lat="43.52635" lon="5.60073">
        <ele>665</ele>
        <time>2022-10-19T10:36:36.630Z</time>
      </trkpt>
      <trkpt lat="43.52635" lon="5.60073">
        <ele>665</ele>
        <time>2022-10-19T10:36:37.630Z</time>
      </trkpt>
      <trkpt lat="43.52635" lon="5.60073">
        <ele>664</ele>
        <time>2022-10-19T10:36:38.630Z</time>
      </trkpt>
      <trkpt lat="43.52633" lon="5.60073">
        <ele>664</ele>
        <time>2022-10-19T10:36:39.630Z</time>
      </trkpt>
      <trkpt lat="43.52633" lon="5.60073">
        <ele>664</ele>
        <time>2022-10-19T10:36:40.630Z</time>
      </trkpt>
      <trkpt lat="43.52632" lon="5.60072">
        <ele>664</ele>
        <time>2022-10-19T10:36:41.630Z</time>
      </trkpt>
      <trkpt lat="43.52631" lon="5.60072">
        <ele>663</ele>
        <time>2022-10-19T10:36:42.630Z</time>
      </trkpt>
      <trkpt lat="43.5263" lon="5.60071">
        <ele>663</ele>
        <time>2022-10-19T10:36:43.630Z</time>
      </trkpt>
      <trkpt lat="43.5263" lon="5.6007">
        <ele>663</ele>
        <time>2022-10-19T10:36:44.630Z</time>
      </trkpt>
      <trkpt lat="43.52629" lon="5.6007">
        <ele>662</ele>
        <time>2022-10-19T10:36:45.630Z</time>
      </trkpt>
      <trkpt lat="43.52628" lon="5.60069">
        <ele>662</ele>
        <time>2022-10-19T10:36:46.630Z</time>
      </trkpt>
      <trkpt lat="43.52628" lon="5.60069">
        <ele>662</ele>
        <time>2022-10-19T10:36:47.630Z</time>
      </trkpt>
      <trkpt lat="43.52627" lon="5.60068">
        <ele>661</ele>
        <time>2022-10-19T10:36:48.630Z</time>
      </trkpt>
      <trkpt lat="43.52627" lon="5.60069">
        <ele>661</ele>
        <time>2022-10-19T10:36:49.630Z</time>
      </trkpt>
      <trkpt lat="43.52626" lon="5.60069">
        <ele>661</ele>
        <time>2022-10-19T10:36:50.630Z</time>
      </trkpt>
      <trkpt lat="43.52626" lon="5.60069">
        <ele>661</ele>
        <time>2022-10-19T10:36:51.630Z</time>
      </trkpt>
      <trkpt lat="43.52626" lon="5.60069">
        <ele>660</ele>
        <time>2022-10-19T10:36:52.630Z</time>
      </trkpt>
      <trkpt lat="43.52626" lon="5.60069">
        <ele>660</ele>
        <time>2022-10-19T10:36:53.630Z</time>
      </trkpt>
      <trkpt lat="43.52626" lon="5.60069">
        <ele>660</ele>
        <time>2022-10-19T10:36:54.630Z</time>
      </trkpt>
      <trkpt lat="43.52626" lon="5.60069">
        <ele>660</ele>
        <time>2022-10-19T10:36:55.630Z</time>
      </trkpt>
      <trkpt lat="43.52626" lon="5.60069">
        <ele>660</ele>
        <time>2022-10-19T10:36:56.630Z</time>
      </trkpt>
      <trkpt lat="43.52626" lon="5.60069">
        <ele>660</ele>
        <time>2022-10-19T10:36:57.630Z</time>
      </trkpt>
      <trkpt lat="43.52626" lon="5.6007">
        <ele>660</ele>
        <time>2022-10-19T10:36:58.630Z</time>
      </trkpt>
      <trkpt lat="43.52626" lon="5.60071">
        <ele>660</ele>
        <time>2022-10-19T10:36:59.630Z</time>
      </trkpt>
      <trkpt lat="43.52626" lon="5.60072">
        <ele>660</ele>
        <time>2022-10-19T10:37:00.630Z</time>
      </trkpt>
      <trkpt lat="43.52627" lon="5.60073">
        <ele>660</ele>
        <time>2022-10-19T10:37:01.630Z</time>
      </trkpt>
      <trkpt lat="43.52627" lon="5.60073">
        <ele>659</ele>
        <time>2022-10-19T10:37:02.630Z</time>
      </trkpt>
      <trkpt lat="43.52628" lon="5.60074">
        <ele>659</ele>
        <time>2022-10-19T10:37:03.630Z</time>
      </trkpt>
      <trkpt lat="43.52628" lon="5.60075">
        <ele>659</ele>
        <time>2022-10-19T10:37:04.630Z</time>
      </trkpt>
      <trkpt lat="43.52628" lon="5.60076">
        <ele>659</ele>
        <time>2022-10-19T10:37:05.630Z</time>
      </trkpt>
      <trkpt lat="43.52628" lon="5.60077">
        <ele>659</ele>
        <time>2022-10-19T10:37:06.630Z</time>
      </trkpt>
      <trkpt lat="43.52628" lon="5.60078">
        <ele>659</ele>
        <time>2022-10-19T10:37:07.630Z</time>
      </trkpt>
      <trkpt lat="43.52628" lon="5.60078">
        <ele>659</ele>
        <time>2022-10-19T10:37:08.630Z</time>
      </trkpt>
      <trkpt lat="43.52628" lon="5.60078">
        <ele>659</ele>
        <time>2022-10-19T10:37:09.630Z</time>
      </trkpt>
      <trkpt lat="43.52628" lon="5.60078">
        <ele>659</ele>
        <time>2022-10-19T10:37:10.630Z</time>
      </trkpt>
      <trkpt lat="43.52628" lon="5.60078">
        <ele>659</ele>
        <time>2022-10-19T10:37:11.630Z</time>
      </trkpt>
      <trkpt lat="43.52628" lon="5.60078">
        <ele>659</ele>
        <time>2022-10-19T10:37:12.630Z</time>
      </trkpt>
      <trkpt lat="43.52628" lon="5.60078">
        <ele>659</ele>
        <time>2022-10-19T10:37:13.630Z</time>
      </trkpt>
      <trkpt lat="43.52628" lon="5.60078">
        <ele>659</ele>
        <time>2022-10-19T10:37:14.630Z</time>
      </trkpt>
      <trkpt lat="43.52628" lon="5.60078">
        <ele>659</ele>
        <time>2022-10-19T10:37:15.630Z</time>
      </trkpt>
      <trkpt lat="43.52628" lon="5.60078">
        <ele>659</ele>
        <time>2022-10-19T10:37:16.630Z</time>
      </trkpt>
      <trkpt lat="43.52628" lon="5.60078">
        <ele>659</ele>
        <time>2022-10-19T10:37:17.630Z</time>
      </trkpt>
      <trkpt lat="43.52628" lon="5.60078">
        <ele>659</ele>
        <time>2022-10-19T10:37:18.630Z</time>
      </trkpt>
      <trkpt lat="43.52628" lon="5.60078">
        <ele>659</ele>
        <time>2022-10-19T10:37:19.630Z</time>
      </trkpt>
      <trkpt lat="43.52628" lon="5.60078">
        <ele>659</ele>
        <time>2022-10-19T10:37:20.630Z</time>
      </trkpt>
      <trkpt lat="43.52628" lon="5.60078">
        <ele>659</ele>
        <time>2022-10-19T10:37:21.630Z</time>
      </trkpt>
      <trkpt lat="43.52628" lon="5.60078">
        <ele>659</ele>
        <time>2022-10-19T10:37:22.630Z</time>
      </trkpt>
      <trkpt lat="43.52627" lon="5.60078">
        <ele>659</ele>
        <time>2022-10-19T10:37:23.630Z</time>
      </trkpt>
      <trkpt lat="43.52627" lon="5.60078">
        <ele>658</ele>
        <time>2022-10-19T10:37:24.630Z</time>
      </trkpt>
      <trkpt lat="43.52627" lon="5.60078">
        <ele>658</ele>
        <time>2022-10-19T10:37:25.630Z</time>
      </trkpt>
      <trkpt lat="43.52627" lon="5.60078">
        <ele>658</ele>
        <time>2022-10-19T10:37:26.630Z</time>
      </trkpt>
      <trkpt lat="43.52627" lon="5.60078">
        <ele>658</ele>
        <time>2022-10-19T10:37:27.630Z</time>
      </trkpt>
      <trkpt lat="43.52627" lon="5.60078">
        <ele>658</ele>
        <time>2022-10-19T10:37:28.630Z</time>
      </trkpt>
      <trkpt lat="43.52627" lon="5.60078">
        <ele>658</ele>
        <time>2022-10-19T10:37:29.630Z</time>
      </trkpt>
      <trkpt lat="43.52627" lon="5.60078">
        <ele>658</ele>
        <time>2022-10-19T10:37:30.630Z</time>
      </trkpt>
      <trkpt lat="43.52627" lon="5.60078">
        <ele>658</ele>
        <time>2022-10-19T10:37:31.630Z</time>
      </trkpt>
      <trkpt lat="43.52627" lon="5.60078">
        <ele>658</ele>
        <time>2022-10-19T10:37:32.630Z</time>
      </trkpt>
      <trkpt lat="43.52627" lon="5.60078">
        <ele>658</ele>
        <time>2022-10-19T10:37:33.630Z</time>
      </trkpt>
      <trkpt lat="43.52627" lon="5.60077">
        <ele>658</ele>
        <time>2022-10-19T10:37:34.630Z</time>
      </trkpt>
      <trkpt lat="43.52627" lon="5.60077">
        <ele>658</ele>
        <time>2022-10-19T10:37:35.630Z</time>
      </trkpt>
      <trkpt lat="43.52627" lon="5.60077">
        <ele>658</ele>
        <time>2022-10-19T10:37:36.630Z</time>
      </trkpt>
      <trkpt lat="43.52627" lon="5.60077">
        <ele>658</ele>
        <time>2022-10-19T10:37:37.630Z</time>
      </trkpt>
      <trkpt lat="43.52627" lon="5.60077">
        <ele>658</ele>
        <time>2022-10-19T10:37:38.630Z</time>
      </trkpt>
      <trkpt lat="43.52627" lon="5.60077">
        <ele>658</ele>
        <time>2022-10-19T10:37:39.630Z</time>
      </trkpt>
      <trkpt lat="43.52627" lon="5.60077">
        <ele>658</ele>
        <time>2022-10-19T10:37:40.630Z</time>
      </trkpt>
      <trkpt lat="43.52627" lon="5.60077">
        <ele>658</ele>
        <time>2022-10-19T10:37:41.630Z</time>
      </trkpt>
      <trkpt lat="43.52627" lon="5.60077">
        <ele>658</ele>
        <time>2022-10-19T10:37:42.630Z</time>
      </trkpt>
      <trkpt lat="43.52627" lon="5.60077">
        <ele>658</ele>
        <time>2022-10-19T10:37:43.630Z</time>
      </trkpt>
      <trkpt lat="43.52627" lon="5.60077">
        <ele>658</ele>
        <time>2022-10-19T10:37:44.630Z</time>
      </trkpt>
      <trkpt lat="43.52627" lon="5.60077">
        <ele>658</ele>
        <time>2022-10-19T10:37:45.630Z</time>
      </trkpt>
      <trkpt lat="43.52627" lon="5.60077">
        <ele>658</ele>
        <time>2022-10-19T10:37:46.630Z</time>
      </trkpt>
      <trkpt lat="43.52627" lon="5.60077">
        <ele>658</ele>
        <time>2022-10-19T10:37:47.630Z</time>
      </trkpt>
      <trkpt lat="43.52627" lon="5.60077">
        <ele>658</ele>
        <time>2022-10-19T10:37:48.630Z</time>
      </trkpt>
      <trkpt lat="43.52627" lon="5.60077">
        <ele>658</ele>
        <time>2022-10-19T10:37:49.630Z</time>
      </trkpt>
      <trkpt lat="43.52627" lon="5.60077">
        <ele>657</ele>
        <time>2022-10-19T10:37:50.630Z</time>
      </trkpt>
      <trkpt lat="43.52627" lon="5.60077">
        <ele>657</ele>
        <time>2022-10-19T10:37:51.630Z</time>
      </trkpt>
      <trkpt lat="43.52627" lon="5.60077">
        <ele>657</ele>
        <time>2022-10-19T10:37:52.630Z</time>
      </trkpt>
      <trkpt lat="43.52627" lon="5.60077">
        <ele>657</ele>
        <time>2022-10-19T10:37:53.630Z</time>
      </trkpt>
      <trkpt lat="43.52627" lon="5.60077">
        <ele>657</ele>
        <time>2022-10-19T10:37:54.630Z</time>
      </trkpt>
      <trkpt lat="43.52627" lon="5.60077">
        <ele>657</ele>
        <time>2022-10-19T10:37:55.630Z</time>
      </trkpt>
      <trkpt lat="43.52627" lon="5.60077">
        <ele>657</ele>
        <time>2022-10-19T10:37:56.630Z</time>
      </trkpt>
      <trkpt lat="43.52627" lon="5.60077">
        <ele>657</ele>
        <time>2022-10-19T10:37:57.630Z</time>
      </trkpt>
      <trkpt lat="43.52627" lon="5.60077">
        <ele>657</ele>
        <time>2022-10-19T10:37:58.630Z</time>
      </trkpt>
      <trkpt lat="43.52627" lon="5.60077">
        <ele>657</ele>
        <time>2022-10-19T10:37:59.630Z</time>
      </trkpt>
      <trkpt lat="43.52627" lon="5.60077">
        <ele>657</ele>
        <time>2022-10-19T10:38:00.630Z</time>
      </trkpt>
      <trkpt lat="43.52627" lon="5.60077">
        <ele>657</ele>
        <time>2022-10-19T10:38:01.630Z</time>
      </trkpt>
      <trkpt lat="43.52627" lon="5.60077">
        <ele>657</ele>
        <time>2022-10-19T10:38:02.630Z</time>
      </trkpt>
      <trkpt lat="43.52627" lon="5.60077">
        <ele>657</ele>
        <time>2022-10-19T10:38:03.630Z</time>
      </trkpt>
      <trkpt lat="43.52627" lon="5.60077">
        <ele>657</ele>
        <time>2022-10-19T10:38:04.630Z</time>
      </trkpt>
      <trkpt lat="43.52627" lon="5.60077">
        <ele>657</ele>
        <time>2022-10-19T10:38:05.630Z</time>
      </trkpt>
      <trkpt lat="43.52627" lon="5.60075">
        <ele>657</ele>
        <time>2022-10-19T10:38:06.630Z</time>
      </trkpt>
      <trkpt lat="43.52627" lon="5.60074">
        <ele>657</ele>
        <time>2022-10-19T10:38:07.630Z</time>
      </trkpt>
      <trkpt lat="43.52627" lon="5.60073">
        <ele>657</ele>
        <time>2022-10-19T10:38:08.630Z</time>
      </trkpt>
      <trkpt lat="43.52626" lon="5.60073">
        <ele>657</ele>
        <time>2022-10-19T10:38:09.630Z</time>
      </trkpt>
      <trkpt lat="43.52625" lon="5.60071">
        <ele>657</ele>
        <time>2022-10-19T10:38:10.630Z</time>
      </trkpt>
      <trkpt lat="43.52625" lon="5.6007">
        <ele>657</ele>
        <time>2022-10-19T10:38:11.630Z</time>
      </trkpt>
      <trkpt lat="43.52626" lon="5.60069">
        <ele>657</ele>
        <time>2022-10-19T10:38:12.630Z</time>
      </trkpt>
      <trkpt lat="43.52626" lon="5.60067">
        <ele>657</ele>
        <time>2022-10-19T10:38:13.630Z</time>
      </trkpt>
      <trkpt lat="43.52626" lon="5.60066">
        <ele>657</ele>
        <time>2022-10-19T10:38:14.630Z</time>
      </trkpt>
      <trkpt lat="43.52626" lon="5.60065">
        <ele>657</ele>
        <time>2022-10-19T10:38:15.630Z</time>
      </trkpt>
      <trkpt lat="43.52625" lon="5.60064">
        <ele>657</ele>
        <time>2022-10-19T10:38:16.630Z</time>
      </trkpt>
      <trkpt lat="43.52624" lon="5.60063">
        <ele>657</ele>
        <time>2022-10-19T10:38:17.630Z</time>
      </trkpt>
      <trkpt lat="43.52624" lon="5.60062">
        <ele>657</ele>
        <time>2022-10-19T10:38:18.630Z</time>
      </trkpt>
      <trkpt lat="43.52623" lon="5.60061">
        <ele>657</ele>
        <time>2022-10-19T10:38:19.630Z</time>
      </trkpt>
      <trkpt lat="43.52622" lon="5.6006">
        <ele>657</ele>
        <time>2022-10-19T10:38:20.630Z</time>
      </trkpt>
      <trkpt lat="43.52621" lon="5.60059">
        <ele>656</ele>
        <time>2022-10-19T10:38:21.630Z</time>
      </trkpt>
      <trkpt lat="43.52621" lon="5.60058">
        <ele>656</ele>
        <time>2022-10-19T10:38:22.630Z</time>
      </trkpt>
      <trkpt lat="43.5262" lon="5.60057">
        <ele>656</ele>
        <time>2022-10-19T10:38:23.630Z</time>
      </trkpt>
      <trkpt lat="43.52619" lon="5.60056">
        <ele>656</ele>
        <time>2022-10-19T10:38:24.630Z</time>
      </trkpt>
      <trkpt lat="43.52618" lon="5.60056">
        <ele>656</ele>
        <time>2022-10-19T10:38:25.630Z</time>
      </trkpt>
      <trkpt lat="43.52617" lon="5.60055">
        <ele>656</ele>
        <time>2022-10-19T10:38:26.630Z</time>
      </trkpt>
      <trkpt lat="43.52617" lon="5.60053">
        <ele>655</ele>
        <time>2022-10-19T10:38:27.630Z</time>
      </trkpt>
      <trkpt lat="43.52616" lon="5.60052">
        <ele>655</ele>
        <time>2022-10-19T10:38:28.630Z</time>
      </trkpt>
      <trkpt lat="43.52615" lon="5.60051">
        <ele>655</ele>
        <time>2022-10-19T10:38:29.630Z</time>
      </trkpt>
      <trkpt lat="43.52614" lon="5.6005">
        <ele>655</ele>
        <time>2022-10-19T10:38:30.630Z</time>
      </trkpt>
      <trkpt lat="43.52613" lon="5.60049">
        <ele>655</ele>
        <time>2022-10-19T10:38:31.630Z</time>
      </trkpt>
      <trkpt lat="43.52612" lon="5.60049">
        <ele>655</ele>
        <time>2022-10-19T10:38:32.630Z</time>
      </trkpt>
      <trkpt lat="43.52612" lon="5.60048">
        <ele>655</ele>
        <time>2022-10-19T10:38:33.630Z</time>
      </trkpt>
      <trkpt lat="43.52611" lon="5.60047">
        <ele>655</ele>
        <time>2022-10-19T10:38:34.630Z</time>
      </trkpt>
      <trkpt lat="43.5261" lon="5.60046">
        <ele>655</ele>
        <time>2022-10-19T10:38:35.630Z</time>
      </trkpt>
      <trkpt lat="43.52609" lon="5.60045">
        <ele>655</ele>
        <time>2022-10-19T10:38:36.630Z</time>
      </trkpt>
      <trkpt lat="43.52609" lon="5.60044">
        <ele>655</ele>
        <time>2022-10-19T10:38:37.630Z</time>
      </trkpt>
      <trkpt lat="43.52608" lon="5.60043">
        <ele>654</ele>
        <time>2022-10-19T10:38:38.630Z</time>
      </trkpt>
      <trkpt lat="43.52607" lon="5.60042">
        <ele>654</ele>
        <time>2022-10-19T10:38:39.630Z</time>
      </trkpt>
      <trkpt lat="43.52607" lon="5.60041">
        <ele>654</ele>
        <time>2022-10-19T10:38:40.630Z</time>
      </trkpt>
      <trkpt lat="43.52607" lon="5.6004">
        <ele>654</ele>
        <time>2022-10-19T10:38:41.630Z</time>
      </trkpt>
      <trkpt lat="43.52607" lon="5.6004">
        <ele>654</ele>
        <time>2022-10-19T10:38:42.630Z</time>
      </trkpt>
      <trkpt lat="43.52607" lon="5.6004">
        <ele>654</ele>
        <time>2022-10-19T10:38:43.630Z</time>
      </trkpt>
      <trkpt lat="43.52607" lon="5.6004">
        <ele>654</ele>
        <time>2022-10-19T10:38:44.630Z</time>
      </trkpt>
      <trkpt lat="43.52607" lon="5.6004">
        <ele>654</ele>
        <time>2022-10-19T10:38:45.630Z</time>
      </trkpt>
      <trkpt lat="43.52607" lon="5.6004">
        <ele>654</ele>
        <time>2022-10-19T10:38:46.630Z</time>
      </trkpt>
      <trkpt lat="43.52607" lon="5.6004">
        <ele>654</ele>
        <time>2022-10-19T10:38:47.630Z</time>
      </trkpt>
      <trkpt lat="43.52607" lon="5.6004">
        <ele>654</ele>
        <time>2022-10-19T10:38:48.630Z</time>
      </trkpt>
      <trkpt lat="43.52607" lon="5.6004">
        <ele>654</ele>
        <time>2022-10-19T10:38:49.630Z</time>
      </trkpt>
      <trkpt lat="43.52607" lon="5.6004">
        <ele>654</ele>
        <time>2022-10-19T10:38:50.630Z</time>
      </trkpt>
      <trkpt lat="43.52606" lon="5.60039">
        <ele>654</ele>
        <time>2022-10-19T10:38:51.630Z</time>
      </trkpt>
      <trkpt lat="43.52606" lon="5.60038">
        <ele>654</ele>
        <time>2022-10-19T10:38:52.630Z</time>
      </trkpt>
      <trkpt lat="43.52606" lon="5.60037">
        <ele>654</ele>
        <time>2022-10-19T10:38:53.630Z</time>
      </trkpt>
      <trkpt lat="43.52605" lon="5.60036">
        <ele>654</ele>
        <time>2022-10-19T10:38:54.630Z</time>
      </trkpt>
      <trkpt lat="43.52605" lon="5.60035">
        <ele>654</ele>
        <time>2022-10-19T10:38:55.630Z</time>
      </trkpt>
      <trkpt lat="43.52604" lon="5.60033">
        <ele>653</ele>
        <time>2022-10-19T10:38:56.630Z</time>
      </trkpt>
      <trkpt lat="43.52603" lon="5.60032">
        <ele>653</ele>
        <time>2022-10-19T10:38:57.630Z</time>
      </trkpt>
      <trkpt lat="43.52603" lon="5.6003">
        <ele>653</ele>
        <time>2022-10-19T10:38:58.630Z</time>
      </trkpt>
      <trkpt lat="43.52603" lon="5.60029">
        <ele>653</ele>
        <time>2022-10-19T10:38:59.630Z</time>
      </trkpt>
      <trkpt lat="43.52602" lon="5.60027">
        <ele>653</ele>
        <time>2022-10-19T10:39:00.630Z</time>
      </trkpt>
      <trkpt lat="43.52601" lon="5.60025">
        <ele>653</ele>
        <time>2022-10-19T10:39:01.630Z</time>
      </trkpt>
      <trkpt lat="43.52601" lon="5.60024">
        <ele>653</ele>
        <time>2022-10-19T10:39:02.630Z</time>
      </trkpt>
      <trkpt lat="43.526" lon="5.60022">
        <ele>652</ele>
        <time>2022-10-19T10:39:03.630Z</time>
      </trkpt>
      <trkpt lat="43.52599" lon="5.60021">
        <ele>652</ele>
        <time>2022-10-19T10:39:04.630Z</time>
      </trkpt>
      <trkpt lat="43.52599" lon="5.6002">
        <ele>652</ele>
        <time>2022-10-19T10:39:05.630Z</time>
      </trkpt>
      <trkpt lat="43.52598" lon="5.60018">
        <ele>652</ele>
        <time>2022-10-19T10:39:06.630Z</time>
      </trkpt>
      <trkpt lat="43.52598" lon="5.60017">
        <ele>652</ele>
        <time>2022-10-19T10:39:07.630Z</time>
      </trkpt>
      <trkpt lat="43.52598" lon="5.60015">
        <ele>652</ele>
        <time>2022-10-19T10:39:08.630Z</time>
      </trkpt>
      <trkpt lat="43.52597" lon="5.60013">
        <ele>651</ele>
        <time>2022-10-19T10:39:09.630Z</time>
      </trkpt>
      <trkpt lat="43.52597" lon="5.60012">
        <ele>651</ele>
        <time>2022-10-19T10:39:10.630Z</time>
      </trkpt>
      <trkpt lat="43.52596" lon="5.6001">
        <ele>651</ele>
        <time>2022-10-19T10:39:11.630Z</time>
      </trkpt>
      <trkpt lat="43.52596" lon="5.60009">
        <ele>651</ele>
        <time>2022-10-19T10:39:12.630Z</time>
      </trkpt>
      <trkpt lat="43.52595" lon="5.60007">
        <ele>650</ele>
        <time>2022-10-19T10:39:13.630Z</time>
      </trkpt>
      <trkpt lat="43.52594" lon="5.60006">
        <ele>650</ele>
        <time>2022-10-19T10:39:14.630Z</time>
      </trkpt>
      <trkpt lat="43.52593" lon="5.60005">
        <ele>650</ele>
        <time>2022-10-19T10:39:15.630Z</time>
      </trkpt>
      <trkpt lat="43.52593" lon="5.60004">
        <ele>650</ele>
        <time>2022-10-19T10:39:16.630Z</time>
      </trkpt>
      <trkpt lat="43.52592" lon="5.60003">
        <ele>650</ele>
        <time>2022-10-19T10:39:17.630Z</time>
      </trkpt>
      <trkpt lat="43.52592" lon="5.60001">
        <ele>649</ele>
        <time>2022-10-19T10:39:18.630Z</time>
      </trkpt>
      <trkpt lat="43.52591" lon="5.6">
        <ele>649</ele>
        <time>2022-10-19T10:39:19.630Z</time>
      </trkpt>
      <trkpt lat="43.52591" lon="5.59998">
        <ele>649</ele>
        <time>2022-10-19T10:39:20.630Z</time>
      </trkpt>
      <trkpt lat="43.5259" lon="5.59997">
        <ele>649</ele>
        <time>2022-10-19T10:39:21.630Z</time>
      </trkpt>
      <trkpt lat="43.52589" lon="5.59995">
        <ele>649</ele>
        <time>2022-10-19T10:39:22.630Z</time>
      </trkpt>
      <trkpt lat="43.52588" lon="5.59994">
        <ele>648</ele>
        <time>2022-10-19T10:39:23.630Z</time>
      </trkpt>
      <trkpt lat="43.52587" lon="5.59993">
        <ele>648</ele>
        <time>2022-10-19T10:39:24.630Z</time>
      </trkpt>
      <trkpt lat="43.52586" lon="5.59992">
        <ele>648</ele>
        <time>2022-10-19T10:39:25.630Z</time>
      </trkpt>
      <trkpt lat="43.52586" lon="5.59991">
        <ele>648</ele>
        <time>2022-10-19T10:39:26.630Z</time>
      </trkpt>
      <trkpt lat="43.52586" lon="5.59989">
        <ele>648</ele>
        <time>2022-10-19T10:39:27.630Z</time>
      </trkpt>
      <trkpt lat="43.52586" lon="5.59988">
        <ele>647</ele>
        <time>2022-10-19T10:39:28.630Z</time>
      </trkpt>
      <trkpt lat="43.52586" lon="5.59986">
        <ele>647</ele>
        <time>2022-10-19T10:39:29.630Z</time>
      </trkpt>
      <trkpt lat="43.52585" lon="5.59985">
        <ele>647</ele>
        <time>2022-10-19T10:39:30.630Z</time>
      </trkpt>
      <trkpt lat="43.52585" lon="5.59983">
        <ele>647</ele>
        <time>2022-10-19T10:39:31.630Z</time>
      </trkpt>
      <trkpt lat="43.52585" lon="5.59982">
        <ele>647</ele>
        <time>2022-10-19T10:39:32.630Z</time>
      </trkpt>
      <trkpt lat="43.52585" lon="5.5998">
        <ele>647</ele>
        <time>2022-10-19T10:39:33.630Z</time>
      </trkpt>
      <trkpt lat="43.52585" lon="5.59979">
        <ele>646</ele>
        <time>2022-10-19T10:39:34.630Z</time>
      </trkpt>
      <trkpt lat="43.52585" lon="5.59977">
        <ele>646</ele>
        <time>2022-10-19T10:39:35.630Z</time>
      </trkpt>
      <trkpt lat="43.52585" lon="5.59976">
        <ele>646</ele>
        <time>2022-10-19T10:39:36.630Z</time>
      </trkpt>
      <trkpt lat="43.52585" lon="5.59974">
        <ele>646</ele>
        <time>2022-10-19T10:39:37.630Z</time>
      </trkpt>
      <trkpt lat="43.52585" lon="5.59973">
        <ele>646</ele>
        <time>2022-10-19T10:39:38.630Z</time>
      </trkpt>
      <trkpt lat="43.52585" lon="5.59971">
        <ele>646</ele>
        <time>2022-10-19T10:39:39.630Z</time>
      </trkpt>
      <trkpt lat="43.52585" lon="5.5997">
        <ele>646</ele>
        <time>2022-10-19T10:39:40.630Z</time>
      </trkpt>
      <trkpt lat="43.52586" lon="5.59968">
        <ele>645</ele>
        <time>2022-10-19T10:39:41.630Z</time>
      </trkpt>
      <trkpt lat="43.52586" lon="5.59967">
        <ele>645</ele>
        <time>2022-10-19T10:39:42.630Z</time>
      </trkpt>
      <trkpt lat="43.52587" lon="5.59965">
        <ele>645</ele>
        <time>2022-10-19T10:39:43.630Z</time>
      </trkpt>
      <trkpt lat="43.52587" lon="5.59964">
        <ele>645</ele>
        <time>2022-10-19T10:39:44.630Z</time>
      </trkpt>
      <trkpt lat="43.52587" lon="5.59962">
        <ele>645</ele>
        <time>2022-10-19T10:39:45.630Z</time>
      </trkpt>
      <trkpt lat="43.52587" lon="5.59961">
        <ele>644</ele>
        <time>2022-10-19T10:39:46.630Z</time>
      </trkpt>
      <trkpt lat="43.52586" lon="5.59959">
        <ele>644</ele>
        <time>2022-10-19T10:39:47.630Z</time>
      </trkpt>
      <trkpt lat="43.52586" lon="5.59958">
        <ele>644</ele>
        <time>2022-10-19T10:39:48.630Z</time>
      </trkpt>
      <trkpt lat="43.52586" lon="5.59956">
        <ele>644</ele>
        <time>2022-10-19T10:39:49.630Z</time>
      </trkpt>
      <trkpt lat="43.52585" lon="5.59955">
        <ele>644</ele>
        <time>2022-10-19T10:39:50.630Z</time>
      </trkpt>
      <trkpt lat="43.52585" lon="5.59954">
        <ele>644</ele>
        <time>2022-10-19T10:39:51.630Z</time>
      </trkpt>
      <trkpt lat="43.52585" lon="5.59952">
        <ele>643</ele>
        <time>2022-10-19T10:39:52.630Z</time>
      </trkpt>
      <trkpt lat="43.52585" lon="5.59951">
        <ele>643</ele>
        <time>2022-10-19T10:39:53.630Z</time>
      </trkpt>
      <trkpt lat="43.52585" lon="5.59949">
        <ele>643</ele>
        <time>2022-10-19T10:39:54.630Z</time>
      </trkpt>
      <trkpt lat="43.52585" lon="5.59947">
        <ele>643</ele>
        <time>2022-10-19T10:39:55.630Z</time>
      </trkpt>
      <trkpt lat="43.52585" lon="5.59945">
        <ele>643</ele>
        <time>2022-10-19T10:39:56.630Z</time>
      </trkpt>
      <trkpt lat="43.52585" lon="5.59944">
        <ele>643</ele>
        <time>2022-10-19T10:39:57.630Z</time>
      </trkpt>
      <trkpt lat="43.52585" lon="5.59942">
        <ele>642</ele>
        <time>2022-10-19T10:39:58.630Z</time>
      </trkpt>
      <trkpt lat="43.52585" lon="5.5994">
        <ele>642</ele>
        <time>2022-10-19T10:39:59.630Z</time>
      </trkpt>
      <trkpt lat="43.52585" lon="5.59939">
        <ele>642</ele>
        <time>2022-10-19T10:40:00.630Z</time>
      </trkpt>
      <trkpt lat="43.52585" lon="5.59938">
        <ele>642</ele>
        <time>2022-10-19T10:40:01.630Z</time>
      </trkpt>
      <trkpt lat="43.52585" lon="5.59937">
        <ele>642</ele>
        <time>2022-10-19T10:40:02.630Z</time>
      </trkpt>
      <trkpt lat="43.52585" lon="5.59935">
        <ele>642</ele>
        <time>2022-10-19T10:40:03.630Z</time>
      </trkpt>
      <trkpt lat="43.52585" lon="5.59934">
        <ele>641</ele>
        <time>2022-10-19T10:40:04.630Z</time>
      </trkpt>
      <trkpt lat="43.52585" lon="5.59932">
        <ele>641</ele>
        <time>2022-10-19T10:40:05.630Z</time>
      </trkpt>
      <trkpt lat="43.52585" lon="5.5993">
        <ele>641</ele>
        <time>2022-10-19T10:40:06.630Z</time>
      </trkpt>
      <trkpt lat="43.52585" lon="5.59929">
        <ele>641</ele>
        <time>2022-10-19T10:40:07.630Z</time>
      </trkpt>
      <trkpt lat="43.52585" lon="5.59927">
        <ele>641</ele>
        <time>2022-10-19T10:40:08.630Z</time>
      </trkpt>
      <trkpt lat="43.52584" lon="5.59926">
        <ele>641</ele>
        <time>2022-10-19T10:40:09.630Z</time>
      </trkpt>
      <trkpt lat="43.52584" lon="5.59924">
        <ele>641</ele>
        <time>2022-10-19T10:40:10.630Z</time>
      </trkpt>
      <trkpt lat="43.52584" lon="5.59923">
        <ele>640</ele>
        <time>2022-10-19T10:40:11.630Z</time>
      </trkpt>
      <trkpt lat="43.52583" lon="5.59921">
        <ele>640</ele>
        <time>2022-10-19T10:40:12.630Z</time>
      </trkpt>
      <trkpt lat="43.52583" lon="5.5992">
        <ele>640</ele>
        <time>2022-10-19T10:40:13.630Z</time>
      </trkpt>
      <trkpt lat="43.52582" lon="5.59919">
        <ele>640</ele>
        <time>2022-10-19T10:40:14.630Z</time>
      </trkpt>
      <trkpt lat="43.52582" lon="5.59918">
        <ele>640</ele>
        <time>2022-10-19T10:40:15.630Z</time>
      </trkpt>
      <trkpt lat="43.52582" lon="5.59916">
        <ele>640</ele>
        <time>2022-10-19T10:40:16.630Z</time>
      </trkpt>
      <trkpt lat="43.52581" lon="5.59915">
        <ele>640</ele>
        <time>2022-10-19T10:40:17.630Z</time>
      </trkpt>
      <trkpt lat="43.52581" lon="5.59913">
        <ele>640</ele>
        <time>2022-10-19T10:40:18.630Z</time>
      </trkpt>
      <trkpt lat="43.5258" lon="5.59912">
        <ele>640</ele>
        <time>2022-10-19T10:40:19.630Z</time>
      </trkpt>
      <trkpt lat="43.5258" lon="5.59911">
        <ele>640</ele>
        <time>2022-10-19T10:40:20.630Z</time>
      </trkpt>
      <trkpt lat="43.52579" lon="5.5991">
        <ele>640</ele>
        <time>2022-10-19T10:40:21.630Z</time>
      </trkpt>
      <trkpt lat="43.52579" lon="5.59908">
        <ele>639</ele>
        <time>2022-10-19T10:40:22.630Z</time>
      </trkpt>
      <trkpt lat="43.52578" lon="5.59907">
        <ele>639</ele>
        <time>2022-10-19T10:40:23.630Z</time>
      </trkpt>
      <trkpt lat="43.52578" lon="5.59906">
        <ele>639</ele>
        <time>2022-10-19T10:40:24.630Z</time>
      </trkpt>
      <trkpt lat="43.52577" lon="5.59905">
        <ele>639</ele>
        <time>2022-10-19T10:40:25.630Z</time>
      </trkpt>
      <trkpt lat="43.52577" lon="5.59904">
        <ele>639</ele>
        <time>2022-10-19T10:40:26.630Z</time>
      </trkpt>
      <trkpt lat="43.52576" lon="5.59903">
        <ele>639</ele>
        <time>2022-10-19T10:40:27.630Z</time>
      </trkpt>
      <trkpt lat="43.52575" lon="5.59902">
        <ele>639</ele>
        <time>2022-10-19T10:40:28.630Z</time>
      </trkpt>
      <trkpt lat="43.52575" lon="5.59901">
        <ele>639</ele>
        <time>2022-10-19T10:40:29.630Z</time>
      </trkpt>
      <trkpt lat="43.52574" lon="5.599">
        <ele>638</ele>
        <time>2022-10-19T10:40:30.630Z</time>
      </trkpt>
      <trkpt lat="43.52573" lon="5.59899">
        <ele>638</ele>
        <time>2022-10-19T10:40:31.630Z</time>
      </trkpt>
      <trkpt lat="43.52573" lon="5.59898">
        <ele>638</ele>
        <time>2022-10-19T10:40:32.630Z</time>
      </trkpt>
      <trkpt lat="43.52572" lon="5.59897">
        <ele>638</ele>
        <time>2022-10-19T10:40:33.630Z</time>
      </trkpt>
      <trkpt lat="43.52571" lon="5.59896">
        <ele>638</ele>
        <time>2022-10-19T10:40:34.630Z</time>
      </trkpt>
      <trkpt lat="43.52571" lon="5.59894">
        <ele>637</ele>
        <time>2022-10-19T10:40:35.630Z</time>
      </trkpt>
      <trkpt lat="43.5257" lon="5.59893">
        <ele>637</ele>
        <time>2022-10-19T10:40:36.630Z</time>
      </trkpt>
      <trkpt lat="43.5257" lon="5.59892">
        <ele>637</ele>
        <time>2022-10-19T10:40:37.630Z</time>
      </trkpt>
      <trkpt lat="43.52569" lon="5.59891">
        <ele>637</ele>
        <time>2022-10-19T10:40:38.630Z</time>
      </trkpt>
      <trkpt lat="43.52568" lon="5.5989">
        <ele>636</ele>
        <time>2022-10-19T10:40:39.630Z</time>
      </trkpt>
      <trkpt lat="43.52568" lon="5.59888">
        <ele>636</ele>
        <time>2022-10-19T10:40:40.630Z</time>
      </trkpt>
      <trkpt lat="43.52567" lon="5.59887">
        <ele>636</ele>
        <time>2022-10-19T10:40:41.630Z</time>
      </trkpt>
      <trkpt lat="43.52567" lon="5.59886">
        <ele>635</ele>
        <time>2022-10-19T10:40:42.630Z</time>
      </trkpt>
      <trkpt lat="43.52567" lon="5.59884">
        <ele>635</ele>
        <time>2022-10-19T10:40:43.630Z</time>
      </trkpt>
      <trkpt lat="43.52567" lon="5.59883">
        <ele>635</ele>
        <time>2022-10-19T10:40:44.630Z</time>
      </trkpt>
      <trkpt lat="43.52566" lon="5.59882">
        <ele>635</ele>
        <time>2022-10-19T10:40:45.630Z</time>
      </trkpt>
      <trkpt lat="43.52566" lon="5.59881">
        <ele>634</ele>
        <time>2022-10-19T10:40:46.630Z</time>
      </trkpt>
      <trkpt lat="43.52565" lon="5.5988">
        <ele>634</ele>
        <time>2022-10-19T10:40:47.630Z</time>
      </trkpt>
      <trkpt lat="43.52565" lon="5.59879">
        <ele>634</ele>
        <time>2022-10-19T10:40:48.630Z</time>
      </trkpt>
      <trkpt lat="43.52564" lon="5.59878">
        <ele>633</ele>
        <time>2022-10-19T10:40:49.630Z</time>
      </trkpt>
      <trkpt lat="43.52564" lon="5.59876">
        <ele>633</ele>
        <time>2022-10-19T10:40:50.630Z</time>
      </trkpt>
      <trkpt lat="43.52564" lon="5.59875">
        <ele>633</ele>
        <time>2022-10-19T10:40:51.630Z</time>
      </trkpt>
      <trkpt lat="43.52564" lon="5.59874">
        <ele>633</ele>
        <time>2022-10-19T10:40:52.630Z</time>
      </trkpt>
      <trkpt lat="43.52564" lon="5.59873">
        <ele>632</ele>
        <time>2022-10-19T10:40:53.630Z</time>
      </trkpt>
      <trkpt lat="43.52563" lon="5.59871">
        <ele>632</ele>
        <time>2022-10-19T10:40:54.630Z</time>
      </trkpt>
      <trkpt lat="43.52563" lon="5.59869">
        <ele>632</ele>
        <time>2022-10-19T10:40:55.630Z</time>
      </trkpt>
      <trkpt lat="43.52563" lon="5.59868">
        <ele>632</ele>
        <time>2022-10-19T10:40:56.630Z</time>
      </trkpt>
      <trkpt lat="43.52563" lon="5.59867">
        <ele>631</ele>
        <time>2022-10-19T10:40:57.630Z</time>
      </trkpt>
      <trkpt lat="43.52563" lon="5.59866">
        <ele>631</ele>
        <time>2022-10-19T10:40:58.630Z</time>
      </trkpt>
      <trkpt lat="43.52563" lon="5.59865">
        <ele>631</ele>
        <time>2022-10-19T10:40:59.630Z</time>
      </trkpt>
      <trkpt lat="43.52563" lon="5.59863">
        <ele>631</ele>
        <time>2022-10-19T10:41:00.630Z</time>
      </trkpt>
      <trkpt lat="43.52563" lon="5.59862">
        <ele>630</ele>
        <time>2022-10-19T10:41:01.630Z</time>
      </trkpt>
      <trkpt lat="43.52563" lon="5.59861">
        <ele>630</ele>
        <time>2022-10-19T10:41:02.630Z</time>
      </trkpt>
      <trkpt lat="43.52563" lon="5.59859">
        <ele>630</ele>
        <time>2022-10-19T10:41:03.630Z</time>
      </trkpt>
      <trkpt lat="43.52563" lon="5.59858">
        <ele>629</ele>
        <time>2022-10-19T10:41:04.630Z</time>
      </trkpt>
      <trkpt lat="43.52563" lon="5.59857">
        <ele>629</ele>
        <time>2022-10-19T10:41:05.630Z</time>
      </trkpt>
      <trkpt lat="43.52563" lon="5.59855">
        <ele>629</ele>
        <time>2022-10-19T10:41:06.630Z</time>
      </trkpt>
      <trkpt lat="43.52563" lon="5.59854">
        <ele>629</ele>
        <time>2022-10-19T10:41:07.630Z</time>
      </trkpt>
      <trkpt lat="43.52563" lon="5.59853">
        <ele>628</ele>
        <time>2022-10-19T10:41:08.630Z</time>
      </trkpt>
      <trkpt lat="43.52563" lon="5.59852">
        <ele>628</ele>
        <time>2022-10-19T10:41:09.630Z</time>
      </trkpt>
      <trkpt lat="43.52563" lon="5.5985">
        <ele>628</ele>
        <time>2022-10-19T10:41:10.630Z</time>
      </trkpt>
      <trkpt lat="43.52564" lon="5.59849">
        <ele>628</ele>
        <time>2022-10-19T10:41:11.630Z</time>
      </trkpt>
      <trkpt lat="43.52564" lon="5.59848">
        <ele>628</ele>
        <time>2022-10-19T10:41:12.630Z</time>
      </trkpt>
      <trkpt lat="43.52564" lon="5.59846">
        <ele>627</ele>
        <time>2022-10-19T10:41:13.630Z</time>
      </trkpt>
      <trkpt lat="43.52564" lon="5.59845">
        <ele>627</ele>
        <time>2022-10-19T10:41:14.630Z</time>
      </trkpt>
      <trkpt lat="43.52564" lon="5.59844">
        <ele>627</ele>
        <time>2022-10-19T10:41:15.630Z</time>
      </trkpt>
      <trkpt lat="43.52564" lon="5.59842">
        <ele>627</ele>
        <time>2022-10-19T10:41:16.630Z</time>
      </trkpt>
      <trkpt lat="43.52564" lon="5.59841">
        <ele>626</ele>
        <time>2022-10-19T10:41:17.630Z</time>
      </trkpt>
      <trkpt lat="43.52564" lon="5.5984">
        <ele>626</ele>
        <time>2022-10-19T10:41:18.630Z</time>
      </trkpt>
      <trkpt lat="43.52565" lon="5.59839">
        <ele>626</ele>
        <time>2022-10-19T10:41:19.630Z</time>
      </trkpt>
      <trkpt lat="43.52564" lon="5.59837">
        <ele>626</ele>
        <time>2022-10-19T10:41:20.630Z</time>
      </trkpt>
      <trkpt lat="43.52564" lon="5.59836">
        <ele>625</ele>
        <time>2022-10-19T10:41:21.630Z</time>
      </trkpt>
      <trkpt lat="43.52564" lon="5.59835">
        <ele>625</ele>
        <time>2022-10-19T10:41:22.630Z</time>
      </trkpt>
      <trkpt lat="43.52564" lon="5.59834">
        <ele>625</ele>
        <time>2022-10-19T10:41:23.630Z</time>
      </trkpt>
      <trkpt lat="43.52564" lon="5.59833">
        <ele>625</ele>
        <time>2022-10-19T10:41:24.630Z</time>
      </trkpt>
      <trkpt lat="43.52564" lon="5.59832">
        <ele>625</ele>
        <time>2022-10-19T10:41:25.630Z</time>
      </trkpt>
      <trkpt lat="43.52564" lon="5.5983">
        <ele>625</ele>
        <time>2022-10-19T10:41:26.630Z</time>
      </trkpt>
      <trkpt lat="43.52565" lon="5.59829">
        <ele>624</ele>
        <time>2022-10-19T10:41:27.630Z</time>
      </trkpt>
      <trkpt lat="43.52565" lon="5.59828">
        <ele>624</ele>
        <time>2022-10-19T10:41:28.630Z</time>
      </trkpt>
      <trkpt lat="43.52565" lon="5.59827">
        <ele>624</ele>
        <time>2022-10-19T10:41:29.630Z</time>
      </trkpt>
      <trkpt lat="43.52565" lon="5.59827">
        <ele>624</ele>
        <time>2022-10-19T10:41:30.630Z</time>
      </trkpt>
      <trkpt lat="43.52565" lon="5.59826">
        <ele>624</ele>
        <time>2022-10-19T10:41:31.630Z</time>
      </trkpt>
      <trkpt lat="43.52565" lon="5.59826">
        <ele>624</ele>
        <time>2022-10-19T10:41:32.630Z</time>
      </trkpt>
      <trkpt lat="43.52564" lon="5.59827">
        <ele>624</ele>
        <time>2022-10-19T10:41:33.630Z</time>
      </trkpt>
      <trkpt lat="43.52564" lon="5.59827">
        <ele>624</ele>
        <time>2022-10-19T10:41:34.630Z</time>
      </trkpt>
      <trkpt lat="43.52563" lon="5.59827">
        <ele>623</ele>
        <time>2022-10-19T10:41:35.630Z</time>
      </trkpt>
      <trkpt lat="43.52563" lon="5.59827">
        <ele>623</ele>
        <time>2022-10-19T10:41:36.630Z</time>
      </trkpt>
      <trkpt lat="43.52562" lon="5.59826">
        <ele>623</ele>
        <time>2022-10-19T10:41:37.630Z</time>
      </trkpt>
      <trkpt lat="43.52561" lon="5.59826">
        <ele>623</ele>
        <time>2022-10-19T10:41:38.630Z</time>
      </trkpt>
      <trkpt lat="43.52561" lon="5.59825">
        <ele>622</ele>
        <time>2022-10-19T10:41:39.630Z</time>
      </trkpt>
      <trkpt lat="43.52561" lon="5.59825">
        <ele>622</ele>
        <time>2022-10-19T10:41:40.630Z</time>
      </trkpt>
      <trkpt lat="43.5256" lon="5.59824">
        <ele>622</ele>
        <time>2022-10-19T10:41:41.630Z</time>
      </trkpt>
      <trkpt lat="43.5256" lon="5.59824">
        <ele>622</ele>
        <time>2022-10-19T10:41:42.630Z</time>
      </trkpt>
      <trkpt lat="43.52559" lon="5.59823">
        <ele>622</ele>
        <time>2022-10-19T10:41:43.630Z</time>
      </trkpt>
      <trkpt lat="43.52559" lon="5.59822">
        <ele>621</ele>
        <time>2022-10-19T10:41:44.630Z</time>
      </trkpt>
      <trkpt lat="43.52558" lon="5.59821">
        <ele>621</ele>
        <time>2022-10-19T10:41:45.630Z</time>
      </trkpt>
      <trkpt lat="43.52558" lon="5.59822">
        <ele>621</ele>
        <time>2022-10-19T10:41:46.630Z</time>
      </trkpt>
      <trkpt lat="43.52557" lon="5.59822">
        <ele>621</ele>
        <time>2022-10-19T10:41:47.630Z</time>
      </trkpt>
      <trkpt lat="43.52556" lon="5.59823">
        <ele>621</ele>
        <time>2022-10-19T10:41:48.630Z</time>
      </trkpt>
      <trkpt lat="43.52555" lon="5.59823">
        <ele>620</ele>
        <time>2022-10-19T10:41:49.630Z</time>
      </trkpt>
      <trkpt lat="43.52555" lon="5.59824">
        <ele>620</ele>
        <time>2022-10-19T10:41:50.630Z</time>
      </trkpt>
      <trkpt lat="43.52554" lon="5.59824">
        <ele>620</ele>
        <time>2022-10-19T10:41:51.630Z</time>
      </trkpt>
      <trkpt lat="43.52553" lon="5.59824">
        <ele>619</ele>
        <time>2022-10-19T10:41:52.630Z</time>
      </trkpt>
      <trkpt lat="43.52553" lon="5.59824">
        <ele>619</ele>
        <time>2022-10-19T10:41:53.630Z</time>
      </trkpt>
      <trkpt lat="43.52552" lon="5.59825">
        <ele>619</ele>
        <time>2022-10-19T10:41:54.630Z</time>
      </trkpt>
      <trkpt lat="43.52551" lon="5.59825">
        <ele>619</ele>
        <time>2022-10-19T10:41:55.630Z</time>
      </trkpt>
      <trkpt lat="43.52551" lon="5.59826">
        <ele>619</ele>
        <time>2022-10-19T10:41:56.630Z</time>
      </trkpt>
      <trkpt lat="43.5255" lon="5.59827">
        <ele>618</ele>
        <time>2022-10-19T10:41:57.630Z</time>
      </trkpt>
      <trkpt lat="43.5255" lon="5.59827">
        <ele>618</ele>
        <time>2022-10-19T10:41:58.630Z</time>
      </trkpt>
      <trkpt lat="43.5255" lon="5.59827">
        <ele>618</ele>
        <time>2022-10-19T10:41:59.630Z</time>
      </trkpt>
      <trkpt lat="43.5255" lon="5.59827">
        <ele>618</ele>
        <time>2022-10-19T10:42:00.630Z</time>
      </trkpt>
      <trkpt lat="43.5255" lon="5.59827">
        <ele>618</ele>
        <time>2022-10-19T10:42:01.630Z</time>
      </trkpt>
      <trkpt lat="43.5255" lon="5.59827">
        <ele>618</ele>
        <time>2022-10-19T10:42:02.630Z</time>
      </trkpt>
      <trkpt lat="43.5255" lon="5.59828">
        <ele>618</ele>
        <time>2022-10-19T10:42:03.630Z</time>
      </trkpt>
      <trkpt lat="43.5255" lon="5.59828">
        <ele>618</ele>
        <time>2022-10-19T10:42:04.630Z</time>
      </trkpt>
      <trkpt lat="43.5255" lon="5.59828">
        <ele>618</ele>
        <time>2022-10-19T10:42:05.630Z</time>
      </trkpt>
      <trkpt lat="43.5255" lon="5.59828">
        <ele>618</ele>
        <time>2022-10-19T10:42:06.630Z</time>
      </trkpt>
      <trkpt lat="43.5255" lon="5.59828">
        <ele>618</ele>
        <time>2022-10-19T10:42:07.630Z</time>
      </trkpt>
      <trkpt lat="43.5255" lon="5.59828">
        <ele>618</ele>
        <time>2022-10-19T10:42:08.630Z</time>
      </trkpt>
      <trkpt lat="43.5255" lon="5.59828">
        <ele>618</ele>
        <time>2022-10-19T10:42:09.630Z</time>
      </trkpt>
      <trkpt lat="43.5255" lon="5.59828">
        <ele>618</ele>
        <time>2022-10-19T10:42:10.630Z</time>
      </trkpt>
      <trkpt lat="43.5255" lon="5.59828">
        <ele>618</ele>
        <time>2022-10-19T10:42:11.630Z</time>
      </trkpt>
      <trkpt lat="43.5255" lon="5.59828">
        <ele>618</ele>
        <time>2022-10-19T10:42:12.630Z</time>
      </trkpt>
      <trkpt lat="43.5255" lon="5.59828">
        <ele>618</ele>
        <time>2022-10-19T10:42:13.630Z</time>
      </trkpt>
      <trkpt lat="43.5255" lon="5.59828">
        <ele>618</ele>
        <time>2022-10-19T10:42:14.630Z</time>
      </trkpt>
      <trkpt lat="43.5255" lon="5.59828">
        <ele>618</ele>
        <time>2022-10-19T10:42:15.630Z</time>
      </trkpt>
      <trkpt lat="43.5255" lon="5.59828">
        <ele>618</ele>
        <time>2022-10-19T10:42:16.630Z</time>
      </trkpt>
      <trkpt lat="43.5255" lon="5.59828">
        <ele>617</ele>
        <time>2022-10-19T10:42:17.630Z</time>
      </trkpt>
      <trkpt lat="43.52549" lon="5.59828">
        <ele>617</ele>
        <time>2022-10-19T10:42:18.630Z</time>
      </trkpt>
      <trkpt lat="43.52548" lon="5.59829">
        <ele>617</ele>
        <time>2022-10-19T10:42:19.630Z</time>
      </trkpt>
      <trkpt lat="43.52548" lon="5.59829">
        <ele>617</ele>
        <time>2022-10-19T10:42:20.630Z</time>
      </trkpt>
      <trkpt lat="43.52547" lon="5.5983">
        <ele>617</ele>
        <time>2022-10-19T10:42:21.630Z</time>
      </trkpt>
      <trkpt lat="43.52546" lon="5.59831">
        <ele>617</ele>
        <time>2022-10-19T10:42:22.630Z</time>
      </trkpt>
      <trkpt lat="43.52545" lon="5.59831">
        <ele>617</ele>
        <time>2022-10-19T10:42:23.630Z</time>
      </trkpt>
      <trkpt lat="43.52545" lon="5.59832">
        <ele>617</ele>
        <time>2022-10-19T10:42:24.630Z</time>
      </trkpt>
      <trkpt lat="43.52545" lon="5.59832">
        <ele>616</ele>
        <time>2022-10-19T10:42:25.630Z</time>
      </trkpt>
      <trkpt lat="43.52545" lon="5.59832">
        <ele>616</ele>
        <time>2022-10-19T10:42:26.630Z</time>
      </trkpt>
      <trkpt lat="43.52545" lon="5.59832">
        <ele>616</ele>
        <time>2022-10-19T10:42:27.630Z</time>
      </trkpt>
      <trkpt lat="43.52545" lon="5.59832">
        <ele>616</ele>
        <time>2022-10-19T10:42:28.630Z</time>
      </trkpt>
      <trkpt lat="43.52545" lon="5.59832">
        <ele>616</ele>
        <time>2022-10-19T10:42:29.630Z</time>
      </trkpt>
      <trkpt lat="43.52544" lon="5.59832">
        <ele>616</ele>
        <time>2022-10-19T10:42:30.630Z</time>
      </trkpt>
      <trkpt lat="43.52543" lon="5.59832">
        <ele>616</ele>
        <time>2022-10-19T10:42:31.630Z</time>
      </trkpt>
      <trkpt lat="43.52543" lon="5.59833">
        <ele>616</ele>
        <time>2022-10-19T10:42:32.630Z</time>
      </trkpt>
      <trkpt lat="43.52542" lon="5.59834">
        <ele>616</ele>
        <time>2022-10-19T10:42:33.630Z</time>
      </trkpt>
      <trkpt lat="43.52541" lon="5.59835">
        <ele>616</ele>
        <time>2022-10-19T10:42:34.630Z</time>
      </trkpt>
      <trkpt lat="43.5254" lon="5.59835">
        <ele>615</ele>
        <time>2022-10-19T10:42:35.630Z</time>
      </trkpt>
      <trkpt lat="43.52539" lon="5.59836">
        <ele>615</ele>
        <time>2022-10-19T10:42:36.630Z</time>
      </trkpt>
      <trkpt lat="43.52539" lon="5.59837">
        <ele>615</ele>
        <time>2022-10-19T10:42:37.630Z</time>
      </trkpt>
      <trkpt lat="43.52538" lon="5.59839">
        <ele>615</ele>
        <time>2022-10-19T10:42:38.630Z</time>
      </trkpt>
      <trkpt lat="43.52537" lon="5.5984">
        <ele>615</ele>
        <time>2022-10-19T10:42:39.630Z</time>
      </trkpt>
      <trkpt lat="43.52537" lon="5.59841">
        <ele>615</ele>
        <time>2022-10-19T10:42:40.630Z</time>
      </trkpt>
      <trkpt lat="43.52537" lon="5.59843">
        <ele>614</ele>
        <time>2022-10-19T10:42:41.630Z</time>
      </trkpt>
      <trkpt lat="43.52536" lon="5.59844">
        <ele>614</ele>
        <time>2022-10-19T10:42:42.630Z</time>
      </trkpt>
      <trkpt lat="43.52536" lon="5.59845">
        <ele>614</ele>
        <time>2022-10-19T10:42:43.630Z</time>
      </trkpt>
      <trkpt lat="43.52535" lon="5.59847">
        <ele>614</ele>
        <time>2022-10-19T10:42:44.630Z</time>
      </trkpt>
      <trkpt lat="43.52535" lon="5.59848">
        <ele>614</ele>
        <time>2022-10-19T10:42:45.630Z</time>
      </trkpt>
      <trkpt lat="43.52534" lon="5.59849">
        <ele>614</ele>
        <time>2022-10-19T10:42:46.630Z</time>
      </trkpt>
      <trkpt lat="43.52534" lon="5.5985">
        <ele>614</ele>
        <time>2022-10-19T10:42:47.630Z</time>
      </trkpt>
      <trkpt lat="43.52534" lon="5.59852">
        <ele>614</ele>
        <time>2022-10-19T10:42:48.630Z</time>
      </trkpt>
      <trkpt lat="43.52534" lon="5.59853">
        <ele>614</ele>
        <time>2022-10-19T10:42:49.630Z</time>
      </trkpt>
      <trkpt lat="43.52533" lon="5.59855">
        <ele>613</ele>
        <time>2022-10-19T10:42:50.630Z</time>
      </trkpt>
      <trkpt lat="43.52533" lon="5.59856">
        <ele>613</ele>
        <time>2022-10-19T10:42:51.630Z</time>
      </trkpt>
      <trkpt lat="43.52533" lon="5.59858">
        <ele>613</ele>
        <time>2022-10-19T10:42:52.630Z</time>
      </trkpt>
      <trkpt lat="43.52533" lon="5.59859">
        <ele>613</ele>
        <time>2022-10-19T10:42:53.630Z</time>
      </trkpt>
      <trkpt lat="43.52532" lon="5.59861">
        <ele>613</ele>
        <time>2022-10-19T10:42:54.630Z</time>
      </trkpt>
      <trkpt lat="43.52532" lon="5.59862">
        <ele>613</ele>
        <time>2022-10-19T10:42:55.630Z</time>
      </trkpt>
      <trkpt lat="43.52531" lon="5.59863">
        <ele>613</ele>
        <time>2022-10-19T10:42:56.630Z</time>
      </trkpt>
      <trkpt lat="43.52531" lon="5.59865">
        <ele>612</ele>
        <time>2022-10-19T10:42:57.630Z</time>
      </trkpt>
      <trkpt lat="43.5253" lon="5.59866">
        <ele>612</ele>
        <time>2022-10-19T10:42:58.630Z</time>
      </trkpt>
      <trkpt lat="43.52529" lon="5.59868">
        <ele>612</ele>
        <time>2022-10-19T10:42:59.630Z</time>
      </trkpt>
      <trkpt lat="43.52529" lon="5.59869">
        <ele>612</ele>
        <time>2022-10-19T10:43:00.630Z</time>
      </trkpt>
      <trkpt lat="43.52528" lon="5.59871">
        <ele>612</ele>
        <time>2022-10-19T10:43:01.630Z</time>
      </trkpt>
      <trkpt lat="43.52528" lon="5.59872">
        <ele>612</ele>
        <time>2022-10-19T10:43:02.630Z</time>
      </trkpt>
      <trkpt lat="43.52528" lon="5.59873">
        <ele>612</ele>
        <time>2022-10-19T10:43:03.630Z</time>
      </trkpt>
      <trkpt lat="43.52527" lon="5.59875">
        <ele>612</ele>
        <time>2022-10-19T10:43:04.630Z</time>
      </trkpt>
      <trkpt lat="43.52527" lon="5.59876">
        <ele>611</ele>
        <time>2022-10-19T10:43:05.630Z</time>
      </trkpt>
      <trkpt lat="43.52526" lon="5.59878">
        <ele>611</ele>
        <time>2022-10-19T10:43:06.630Z</time>
      </trkpt>
      <trkpt lat="43.52526" lon="5.59879">
        <ele>611</ele>
        <time>2022-10-19T10:43:07.630Z</time>
      </trkpt>
      <trkpt lat="43.52525" lon="5.59881">
        <ele>611</ele>
        <time>2022-10-19T10:43:08.630Z</time>
      </trkpt>
      <trkpt lat="43.52525" lon="5.59882">
        <ele>611</ele>
        <time>2022-10-19T10:43:09.630Z</time>
      </trkpt>
      <trkpt lat="43.52524" lon="5.59884">
        <ele>611</ele>
        <time>2022-10-19T10:43:10.630Z</time>
      </trkpt>
      <trkpt lat="43.52523" lon="5.59885">
        <ele>611</ele>
        <time>2022-10-19T10:43:11.630Z</time>
      </trkpt>
      <trkpt lat="43.52523" lon="5.59886">
        <ele>611</ele>
        <time>2022-10-19T10:43:12.630Z</time>
      </trkpt>
      <trkpt lat="43.52522" lon="5.59888">
        <ele>611</ele>
        <time>2022-10-19T10:43:13.630Z</time>
      </trkpt>
      <trkpt lat="43.52522" lon="5.59889">
        <ele>610</ele>
        <time>2022-10-19T10:43:14.630Z</time>
      </trkpt>
      <trkpt lat="43.52522" lon="5.5989">
        <ele>610</ele>
        <time>2022-10-19T10:43:15.630Z</time>
      </trkpt>
      <trkpt lat="43.52521" lon="5.59892">
        <ele>610</ele>
        <time>2022-10-19T10:43:16.630Z</time>
      </trkpt>
      <trkpt lat="43.52521" lon="5.59894">
        <ele>610</ele>
        <time>2022-10-19T10:43:17.630Z</time>
      </trkpt>
      <trkpt lat="43.52521" lon="5.59895">
        <ele>610</ele>
        <time>2022-10-19T10:43:18.630Z</time>
      </trkpt>
      <trkpt lat="43.52521" lon="5.59896">
        <ele>609</ele>
        <time>2022-10-19T10:43:19.630Z</time>
      </trkpt>
      <trkpt lat="43.5252" lon="5.59898">
        <ele>609</ele>
        <time>2022-10-19T10:43:20.630Z</time>
      </trkpt>
      <trkpt lat="43.5252" lon="5.59899">
        <ele>609</ele>
        <time>2022-10-19T10:43:21.630Z</time>
      </trkpt>
      <trkpt lat="43.5252" lon="5.599">
        <ele>609</ele>
        <time>2022-10-19T10:43:22.630Z</time>
      </trkpt>
      <trkpt lat="43.52521" lon="5.59901">
        <ele>609</ele>
        <time>2022-10-19T10:43:23.630Z</time>
      </trkpt>
      <trkpt lat="43.52521" lon="5.59903">
        <ele>608</ele>
        <time>2022-10-19T10:43:24.630Z</time>
      </trkpt>
      <trkpt lat="43.52521" lon="5.59904">
        <ele>608</ele>
        <time>2022-10-19T10:43:25.630Z</time>
      </trkpt>
      <trkpt lat="43.52521" lon="5.59905">
        <ele>608</ele>
        <time>2022-10-19T10:43:26.630Z</time>
      </trkpt>
      <trkpt lat="43.52522" lon="5.59906">
        <ele>608</ele>
        <time>2022-10-19T10:43:27.630Z</time>
      </trkpt>
      <trkpt lat="43.52522" lon="5.59907">
        <ele>607</ele>
        <time>2022-10-19T10:43:28.630Z</time>
      </trkpt>
      <trkpt lat="43.52522" lon="5.59908">
        <ele>607</ele>
        <time>2022-10-19T10:43:29.630Z</time>
      </trkpt>
      <trkpt lat="43.52522" lon="5.59909">
        <ele>607</ele>
        <time>2022-10-19T10:43:30.630Z</time>
      </trkpt>
      <trkpt lat="43.52523" lon="5.59911">
        <ele>607</ele>
        <time>2022-10-19T10:43:31.630Z</time>
      </trkpt>
      <trkpt lat="43.52523" lon="5.59912">
        <ele>606</ele>
        <time>2022-10-19T10:43:32.630Z</time>
      </trkpt>
      <trkpt lat="43.52523" lon="5.59913">
        <ele>606</ele>
        <time>2022-10-19T10:43:33.630Z</time>
      </trkpt>
      <trkpt lat="43.52523" lon="5.59914">
        <ele>606</ele>
        <time>2022-10-19T10:43:34.630Z</time>
      </trkpt>
      <trkpt lat="43.52523" lon="5.59915">
        <ele>606</ele>
        <time>2022-10-19T10:43:35.630Z</time>
      </trkpt>
      <trkpt lat="43.52523" lon="5.59916">
        <ele>606</ele>
        <time>2022-10-19T10:43:36.630Z</time>
      </trkpt>
      <trkpt lat="43.52523" lon="5.59917">
        <ele>605</ele>
        <time>2022-10-19T10:43:37.630Z</time>
      </trkpt>
      <trkpt lat="43.52524" lon="5.59918">
        <ele>605</ele>
        <time>2022-10-19T10:43:38.630Z</time>
      </trkpt>
      <trkpt lat="43.52524" lon="5.59919">
        <ele>605</ele>
        <time>2022-10-19T10:43:39.630Z</time>
      </trkpt>
      <trkpt lat="43.52524" lon="5.5992">
        <ele>605</ele>
        <time>2022-10-19T10:43:40.630Z</time>
      </trkpt>
      <trkpt lat="43.52524" lon="5.59922">
        <ele>605</ele>
        <time>2022-10-19T10:43:41.630Z</time>
      </trkpt>
      <trkpt lat="43.52524" lon="5.59923">
        <ele>604</ele>
        <time>2022-10-19T10:43:42.630Z</time>
      </trkpt>
      <trkpt lat="43.52525" lon="5.59924">
        <ele>604</ele>
        <time>2022-10-19T10:43:43.630Z</time>
      </trkpt>
      <trkpt lat="43.52525" lon="5.59926">
        <ele>604</ele>
        <time>2022-10-19T10:43:44.630Z</time>
      </trkpt>
      <trkpt lat="43.52525" lon="5.59927">
        <ele>604</ele>
        <time>2022-10-19T10:43:45.630Z</time>
      </trkpt>
      <trkpt lat="43.52525" lon="5.59928">
        <ele>604</ele>
        <time>2022-10-19T10:43:46.630Z</time>
      </trkpt>
      <trkpt lat="43.52525" lon="5.59929">
        <ele>603</ele>
        <time>2022-10-19T10:43:47.630Z</time>
      </trkpt>
      <trkpt lat="43.52526" lon="5.59929">
        <ele>603</ele>
        <time>2022-10-19T10:43:48.630Z</time>
      </trkpt>
      <trkpt lat="43.52526" lon="5.59929">
        <ele>603</ele>
        <time>2022-10-19T10:43:49.630Z</time>
      </trkpt>
      <trkpt lat="43.52526" lon="5.5993">
        <ele>603</ele>
        <time>2022-10-19T10:43:50.630Z</time>
      </trkpt>
      <trkpt lat="43.52526" lon="5.59931">
        <ele>603</ele>
        <time>2022-10-19T10:43:51.630Z</time>
      </trkpt>
      <trkpt lat="43.52526" lon="5.59932">
        <ele>603</ele>
        <time>2022-10-19T10:43:52.630Z</time>
      </trkpt>
      <trkpt lat="43.52526" lon="5.59934">
        <ele>603</ele>
        <time>2022-10-19T10:43:53.630Z</time>
      </trkpt>
      <trkpt lat="43.52526" lon="5.59935">
        <ele>602</ele>
        <time>2022-10-19T10:43:54.630Z</time>
      </trkpt>
      <trkpt lat="43.52526" lon="5.59937">
        <ele>602</ele>
        <time>2022-10-19T10:43:55.630Z</time>
      </trkpt>
      <trkpt lat="43.52526" lon="5.59939">
        <ele>602</ele>
        <time>2022-10-19T10:43:56.630Z</time>
      </trkpt>
      <trkpt lat="43.52526" lon="5.5994">
        <ele>602</ele>
        <time>2022-10-19T10:43:57.630Z</time>
      </trkpt>
      <trkpt lat="43.52526" lon="5.59942">
        <ele>601</ele>
        <time>2022-10-19T10:43:58.630Z</time>
      </trkpt>
      <trkpt lat="43.52526" lon="5.59943">
        <ele>601</ele>
        <time>2022-10-19T10:43:59.630Z</time>
      </trkpt>
      <trkpt lat="43.52526" lon="5.59945">
        <ele>601</ele>
        <time>2022-10-19T10:44:00.630Z</time>
      </trkpt>
      <trkpt lat="43.52526" lon="5.59946">
        <ele>601</ele>
        <time>2022-10-19T10:44:01.630Z</time>
      </trkpt>
      <trkpt lat="43.52526" lon="5.59948">
        <ele>600</ele>
        <time>2022-10-19T10:44:02.630Z</time>
      </trkpt>
      <trkpt lat="43.52526" lon="5.59949">
        <ele>600</ele>
        <time>2022-10-19T10:44:03.630Z</time>
      </trkpt>
      <trkpt lat="43.52526" lon="5.59951">
        <ele>600</ele>
        <time>2022-10-19T10:44:04.630Z</time>
      </trkpt>
      <trkpt lat="43.52526" lon="5.59952">
        <ele>600</ele>
        <time>2022-10-19T10:44:05.630Z</time>
      </trkpt>
      <trkpt lat="43.52526" lon="5.59954">
        <ele>599</ele>
        <time>2022-10-19T10:44:06.630Z</time>
      </trkpt>
      <trkpt lat="43.52526" lon="5.59956">
        <ele>599</ele>
        <time>2022-10-19T10:44:07.630Z</time>
      </trkpt>
      <trkpt lat="43.52526" lon="5.59957">
        <ele>599</ele>
        <time>2022-10-19T10:44:08.630Z</time>
      </trkpt>
      <trkpt lat="43.52526" lon="5.59959">
        <ele>599</ele>
        <time>2022-10-19T10:44:09.630Z</time>
      </trkpt>
      <trkpt lat="43.52526" lon="5.59961">
        <ele>598</ele>
        <time>2022-10-19T10:44:10.630Z</time>
      </trkpt>
      <trkpt lat="43.52526" lon="5.59963">
        <ele>598</ele>
        <time>2022-10-19T10:44:11.630Z</time>
      </trkpt>
      <trkpt lat="43.52526" lon="5.59964">
        <ele>598</ele>
        <time>2022-10-19T10:44:12.630Z</time>
      </trkpt>
      <trkpt lat="43.52525" lon="5.59965">
        <ele>598</ele>
        <time>2022-10-19T10:44:13.630Z</time>
      </trkpt>
      <trkpt lat="43.52525" lon="5.59967">
        <ele>598</ele>
        <time>2022-10-19T10:44:14.630Z</time>
      </trkpt>
      <trkpt lat="43.52525" lon="5.59968">
        <ele>597</ele>
        <time>2022-10-19T10:44:15.630Z</time>
      </trkpt>
      <trkpt lat="43.52525" lon="5.5997">
        <ele>597</ele>
        <time>2022-10-19T10:44:16.630Z</time>
      </trkpt>
      <trkpt lat="43.52526" lon="5.59971">
        <ele>597</ele>
        <time>2022-10-19T10:44:17.630Z</time>
      </trkpt>
      <trkpt lat="43.52526" lon="5.59973">
        <ele>597</ele>
        <time>2022-10-19T10:44:18.630Z</time>
      </trkpt>
      <trkpt lat="43.52525" lon="5.59975">
        <ele>596</ele>
        <time>2022-10-19T10:44:19.630Z</time>
      </trkpt>
      <trkpt lat="43.52525" lon="5.59976">
        <ele>596</ele>
        <time>2022-10-19T10:44:20.630Z</time>
      </trkpt>
      <trkpt lat="43.52525" lon="5.59978">
        <ele>596</ele>
        <time>2022-10-19T10:44:21.630Z</time>
      </trkpt>
      <trkpt lat="43.52525" lon="5.59979">
        <ele>596</ele>
        <time>2022-10-19T10:44:22.630Z</time>
      </trkpt>
      <trkpt lat="43.52525" lon="5.59981">
        <ele>596</ele>
        <time>2022-10-19T10:44:23.630Z</time>
      </trkpt>
      <trkpt lat="43.52525" lon="5.59982">
        <ele>596</ele>
        <time>2022-10-19T10:44:24.630Z</time>
      </trkpt>
      <trkpt lat="43.52525" lon="5.59984">
        <ele>595</ele>
        <time>2022-10-19T10:44:25.630Z</time>
      </trkpt>
      <trkpt lat="43.52525" lon="5.59985">
        <ele>595</ele>
        <time>2022-10-19T10:44:26.630Z</time>
      </trkpt>
      <trkpt lat="43.52525" lon="5.59987">
        <ele>595</ele>
        <time>2022-10-19T10:44:27.630Z</time>
      </trkpt>
      <trkpt lat="43.52525" lon="5.59989">
        <ele>595</ele>
        <time>2022-10-19T10:44:28.630Z</time>
      </trkpt>
      <trkpt lat="43.52524" lon="5.5999">
        <ele>595</ele>
        <time>2022-10-19T10:44:29.630Z</time>
      </trkpt>
      <trkpt lat="43.52524" lon="5.59992">
        <ele>595</ele>
        <time>2022-10-19T10:44:30.630Z</time>
      </trkpt>
      <trkpt lat="43.52524" lon="5.59993">
        <ele>595</ele>
        <time>2022-10-19T10:44:31.630Z</time>
      </trkpt>
      <trkpt lat="43.52523" lon="5.59995">
        <ele>594</ele>
        <time>2022-10-19T10:44:32.630Z</time>
      </trkpt>
      <trkpt lat="43.52523" lon="5.59996">
        <ele>594</ele>
        <time>2022-10-19T10:44:33.630Z</time>
      </trkpt>
      <trkpt lat="43.52523" lon="5.59998">
        <ele>594</ele>
        <time>2022-10-19T10:44:34.630Z</time>
      </trkpt>
      <trkpt lat="43.52523" lon="5.59999">
        <ele>594</ele>
        <time>2022-10-19T10:44:35.630Z</time>
      </trkpt>
      <trkpt lat="43.52523" lon="5.60001">
        <ele>594</ele>
        <time>2022-10-19T10:44:36.630Z</time>
      </trkpt>
      <trkpt lat="43.52522" lon="5.60003">
        <ele>594</ele>
        <time>2022-10-19T10:44:37.630Z</time>
      </trkpt>
      <trkpt lat="43.52522" lon="5.60004">
        <ele>594</ele>
        <time>2022-10-19T10:44:38.630Z</time>
      </trkpt>
      <trkpt lat="43.52522" lon="5.60006">
        <ele>593</ele>
        <time>2022-10-19T10:44:39.630Z</time>
      </trkpt>
      <trkpt lat="43.52522" lon="5.60008">
        <ele>593</ele>
        <time>2022-10-19T10:44:40.630Z</time>
      </trkpt>
      <trkpt lat="43.52522" lon="5.60009">
        <ele>593</ele>
        <time>2022-10-19T10:44:41.630Z</time>
      </trkpt>
      <trkpt lat="43.52522" lon="5.60011">
        <ele>593</ele>
        <time>2022-10-19T10:44:42.630Z</time>
      </trkpt>
      <trkpt lat="43.52522" lon="5.60012">
        <ele>593</ele>
        <time>2022-10-19T10:44:43.630Z</time>
      </trkpt>
      <trkpt lat="43.52522" lon="5.60013">
        <ele>592</ele>
        <time>2022-10-19T10:44:44.630Z</time>
      </trkpt>
      <trkpt lat="43.52522" lon="5.60015">
        <ele>592</ele>
        <time>2022-10-19T10:44:45.630Z</time>
      </trkpt>
      <trkpt lat="43.52522" lon="5.60016">
        <ele>592</ele>
        <time>2022-10-19T10:44:46.630Z</time>
      </trkpt>
      <trkpt lat="43.52522" lon="5.60017">
        <ele>592</ele>
        <time>2022-10-19T10:44:47.630Z</time>
      </trkpt>
      <trkpt lat="43.52522" lon="5.60019">
        <ele>592</ele>
        <time>2022-10-19T10:44:48.630Z</time>
      </trkpt>
      <trkpt lat="43.52522" lon="5.6002">
        <ele>592</ele>
        <time>2022-10-19T10:44:49.630Z</time>
      </trkpt>
      <trkpt lat="43.52522" lon="5.60021">
        <ele>592</ele>
        <time>2022-10-19T10:44:50.630Z</time>
      </trkpt>
      <trkpt lat="43.52523" lon="5.60022">
        <ele>591</ele>
        <time>2022-10-19T10:44:51.630Z</time>
      </trkpt>
      <trkpt lat="43.52523" lon="5.60023">
        <ele>591</ele>
        <time>2022-10-19T10:44:52.630Z</time>
      </trkpt>
      <trkpt lat="43.52523" lon="5.60025">
        <ele>591</ele>
        <time>2022-10-19T10:44:53.630Z</time>
      </trkpt>
      <trkpt lat="43.52523" lon="5.60026">
        <ele>591</ele>
        <time>2022-10-19T10:44:54.630Z</time>
      </trkpt>
      <trkpt lat="43.52523" lon="5.60028">
        <ele>591</ele>
        <time>2022-10-19T10:44:55.630Z</time>
      </trkpt>
      <trkpt lat="43.52523" lon="5.60029">
        <ele>590</ele>
        <time>2022-10-19T10:44:56.630Z</time>
      </trkpt>
      <trkpt lat="43.52523" lon="5.60031">
        <ele>590</ele>
        <time>2022-10-19T10:44:57.630Z</time>
      </trkpt>
      <trkpt lat="43.52523" lon="5.60032">
        <ele>590</ele>
        <time>2022-10-19T10:44:58.630Z</time>
      </trkpt>
      <trkpt lat="43.52523" lon="5.60034">
        <ele>590</ele>
        <time>2022-10-19T10:44:59.630Z</time>
      </trkpt>
      <trkpt lat="43.52523" lon="5.60036">
        <ele>590</ele>
        <time>2022-10-19T10:45:00.630Z</time>
      </trkpt>
      <trkpt lat="43.52523" lon="5.60037">
        <ele>590</ele>
        <time>2022-10-19T10:45:01.630Z</time>
      </trkpt>
      <trkpt lat="43.52523" lon="5.60038">
        <ele>590</ele>
        <time>2022-10-19T10:45:02.630Z</time>
      </trkpt>
      <trkpt lat="43.52523" lon="5.60039">
        <ele>590</ele>
        <time>2022-10-19T10:45:03.630Z</time>
      </trkpt>
      <trkpt lat="43.52523" lon="5.60041">
        <ele>590</ele>
        <time>2022-10-19T10:45:04.630Z</time>
      </trkpt>
      <trkpt lat="43.52523" lon="5.60042">
        <ele>590</ele>
        <time>2022-10-19T10:45:05.630Z</time>
      </trkpt>
      <trkpt lat="43.52523" lon="5.60044">
        <ele>589</ele>
        <time>2022-10-19T10:45:06.630Z</time>
      </trkpt>
      <trkpt lat="43.52523" lon="5.60045">
        <ele>589</ele>
        <time>2022-10-19T10:45:07.630Z</time>
      </trkpt>
      <trkpt lat="43.52523" lon="5.60046">
        <ele>589</ele>
        <time>2022-10-19T10:45:08.630Z</time>
      </trkpt>
      <trkpt lat="43.52523" lon="5.60047">
        <ele>589</ele>
        <time>2022-10-19T10:45:09.630Z</time>
      </trkpt>
      <trkpt lat="43.52523" lon="5.60048">
        <ele>589</ele>
        <time>2022-10-19T10:45:10.630Z</time>
      </trkpt>
      <trkpt lat="43.52522" lon="5.60049">
        <ele>589</ele>
        <time>2022-10-19T10:45:11.630Z</time>
      </trkpt>
      <trkpt lat="43.52522" lon="5.60051">
        <ele>589</ele>
        <time>2022-10-19T10:45:12.630Z</time>
      </trkpt>
      <trkpt lat="43.52522" lon="5.60052">
        <ele>589</ele>
        <time>2022-10-19T10:45:13.630Z</time>
      </trkpt>
      <trkpt lat="43.52521" lon="5.60053">
        <ele>589</ele>
        <time>2022-10-19T10:45:14.630Z</time>
      </trkpt>
      <trkpt lat="43.52521" lon="5.60055">
        <ele>588</ele>
        <time>2022-10-19T10:45:15.630Z</time>
      </trkpt>
      <trkpt lat="43.52521" lon="5.60056">
        <ele>588</ele>
        <time>2022-10-19T10:45:16.630Z</time>
      </trkpt>
      <trkpt lat="43.52521" lon="5.60057">
        <ele>588</ele>
        <time>2022-10-19T10:45:17.630Z</time>
      </trkpt>
      <trkpt lat="43.52521" lon="5.60059">
        <ele>588</ele>
        <time>2022-10-19T10:45:18.630Z</time>
      </trkpt>
      <trkpt lat="43.52522" lon="5.6006">
        <ele>588</ele>
        <time>2022-10-19T10:45:19.630Z</time>
      </trkpt>
      <trkpt lat="43.52522" lon="5.60061">
        <ele>588</ele>
        <time>2022-10-19T10:45:20.630Z</time>
      </trkpt>
      <trkpt lat="43.52522" lon="5.60063">
        <ele>588</ele>
        <time>2022-10-19T10:45:21.630Z</time>
      </trkpt>
      <trkpt lat="43.52522" lon="5.60064">
        <ele>588</ele>
        <time>2022-10-19T10:45:22.630Z</time>
      </trkpt>
      <trkpt lat="43.52522" lon="5.60065">
        <ele>587</ele>
        <time>2022-10-19T10:45:23.630Z</time>
      </trkpt>
      <trkpt lat="43.52522" lon="5.60067">
        <ele>587</ele>
        <time>2022-10-19T10:45:24.630Z</time>
      </trkpt>
      <trkpt lat="43.52523" lon="5.60068">
        <ele>587</ele>
        <time>2022-10-19T10:45:25.630Z</time>
      </trkpt>
      <trkpt lat="43.52523" lon="5.60069">
        <ele>587</ele>
        <time>2022-10-19T10:45:26.630Z</time>
      </trkpt>
      <trkpt lat="43.52523" lon="5.6007">
        <ele>587</ele>
        <time>2022-10-19T10:45:27.630Z</time>
      </trkpt>
      <trkpt lat="43.52524" lon="5.60071">
        <ele>586</ele>
        <time>2022-10-19T10:45:28.630Z</time>
      </trkpt>
      <trkpt lat="43.52524" lon="5.60072">
        <ele>586</ele>
        <time>2022-10-19T10:45:29.630Z</time>
      </trkpt>
      <trkpt lat="43.52524" lon="5.60074">
        <ele>586</ele>
        <time>2022-10-19T10:45:30.630Z</time>
      </trkpt>
      <trkpt lat="43.52524" lon="5.60075">
        <ele>586</ele>
        <time>2022-10-19T10:45:31.630Z</time>
      </trkpt>
      <trkpt lat="43.52524" lon="5.60076">
        <ele>585</ele>
        <time>2022-10-19T10:45:32.630Z</time>
      </trkpt>
      <trkpt lat="43.52525" lon="5.60078">
        <ele>585</ele>
        <time>2022-10-19T10:45:33.630Z</time>
      </trkpt>
      <trkpt lat="43.52525" lon="5.60079">
        <ele>585</ele>
        <time>2022-10-19T10:45:34.630Z</time>
      </trkpt>
      <trkpt lat="43.52525" lon="5.60081">
        <ele>585</ele>
        <time>2022-10-19T10:45:35.630Z</time>
      </trkpt>
      <trkpt lat="43.52525" lon="5.60082">
        <ele>585</ele>
        <time>2022-10-19T10:45:36.630Z</time>
      </trkpt>
      <trkpt lat="43.52525" lon="5.60084">
        <ele>584</ele>
        <time>2022-10-19T10:45:37.630Z</time>
      </trkpt>
      <trkpt lat="43.52525" lon="5.60085">
        <ele>584</ele>
        <time>2022-10-19T10:45:38.630Z</time>
      </trkpt>
      <trkpt lat="43.52525" lon="5.60086">
        <ele>584</ele>
        <time>2022-10-19T10:45:39.630Z</time>
      </trkpt>
      <trkpt lat="43.52525" lon="5.60087">
        <ele>584</ele>
        <time>2022-10-19T10:45:40.630Z</time>
      </trkpt>
      <trkpt lat="43.52525" lon="5.60088">
        <ele>584</ele>
        <time>2022-10-19T10:45:41.630Z</time>
      </trkpt>
      <trkpt lat="43.52524" lon="5.6009">
        <ele>584</ele>
        <time>2022-10-19T10:45:42.630Z</time>
      </trkpt>
      <trkpt lat="43.52524" lon="5.60091">
        <ele>583</ele>
        <time>2022-10-19T10:45:43.630Z</time>
      </trkpt>
      <trkpt lat="43.52524" lon="5.60092">
        <ele>583</ele>
        <time>2022-10-19T10:45:44.630Z</time>
      </trkpt>
      <trkpt lat="43.52523" lon="5.60093">
        <ele>583</ele>
        <time>2022-10-19T10:45:45.630Z</time>
      </trkpt>
      <trkpt lat="43.52523" lon="5.60095">
        <ele>583</ele>
        <time>2022-10-19T10:45:46.630Z</time>
      </trkpt>
      <trkpt lat="43.52523" lon="5.60096">
        <ele>583</ele>
        <time>2022-10-19T10:45:47.630Z</time>
      </trkpt>
      <trkpt lat="43.52523" lon="5.60097">
        <ele>582</ele>
        <time>2022-10-19T10:45:48.630Z</time>
      </trkpt>
      <trkpt lat="43.52523" lon="5.60098">
        <ele>582</ele>
        <time>2022-10-19T10:45:49.630Z</time>
      </trkpt>
      <trkpt lat="43.52523" lon="5.60099">
        <ele>582</ele>
        <time>2022-10-19T10:45:50.630Z</time>
      </trkpt>
      <trkpt lat="43.52523" lon="5.60101">
        <ele>582</ele>
        <time>2022-10-19T10:45:51.630Z</time>
      </trkpt>
      <trkpt lat="43.52522" lon="5.60102">
        <ele>582</ele>
        <time>2022-10-19T10:45:52.630Z</time>
      </trkpt>
      <trkpt lat="43.52522" lon="5.60103">
        <ele>582</ele>
        <time>2022-10-19T10:45:53.630Z</time>
      </trkpt>
      <trkpt lat="43.52522" lon="5.60104">
        <ele>582</ele>
        <time>2022-10-19T10:45:54.630Z</time>
      </trkpt>
      <trkpt lat="43.52522" lon="5.60105">
        <ele>581</ele>
        <time>2022-10-19T10:45:55.630Z</time>
      </trkpt>
      <trkpt lat="43.52522" lon="5.60106">
        <ele>581</ele>
        <time>2022-10-19T10:45:56.630Z</time>
      </trkpt>
      <trkpt lat="43.52522" lon="5.60107">
        <ele>581</ele>
        <time>2022-10-19T10:45:57.630Z</time>
      </trkpt>
      <trkpt lat="43.52522" lon="5.60108">
        <ele>581</ele>
        <time>2022-10-19T10:45:58.630Z</time>
      </trkpt>
      <trkpt lat="43.52522" lon="5.60109">
        <ele>581</ele>
        <time>2022-10-19T10:45:59.630Z</time>
      </trkpt>
      <trkpt lat="43.52521" lon="5.60111">
        <ele>580</ele>
        <time>2022-10-19T10:46:00.630Z</time>
      </trkpt>
      <trkpt lat="43.52521" lon="5.60111">
        <ele>580</ele>
        <time>2022-10-19T10:46:01.630Z</time>
      </trkpt>
      <trkpt lat="43.52522" lon="5.60112">
        <ele>580</ele>
        <time>2022-10-19T10:46:02.630Z</time>
      </trkpt>
      <trkpt lat="43.52521" lon="5.60113">
        <ele>580</ele>
        <time>2022-10-19T10:46:03.630Z</time>
      </trkpt>
      <trkpt lat="43.52521" lon="5.60114">
        <ele>579</ele>
        <time>2022-10-19T10:46:04.630Z</time>
      </trkpt>
      <trkpt lat="43.52521" lon="5.60115">
        <ele>579</ele>
        <time>2022-10-19T10:46:05.630Z</time>
      </trkpt>
      <trkpt lat="43.52521" lon="5.60117">
        <ele>579</ele>
        <time>2022-10-19T10:46:06.630Z</time>
      </trkpt>
      <trkpt lat="43.52521" lon="5.60118">
        <ele>579</ele>
        <time>2022-10-19T10:46:07.630Z</time>
      </trkpt>
      <trkpt lat="43.52521" lon="5.60119">
        <ele>579</ele>
        <time>2022-10-19T10:46:08.630Z</time>
      </trkpt>
      <trkpt lat="43.52521" lon="5.6012">
        <ele>578</ele>
        <time>2022-10-19T10:46:09.630Z</time>
      </trkpt>
      <trkpt lat="43.52521" lon="5.60121">
        <ele>578</ele>
        <time>2022-10-19T10:46:10.630Z</time>
      </trkpt>
      <trkpt lat="43.52521" lon="5.60122">
        <ele>578</ele>
        <time>2022-10-19T10:46:11.630Z</time>
      </trkpt>
      <trkpt lat="43.52521" lon="5.60124">
        <ele>578</ele>
        <time>2022-10-19T10:46:12.630Z</time>
      </trkpt>
      <trkpt lat="43.52521" lon="5.60125">
        <ele>577</ele>
        <time>2022-10-19T10:46:13.630Z</time>
      </trkpt>
      <trkpt lat="43.52521" lon="5.60126">
        <ele>577</ele>
        <time>2022-10-19T10:46:14.630Z</time>
      </trkpt>
      <trkpt lat="43.52521" lon="5.60127">
        <ele>577</ele>
        <time>2022-10-19T10:46:15.630Z</time>
      </trkpt>
      <trkpt lat="43.52521" lon="5.60128">
        <ele>577</ele>
        <time>2022-10-19T10:46:16.630Z</time>
      </trkpt>
      <trkpt lat="43.52521" lon="5.60129">
        <ele>576</ele>
        <time>2022-10-19T10:46:17.630Z</time>
      </trkpt>
      <trkpt lat="43.52521" lon="5.60131">
        <ele>576</ele>
        <time>2022-10-19T10:46:18.630Z</time>
      </trkpt>
      <trkpt lat="43.52521" lon="5.60132">
        <ele>576</ele>
        <time>2022-10-19T10:46:19.630Z</time>
      </trkpt>
      <trkpt lat="43.52521" lon="5.60133">
        <ele>575</ele>
        <time>2022-10-19T10:46:20.630Z</time>
      </trkpt>
      <trkpt lat="43.52521" lon="5.60135">
        <ele>575</ele>
        <time>2022-10-19T10:46:21.630Z</time>
      </trkpt>
      <trkpt lat="43.52521" lon="5.60136">
        <ele>575</ele>
        <time>2022-10-19T10:46:22.630Z</time>
      </trkpt>
      <trkpt lat="43.5252" lon="5.60137">
        <ele>575</ele>
        <time>2022-10-19T10:46:23.630Z</time>
      </trkpt>
      <trkpt lat="43.5252" lon="5.60138">
        <ele>575</ele>
        <time>2022-10-19T10:46:24.630Z</time>
      </trkpt>
      <trkpt lat="43.5252" lon="5.60139">
        <ele>575</ele>
        <time>2022-10-19T10:46:25.630Z</time>
      </trkpt>
      <trkpt lat="43.5252" lon="5.60139">
        <ele>574</ele>
        <time>2022-10-19T10:46:26.630Z</time>
      </trkpt>
      <trkpt lat="43.5252" lon="5.60139">
        <ele>574</ele>
        <time>2022-10-19T10:46:27.630Z</time>
      </trkpt>
      <trkpt lat="43.5252" lon="5.60139">
        <ele>574</ele>
        <time>2022-10-19T10:46:28.630Z</time>
      </trkpt>
      <trkpt lat="43.5252" lon="5.60139">
        <ele>574</ele>
        <time>2022-10-19T10:46:29.630Z</time>
      </trkpt>
      <trkpt lat="43.5252" lon="5.60139">
        <ele>574</ele>
        <time>2022-10-19T10:46:30.630Z</time>
      </trkpt>
      <trkpt lat="43.5252" lon="5.60139">
        <ele>574</ele>
        <time>2022-10-19T10:46:31.630Z</time>
      </trkpt>
      <trkpt lat="43.5252" lon="5.60139">
        <ele>574</ele>
        <time>2022-10-19T10:46:32.630Z</time>
      </trkpt>
      <trkpt lat="43.5252" lon="5.60139">
        <ele>574</ele>
        <time>2022-10-19T10:46:33.630Z</time>
      </trkpt>
      <trkpt lat="43.5252" lon="5.60139">
        <ele>574</ele>
        <time>2022-10-19T10:46:34.630Z</time>
      </trkpt>
      <trkpt lat="43.5252" lon="5.60139">
        <ele>574</ele>
        <time>2022-10-19T10:46:35.630Z</time>
      </trkpt>
      <trkpt lat="43.5252" lon="5.60139">
        <ele>574</ele>
        <time>2022-10-19T10:46:36.630Z</time>
      </trkpt>
      <trkpt lat="43.5252" lon="5.60139">
        <ele>574</ele>
        <time>2022-10-19T10:46:37.630Z</time>
      </trkpt>
      <trkpt lat="43.5252" lon="5.60139">
        <ele>574</ele>
        <time>2022-10-19T10:46:38.630Z</time>
      </trkpt>
      <trkpt lat="43.5252" lon="5.60139">
        <ele>574</ele>
        <time>2022-10-19T10:46:39.630Z</time>
      </trkpt>
      <trkpt lat="43.5252" lon="5.60139">
        <ele>573</ele>
        <time>2022-10-19T10:46:40.630Z</time>
      </trkpt>
      <trkpt lat="43.5252" lon="5.60139">
        <ele>573</ele>
        <time>2022-10-19T10:46:41.630Z</time>
      </trkpt>
      <trkpt lat="43.5252" lon="5.60139">
        <ele>573</ele>
        <time>2022-10-19T10:46:42.630Z</time>
      </trkpt>
      <trkpt lat="43.5252" lon="5.60139">
        <ele>573</ele>
        <time>2022-10-19T10:46:43.630Z</time>
      </trkpt>
      <trkpt lat="43.5252" lon="5.60139">
        <ele>573</ele>
        <time>2022-10-19T10:46:44.630Z</time>
      </trkpt>
      <trkpt lat="43.5252" lon="5.60139">
        <ele>573</ele>
        <time>2022-10-19T10:46:45.630Z</time>
      </trkpt>
      <trkpt lat="43.5252" lon="5.60139">
        <ele>573</ele>
        <time>2022-10-19T10:46:46.630Z</time>
      </trkpt>
      <trkpt lat="43.5252" lon="5.60139">
        <ele>573</ele>
        <time>2022-10-19T10:46:47.630Z</time>
      </trkpt>
      <trkpt lat="43.52519" lon="5.60139">
        <ele>573</ele>
        <time>2022-10-19T10:46:48.630Z</time>
      </trkpt>
      <trkpt lat="43.52519" lon="5.60139">
        <ele>573</ele>
        <time>2022-10-19T10:46:49.630Z</time>
      </trkpt>
      <trkpt lat="43.52519" lon="5.60139">
        <ele>573</ele>
        <time>2022-10-19T10:46:50.630Z</time>
      </trkpt>
      <trkpt lat="43.52519" lon="5.60139">
        <ele>573</ele>
        <time>2022-10-19T10:46:51.630Z</time>
      </trkpt>
      <trkpt lat="43.52519" lon="5.60139">
        <ele>573</ele>
        <time>2022-10-19T10:46:52.630Z</time>
      </trkpt>
      <trkpt lat="43.52519" lon="5.60139">
        <ele>573</ele>
        <time>2022-10-19T10:46:53.630Z</time>
      </trkpt>
      <trkpt lat="43.52519" lon="5.60139">
        <ele>573</ele>
        <time>2022-10-19T10:46:54.630Z</time>
      </trkpt>
      <trkpt lat="43.52519" lon="5.60139">
        <ele>573</ele>
        <time>2022-10-19T10:46:55.630Z</time>
      </trkpt>
      <trkpt lat="43.52519" lon="5.60139">
        <ele>573</ele>
        <time>2022-10-19T10:46:56.630Z</time>
      </trkpt>
      <trkpt lat="43.52519" lon="5.60139">
        <ele>573</ele>
        <time>2022-10-19T10:46:57.630Z</time>
      </trkpt>
      <trkpt lat="43.52519" lon="5.60139">
        <ele>573</ele>
        <time>2022-10-19T10:46:58.630Z</time>
      </trkpt>
      <trkpt lat="43.52519" lon="5.60139">
        <ele>573</ele>
        <time>2022-10-19T10:46:59.630Z</time>
      </trkpt>
      <trkpt lat="43.52519" lon="5.60139">
        <ele>573</ele>
        <time>2022-10-19T10:47:00.630Z</time>
      </trkpt>
      <trkpt lat="43.52519" lon="5.60139">
        <ele>573</ele>
        <time>2022-10-19T10:47:01.630Z</time>
      </trkpt>
      <trkpt lat="43.5252" lon="5.60139">
        <ele>573</ele>
        <time>2022-10-19T10:47:02.630Z</time>
      </trkpt>
      <trkpt lat="43.5252" lon="5.60139">
        <ele>573</ele>
        <time>2022-10-19T10:47:03.630Z</time>
      </trkpt>
      <trkpt lat="43.5252" lon="5.60139">
        <ele>573</ele>
        <time>2022-10-19T10:47:04.630Z</time>
      </trkpt>
      <trkpt lat="43.5252" lon="5.60139">
        <ele>573</ele>
        <time>2022-10-19T10:47:05.630Z</time>
      </trkpt>
      <trkpt lat="43.52519" lon="5.60139">
        <ele>573</ele>
        <time>2022-10-19T10:47:06.630Z</time>
      </trkpt>
      <trkpt lat="43.52519" lon="5.60139">
        <ele>573</ele>
        <time>2022-10-19T10:47:07.630Z</time>
      </trkpt>
      <trkpt lat="43.52519" lon="5.60139">
        <ele>573</ele>
        <time>2022-10-19T10:47:08.630Z</time>
      </trkpt>
      <trkpt lat="43.52519" lon="5.60139">
        <ele>573</ele>
        <time>2022-10-19T10:47:09.630Z</time>
      </trkpt>
      <trkpt lat="43.52519" lon="5.60139">
        <ele>573</ele>
        <time>2022-10-19T10:47:10.630Z</time>
      </trkpt>
      <trkpt lat="43.52519" lon="5.60139">
        <ele>573</ele>
        <time>2022-10-19T10:47:11.630Z</time>
      </trkpt>
      <trkpt lat="43.52519" lon="5.60139">
        <ele>573</ele>
        <time>2022-10-19T10:47:12.630Z</time>
      </trkpt>
      <trkpt lat="43.52519" lon="5.60139">
        <ele>573</ele>
        <time>2022-10-19T10:47:13.630Z</time>
      </trkpt>
      <trkpt lat="43.52519" lon="5.60139">
        <ele>573</ele>
        <time>2022-10-19T10:47:14.630Z</time>
      </trkpt>
      <trkpt lat="43.52519" lon="5.60139">
        <ele>573</ele>
        <time>2022-10-19T10:47:15.630Z</time>
      </trkpt>
      <trkpt lat="43.52519" lon="5.60139">
        <ele>573</ele>
        <time>2022-10-19T10:47:16.630Z</time>
      </trkpt>
      <trkpt lat="43.52519" lon="5.60139">
        <ele>573</ele>
        <time>2022-10-19T10:47:17.630Z</time>
      </trkpt>
      <trkpt lat="43.52519" lon="5.60139">
        <ele>573</ele>
        <time>2022-10-19T10:47:18.630Z</time>
      </trkpt>
      <trkpt lat="43.52519" lon="5.60139">
        <ele>573</ele>
        <time>2022-10-19T10:47:19.630Z</time>
      </trkpt>
      <trkpt lat="43.52519" lon="5.60139">
        <ele>573</ele>
        <time>2022-10-19T10:47:20.630Z</time>
      </trkpt>
      <trkpt lat="43.52519" lon="5.60139">
        <ele>573</ele>
        <time>2022-10-19T10:47:21.630Z</time>
      </trkpt>
      <trkpt lat="43.52519" lon="5.60139">
        <ele>573</ele>
        <time>2022-10-19T10:47:22.630Z</time>
      </trkpt>
      <trkpt lat="43.52519" lon="5.60139">
        <ele>573</ele>
        <time>2022-10-19T10:47:23.630Z</time>
      </trkpt>
      <trkpt lat="43.52519" lon="5.60139">
        <ele>573</ele>
        <time>2022-10-19T10:47:24.630Z</time>
      </trkpt>
      <trkpt lat="43.5252" lon="5.60139">
        <ele>573</ele>
        <time>2022-10-19T10:47:25.630Z</time>
      </trkpt>
      <trkpt lat="43.5252" lon="5.60139">
        <ele>573</ele>
        <time>2022-10-19T10:47:26.630Z</time>
      </trkpt>
      <trkpt lat="43.5252" lon="5.60139">
        <ele>573</ele>
        <time>2022-10-19T10:47:27.630Z</time>
      </trkpt>
      <trkpt lat="43.5252" lon="5.60139">
        <ele>573</ele>
        <time>2022-10-19T10:47:28.630Z</time>
      </trkpt>
      <trkpt lat="43.5252" lon="5.60139">
        <ele>573</ele>
        <time>2022-10-19T10:47:29.630Z</time>
      </trkpt>
      <trkpt lat="43.5252" lon="5.60139">
        <ele>573</ele>
        <time>2022-10-19T10:47:30.630Z</time>
      </trkpt>
      <trkpt lat="43.5252" lon="5.60139">
        <ele>573</ele>
        <time>2022-10-19T10:47:31.630Z</time>
      </trkpt>
      <trkpt lat="43.5252" lon="5.60139">
        <ele>573</ele>
        <time>2022-10-19T10:47:32.630Z</time>
      </trkpt>
      <trkpt lat="43.5252" lon="5.60139">
        <ele>573</ele>
        <time>2022-10-19T10:47:33.630Z</time>
      </trkpt>
      <trkpt lat="43.5252" lon="5.60139">
        <ele>573</ele>
        <time>2022-10-19T10:47:34.630Z</time>
      </trkpt>
      <trkpt lat="43.5252" lon="5.60139">
        <ele>573</ele>
        <time>2022-10-19T10:47:35.630Z</time>
      </trkpt>
      <trkpt lat="43.5252" lon="5.60139">
        <ele>573</ele>
        <time>2022-10-19T10:47:36.630Z</time>
      </trkpt>
      <trkpt lat="43.5252" lon="5.60139">
        <ele>573</ele>
        <time>2022-10-19T10:47:37.630Z</time>
      </trkpt>
      <trkpt lat="43.5252" lon="5.60139">
        <ele>573</ele>
        <time>2022-10-19T10:47:38.630Z</time>
      </trkpt>
      <trkpt lat="43.5252" lon="5.60139">
        <ele>573</ele>
        <time>2022-10-19T10:47:39.630Z</time>
      </trkpt>
      <trkpt lat="43.5252" lon="5.60139">
        <ele>573</ele>
        <time>2022-10-19T10:47:40.630Z</time>
      </trkpt>
      <trkpt lat="43.5252" lon="5.60139">
        <ele>573</ele>
        <time>2022-10-19T10:47:41.630Z</time>
      </trkpt>
      <trkpt lat="43.5252" lon="5.60139">
        <ele>573</ele>
        <time>2022-10-19T10:47:42.630Z</time>
      </trkpt>
      <trkpt lat="43.5252" lon="5.60139">
        <ele>573</ele>
        <time>2022-10-19T10:47:43.630Z</time>
      </trkpt>
      <trkpt lat="43.5252" lon="5.60139">
        <ele>573</ele>
        <time>2022-10-19T10:47:44.630Z</time>
      </trkpt>
      <trkpt lat="43.5252" lon="5.60139">
        <ele>573</ele>
        <time>2022-10-19T10:47:45.630Z</time>
      </trkpt>
      <trkpt lat="43.5252" lon="5.60139">
        <ele>573</ele>
        <time>2022-10-19T10:47:46.630Z</time>
      </trkpt>
      <trkpt lat="43.5252" lon="5.60139">
        <ele>573</ele>
        <time>2022-10-19T10:47:47.630Z</time>
      </trkpt>
      <trkpt lat="43.5252" lon="5.60139">
        <ele>573</ele>
        <time>2022-10-19T10:47:48.630Z</time>
      </trkpt>
      <trkpt lat="43.5252" lon="5.60139">
        <ele>573</ele>
        <time>2022-10-19T10:47:49.630Z</time>
      </trkpt>
      <trkpt lat="43.5252" lon="5.60139">
        <ele>573</ele>
        <time>2022-10-19T10:47:50.630Z</time>
      </trkpt>
      <trkpt lat="43.5252" lon="5.60139">
        <ele>573</ele>
        <time>2022-10-19T10:47:51.630Z</time>
      </trkpt>
      <trkpt lat="43.5252" lon="5.60139">
        <ele>573</ele>
        <time>2022-10-19T10:47:52.630Z</time>
      </trkpt>
      <trkpt lat="43.5252" lon="5.60139">
        <ele>573</ele>
        <time>2022-10-19T10:47:53.630Z</time>
      </trkpt>
      <trkpt lat="43.5252" lon="5.60139">
        <ele>573</ele>
        <time>2022-10-19T10:47:54.630Z</time>
      </trkpt>
      <trkpt lat="43.52519" lon="5.60139">
        <ele>573</ele>
        <time>2022-10-19T10:47:55.630Z</time>
      </trkpt>
      <trkpt lat="43.52519" lon="5.60139">
        <ele>573</ele>
        <time>2022-10-19T10:47:56.630Z</time>
      </trkpt>
      <trkpt lat="43.52519" lon="5.60139">
        <ele>573</ele>
        <time>2022-10-19T10:47:57.630Z</time>
      </trkpt>
      <trkpt lat="43.52519" lon="5.60139">
        <ele>573</ele>
        <time>2022-10-19T10:47:58.630Z</time>
      </trkpt>
      <trkpt lat="43.52519" lon="5.60139">
        <ele>573</ele>
        <time>2022-10-19T10:47:59.630Z</time>
      </trkpt>
      <trkpt lat="43.52519" lon="5.60139">
        <ele>573</ele>
        <time>2022-10-19T10:48:00.630Z</time>
      </trkpt>
      <trkpt lat="43.52519" lon="5.60139">
        <ele>573</ele>
        <time>2022-10-19T10:48:01.630Z</time>
      </trkpt>
      <trkpt lat="43.52519" lon="5.60139">
        <ele>573</ele>
        <time>2022-10-19T10:48:02.630Z</time>
      </trkpt>
      <trkpt lat="43.52519" lon="5.60139">
        <ele>573</ele>
        <time>2022-10-19T10:48:03.630Z</time>
      </trkpt>
      <trkpt lat="43.52519" lon="5.60139">
        <ele>573</ele>
        <time>2022-10-19T10:48:04.630Z</time>
      </trkpt>
      <trkpt lat="43.52519" lon="5.60139">
        <ele>573</ele>
        <time>2022-10-19T10:48:05.630Z</time>
      </trkpt>
      <trkpt lat="43.52519" lon="5.60139">
        <ele>573</ele>
        <time>2022-10-19T10:48:06.630Z</time>
      </trkpt>
      <trkpt lat="43.52519" lon="5.60139">
        <ele>573</ele>
        <time>2022-10-19T10:48:07.630Z</time>
      </trkpt>
      <trkpt lat="43.52519" lon="5.60139">
        <ele>573</ele>
        <time>2022-10-19T10:48:08.630Z</time>
      </trkpt>
      <trkpt lat="43.5252" lon="5.60139">
        <ele>573</ele>
        <time>2022-10-19T10:48:09.630Z</time>
      </trkpt>
      <trkpt lat="43.5252" lon="5.60139">
        <ele>573</ele>
        <time>2022-10-19T10:48:10.630Z</time>
      </trkpt>
      <trkpt lat="43.5252" lon="5.60139">
        <ele>573</ele>
        <time>2022-10-19T10:48:11.630Z</time>
      </trkpt>
      <trkpt lat="43.5252" lon="5.60139">
        <ele>573</ele>
        <time>2022-10-19T10:48:12.630Z</time>
      </trkpt>
      <trkpt lat="43.5252" lon="5.60139">
        <ele>573</ele>
        <time>2022-10-19T10:48:13.630Z</time>
      </trkpt>
      <trkpt lat="43.5252" lon="5.60139">
        <ele>573</ele>
        <time>2022-10-19T10:48:14.630Z</time>
      </trkpt>
      <trkpt lat="43.5252" lon="5.60139">
        <ele>573</ele>
        <time>2022-10-19T10:48:15.630Z</time>
      </trkpt>
      <trkpt lat="43.5252" lon="5.60139">
        <ele>573</ele>
        <time>2022-10-19T10:48:16.630Z</time>
      </trkpt>
      <trkpt lat="43.5252" lon="5.60139">
        <ele>573</ele>
        <time>2022-10-19T10:48:17.630Z</time>
      </trkpt>
      <trkpt lat="43.5252" lon="5.60139">
        <ele>573</ele>
        <time>2022-10-19T10:48:18.630Z</time>
      </trkpt>
      <trkpt lat="43.5252" lon="5.60139">
        <ele>573</ele>
        <time>2022-10-19T10:48:19.630Z</time>
      </trkpt>
      <trkpt lat="43.5252" lon="5.6014">
        <ele>573</ele>
        <time>2022-10-19T10:48:20.630Z</time>
      </trkpt>
      <trkpt lat="43.52519" lon="5.6014">
        <ele>573</ele>
        <time>2022-10-19T10:48:21.630Z</time>
      </trkpt>
      <trkpt lat="43.52519" lon="5.6014">
        <ele>573</ele>
        <time>2022-10-19T10:48:22.630Z</time>
      </trkpt>
      <trkpt lat="43.5252" lon="5.6014">
        <ele>573</ele>
        <time>2022-10-19T10:48:23.630Z</time>
      </trkpt>
      <trkpt lat="43.52519" lon="5.6014">
        <ele>573</ele>
        <time>2022-10-19T10:48:24.630Z</time>
      </trkpt>
      <trkpt lat="43.5252" lon="5.6014">
        <ele>573</ele>
        <time>2022-10-19T10:48:25.630Z</time>
      </trkpt>
      <trkpt lat="43.5252" lon="5.6014">
        <ele>573</ele>
        <time>2022-10-19T10:48:26.630Z</time>
      </trkpt>
      <trkpt lat="43.52519" lon="5.6014">
        <ele>573</ele>
        <time>2022-10-19T10:48:27.630Z</time>
      </trkpt>
      <trkpt lat="43.52519" lon="5.6014">
        <ele>573</ele>
        <time>2022-10-19T10:48:28.630Z</time>
      </trkpt>
      <trkpt lat="43.52519" lon="5.6014">
        <ele>573</ele>
        <time>2022-10-19T10:48:29.630Z</time>
      </trkpt>
      <trkpt lat="43.52519" lon="5.6014">
        <ele>573</ele>
        <time>2022-10-19T10:48:30.630Z</time>
      </trkpt>
      <trkpt lat="43.52519" lon="5.6014">
        <ele>573</ele>
        <time>2022-10-19T10:48:31.630Z</time>
      </trkpt>
      <trkpt lat="43.52519" lon="5.6014">
        <ele>573</ele>
        <time>2022-10-19T10:48:32.630Z</time>
      </trkpt>
      <trkpt lat="43.52519" lon="5.6014">
        <ele>573</ele>
        <time>2022-10-19T10:48:33.630Z</time>
      </trkpt>
      <trkpt lat="43.52519" lon="5.6014">
        <ele>573</ele>
        <time>2022-10-19T10:48:34.630Z</time>
      </trkpt>
      <trkpt lat="43.52519" lon="5.6014">
        <ele>573</ele>
        <time>2022-10-19T10:48:35.630Z</time>
      </trkpt>
      <trkpt lat="43.52519" lon="5.6014">
        <ele>573</ele>
        <time>2022-10-19T10:48:36.630Z</time>
      </trkpt>
      <trkpt lat="43.52519" lon="5.6014">
        <ele>573</ele>
        <time>2022-10-19T10:48:37.630Z</time>
      </trkpt>
      <trkpt lat="43.52519" lon="5.6014">
        <ele>573</ele>
        <time>2022-10-19T10:48:38.630Z</time>
      </trkpt>
      <trkpt lat="43.52519" lon="5.60139">
        <ele>573</ele>
        <time>2022-10-19T10:48:39.630Z</time>
      </trkpt>
      <trkpt lat="43.52519" lon="5.6014">
        <ele>573</ele>
        <time>2022-10-19T10:48:40.630Z</time>
      </trkpt>
      <trkpt lat="43.52519" lon="5.6014">
        <ele>573</ele>
        <time>2022-10-19T10:48:41.630Z</time>
      </trkpt>
      <trkpt lat="43.52519" lon="5.6014">
        <ele>573</ele>
        <time>2022-10-19T10:48:42.630Z</time>
      </trkpt>
      <trkpt lat="43.52519" lon="5.6014">
        <ele>573</ele>
        <time>2022-10-19T10:48:43.630Z</time>
      </trkpt>
      <trkpt lat="43.52519" lon="5.6014">
        <ele>573</ele>
        <time>2022-10-19T10:48:44.630Z</time>
      </trkpt>
      <trkpt lat="43.52519" lon="5.6014">
        <ele>573</ele>
        <time>2022-10-19T10:48:45.630Z</time>
      </trkpt>
      <trkpt lat="43.5252" lon="5.6014">
        <ele>573</ele>
        <time>2022-10-19T10:48:46.630Z</time>
      </trkpt>
      <trkpt lat="43.5252" lon="5.6014">
        <ele>573</ele>
        <time>2022-10-19T10:48:47.630Z</time>
      </trkpt>
      <trkpt lat="43.5252" lon="5.6014">
        <ele>573</ele>
        <time>2022-10-19T10:48:48.630Z</time>
      </trkpt>
      <trkpt lat="43.5252" lon="5.6014">
        <ele>573</ele>
        <time>2022-10-19T10:48:49.630Z</time>
      </trkpt>
      <trkpt lat="43.5252" lon="5.60139">
        <ele>573</ele>
        <time>2022-10-19T10:48:50.630Z</time>
      </trkpt>
      <trkpt lat="43.5252" lon="5.60139">
        <ele>573</ele>
        <time>2022-10-19T10:48:51.630Z</time>
      </trkpt>
      <trkpt lat="43.5252" lon="5.6014">
        <ele>573</ele>
        <time>2022-10-19T10:48:52.630Z</time>
      </trkpt>
      <trkpt lat="43.5252" lon="5.6014">
        <ele>573</ele>
        <time>2022-10-19T10:48:53.630Z</time>
      </trkpt>
      <trkpt lat="43.5252" lon="5.6014">
        <ele>572</ele>
        <time>2022-10-19T10:48:54.630Z</time>
      </trkpt>
      <trkpt lat="43.5252" lon="5.6014">
        <ele>572</ele>
        <time>2022-10-19T10:48:55.630Z</time>
      </trkpt>
      <trkpt lat="43.5252" lon="5.6014">
        <ele>572</ele>
        <time>2022-10-19T10:48:56.630Z</time>
      </trkpt>
      <trkpt lat="43.5252" lon="5.6014">
        <ele>572</ele>
        <time>2022-10-19T10:48:57.630Z</time>
      </trkpt>
      <trkpt lat="43.5252" lon="5.6014">
        <ele>572</ele>
        <time>2022-10-19T10:48:58.630Z</time>
      </trkpt>
      <trkpt lat="43.5252" lon="5.6014">
        <ele>572</ele>
        <time>2022-10-19T10:48:59.630Z</time>
      </trkpt>
      <trkpt lat="43.5252" lon="5.6014">
        <ele>572</ele>
        <time>2022-10-19T10:49:00.630Z</time>
      </trkpt>
      <trkpt lat="43.5252" lon="5.6014">
        <ele>572</ele>
        <time>2022-10-19T10:49:01.630Z</time>
      </trkpt>
      <trkpt lat="43.5252" lon="5.6014">
        <ele>572</ele>
        <time>2022-10-19T10:49:02.630Z</time>
      </trkpt>
      <trkpt lat="43.5252" lon="5.60139">
        <ele>572</ele>
        <time>2022-10-19T10:49:03.630Z</time>
      </trkpt>
      <trkpt lat="43.5252" lon="5.60139">
        <ele>572</ele>
        <time>2022-10-19T10:49:04.630Z</time>
      </trkpt>
      <trkpt lat="43.5252" lon="5.60139">
        <ele>572</ele>
        <time>2022-10-19T10:49:05.630Z</time>
      </trkpt>
      <trkpt lat="43.5252" lon="5.60139">
        <ele>572</ele>
        <time>2022-10-19T10:49:06.630Z</time>
      </trkpt>
      <trkpt lat="43.5252" lon="5.60139">
        <ele>572</ele>
        <time>2022-10-19T10:49:07.630Z</time>
      </trkpt>
      <trkpt lat="43.5252" lon="5.60139">
        <ele>572</ele>
        <time>2022-10-19T10:49:08.630Z</time>
      </trkpt>
      <trkpt lat="43.5252" lon="5.60139">
        <ele>572</ele>
        <time>2022-10-19T10:49:09.630Z</time>
      </trkpt>
      <trkpt lat="43.5252" lon="5.60139">
        <ele>572</ele>
        <time>2022-10-19T10:49:10.630Z</time>
      </trkpt>
      <trkpt lat="43.5252" lon="5.60139">
        <ele>572</ele>
        <time>2022-10-19T10:49:11.630Z</time>
      </trkpt>
      <trkpt lat="43.5252" lon="5.60139">
        <ele>572</ele>
        <time>2022-10-19T10:49:12.630Z</time>
      </trkpt>
      <trkpt lat="43.5252" lon="5.60139">
        <ele>572</ele>
        <time>2022-10-19T10:49:13.630Z</time>
      </trkpt>
      <trkpt lat="43.5252" lon="5.60139">
        <ele>572</ele>
        <time>2022-10-19T10:49:14.630Z</time>
      </trkpt>
      <trkpt lat="43.5252" lon="5.60139">
        <ele>572</ele>
        <time>2022-10-19T10:49:15.630Z</time>
      </trkpt>
      <trkpt lat="43.5252" lon="5.60139">
        <ele>572</ele>
        <time>2022-10-19T10:49:16.630Z</time>
      </trkpt>
      <trkpt lat="43.5252" lon="5.60139">
        <ele>572</ele>
        <time>2022-10-19T10:49:17.630Z</time>
      </trkpt>
      <trkpt lat="43.5252" lon="5.6014">
        <ele>573</ele>
        <time>2022-10-19T10:49:18.630Z</time>
      </trkpt>
      <trkpt lat="43.5252" lon="5.6014">
        <ele>573</ele>
        <time>2022-10-19T10:49:19.630Z</time>
      </trkpt>
      <trkpt lat="43.5252" lon="5.6014">
        <ele>573</ele>
        <time>2022-10-19T10:49:20.630Z</time>
      </trkpt>
      <trkpt lat="43.5252" lon="5.6014">
        <ele>573</ele>
        <time>2022-10-19T10:49:21.630Z</time>
      </trkpt>
      <trkpt lat="43.5252" lon="5.6014">
        <ele>573</ele>
        <time>2022-10-19T10:49:22.630Z</time>
      </trkpt>
      <trkpt lat="43.5252" lon="5.6014">
        <ele>573</ele>
        <time>2022-10-19T10:49:23.630Z</time>
      </trkpt>
      <trkpt lat="43.5252" lon="5.6014">
        <ele>573</ele>
        <time>2022-10-19T10:49:24.630Z</time>
      </trkpt>
      <trkpt lat="43.5252" lon="5.6014">
        <ele>573</ele>
        <time>2022-10-19T10:49:25.630Z</time>
      </trkpt>
      <trkpt lat="43.5252" lon="5.60139">
        <ele>572</ele>
        <time>2022-10-19T10:49:26.630Z</time>
      </trkpt>
      <trkpt lat="43.5252" lon="5.60139">
        <ele>572</ele>
        <time>2022-10-19T10:49:27.630Z</time>
      </trkpt>
      <trkpt lat="43.5252" lon="5.60139">
        <ele>572</ele>
        <time>2022-10-19T10:49:28.630Z</time>
      </trkpt>
      <trkpt lat="43.5252" lon="5.60139">
        <ele>572</ele>
        <time>2022-10-19T10:49:29.630Z</time>
      </trkpt>
      <trkpt lat="43.5252" lon="5.60139">
        <ele>572</ele>
        <time>2022-10-19T10:49:30.630Z</time>
      </trkpt>
      <trkpt lat="43.52521" lon="5.60139">
        <ele>572</ele>
        <time>2022-10-19T10:49:31.630Z</time>
      </trkpt>
      <trkpt lat="43.52521" lon="5.60139">
        <ele>572</ele>
        <time>2022-10-19T10:49:32.630Z</time>
      </trkpt>
      <trkpt lat="43.52521" lon="5.6014">
        <ele>572</ele>
        <time>2022-10-19T10:49:33.630Z</time>
      </trkpt>
      <trkpt lat="43.52521" lon="5.6014">
        <ele>572</ele>
        <time>2022-10-19T10:49:34.630Z</time>
      </trkpt>
      <trkpt lat="43.52521" lon="5.6014">
        <ele>572</ele>
        <time>2022-10-19T10:49:35.630Z</time>
      </trkpt>
      <trkpt lat="43.52521" lon="5.6014">
        <ele>572</ele>
        <time>2022-10-19T10:49:36.630Z</time>
      </trkpt>
      <trkpt lat="43.52521" lon="5.6014">
        <ele>572</ele>
        <time>2022-10-19T10:49:37.630Z</time>
      </trkpt>
      <trkpt lat="43.52521" lon="5.6014">
        <ele>572</ele>
        <time>2022-10-19T10:49:38.630Z</time>
      </trkpt>
      <trkpt lat="43.52521" lon="5.6014">
        <ele>572</ele>
        <time>2022-10-19T10:49:39.630Z</time>
      </trkpt>
      <trkpt lat="43.5252" lon="5.60141">
        <ele>572</ele>
        <time>2022-10-19T10:49:40.630Z</time>
      </trkpt>
      <trkpt lat="43.5252" lon="5.60142">
        <ele>572</ele>
        <time>2022-10-19T10:49:41.630Z</time>
      </trkpt>
      <trkpt lat="43.5252" lon="5.60143">
        <ele>572</ele>
        <time>2022-10-19T10:49:42.630Z</time>
      </trkpt>
      <trkpt lat="43.5252" lon="5.60144">
        <ele>572</ele>
        <time>2022-10-19T10:49:43.630Z</time>
      </trkpt>
      <trkpt lat="43.5252" lon="5.60145">
        <ele>572</ele>
        <time>2022-10-19T10:49:44.630Z</time>
      </trkpt>
      <trkpt lat="43.5252" lon="5.60146">
        <ele>571</ele>
        <time>2022-10-19T10:49:45.630Z</time>
      </trkpt>
      <trkpt lat="43.52519" lon="5.60147">
        <ele>571</ele>
        <time>2022-10-19T10:49:46.630Z</time>
      </trkpt>
      <trkpt lat="43.52519" lon="5.60148">
        <ele>571</ele>
        <time>2022-10-19T10:49:47.630Z</time>
      </trkpt>
      <trkpt lat="43.52519" lon="5.60149">
        <ele>571</ele>
        <time>2022-10-19T10:49:48.630Z</time>
      </trkpt>
      <trkpt lat="43.52519" lon="5.6015">
        <ele>571</ele>
        <time>2022-10-19T10:49:49.630Z</time>
      </trkpt>
      <trkpt lat="43.52519" lon="5.60152">
        <ele>570</ele>
        <time>2022-10-19T10:49:50.630Z</time>
      </trkpt>
      <trkpt lat="43.52519" lon="5.60153">
        <ele>570</ele>
        <time>2022-10-19T10:49:51.630Z</time>
      </trkpt>
      <trkpt lat="43.52518" lon="5.60154">
        <ele>570</ele>
        <time>2022-10-19T10:49:52.630Z</time>
      </trkpt>
      <trkpt lat="43.52518" lon="5.60155">
        <ele>570</ele>
        <time>2022-10-19T10:49:53.630Z</time>
      </trkpt>
      <trkpt lat="43.52517" lon="5.60156">
        <ele>570</ele>
        <time>2022-10-19T10:49:54.630Z</time>
      </trkpt>
      <trkpt lat="43.52517" lon="5.60157">
        <ele>570</ele>
        <time>2022-10-19T10:49:55.630Z</time>
      </trkpt>
      <trkpt lat="43.52516" lon="5.60158">
        <ele>569</ele>
        <time>2022-10-19T10:49:56.630Z</time>
      </trkpt>
      <trkpt lat="43.52515" lon="5.60158">
        <ele>569</ele>
        <time>2022-10-19T10:49:57.630Z</time>
      </trkpt>
      <trkpt lat="43.52514" lon="5.60159">
        <ele>569</ele>
        <time>2022-10-19T10:49:58.630Z</time>
      </trkpt>
      <trkpt lat="43.52514" lon="5.60159">
        <ele>569</ele>
        <time>2022-10-19T10:49:59.630Z</time>
      </trkpt>
      <trkpt lat="43.52513" lon="5.60159">
        <ele>569</ele>
        <time>2022-10-19T10:50:00.630Z</time>
      </trkpt>
      <trkpt lat="43.52513" lon="5.6016">
        <ele>569</ele>
        <time>2022-10-19T10:50:01.630Z</time>
      </trkpt>
      <trkpt lat="43.52512" lon="5.6016">
        <ele>568</ele>
        <time>2022-10-19T10:50:02.630Z</time>
      </trkpt>
      <trkpt lat="43.52511" lon="5.60161">
        <ele>568</ele>
        <time>2022-10-19T10:50:03.630Z</time>
      </trkpt>
      <trkpt lat="43.52511" lon="5.60161">
        <ele>568</ele>
        <time>2022-10-19T10:50:04.630Z</time>
      </trkpt>
      <trkpt lat="43.5251" lon="5.60161">
        <ele>568</ele>
        <time>2022-10-19T10:50:05.630Z</time>
      </trkpt>
      <trkpt lat="43.52509" lon="5.60161">
        <ele>568</ele>
        <time>2022-10-19T10:50:06.630Z</time>
      </trkpt>
      <trkpt lat="43.52509" lon="5.60161">
        <ele>568</ele>
        <time>2022-10-19T10:50:07.630Z</time>
      </trkpt>
      <trkpt lat="43.52508" lon="5.60161">
        <ele>567</ele>
        <time>2022-10-19T10:50:08.630Z</time>
      </trkpt>
      <trkpt lat="43.52507" lon="5.60161">
        <ele>567</ele>
        <time>2022-10-19T10:50:09.630Z</time>
      </trkpt>
      <trkpt lat="43.52506" lon="5.60161">
        <ele>567</ele>
        <time>2022-10-19T10:50:10.630Z</time>
      </trkpt>
      <trkpt lat="43.52506" lon="5.60161">
        <ele>566</ele>
        <time>2022-10-19T10:50:11.630Z</time>
      </trkpt>
      <trkpt lat="43.52505" lon="5.60161">
        <ele>566</ele>
        <time>2022-10-19T10:50:12.630Z</time>
      </trkpt>
      <trkpt lat="43.52504" lon="5.60162">
        <ele>566</ele>
        <time>2022-10-19T10:50:13.630Z</time>
      </trkpt>
      <trkpt lat="43.52503" lon="5.60162">
        <ele>566</ele>
        <time>2022-10-19T10:50:14.630Z</time>
      </trkpt>
      <trkpt lat="43.52502" lon="5.60163">
        <ele>565</ele>
        <time>2022-10-19T10:50:15.630Z</time>
      </trkpt>
      <trkpt lat="43.52501" lon="5.60164">
        <ele>565</ele>
        <time>2022-10-19T10:50:16.630Z</time>
      </trkpt>
      <trkpt lat="43.525" lon="5.60164">
        <ele>565</ele>
        <time>2022-10-19T10:50:17.630Z</time>
      </trkpt>
      <trkpt lat="43.52499" lon="5.60165">
        <ele>565</ele>
        <time>2022-10-19T10:50:18.630Z</time>
      </trkpt>
      <trkpt lat="43.52498" lon="5.60165">
        <ele>565</ele>
        <time>2022-10-19T10:50:19.630Z</time>
      </trkpt>
      <trkpt lat="43.52497" lon="5.60166">
        <ele>565</ele>
        <time>2022-10-19T10:50:20.630Z</time>
      </trkpt>
      <trkpt lat="43.52496" lon="5.60166">
        <ele>564</ele>
        <time>2022-10-19T10:50:21.630Z</time>
      </trkpt>
      <trkpt lat="43.52495" lon="5.60166">
        <ele>564</ele>
        <time>2022-10-19T10:50:22.630Z</time>
      </trkpt>
      <trkpt lat="43.52493" lon="5.60166">
        <ele>564</ele>
        <time>2022-10-19T10:50:23.630Z</time>
      </trkpt>
      <trkpt lat="43.52492" lon="5.60166">
        <ele>564</ele>
        <time>2022-10-19T10:50:24.630Z</time>
      </trkpt>
      <trkpt lat="43.52491" lon="5.60166">
        <ele>564</ele>
        <time>2022-10-19T10:50:25.630Z</time>
      </trkpt>
      <trkpt lat="43.5249" lon="5.60167">
        <ele>563</ele>
        <time>2022-10-19T10:50:26.630Z</time>
      </trkpt>
      <trkpt lat="43.52489" lon="5.60167">
        <ele>563</ele>
        <time>2022-10-19T10:50:27.630Z</time>
      </trkpt>
      <trkpt lat="43.52488" lon="5.60168">
        <ele>563</ele>
        <time>2022-10-19T10:50:28.630Z</time>
      </trkpt>
      <trkpt lat="43.52487" lon="5.60168">
        <ele>563</ele>
        <time>2022-10-19T10:50:29.630Z</time>
      </trkpt>
      <trkpt lat="43.52486" lon="5.60169">
        <ele>563</ele>
        <time>2022-10-19T10:50:30.630Z</time>
      </trkpt>
      <trkpt lat="43.52485" lon="5.60169">
        <ele>563</ele>
        <time>2022-10-19T10:50:31.630Z</time>
      </trkpt>
      <trkpt lat="43.52484" lon="5.6017">
        <ele>562</ele>
        <time>2022-10-19T10:50:32.630Z</time>
      </trkpt>
      <trkpt lat="43.52483" lon="5.60171">
        <ele>562</ele>
        <time>2022-10-19T10:50:33.630Z</time>
      </trkpt>
      <trkpt lat="43.52483" lon="5.60171">
        <ele>562</ele>
        <time>2022-10-19T10:50:34.630Z</time>
      </trkpt>
      <trkpt lat="43.52482" lon="5.60171">
        <ele>562</ele>
        <time>2022-10-19T10:50:35.630Z</time>
      </trkpt>
      <trkpt lat="43.52481" lon="5.60172">
        <ele>562</ele>
        <time>2022-10-19T10:50:36.630Z</time>
      </trkpt>
      <trkpt lat="43.52481" lon="5.60171">
        <ele>561</ele>
        <time>2022-10-19T10:50:37.630Z</time>
      </trkpt>
      <trkpt lat="43.5248" lon="5.60171">
        <ele>561</ele>
        <time>2022-10-19T10:50:38.630Z</time>
      </trkpt>
      <trkpt lat="43.52479" lon="5.6017">
        <ele>561</ele>
        <time>2022-10-19T10:50:39.630Z</time>
      </trkpt>
      <trkpt lat="43.52478" lon="5.6017">
        <ele>561</ele>
        <time>2022-10-19T10:50:40.630Z</time>
      </trkpt>
      <trkpt lat="43.52477" lon="5.60169">
        <ele>561</ele>
        <time>2022-10-19T10:50:41.630Z</time>
      </trkpt>
      <trkpt lat="43.52477" lon="5.60169">
        <ele>560</ele>
        <time>2022-10-19T10:50:42.630Z</time>
      </trkpt>
      <trkpt lat="43.52475" lon="5.60169">
        <ele>560</ele>
        <time>2022-10-19T10:50:43.630Z</time>
      </trkpt>
      <trkpt lat="43.52474" lon="5.60168">
        <ele>560</ele>
        <time>2022-10-19T10:50:44.630Z</time>
      </trkpt>
      <trkpt lat="43.52474" lon="5.60167">
        <ele>560</ele>
        <time>2022-10-19T10:50:45.630Z</time>
      </trkpt>
      <trkpt lat="43.52473" lon="5.60167">
        <ele>559</ele>
        <time>2022-10-19T10:50:46.630Z</time>
      </trkpt>
      <trkpt lat="43.52472" lon="5.60166">
        <ele>559</ele>
        <time>2022-10-19T10:50:47.630Z</time>
      </trkpt>
      <trkpt lat="43.52472" lon="5.60165">
        <ele>559</ele>
        <time>2022-10-19T10:50:48.630Z</time>
      </trkpt>
      <trkpt lat="43.52471" lon="5.60164">
        <ele>559</ele>
        <time>2022-10-19T10:50:49.630Z</time>
      </trkpt>
      <trkpt lat="43.5247" lon="5.60163">
        <ele>559</ele>
        <time>2022-10-19T10:50:50.630Z</time>
      </trkpt>
      <trkpt lat="43.52469" lon="5.60163">
        <ele>559</ele>
        <time>2022-10-19T10:50:51.630Z</time>
      </trkpt>
      <trkpt lat="43.52469" lon="5.60162">
        <ele>558</ele>
        <time>2022-10-19T10:50:52.630Z</time>
      </trkpt>
      <trkpt lat="43.52468" lon="5.60162">
        <ele>558</ele>
        <time>2022-10-19T10:50:53.630Z</time>
      </trkpt>
      <trkpt lat="43.52467" lon="5.60162">
        <ele>558</ele>
        <time>2022-10-19T10:50:54.630Z</time>
      </trkpt>
      <trkpt lat="43.52466" lon="5.60161">
        <ele>558</ele>
        <time>2022-10-19T10:50:55.630Z</time>
      </trkpt>
      <trkpt lat="43.52465" lon="5.60161">
        <ele>558</ele>
        <time>2022-10-19T10:50:56.630Z</time>
      </trkpt>
      <trkpt lat="43.52464" lon="5.60161">
        <ele>558</ele>
        <time>2022-10-19T10:50:57.630Z</time>
      </trkpt>
      <trkpt lat="43.52464" lon="5.60161">
        <ele>558</ele>
        <time>2022-10-19T10:50:58.630Z</time>
      </trkpt>
      <trkpt lat="43.52464" lon="5.60161">
        <ele>558</ele>
        <time>2022-10-19T10:50:59.630Z</time>
      </trkpt>
      <trkpt lat="43.52464" lon="5.6016">
        <ele>558</ele>
        <time>2022-10-19T10:51:00.630Z</time>
      </trkpt>
      <trkpt lat="43.52464" lon="5.6016">
        <ele>558</ele>
        <time>2022-10-19T10:51:01.630Z</time>
      </trkpt>
      <trkpt lat="43.52464" lon="5.6016">
        <ele>558</ele>
        <time>2022-10-19T10:51:02.630Z</time>
      </trkpt>
      <trkpt lat="43.52464" lon="5.6016">
        <ele>558</ele>
        <time>2022-10-19T10:51:03.630Z</time>
      </trkpt>
      <trkpt lat="43.52464" lon="5.6016">
        <ele>558</ele>
        <time>2022-10-19T10:51:04.630Z</time>
      </trkpt>
      <trkpt lat="43.52464" lon="5.6016">
        <ele>557</ele>
        <time>2022-10-19T10:51:05.630Z</time>
      </trkpt>
      <trkpt lat="43.52464" lon="5.6016">
        <ele>557</ele>
        <time>2022-10-19T10:51:06.630Z</time>
      </trkpt>
      <trkpt lat="43.52464" lon="5.6016">
        <ele>557</ele>
        <time>2022-10-19T10:51:07.630Z</time>
      </trkpt>
      <trkpt lat="43.52464" lon="5.6016">
        <ele>557</ele>
        <time>2022-10-19T10:51:08.630Z</time>
      </trkpt>
      <trkpt lat="43.52463" lon="5.6016">
        <ele>557</ele>
        <time>2022-10-19T10:51:09.630Z</time>
      </trkpt>
      <trkpt lat="43.52463" lon="5.6016">
        <ele>557</ele>
        <time>2022-10-19T10:51:10.630Z</time>
      </trkpt>
      <trkpt lat="43.52463" lon="5.6016">
        <ele>557</ele>
        <time>2022-10-19T10:51:11.630Z</time>
      </trkpt>
      <trkpt lat="43.52463" lon="5.6016">
        <ele>557</ele>
        <time>2022-10-19T10:51:12.630Z</time>
      </trkpt>
      <trkpt lat="43.52463" lon="5.6016">
        <ele>557</ele>
        <time>2022-10-19T10:51:13.630Z</time>
      </trkpt>
      <trkpt lat="43.52463" lon="5.6016">
        <ele>557</ele>
        <time>2022-10-19T10:51:14.630Z</time>
      </trkpt>
      <trkpt lat="43.52463" lon="5.6016">
        <ele>557</ele>
        <time>2022-10-19T10:51:15.630Z</time>
      </trkpt>
      <trkpt lat="43.52463" lon="5.6016">
        <ele>557</ele>
        <time>2022-10-19T10:51:16.630Z</time>
      </trkpt>
      <trkpt lat="43.52463" lon="5.6016">
        <ele>557</ele>
        <time>2022-10-19T10:51:17.630Z</time>
      </trkpt>
      <trkpt lat="43.52463" lon="5.6016">
        <ele>557</ele>
        <time>2022-10-19T10:51:18.630Z</time>
      </trkpt>
      <trkpt lat="43.52463" lon="5.6016">
        <ele>557</ele>
        <time>2022-10-19T10:51:19.630Z</time>
      </trkpt>
      <trkpt lat="43.52463" lon="5.6016">
        <ele>557</ele>
        <time>2022-10-19T10:51:20.630Z</time>
      </trkpt>
      <trkpt lat="43.52463" lon="5.6016">
        <ele>557</ele>
        <time>2022-10-19T10:51:21.630Z</time>
      </trkpt>
      <trkpt lat="43.52463" lon="5.6016">
        <ele>557</ele>
        <time>2022-10-19T10:51:22.630Z</time>
      </trkpt>
      <trkpt lat="43.52463" lon="5.6016">
        <ele>557</ele>
        <time>2022-10-19T10:51:23.630Z</time>
      </trkpt>
      <trkpt lat="43.52463" lon="5.6016">
        <ele>557</ele>
        <time>2022-10-19T10:51:24.630Z</time>
      </trkpt>
      <trkpt lat="43.52463" lon="5.6016">
        <ele>557</ele>
        <time>2022-10-19T10:51:25.630Z</time>
      </trkpt>
      <trkpt lat="43.52463" lon="5.6016">
        <ele>557</ele>
        <time>2022-10-19T10:51:26.630Z</time>
      </trkpt>
      <trkpt lat="43.52463" lon="5.6016">
        <ele>557</ele>
        <time>2022-10-19T10:51:27.630Z</time>
      </trkpt>
      <trkpt lat="43.52463" lon="5.6016">
        <ele>557</ele>
        <time>2022-10-19T10:51:28.630Z</time>
      </trkpt>
      <trkpt lat="43.52463" lon="5.6016">
        <ele>557</ele>
        <time>2022-10-19T10:51:29.630Z</time>
      </trkpt>
      <trkpt lat="43.52463" lon="5.6016">
        <ele>557</ele>
        <time>2022-10-19T10:51:30.630Z</time>
      </trkpt>
      <trkpt lat="43.52463" lon="5.6016">
        <ele>557</ele>
        <time>2022-10-19T10:51:31.630Z</time>
      </trkpt>
      <trkpt lat="43.52463" lon="5.6016">
        <ele>557</ele>
        <time>2022-10-19T10:51:32.630Z</time>
      </trkpt>
      <trkpt lat="43.52463" lon="5.6016">
        <ele>557</ele>
        <time>2022-10-19T10:51:33.630Z</time>
      </trkpt>
      <trkpt lat="43.52463" lon="5.6016">
        <ele>557</ele>
        <time>2022-10-19T10:51:34.630Z</time>
      </trkpt>
      <trkpt lat="43.52463" lon="5.6016">
        <ele>557</ele>
        <time>2022-10-19T10:51:35.630Z</time>
      </trkpt>
      <trkpt lat="43.52463" lon="5.6016">
        <ele>557</ele>
        <time>2022-10-19T10:51:36.630Z</time>
      </trkpt>
      <trkpt lat="43.52463" lon="5.6016">
        <ele>557</ele>
        <time>2022-10-19T10:51:37.630Z</time>
      </trkpt>
      <trkpt lat="43.52463" lon="5.6016">
        <ele>557</ele>
        <time>2022-10-19T10:51:38.630Z</time>
      </trkpt>
      <trkpt lat="43.52463" lon="5.6016">
        <ele>557</ele>
        <time>2022-10-19T10:51:39.630Z</time>
      </trkpt>
      <trkpt lat="43.52463" lon="5.6016">
        <ele>557</ele>
        <time>2022-10-19T10:51:40.630Z</time>
      </trkpt>
      <trkpt lat="43.52463" lon="5.60159">
        <ele>557</ele>
        <time>2022-10-19T10:51:41.630Z</time>
      </trkpt>
      <trkpt lat="43.52463" lon="5.60159">
        <ele>557</ele>
        <time>2022-10-19T10:51:42.630Z</time>
      </trkpt>
      <trkpt lat="43.52463" lon="5.60159">
        <ele>557</ele>
        <time>2022-10-19T10:51:43.630Z</time>
      </trkpt>
      <trkpt lat="43.52463" lon="5.60159">
        <ele>557</ele>
        <time>2022-10-19T10:51:44.630Z</time>
      </trkpt>
      <trkpt lat="43.52463" lon="5.60159">
        <ele>557</ele>
        <time>2022-10-19T10:51:45.630Z</time>
      </trkpt>
      <trkpt lat="43.52463" lon="5.60159">
        <ele>557</ele>
        <time>2022-10-19T10:51:46.630Z</time>
      </trkpt>
      <trkpt lat="43.52463" lon="5.60159">
        <ele>557</ele>
        <time>2022-10-19T10:51:47.630Z</time>
      </trkpt>
      <trkpt lat="43.52463" lon="5.6016">
        <ele>557</ele>
        <time>2022-10-19T10:51:48.630Z</time>
      </trkpt>
      <trkpt lat="43.52464" lon="5.6016">
        <ele>557</ele>
        <time>2022-10-19T10:51:49.630Z</time>
      </trkpt>
      <trkpt lat="43.52464" lon="5.6016">
        <ele>557</ele>
        <time>2022-10-19T10:51:50.630Z</time>
      </trkpt>
      <trkpt lat="43.52465" lon="5.60161">
        <ele>557</ele>
        <time>2022-10-19T10:51:51.630Z</time>
      </trkpt>
      <trkpt lat="43.52466" lon="5.60161">
        <ele>557</ele>
        <time>2022-10-19T10:51:52.630Z</time>
      </trkpt>
      <trkpt lat="43.52466" lon="5.60161">
        <ele>557</ele>
        <time>2022-10-19T10:51:53.630Z</time>
      </trkpt>
      <trkpt lat="43.52467" lon="5.60162">
        <ele>557</ele>
        <time>2022-10-19T10:51:54.630Z</time>
      </trkpt>
      <trkpt lat="43.52468" lon="5.60162">
        <ele>557</ele>
        <time>2022-10-19T10:51:55.630Z</time>
      </trkpt>
      <trkpt lat="43.52469" lon="5.60162">
        <ele>557</ele>
        <time>2022-10-19T10:51:56.630Z</time>
      </trkpt>
      <trkpt lat="43.5247" lon="5.60163">
        <ele>558</ele>
        <time>2022-10-19T10:51:57.630Z</time>
      </trkpt>
      <trkpt lat="43.52471" lon="5.60164">
        <ele>558</ele>
        <time>2022-10-19T10:51:58.630Z</time>
      </trkpt>
      <trkpt lat="43.52472" lon="5.60164">
        <ele>558</ele>
        <time>2022-10-19T10:51:59.630Z</time>
      </trkpt>
      <trkpt lat="43.52472" lon="5.60165">
        <ele>558</ele>
        <time>2022-10-19T10:52:00.630Z</time>
      </trkpt>
      <trkpt lat="43.52473" lon="5.60165">
        <ele>558</ele>
        <time>2022-10-19T10:52:01.630Z</time>
      </trkpt>
      <trkpt lat="43.52473" lon="5.60165">
        <ele>558</ele>
        <time>2022-10-19T10:52:02.630Z</time>
      </trkpt>
      <trkpt lat="43.52474" lon="5.60166">
        <ele>558</ele>
        <time>2022-10-19T10:52:03.630Z</time>
      </trkpt>
      <trkpt lat="43.52475" lon="5.60166">
        <ele>558</ele>
        <time>2022-10-19T10:52:04.630Z</time>
      </trkpt>
      <trkpt lat="43.52476" lon="5.60167">
        <ele>558</ele>
        <time>2022-10-19T10:52:05.630Z</time>
      </trkpt>
      <trkpt lat="43.52476" lon="5.60167">
        <ele>559</ele>
        <time>2022-10-19T10:52:06.630Z</time>
      </trkpt>
      <trkpt lat="43.52477" lon="5.60168">
        <ele>559</ele>
        <time>2022-10-19T10:52:07.630Z</time>
      </trkpt>
      <trkpt lat="43.52478" lon="5.60168">
        <ele>559</ele>
        <time>2022-10-19T10:52:08.630Z</time>
      </trkpt>
      <trkpt lat="43.52478" lon="5.60169">
        <ele>559</ele>
        <time>2022-10-19T10:52:09.630Z</time>
      </trkpt>
      <trkpt lat="43.52479" lon="5.6017">
        <ele>559</ele>
        <time>2022-10-19T10:52:10.630Z</time>
      </trkpt>
      <trkpt lat="43.52479" lon="5.60171">
        <ele>559</ele>
        <time>2022-10-19T10:52:11.630Z</time>
      </trkpt>
      <trkpt lat="43.5248" lon="5.60172">
        <ele>559</ele>
        <time>2022-10-19T10:52:12.630Z</time>
      </trkpt>
      <trkpt lat="43.5248" lon="5.60174">
        <ele>559</ele>
        <time>2022-10-19T10:52:13.630Z</time>
      </trkpt>
      <trkpt lat="43.5248" lon="5.60175">
        <ele>559</ele>
        <time>2022-10-19T10:52:14.630Z</time>
      </trkpt>
      <trkpt lat="43.5248" lon="5.60176">
        <ele>559</ele>
        <time>2022-10-19T10:52:15.630Z</time>
      </trkpt>
      <trkpt lat="43.5248" lon="5.60177">
        <ele>559</ele>
        <time>2022-10-19T10:52:16.630Z</time>
      </trkpt>
      <trkpt lat="43.5248" lon="5.60178">
        <ele>559</ele>
        <time>2022-10-19T10:52:17.630Z</time>
      </trkpt>
      <trkpt lat="43.5248" lon="5.60179">
        <ele>559</ele>
        <time>2022-10-19T10:52:18.630Z</time>
      </trkpt>
      <trkpt lat="43.5248" lon="5.60179">
        <ele>559</ele>
        <time>2022-10-19T10:52:19.630Z</time>
      </trkpt>
      <trkpt lat="43.52479" lon="5.6018">
        <ele>559</ele>
        <time>2022-10-19T10:52:20.630Z</time>
      </trkpt>
      <trkpt lat="43.52479" lon="5.60182">
        <ele>559</ele>
        <time>2022-10-19T10:52:21.630Z</time>
      </trkpt>
      <trkpt lat="43.52478" lon="5.60183">
        <ele>559</ele>
        <time>2022-10-19T10:52:22.630Z</time>
      </trkpt>
      <trkpt lat="43.52478" lon="5.60184">
        <ele>559</ele>
        <time>2022-10-19T10:52:23.630Z</time>
      </trkpt>
      <trkpt lat="43.52477" lon="5.60185">
        <ele>559</ele>
        <time>2022-10-19T10:52:24.630Z</time>
      </trkpt>
      <trkpt lat="43.52477" lon="5.60185">
        <ele>559</ele>
        <time>2022-10-19T10:52:25.630Z</time>
      </trkpt>
      <trkpt lat="43.52477" lon="5.60187">
        <ele>558</ele>
        <time>2022-10-19T10:52:26.630Z</time>
      </trkpt>
      <trkpt lat="43.52477" lon="5.60188">
        <ele>558</ele>
        <time>2022-10-19T10:52:27.630Z</time>
      </trkpt>
      <trkpt lat="43.52477" lon="5.60189">
        <ele>558</ele>
        <time>2022-10-19T10:52:28.630Z</time>
      </trkpt>
      <trkpt lat="43.52476" lon="5.60189">
        <ele>558</ele>
        <time>2022-10-19T10:52:29.630Z</time>
      </trkpt>
      <trkpt lat="43.52476" lon="5.60189">
        <ele>558</ele>
        <time>2022-10-19T10:52:30.630Z</time>
      </trkpt>
      <trkpt lat="43.52475" lon="5.6019">
        <ele>558</ele>
        <time>2022-10-19T10:52:31.630Z</time>
      </trkpt>
      <trkpt lat="43.52475" lon="5.6019">
        <ele>558</ele>
        <time>2022-10-19T10:52:32.630Z</time>
      </trkpt>
      <trkpt lat="43.52475" lon="5.60191">
        <ele>558</ele>
        <time>2022-10-19T10:52:33.630Z</time>
      </trkpt>
      <trkpt lat="43.52474" lon="5.60192">
        <ele>557</ele>
        <time>2022-10-19T10:52:34.630Z</time>
      </trkpt>
      <trkpt lat="43.52474" lon="5.60193">
        <ele>557</ele>
        <time>2022-10-19T10:52:35.630Z</time>
      </trkpt>
      <trkpt lat="43.52473" lon="5.60194">
        <ele>557</ele>
        <time>2022-10-19T10:52:36.630Z</time>
      </trkpt>
      <trkpt lat="43.52473" lon="5.60194">
        <ele>557</ele>
        <time>2022-10-19T10:52:37.630Z</time>
      </trkpt>
      <trkpt lat="43.52473" lon="5.60195">
        <ele>557</ele>
        <time>2022-10-19T10:52:38.630Z</time>
      </trkpt>
      <trkpt lat="43.52473" lon="5.60195">
        <ele>557</ele>
        <time>2022-10-19T10:52:39.630Z</time>
      </trkpt>
      <trkpt lat="43.52473" lon="5.60195">
        <ele>557</ele>
        <time>2022-10-19T10:52:40.630Z</time>
      </trkpt>
      <trkpt lat="43.52472" lon="5.60195">
        <ele>557</ele>
        <time>2022-10-19T10:52:41.630Z</time>
      </trkpt>
      <trkpt lat="43.52472" lon="5.60195">
        <ele>556</ele>
        <time>2022-10-19T10:52:42.630Z</time>
      </trkpt>
      <trkpt lat="43.52471" lon="5.60195">
        <ele>556</ele>
        <time>2022-10-19T10:52:43.630Z</time>
      </trkpt>
      <trkpt lat="43.5247" lon="5.60195">
        <ele>556</ele>
        <time>2022-10-19T10:52:44.630Z</time>
      </trkpt>
      <trkpt lat="43.52469" lon="5.60196">
        <ele>556</ele>
        <time>2022-10-19T10:52:45.630Z</time>
      </trkpt>
      <trkpt lat="43.52469" lon="5.60197">
        <ele>555</ele>
        <time>2022-10-19T10:52:46.630Z</time>
      </trkpt>
      <trkpt lat="43.52469" lon="5.60198">
        <ele>555</ele>
        <time>2022-10-19T10:52:47.630Z</time>
      </trkpt>
      <trkpt lat="43.52469" lon="5.60199">
        <ele>555</ele>
        <time>2022-10-19T10:52:48.630Z</time>
      </trkpt>
      <trkpt lat="43.52469" lon="5.602">
        <ele>555</ele>
        <time>2022-10-19T10:52:49.630Z</time>
      </trkpt>
      <trkpt lat="43.52469" lon="5.60201">
        <ele>554</ele>
        <time>2022-10-19T10:52:50.630Z</time>
      </trkpt>
      <trkpt lat="43.52469" lon="5.60202">
        <ele>554</ele>
        <time>2022-10-19T10:52:51.630Z</time>
      </trkpt>
      <trkpt lat="43.52469" lon="5.60204">
        <ele>554</ele>
        <time>2022-10-19T10:52:52.630Z</time>
      </trkpt>
      <trkpt lat="43.52469" lon="5.60205">
        <ele>554</ele>
        <time>2022-10-19T10:52:53.630Z</time>
      </trkpt>
      <trkpt lat="43.52469" lon="5.60206">
        <ele>553</ele>
        <time>2022-10-19T10:52:54.630Z</time>
      </trkpt>
      <trkpt lat="43.52469" lon="5.60207">
        <ele>553</ele>
        <time>2022-10-19T10:52:55.630Z</time>
      </trkpt>
      <trkpt lat="43.52469" lon="5.60208">
        <ele>553</ele>
        <time>2022-10-19T10:52:56.630Z</time>
      </trkpt>
      <trkpt lat="43.52469" lon="5.60208">
        <ele>553</ele>
        <time>2022-10-19T10:52:57.630Z</time>
      </trkpt>
      <trkpt lat="43.52469" lon="5.60209">
        <ele>553</ele>
        <time>2022-10-19T10:52:58.630Z</time>
      </trkpt>
      <trkpt lat="43.52469" lon="5.6021">
        <ele>552</ele>
        <time>2022-10-19T10:52:59.630Z</time>
      </trkpt>
      <trkpt lat="43.52469" lon="5.60211">
        <ele>552</ele>
        <time>2022-10-19T10:53:00.630Z</time>
      </trkpt>
      <trkpt lat="43.52469" lon="5.60212">
        <ele>552</ele>
        <time>2022-10-19T10:53:01.630Z</time>
      </trkpt>
      <trkpt lat="43.52469" lon="5.60213">
        <ele>552</ele>
        <time>2022-10-19T10:53:02.630Z</time>
      </trkpt>
      <trkpt lat="43.52469" lon="5.60214">
        <ele>551</ele>
        <time>2022-10-19T10:53:03.630Z</time>
      </trkpt>
      <trkpt lat="43.52469" lon="5.60215">
        <ele>551</ele>
        <time>2022-10-19T10:53:04.630Z</time>
      </trkpt>
      <trkpt lat="43.52468" lon="5.60215">
        <ele>551</ele>
        <time>2022-10-19T10:53:05.630Z</time>
      </trkpt>
      <trkpt lat="43.52468" lon="5.60215">
        <ele>551</ele>
        <time>2022-10-19T10:53:06.630Z</time>
      </trkpt>
      <trkpt lat="43.52468" lon="5.60215">
        <ele>551</ele>
        <time>2022-10-19T10:53:07.630Z</time>
      </trkpt>
      <trkpt lat="43.52467" lon="5.60216">
        <ele>550</ele>
        <time>2022-10-19T10:53:08.630Z</time>
      </trkpt>
      <trkpt lat="43.52467" lon="5.60216">
        <ele>550</ele>
        <time>2022-10-19T10:53:09.630Z</time>
      </trkpt>
      <trkpt lat="43.52466" lon="5.60217">
        <ele>550</ele>
        <time>2022-10-19T10:53:10.630Z</time>
      </trkpt>
      <trkpt lat="43.52466" lon="5.60217">
        <ele>550</ele>
        <time>2022-10-19T10:53:11.630Z</time>
      </trkpt>
      <trkpt lat="43.52465" lon="5.60218">
        <ele>550</ele>
        <time>2022-10-19T10:53:12.630Z</time>
      </trkpt>
      <trkpt lat="43.52465" lon="5.60218">
        <ele>550</ele>
        <time>2022-10-19T10:53:13.630Z</time>
      </trkpt>
      <trkpt lat="43.52465" lon="5.60218">
        <ele>549</ele>
        <time>2022-10-19T10:53:14.630Z</time>
      </trkpt>
      <trkpt lat="43.52464" lon="5.60219">
        <ele>549</ele>
        <time>2022-10-19T10:53:15.630Z</time>
      </trkpt>
      <trkpt lat="43.52463" lon="5.60219">
        <ele>549</ele>
        <time>2022-10-19T10:53:16.630Z</time>
      </trkpt>
      <trkpt lat="43.52463" lon="5.6022">
        <ele>549</ele>
        <time>2022-10-19T10:53:17.630Z</time>
      </trkpt>
      <trkpt lat="43.52462" lon="5.6022">
        <ele>548</ele>
        <time>2022-10-19T10:53:18.630Z</time>
      </trkpt>
      <trkpt lat="43.52461" lon="5.6022">
        <ele>548</ele>
        <time>2022-10-19T10:53:19.630Z</time>
      </trkpt>
      <trkpt lat="43.52461" lon="5.60219">
        <ele>548</ele>
        <time>2022-10-19T10:53:20.630Z</time>
      </trkpt>
      <trkpt lat="43.5246" lon="5.6022">
        <ele>548</ele>
        <time>2022-10-19T10:53:21.630Z</time>
      </trkpt>
      <trkpt lat="43.5246" lon="5.60221">
        <ele>547</ele>
        <time>2022-10-19T10:53:22.630Z</time>
      </trkpt>
      <trkpt lat="43.5246" lon="5.60222">
        <ele>547</ele>
        <time>2022-10-19T10:53:23.630Z</time>
      </trkpt>
      <trkpt lat="43.52459" lon="5.60223">
        <ele>547</ele>
        <time>2022-10-19T10:53:24.630Z</time>
      </trkpt>
      <trkpt lat="43.52458" lon="5.60224">
        <ele>547</ele>
        <time>2022-10-19T10:53:25.630Z</time>
      </trkpt>
      <trkpt lat="43.52458" lon="5.60225">
        <ele>547</ele>
        <time>2022-10-19T10:53:26.630Z</time>
      </trkpt>
      <trkpt lat="43.52458" lon="5.60225">
        <ele>547</ele>
        <time>2022-10-19T10:53:27.630Z</time>
      </trkpt>
      <trkpt lat="43.52458" lon="5.60226">
        <ele>547</ele>
        <time>2022-10-19T10:53:28.630Z</time>
      </trkpt>
      <trkpt lat="43.52457" lon="5.60226">
        <ele>547</ele>
        <time>2022-10-19T10:53:29.630Z</time>
      </trkpt>
      <trkpt lat="43.52457" lon="5.60227">
        <ele>547</ele>
        <time>2022-10-19T10:53:30.630Z</time>
      </trkpt>
      <trkpt lat="43.52456" lon="5.60228">
        <ele>547</ele>
        <time>2022-10-19T10:53:31.630Z</time>
      </trkpt>
      <trkpt lat="43.52456" lon="5.60228">
        <ele>546</ele>
        <time>2022-10-19T10:53:32.630Z</time>
      </trkpt>
      <trkpt lat="43.52456" lon="5.60229">
        <ele>546</ele>
        <time>2022-10-19T10:53:33.630Z</time>
      </trkpt>
      <trkpt lat="43.52455" lon="5.6023">
        <ele>546</ele>
        <time>2022-10-19T10:53:34.630Z</time>
      </trkpt>
      <trkpt lat="43.52454" lon="5.60231">
        <ele>546</ele>
        <time>2022-10-19T10:53:35.630Z</time>
      </trkpt>
      <trkpt lat="43.52454" lon="5.60232">
        <ele>546</ele>
        <time>2022-10-19T10:53:36.630Z</time>
      </trkpt>
      <trkpt lat="43.52454" lon="5.60232">
        <ele>545</ele>
        <time>2022-10-19T10:53:37.630Z</time>
      </trkpt>
      <trkpt lat="43.52453" lon="5.60233">
        <ele>545</ele>
        <time>2022-10-19T10:53:38.630Z</time>
      </trkpt>
      <trkpt lat="43.52453" lon="5.60234">
        <ele>545</ele>
        <time>2022-10-19T10:53:39.630Z</time>
      </trkpt>
      <trkpt lat="43.52453" lon="5.60234">
        <ele>545</ele>
        <time>2022-10-19T10:53:40.630Z</time>
      </trkpt>
      <trkpt lat="43.52453" lon="5.60235">
        <ele>545</ele>
        <time>2022-10-19T10:53:41.630Z</time>
      </trkpt>
      <trkpt lat="43.52453" lon="5.60236">
        <ele>544</ele>
        <time>2022-10-19T10:53:42.630Z</time>
      </trkpt>
      <trkpt lat="43.52453" lon="5.60237">
        <ele>544</ele>
        <time>2022-10-19T10:53:43.630Z</time>
      </trkpt>
      <trkpt lat="43.52453" lon="5.60238">
        <ele>544</ele>
        <time>2022-10-19T10:53:44.630Z</time>
      </trkpt>
      <trkpt lat="43.52453" lon="5.60239">
        <ele>544</ele>
        <time>2022-10-19T10:53:45.630Z</time>
      </trkpt>
      <trkpt lat="43.52454" lon="5.6024">
        <ele>543</ele>
        <time>2022-10-19T10:53:46.630Z</time>
      </trkpt>
      <trkpt lat="43.52454" lon="5.60241">
        <ele>543</ele>
        <time>2022-10-19T10:53:47.630Z</time>
      </trkpt>
      <trkpt lat="43.52454" lon="5.60242">
        <ele>543</ele>
        <time>2022-10-19T10:53:48.630Z</time>
      </trkpt>
      <trkpt lat="43.52454" lon="5.60243">
        <ele>543</ele>
        <time>2022-10-19T10:53:49.630Z</time>
      </trkpt>
      <trkpt lat="43.52454" lon="5.60244">
        <ele>543</ele>
        <time>2022-10-19T10:53:50.630Z</time>
      </trkpt>
      <trkpt lat="43.52453" lon="5.60245">
        <ele>542</ele>
        <time>2022-10-19T10:53:51.630Z</time>
      </trkpt>
      <trkpt lat="43.52453" lon="5.60246">
        <ele>542</ele>
        <time>2022-10-19T10:53:52.630Z</time>
      </trkpt>
      <trkpt lat="43.52453" lon="5.60247">
        <ele>542</ele>
        <time>2022-10-19T10:53:53.630Z</time>
      </trkpt>
      <trkpt lat="43.52452" lon="5.60247">
        <ele>542</ele>
        <time>2022-10-19T10:53:54.630Z</time>
      </trkpt>
      <trkpt lat="43.52452" lon="5.60248">
        <ele>541</ele>
        <time>2022-10-19T10:53:55.630Z</time>
      </trkpt>
      <trkpt lat="43.52452" lon="5.60249">
        <ele>541</ele>
        <time>2022-10-19T10:53:56.630Z</time>
      </trkpt>
      <trkpt lat="43.52452" lon="5.6025">
        <ele>541</ele>
        <time>2022-10-19T10:53:57.630Z</time>
      </trkpt>
      <trkpt lat="43.52451" lon="5.60251">
        <ele>541</ele>
        <time>2022-10-19T10:53:58.630Z</time>
      </trkpt>
      <trkpt lat="43.52451" lon="5.60252">
        <ele>541</ele>
        <time>2022-10-19T10:53:59.630Z</time>
      </trkpt>
      <trkpt lat="43.52451" lon="5.60252">
        <ele>540</ele>
        <time>2022-10-19T10:54:00.630Z</time>
      </trkpt>
      <trkpt lat="43.5245" lon="5.60253">
        <ele>540</ele>
        <time>2022-10-19T10:54:01.630Z</time>
      </trkpt>
      <trkpt lat="43.5245" lon="5.60254">
        <ele>540</ele>
        <time>2022-10-19T10:54:02.630Z</time>
      </trkpt>
      <trkpt lat="43.5245" lon="5.60254">
        <ele>540</ele>
        <time>2022-10-19T10:54:03.630Z</time>
      </trkpt>
      <trkpt lat="43.5245" lon="5.60255">
        <ele>540</ele>
        <time>2022-10-19T10:54:04.630Z</time>
      </trkpt>
      <trkpt lat="43.5245" lon="5.60256">
        <ele>539</ele>
        <time>2022-10-19T10:54:05.630Z</time>
      </trkpt>
      <trkpt lat="43.52449" lon="5.60257">
        <ele>539</ele>
        <time>2022-10-19T10:54:06.630Z</time>
      </trkpt>
      <trkpt lat="43.52449" lon="5.60258">
        <ele>539</ele>
        <time>2022-10-19T10:54:07.630Z</time>
      </trkpt>
      <trkpt lat="43.52448" lon="5.6026">
        <ele>539</ele>
        <time>2022-10-19T10:54:08.630Z</time>
      </trkpt>
      <trkpt lat="43.52447" lon="5.60261">
        <ele>539</ele>
        <time>2022-10-19T10:54:09.630Z</time>
      </trkpt>
      <trkpt lat="43.52447" lon="5.60263">
        <ele>539</ele>
        <time>2022-10-19T10:54:10.630Z</time>
      </trkpt>
      <trkpt lat="43.52446" lon="5.60263">
        <ele>538</ele>
        <time>2022-10-19T10:54:11.630Z</time>
      </trkpt>
      <trkpt lat="43.52445" lon="5.60264">
        <ele>538</ele>
        <time>2022-10-19T10:54:12.630Z</time>
      </trkpt>
      <trkpt lat="43.52445" lon="5.60264">
        <ele>538</ele>
        <time>2022-10-19T10:54:13.630Z</time>
      </trkpt>
      <trkpt lat="43.52444" lon="5.60264">
        <ele>538</ele>
        <time>2022-10-19T10:54:14.630Z</time>
      </trkpt>
      <trkpt lat="43.52443" lon="5.60263">
        <ele>538</ele>
        <time>2022-10-19T10:54:15.630Z</time>
      </trkpt>
      <trkpt lat="43.52443" lon="5.60262">
        <ele>537</ele>
        <time>2022-10-19T10:54:16.630Z</time>
      </trkpt>
      <trkpt lat="43.52442" lon="5.60262">
        <ele>537</ele>
        <time>2022-10-19T10:54:17.630Z</time>
      </trkpt>
      <trkpt lat="43.52442" lon="5.60262">
        <ele>537</ele>
        <time>2022-10-19T10:54:18.630Z</time>
      </trkpt>
      <trkpt lat="43.52441" lon="5.60262">
        <ele>536</ele>
        <time>2022-10-19T10:54:19.630Z</time>
      </trkpt>
      <trkpt lat="43.5244" lon="5.60262">
        <ele>536</ele>
        <time>2022-10-19T10:54:20.630Z</time>
      </trkpt>
      <trkpt lat="43.52439" lon="5.60262">
        <ele>536</ele>
        <time>2022-10-19T10:54:21.630Z</time>
      </trkpt>
      <trkpt lat="43.52439" lon="5.60261">
        <ele>536</ele>
        <time>2022-10-19T10:54:22.630Z</time>
      </trkpt>
      <trkpt lat="43.52438" lon="5.60261">
        <ele>535</ele>
        <time>2022-10-19T10:54:23.630Z</time>
      </trkpt>
      <trkpt lat="43.52437" lon="5.60261">
        <ele>535</ele>
        <time>2022-10-19T10:54:24.630Z</time>
      </trkpt>
      <trkpt lat="43.52437" lon="5.60262">
        <ele>535</ele>
        <time>2022-10-19T10:54:25.630Z</time>
      </trkpt>
      <trkpt lat="43.52436" lon="5.60262">
        <ele>535</ele>
        <time>2022-10-19T10:54:26.630Z</time>
      </trkpt>
      <trkpt lat="43.52436" lon="5.60263">
        <ele>534</ele>
        <time>2022-10-19T10:54:27.630Z</time>
      </trkpt>
      <trkpt lat="43.52436" lon="5.60263">
        <ele>534</ele>
        <time>2022-10-19T10:54:28.630Z</time>
      </trkpt>
      <trkpt lat="43.52436" lon="5.60263">
        <ele>534</ele>
        <time>2022-10-19T10:54:29.630Z</time>
      </trkpt>
      <trkpt lat="43.52436" lon="5.60262">
        <ele>534</ele>
        <time>2022-10-19T10:54:30.630Z</time>
      </trkpt>
      <trkpt lat="43.52436" lon="5.60262">
        <ele>534</ele>
        <time>2022-10-19T10:54:31.630Z</time>
      </trkpt>
      <trkpt lat="43.52436" lon="5.60262">
        <ele>534</ele>
        <time>2022-10-19T10:54:32.630Z</time>
      </trkpt>
      <trkpt lat="43.52436" lon="5.60263">
        <ele>534</ele>
        <time>2022-10-19T10:54:33.630Z</time>
      </trkpt>
      <trkpt lat="43.52436" lon="5.60263">
        <ele>534</ele>
        <time>2022-10-19T10:54:34.630Z</time>
      </trkpt>
      <trkpt lat="43.52435" lon="5.60264">
        <ele>534</ele>
        <time>2022-10-19T10:54:35.630Z</time>
      </trkpt>
      <trkpt lat="43.52435" lon="5.60265">
        <ele>533</ele>
        <time>2022-10-19T10:54:36.630Z</time>
      </trkpt>
      <trkpt lat="43.52434" lon="5.60266">
        <ele>533</ele>
        <time>2022-10-19T10:54:37.630Z</time>
      </trkpt>
      <trkpt lat="43.52434" lon="5.60266">
        <ele>533</ele>
        <time>2022-10-19T10:54:38.630Z</time>
      </trkpt>
      <trkpt lat="43.52433" lon="5.60266">
        <ele>533</ele>
        <time>2022-10-19T10:54:39.630Z</time>
      </trkpt>
      <trkpt lat="43.52433" lon="5.60266">
        <ele>533</ele>
        <time>2022-10-19T10:54:40.630Z</time>
      </trkpt>
      <trkpt lat="43.52432" lon="5.60267">
        <ele>532</ele>
        <time>2022-10-19T10:54:41.630Z</time>
      </trkpt>
      <trkpt lat="43.52431" lon="5.60267">
        <ele>532</ele>
        <time>2022-10-19T10:54:42.630Z</time>
      </trkpt>
      <trkpt lat="43.52431" lon="5.60267">
        <ele>532</ele>
        <time>2022-10-19T10:54:43.630Z</time>
      </trkpt>
      <trkpt lat="43.52431" lon="5.60267">
        <ele>532</ele>
        <time>2022-10-19T10:54:44.630Z</time>
      </trkpt>
      <trkpt lat="43.52431" lon="5.60267">
        <ele>532</ele>
        <time>2022-10-19T10:54:45.630Z</time>
      </trkpt>
      <trkpt lat="43.52431" lon="5.60267">
        <ele>531</ele>
        <time>2022-10-19T10:54:46.630Z</time>
      </trkpt>
      <trkpt lat="43.52431" lon="5.60267">
        <ele>531</ele>
        <time>2022-10-19T10:54:47.630Z</time>
      </trkpt>
      <trkpt lat="43.52431" lon="5.60268">
        <ele>531</ele>
        <time>2022-10-19T10:54:48.630Z</time>
      </trkpt>
      <trkpt lat="43.52432" lon="5.60269">
        <ele>531</ele>
        <time>2022-10-19T10:54:49.630Z</time>
      </trkpt>
      <trkpt lat="43.52432" lon="5.6027">
        <ele>531</ele>
        <time>2022-10-19T10:54:50.630Z</time>
      </trkpt>
      <trkpt lat="43.52431" lon="5.6027">
        <ele>530</ele>
        <time>2022-10-19T10:54:51.630Z</time>
      </trkpt>
      <trkpt lat="43.52431" lon="5.60271">
        <ele>530</ele>
        <time>2022-10-19T10:54:52.630Z</time>
      </trkpt>
      <trkpt lat="43.5243" lon="5.60271">
        <ele>530</ele>
        <time>2022-10-19T10:54:53.630Z</time>
      </trkpt>
      <trkpt lat="43.5243" lon="5.60272">
        <ele>530</ele>
        <time>2022-10-19T10:54:54.630Z</time>
      </trkpt>
      <trkpt lat="43.5243" lon="5.60273">
        <ele>529</ele>
        <time>2022-10-19T10:54:55.630Z</time>
      </trkpt>
      <trkpt lat="43.5243" lon="5.60274">
        <ele>529</ele>
        <time>2022-10-19T10:54:56.630Z</time>
      </trkpt>
      <trkpt lat="43.5243" lon="5.60275">
        <ele>529</ele>
        <time>2022-10-19T10:54:57.630Z</time>
      </trkpt>
      <trkpt lat="43.52429" lon="5.60276">
        <ele>529</ele>
        <time>2022-10-19T10:54:58.630Z</time>
      </trkpt>
      <trkpt lat="43.52429" lon="5.60277">
        <ele>528</ele>
        <time>2022-10-19T10:54:59.630Z</time>
      </trkpt>
      <trkpt lat="43.52428" lon="5.60277">
        <ele>528</ele>
        <time>2022-10-19T10:55:00.630Z</time>
      </trkpt>
      <trkpt lat="43.52428" lon="5.60278">
        <ele>528</ele>
        <time>2022-10-19T10:55:01.630Z</time>
      </trkpt>
      <trkpt lat="43.52427" lon="5.60279">
        <ele>528</ele>
        <time>2022-10-19T10:55:02.630Z</time>
      </trkpt>
      <trkpt lat="43.52427" lon="5.60279">
        <ele>528</ele>
        <time>2022-10-19T10:55:03.630Z</time>
      </trkpt>
      <trkpt lat="43.52427" lon="5.6028">
        <ele>528</ele>
        <time>2022-10-19T10:55:04.630Z</time>
      </trkpt>
      <trkpt lat="43.52427" lon="5.60281">
        <ele>527</ele>
        <time>2022-10-19T10:55:05.630Z</time>
      </trkpt>
      <trkpt lat="43.52427" lon="5.60281">
        <ele>527</ele>
        <time>2022-10-19T10:55:06.630Z</time>
      </trkpt>
      <trkpt lat="43.52427" lon="5.60283">
        <ele>527</ele>
        <time>2022-10-19T10:55:07.630Z</time>
      </trkpt>
      <trkpt lat="43.52427" lon="5.60283">
        <ele>527</ele>
        <time>2022-10-19T10:55:08.630Z</time>
      </trkpt>
      <trkpt lat="43.52427" lon="5.60283">
        <ele>527</ele>
        <time>2022-10-19T10:55:09.630Z</time>
      </trkpt>
      <trkpt lat="43.52427" lon="5.60283">
        <ele>527</ele>
        <time>2022-10-19T10:55:10.630Z</time>
      </trkpt>
      <trkpt lat="43.52427" lon="5.60283">
        <ele>527</ele>
        <time>2022-10-19T10:55:11.630Z</time>
      </trkpt>
      <trkpt lat="43.52427" lon="5.60283">
        <ele>527</ele>
        <time>2022-10-19T10:55:12.630Z</time>
      </trkpt>
      <trkpt lat="43.52427" lon="5.60283">
        <ele>527</ele>
        <time>2022-10-19T10:55:13.630Z</time>
      </trkpt>
      <trkpt lat="43.52427" lon="5.60283">
        <ele>526</ele>
        <time>2022-10-19T10:55:14.630Z</time>
      </trkpt>
      <trkpt lat="43.52427" lon="5.60283">
        <ele>526</ele>
        <time>2022-10-19T10:55:15.630Z</time>
      </trkpt>
      <trkpt lat="43.52427" lon="5.60283">
        <ele>526</ele>
        <time>2022-10-19T10:55:16.630Z</time>
      </trkpt>
      <trkpt lat="43.52427" lon="5.60283">
        <ele>526</ele>
        <time>2022-10-19T10:55:17.630Z</time>
      </trkpt>
      <trkpt lat="43.52427" lon="5.60283">
        <ele>526</ele>
        <time>2022-10-19T10:55:18.630Z</time>
      </trkpt>
      <trkpt lat="43.52427" lon="5.60283">
        <ele>526</ele>
        <time>2022-10-19T10:55:19.630Z</time>
      </trkpt>
      <trkpt lat="43.52427" lon="5.60283">
        <ele>526</ele>
        <time>2022-10-19T10:55:20.630Z</time>
      </trkpt>
      <trkpt lat="43.52427" lon="5.60282">
        <ele>526</ele>
        <time>2022-10-19T10:55:21.630Z</time>
      </trkpt>
      <trkpt lat="43.52427" lon="5.60283">
        <ele>526</ele>
        <time>2022-10-19T10:55:22.630Z</time>
      </trkpt>
      <trkpt lat="43.52427" lon="5.60283">
        <ele>526</ele>
        <time>2022-10-19T10:55:23.630Z</time>
      </trkpt>
      <trkpt lat="43.52427" lon="5.60283">
        <ele>526</ele>
        <time>2022-10-19T10:55:24.630Z</time>
      </trkpt>
      <trkpt lat="43.52427" lon="5.60283">
        <ele>526</ele>
        <time>2022-10-19T10:55:25.630Z</time>
      </trkpt>
      <trkpt lat="43.52427" lon="5.60283">
        <ele>526</ele>
        <time>2022-10-19T10:55:26.630Z</time>
      </trkpt>
      <trkpt lat="43.52427" lon="5.60283">
        <ele>526</ele>
        <time>2022-10-19T10:55:27.630Z</time>
      </trkpt>
      <trkpt lat="43.52427" lon="5.60283">
        <ele>526</ele>
        <time>2022-10-19T10:55:28.630Z</time>
      </trkpt>
      <trkpt lat="43.52427" lon="5.60283">
        <ele>526</ele>
        <time>2022-10-19T10:55:29.630Z</time>
      </trkpt>
      <trkpt lat="43.52427" lon="5.60283">
        <ele>526</ele>
        <time>2022-10-19T10:55:30.630Z</time>
      </trkpt>
      <trkpt lat="43.52427" lon="5.60283">
        <ele>526</ele>
        <time>2022-10-19T10:55:31.630Z</time>
      </trkpt>
      <trkpt lat="43.52427" lon="5.60283">
        <ele>526</ele>
        <time>2022-10-19T10:55:32.630Z</time>
      </trkpt>
      <trkpt lat="43.52427" lon="5.60283">
        <ele>526</ele>
        <time>2022-10-19T10:55:33.630Z</time>
      </trkpt>
      <trkpt lat="43.52427" lon="5.60283">
        <ele>526</ele>
        <time>2022-10-19T10:55:34.630Z</time>
      </trkpt>
      <trkpt lat="43.52427" lon="5.60283">
        <ele>526</ele>
        <time>2022-10-19T10:55:35.630Z</time>
      </trkpt>
      <trkpt lat="43.52427" lon="5.60283">
        <ele>526</ele>
        <time>2022-10-19T10:55:36.630Z</time>
      </trkpt>
      <trkpt lat="43.52427" lon="5.60283">
        <ele>526</ele>
        <time>2022-10-19T10:55:37.630Z</time>
      </trkpt>
      <trkpt lat="43.52427" lon="5.60283">
        <ele>526</ele>
        <time>2022-10-19T10:55:38.630Z</time>
      </trkpt>
      <trkpt lat="43.52427" lon="5.60283">
        <ele>526</ele>
        <time>2022-10-19T10:55:39.630Z</time>
      </trkpt>
      <trkpt lat="43.52427" lon="5.60283">
        <ele>526</ele>
        <time>2022-10-19T10:55:40.630Z</time>
      </trkpt>
      <trkpt lat="43.52427" lon="5.60283">
        <ele>526</ele>
        <time>2022-10-19T10:55:41.630Z</time>
      </trkpt>
      <trkpt lat="43.52427" lon="5.60283">
        <ele>526</ele>
        <time>2022-10-19T10:55:42.630Z</time>
      </trkpt>
      <trkpt lat="43.52427" lon="5.60283">
        <ele>526</ele>
        <time>2022-10-19T10:55:43.630Z</time>
      </trkpt>
      <trkpt lat="43.52427" lon="5.60283">
        <ele>525</ele>
        <time>2022-10-19T10:55:44.630Z</time>
      </trkpt>
      <trkpt lat="43.52427" lon="5.60283">
        <ele>525</ele>
        <time>2022-10-19T10:55:45.630Z</time>
      </trkpt>
      <trkpt lat="43.52427" lon="5.60283">
        <ele>525</ele>
        <time>2022-10-19T10:55:46.630Z</time>
      </trkpt>
      <trkpt lat="43.52427" lon="5.60283">
        <ele>525</ele>
        <time>2022-10-19T10:55:47.630Z</time>
      </trkpt>
      <trkpt lat="43.52427" lon="5.60283">
        <ele>525</ele>
        <time>2022-10-19T10:55:48.630Z</time>
      </trkpt>
      <trkpt lat="43.52427" lon="5.60283">
        <ele>525</ele>
        <time>2022-10-19T10:55:49.630Z</time>
      </trkpt>
      <trkpt lat="43.52427" lon="5.60283">
        <ele>525</ele>
        <time>2022-10-19T10:55:50.630Z</time>
      </trkpt>
      <trkpt lat="43.52427" lon="5.60283">
        <ele>525</ele>
        <time>2022-10-19T10:55:51.630Z</time>
      </trkpt>
      <trkpt lat="43.52427" lon="5.60283">
        <ele>525</ele>
        <time>2022-10-19T10:55:52.630Z</time>
      </trkpt>
      <trkpt lat="43.52427" lon="5.60283">
        <ele>525</ele>
        <time>2022-10-19T10:55:53.630Z</time>
      </trkpt>
      <trkpt lat="43.52427" lon="5.60283">
        <ele>525</ele>
        <time>2022-10-19T10:55:54.630Z</time>
      </trkpt>
      <trkpt lat="43.52427" lon="5.60283">
        <ele>525</ele>
        <time>2022-10-19T10:55:55.630Z</time>
      </trkpt>
      <trkpt lat="43.52427" lon="5.60283">
        <ele>525</ele>
        <time>2022-10-19T10:55:56.630Z</time>
      </trkpt>
      <trkpt lat="43.52427" lon="5.60283">
        <ele>525</ele>
        <time>2022-10-19T10:55:57.630Z</time>
      </trkpt>
      <trkpt lat="43.52427" lon="5.60283">
        <ele>525</ele>
        <time>2022-10-19T10:55:58.630Z</time>
      </trkpt>
      <trkpt lat="43.52427" lon="5.60283">
        <ele>525</ele>
        <time>2022-10-19T10:55:59.630Z</time>
      </trkpt>
      <trkpt lat="43.52427" lon="5.60283">
        <ele>525</ele>
        <time>2022-10-19T10:56:00.630Z</time>
      </trkpt>
      <trkpt lat="43.52427" lon="5.60283">
        <ele>525</ele>
        <time>2022-10-19T10:56:01.630Z</time>
      </trkpt>
      <trkpt lat="43.52427" lon="5.60283">
        <ele>525</ele>
        <time>2022-10-19T10:56:02.630Z</time>
      </trkpt>
      <trkpt lat="43.52426" lon="5.60283">
        <ele>525</ele>
        <time>2022-10-19T10:56:03.630Z</time>
      </trkpt>
      <trkpt lat="43.52427" lon="5.60283">
        <ele>525</ele>
        <time>2022-10-19T10:56:04.630Z</time>
      </trkpt>
      <trkpt lat="43.52427" lon="5.60283">
        <ele>525</ele>
        <time>2022-10-19T10:56:05.630Z</time>
      </trkpt>
      <trkpt lat="43.52426" lon="5.60283">
        <ele>525</ele>
        <time>2022-10-19T10:56:06.630Z</time>
      </trkpt>
      <trkpt lat="43.52426" lon="5.60283">
        <ele>525</ele>
        <time>2022-10-19T10:56:07.630Z</time>
      </trkpt>
      <trkpt lat="43.52426" lon="5.60283">
        <ele>525</ele>
        <time>2022-10-19T10:56:08.630Z</time>
      </trkpt>
      <trkpt lat="43.52426" lon="5.60283">
        <ele>525</ele>
        <time>2022-10-19T10:56:09.630Z</time>
      </trkpt>
      <trkpt lat="43.52426" lon="5.60283">
        <ele>525</ele>
        <time>2022-10-19T10:56:10.630Z</time>
      </trkpt>
      <trkpt lat="43.52426" lon="5.60283">
        <ele>525</ele>
        <time>2022-10-19T10:56:11.630Z</time>
      </trkpt>
      <trkpt lat="43.52426" lon="5.60283">
        <ele>525</ele>
        <time>2022-10-19T10:56:12.630Z</time>
      </trkpt>
      <trkpt lat="43.52426" lon="5.60283">
        <ele>525</ele>
        <time>2022-10-19T10:56:13.630Z</time>
      </trkpt>
      <trkpt lat="43.52426" lon="5.60283">
        <ele>525</ele>
        <time>2022-10-19T10:56:14.630Z</time>
      </trkpt>
      <trkpt lat="43.52426" lon="5.60283">
        <ele>525</ele>
        <time>2022-10-19T10:56:15.630Z</time>
      </trkpt>
      <trkpt lat="43.52426" lon="5.60283">
        <ele>525</ele>
        <time>2022-10-19T10:56:16.630Z</time>
      </trkpt>
      <trkpt lat="43.52426" lon="5.60283">
        <ele>525</ele>
        <time>2022-10-19T10:56:17.630Z</time>
      </trkpt>
      <trkpt lat="43.52426" lon="5.60283">
        <ele>525</ele>
        <time>2022-10-19T10:56:18.630Z</time>
      </trkpt>
      <trkpt lat="43.52426" lon="5.60283">
        <ele>525</ele>
        <time>2022-10-19T10:56:19.630Z</time>
      </trkpt>
      <trkpt lat="43.52426" lon="5.60283">
        <ele>525</ele>
        <time>2022-10-19T10:56:20.630Z</time>
      </trkpt>
      <trkpt lat="43.52426" lon="5.60283">
        <ele>525</ele>
        <time>2022-10-19T10:56:21.630Z</time>
      </trkpt>
      <trkpt lat="43.52426" lon="5.60283">
        <ele>525</ele>
        <time>2022-10-19T10:56:22.630Z</time>
      </trkpt>
      <trkpt lat="43.52426" lon="5.60283">
        <ele>525</ele>
        <time>2022-10-19T10:56:23.630Z</time>
      </trkpt>
      <trkpt lat="43.52426" lon="5.60283">
        <ele>525</ele>
        <time>2022-10-19T10:56:24.630Z</time>
      </trkpt>
      <trkpt lat="43.52426" lon="5.60283">
        <ele>525</ele>
        <time>2022-10-19T10:56:25.630Z</time>
      </trkpt>
      <trkpt lat="43.52426" lon="5.60283">
        <ele>525</ele>
        <time>2022-10-19T10:56:26.630Z</time>
      </trkpt>
      <trkpt lat="43.52426" lon="5.60283">
        <ele>525</ele>
        <time>2022-10-19T10:56:27.630Z</time>
      </trkpt>
      <trkpt lat="43.52426" lon="5.60283">
        <ele>525</ele>
        <time>2022-10-19T10:56:28.630Z</time>
      </trkpt>
      <trkpt lat="43.52426" lon="5.60283">
        <ele>525</ele>
        <time>2022-10-19T10:56:29.630Z</time>
      </trkpt>
      <trkpt lat="43.52426" lon="5.60283">
        <ele>525</ele>
        <time>2022-10-19T10:56:30.630Z</time>
      </trkpt>
      <trkpt lat="43.52426" lon="5.60283">
        <ele>525</ele>
        <time>2022-10-19T10:56:31.630Z</time>
      </trkpt>
      <trkpt lat="43.52426" lon="5.60283">
        <ele>525</ele>
        <time>2022-10-19T10:56:32.630Z</time>
      </trkpt>
      <trkpt lat="43.52426" lon="5.60283">
        <ele>525</ele>
        <time>2022-10-19T10:56:33.630Z</time>
      </trkpt>
      <trkpt lat="43.52426" lon="5.60283">
        <ele>525</ele>
        <time>2022-10-19T10:56:34.630Z</time>
      </trkpt>
      <trkpt lat="43.52426" lon="5.60283">
        <ele>525</ele>
        <time>2022-10-19T10:56:35.630Z</time>
      </trkpt>
      <trkpt lat="43.52426" lon="5.60283">
        <ele>525</ele>
        <time>2022-10-19T10:56:36.630Z</time>
      </trkpt>
      <trkpt lat="43.52426" lon="5.60283">
        <ele>525</ele>
        <time>2022-10-19T10:56:37.630Z</time>
      </trkpt>
      <trkpt lat="43.52426" lon="5.60283">
        <ele>525</ele>
        <time>2022-10-19T10:56:38.630Z</time>
      </trkpt>
      <trkpt lat="43.52426" lon="5.60283">
        <ele>525</ele>
        <time>2022-10-19T10:56:39.630Z</time>
      </trkpt>
      <trkpt lat="43.52426" lon="5.60283">
        <ele>525</ele>
        <time>2022-10-19T10:56:40.630Z</time>
      </trkpt>
      <trkpt lat="43.52426" lon="5.60283">
        <ele>525</ele>
        <time>2022-10-19T10:56:41.630Z</time>
      </trkpt>
      <trkpt lat="43.52426" lon="5.60283">
        <ele>525</ele>
        <time>2022-10-19T10:56:42.630Z</time>
      </trkpt>
      <trkpt lat="43.52426" lon="5.60283">
        <ele>525</ele>
        <time>2022-10-19T10:56:43.630Z</time>
      </trkpt>
      <trkpt lat="43.52426" lon="5.60283">
        <ele>525</ele>
        <time>2022-10-19T10:56:44.630Z</time>
      </trkpt>
      <trkpt lat="43.52426" lon="5.60283">
        <ele>525</ele>
        <time>2022-10-19T10:56:45.630Z</time>
      </trkpt>
      <trkpt lat="43.52426" lon="5.60283">
        <ele>525</ele>
        <time>2022-10-19T10:56:46.630Z</time>
      </trkpt>
      <trkpt lat="43.52426" lon="5.60283">
        <ele>525</ele>
        <time>2022-10-19T10:56:47.630Z</time>
      </trkpt>
      <trkpt lat="43.52426" lon="5.60283">
        <ele>525</ele>
        <time>2022-10-19T10:56:48.630Z</time>
      </trkpt>
      <trkpt lat="43.52426" lon="5.60283">
        <ele>525</ele>
        <time>2022-10-19T10:56:49.630Z</time>
      </trkpt>
      <trkpt lat="43.52426" lon="5.60283">
        <ele>525</ele>
        <time>2022-10-19T10:56:50.630Z</time>
      </trkpt>
      <trkpt lat="43.52426" lon="5.60283">
        <ele>525</ele>
        <time>2022-10-19T10:56:51.630Z</time>
      </trkpt>
      <trkpt lat="43.52426" lon="5.60283">
        <ele>525</ele>
        <time>2022-10-19T10:56:52.630Z</time>
      </trkpt>
      <trkpt lat="43.52426" lon="5.60283">
        <ele>525</ele>
        <time>2022-10-19T10:56:53.630Z</time>
      </trkpt>
      <trkpt lat="43.52426" lon="5.60283">
        <ele>525</ele>
        <time>2022-10-19T10:56:54.630Z</time>
      </trkpt>
      <trkpt lat="43.52426" lon="5.60283">
        <ele>525</ele>
        <time>2022-10-19T10:56:55.630Z</time>
      </trkpt>
      <trkpt lat="43.52426" lon="5.60283">
        <ele>525</ele>
        <time>2022-10-19T10:56:56.630Z</time>
      </trkpt>
      <trkpt lat="43.52426" lon="5.60283">
        <ele>525</ele>
        <time>2022-10-19T10:56:57.630Z</time>
      </trkpt>
      <trkpt lat="43.52426" lon="5.60283">
        <ele>525</ele>
        <time>2022-10-19T10:56:58.630Z</time>
      </trkpt>
      <trkpt lat="43.52426" lon="5.60283">
        <ele>525</ele>
        <time>2022-10-19T10:56:59.630Z</time>
      </trkpt>
      <trkpt lat="43.52426" lon="5.60283">
        <ele>525</ele>
        <time>2022-10-19T10:57:00.630Z</time>
      </trkpt>
      <trkpt lat="43.52426" lon="5.60283">
        <ele>525</ele>
        <time>2022-10-19T10:57:01.630Z</time>
      </trkpt>
      <trkpt lat="43.52426" lon="5.60283">
        <ele>525</ele>
        <time>2022-10-19T10:57:02.630Z</time>
      </trkpt>
      <trkpt lat="43.52426" lon="5.60284">
        <ele>525</ele>
        <time>2022-10-19T10:57:03.630Z</time>
      </trkpt>
      <trkpt lat="43.52427" lon="5.60285">
        <ele>525</ele>
        <time>2022-10-19T10:57:04.630Z</time>
      </trkpt>
      <trkpt lat="43.52427" lon="5.60285">
        <ele>525</ele>
        <time>2022-10-19T10:57:05.630Z</time>
      </trkpt>
      <trkpt lat="43.52427" lon="5.60286">
        <ele>525</ele>
        <time>2022-10-19T10:57:06.630Z</time>
      </trkpt>
      <trkpt lat="43.52428" lon="5.60287">
        <ele>525</ele>
        <time>2022-10-19T10:57:07.630Z</time>
      </trkpt>
      <trkpt lat="43.52428" lon="5.60288">
        <ele>524</ele>
        <time>2022-10-19T10:57:08.630Z</time>
      </trkpt>
      <trkpt lat="43.52428" lon="5.60289">
        <ele>524</ele>
        <time>2022-10-19T10:57:09.630Z</time>
      </trkpt>
      <trkpt lat="43.52429" lon="5.6029">
        <ele>524</ele>
        <time>2022-10-19T10:57:10.630Z</time>
      </trkpt>
      <trkpt lat="43.52429" lon="5.60292">
        <ele>524</ele>
        <time>2022-10-19T10:57:11.630Z</time>
      </trkpt>
      <trkpt lat="43.52428" lon="5.60293">
        <ele>524</ele>
        <time>2022-10-19T10:57:12.630Z</time>
      </trkpt>
      <trkpt lat="43.52428" lon="5.60294">
        <ele>524</ele>
        <time>2022-10-19T10:57:13.630Z</time>
      </trkpt>
      <trkpt lat="43.52428" lon="5.60295">
        <ele>524</ele>
        <time>2022-10-19T10:57:14.630Z</time>
      </trkpt>
      <trkpt lat="43.52428" lon="5.60295">
        <ele>524</ele>
        <time>2022-10-19T10:57:15.630Z</time>
      </trkpt>
      <trkpt lat="43.52428" lon="5.60296">
        <ele>524</ele>
        <time>2022-10-19T10:57:16.630Z</time>
      </trkpt>
      <trkpt lat="43.52428" lon="5.60297">
        <ele>523</ele>
        <time>2022-10-19T10:57:17.630Z</time>
      </trkpt>
      <trkpt lat="43.52428" lon="5.60298">
        <ele>523</ele>
        <time>2022-10-19T10:57:18.630Z</time>
      </trkpt>
      <trkpt lat="43.52428" lon="5.60299">
        <ele>523</ele>
        <time>2022-10-19T10:57:19.630Z</time>
      </trkpt>
      <trkpt lat="43.52429" lon="5.603">
        <ele>523</ele>
        <time>2022-10-19T10:57:20.630Z</time>
      </trkpt>
      <trkpt lat="43.52429" lon="5.60302">
        <ele>523</ele>
        <time>2022-10-19T10:57:21.630Z</time>
      </trkpt>
      <trkpt lat="43.5243" lon="5.60303">
        <ele>523</ele>
        <time>2022-10-19T10:57:22.630Z</time>
      </trkpt>
      <trkpt lat="43.5243" lon="5.60304">
        <ele>523</ele>
        <time>2022-10-19T10:57:23.630Z</time>
      </trkpt>
      <trkpt lat="43.5243" lon="5.60305">
        <ele>522</ele>
        <time>2022-10-19T10:57:24.630Z</time>
      </trkpt>
      <trkpt lat="43.52429" lon="5.60306">
        <ele>522</ele>
        <time>2022-10-19T10:57:25.630Z</time>
      </trkpt>
      <trkpt lat="43.52429" lon="5.60307">
        <ele>522</ele>
        <time>2022-10-19T10:57:26.630Z</time>
      </trkpt>
      <trkpt lat="43.52429" lon="5.60308">
        <ele>522</ele>
        <time>2022-10-19T10:57:27.630Z</time>
      </trkpt>
      <trkpt lat="43.52429" lon="5.60309">
        <ele>521</ele>
        <time>2022-10-19T10:57:28.630Z</time>
      </trkpt>
      <trkpt lat="43.52429" lon="5.6031">
        <ele>521</ele>
        <time>2022-10-19T10:57:29.630Z</time>
      </trkpt>
      <trkpt lat="43.52429" lon="5.60311">
        <ele>521</ele>
        <time>2022-10-19T10:57:30.630Z</time>
      </trkpt>
      <trkpt lat="43.52429" lon="5.60312">
        <ele>521</ele>
        <time>2022-10-19T10:57:31.630Z</time>
      </trkpt>
      <trkpt lat="43.52429" lon="5.60313">
        <ele>521</ele>
        <time>2022-10-19T10:57:32.630Z</time>
      </trkpt>
      <trkpt lat="43.52429" lon="5.60313">
        <ele>520</ele>
        <time>2022-10-19T10:57:33.630Z</time>
      </trkpt>
      <trkpt lat="43.52429" lon="5.60313">
        <ele>520</ele>
        <time>2022-10-19T10:57:34.630Z</time>
      </trkpt>
      <trkpt lat="43.52429" lon="5.60313">
        <ele>520</ele>
        <time>2022-10-19T10:57:35.630Z</time>
      </trkpt>
      <trkpt lat="43.52429" lon="5.60313">
        <ele>520</ele>
        <time>2022-10-19T10:57:36.630Z</time>
      </trkpt>
      <trkpt lat="43.52429" lon="5.60313">
        <ele>520</ele>
        <time>2022-10-19T10:57:37.630Z</time>
      </trkpt>
      <trkpt lat="43.52429" lon="5.60313">
        <ele>520</ele>
        <time>2022-10-19T10:57:38.630Z</time>
      </trkpt>
      <trkpt lat="43.52429" lon="5.60313">
        <ele>520</ele>
        <time>2022-10-19T10:57:39.630Z</time>
      </trkpt>
      <trkpt lat="43.52429" lon="5.60313">
        <ele>520</ele>
        <time>2022-10-19T10:57:40.630Z</time>
      </trkpt>
      <trkpt lat="43.52429" lon="5.60313">
        <ele>520</ele>
        <time>2022-10-19T10:57:41.630Z</time>
      </trkpt>
      <trkpt lat="43.52429" lon="5.60314">
        <ele>520</ele>
        <time>2022-10-19T10:57:42.630Z</time>
      </trkpt>
      <trkpt lat="43.52429" lon="5.60314">
        <ele>520</ele>
        <time>2022-10-19T10:57:43.630Z</time>
      </trkpt>
      <trkpt lat="43.52429" lon="5.60314">
        <ele>520</ele>
        <time>2022-10-19T10:57:44.630Z</time>
      </trkpt>
      <trkpt lat="43.52429" lon="5.60314">
        <ele>520</ele>
        <time>2022-10-19T10:57:45.630Z</time>
      </trkpt>
      <trkpt lat="43.52429" lon="5.60314">
        <ele>520</ele>
        <time>2022-10-19T10:57:46.630Z</time>
      </trkpt>
      <trkpt lat="43.52429" lon="5.60314">
        <ele>520</ele>
        <time>2022-10-19T10:57:47.630Z</time>
      </trkpt>
      <trkpt lat="43.52429" lon="5.60314">
        <ele>520</ele>
        <time>2022-10-19T10:57:48.630Z</time>
      </trkpt>
      <trkpt lat="43.52429" lon="5.60314">
        <ele>519</ele>
        <time>2022-10-19T10:57:49.630Z</time>
      </trkpt>
      <trkpt lat="43.52429" lon="5.60314">
        <ele>519</ele>
        <time>2022-10-19T10:57:50.630Z</time>
      </trkpt>
      <trkpt lat="43.52429" lon="5.60314">
        <ele>519</ele>
        <time>2022-10-19T10:57:51.630Z</time>
      </trkpt>
      <trkpt lat="43.52429" lon="5.60314">
        <ele>519</ele>
        <time>2022-10-19T10:57:52.630Z</time>
      </trkpt>
      <trkpt lat="43.52429" lon="5.60314">
        <ele>519</ele>
        <time>2022-10-19T10:57:53.630Z</time>
      </trkpt>
      <trkpt lat="43.52429" lon="5.60314">
        <ele>519</ele>
        <time>2022-10-19T10:57:54.630Z</time>
      </trkpt>
      <trkpt lat="43.5243" lon="5.60315">
        <ele>519</ele>
        <time>2022-10-19T10:57:55.630Z</time>
      </trkpt>
      <trkpt lat="43.5243" lon="5.60316">
        <ele>519</ele>
        <time>2022-10-19T10:57:56.630Z</time>
      </trkpt>
      <trkpt lat="43.5243" lon="5.60317">
        <ele>518</ele>
        <time>2022-10-19T10:57:57.630Z</time>
      </trkpt>
      <trkpt lat="43.5243" lon="5.60317">
        <ele>518</ele>
        <time>2022-10-19T10:57:58.630Z</time>
      </trkpt>
      <trkpt lat="43.52431" lon="5.60318">
        <ele>518</ele>
        <time>2022-10-19T10:57:59.630Z</time>
      </trkpt>
      <trkpt lat="43.52431" lon="5.60319">
        <ele>518</ele>
        <time>2022-10-19T10:58:00.630Z</time>
      </trkpt>
      <trkpt lat="43.52431" lon="5.6032">
        <ele>518</ele>
        <time>2022-10-19T10:58:01.630Z</time>
      </trkpt>
      <trkpt lat="43.5243" lon="5.60321">
        <ele>518</ele>
        <time>2022-10-19T10:58:02.630Z</time>
      </trkpt>
      <trkpt lat="43.5243" lon="5.60322">
        <ele>517</ele>
        <time>2022-10-19T10:58:03.630Z</time>
      </trkpt>
      <trkpt lat="43.5243" lon="5.60323">
        <ele>517</ele>
        <time>2022-10-19T10:58:04.630Z</time>
      </trkpt>
      <trkpt lat="43.5243" lon="5.60325">
        <ele>517</ele>
        <time>2022-10-19T10:58:05.630Z</time>
      </trkpt>
      <trkpt lat="43.5243" lon="5.60326">
        <ele>517</ele>
        <time>2022-10-19T10:58:06.630Z</time>
      </trkpt>
      <trkpt lat="43.5243" lon="5.60327">
        <ele>517</ele>
        <time>2022-10-19T10:58:07.630Z</time>
      </trkpt>
      <trkpt lat="43.5243" lon="5.60328">
        <ele>516</ele>
        <time>2022-10-19T10:58:08.630Z</time>
      </trkpt>
      <trkpt lat="43.5243" lon="5.60329">
        <ele>516</ele>
        <time>2022-10-19T10:58:09.630Z</time>
      </trkpt>
      <trkpt lat="43.5243" lon="5.60331">
        <ele>516</ele>
        <time>2022-10-19T10:58:10.630Z</time>
      </trkpt>
      <trkpt lat="43.5243" lon="5.60332">
        <ele>516</ele>
        <time>2022-10-19T10:58:11.630Z</time>
      </trkpt>
      <trkpt lat="43.5243" lon="5.60333">
        <ele>516</ele>
        <time>2022-10-19T10:58:12.630Z</time>
      </trkpt>
      <trkpt lat="43.52431" lon="5.60334">
        <ele>516</ele>
        <time>2022-10-19T10:58:13.630Z</time>
      </trkpt>
      <trkpt lat="43.5243" lon="5.60335">
        <ele>516</ele>
        <time>2022-10-19T10:58:14.630Z</time>
      </trkpt>
      <trkpt lat="43.5243" lon="5.60337">
        <ele>516</ele>
        <time>2022-10-19T10:58:15.630Z</time>
      </trkpt>
      <trkpt lat="43.5243" lon="5.60338">
        <ele>516</ele>
        <time>2022-10-19T10:58:16.630Z</time>
      </trkpt>
      <trkpt lat="43.5243" lon="5.60339">
        <ele>515</ele>
        <time>2022-10-19T10:58:17.630Z</time>
      </trkpt>
      <trkpt lat="43.52429" lon="5.60341">
        <ele>515</ele>
        <time>2022-10-19T10:58:18.630Z</time>
      </trkpt>
      <trkpt lat="43.52429" lon="5.60342">
        <ele>515</ele>
        <time>2022-10-19T10:58:19.630Z</time>
      </trkpt>
      <trkpt lat="43.52429" lon="5.60343">
        <ele>515</ele>
        <time>2022-10-19T10:58:20.630Z</time>
      </trkpt>
      <trkpt lat="43.52429" lon="5.60344">
        <ele>515</ele>
        <time>2022-10-19T10:58:21.630Z</time>
      </trkpt>
      <trkpt lat="43.5243" lon="5.60344">
        <ele>515</ele>
        <time>2022-10-19T10:58:22.630Z</time>
      </trkpt>
      <trkpt lat="43.5243" lon="5.60345">
        <ele>515</ele>
        <time>2022-10-19T10:58:23.630Z</time>
      </trkpt>
      <trkpt lat="43.5243" lon="5.60346">
        <ele>515</ele>
        <time>2022-10-19T10:58:24.630Z</time>
      </trkpt>
      <trkpt lat="43.5243" lon="5.60348">
        <ele>515</ele>
        <time>2022-10-19T10:58:25.630Z</time>
      </trkpt>
      <trkpt lat="43.52429" lon="5.60349">
        <ele>514</ele>
        <time>2022-10-19T10:58:26.630Z</time>
      </trkpt>
      <trkpt lat="43.52428" lon="5.6035">
        <ele>514</ele>
        <time>2022-10-19T10:58:27.630Z</time>
      </trkpt>
      <trkpt lat="43.52428" lon="5.6035">
        <ele>514</ele>
        <time>2022-10-19T10:58:28.630Z</time>
      </trkpt>
      <trkpt lat="43.52427" lon="5.60351">
        <ele>514</ele>
        <time>2022-10-19T10:58:29.630Z</time>
      </trkpt>
      <trkpt lat="43.52427" lon="5.60352">
        <ele>514</ele>
        <time>2022-10-19T10:58:30.630Z</time>
      </trkpt>
      <trkpt lat="43.52426" lon="5.60353">
        <ele>514</ele>
        <time>2022-10-19T10:58:31.630Z</time>
      </trkpt>
      <trkpt lat="43.52426" lon="5.60354">
        <ele>514</ele>
        <time>2022-10-19T10:58:32.630Z</time>
      </trkpt>
      <trkpt lat="43.52426" lon="5.60355">
        <ele>514</ele>
        <time>2022-10-19T10:58:33.630Z</time>
      </trkpt>
      <trkpt lat="43.52427" lon="5.60357">
        <ele>513</ele>
        <time>2022-10-19T10:58:34.630Z</time>
      </trkpt>
      <trkpt lat="43.52427" lon="5.60358">
        <ele>513</ele>
        <time>2022-10-19T10:58:35.630Z</time>
      </trkpt>
      <trkpt lat="43.52427" lon="5.60359">
        <ele>513</ele>
        <time>2022-10-19T10:58:36.630Z</time>
      </trkpt>
      <trkpt lat="43.52427" lon="5.60361">
        <ele>513</ele>
        <time>2022-10-19T10:58:37.630Z</time>
      </trkpt>
      <trkpt lat="43.52427" lon="5.60363">
        <ele>513</ele>
        <time>2022-10-19T10:58:38.630Z</time>
      </trkpt>
      <trkpt lat="43.52428" lon="5.60364">
        <ele>513</ele>
        <time>2022-10-19T10:58:39.630Z</time>
      </trkpt>
      <trkpt lat="43.52428" lon="5.60366">
        <ele>513</ele>
        <time>2022-10-19T10:58:40.630Z</time>
      </trkpt>
      <trkpt lat="43.52428" lon="5.60367">
        <ele>513</ele>
        <time>2022-10-19T10:58:41.630Z</time>
      </trkpt>
      <trkpt lat="43.52428" lon="5.60368">
        <ele>513</ele>
        <time>2022-10-19T10:58:42.630Z</time>
      </trkpt>
      <trkpt lat="43.52429" lon="5.60369">
        <ele>513</ele>
        <time>2022-10-19T10:58:43.630Z</time>
      </trkpt>
      <trkpt lat="43.52429" lon="5.6037">
        <ele>513</ele>
        <time>2022-10-19T10:58:44.630Z</time>
      </trkpt>
      <trkpt lat="43.52429" lon="5.60372">
        <ele>512</ele>
        <time>2022-10-19T10:58:45.630Z</time>
      </trkpt>
      <trkpt lat="43.5243" lon="5.60373">
        <ele>512</ele>
        <time>2022-10-19T10:58:46.630Z</time>
      </trkpt>
      <trkpt lat="43.5243" lon="5.60375">
        <ele>512</ele>
        <time>2022-10-19T10:58:47.630Z</time>
      </trkpt>
      <trkpt lat="43.52431" lon="5.60376">
        <ele>512</ele>
        <time>2022-10-19T10:58:48.630Z</time>
      </trkpt>
      <trkpt lat="43.52431" lon="5.60378">
        <ele>512</ele>
        <time>2022-10-19T10:58:49.630Z</time>
      </trkpt>
      <trkpt lat="43.52431" lon="5.60379">
        <ele>512</ele>
        <time>2022-10-19T10:58:50.630Z</time>
      </trkpt>
      <trkpt lat="43.52432" lon="5.60381">
        <ele>512</ele>
        <time>2022-10-19T10:58:51.630Z</time>
      </trkpt>
      <trkpt lat="43.52432" lon="5.60383">
        <ele>512</ele>
        <time>2022-10-19T10:58:52.630Z</time>
      </trkpt>
      <trkpt lat="43.52433" lon="5.60384">
        <ele>512</ele>
        <time>2022-10-19T10:58:53.630Z</time>
      </trkpt>
      <trkpt lat="43.52433" lon="5.60386">
        <ele>512</ele>
        <time>2022-10-19T10:58:54.630Z</time>
      </trkpt>
      <trkpt lat="43.52433" lon="5.60387">
        <ele>512</ele>
        <time>2022-10-19T10:58:55.630Z</time>
      </trkpt>
      <trkpt lat="43.52434" lon="5.60388">
        <ele>511</ele>
        <time>2022-10-19T10:58:56.630Z</time>
      </trkpt>
      <trkpt lat="43.52434" lon="5.6039">
        <ele>511</ele>
        <time>2022-10-19T10:58:57.630Z</time>
      </trkpt>
      <trkpt lat="43.52434" lon="5.60391">
        <ele>511</ele>
        <time>2022-10-19T10:58:58.630Z</time>
      </trkpt>
      <trkpt lat="43.52434" lon="5.60392">
        <ele>511</ele>
        <time>2022-10-19T10:58:59.630Z</time>
      </trkpt>
      <trkpt lat="43.52433" lon="5.60393">
        <ele>511</ele>
        <time>2022-10-19T10:59:00.630Z</time>
      </trkpt>
      <trkpt lat="43.52433" lon="5.60394">
        <ele>511</ele>
        <time>2022-10-19T10:59:01.630Z</time>
      </trkpt>
      <trkpt lat="43.52433" lon="5.60395">
        <ele>510</ele>
        <time>2022-10-19T10:59:02.630Z</time>
      </trkpt>
      <trkpt lat="43.52433" lon="5.60397">
        <ele>510</ele>
        <time>2022-10-19T10:59:03.630Z</time>
      </trkpt>
      <trkpt lat="43.52433" lon="5.60398">
        <ele>510</ele>
        <time>2022-10-19T10:59:04.630Z</time>
      </trkpt>
      <trkpt lat="43.52433" lon="5.60399">
        <ele>510</ele>
        <time>2022-10-19T10:59:05.630Z</time>
      </trkpt>
      <trkpt lat="43.52433" lon="5.60401">
        <ele>509</ele>
        <time>2022-10-19T10:59:06.630Z</time>
      </trkpt>
      <trkpt lat="43.52432" lon="5.60402">
        <ele>509</ele>
        <time>2022-10-19T10:59:07.630Z</time>
      </trkpt>
      <trkpt lat="43.52432" lon="5.60403">
        <ele>509</ele>
        <time>2022-10-19T10:59:08.630Z</time>
      </trkpt>
      <trkpt lat="43.52431" lon="5.60404">
        <ele>508</ele>
        <time>2022-10-19T10:59:09.630Z</time>
      </trkpt>
      <trkpt lat="43.52431" lon="5.60405">
        <ele>508</ele>
        <time>2022-10-19T10:59:10.630Z</time>
      </trkpt>
      <trkpt lat="43.5243" lon="5.60406">
        <ele>508</ele>
        <time>2022-10-19T10:59:11.630Z</time>
      </trkpt>
      <trkpt lat="43.5243" lon="5.60407">
        <ele>508</ele>
        <time>2022-10-19T10:59:12.630Z</time>
      </trkpt>
      <trkpt lat="43.5243" lon="5.60408">
        <ele>508</ele>
        <time>2022-10-19T10:59:13.630Z</time>
      </trkpt>
      <trkpt lat="43.5243" lon="5.60409">
        <ele>508</ele>
        <time>2022-10-19T10:59:14.630Z</time>
      </trkpt>
      <trkpt lat="43.5243" lon="5.6041">
        <ele>507</ele>
        <time>2022-10-19T10:59:15.630Z</time>
      </trkpt>
      <trkpt lat="43.52429" lon="5.60411">
        <ele>507</ele>
        <time>2022-10-19T10:59:16.630Z</time>
      </trkpt>
      <trkpt lat="43.52429" lon="5.60413">
        <ele>507</ele>
        <time>2022-10-19T10:59:17.630Z</time>
      </trkpt>
      <trkpt lat="43.52428" lon="5.60414">
        <ele>507</ele>
        <time>2022-10-19T10:59:18.630Z</time>
      </trkpt>
      <trkpt lat="43.52428" lon="5.60415">
        <ele>507</ele>
        <time>2022-10-19T10:59:19.630Z</time>
      </trkpt>
      <trkpt lat="43.52428" lon="5.60416">
        <ele>507</ele>
        <time>2022-10-19T10:59:20.630Z</time>
      </trkpt>
      <trkpt lat="43.52427" lon="5.60416">
        <ele>507</ele>
        <time>2022-10-19T10:59:21.630Z</time>
      </trkpt>
      <trkpt lat="43.52426" lon="5.60417">
        <ele>507</ele>
        <time>2022-10-19T10:59:22.630Z</time>
      </trkpt>
      <trkpt lat="43.52424" lon="5.60416">
        <ele>500</ele>
        <time>2022-10-19T11:33:40.587Z</time>
      </trkpt>
      <trkpt lat="43.52424" lon="5.60416">
        <ele>500</ele>
        <time>2022-10-19T11:33:41.587Z</time>
      </trkpt>
      <trkpt lat="43.52424" lon="5.60416">
        <ele>500</ele>
        <time>2022-10-19T11:33:42.587Z</time>
      </trkpt>
      <trkpt lat="43.52424" lon="5.60416">
        <ele>500</ele>
        <time>2022-10-19T11:33:43.587Z</time>
      </trkpt>
      <trkpt lat="43.52424" lon="5.60416">
        <ele>500</ele>
        <time>2022-10-19T11:33:44.587Z</time>
      </trkpt>
      <trkpt lat="43.52424" lon="5.60416">
        <ele>500</ele>
        <time>2022-10-19T11:33:45.587Z</time>
      </trkpt>
      <trkpt lat="43.52424" lon="5.60416">
        <ele>500</ele>
        <time>2022-10-19T11:33:46.587Z</time>
      </trkpt>
      <trkpt lat="43.52424" lon="5.60416">
        <ele>500</ele>
        <time>2022-10-19T11:33:47.587Z</time>
      </trkpt>
      <trkpt lat="43.52423" lon="5.60416">
        <ele>500</ele>
        <time>2022-10-19T11:33:48.587Z</time>
      </trkpt>
      <trkpt lat="43.52423" lon="5.60416">
        <ele>500</ele>
        <time>2022-10-19T11:33:49.587Z</time>
      </trkpt>
      <trkpt lat="43.52423" lon="5.60416">
        <ele>499</ele>
        <time>2022-10-19T11:33:50.587Z</time>
      </trkpt>
      <trkpt lat="43.52423" lon="5.60416">
        <ele>499</ele>
        <time>2022-10-19T11:33:51.587Z</time>
      </trkpt>
      <trkpt lat="43.52424" lon="5.60416">
        <ele>499</ele>
        <time>2022-10-19T11:33:52.587Z</time>
      </trkpt>
      <trkpt lat="43.52423" lon="5.60416">
        <ele>499</ele>
        <time>2022-10-19T11:33:53.587Z</time>
      </trkpt>
      <trkpt lat="43.52424" lon="5.60416">
        <ele>499</ele>
        <time>2022-10-19T11:33:54.587Z</time>
      </trkpt>
      <trkpt lat="43.52423" lon="5.60417">
        <ele>499</ele>
        <time>2022-10-19T11:33:55.587Z</time>
      </trkpt>
      <trkpt lat="43.52424" lon="5.60418">
        <ele>499</ele>
        <time>2022-10-19T11:33:56.587Z</time>
      </trkpt>
      <trkpt lat="43.52424" lon="5.60418">
        <ele>499</ele>
        <time>2022-10-19T11:33:57.587Z</time>
      </trkpt>
      <trkpt lat="43.52424" lon="5.60419">
        <ele>499</ele>
        <time>2022-10-19T11:33:58.587Z</time>
      </trkpt>
      <trkpt lat="43.52424" lon="5.6042">
        <ele>499</ele>
        <time>2022-10-19T11:33:59.587Z</time>
      </trkpt>
      <trkpt lat="43.52424" lon="5.60421">
        <ele>499</ele>
        <time>2022-10-19T11:34:00.587Z</time>
      </trkpt>
      <trkpt lat="43.52424" lon="5.60423">
        <ele>499</ele>
        <time>2022-10-19T11:34:01.587Z</time>
      </trkpt>
      <trkpt lat="43.52424" lon="5.60424">
        <ele>499</ele>
        <time>2022-10-19T11:34:02.587Z</time>
      </trkpt>
      <trkpt lat="43.52424" lon="5.60424">
        <ele>499</ele>
        <time>2022-10-19T11:34:03.587Z</time>
      </trkpt>
      <trkpt lat="43.52424" lon="5.60424">
        <ele>499</ele>
        <time>2022-10-19T11:34:04.587Z</time>
      </trkpt>
      <trkpt lat="43.52424" lon="5.60424">
        <ele>500</ele>
        <time>2022-10-19T11:34:05.587Z</time>
      </trkpt>
      <trkpt lat="43.52424" lon="5.60424">
        <ele>500</ele>
        <time>2022-10-19T11:34:06.587Z</time>
      </trkpt>
      <trkpt lat="43.52424" lon="5.60424">
        <ele>500</ele>
        <time>2022-10-19T11:34:07.587Z</time>
      </trkpt>
      <trkpt lat="43.52424" lon="5.60424">
        <ele>500</ele>
        <time>2022-10-19T11:34:08.587Z</time>
      </trkpt>
      <trkpt lat="43.52424" lon="5.60425">
        <ele>500</ele>
        <time>2022-10-19T11:34:09.587Z</time>
      </trkpt>
      <trkpt lat="43.52424" lon="5.60425">
        <ele>500</ele>
        <time>2022-10-19T11:34:10.587Z</time>
      </trkpt>
      <trkpt lat="43.52424" lon="5.60424">
        <ele>500</ele>
        <time>2022-10-19T11:34:11.587Z</time>
      </trkpt>
      <trkpt lat="43.52424" lon="5.60425">
        <ele>500</ele>
        <time>2022-10-19T11:34:12.587Z</time>
      </trkpt>
      <trkpt lat="43.52425" lon="5.60425">
        <ele>500</ele>
        <time>2022-10-19T11:34:13.587Z</time>
      </trkpt>
      <trkpt lat="43.52425" lon="5.60426">
        <ele>500</ele>
        <time>2022-10-19T11:34:14.587Z</time>
      </trkpt>
      <trkpt lat="43.52424" lon="5.60428">
        <ele>500</ele>
        <time>2022-10-19T11:34:15.587Z</time>
      </trkpt>
      <trkpt lat="43.52424" lon="5.60429">
        <ele>501</ele>
        <time>2022-10-19T11:34:16.587Z</time>
      </trkpt>
      <trkpt lat="43.52424" lon="5.6043">
        <ele>501</ele>
        <time>2022-10-19T11:34:17.587Z</time>
      </trkpt>
      <trkpt lat="43.52424" lon="5.60432">
        <ele>501</ele>
        <time>2022-10-19T11:34:18.587Z</time>
      </trkpt>
      <trkpt lat="43.52423" lon="5.60433">
        <ele>501</ele>
        <time>2022-10-19T11:34:19.587Z</time>
      </trkpt>
      <trkpt lat="43.52423" lon="5.60435">
        <ele>501</ele>
        <time>2022-10-19T11:34:20.587Z</time>
      </trkpt>
      <trkpt lat="43.52422" lon="5.60436">
        <ele>501</ele>
        <time>2022-10-19T11:34:21.587Z</time>
      </trkpt>
      <trkpt lat="43.52422" lon="5.60437">
        <ele>501</ele>
        <time>2022-10-19T11:34:22.587Z</time>
      </trkpt>
      <trkpt lat="43.52421" lon="5.60438">
        <ele>501</ele>
        <time>2022-10-19T11:34:23.587Z</time>
      </trkpt>
      <trkpt lat="43.52421" lon="5.60439">
        <ele>501</ele>
        <time>2022-10-19T11:34:24.587Z</time>
      </trkpt>
      <trkpt lat="43.5242" lon="5.60441">
        <ele>501</ele>
        <time>2022-10-19T11:34:25.587Z</time>
      </trkpt>
      <trkpt lat="43.52419" lon="5.60442">
        <ele>501</ele>
        <time>2022-10-19T11:34:26.587Z</time>
      </trkpt>
      <trkpt lat="43.52419" lon="5.60443">
        <ele>501</ele>
        <time>2022-10-19T11:34:27.587Z</time>
      </trkpt>
      <trkpt lat="43.52418" lon="5.60444">
        <ele>502</ele>
        <time>2022-10-19T11:34:28.587Z</time>
      </trkpt>
      <trkpt lat="43.52418" lon="5.60445">
        <ele>502</ele>
        <time>2022-10-19T11:34:29.587Z</time>
      </trkpt>
      <trkpt lat="43.52418" lon="5.60447">
        <ele>502</ele>
        <time>2022-10-19T11:34:30.587Z</time>
      </trkpt>
      <trkpt lat="43.52417" lon="5.60448">
        <ele>502</ele>
        <time>2022-10-19T11:34:31.587Z</time>
      </trkpt>
      <trkpt lat="43.52417" lon="5.60449">
        <ele>502</ele>
        <time>2022-10-19T11:34:32.587Z</time>
      </trkpt>
      <trkpt lat="43.52416" lon="5.60451">
        <ele>502</ele>
        <time>2022-10-19T11:34:33.587Z</time>
      </trkpt>
      <trkpt lat="43.52416" lon="5.60452">
        <ele>502</ele>
        <time>2022-10-19T11:34:34.587Z</time>
      </trkpt>
      <trkpt lat="43.52415" lon="5.60453">
        <ele>503</ele>
        <time>2022-10-19T11:34:35.587Z</time>
      </trkpt>
      <trkpt lat="43.52415" lon="5.60454">
        <ele>503</ele>
        <time>2022-10-19T11:34:36.587Z</time>
      </trkpt>
      <trkpt lat="43.52414" lon="5.60456">
        <ele>503</ele>
        <time>2022-10-19T11:34:37.587Z</time>
      </trkpt>
      <trkpt lat="43.52414" lon="5.60457">
        <ele>503</ele>
        <time>2022-10-19T11:34:38.587Z</time>
      </trkpt>
      <trkpt lat="43.52413" lon="5.60458">
        <ele>503</ele>
        <time>2022-10-19T11:34:39.587Z</time>
      </trkpt>
      <trkpt lat="43.52413" lon="5.60459">
        <ele>503</ele>
        <time>2022-10-19T11:34:40.587Z</time>
      </trkpt>
      <trkpt lat="43.52412" lon="5.6046">
        <ele>503</ele>
        <time>2022-10-19T11:34:41.587Z</time>
      </trkpt>
      <trkpt lat="43.52412" lon="5.60461">
        <ele>504</ele>
        <time>2022-10-19T11:34:42.587Z</time>
      </trkpt>
      <trkpt lat="43.52411" lon="5.60462">
        <ele>504</ele>
        <time>2022-10-19T11:34:43.587Z</time>
      </trkpt>
      <trkpt lat="43.5241" lon="5.60463">
        <ele>504</ele>
        <time>2022-10-19T11:34:44.587Z</time>
      </trkpt>
      <trkpt lat="43.5241" lon="5.60464">
        <ele>504</ele>
        <time>2022-10-19T11:34:45.587Z</time>
      </trkpt>
      <trkpt lat="43.52409" lon="5.60465">
        <ele>504</ele>
        <time>2022-10-19T11:34:46.587Z</time>
      </trkpt>
      <trkpt lat="43.52409" lon="5.60466">
        <ele>504</ele>
        <time>2022-10-19T11:34:47.587Z</time>
      </trkpt>
      <trkpt lat="43.52409" lon="5.60468">
        <ele>504</ele>
        <time>2022-10-19T11:34:48.587Z</time>
      </trkpt>
      <trkpt lat="43.52408" lon="5.60469">
        <ele>505</ele>
        <time>2022-10-19T11:34:49.587Z</time>
      </trkpt>
      <trkpt lat="43.52408" lon="5.6047">
        <ele>505</ele>
        <time>2022-10-19T11:34:50.587Z</time>
      </trkpt>
      <trkpt lat="43.52407" lon="5.60472">
        <ele>505</ele>
        <time>2022-10-19T11:34:51.587Z</time>
      </trkpt>
      <trkpt lat="43.52407" lon="5.60473">
        <ele>505</ele>
        <time>2022-10-19T11:34:52.587Z</time>
      </trkpt>
      <trkpt lat="43.52407" lon="5.60474">
        <ele>506</ele>
        <time>2022-10-19T11:34:53.587Z</time>
      </trkpt>
      <trkpt lat="43.52407" lon="5.60475">
        <ele>506</ele>
        <time>2022-10-19T11:34:54.587Z</time>
      </trkpt>
      <trkpt lat="43.52407" lon="5.60476">
        <ele>506</ele>
        <time>2022-10-19T11:34:55.587Z</time>
      </trkpt>
      <trkpt lat="43.52407" lon="5.60478">
        <ele>506</ele>
        <time>2022-10-19T11:34:56.587Z</time>
      </trkpt>
      <trkpt lat="43.52406" lon="5.60479">
        <ele>506</ele>
        <time>2022-10-19T11:34:57.587Z</time>
      </trkpt>
      <trkpt lat="43.52407" lon="5.6048">
        <ele>506</ele>
        <time>2022-10-19T11:34:58.587Z</time>
      </trkpt>
      <trkpt lat="43.52407" lon="5.6048">
        <ele>507</ele>
        <time>2022-10-19T11:34:59.587Z</time>
      </trkpt>
      <trkpt lat="43.52407" lon="5.60481">
        <ele>507</ele>
        <time>2022-10-19T11:35:00.587Z</time>
      </trkpt>
      <trkpt lat="43.52407" lon="5.60481">
        <ele>507</ele>
        <time>2022-10-19T11:35:01.587Z</time>
      </trkpt>
      <trkpt lat="43.52407" lon="5.60481">
        <ele>507</ele>
        <time>2022-10-19T11:35:02.587Z</time>
      </trkpt>
      <trkpt lat="43.52406" lon="5.60481">
        <ele>507</ele>
        <time>2022-10-19T11:35:03.587Z</time>
      </trkpt>
      <trkpt lat="43.52406" lon="5.60481">
        <ele>507</ele>
        <time>2022-10-19T11:35:04.587Z</time>
      </trkpt>
      <trkpt lat="43.52406" lon="5.60481">
        <ele>507</ele>
        <time>2022-10-19T11:35:05.587Z</time>
      </trkpt>
      <trkpt lat="43.52407" lon="5.60481">
        <ele>507</ele>
        <time>2022-10-19T11:35:06.587Z</time>
      </trkpt>
      <trkpt lat="43.52407" lon="5.60481">
        <ele>507</ele>
        <time>2022-10-19T11:35:07.587Z</time>
      </trkpt>
      <trkpt lat="43.52407" lon="5.60481">
        <ele>507</ele>
        <time>2022-10-19T11:35:08.587Z</time>
      </trkpt>
      <trkpt lat="43.52407" lon="5.60481">
        <ele>507</ele>
        <time>2022-10-19T11:35:09.587Z</time>
      </trkpt>
      <trkpt lat="43.52407" lon="5.60481">
        <ele>507</ele>
        <time>2022-10-19T11:35:10.587Z</time>
      </trkpt>
      <trkpt lat="43.52407" lon="5.60481">
        <ele>507</ele>
        <time>2022-10-19T11:35:11.587Z</time>
      </trkpt>
      <trkpt lat="43.52407" lon="5.60481">
        <ele>507</ele>
        <time>2022-10-19T11:35:12.587Z</time>
      </trkpt>
      <trkpt lat="43.52407" lon="5.60481">
        <ele>507</ele>
        <time>2022-10-19T11:35:13.587Z</time>
      </trkpt>
      <trkpt lat="43.52407" lon="5.60481">
        <ele>507</ele>
        <time>2022-10-19T11:35:14.587Z</time>
      </trkpt>
      <trkpt lat="43.52407" lon="5.60481">
        <ele>508</ele>
        <time>2022-10-19T11:35:15.587Z</time>
      </trkpt>
      <trkpt lat="43.52407" lon="5.60481">
        <ele>508</ele>
        <time>2022-10-19T11:35:16.587Z</time>
      </trkpt>
      <trkpt lat="43.52407" lon="5.60481">
        <ele>508</ele>
        <time>2022-10-19T11:35:17.587Z</time>
      </trkpt>
      <trkpt lat="43.52407" lon="5.60481">
        <ele>508</ele>
        <time>2022-10-19T11:35:18.587Z</time>
      </trkpt>
      <trkpt lat="43.52407" lon="5.60481">
        <ele>508</ele>
        <time>2022-10-19T11:35:19.587Z</time>
      </trkpt>
      <trkpt lat="43.52407" lon="5.60481">
        <ele>508</ele>
        <time>2022-10-19T11:35:20.587Z</time>
      </trkpt>
      <trkpt lat="43.52407" lon="5.60481">
        <ele>508</ele>
        <time>2022-10-19T11:35:21.587Z</time>
      </trkpt>
      <trkpt lat="43.52407" lon="5.60481">
        <ele>508</ele>
        <time>2022-10-19T11:35:22.587Z</time>
      </trkpt>
      <trkpt lat="43.52407" lon="5.60481">
        <ele>508</ele>
        <time>2022-10-19T11:35:23.587Z</time>
      </trkpt>
      <trkpt lat="43.52407" lon="5.60481">
        <ele>508</ele>
        <time>2022-10-19T11:35:24.587Z</time>
      </trkpt>
      <trkpt lat="43.52407" lon="5.60481">
        <ele>508</ele>
        <time>2022-10-19T11:35:25.587Z</time>
      </trkpt>
      <trkpt lat="43.52407" lon="5.60481">
        <ele>508</ele>
        <time>2022-10-19T11:35:26.587Z</time>
      </trkpt>
      <trkpt lat="43.52407" lon="5.60481">
        <ele>508</ele>
        <time>2022-10-19T11:35:27.587Z</time>
      </trkpt>
      <trkpt lat="43.52407" lon="5.60481">
        <ele>508</ele>
        <time>2022-10-19T11:35:28.587Z</time>
      </trkpt>
      <trkpt lat="43.52407" lon="5.60481">
        <ele>508</ele>
        <time>2022-10-19T11:35:29.587Z</time>
      </trkpt>
      <trkpt lat="43.52407" lon="5.60481">
        <ele>508</ele>
        <time>2022-10-19T11:35:30.587Z</time>
      </trkpt>
      <trkpt lat="43.52407" lon="5.60481">
        <ele>508</ele>
        <time>2022-10-19T11:35:31.587Z</time>
      </trkpt>
      <trkpt lat="43.52407" lon="5.60481">
        <ele>508</ele>
        <time>2022-10-19T11:35:32.587Z</time>
      </trkpt>
      <trkpt lat="43.52407" lon="5.60481">
        <ele>508</ele>
        <time>2022-10-19T11:35:33.587Z</time>
      </trkpt>
      <trkpt lat="43.52407" lon="5.60481">
        <ele>508</ele>
        <time>2022-10-19T11:35:34.587Z</time>
      </trkpt>
      <trkpt lat="43.52407" lon="5.60481">
        <ele>508</ele>
        <time>2022-10-19T11:35:35.587Z</time>
      </trkpt>
      <trkpt lat="43.52407" lon="5.60481">
        <ele>508</ele>
        <time>2022-10-19T11:35:36.587Z</time>
      </trkpt>
      <trkpt lat="43.52407" lon="5.60481">
        <ele>508</ele>
        <time>2022-10-19T11:35:37.587Z</time>
      </trkpt>
      <trkpt lat="43.52407" lon="5.60481">
        <ele>508</ele>
        <time>2022-10-19T11:35:38.587Z</time>
      </trkpt>
      <trkpt lat="43.52407" lon="5.60481">
        <ele>508</ele>
        <time>2022-10-19T11:35:39.587Z</time>
      </trkpt>
      <trkpt lat="43.52407" lon="5.60481">
        <ele>508</ele>
        <time>2022-10-19T11:35:40.587Z</time>
      </trkpt>
      <trkpt lat="43.52407" lon="5.60481">
        <ele>508</ele>
        <time>2022-10-19T11:35:41.587Z</time>
      </trkpt>
      <trkpt lat="43.52407" lon="5.60481">
        <ele>508</ele>
        <time>2022-10-19T11:35:42.587Z</time>
      </trkpt>
      <trkpt lat="43.52407" lon="5.60481">
        <ele>508</ele>
        <time>2022-10-19T11:35:43.587Z</time>
      </trkpt>
      <trkpt lat="43.52407" lon="5.60481">
        <ele>507</ele>
        <time>2022-10-19T11:35:44.587Z</time>
      </trkpt>
      <trkpt lat="43.52407" lon="5.60481">
        <ele>507</ele>
        <time>2022-10-19T11:35:45.587Z</time>
      </trkpt>
      <trkpt lat="43.52407" lon="5.60481">
        <ele>507</ele>
        <time>2022-10-19T11:35:46.587Z</time>
      </trkpt>
      <trkpt lat="43.52407" lon="5.60481">
        <ele>507</ele>
        <time>2022-10-19T11:35:47.587Z</time>
      </trkpt>
      <trkpt lat="43.52407" lon="5.60481">
        <ele>507</ele>
        <time>2022-10-19T11:35:48.587Z</time>
      </trkpt>
      <trkpt lat="43.52407" lon="5.60481">
        <ele>507</ele>
        <time>2022-10-19T11:35:49.587Z</time>
      </trkpt>
      <trkpt lat="43.52407" lon="5.60481">
        <ele>507</ele>
        <time>2022-10-19T11:35:50.587Z</time>
      </trkpt>
      <trkpt lat="43.52407" lon="5.60481">
        <ele>506</ele>
        <time>2022-10-19T11:35:51.587Z</time>
      </trkpt>
      <trkpt lat="43.52407" lon="5.60481">
        <ele>506</ele>
        <time>2022-10-19T11:35:52.587Z</time>
      </trkpt>
      <trkpt lat="43.52407" lon="5.60481">
        <ele>506</ele>
        <time>2022-10-19T11:35:53.587Z</time>
      </trkpt>
      <trkpt lat="43.52407" lon="5.60481">
        <ele>506</ele>
        <time>2022-10-19T11:35:54.587Z</time>
      </trkpt>
      <trkpt lat="43.52407" lon="5.60481">
        <ele>506</ele>
        <time>2022-10-19T11:35:55.587Z</time>
      </trkpt>
      <trkpt lat="43.52407" lon="5.60481">
        <ele>506</ele>
        <time>2022-10-19T11:35:56.587Z</time>
      </trkpt>
      <trkpt lat="43.52407" lon="5.60481">
        <ele>505</ele>
        <time>2022-10-19T11:35:57.587Z</time>
      </trkpt>
      <trkpt lat="43.52407" lon="5.60481">
        <ele>505</ele>
        <time>2022-10-19T11:35:58.587Z</time>
      </trkpt>
      <trkpt lat="43.52407" lon="5.60481">
        <ele>505</ele>
        <time>2022-10-19T11:35:59.587Z</time>
      </trkpt>
      <trkpt lat="43.52407" lon="5.60481">
        <ele>505</ele>
        <time>2022-10-19T11:36:00.587Z</time>
      </trkpt>
      <trkpt lat="43.52407" lon="5.60481">
        <ele>505</ele>
        <time>2022-10-19T11:36:01.587Z</time>
      </trkpt>
      <trkpt lat="43.52407" lon="5.60481">
        <ele>505</ele>
        <time>2022-10-19T11:36:02.587Z</time>
      </trkpt>
      <trkpt lat="43.52407" lon="5.60481">
        <ele>505</ele>
        <time>2022-10-19T11:36:03.587Z</time>
      </trkpt>
      <trkpt lat="43.52407" lon="5.60481">
        <ele>505</ele>
        <time>2022-10-19T11:36:04.587Z</time>
      </trkpt>
      <trkpt lat="43.52407" lon="5.60481">
        <ele>504</ele>
        <time>2022-10-19T11:36:05.587Z</time>
      </trkpt>
      <trkpt lat="43.52407" lon="5.60481">
        <ele>504</ele>
        <time>2022-10-19T11:36:06.587Z</time>
      </trkpt>
      <trkpt lat="43.52407" lon="5.60481">
        <ele>504</ele>
        <time>2022-10-19T11:36:07.587Z</time>
      </trkpt>
      <trkpt lat="43.52407" lon="5.60481">
        <ele>504</ele>
        <time>2022-10-19T11:36:08.587Z</time>
      </trkpt>
      <trkpt lat="43.52407" lon="5.60481">
        <ele>504</ele>
        <time>2022-10-19T11:36:09.587Z</time>
      </trkpt>
      <trkpt lat="43.52407" lon="5.60481">
        <ele>504</ele>
        <time>2022-10-19T11:36:10.587Z</time>
      </trkpt>
      <trkpt lat="43.52407" lon="5.60481">
        <ele>504</ele>
        <time>2022-10-19T11:36:11.587Z</time>
      </trkpt>
      <trkpt lat="43.52407" lon="5.60481">
        <ele>504</ele>
        <time>2022-10-19T11:36:12.587Z</time>
      </trkpt>
      <trkpt lat="43.52407" lon="5.60481">
        <ele>504</ele>
        <time>2022-10-19T11:36:13.587Z</time>
      </trkpt>
      <trkpt lat="43.52407" lon="5.60481">
        <ele>504</ele>
        <time>2022-10-19T11:36:14.587Z</time>
      </trkpt>
      <trkpt lat="43.52407" lon="5.60481">
        <ele>504</ele>
        <time>2022-10-19T11:36:15.587Z</time>
      </trkpt>
      <trkpt lat="43.52407" lon="5.60481">
        <ele>504</ele>
        <time>2022-10-19T11:36:16.587Z</time>
      </trkpt>
      <trkpt lat="43.52407" lon="5.60481">
        <ele>504</ele>
        <time>2022-10-19T11:36:17.587Z</time>
      </trkpt>
      <trkpt lat="43.52407" lon="5.60481">
        <ele>504</ele>
        <time>2022-10-19T11:36:18.587Z</time>
      </trkpt>
      <trkpt lat="43.52407" lon="5.60481">
        <ele>504</ele>
        <time>2022-10-19T11:36:19.587Z</time>
      </trkpt>
      <trkpt lat="43.52407" lon="5.60481">
        <ele>503</ele>
        <time>2022-10-19T11:36:20.587Z</time>
      </trkpt>
      <trkpt lat="43.52407" lon="5.60481">
        <ele>503</ele>
        <time>2022-10-19T11:36:21.587Z</time>
      </trkpt>
      <trkpt lat="43.52407" lon="5.60481">
        <ele>503</ele>
        <time>2022-10-19T11:36:22.587Z</time>
      </trkpt>
      <trkpt lat="43.52407" lon="5.60481">
        <ele>503</ele>
        <time>2022-10-19T11:36:23.587Z</time>
      </trkpt>
      <trkpt lat="43.52407" lon="5.60481">
        <ele>503</ele>
        <time>2022-10-19T11:36:24.587Z</time>
      </trkpt>
      <trkpt lat="43.52407" lon="5.60481">
        <ele>503</ele>
        <time>2022-10-19T11:36:25.587Z</time>
      </trkpt>
      <trkpt lat="43.52408" lon="5.60482">
        <ele>503</ele>
        <time>2022-10-19T11:36:26.587Z</time>
      </trkpt>
      <trkpt lat="43.52408" lon="5.60483">
        <ele>503</ele>
        <time>2022-10-19T11:36:27.587Z</time>
      </trkpt>
      <trkpt lat="43.52409" lon="5.60484">
        <ele>503</ele>
        <time>2022-10-19T11:36:28.587Z</time>
      </trkpt>
      <trkpt lat="43.5241" lon="5.60485">
        <ele>503</ele>
        <time>2022-10-19T11:36:29.587Z</time>
      </trkpt>
      <trkpt lat="43.52411" lon="5.60486">
        <ele>503</ele>
        <time>2022-10-19T11:36:30.587Z</time>
      </trkpt>
      <trkpt lat="43.52412" lon="5.60487">
        <ele>503</ele>
        <time>2022-10-19T11:36:31.587Z</time>
      </trkpt>
      <trkpt lat="43.52413" lon="5.60488">
        <ele>503</ele>
        <time>2022-10-19T11:36:32.587Z</time>
      </trkpt>
      <trkpt lat="43.52413" lon="5.60489">
        <ele>503</ele>
        <time>2022-10-19T11:36:33.587Z</time>
      </trkpt>
      <trkpt lat="43.52414" lon="5.6049">
        <ele>503</ele>
        <time>2022-10-19T11:36:34.587Z</time>
      </trkpt>
      <trkpt lat="43.52415" lon="5.60491">
        <ele>503</ele>
        <time>2022-10-19T11:36:35.587Z</time>
      </trkpt>
      <trkpt lat="43.52416" lon="5.60492">
        <ele>504</ele>
        <time>2022-10-19T11:36:36.587Z</time>
      </trkpt>
      <trkpt lat="43.52417" lon="5.60493">
        <ele>504</ele>
        <time>2022-10-19T11:36:37.587Z</time>
      </trkpt>
      <trkpt lat="43.52417" lon="5.60494">
        <ele>504</ele>
        <time>2022-10-19T11:36:38.587Z</time>
      </trkpt>
      <trkpt lat="43.52418" lon="5.60495">
        <ele>504</ele>
        <time>2022-10-19T11:36:39.587Z</time>
      </trkpt>
      <trkpt lat="43.52419" lon="5.60496">
        <ele>504</ele>
        <time>2022-10-19T11:36:40.587Z</time>
      </trkpt>
      <trkpt lat="43.5242" lon="5.60497">
        <ele>505</ele>
        <time>2022-10-19T11:36:41.587Z</time>
      </trkpt>
      <trkpt lat="43.5242" lon="5.60498">
        <ele>505</ele>
        <time>2022-10-19T11:36:42.587Z</time>
      </trkpt>
      <trkpt lat="43.52421" lon="5.60499">
        <ele>505</ele>
        <time>2022-10-19T11:36:43.587Z</time>
      </trkpt>
      <trkpt lat="43.52422" lon="5.605">
        <ele>505</ele>
        <time>2022-10-19T11:36:44.587Z</time>
      </trkpt>
      <trkpt lat="43.52422" lon="5.60501">
        <ele>505</ele>
        <time>2022-10-19T11:36:45.587Z</time>
      </trkpt>
      <trkpt lat="43.52423" lon="5.60502">
        <ele>506</ele>
        <time>2022-10-19T11:36:46.587Z</time>
      </trkpt>
      <trkpt lat="43.52423" lon="5.60503">
        <ele>506</ele>
        <time>2022-10-19T11:36:47.587Z</time>
      </trkpt>
      <trkpt lat="43.52424" lon="5.60504">
        <ele>506</ele>
        <time>2022-10-19T11:36:48.587Z</time>
      </trkpt>
      <trkpt lat="43.52425" lon="5.60505">
        <ele>506</ele>
        <time>2022-10-19T11:36:49.587Z</time>
      </trkpt>
      <trkpt lat="43.52425" lon="5.60506">
        <ele>506</ele>
        <time>2022-10-19T11:36:50.587Z</time>
      </trkpt>
      <trkpt lat="43.52426" lon="5.60508">
        <ele>507</ele>
        <time>2022-10-19T11:36:51.587Z</time>
      </trkpt>
      <trkpt lat="43.52427" lon="5.60509">
        <ele>507</ele>
        <time>2022-10-19T11:36:52.587Z</time>
      </trkpt>
      <trkpt lat="43.52427" lon="5.6051">
        <ele>507</ele>
        <time>2022-10-19T11:36:53.587Z</time>
      </trkpt>
      <trkpt lat="43.52428" lon="5.60511">
        <ele>507</ele>
        <time>2022-10-19T11:36:54.587Z</time>
      </trkpt>
      <trkpt lat="43.52429" lon="5.60512">
        <ele>507</ele>
        <time>2022-10-19T11:36:55.587Z</time>
      </trkpt>
      <trkpt lat="43.52429" lon="5.60514">
        <ele>508</ele>
        <time>2022-10-19T11:36:56.587Z</time>
      </trkpt>
      <trkpt lat="43.5243" lon="5.60515">
        <ele>508</ele>
        <time>2022-10-19T11:36:57.587Z</time>
      </trkpt>
      <trkpt lat="43.5243" lon="5.60516">
        <ele>508</ele>
        <time>2022-10-19T11:36:58.587Z</time>
      </trkpt>
      <trkpt lat="43.52431" lon="5.60517">
        <ele>508</ele>
        <time>2022-10-19T11:36:59.587Z</time>
      </trkpt>
      <trkpt lat="43.52431" lon="5.60518">
        <ele>508</ele>
        <time>2022-10-19T11:37:00.587Z</time>
      </trkpt>
      <trkpt lat="43.52432" lon="5.60519">
        <ele>508</ele>
        <time>2022-10-19T11:37:01.587Z</time>
      </trkpt>
      <trkpt lat="43.52432" lon="5.6052">
        <ele>509</ele>
        <time>2022-10-19T11:37:02.587Z</time>
      </trkpt>
      <trkpt lat="43.52433" lon="5.60521">
        <ele>509</ele>
        <time>2022-10-19T11:37:03.587Z</time>
      </trkpt>
      <trkpt lat="43.52433" lon="5.60523">
        <ele>509</ele>
        <time>2022-10-19T11:37:04.587Z</time>
      </trkpt>
      <trkpt lat="43.52434" lon="5.60524">
        <ele>509</ele>
        <time>2022-10-19T11:37:05.587Z</time>
      </trkpt>
      <trkpt lat="43.52435" lon="5.60525">
        <ele>509</ele>
        <time>2022-10-19T11:37:06.587Z</time>
      </trkpt>
      <trkpt lat="43.52435" lon="5.60526">
        <ele>509</ele>
        <time>2022-10-19T11:37:07.587Z</time>
      </trkpt>
      <trkpt lat="43.52436" lon="5.60527">
        <ele>509</ele>
        <time>2022-10-19T11:37:08.587Z</time>
      </trkpt>
      <trkpt lat="43.52436" lon="5.60528">
        <ele>509</ele>
        <time>2022-10-19T11:37:09.587Z</time>
      </trkpt>
      <trkpt lat="43.52437" lon="5.60528">
        <ele>509</ele>
        <time>2022-10-19T11:37:10.587Z</time>
      </trkpt>
      <trkpt lat="43.52437" lon="5.60529">
        <ele>510</ele>
        <time>2022-10-19T11:37:11.587Z</time>
      </trkpt>
      <trkpt lat="43.52438" lon="5.6053">
        <ele>510</ele>
        <time>2022-10-19T11:37:12.587Z</time>
      </trkpt>
      <trkpt lat="43.52439" lon="5.60531">
        <ele>510</ele>
        <time>2022-10-19T11:37:13.587Z</time>
      </trkpt>
      <trkpt lat="43.52439" lon="5.60531">
        <ele>510</ele>
        <time>2022-10-19T11:37:14.587Z</time>
      </trkpt>
      <trkpt lat="43.5244" lon="5.60532">
        <ele>511</ele>
        <time>2022-10-19T11:37:15.587Z</time>
      </trkpt>
      <trkpt lat="43.5244" lon="5.60533">
        <ele>511</ele>
        <time>2022-10-19T11:37:16.587Z</time>
      </trkpt>
      <trkpt lat="43.52441" lon="5.60534">
        <ele>511</ele>
        <time>2022-10-19T11:37:17.587Z</time>
      </trkpt>
      <trkpt lat="43.52442" lon="5.60535">
        <ele>511</ele>
        <time>2022-10-19T11:37:18.587Z</time>
      </trkpt>
      <trkpt lat="43.52443" lon="5.60536">
        <ele>512</ele>
        <time>2022-10-19T11:37:19.587Z</time>
      </trkpt>
      <trkpt lat="43.52443" lon="5.60537">
        <ele>512</ele>
        <time>2022-10-19T11:37:20.587Z</time>
      </trkpt>
      <trkpt lat="43.52444" lon="5.60538">
        <ele>512</ele>
        <time>2022-10-19T11:37:21.587Z</time>
      </trkpt>
      <trkpt lat="43.52444" lon="5.6054">
        <ele>512</ele>
        <time>2022-10-19T11:37:22.587Z</time>
      </trkpt>
      <trkpt lat="43.52444" lon="5.60541">
        <ele>512</ele>
        <time>2022-10-19T11:37:23.587Z</time>
      </trkpt>
      <trkpt lat="43.52445" lon="5.60542">
        <ele>513</ele>
        <time>2022-10-19T11:37:24.587Z</time>
      </trkpt>
      <trkpt lat="43.52445" lon="5.60543">
        <ele>513</ele>
        <time>2022-10-19T11:37:25.587Z</time>
      </trkpt>
      <trkpt lat="43.52446" lon="5.60545">
        <ele>513</ele>
        <time>2022-10-19T11:37:26.587Z</time>
      </trkpt>
      <trkpt lat="43.52447" lon="5.60546">
        <ele>513</ele>
        <time>2022-10-19T11:37:27.587Z</time>
      </trkpt>
      <trkpt lat="43.52447" lon="5.60547">
        <ele>513</ele>
        <time>2022-10-19T11:37:28.587Z</time>
      </trkpt>
      <trkpt lat="43.52448" lon="5.60548">
        <ele>514</ele>
        <time>2022-10-19T11:37:29.587Z</time>
      </trkpt>
      <trkpt lat="43.52448" lon="5.6055">
        <ele>514</ele>
        <time>2022-10-19T11:37:30.587Z</time>
      </trkpt>
      <trkpt lat="43.52448" lon="5.60551">
        <ele>514</ele>
        <time>2022-10-19T11:37:31.587Z</time>
      </trkpt>
      <trkpt lat="43.52449" lon="5.60553">
        <ele>514</ele>
        <time>2022-10-19T11:37:32.587Z</time>
      </trkpt>
      <trkpt lat="43.52449" lon="5.60554">
        <ele>514</ele>
        <time>2022-10-19T11:37:33.587Z</time>
      </trkpt>
      <trkpt lat="43.5245" lon="5.60555">
        <ele>515</ele>
        <time>2022-10-19T11:37:34.587Z</time>
      </trkpt>
      <trkpt lat="43.5245" lon="5.60556">
        <ele>515</ele>
        <time>2022-10-19T11:37:35.587Z</time>
      </trkpt>
      <trkpt lat="43.5245" lon="5.60558">
        <ele>515</ele>
        <time>2022-10-19T11:37:36.587Z</time>
      </trkpt>
      <trkpt lat="43.52451" lon="5.60559">
        <ele>515</ele>
        <time>2022-10-19T11:37:37.587Z</time>
      </trkpt>
      <trkpt lat="43.52451" lon="5.6056">
        <ele>515</ele>
        <time>2022-10-19T11:37:38.587Z</time>
      </trkpt>
      <trkpt lat="43.52451" lon="5.60562">
        <ele>516</ele>
        <time>2022-10-19T11:37:39.587Z</time>
      </trkpt>
      <trkpt lat="43.52452" lon="5.60563">
        <ele>516</ele>
        <time>2022-10-19T11:37:40.587Z</time>
      </trkpt>
      <trkpt lat="43.52452" lon="5.60565">
        <ele>516</ele>
        <time>2022-10-19T11:37:41.587Z</time>
      </trkpt>
      <trkpt lat="43.52452" lon="5.60566">
        <ele>516</ele>
        <time>2022-10-19T11:37:42.587Z</time>
      </trkpt>
      <trkpt lat="43.52453" lon="5.60567">
        <ele>517</ele>
        <time>2022-10-19T11:37:43.587Z</time>
      </trkpt>
      <trkpt lat="43.52453" lon="5.60569">
        <ele>517</ele>
        <time>2022-10-19T11:37:44.587Z</time>
      </trkpt>
      <trkpt lat="43.52454" lon="5.6057">
        <ele>517</ele>
        <time>2022-10-19T11:37:45.587Z</time>
      </trkpt>
      <trkpt lat="43.52454" lon="5.60571">
        <ele>517</ele>
        <time>2022-10-19T11:37:46.587Z</time>
      </trkpt>
      <trkpt lat="43.52455" lon="5.60573">
        <ele>518</ele>
        <time>2022-10-19T11:37:47.587Z</time>
      </trkpt>
      <trkpt lat="43.52455" lon="5.60574">
        <ele>518</ele>
        <time>2022-10-19T11:37:48.587Z</time>
      </trkpt>
      <trkpt lat="43.52456" lon="5.60576">
        <ele>518</ele>
        <time>2022-10-19T11:37:49.587Z</time>
      </trkpt>
      <trkpt lat="43.52456" lon="5.60577">
        <ele>518</ele>
        <time>2022-10-19T11:37:50.587Z</time>
      </trkpt>
      <trkpt lat="43.52456" lon="5.60578">
        <ele>518</ele>
        <time>2022-10-19T11:37:51.587Z</time>
      </trkpt>
      <trkpt lat="43.52457" lon="5.6058">
        <ele>518</ele>
        <time>2022-10-19T11:37:52.587Z</time>
      </trkpt>
      <trkpt lat="43.52457" lon="5.60581">
        <ele>519</ele>
        <time>2022-10-19T11:37:53.587Z</time>
      </trkpt>
      <trkpt lat="43.52457" lon="5.60582">
        <ele>519</ele>
        <time>2022-10-19T11:37:54.587Z</time>
      </trkpt>
      <trkpt lat="43.52457" lon="5.60584">
        <ele>519</ele>
        <time>2022-10-19T11:37:55.587Z</time>
      </trkpt>
      <trkpt lat="43.52457" lon="5.60585">
        <ele>519</ele>
        <time>2022-10-19T11:37:56.587Z</time>
      </trkpt>
      <trkpt lat="43.52458" lon="5.60587">
        <ele>519</ele>
        <time>2022-10-19T11:37:57.587Z</time>
      </trkpt>
      <trkpt lat="43.52458" lon="5.60588">
        <ele>520</ele>
        <time>2022-10-19T11:37:58.587Z</time>
      </trkpt>
      <trkpt lat="43.52458" lon="5.60589">
        <ele>520</ele>
        <time>2022-10-19T11:37:59.587Z</time>
      </trkpt>
      <trkpt lat="43.52458" lon="5.60591">
        <ele>520</ele>
        <time>2022-10-19T11:38:00.587Z</time>
      </trkpt>
      <trkpt lat="43.52459" lon="5.60592">
        <ele>520</ele>
        <time>2022-10-19T11:38:01.587Z</time>
      </trkpt>
      <trkpt lat="43.52459" lon="5.60594">
        <ele>520</ele>
        <time>2022-10-19T11:38:02.587Z</time>
      </trkpt>
      <trkpt lat="43.52459" lon="5.60595">
        <ele>520</ele>
        <time>2022-10-19T11:38:03.587Z</time>
      </trkpt>
      <trkpt lat="43.52459" lon="5.60597">
        <ele>520</ele>
        <time>2022-10-19T11:38:04.587Z</time>
      </trkpt>
      <trkpt lat="43.52459" lon="5.60598">
        <ele>520</ele>
        <time>2022-10-19T11:38:05.587Z</time>
      </trkpt>
      <trkpt lat="43.5246" lon="5.60599">
        <ele>521</ele>
        <time>2022-10-19T11:38:06.587Z</time>
      </trkpt>
      <trkpt lat="43.5246" lon="5.606">
        <ele>521</ele>
        <time>2022-10-19T11:38:07.587Z</time>
      </trkpt>
      <trkpt lat="43.5246" lon="5.60602">
        <ele>521</ele>
        <time>2022-10-19T11:38:08.587Z</time>
      </trkpt>
      <trkpt lat="43.5246" lon="5.60603">
        <ele>521</ele>
        <time>2022-10-19T11:38:09.587Z</time>
      </trkpt>
      <trkpt lat="43.52461" lon="5.60604">
        <ele>521</ele>
        <time>2022-10-19T11:38:10.587Z</time>
      </trkpt>
      <trkpt lat="43.52461" lon="5.60606">
        <ele>521</ele>
        <time>2022-10-19T11:38:11.587Z</time>
      </trkpt>
      <trkpt lat="43.52461" lon="5.60607">
        <ele>522</ele>
        <time>2022-10-19T11:38:12.587Z</time>
      </trkpt>
      <trkpt lat="43.52461" lon="5.60609">
        <ele>522</ele>
        <time>2022-10-19T11:38:13.587Z</time>
      </trkpt>
      <trkpt lat="43.52462" lon="5.6061">
        <ele>522</ele>
        <time>2022-10-19T11:38:14.587Z</time>
      </trkpt>
      <trkpt lat="43.52462" lon="5.60611">
        <ele>522</ele>
        <time>2022-10-19T11:38:15.587Z</time>
      </trkpt>
      <trkpt lat="43.52462" lon="5.60612">
        <ele>522</ele>
        <time>2022-10-19T11:38:16.587Z</time>
      </trkpt>
      <trkpt lat="43.52462" lon="5.60614">
        <ele>522</ele>
        <time>2022-10-19T11:38:17.587Z</time>
      </trkpt>
      <trkpt lat="43.52463" lon="5.60615">
        <ele>522</ele>
        <time>2022-10-19T11:38:18.587Z</time>
      </trkpt>
      <trkpt lat="43.52463" lon="5.60617">
        <ele>522</ele>
        <time>2022-10-19T11:38:19.587Z</time>
      </trkpt>
      <trkpt lat="43.52463" lon="5.60618">
        <ele>522</ele>
        <time>2022-10-19T11:38:20.587Z</time>
      </trkpt>
      <trkpt lat="43.52463" lon="5.60619">
        <ele>522</ele>
        <time>2022-10-19T11:38:21.587Z</time>
      </trkpt>
      <trkpt lat="43.52463" lon="5.60621">
        <ele>522</ele>
        <time>2022-10-19T11:38:22.587Z</time>
      </trkpt>
      <trkpt lat="43.52464" lon="5.60622">
        <ele>522</ele>
        <time>2022-10-19T11:38:23.587Z</time>
      </trkpt>
      <trkpt lat="43.52464" lon="5.60623">
        <ele>522</ele>
        <time>2022-10-19T11:38:24.587Z</time>
      </trkpt>
      <trkpt lat="43.52464" lon="5.60625">
        <ele>522</ele>
        <time>2022-10-19T11:38:25.587Z</time>
      </trkpt>
      <trkpt lat="43.52465" lon="5.60626">
        <ele>522</ele>
        <time>2022-10-19T11:38:26.587Z</time>
      </trkpt>
      <trkpt lat="43.52465" lon="5.60627">
        <ele>522</ele>
        <time>2022-10-19T11:38:27.587Z</time>
      </trkpt>
      <trkpt lat="43.52465" lon="5.60629">
        <ele>523</ele>
        <time>2022-10-19T11:38:28.587Z</time>
      </trkpt>
      <trkpt lat="43.52465" lon="5.6063">
        <ele>523</ele>
        <time>2022-10-19T11:38:29.587Z</time>
      </trkpt>
      <trkpt lat="43.52465" lon="5.60632">
        <ele>523</ele>
        <time>2022-10-19T11:38:30.587Z</time>
      </trkpt>
      <trkpt lat="43.52465" lon="5.60633">
        <ele>523</ele>
        <time>2022-10-19T11:38:31.587Z</time>
      </trkpt>
      <trkpt lat="43.52465" lon="5.60634">
        <ele>523</ele>
        <time>2022-10-19T11:38:32.587Z</time>
      </trkpt>
      <trkpt lat="43.52465" lon="5.60636">
        <ele>523</ele>
        <time>2022-10-19T11:38:33.587Z</time>
      </trkpt>
      <trkpt lat="43.52465" lon="5.60637">
        <ele>523</ele>
        <time>2022-10-19T11:38:34.587Z</time>
      </trkpt>
      <trkpt lat="43.52465" lon="5.60638">
        <ele>523</ele>
        <time>2022-10-19T11:38:35.587Z</time>
      </trkpt>
      <trkpt lat="43.52465" lon="5.6064">
        <ele>523</ele>
        <time>2022-10-19T11:38:36.587Z</time>
      </trkpt>
      <trkpt lat="43.52465" lon="5.60642">
        <ele>523</ele>
        <time>2022-10-19T11:38:37.587Z</time>
      </trkpt>
      <trkpt lat="43.52465" lon="5.60643">
        <ele>523</ele>
        <time>2022-10-19T11:38:38.587Z</time>
      </trkpt>
      <trkpt lat="43.52465" lon="5.60644">
        <ele>523</ele>
        <time>2022-10-19T11:38:39.587Z</time>
      </trkpt>
      <trkpt lat="43.52464" lon="5.60646">
        <ele>523</ele>
        <time>2022-10-19T11:38:40.587Z</time>
      </trkpt>
      <trkpt lat="43.52464" lon="5.60647">
        <ele>524</ele>
        <time>2022-10-19T11:38:41.587Z</time>
      </trkpt>
      <trkpt lat="43.52464" lon="5.60649">
        <ele>524</ele>
        <time>2022-10-19T11:38:42.587Z</time>
      </trkpt>
      <trkpt lat="43.52464" lon="5.6065">
        <ele>524</ele>
        <time>2022-10-19T11:38:43.587Z</time>
      </trkpt>
      <trkpt lat="43.52463" lon="5.60651">
        <ele>524</ele>
        <time>2022-10-19T11:38:44.587Z</time>
      </trkpt>
      <trkpt lat="43.52463" lon="5.60653">
        <ele>524</ele>
        <time>2022-10-19T11:38:45.587Z</time>
      </trkpt>
      <trkpt lat="43.52463" lon="5.60654">
        <ele>524</ele>
        <time>2022-10-19T11:38:46.587Z</time>
      </trkpt>
      <trkpt lat="43.52462" lon="5.60655">
        <ele>524</ele>
        <time>2022-10-19T11:38:47.587Z</time>
      </trkpt>
      <trkpt lat="43.52462" lon="5.60656">
        <ele>524</ele>
        <time>2022-10-19T11:38:48.587Z</time>
      </trkpt>
      <trkpt lat="43.52462" lon="5.60658">
        <ele>524</ele>
        <time>2022-10-19T11:38:49.587Z</time>
      </trkpt>
      <trkpt lat="43.52461" lon="5.60659">
        <ele>525</ele>
        <time>2022-10-19T11:38:50.587Z</time>
      </trkpt>
      <trkpt lat="43.52461" lon="5.60661">
        <ele>525</ele>
        <time>2022-10-19T11:38:51.587Z</time>
      </trkpt>
      <trkpt lat="43.52461" lon="5.60663">
        <ele>525</ele>
        <time>2022-10-19T11:38:52.587Z</time>
      </trkpt>
      <trkpt lat="43.5246" lon="5.60664">
        <ele>525</ele>
        <time>2022-10-19T11:38:53.587Z</time>
      </trkpt>
      <trkpt lat="43.5246" lon="5.60666">
        <ele>525</ele>
        <time>2022-10-19T11:38:54.587Z</time>
      </trkpt>
      <trkpt lat="43.5246" lon="5.60667">
        <ele>525</ele>
        <time>2022-10-19T11:38:55.587Z</time>
      </trkpt>
      <trkpt lat="43.5246" lon="5.60668">
        <ele>525</ele>
        <time>2022-10-19T11:38:56.587Z</time>
      </trkpt>
      <trkpt lat="43.5246" lon="5.6067">
        <ele>525</ele>
        <time>2022-10-19T11:38:57.587Z</time>
      </trkpt>
      <trkpt lat="43.52459" lon="5.60672">
        <ele>526</ele>
        <time>2022-10-19T11:38:58.587Z</time>
      </trkpt>
      <trkpt lat="43.52459" lon="5.60673">
        <ele>526</ele>
        <time>2022-10-19T11:38:59.587Z</time>
      </trkpt>
      <trkpt lat="43.52459" lon="5.60674">
        <ele>526</ele>
        <time>2022-10-19T11:39:00.587Z</time>
      </trkpt>
      <trkpt lat="43.52459" lon="5.60676">
        <ele>526</ele>
        <time>2022-10-19T11:39:01.587Z</time>
      </trkpt>
      <trkpt lat="43.52459" lon="5.60678">
        <ele>526</ele>
        <time>2022-10-19T11:39:02.587Z</time>
      </trkpt>
      <trkpt lat="43.52458" lon="5.60679">
        <ele>526</ele>
        <time>2022-10-19T11:39:03.587Z</time>
      </trkpt>
      <trkpt lat="43.52459" lon="5.60681">
        <ele>526</ele>
        <time>2022-10-19T11:39:04.587Z</time>
      </trkpt>
      <trkpt lat="43.52459" lon="5.60682">
        <ele>526</ele>
        <time>2022-10-19T11:39:05.587Z</time>
      </trkpt>
      <trkpt lat="43.52458" lon="5.60684">
        <ele>526</ele>
        <time>2022-10-19T11:39:06.587Z</time>
      </trkpt>
      <trkpt lat="43.52458" lon="5.60685">
        <ele>526</ele>
        <time>2022-10-19T11:39:07.587Z</time>
      </trkpt>
      <trkpt lat="43.52459" lon="5.60687">
        <ele>526</ele>
        <time>2022-10-19T11:39:08.587Z</time>
      </trkpt>
      <trkpt lat="43.52459" lon="5.60688">
        <ele>526</ele>
        <time>2022-10-19T11:39:09.587Z</time>
      </trkpt>
      <trkpt lat="43.52459" lon="5.6069">
        <ele>526</ele>
        <time>2022-10-19T11:39:10.587Z</time>
      </trkpt>
      <trkpt lat="43.52459" lon="5.60691">
        <ele>526</ele>
        <time>2022-10-19T11:39:11.587Z</time>
      </trkpt>
      <trkpt lat="43.52459" lon="5.60692">
        <ele>526</ele>
        <time>2022-10-19T11:39:12.587Z</time>
      </trkpt>
      <trkpt lat="43.5246" lon="5.60694">
        <ele>526</ele>
        <time>2022-10-19T11:39:13.587Z</time>
      </trkpt>
      <trkpt lat="43.5246" lon="5.60695">
        <ele>526</ele>
        <time>2022-10-19T11:39:14.587Z</time>
      </trkpt>
      <trkpt lat="43.5246" lon="5.60697">
        <ele>526</ele>
        <time>2022-10-19T11:39:15.587Z</time>
      </trkpt>
      <trkpt lat="43.5246" lon="5.60698">
        <ele>526</ele>
        <time>2022-10-19T11:39:16.587Z</time>
      </trkpt>
      <trkpt lat="43.5246" lon="5.60699">
        <ele>526</ele>
        <time>2022-10-19T11:39:17.587Z</time>
      </trkpt>
      <trkpt lat="43.5246" lon="5.60701">
        <ele>526</ele>
        <time>2022-10-19T11:39:18.587Z</time>
      </trkpt>
      <trkpt lat="43.5246" lon="5.60702">
        <ele>527</ele>
        <time>2022-10-19T11:39:19.587Z</time>
      </trkpt>
      <trkpt lat="43.5246" lon="5.60704">
        <ele>527</ele>
        <time>2022-10-19T11:39:20.587Z</time>
      </trkpt>
      <trkpt lat="43.52461" lon="5.60705">
        <ele>527</ele>
        <time>2022-10-19T11:39:21.587Z</time>
      </trkpt>
      <trkpt lat="43.52461" lon="5.60706">
        <ele>527</ele>
        <time>2022-10-19T11:39:22.587Z</time>
      </trkpt>
      <trkpt lat="43.52461" lon="5.60707">
        <ele>527</ele>
        <time>2022-10-19T11:39:23.587Z</time>
      </trkpt>
      <trkpt lat="43.52461" lon="5.60709">
        <ele>527</ele>
        <time>2022-10-19T11:39:24.587Z</time>
      </trkpt>
      <trkpt lat="43.52461" lon="5.6071">
        <ele>527</ele>
        <time>2022-10-19T11:39:25.587Z</time>
      </trkpt>
      <trkpt lat="43.52462" lon="5.60711">
        <ele>527</ele>
        <time>2022-10-19T11:39:26.587Z</time>
      </trkpt>
      <trkpt lat="43.52462" lon="5.60712">
        <ele>527</ele>
        <time>2022-10-19T11:39:27.587Z</time>
      </trkpt>
      <trkpt lat="43.52462" lon="5.60714">
        <ele>527</ele>
        <time>2022-10-19T11:39:28.587Z</time>
      </trkpt>
      <trkpt lat="43.52463" lon="5.60715">
        <ele>527</ele>
        <time>2022-10-19T11:39:29.587Z</time>
      </trkpt>
      <trkpt lat="43.52463" lon="5.60717">
        <ele>527</ele>
        <time>2022-10-19T11:39:30.587Z</time>
      </trkpt>
      <trkpt lat="43.52463" lon="5.60718">
        <ele>527</ele>
        <time>2022-10-19T11:39:31.587Z</time>
      </trkpt>
      <trkpt lat="43.52463" lon="5.6072">
        <ele>527</ele>
        <time>2022-10-19T11:39:32.587Z</time>
      </trkpt>
      <trkpt lat="43.52464" lon="5.60721">
        <ele>527</ele>
        <time>2022-10-19T11:39:33.587Z</time>
      </trkpt>
      <trkpt lat="43.52464" lon="5.60722">
        <ele>527</ele>
        <time>2022-10-19T11:39:34.587Z</time>
      </trkpt>
      <trkpt lat="43.52464" lon="5.60724">
        <ele>527</ele>
        <time>2022-10-19T11:39:35.587Z</time>
      </trkpt>
      <trkpt lat="43.52464" lon="5.60725">
        <ele>527</ele>
        <time>2022-10-19T11:39:36.587Z</time>
      </trkpt>
      <trkpt lat="43.52464" lon="5.60726">
        <ele>528</ele>
        <time>2022-10-19T11:39:37.587Z</time>
      </trkpt>
      <trkpt lat="43.52465" lon="5.60728">
        <ele>528</ele>
        <time>2022-10-19T11:39:38.587Z</time>
      </trkpt>
      <trkpt lat="43.52465" lon="5.60729">
        <ele>528</ele>
        <time>2022-10-19T11:39:39.587Z</time>
      </trkpt>
      <trkpt lat="43.52465" lon="5.6073">
        <ele>528</ele>
        <time>2022-10-19T11:39:40.587Z</time>
      </trkpt>
      <trkpt lat="43.52465" lon="5.60732">
        <ele>528</ele>
        <time>2022-10-19T11:39:41.587Z</time>
      </trkpt>
      <trkpt lat="43.52465" lon="5.60732">
        <ele>528</ele>
        <time>2022-10-19T11:39:42.587Z</time>
      </trkpt>
      <trkpt lat="43.52465" lon="5.60732">
        <ele>528</ele>
        <time>2022-10-19T11:39:43.587Z</time>
      </trkpt>
      <trkpt lat="43.52465" lon="5.60734">
        <ele>528</ele>
        <time>2022-10-19T11:39:44.587Z</time>
      </trkpt>
      <trkpt lat="43.52466" lon="5.60735">
        <ele>528</ele>
        <time>2022-10-19T11:39:45.587Z</time>
      </trkpt>
      <trkpt lat="43.52466" lon="5.60735">
        <ele>529</ele>
        <time>2022-10-19T11:39:46.587Z</time>
      </trkpt>
      <trkpt lat="43.52466" lon="5.60736">
        <ele>529</ele>
        <time>2022-10-19T11:39:47.587Z</time>
      </trkpt>
      <trkpt lat="43.52466" lon="5.60736">
        <ele>529</ele>
        <time>2022-10-19T11:39:48.587Z</time>
      </trkpt>
      <trkpt lat="43.52466" lon="5.60736">
        <ele>529</ele>
        <time>2022-10-19T11:39:49.587Z</time>
      </trkpt>
      <trkpt lat="43.52467" lon="5.60736">
        <ele>529</ele>
        <time>2022-10-19T11:39:50.587Z</time>
      </trkpt>
      <trkpt lat="43.52467" lon="5.60736">
        <ele>529</ele>
        <time>2022-10-19T11:39:51.587Z</time>
      </trkpt>
      <trkpt lat="43.52467" lon="5.60736">
        <ele>529</ele>
        <time>2022-10-19T11:39:52.587Z</time>
      </trkpt>
      <trkpt lat="43.52467" lon="5.60736">
        <ele>529</ele>
        <time>2022-10-19T11:39:53.587Z</time>
      </trkpt>
      <trkpt lat="43.52467" lon="5.60736">
        <ele>529</ele>
        <time>2022-10-19T11:39:54.587Z</time>
      </trkpt>
      <trkpt lat="43.52467" lon="5.60736">
        <ele>529</ele>
        <time>2022-10-19T11:39:55.587Z</time>
      </trkpt>
      <trkpt lat="43.52467" lon="5.60736">
        <ele>529</ele>
        <time>2022-10-19T11:39:56.587Z</time>
      </trkpt>
      <trkpt lat="43.52467" lon="5.60736">
        <ele>529</ele>
        <time>2022-10-19T11:39:57.587Z</time>
      </trkpt>
      <trkpt lat="43.52467" lon="5.60736">
        <ele>529</ele>
        <time>2022-10-19T11:39:58.587Z</time>
      </trkpt>
      <trkpt lat="43.52467" lon="5.60736">
        <ele>529</ele>
        <time>2022-10-19T11:39:59.587Z</time>
      </trkpt>
      <trkpt lat="43.52467" lon="5.60737">
        <ele>529</ele>
        <time>2022-10-19T11:40:00.587Z</time>
      </trkpt>
      <trkpt lat="43.52468" lon="5.60738">
        <ele>529</ele>
        <time>2022-10-19T11:40:01.587Z</time>
      </trkpt>
      <trkpt lat="43.52468" lon="5.60739">
        <ele>529</ele>
        <time>2022-10-19T11:40:02.587Z</time>
      </trkpt>
      <trkpt lat="43.52468" lon="5.6074">
        <ele>529</ele>
        <time>2022-10-19T11:40:03.587Z</time>
      </trkpt>
      <trkpt lat="43.52468" lon="5.60741">
        <ele>529</ele>
        <time>2022-10-19T11:40:04.587Z</time>
      </trkpt>
      <trkpt lat="43.52468" lon="5.60743">
        <ele>529</ele>
        <time>2022-10-19T11:40:05.587Z</time>
      </trkpt>
      <trkpt lat="43.52468" lon="5.60744">
        <ele>529</ele>
        <time>2022-10-19T11:40:06.587Z</time>
      </trkpt>
      <trkpt lat="43.52468" lon="5.60745">
        <ele>529</ele>
        <time>2022-10-19T11:40:07.587Z</time>
      </trkpt>
      <trkpt lat="43.52468" lon="5.60746">
        <ele>530</ele>
        <time>2022-10-19T11:40:08.587Z</time>
      </trkpt>
      <trkpt lat="43.52468" lon="5.60748">
        <ele>530</ele>
        <time>2022-10-19T11:40:09.587Z</time>
      </trkpt>
      <trkpt lat="43.52468" lon="5.60749">
        <ele>530</ele>
        <time>2022-10-19T11:40:10.587Z</time>
      </trkpt>
      <trkpt lat="43.52469" lon="5.6075">
        <ele>530</ele>
        <time>2022-10-19T11:40:11.587Z</time>
      </trkpt>
      <trkpt lat="43.52469" lon="5.60752">
        <ele>530</ele>
        <time>2022-10-19T11:40:12.587Z</time>
      </trkpt>
      <trkpt lat="43.52469" lon="5.60753">
        <ele>530</ele>
        <time>2022-10-19T11:40:13.587Z</time>
      </trkpt>
      <trkpt lat="43.52469" lon="5.60754">
        <ele>530</ele>
        <time>2022-10-19T11:40:14.587Z</time>
      </trkpt>
      <trkpt lat="43.52469" lon="5.60756">
        <ele>530</ele>
        <time>2022-10-19T11:40:15.587Z</time>
      </trkpt>
      <trkpt lat="43.52469" lon="5.60757">
        <ele>531</ele>
        <time>2022-10-19T11:40:16.587Z</time>
      </trkpt>
      <trkpt lat="43.52468" lon="5.60758">
        <ele>531</ele>
        <time>2022-10-19T11:40:17.587Z</time>
      </trkpt>
      <trkpt lat="43.52468" lon="5.6076">
        <ele>531</ele>
        <time>2022-10-19T11:40:18.587Z</time>
      </trkpt>
      <trkpt lat="43.52468" lon="5.60761">
        <ele>531</ele>
        <time>2022-10-19T11:40:19.587Z</time>
      </trkpt>
      <trkpt lat="43.52468" lon="5.60763">
        <ele>531</ele>
        <time>2022-10-19T11:40:20.587Z</time>
      </trkpt>
      <trkpt lat="43.52469" lon="5.60764">
        <ele>531</ele>
        <time>2022-10-19T11:40:21.587Z</time>
      </trkpt>
      <trkpt lat="43.52469" lon="5.60765">
        <ele>531</ele>
        <time>2022-10-19T11:40:22.587Z</time>
      </trkpt>
      <trkpt lat="43.52468" lon="5.60767">
        <ele>532</ele>
        <time>2022-10-19T11:40:23.587Z</time>
      </trkpt>
      <trkpt lat="43.52468" lon="5.60768">
        <ele>532</ele>
        <time>2022-10-19T11:40:24.587Z</time>
      </trkpt>
      <trkpt lat="43.52468" lon="5.60769">
        <ele>532</ele>
        <time>2022-10-19T11:40:25.587Z</time>
      </trkpt>
      <trkpt lat="43.52468" lon="5.6077">
        <ele>532</ele>
        <time>2022-10-19T11:40:26.587Z</time>
      </trkpt>
      <trkpt lat="43.52468" lon="5.60772">
        <ele>532</ele>
        <time>2022-10-19T11:40:27.587Z</time>
      </trkpt>
      <trkpt lat="43.52468" lon="5.60773">
        <ele>532</ele>
        <time>2022-10-19T11:40:28.587Z</time>
      </trkpt>
      <trkpt lat="43.52468" lon="5.60775">
        <ele>532</ele>
        <time>2022-10-19T11:40:29.587Z</time>
      </trkpt>
      <trkpt lat="43.52468" lon="5.60776">
        <ele>532</ele>
        <time>2022-10-19T11:40:30.587Z</time>
      </trkpt>
      <trkpt lat="43.52468" lon="5.60777">
        <ele>532</ele>
        <time>2022-10-19T11:40:31.587Z</time>
      </trkpt>
      <trkpt lat="43.52468" lon="5.60778">
        <ele>533</ele>
        <time>2022-10-19T11:40:32.587Z</time>
      </trkpt>
      <trkpt lat="43.52468" lon="5.60779">
        <ele>533</ele>
        <time>2022-10-19T11:40:33.587Z</time>
      </trkpt>
      <trkpt lat="43.52468" lon="5.6078">
        <ele>533</ele>
        <time>2022-10-19T11:40:34.587Z</time>
      </trkpt>
      <trkpt lat="43.52468" lon="5.60781">
        <ele>533</ele>
        <time>2022-10-19T11:40:35.587Z</time>
      </trkpt>
      <trkpt lat="43.52468" lon="5.60782">
        <ele>533</ele>
        <time>2022-10-19T11:40:36.587Z</time>
      </trkpt>
      <trkpt lat="43.52467" lon="5.60782">
        <ele>533</ele>
        <time>2022-10-19T11:40:37.587Z</time>
      </trkpt>
      <trkpt lat="43.52467" lon="5.60782">
        <ele>533</ele>
        <time>2022-10-19T11:40:38.587Z</time>
      </trkpt>
      <trkpt lat="43.52467" lon="5.60782">
        <ele>534</ele>
        <time>2022-10-19T11:40:39.587Z</time>
      </trkpt>
      <trkpt lat="43.52467" lon="5.60782">
        <ele>534</ele>
        <time>2022-10-19T11:40:40.587Z</time>
      </trkpt>
      <trkpt lat="43.52467" lon="5.60782">
        <ele>534</ele>
        <time>2022-10-19T11:40:41.587Z</time>
      </trkpt>
      <trkpt lat="43.52467" lon="5.60782">
        <ele>534</ele>
        <time>2022-10-19T11:40:42.587Z</time>
      </trkpt>
      <trkpt lat="43.52467" lon="5.60782">
        <ele>534</ele>
        <time>2022-10-19T11:40:43.587Z</time>
      </trkpt>
      <trkpt lat="43.52467" lon="5.60782">
        <ele>534</ele>
        <time>2022-10-19T11:40:44.587Z</time>
      </trkpt>
      <trkpt lat="43.52467" lon="5.60782">
        <ele>534</ele>
        <time>2022-10-19T11:40:45.587Z</time>
      </trkpt>
      <trkpt lat="43.52467" lon="5.60782">
        <ele>534</ele>
        <time>2022-10-19T11:40:46.587Z</time>
      </trkpt>
      <trkpt lat="43.52467" lon="5.60782">
        <ele>534</ele>
        <time>2022-10-19T11:40:47.587Z</time>
      </trkpt>
      <trkpt lat="43.52467" lon="5.60782">
        <ele>534</ele>
        <time>2022-10-19T11:40:48.587Z</time>
      </trkpt>
      <trkpt lat="43.52467" lon="5.60782">
        <ele>534</ele>
        <time>2022-10-19T11:40:49.587Z</time>
      </trkpt>
      <trkpt lat="43.52467" lon="5.60782">
        <ele>534</ele>
        <time>2022-10-19T11:40:50.587Z</time>
      </trkpt>
      <trkpt lat="43.52467" lon="5.60782">
        <ele>534</ele>
        <time>2022-10-19T11:40:51.587Z</time>
      </trkpt>
      <trkpt lat="43.52467" lon="5.60782">
        <ele>534</ele>
        <time>2022-10-19T11:40:52.587Z</time>
      </trkpt>
      <trkpt lat="43.52467" lon="5.60782">
        <ele>534</ele>
        <time>2022-10-19T11:40:53.587Z</time>
      </trkpt>
      <trkpt lat="43.52467" lon="5.60782">
        <ele>534</ele>
        <time>2022-10-19T11:40:54.587Z</time>
      </trkpt>
      <trkpt lat="43.52467" lon="5.60782">
        <ele>534</ele>
        <time>2022-10-19T11:40:55.587Z</time>
      </trkpt>
      <trkpt lat="43.52467" lon="5.60782">
        <ele>534</ele>
        <time>2022-10-19T11:40:56.587Z</time>
      </trkpt>
      <trkpt lat="43.52467" lon="5.60782">
        <ele>534</ele>
        <time>2022-10-19T11:40:57.587Z</time>
      </trkpt>
      <trkpt lat="43.52467" lon="5.60782">
        <ele>534</ele>
        <time>2022-10-19T11:40:58.587Z</time>
      </trkpt>
      <trkpt lat="43.52467" lon="5.60782">
        <ele>534</ele>
        <time>2022-10-19T11:40:59.587Z</time>
      </trkpt>
      <trkpt lat="43.52467" lon="5.60782">
        <ele>534</ele>
        <time>2022-10-19T11:41:00.587Z</time>
      </trkpt>
      <trkpt lat="43.52467" lon="5.60782">
        <ele>534</ele>
        <time>2022-10-19T11:41:01.587Z</time>
      </trkpt>
      <trkpt lat="43.52467" lon="5.60782">
        <ele>535</ele>
        <time>2022-10-19T11:41:02.587Z</time>
      </trkpt>
      <trkpt lat="43.52467" lon="5.60782">
        <ele>535</ele>
        <time>2022-10-19T11:41:03.587Z</time>
      </trkpt>
      <trkpt lat="43.52467" lon="5.60782">
        <ele>535</ele>
        <time>2022-10-19T11:41:04.587Z</time>
      </trkpt>
      <trkpt lat="43.52467" lon="5.60782">
        <ele>535</ele>
        <time>2022-10-19T11:41:05.587Z</time>
      </trkpt>
      <trkpt lat="43.52467" lon="5.60782">
        <ele>535</ele>
        <time>2022-10-19T11:41:06.587Z</time>
      </trkpt>
      <trkpt lat="43.52467" lon="5.60782">
        <ele>535</ele>
        <time>2022-10-19T11:41:07.587Z</time>
      </trkpt>
      <trkpt lat="43.52467" lon="5.60782">
        <ele>535</ele>
        <time>2022-10-19T11:41:08.587Z</time>
      </trkpt>
      <trkpt lat="43.52467" lon="5.60782">
        <ele>535</ele>
        <time>2022-10-19T11:41:09.587Z</time>
      </trkpt>
      <trkpt lat="43.52467" lon="5.60782">
        <ele>535</ele>
        <time>2022-10-19T11:41:10.587Z</time>
      </trkpt>
      <trkpt lat="43.52467" lon="5.60782">
        <ele>535</ele>
        <time>2022-10-19T11:41:11.587Z</time>
      </trkpt>
      <trkpt lat="43.52467" lon="5.60782">
        <ele>535</ele>
        <time>2022-10-19T11:41:12.587Z</time>
      </trkpt>
      <trkpt lat="43.52467" lon="5.60782">
        <ele>535</ele>
        <time>2022-10-19T11:41:13.587Z</time>
      </trkpt>
      <trkpt lat="43.52467" lon="5.60782">
        <ele>535</ele>
        <time>2022-10-19T11:41:14.587Z</time>
      </trkpt>
      <trkpt lat="43.52467" lon="5.60782">
        <ele>535</ele>
        <time>2022-10-19T11:41:15.587Z</time>
      </trkpt>
      <trkpt lat="43.52467" lon="5.60782">
        <ele>535</ele>
        <time>2022-10-19T11:41:16.587Z</time>
      </trkpt>
      <trkpt lat="43.52467" lon="5.60782">
        <ele>535</ele>
        <time>2022-10-19T11:41:17.587Z</time>
      </trkpt>
      <trkpt lat="43.52467" lon="5.60782">
        <ele>535</ele>
        <time>2022-10-19T11:41:18.587Z</time>
      </trkpt>
      <trkpt lat="43.52468" lon="5.60783">
        <ele>535</ele>
        <time>2022-10-19T11:41:19.587Z</time>
      </trkpt>
      <trkpt lat="43.52468" lon="5.60783">
        <ele>535</ele>
        <time>2022-10-19T11:41:20.587Z</time>
      </trkpt>
      <trkpt lat="43.52468" lon="5.60784">
        <ele>535</ele>
        <time>2022-10-19T11:41:21.587Z</time>
      </trkpt>
      <trkpt lat="43.52468" lon="5.60786">
        <ele>535</ele>
        <time>2022-10-19T11:41:22.587Z</time>
      </trkpt>
      <trkpt lat="43.52468" lon="5.60787">
        <ele>535</ele>
        <time>2022-10-19T11:41:23.587Z</time>
      </trkpt>
      <trkpt lat="43.52468" lon="5.60788">
        <ele>536</ele>
        <time>2022-10-19T11:41:24.587Z</time>
      </trkpt>
      <trkpt lat="43.52468" lon="5.60789">
        <ele>536</ele>
        <time>2022-10-19T11:41:25.587Z</time>
      </trkpt>
      <trkpt lat="43.52468" lon="5.6079">
        <ele>536</ele>
        <time>2022-10-19T11:41:26.587Z</time>
      </trkpt>
      <trkpt lat="43.52468" lon="5.60791">
        <ele>536</ele>
        <time>2022-10-19T11:41:27.587Z</time>
      </trkpt>
      <trkpt lat="43.52468" lon="5.60792">
        <ele>536</ele>
        <time>2022-10-19T11:41:28.587Z</time>
      </trkpt>
      <trkpt lat="43.52469" lon="5.60793">
        <ele>536</ele>
        <time>2022-10-19T11:41:29.587Z</time>
      </trkpt>
      <trkpt lat="43.52469" lon="5.60795">
        <ele>536</ele>
        <time>2022-10-19T11:41:30.587Z</time>
      </trkpt>
      <trkpt lat="43.52469" lon="5.60796">
        <ele>536</ele>
        <time>2022-10-19T11:41:31.587Z</time>
      </trkpt>
      <trkpt lat="43.52469" lon="5.60797">
        <ele>536</ele>
        <time>2022-10-19T11:41:32.587Z</time>
      </trkpt>
      <trkpt lat="43.52469" lon="5.60798">
        <ele>536</ele>
        <time>2022-10-19T11:41:33.587Z</time>
      </trkpt>
      <trkpt lat="43.52469" lon="5.60799">
        <ele>536</ele>
        <time>2022-10-19T11:41:34.587Z</time>
      </trkpt>
      <trkpt lat="43.52469" lon="5.608">
        <ele>536</ele>
        <time>2022-10-19T11:41:35.587Z</time>
      </trkpt>
      <trkpt lat="43.52469" lon="5.60801">
        <ele>536</ele>
        <time>2022-10-19T11:41:36.587Z</time>
      </trkpt>
      <trkpt lat="43.52469" lon="5.60802">
        <ele>536</ele>
        <time>2022-10-19T11:41:37.587Z</time>
      </trkpt>
      <trkpt lat="43.52469" lon="5.60803">
        <ele>536</ele>
        <time>2022-10-19T11:41:38.587Z</time>
      </trkpt>
      <trkpt lat="43.52468" lon="5.60804">
        <ele>536</ele>
        <time>2022-10-19T11:41:39.587Z</time>
      </trkpt>
      <trkpt lat="43.52468" lon="5.60806">
        <ele>537</ele>
        <time>2022-10-19T11:41:40.587Z</time>
      </trkpt>
      <trkpt lat="43.52468" lon="5.60807">
        <ele>537</ele>
        <time>2022-10-19T11:41:41.587Z</time>
      </trkpt>
      <trkpt lat="43.52468" lon="5.60808">
        <ele>537</ele>
        <time>2022-10-19T11:41:42.587Z</time>
      </trkpt>
      <trkpt lat="43.52467" lon="5.60809">
        <ele>537</ele>
        <time>2022-10-19T11:41:43.587Z</time>
      </trkpt>
      <trkpt lat="43.52467" lon="5.60811">
        <ele>537</ele>
        <time>2022-10-19T11:41:44.587Z</time>
      </trkpt>
      <trkpt lat="43.52466" lon="5.60812">
        <ele>537</ele>
        <time>2022-10-19T11:41:45.587Z</time>
      </trkpt>
      <trkpt lat="43.52466" lon="5.60813">
        <ele>537</ele>
        <time>2022-10-19T11:41:46.587Z</time>
      </trkpt>
      <trkpt lat="43.52465" lon="5.60815">
        <ele>537</ele>
        <time>2022-10-19T11:41:47.587Z</time>
      </trkpt>
      <trkpt lat="43.52465" lon="5.60816">
        <ele>537</ele>
        <time>2022-10-19T11:41:48.587Z</time>
      </trkpt>
      <trkpt lat="43.52464" lon="5.60817">
        <ele>537</ele>
        <time>2022-10-19T11:41:49.587Z</time>
      </trkpt>
      <trkpt lat="43.52464" lon="5.60818">
        <ele>537</ele>
        <time>2022-10-19T11:41:50.587Z</time>
      </trkpt>
      <trkpt lat="43.52463" lon="5.60819">
        <ele>538</ele>
        <time>2022-10-19T11:41:51.587Z</time>
      </trkpt>
      <trkpt lat="43.52463" lon="5.6082">
        <ele>538</ele>
        <time>2022-10-19T11:41:52.587Z</time>
      </trkpt>
      <trkpt lat="43.52462" lon="5.60821">
        <ele>538</ele>
        <time>2022-10-19T11:41:53.587Z</time>
      </trkpt>
      <trkpt lat="43.52461" lon="5.60822">
        <ele>538</ele>
        <time>2022-10-19T11:41:54.587Z</time>
      </trkpt>
      <trkpt lat="43.5246" lon="5.60823">
        <ele>538</ele>
        <time>2022-10-19T11:41:55.587Z</time>
      </trkpt>
      <trkpt lat="43.52459" lon="5.60824">
        <ele>538</ele>
        <time>2022-10-19T11:41:56.587Z</time>
      </trkpt>
      <trkpt lat="43.52459" lon="5.60825">
        <ele>538</ele>
        <time>2022-10-19T11:41:57.587Z</time>
      </trkpt>
      <trkpt lat="43.52458" lon="5.60825">
        <ele>538</ele>
        <time>2022-10-19T11:41:58.587Z</time>
      </trkpt>
      <trkpt lat="43.52457" lon="5.60826">
        <ele>539</ele>
        <time>2022-10-19T11:41:59.587Z</time>
      </trkpt>
      <trkpt lat="43.52457" lon="5.60827">
        <ele>539</ele>
        <time>2022-10-19T11:42:00.587Z</time>
      </trkpt>
      <trkpt lat="43.52456" lon="5.60828">
        <ele>539</ele>
        <time>2022-10-19T11:42:01.587Z</time>
      </trkpt>
      <trkpt lat="43.52455" lon="5.60828">
        <ele>539</ele>
        <time>2022-10-19T11:42:02.587Z</time>
      </trkpt>
      <trkpt lat="43.52454" lon="5.60829">
        <ele>539</ele>
        <time>2022-10-19T11:42:03.587Z</time>
      </trkpt>
      <trkpt lat="43.52453" lon="5.60829">
        <ele>539</ele>
        <time>2022-10-19T11:42:04.587Z</time>
      </trkpt>
      <trkpt lat="43.52453" lon="5.6083">
        <ele>539</ele>
        <time>2022-10-19T11:42:05.587Z</time>
      </trkpt>
      <trkpt lat="43.52452" lon="5.6083">
        <ele>539</ele>
        <time>2022-10-19T11:42:06.587Z</time>
      </trkpt>
      <trkpt lat="43.52451" lon="5.60831">
        <ele>539</ele>
        <time>2022-10-19T11:42:07.587Z</time>
      </trkpt>
      <trkpt lat="43.5245" lon="5.60831">
        <ele>539</ele>
        <time>2022-10-19T11:42:08.587Z</time>
      </trkpt>
      <trkpt lat="43.52449" lon="5.60831">
        <ele>539</ele>
        <time>2022-10-19T11:42:09.587Z</time>
      </trkpt>
      <trkpt lat="43.52448" lon="5.60831">
        <ele>539</ele>
        <time>2022-10-19T11:42:10.587Z</time>
      </trkpt>
      <trkpt lat="43.52447" lon="5.60831">
        <ele>539</ele>
        <time>2022-10-19T11:42:11.587Z</time>
      </trkpt>
      <trkpt lat="43.52446" lon="5.60831">
        <ele>539</ele>
        <time>2022-10-19T11:42:12.587Z</time>
      </trkpt>
      <trkpt lat="43.52445" lon="5.60831">
        <ele>540</ele>
        <time>2022-10-19T11:42:13.587Z</time>
      </trkpt>
      <trkpt lat="43.52444" lon="5.60831">
        <ele>540</ele>
        <time>2022-10-19T11:42:14.587Z</time>
      </trkpt>
      <trkpt lat="43.52444" lon="5.60832">
        <ele>540</ele>
        <time>2022-10-19T11:42:15.587Z</time>
      </trkpt>
      <trkpt lat="43.52443" lon="5.60832">
        <ele>540</ele>
        <time>2022-10-19T11:42:16.587Z</time>
      </trkpt>
      <trkpt lat="43.52442" lon="5.60832">
        <ele>540</ele>
        <time>2022-10-19T11:42:17.587Z</time>
      </trkpt>
      <trkpt lat="43.52441" lon="5.60832">
        <ele>540</ele>
        <time>2022-10-19T11:42:18.587Z</time>
      </trkpt>
      <trkpt lat="43.5244" lon="5.60832">
        <ele>540</ele>
        <time>2022-10-19T11:42:19.587Z</time>
      </trkpt>
      <trkpt lat="43.52439" lon="5.60831">
        <ele>540</ele>
        <time>2022-10-19T11:42:20.587Z</time>
      </trkpt>
      <trkpt lat="43.52438" lon="5.60831">
        <ele>540</ele>
        <time>2022-10-19T11:42:21.587Z</time>
      </trkpt>
      <trkpt lat="43.52437" lon="5.60831">
        <ele>540</ele>
        <time>2022-10-19T11:42:22.587Z</time>
      </trkpt>
      <trkpt lat="43.52436" lon="5.60831">
        <ele>540</ele>
        <time>2022-10-19T11:42:23.587Z</time>
      </trkpt>
      <trkpt lat="43.52435" lon="5.60831">
        <ele>541</ele>
        <time>2022-10-19T11:42:24.587Z</time>
      </trkpt>
      <trkpt lat="43.52434" lon="5.60831">
        <ele>541</ele>
        <time>2022-10-19T11:42:25.587Z</time>
      </trkpt>
      <trkpt lat="43.52432" lon="5.60831">
        <ele>541</ele>
        <time>2022-10-19T11:42:26.587Z</time>
      </trkpt>
      <trkpt lat="43.52431" lon="5.60831">
        <ele>541</ele>
        <time>2022-10-19T11:42:27.587Z</time>
      </trkpt>
      <trkpt lat="43.5243" lon="5.6083">
        <ele>541</ele>
        <time>2022-10-19T11:42:28.587Z</time>
      </trkpt>
      <trkpt lat="43.52429" lon="5.6083">
        <ele>541</ele>
        <time>2022-10-19T11:42:29.587Z</time>
      </trkpt>
      <trkpt lat="43.52428" lon="5.6083">
        <ele>542</ele>
        <time>2022-10-19T11:42:30.587Z</time>
      </trkpt>
      <trkpt lat="43.52427" lon="5.6083">
        <ele>542</ele>
        <time>2022-10-19T11:42:31.587Z</time>
      </trkpt>
      <trkpt lat="43.52426" lon="5.6083">
        <ele>542</ele>
        <time>2022-10-19T11:42:32.587Z</time>
      </trkpt>
      <trkpt lat="43.52425" lon="5.6083">
        <ele>542</ele>
        <time>2022-10-19T11:42:33.587Z</time>
      </trkpt>
      <trkpt lat="43.52425" lon="5.60829">
        <ele>542</ele>
        <time>2022-10-19T11:42:34.587Z</time>
      </trkpt>
      <trkpt lat="43.52423" lon="5.60829">
        <ele>542</ele>
        <time>2022-10-19T11:42:35.587Z</time>
      </trkpt>
      <trkpt lat="43.52422" lon="5.60829">
        <ele>542</ele>
        <time>2022-10-19T11:42:36.587Z</time>
      </trkpt>
      <trkpt lat="43.52422" lon="5.6083">
        <ele>542</ele>
        <time>2022-10-19T11:42:37.587Z</time>
      </trkpt>
      <trkpt lat="43.5242" lon="5.6083">
        <ele>542</ele>
        <time>2022-10-19T11:42:38.587Z</time>
      </trkpt>
      <trkpt lat="43.52419" lon="5.6083">
        <ele>542</ele>
        <time>2022-10-19T11:42:39.587Z</time>
      </trkpt>
      <trkpt lat="43.52418" lon="5.6083">
        <ele>542</ele>
        <time>2022-10-19T11:42:40.587Z</time>
      </trkpt>
      <trkpt lat="43.52417" lon="5.60831">
        <ele>542</ele>
        <time>2022-10-19T11:42:41.587Z</time>
      </trkpt>
      <trkpt lat="43.52416" lon="5.60831">
        <ele>542</ele>
        <time>2022-10-19T11:42:42.587Z</time>
      </trkpt>
      <trkpt lat="43.52415" lon="5.60832">
        <ele>543</ele>
        <time>2022-10-19T11:42:43.587Z</time>
      </trkpt>
      <trkpt lat="43.52414" lon="5.60832">
        <ele>543</ele>
        <time>2022-10-19T11:42:44.587Z</time>
      </trkpt>
      <trkpt lat="43.52413" lon="5.60833">
        <ele>543</ele>
        <time>2022-10-19T11:42:45.587Z</time>
      </trkpt>
      <trkpt lat="43.52412" lon="5.60833">
        <ele>543</ele>
        <time>2022-10-19T11:42:46.587Z</time>
      </trkpt>
      <trkpt lat="43.52411" lon="5.60834">
        <ele>543</ele>
        <time>2022-10-19T11:42:47.587Z</time>
      </trkpt>
      <trkpt lat="43.52409" lon="5.60834">
        <ele>543</ele>
        <time>2022-10-19T11:42:48.587Z</time>
      </trkpt>
      <trkpt lat="43.52408" lon="5.60835">
        <ele>543</ele>
        <time>2022-10-19T11:42:49.587Z</time>
      </trkpt>
      <trkpt lat="43.52407" lon="5.60836">
        <ele>543</ele>
        <time>2022-10-19T11:42:50.587Z</time>
      </trkpt>
      <trkpt lat="43.52407" lon="5.60837">
        <ele>543</ele>
        <time>2022-10-19T11:42:51.587Z</time>
      </trkpt>
      <trkpt lat="43.52406" lon="5.60838">
        <ele>543</ele>
        <time>2022-10-19T11:42:52.587Z</time>
      </trkpt>
      <trkpt lat="43.52405" lon="5.60839">
        <ele>543</ele>
        <time>2022-10-19T11:42:53.587Z</time>
      </trkpt>
      <trkpt lat="43.52404" lon="5.60841">
        <ele>543</ele>
        <time>2022-10-19T11:42:54.587Z</time>
      </trkpt>
      <trkpt lat="43.52403" lon="5.60842">
        <ele>543</ele>
        <time>2022-10-19T11:42:55.587Z</time>
      </trkpt>
      <trkpt lat="43.52403" lon="5.60843">
        <ele>543</ele>
        <time>2022-10-19T11:42:56.587Z</time>
      </trkpt>
      <trkpt lat="43.52402" lon="5.60845">
        <ele>543</ele>
        <time>2022-10-19T11:42:57.587Z</time>
      </trkpt>
      <trkpt lat="43.52401" lon="5.60846">
        <ele>543</ele>
        <time>2022-10-19T11:42:58.587Z</time>
      </trkpt>
      <trkpt lat="43.52401" lon="5.60848">
        <ele>543</ele>
        <time>2022-10-19T11:42:59.587Z</time>
      </trkpt>
      <trkpt lat="43.524" lon="5.60849">
        <ele>543</ele>
        <time>2022-10-19T11:43:00.587Z</time>
      </trkpt>
      <trkpt lat="43.52399" lon="5.60851">
        <ele>543</ele>
        <time>2022-10-19T11:43:01.587Z</time>
      </trkpt>
      <trkpt lat="43.52399" lon="5.60852">
        <ele>543</ele>
        <time>2022-10-19T11:43:02.587Z</time>
      </trkpt>
      <trkpt lat="43.52398" lon="5.60854">
        <ele>543</ele>
        <time>2022-10-19T11:43:03.587Z</time>
      </trkpt>
      <trkpt lat="43.52398" lon="5.60855">
        <ele>543</ele>
        <time>2022-10-19T11:43:04.587Z</time>
      </trkpt>
      <trkpt lat="43.52397" lon="5.60857">
        <ele>543</ele>
        <time>2022-10-19T11:43:05.587Z</time>
      </trkpt>
      <trkpt lat="43.52397" lon="5.60858">
        <ele>543</ele>
        <time>2022-10-19T11:43:06.587Z</time>
      </trkpt>
      <trkpt lat="43.52397" lon="5.6086">
        <ele>543</ele>
        <time>2022-10-19T11:43:07.587Z</time>
      </trkpt>
      <trkpt lat="43.52396" lon="5.60861">
        <ele>543</ele>
        <time>2022-10-19T11:43:08.587Z</time>
      </trkpt>
      <trkpt lat="43.52396" lon="5.60863">
        <ele>543</ele>
        <time>2022-10-19T11:43:09.587Z</time>
      </trkpt>
      <trkpt lat="43.52396" lon="5.60865">
        <ele>543</ele>
        <time>2022-10-19T11:43:10.587Z</time>
      </trkpt>
      <trkpt lat="43.52396" lon="5.60866">
        <ele>543</ele>
        <time>2022-10-19T11:43:11.587Z</time>
      </trkpt>
      <trkpt lat="43.52395" lon="5.60868">
        <ele>544</ele>
        <time>2022-10-19T11:43:12.587Z</time>
      </trkpt>
      <trkpt lat="43.52395" lon="5.60869">
        <ele>544</ele>
        <time>2022-10-19T11:43:13.587Z</time>
      </trkpt>
      <trkpt lat="43.52395" lon="5.60871">
        <ele>544</ele>
        <time>2022-10-19T11:43:14.587Z</time>
      </trkpt>
      <trkpt lat="43.52395" lon="5.60872">
        <ele>544</ele>
        <time>2022-10-19T11:43:15.587Z</time>
      </trkpt>
      <trkpt lat="43.52396" lon="5.60874">
        <ele>544</ele>
        <time>2022-10-19T11:43:16.587Z</time>
      </trkpt>
      <trkpt lat="43.52396" lon="5.60876">
        <ele>544</ele>
        <time>2022-10-19T11:43:17.587Z</time>
      </trkpt>
      <trkpt lat="43.52396" lon="5.60877">
        <ele>544</ele>
        <time>2022-10-19T11:43:18.587Z</time>
      </trkpt>
      <trkpt lat="43.52396" lon="5.60879">
        <ele>544</ele>
        <time>2022-10-19T11:43:19.587Z</time>
      </trkpt>
      <trkpt lat="43.52396" lon="5.6088">
        <ele>544</ele>
        <time>2022-10-19T11:43:20.587Z</time>
      </trkpt>
      <trkpt lat="43.52396" lon="5.60882">
        <ele>544</ele>
        <time>2022-10-19T11:43:21.587Z</time>
      </trkpt>
      <trkpt lat="43.52396" lon="5.60883">
        <ele>544</ele>
        <time>2022-10-19T11:43:22.587Z</time>
      </trkpt>
      <trkpt lat="43.52397" lon="5.60885">
        <ele>544</ele>
        <time>2022-10-19T11:43:23.587Z</time>
      </trkpt>
      <trkpt lat="43.52398" lon="5.60886">
        <ele>544</ele>
        <time>2022-10-19T11:43:24.587Z</time>
      </trkpt>
      <trkpt lat="43.52398" lon="5.60888">
        <ele>544</ele>
        <time>2022-10-19T11:43:25.587Z</time>
      </trkpt>
      <trkpt lat="43.52399" lon="5.60889">
        <ele>544</ele>
        <time>2022-10-19T11:43:26.587Z</time>
      </trkpt>
      <trkpt lat="43.52399" lon="5.60891">
        <ele>544</ele>
        <time>2022-10-19T11:43:27.587Z</time>
      </trkpt>
      <trkpt lat="43.52399" lon="5.60893">
        <ele>544</ele>
        <time>2022-10-19T11:43:28.587Z</time>
      </trkpt>
      <trkpt lat="43.524" lon="5.60894">
        <ele>544</ele>
        <time>2022-10-19T11:43:29.587Z</time>
      </trkpt>
      <trkpt lat="43.52401" lon="5.60896">
        <ele>544</ele>
        <time>2022-10-19T11:43:30.587Z</time>
      </trkpt>
      <trkpt lat="43.52402" lon="5.60897">
        <ele>544</ele>
        <time>2022-10-19T11:43:31.587Z</time>
      </trkpt>
      <trkpt lat="43.52403" lon="5.60899">
        <ele>544</ele>
        <time>2022-10-19T11:43:32.587Z</time>
      </trkpt>
      <trkpt lat="43.52403" lon="5.609">
        <ele>544</ele>
        <time>2022-10-19T11:43:33.587Z</time>
      </trkpt>
      <trkpt lat="43.52404" lon="5.60902">
        <ele>544</ele>
        <time>2022-10-19T11:43:34.587Z</time>
      </trkpt>
      <trkpt lat="43.52404" lon="5.60903">
        <ele>544</ele>
        <time>2022-10-19T11:43:35.587Z</time>
      </trkpt>
      <trkpt lat="43.52405" lon="5.60904">
        <ele>544</ele>
        <time>2022-10-19T11:43:36.587Z</time>
      </trkpt>
      <trkpt lat="43.52405" lon="5.60906">
        <ele>544</ele>
        <time>2022-10-19T11:43:37.587Z</time>
      </trkpt>
      <trkpt lat="43.52406" lon="5.60907">
        <ele>544</ele>
        <time>2022-10-19T11:43:38.587Z</time>
      </trkpt>
      <trkpt lat="43.52406" lon="5.60909">
        <ele>544</ele>
        <time>2022-10-19T11:43:39.587Z</time>
      </trkpt>
      <trkpt lat="43.52407" lon="5.6091">
        <ele>544</ele>
        <time>2022-10-19T11:43:40.587Z</time>
      </trkpt>
      <trkpt lat="43.52408" lon="5.60912">
        <ele>544</ele>
        <time>2022-10-19T11:43:41.587Z</time>
      </trkpt>
      <trkpt lat="43.52408" lon="5.60913">
        <ele>544</ele>
        <time>2022-10-19T11:43:42.587Z</time>
      </trkpt>
      <trkpt lat="43.52409" lon="5.60914">
        <ele>544</ele>
        <time>2022-10-19T11:43:43.587Z</time>
      </trkpt>
      <trkpt lat="43.5241" lon="5.60916">
        <ele>544</ele>
        <time>2022-10-19T11:43:44.587Z</time>
      </trkpt>
      <trkpt lat="43.5241" lon="5.60917">
        <ele>544</ele>
        <time>2022-10-19T11:43:45.587Z</time>
      </trkpt>
      <trkpt lat="43.52411" lon="5.60918">
        <ele>544</ele>
        <time>2022-10-19T11:43:46.587Z</time>
      </trkpt>
      <trkpt lat="43.52411" lon="5.6092">
        <ele>544</ele>
        <time>2022-10-19T11:43:47.587Z</time>
      </trkpt>
      <trkpt lat="43.52412" lon="5.60921">
        <ele>544</ele>
        <time>2022-10-19T11:43:48.587Z</time>
      </trkpt>
      <trkpt lat="43.52413" lon="5.60923">
        <ele>544</ele>
        <time>2022-10-19T11:43:49.587Z</time>
      </trkpt>
      <trkpt lat="43.52413" lon="5.60924">
        <ele>545</ele>
        <time>2022-10-19T11:43:50.587Z</time>
      </trkpt>
      <trkpt lat="43.52414" lon="5.60926">
        <ele>544</ele>
        <time>2022-10-19T11:43:51.587Z</time>
      </trkpt>
      <trkpt lat="43.52415" lon="5.60927">
        <ele>544</ele>
        <time>2022-10-19T11:43:52.587Z</time>
      </trkpt>
      <trkpt lat="43.52415" lon="5.60929">
        <ele>544</ele>
        <time>2022-10-19T11:43:53.587Z</time>
      </trkpt>
      <trkpt lat="43.52416" lon="5.6093">
        <ele>545</ele>
        <time>2022-10-19T11:43:54.587Z</time>
      </trkpt>
      <trkpt lat="43.52417" lon="5.60931">
        <ele>545</ele>
        <time>2022-10-19T11:43:55.587Z</time>
      </trkpt>
      <trkpt lat="43.52417" lon="5.60933">
        <ele>545</ele>
        <time>2022-10-19T11:43:56.587Z</time>
      </trkpt>
      <trkpt lat="43.52418" lon="5.60934">
        <ele>545</ele>
        <time>2022-10-19T11:43:57.587Z</time>
      </trkpt>
      <trkpt lat="43.52419" lon="5.60936">
        <ele>545</ele>
        <time>2022-10-19T11:43:58.587Z</time>
      </trkpt>
      <trkpt lat="43.52419" lon="5.60937">
        <ele>545</ele>
        <time>2022-10-19T11:43:59.587Z</time>
      </trkpt>
      <trkpt lat="43.5242" lon="5.60939">
        <ele>545</ele>
        <time>2022-10-19T11:44:00.587Z</time>
      </trkpt>
      <trkpt lat="43.52421" lon="5.6094">
        <ele>545</ele>
        <time>2022-10-19T11:44:01.587Z</time>
      </trkpt>
      <trkpt lat="43.52422" lon="5.60941">
        <ele>545</ele>
        <time>2022-10-19T11:44:02.587Z</time>
      </trkpt>
      <trkpt lat="43.52422" lon="5.60942">
        <ele>545</ele>
        <time>2022-10-19T11:44:03.587Z</time>
      </trkpt>
      <trkpt lat="43.52423" lon="5.60944">
        <ele>545</ele>
        <time>2022-10-19T11:44:04.587Z</time>
      </trkpt>
      <trkpt lat="43.52424" lon="5.60945">
        <ele>546</ele>
        <time>2022-10-19T11:44:05.587Z</time>
      </trkpt>
      <trkpt lat="43.52425" lon="5.60946">
        <ele>546</ele>
        <time>2022-10-19T11:44:06.587Z</time>
      </trkpt>
      <trkpt lat="43.52426" lon="5.60947">
        <ele>546</ele>
        <time>2022-10-19T11:44:07.587Z</time>
      </trkpt>
      <trkpt lat="43.52427" lon="5.60947">
        <ele>546</ele>
        <time>2022-10-19T11:44:08.587Z</time>
      </trkpt>
      <trkpt lat="43.52428" lon="5.60948">
        <ele>546</ele>
        <time>2022-10-19T11:44:09.587Z</time>
      </trkpt>
      <trkpt lat="43.52429" lon="5.60949">
        <ele>546</ele>
        <time>2022-10-19T11:44:10.587Z</time>
      </trkpt>
      <trkpt lat="43.5243" lon="5.6095">
        <ele>546</ele>
        <time>2022-10-19T11:44:11.587Z</time>
      </trkpt>
      <trkpt lat="43.52431" lon="5.60951">
        <ele>546</ele>
        <time>2022-10-19T11:44:12.587Z</time>
      </trkpt>
      <trkpt lat="43.52432" lon="5.60951">
        <ele>546</ele>
        <time>2022-10-19T11:44:13.587Z</time>
      </trkpt>
      <trkpt lat="43.52433" lon="5.60952">
        <ele>547</ele>
        <time>2022-10-19T11:44:14.587Z</time>
      </trkpt>
      <trkpt lat="43.52434" lon="5.60952">
        <ele>547</ele>
        <time>2022-10-19T11:44:15.587Z</time>
      </trkpt>
      <trkpt lat="43.52436" lon="5.60953">
        <ele>547</ele>
        <time>2022-10-19T11:44:16.587Z</time>
      </trkpt>
      <trkpt lat="43.52437" lon="5.60953">
        <ele>547</ele>
        <time>2022-10-19T11:44:17.587Z</time>
      </trkpt>
      <trkpt lat="43.52438" lon="5.60953">
        <ele>547</ele>
        <time>2022-10-19T11:44:18.587Z</time>
      </trkpt>
      <trkpt lat="43.52439" lon="5.60953">
        <ele>547</ele>
        <time>2022-10-19T11:44:19.587Z</time>
      </trkpt>
      <trkpt lat="43.5244" lon="5.60953">
        <ele>547</ele>
        <time>2022-10-19T11:44:20.587Z</time>
      </trkpt>
      <trkpt lat="43.52441" lon="5.60953">
        <ele>547</ele>
        <time>2022-10-19T11:44:21.587Z</time>
      </trkpt>
      <trkpt lat="43.52443" lon="5.60953">
        <ele>547</ele>
        <time>2022-10-19T11:44:22.587Z</time>
      </trkpt>
      <trkpt lat="43.52444" lon="5.60953">
        <ele>547</ele>
        <time>2022-10-19T11:44:23.587Z</time>
      </trkpt>
      <trkpt lat="43.52445" lon="5.60953">
        <ele>547</ele>
        <time>2022-10-19T11:44:24.587Z</time>
      </trkpt>
      <trkpt lat="43.52446" lon="5.60953">
        <ele>547</ele>
        <time>2022-10-19T11:44:25.587Z</time>
      </trkpt>
      <trkpt lat="43.52447" lon="5.60953">
        <ele>547</ele>
        <time>2022-10-19T11:44:26.587Z</time>
      </trkpt>
      <trkpt lat="43.52449" lon="5.60953">
        <ele>548</ele>
        <time>2022-10-19T11:44:27.587Z</time>
      </trkpt>
      <trkpt lat="43.5245" lon="5.60953">
        <ele>548</ele>
        <time>2022-10-19T11:44:28.587Z</time>
      </trkpt>
      <trkpt lat="43.52451" lon="5.60953">
        <ele>548</ele>
        <time>2022-10-19T11:44:29.587Z</time>
      </trkpt>
      <trkpt lat="43.52453" lon="5.60954">
        <ele>548</ele>
        <time>2022-10-19T11:44:30.587Z</time>
      </trkpt>
      <trkpt lat="43.52454" lon="5.60954">
        <ele>548</ele>
        <time>2022-10-19T11:44:31.587Z</time>
      </trkpt>
      <trkpt lat="43.52455" lon="5.60955">
        <ele>548</ele>
        <time>2022-10-19T11:44:32.587Z</time>
      </trkpt>
      <trkpt lat="43.52456" lon="5.60956">
        <ele>548</ele>
        <time>2022-10-19T11:44:33.587Z</time>
      </trkpt>
      <trkpt lat="43.52457" lon="5.60956">
        <ele>548</ele>
        <time>2022-10-19T11:44:34.587Z</time>
      </trkpt>
      <trkpt lat="43.52458" lon="5.60957">
        <ele>548</ele>
        <time>2022-10-19T11:44:35.587Z</time>
      </trkpt>
      <trkpt lat="43.52459" lon="5.60958">
        <ele>548</ele>
        <time>2022-10-19T11:44:36.587Z</time>
      </trkpt>
      <trkpt lat="43.5246" lon="5.60959">
        <ele>548</ele>
        <time>2022-10-19T11:44:37.587Z</time>
      </trkpt>
      <trkpt lat="43.52461" lon="5.6096">
        <ele>548</ele>
        <time>2022-10-19T11:44:38.587Z</time>
      </trkpt>
      <trkpt lat="43.52462" lon="5.60961">
        <ele>548</ele>
        <time>2022-10-19T11:44:39.587Z</time>
      </trkpt>
      <trkpt lat="43.52462" lon="5.60962">
        <ele>548</ele>
        <time>2022-10-19T11:44:40.587Z</time>
      </trkpt>
      <trkpt lat="43.52463" lon="5.60964">
        <ele>548</ele>
        <time>2022-10-19T11:44:41.587Z</time>
      </trkpt>
      <trkpt lat="43.52464" lon="5.60966">
        <ele>548</ele>
        <time>2022-10-19T11:44:42.587Z</time>
      </trkpt>
      <trkpt lat="43.52464" lon="5.60967">
        <ele>548</ele>
        <time>2022-10-19T11:44:43.587Z</time>
      </trkpt>
      <trkpt lat="43.52465" lon="5.60969">
        <ele>548</ele>
        <time>2022-10-19T11:44:44.587Z</time>
      </trkpt>
      <trkpt lat="43.52465" lon="5.6097">
        <ele>548</ele>
        <time>2022-10-19T11:44:45.587Z</time>
      </trkpt>
      <trkpt lat="43.52466" lon="5.60971">
        <ele>548</ele>
        <time>2022-10-19T11:44:46.587Z</time>
      </trkpt>
      <trkpt lat="43.52466" lon="5.60972">
        <ele>548</ele>
        <time>2022-10-19T11:44:47.587Z</time>
      </trkpt>
      <trkpt lat="43.52467" lon="5.60974">
        <ele>547</ele>
        <time>2022-10-19T11:44:48.587Z</time>
      </trkpt>
      <trkpt lat="43.52468" lon="5.60975">
        <ele>547</ele>
        <time>2022-10-19T11:44:49.587Z</time>
      </trkpt>
      <trkpt lat="43.52468" lon="5.60977">
        <ele>547</ele>
        <time>2022-10-19T11:44:50.587Z</time>
      </trkpt>
      <trkpt lat="43.52469" lon="5.60978">
        <ele>547</ele>
        <time>2022-10-19T11:44:51.587Z</time>
      </trkpt>
      <trkpt lat="43.52469" lon="5.6098">
        <ele>547</ele>
        <time>2022-10-19T11:44:52.587Z</time>
      </trkpt>
      <trkpt lat="43.5247" lon="5.60981">
        <ele>547</ele>
        <time>2022-10-19T11:44:53.587Z</time>
      </trkpt>
      <trkpt lat="43.52471" lon="5.60982">
        <ele>547</ele>
        <time>2022-10-19T11:44:54.587Z</time>
      </trkpt>
      <trkpt lat="43.52471" lon="5.60983">
        <ele>547</ele>
        <time>2022-10-19T11:44:55.587Z</time>
      </trkpt>
      <trkpt lat="43.52472" lon="5.60984">
        <ele>547</ele>
        <time>2022-10-19T11:44:56.587Z</time>
      </trkpt>
      <trkpt lat="43.52472" lon="5.60985">
        <ele>547</ele>
        <time>2022-10-19T11:44:57.587Z</time>
      </trkpt>
      <trkpt lat="43.52473" lon="5.60987">
        <ele>547</ele>
        <time>2022-10-19T11:44:58.587Z</time>
      </trkpt>
      <trkpt lat="43.52474" lon="5.60988">
        <ele>547</ele>
        <time>2022-10-19T11:44:59.587Z</time>
      </trkpt>
      <trkpt lat="43.52475" lon="5.60989">
        <ele>547</ele>
        <time>2022-10-19T11:45:00.587Z</time>
      </trkpt>
      <trkpt lat="43.52476" lon="5.6099">
        <ele>547</ele>
        <time>2022-10-19T11:45:01.587Z</time>
      </trkpt>
      <trkpt lat="43.52477" lon="5.60991">
        <ele>548</ele>
        <time>2022-10-19T11:45:02.587Z</time>
      </trkpt>
      <trkpt lat="43.52478" lon="5.60992">
        <ele>548</ele>
        <time>2022-10-19T11:45:03.587Z</time>
      </trkpt>
      <trkpt lat="43.52479" lon="5.60993">
        <ele>548</ele>
        <time>2022-10-19T11:45:04.587Z</time>
      </trkpt>
      <trkpt lat="43.5248" lon="5.60994">
        <ele>548</ele>
        <time>2022-10-19T11:45:05.587Z</time>
      </trkpt>
      <trkpt lat="43.52481" lon="5.60996">
        <ele>548</ele>
        <time>2022-10-19T11:45:06.587Z</time>
      </trkpt>
      <trkpt lat="43.52482" lon="5.60996">
        <ele>548</ele>
        <time>2022-10-19T11:45:07.587Z</time>
      </trkpt>
      <trkpt lat="43.52483" lon="5.60997">
        <ele>548</ele>
        <time>2022-10-19T11:45:08.587Z</time>
      </trkpt>
      <trkpt lat="43.52484" lon="5.60997">
        <ele>548</ele>
        <time>2022-10-19T11:45:09.587Z</time>
      </trkpt>
      <trkpt lat="43.52485" lon="5.60997">
        <ele>548</ele>
        <time>2022-10-19T11:45:10.587Z</time>
      </trkpt>
      <trkpt lat="43.52487" lon="5.60998">
        <ele>548</ele>
        <time>2022-10-19T11:45:11.587Z</time>
      </trkpt>
      <trkpt lat="43.52488" lon="5.60998">
        <ele>549</ele>
        <time>2022-10-19T11:45:12.587Z</time>
      </trkpt>
      <trkpt lat="43.52489" lon="5.60998">
        <ele>549</ele>
        <time>2022-10-19T11:45:13.587Z</time>
      </trkpt>
      <trkpt lat="43.5249" lon="5.60999">
        <ele>549</ele>
        <time>2022-10-19T11:45:14.587Z</time>
      </trkpt>
      <trkpt lat="43.52491" lon="5.60999">
        <ele>549</ele>
        <time>2022-10-19T11:45:15.587Z</time>
      </trkpt>
      <trkpt lat="43.52492" lon="5.61">
        <ele>549</ele>
        <time>2022-10-19T11:45:16.587Z</time>
      </trkpt>
      <trkpt lat="43.52493" lon="5.61">
        <ele>549</ele>
        <time>2022-10-19T11:45:17.587Z</time>
      </trkpt>
      <trkpt lat="43.52495" lon="5.61">
        <ele>550</ele>
        <time>2022-10-19T11:45:18.587Z</time>
      </trkpt>
      <trkpt lat="43.52496" lon="5.61">
        <ele>550</ele>
        <time>2022-10-19T11:45:19.587Z</time>
      </trkpt>
      <trkpt lat="43.52497" lon="5.61">
        <ele>550</ele>
        <time>2022-10-19T11:45:20.587Z</time>
      </trkpt>
      <trkpt lat="43.52498" lon="5.61">
        <ele>550</ele>
        <time>2022-10-19T11:45:21.587Z</time>
      </trkpt>
      <trkpt lat="43.52499" lon="5.61">
        <ele>550</ele>
        <time>2022-10-19T11:45:22.587Z</time>
      </trkpt>
      <trkpt lat="43.525" lon="5.61">
        <ele>550</ele>
        <time>2022-10-19T11:45:23.587Z</time>
      </trkpt>
      <trkpt lat="43.52502" lon="5.61">
        <ele>550</ele>
        <time>2022-10-19T11:45:24.587Z</time>
      </trkpt>
      <trkpt lat="43.52503" lon="5.61001">
        <ele>550</ele>
        <time>2022-10-19T11:45:25.587Z</time>
      </trkpt>
      <trkpt lat="43.52504" lon="5.61001">
        <ele>550</ele>
        <time>2022-10-19T11:45:26.587Z</time>
      </trkpt>
      <trkpt lat="43.52506" lon="5.61001">
        <ele>551</ele>
        <time>2022-10-19T11:45:27.587Z</time>
      </trkpt>
      <trkpt lat="43.52507" lon="5.61001">
        <ele>551</ele>
        <time>2022-10-19T11:45:28.587Z</time>
      </trkpt>
      <trkpt lat="43.52508" lon="5.61001">
        <ele>551</ele>
        <time>2022-10-19T11:45:29.587Z</time>
      </trkpt>
      <trkpt lat="43.52509" lon="5.61002">
        <ele>551</ele>
        <time>2022-10-19T11:45:30.587Z</time>
      </trkpt>
      <trkpt lat="43.5251" lon="5.61002">
        <ele>551</ele>
        <time>2022-10-19T11:45:31.587Z</time>
      </trkpt>
      <trkpt lat="43.52511" lon="5.61002">
        <ele>551</ele>
        <time>2022-10-19T11:45:32.587Z</time>
      </trkpt>
      <trkpt lat="43.52513" lon="5.61003">
        <ele>551</ele>
        <time>2022-10-19T11:45:33.587Z</time>
      </trkpt>
      <trkpt lat="43.52514" lon="5.61003">
        <ele>551</ele>
        <time>2022-10-19T11:45:34.587Z</time>
      </trkpt>
      <trkpt lat="43.52515" lon="5.61004">
        <ele>551</ele>
        <time>2022-10-19T11:45:35.587Z</time>
      </trkpt>
      <trkpt lat="43.52516" lon="5.61005">
        <ele>551</ele>
        <time>2022-10-19T11:45:36.587Z</time>
      </trkpt>
      <trkpt lat="43.52517" lon="5.61006">
        <ele>552</ele>
        <time>2022-10-19T11:45:37.587Z</time>
      </trkpt>
      <trkpt lat="43.52518" lon="5.61007">
        <ele>552</ele>
        <time>2022-10-19T11:45:38.587Z</time>
      </trkpt>
      <trkpt lat="43.52518" lon="5.61008">
        <ele>552</ele>
        <time>2022-10-19T11:45:39.587Z</time>
      </trkpt>
      <trkpt lat="43.52519" lon="5.61009">
        <ele>552</ele>
        <time>2022-10-19T11:45:40.587Z</time>
      </trkpt>
      <trkpt lat="43.52519" lon="5.61011">
        <ele>552</ele>
        <time>2022-10-19T11:45:41.587Z</time>
      </trkpt>
      <trkpt lat="43.5252" lon="5.61012">
        <ele>552</ele>
        <time>2022-10-19T11:45:42.587Z</time>
      </trkpt>
      <trkpt lat="43.5252" lon="5.61014">
        <ele>552</ele>
        <time>2022-10-19T11:45:43.587Z</time>
      </trkpt>
      <trkpt lat="43.5252" lon="5.61015">
        <ele>552</ele>
        <time>2022-10-19T11:45:44.587Z</time>
      </trkpt>
      <trkpt lat="43.5252" lon="5.61016">
        <ele>552</ele>
        <time>2022-10-19T11:45:45.587Z</time>
      </trkpt>
      <trkpt lat="43.52521" lon="5.61017">
        <ele>552</ele>
        <time>2022-10-19T11:45:46.587Z</time>
      </trkpt>
      <trkpt lat="43.52521" lon="5.61018">
        <ele>552</ele>
        <time>2022-10-19T11:45:47.587Z</time>
      </trkpt>
      <trkpt lat="43.52521" lon="5.6102">
        <ele>553</ele>
        <time>2022-10-19T11:45:48.587Z</time>
      </trkpt>
      <trkpt lat="43.52521" lon="5.61021">
        <ele>552</ele>
        <time>2022-10-19T11:45:49.587Z</time>
      </trkpt>
      <trkpt lat="43.52522" lon="5.61023">
        <ele>552</ele>
        <time>2022-10-19T11:45:50.587Z</time>
      </trkpt>
      <trkpt lat="43.52522" lon="5.61024">
        <ele>552</ele>
        <time>2022-10-19T11:45:51.587Z</time>
      </trkpt>
      <trkpt lat="43.52522" lon="5.61026">
        <ele>552</ele>
        <time>2022-10-19T11:45:52.587Z</time>
      </trkpt>
      <trkpt lat="43.52522" lon="5.61027">
        <ele>552</ele>
        <time>2022-10-19T11:45:53.587Z</time>
      </trkpt>
      <trkpt lat="43.52522" lon="5.61029">
        <ele>552</ele>
        <time>2022-10-19T11:45:54.587Z</time>
      </trkpt>
      <trkpt lat="43.52522" lon="5.61029">
        <ele>552</ele>
        <time>2022-10-19T11:45:55.587Z</time>
      </trkpt>
      <trkpt lat="43.52522" lon="5.61029">
        <ele>552</ele>
        <time>2022-10-19T11:45:56.587Z</time>
      </trkpt>
      <trkpt lat="43.52522" lon="5.61029">
        <ele>552</ele>
        <time>2022-10-19T11:45:57.587Z</time>
      </trkpt>
      <trkpt lat="43.52522" lon="5.61029">
        <ele>552</ele>
        <time>2022-10-19T11:45:58.587Z</time>
      </trkpt>
      <trkpt lat="43.52522" lon="5.61029">
        <ele>552</ele>
        <time>2022-10-19T11:45:59.587Z</time>
      </trkpt>
      <trkpt lat="43.52522" lon="5.6103">
        <ele>552</ele>
        <time>2022-10-19T11:46:00.587Z</time>
      </trkpt>
      <trkpt lat="43.52522" lon="5.6103">
        <ele>552</ele>
        <time>2022-10-19T11:46:01.587Z</time>
      </trkpt>
      <trkpt lat="43.52522" lon="5.6103">
        <ele>552</ele>
        <time>2022-10-19T11:46:02.587Z</time>
      </trkpt>
      <trkpt lat="43.52522" lon="5.6103">
        <ele>552</ele>
        <time>2022-10-19T11:46:03.587Z</time>
      </trkpt>
      <trkpt lat="43.52522" lon="5.6103">
        <ele>552</ele>
        <time>2022-10-19T11:46:04.587Z</time>
      </trkpt>
      <trkpt lat="43.52522" lon="5.6103">
        <ele>552</ele>
        <time>2022-10-19T11:46:05.587Z</time>
      </trkpt>
      <trkpt lat="43.52522" lon="5.6103">
        <ele>552</ele>
        <time>2022-10-19T11:46:06.587Z</time>
      </trkpt>
      <trkpt lat="43.52522" lon="5.6103">
        <ele>552</ele>
        <time>2022-10-19T11:46:07.587Z</time>
      </trkpt>
      <trkpt lat="43.52523" lon="5.6103">
        <ele>552</ele>
        <time>2022-10-19T11:46:08.587Z</time>
      </trkpt>
      <trkpt lat="43.52523" lon="5.6103">
        <ele>552</ele>
        <time>2022-10-19T11:46:09.587Z</time>
      </trkpt>
      <trkpt lat="43.52523" lon="5.6103">
        <ele>552</ele>
        <time>2022-10-19T11:46:10.587Z</time>
      </trkpt>
      <trkpt lat="43.52523" lon="5.6103">
        <ele>552</ele>
        <time>2022-10-19T11:46:11.587Z</time>
      </trkpt>
      <trkpt lat="43.52522" lon="5.6103">
        <ele>552</ele>
        <time>2022-10-19T11:46:12.587Z</time>
      </trkpt>
      <trkpt lat="43.52522" lon="5.6103">
        <ele>552</ele>
        <time>2022-10-19T11:46:13.587Z</time>
      </trkpt>
      <trkpt lat="43.52522" lon="5.6103">
        <ele>552</ele>
        <time>2022-10-19T11:46:14.587Z</time>
      </trkpt>
      <trkpt lat="43.52523" lon="5.6103">
        <ele>552</ele>
        <time>2022-10-19T11:46:15.587Z</time>
      </trkpt>
      <trkpt lat="43.52523" lon="5.6103">
        <ele>552</ele>
        <time>2022-10-19T11:46:16.587Z</time>
      </trkpt>
      <trkpt lat="43.52523" lon="5.6103">
        <ele>552</ele>
        <time>2022-10-19T11:46:17.587Z</time>
      </trkpt>
      <trkpt lat="43.52523" lon="5.6103">
        <ele>552</ele>
        <time>2022-10-19T11:46:18.587Z</time>
      </trkpt>
      <trkpt lat="43.52523" lon="5.6103">
        <ele>552</ele>
        <time>2022-10-19T11:46:19.587Z</time>
      </trkpt>
      <trkpt lat="43.52523" lon="5.6103">
        <ele>552</ele>
        <time>2022-10-19T11:46:20.587Z</time>
      </trkpt>
      <trkpt lat="43.52523" lon="5.6103">
        <ele>553</ele>
        <time>2022-10-19T11:46:21.587Z</time>
      </trkpt>
      <trkpt lat="43.52523" lon="5.6103">
        <ele>553</ele>
        <time>2022-10-19T11:46:22.587Z</time>
      </trkpt>
      <trkpt lat="43.52522" lon="5.61029">
        <ele>553</ele>
        <time>2022-10-19T11:46:23.587Z</time>
      </trkpt>
      <trkpt lat="43.52522" lon="5.61029">
        <ele>553</ele>
        <time>2022-10-19T11:46:24.587Z</time>
      </trkpt>
      <trkpt lat="43.52522" lon="5.61029">
        <ele>553</ele>
        <time>2022-10-19T11:46:25.587Z</time>
      </trkpt>
      <trkpt lat="43.52522" lon="5.61029">
        <ele>553</ele>
        <time>2022-10-19T11:46:26.587Z</time>
      </trkpt>
      <trkpt lat="43.52522" lon="5.61029">
        <ele>553</ele>
        <time>2022-10-19T11:46:27.587Z</time>
      </trkpt>
      <trkpt lat="43.52522" lon="5.6103">
        <ele>553</ele>
        <time>2022-10-19T11:46:28.587Z</time>
      </trkpt>
      <trkpt lat="43.52522" lon="5.6103">
        <ele>553</ele>
        <time>2022-10-19T11:46:29.587Z</time>
      </trkpt>
      <trkpt lat="43.52523" lon="5.6103">
        <ele>553</ele>
        <time>2022-10-19T11:46:30.587Z</time>
      </trkpt>
      <trkpt lat="43.52522" lon="5.6103">
        <ele>553</ele>
        <time>2022-10-19T11:46:31.587Z</time>
      </trkpt>
      <trkpt lat="43.52522" lon="5.6103">
        <ele>553</ele>
        <time>2022-10-19T11:46:32.587Z</time>
      </trkpt>
      <trkpt lat="43.52522" lon="5.6103">
        <ele>553</ele>
        <time>2022-10-19T11:46:33.587Z</time>
      </trkpt>
      <trkpt lat="43.52523" lon="5.6103">
        <ele>553</ele>
        <time>2022-10-19T11:46:34.587Z</time>
      </trkpt>
      <trkpt lat="43.52523" lon="5.6103">
        <ele>553</ele>
        <time>2022-10-19T11:46:35.587Z</time>
      </trkpt>
      <trkpt lat="43.52523" lon="5.6103">
        <ele>553</ele>
        <time>2022-10-19T11:46:36.587Z</time>
      </trkpt>
      <trkpt lat="43.52523" lon="5.6103">
        <ele>553</ele>
        <time>2022-10-19T11:46:37.587Z</time>
      </trkpt>
      <trkpt lat="43.52523" lon="5.6103">
        <ele>553</ele>
        <time>2022-10-19T11:46:38.587Z</time>
      </trkpt>
      <trkpt lat="43.52523" lon="5.6103">
        <ele>553</ele>
        <time>2022-10-19T11:46:39.587Z</time>
      </trkpt>
      <trkpt lat="43.52523" lon="5.6103">
        <ele>553</ele>
        <time>2022-10-19T11:46:40.587Z</time>
      </trkpt>
      <trkpt lat="43.52523" lon="5.6103">
        <ele>553</ele>
        <time>2022-10-19T11:46:41.587Z</time>
      </trkpt>
      <trkpt lat="43.52523" lon="5.6103">
        <ele>553</ele>
        <time>2022-10-19T11:46:42.587Z</time>
      </trkpt>
      <trkpt lat="43.52523" lon="5.6103">
        <ele>553</ele>
        <time>2022-10-19T11:46:43.587Z</time>
      </trkpt>
      <trkpt lat="43.52523" lon="5.6103">
        <ele>553</ele>
        <time>2022-10-19T11:46:44.587Z</time>
      </trkpt>
      <trkpt lat="43.52523" lon="5.6103">
        <ele>553</ele>
        <time>2022-10-19T11:46:45.587Z</time>
      </trkpt>
      <trkpt lat="43.52523" lon="5.6103">
        <ele>553</ele>
        <time>2022-10-19T11:46:46.587Z</time>
      </trkpt>
      <trkpt lat="43.52523" lon="5.6103">
        <ele>553</ele>
        <time>2022-10-19T11:46:47.587Z</time>
      </trkpt>
      <trkpt lat="43.52523" lon="5.6103">
        <ele>553</ele>
        <time>2022-10-19T11:46:48.587Z</time>
      </trkpt>
      <trkpt lat="43.52523" lon="5.6103">
        <ele>553</ele>
        <time>2022-10-19T11:46:49.587Z</time>
      </trkpt>
      <trkpt lat="43.52523" lon="5.61029">
        <ele>553</ele>
        <time>2022-10-19T11:46:50.587Z</time>
      </trkpt>
      <trkpt lat="43.52522" lon="5.6103">
        <ele>553</ele>
        <time>2022-10-19T11:46:51.587Z</time>
      </trkpt>
      <trkpt lat="43.52522" lon="5.6103">
        <ele>553</ele>
        <time>2022-10-19T11:46:52.587Z</time>
      </trkpt>
      <trkpt lat="43.52522" lon="5.6103">
        <ele>553</ele>
        <time>2022-10-19T11:46:53.587Z</time>
      </trkpt>
      <trkpt lat="43.52522" lon="5.6103">
        <ele>553</ele>
        <time>2022-10-19T11:46:54.587Z</time>
      </trkpt>
      <trkpt lat="43.52522" lon="5.6103">
        <ele>553</ele>
        <time>2022-10-19T11:46:55.587Z</time>
      </trkpt>
      <trkpt lat="43.52522" lon="5.6103">
        <ele>553</ele>
        <time>2022-10-19T11:46:56.587Z</time>
      </trkpt>
      <trkpt lat="43.52522" lon="5.61029">
        <ele>553</ele>
        <time>2022-10-19T11:46:57.587Z</time>
      </trkpt>
      <trkpt lat="43.52522" lon="5.61029">
        <ele>553</ele>
        <time>2022-10-19T11:46:58.587Z</time>
      </trkpt>
      <trkpt lat="43.52522" lon="5.61029">
        <ele>553</ele>
        <time>2022-10-19T11:46:59.587Z</time>
      </trkpt>
      <trkpt lat="43.52522" lon="5.61029">
        <ele>553</ele>
        <time>2022-10-19T11:47:00.587Z</time>
      </trkpt>
      <trkpt lat="43.52522" lon="5.61029">
        <ele>553</ele>
        <time>2022-10-19T11:47:01.587Z</time>
      </trkpt>
      <trkpt lat="43.52522" lon="5.61029">
        <ele>553</ele>
        <time>2022-10-19T11:47:02.587Z</time>
      </trkpt>
      <trkpt lat="43.52522" lon="5.61029">
        <ele>553</ele>
        <time>2022-10-19T11:47:03.587Z</time>
      </trkpt>
      <trkpt lat="43.52522" lon="5.61029">
        <ele>553</ele>
        <time>2022-10-19T11:47:04.587Z</time>
      </trkpt>
      <trkpt lat="43.52522" lon="5.61029">
        <ele>553</ele>
        <time>2022-10-19T11:47:05.587Z</time>
      </trkpt>
      <trkpt lat="43.52522" lon="5.61029">
        <ele>553</ele>
        <time>2022-10-19T11:47:06.587Z</time>
      </trkpt>
      <trkpt lat="43.52522" lon="5.61029">
        <ele>553</ele>
        <time>2022-10-19T11:47:07.587Z</time>
      </trkpt>
      <trkpt lat="43.52522" lon="5.61029">
        <ele>553</ele>
        <time>2022-10-19T11:47:08.587Z</time>
      </trkpt>
      <trkpt lat="43.52522" lon="5.61029">
        <ele>553</ele>
        <time>2022-10-19T11:47:09.587Z</time>
      </trkpt>
      <trkpt lat="43.52522" lon="5.61029">
        <ele>553</ele>
        <time>2022-10-19T11:47:10.587Z</time>
      </trkpt>
      <trkpt lat="43.52522" lon="5.61029">
        <ele>553</ele>
        <time>2022-10-19T11:47:11.587Z</time>
      </trkpt>
      <trkpt lat="43.52523" lon="5.61029">
        <ele>553</ele>
        <time>2022-10-19T11:47:12.587Z</time>
      </trkpt>
      <trkpt lat="43.52523" lon="5.61029">
        <ele>553</ele>
        <time>2022-10-19T11:47:13.587Z</time>
      </trkpt>
      <trkpt lat="43.52523" lon="5.61029">
        <ele>553</ele>
        <time>2022-10-19T11:47:14.587Z</time>
      </trkpt>
      <trkpt lat="43.52523" lon="5.61029">
        <ele>553</ele>
        <time>2022-10-19T11:47:15.587Z</time>
      </trkpt>
      <trkpt lat="43.52523" lon="5.61029">
        <ele>553</ele>
        <time>2022-10-19T11:47:16.587Z</time>
      </trkpt>
      <trkpt lat="43.52523" lon="5.61029">
        <ele>553</ele>
        <time>2022-10-19T11:47:17.587Z</time>
      </trkpt>
      <trkpt lat="43.52523" lon="5.61029">
        <ele>553</ele>
        <time>2022-10-19T11:47:18.587Z</time>
      </trkpt>
      <trkpt lat="43.52523" lon="5.61029">
        <ele>553</ele>
        <time>2022-10-19T11:47:19.587Z</time>
      </trkpt>
      <trkpt lat="43.52523" lon="5.61029">
        <ele>553</ele>
        <time>2022-10-19T11:47:20.587Z</time>
      </trkpt>
      <trkpt lat="43.52523" lon="5.61029">
        <ele>553</ele>
        <time>2022-10-19T11:47:21.587Z</time>
      </trkpt>
      <trkpt lat="43.52523" lon="5.61029">
        <ele>553</ele>
        <time>2022-10-19T11:47:22.587Z</time>
      </trkpt>
      <trkpt lat="43.52523" lon="5.61029">
        <ele>553</ele>
        <time>2022-10-19T11:47:23.587Z</time>
      </trkpt>
      <trkpt lat="43.52523" lon="5.61029">
        <ele>553</ele>
        <time>2022-10-19T11:47:24.587Z</time>
      </trkpt>
      <trkpt lat="43.52523" lon="5.61029">
        <ele>553</ele>
        <time>2022-10-19T11:47:25.587Z</time>
      </trkpt>
      <trkpt lat="43.52523" lon="5.61029">
        <ele>553</ele>
        <time>2022-10-19T11:47:26.587Z</time>
      </trkpt>
      <trkpt lat="43.52523" lon="5.61029">
        <ele>553</ele>
        <time>2022-10-19T11:47:27.587Z</time>
      </trkpt>
      <trkpt lat="43.52523" lon="5.61029">
        <ele>553</ele>
        <time>2022-10-19T11:47:28.587Z</time>
      </trkpt>
      <trkpt lat="43.52523" lon="5.61029">
        <ele>553</ele>
        <time>2022-10-19T11:47:29.587Z</time>
      </trkpt>
      <trkpt lat="43.52523" lon="5.61029">
        <ele>553</ele>
        <time>2022-10-19T11:47:30.587Z</time>
      </trkpt>
      <trkpt lat="43.52523" lon="5.61029">
        <ele>553</ele>
        <time>2022-10-19T11:47:31.587Z</time>
      </trkpt>
      <trkpt lat="43.52523" lon="5.61029">
        <ele>553</ele>
        <time>2022-10-19T11:47:32.587Z</time>
      </trkpt>
      <trkpt lat="43.52523" lon="5.61029">
        <ele>553</ele>
        <time>2022-10-19T11:47:33.587Z</time>
      </trkpt>
      <trkpt lat="43.52523" lon="5.61029">
        <ele>553</ele>
        <time>2022-10-19T11:47:34.587Z</time>
      </trkpt>
      <trkpt lat="43.52523" lon="5.61029">
        <ele>553</ele>
        <time>2022-10-19T11:47:35.587Z</time>
      </trkpt>
      <trkpt lat="43.52523" lon="5.61029">
        <ele>553</ele>
        <time>2022-10-19T11:47:36.587Z</time>
      </trkpt>
      <trkpt lat="43.52523" lon="5.61029">
        <ele>553</ele>
        <time>2022-10-19T11:47:37.587Z</time>
      </trkpt>
      <trkpt lat="43.52523" lon="5.61029">
        <ele>553</ele>
        <time>2022-10-19T11:47:38.587Z</time>
      </trkpt>
      <trkpt lat="43.52523" lon="5.61029">
        <ele>553</ele>
        <time>2022-10-19T11:47:39.587Z</time>
      </trkpt>
      <trkpt lat="43.52523" lon="5.61029">
        <ele>553</ele>
        <time>2022-10-19T11:47:40.587Z</time>
      </trkpt>
      <trkpt lat="43.52523" lon="5.61029">
        <ele>553</ele>
        <time>2022-10-19T11:47:41.587Z</time>
      </trkpt>
      <trkpt lat="43.52523" lon="5.61029">
        <ele>553</ele>
        <time>2022-10-19T11:47:42.587Z</time>
      </trkpt>
      <trkpt lat="43.52523" lon="5.61029">
        <ele>553</ele>
        <time>2022-10-19T11:47:43.587Z</time>
      </trkpt>
      <trkpt lat="43.52523" lon="5.61029">
        <ele>553</ele>
        <time>2022-10-19T11:47:44.587Z</time>
      </trkpt>
      <trkpt lat="43.52523" lon="5.61029">
        <ele>553</ele>
        <time>2022-10-19T11:47:45.587Z</time>
      </trkpt>
      <trkpt lat="43.52523" lon="5.61029">
        <ele>553</ele>
        <time>2022-10-19T11:47:46.587Z</time>
      </trkpt>
      <trkpt lat="43.52523" lon="5.61029">
        <ele>553</ele>
        <time>2022-10-19T11:47:47.587Z</time>
      </trkpt>
      <trkpt lat="43.52523" lon="5.61029">
        <ele>553</ele>
        <time>2022-10-19T11:47:48.587Z</time>
      </trkpt>
      <trkpt lat="43.52523" lon="5.61029">
        <ele>553</ele>
        <time>2022-10-19T11:47:49.587Z</time>
      </trkpt>
      <trkpt lat="43.52523" lon="5.61029">
        <ele>553</ele>
        <time>2022-10-19T11:47:50.587Z</time>
      </trkpt>
      <trkpt lat="43.52523" lon="5.61029">
        <ele>553</ele>
        <time>2022-10-19T11:47:51.587Z</time>
      </trkpt>
      <trkpt lat="43.52523" lon="5.61029">
        <ele>553</ele>
        <time>2022-10-19T11:47:52.587Z</time>
      </trkpt>
      <trkpt lat="43.52523" lon="5.61029">
        <ele>553</ele>
        <time>2022-10-19T11:47:53.587Z</time>
      </trkpt>
      <trkpt lat="43.52523" lon="5.61029">
        <ele>553</ele>
        <time>2022-10-19T11:47:54.587Z</time>
      </trkpt>
      <trkpt lat="43.52523" lon="5.61028">
        <ele>554</ele>
        <time>2022-10-19T11:47:55.587Z</time>
      </trkpt>
      <trkpt lat="43.52523" lon="5.61028">
        <ele>554</ele>
        <time>2022-10-19T11:47:56.587Z</time>
      </trkpt>
      <trkpt lat="43.52523" lon="5.61028">
        <ele>554</ele>
        <time>2022-10-19T11:47:57.587Z</time>
      </trkpt>
      <trkpt lat="43.52523" lon="5.61028">
        <ele>554</ele>
        <time>2022-10-19T11:47:58.587Z</time>
      </trkpt>
      <trkpt lat="43.52523" lon="5.61028">
        <ele>554</ele>
        <time>2022-10-19T11:47:59.587Z</time>
      </trkpt>
      <trkpt lat="43.52523" lon="5.61028">
        <ele>554</ele>
        <time>2022-10-19T11:48:00.587Z</time>
      </trkpt>
      <trkpt lat="43.52523" lon="5.61028">
        <ele>554</ele>
        <time>2022-10-19T11:48:01.587Z</time>
      </trkpt>
      <trkpt lat="43.52523" lon="5.61028">
        <ele>554</ele>
        <time>2022-10-19T11:48:02.587Z</time>
      </trkpt>
      <trkpt lat="43.52523" lon="5.61028">
        <ele>554</ele>
        <time>2022-10-19T11:48:03.587Z</time>
      </trkpt>
      <trkpt lat="43.52523" lon="5.61028">
        <ele>554</ele>
        <time>2022-10-19T11:48:04.587Z</time>
      </trkpt>
      <trkpt lat="43.52523" lon="5.61028">
        <ele>554</ele>
        <time>2022-10-19T11:48:05.587Z</time>
      </trkpt>
      <trkpt lat="43.52523" lon="5.61028">
        <ele>554</ele>
        <time>2022-10-19T11:48:06.587Z</time>
      </trkpt>
      <trkpt lat="43.52523" lon="5.61028">
        <ele>554</ele>
        <time>2022-10-19T11:48:07.587Z</time>
      </trkpt>
      <trkpt lat="43.52522" lon="5.61028">
        <ele>554</ele>
        <time>2022-10-19T11:48:08.587Z</time>
      </trkpt>
      <trkpt lat="43.52522" lon="5.61028">
        <ele>554</ele>
        <time>2022-10-19T11:48:09.587Z</time>
      </trkpt>
      <trkpt lat="43.52522" lon="5.61028">
        <ele>554</ele>
        <time>2022-10-19T11:48:10.587Z</time>
      </trkpt>
      <trkpt lat="43.52522" lon="5.61029">
        <ele>554</ele>
        <time>2022-10-19T11:48:11.587Z</time>
      </trkpt>
      <trkpt lat="43.52522" lon="5.61029">
        <ele>554</ele>
        <time>2022-10-19T11:48:12.587Z</time>
      </trkpt>
      <trkpt lat="43.52522" lon="5.61029">
        <ele>554</ele>
        <time>2022-10-19T11:48:13.587Z</time>
      </trkpt>
      <trkpt lat="43.52522" lon="5.61029">
        <ele>554</ele>
        <time>2022-10-19T11:48:14.587Z</time>
      </trkpt>
      <trkpt lat="43.52522" lon="5.61028">
        <ele>554</ele>
        <time>2022-10-19T11:48:15.587Z</time>
      </trkpt>
      <trkpt lat="43.52523" lon="5.61028">
        <ele>554</ele>
        <time>2022-10-19T11:48:16.587Z</time>
      </trkpt>
      <trkpt lat="43.52523" lon="5.61029">
        <ele>554</ele>
        <time>2022-10-19T11:48:17.587Z</time>
      </trkpt>
      <trkpt lat="43.52524" lon="5.6103">
        <ele>554</ele>
        <time>2022-10-19T11:48:18.587Z</time>
      </trkpt>
      <trkpt lat="43.52524" lon="5.61031">
        <ele>554</ele>
        <time>2022-10-19T11:48:19.587Z</time>
      </trkpt>
      <trkpt lat="43.52524" lon="5.61032">
        <ele>554</ele>
        <time>2022-10-19T11:48:20.587Z</time>
      </trkpt>
      <trkpt lat="43.52525" lon="5.61033">
        <ele>554</ele>
        <time>2022-10-19T11:48:21.587Z</time>
      </trkpt>
      <trkpt lat="43.52525" lon="5.61034">
        <ele>554</ele>
        <time>2022-10-19T11:48:22.587Z</time>
      </trkpt>
      <trkpt lat="43.52525" lon="5.61035">
        <ele>554</ele>
        <time>2022-10-19T11:48:23.587Z</time>
      </trkpt>
      <trkpt lat="43.52525" lon="5.61037">
        <ele>554</ele>
        <time>2022-10-19T11:48:24.587Z</time>
      </trkpt>
      <trkpt lat="43.52525" lon="5.61039">
        <ele>554</ele>
        <time>2022-10-19T11:48:25.587Z</time>
      </trkpt>
      <trkpt lat="43.52525" lon="5.6104">
        <ele>554</ele>
        <time>2022-10-19T11:48:26.587Z</time>
      </trkpt>
      <trkpt lat="43.52525" lon="5.61041">
        <ele>554</ele>
        <time>2022-10-19T11:48:27.587Z</time>
      </trkpt>
      <trkpt lat="43.52525" lon="5.61043">
        <ele>555</ele>
        <time>2022-10-19T11:48:28.587Z</time>
      </trkpt>
      <trkpt lat="43.52526" lon="5.61045">
        <ele>555</ele>
        <time>2022-10-19T11:48:29.587Z</time>
      </trkpt>
      <trkpt lat="43.52526" lon="5.61047">
        <ele>555</ele>
        <time>2022-10-19T11:48:30.587Z</time>
      </trkpt>
      <trkpt lat="43.52526" lon="5.61048">
        <ele>555</ele>
        <time>2022-10-19T11:48:31.587Z</time>
      </trkpt>
      <trkpt lat="43.52526" lon="5.6105">
        <ele>555</ele>
        <time>2022-10-19T11:48:32.587Z</time>
      </trkpt>
      <trkpt lat="43.52526" lon="5.61051">
        <ele>555</ele>
        <time>2022-10-19T11:48:33.587Z</time>
      </trkpt>
      <trkpt lat="43.52526" lon="5.61053">
        <ele>555</ele>
        <time>2022-10-19T11:48:34.587Z</time>
      </trkpt>
      <trkpt lat="43.52526" lon="5.61054">
        <ele>556</ele>
        <time>2022-10-19T11:48:35.587Z</time>
      </trkpt>
      <trkpt lat="43.52526" lon="5.61056">
        <ele>556</ele>
        <time>2022-10-19T11:48:36.587Z</time>
      </trkpt>
      <trkpt lat="43.52526" lon="5.61057">
        <ele>556</ele>
        <time>2022-10-19T11:48:37.587Z</time>
      </trkpt>
      <trkpt lat="43.52526" lon="5.61059">
        <ele>556</ele>
        <time>2022-10-19T11:48:38.587Z</time>
      </trkpt>
      <trkpt lat="43.52526" lon="5.61061">
        <ele>556</ele>
        <time>2022-10-19T11:48:39.587Z</time>
      </trkpt>
      <trkpt lat="43.52526" lon="5.61062">
        <ele>556</ele>
        <time>2022-10-19T11:48:40.587Z</time>
      </trkpt>
      <trkpt lat="43.52526" lon="5.61064">
        <ele>556</ele>
        <time>2022-10-19T11:48:41.587Z</time>
      </trkpt>
      <trkpt lat="43.52526" lon="5.61065">
        <ele>556</ele>
        <time>2022-10-19T11:48:42.587Z</time>
      </trkpt>
      <trkpt lat="43.52526" lon="5.61067">
        <ele>556</ele>
        <time>2022-10-19T11:48:43.587Z</time>
      </trkpt>
      <trkpt lat="43.52526" lon="5.61069">
        <ele>557</ele>
        <time>2022-10-19T11:48:44.587Z</time>
      </trkpt>
      <trkpt lat="43.52526" lon="5.6107">
        <ele>557</ele>
        <time>2022-10-19T11:48:45.587Z</time>
      </trkpt>
      <trkpt lat="43.52526" lon="5.61072">
        <ele>557</ele>
        <time>2022-10-19T11:48:46.587Z</time>
      </trkpt>
      <trkpt lat="43.52526" lon="5.61073">
        <ele>557</ele>
        <time>2022-10-19T11:48:47.587Z</time>
      </trkpt>
      <trkpt lat="43.52525" lon="5.61075">
        <ele>557</ele>
        <time>2022-10-19T11:48:48.587Z</time>
      </trkpt>
      <trkpt lat="43.52525" lon="5.61077">
        <ele>557</ele>
        <time>2022-10-19T11:48:49.587Z</time>
      </trkpt>
      <trkpt lat="43.52525" lon="5.61078">
        <ele>557</ele>
        <time>2022-10-19T11:48:50.587Z</time>
      </trkpt>
      <trkpt lat="43.52525" lon="5.6108">
        <ele>557</ele>
        <time>2022-10-19T11:48:51.587Z</time>
      </trkpt>
      <trkpt lat="43.52525" lon="5.61081">
        <ele>557</ele>
        <time>2022-10-19T11:48:52.587Z</time>
      </trkpt>
      <trkpt lat="43.52525" lon="5.61083">
        <ele>557</ele>
        <time>2022-10-19T11:48:53.587Z</time>
      </trkpt>
      <trkpt lat="43.52525" lon="5.61085">
        <ele>557</ele>
        <time>2022-10-19T11:48:54.587Z</time>
      </trkpt>
      <trkpt lat="43.52525" lon="5.61087">
        <ele>558</ele>
        <time>2022-10-19T11:48:55.587Z</time>
      </trkpt>
      <trkpt lat="43.52525" lon="5.61088">
        <ele>558</ele>
        <time>2022-10-19T11:48:56.587Z</time>
      </trkpt>
      <trkpt lat="43.52525" lon="5.61089">
        <ele>558</ele>
        <time>2022-10-19T11:48:57.587Z</time>
      </trkpt>
      <trkpt lat="43.52525" lon="5.61091">
        <ele>558</ele>
        <time>2022-10-19T11:48:58.587Z</time>
      </trkpt>
      <trkpt lat="43.52525" lon="5.61093">
        <ele>558</ele>
        <time>2022-10-19T11:48:59.587Z</time>
      </trkpt>
      <trkpt lat="43.52526" lon="5.61094">
        <ele>558</ele>
        <time>2022-10-19T11:49:00.587Z</time>
      </trkpt>
      <trkpt lat="43.52526" lon="5.61095">
        <ele>558</ele>
        <time>2022-10-19T11:49:01.587Z</time>
      </trkpt>
      <trkpt lat="43.52526" lon="5.61097">
        <ele>558</ele>
        <time>2022-10-19T11:49:02.587Z</time>
      </trkpt>
      <trkpt lat="43.52527" lon="5.61098">
        <ele>558</ele>
        <time>2022-10-19T11:49:03.587Z</time>
      </trkpt>
      <trkpt lat="43.52527" lon="5.611">
        <ele>558</ele>
        <time>2022-10-19T11:49:04.587Z</time>
      </trkpt>
      <trkpt lat="43.52528" lon="5.61101">
        <ele>558</ele>
        <time>2022-10-19T11:49:05.587Z</time>
      </trkpt>
      <trkpt lat="43.52528" lon="5.61102">
        <ele>558</ele>
        <time>2022-10-19T11:49:06.587Z</time>
      </trkpt>
      <trkpt lat="43.52529" lon="5.61103">
        <ele>558</ele>
        <time>2022-10-19T11:49:07.587Z</time>
      </trkpt>
      <trkpt lat="43.5253" lon="5.61105">
        <ele>558</ele>
        <time>2022-10-19T11:49:08.587Z</time>
      </trkpt>
      <trkpt lat="43.52531" lon="5.61106">
        <ele>558</ele>
        <time>2022-10-19T11:49:09.587Z</time>
      </trkpt>
      <trkpt lat="43.52531" lon="5.61107">
        <ele>558</ele>
        <time>2022-10-19T11:49:10.587Z</time>
      </trkpt>
      <trkpt lat="43.52532" lon="5.61108">
        <ele>558</ele>
        <time>2022-10-19T11:49:11.587Z</time>
      </trkpt>
      <trkpt lat="43.52532" lon="5.61109">
        <ele>558</ele>
        <time>2022-10-19T11:49:12.587Z</time>
      </trkpt>
      <trkpt lat="43.52533" lon="5.6111">
        <ele>558</ele>
        <time>2022-10-19T11:49:13.587Z</time>
      </trkpt>
      <trkpt lat="43.52533" lon="5.61112">
        <ele>558</ele>
        <time>2022-10-19T11:49:14.587Z</time>
      </trkpt>
      <trkpt lat="43.52534" lon="5.61113">
        <ele>559</ele>
        <time>2022-10-19T11:49:15.587Z</time>
      </trkpt>
      <trkpt lat="43.52534" lon="5.61114">
        <ele>559</ele>
        <time>2022-10-19T11:49:16.587Z</time>
      </trkpt>
      <trkpt lat="43.52535" lon="5.61115">
        <ele>559</ele>
        <time>2022-10-19T11:49:17.587Z</time>
      </trkpt>
      <trkpt lat="43.52535" lon="5.61116">
        <ele>559</ele>
        <time>2022-10-19T11:49:18.587Z</time>
      </trkpt>
      <trkpt lat="43.52536" lon="5.61117">
        <ele>559</ele>
        <time>2022-10-19T11:49:19.587Z</time>
      </trkpt>
      <trkpt lat="43.52536" lon="5.61118">
        <ele>559</ele>
        <time>2022-10-19T11:49:20.587Z</time>
      </trkpt>
      <trkpt lat="43.52537" lon="5.6112">
        <ele>559</ele>
        <time>2022-10-19T11:49:21.587Z</time>
      </trkpt>
      <trkpt lat="43.52537" lon="5.61121">
        <ele>559</ele>
        <time>2022-10-19T11:49:22.587Z</time>
      </trkpt>
      <trkpt lat="43.52538" lon="5.61122">
        <ele>559</ele>
        <time>2022-10-19T11:49:23.587Z</time>
      </trkpt>
      <trkpt lat="43.52538" lon="5.61123">
        <ele>559</ele>
        <time>2022-10-19T11:49:24.587Z</time>
      </trkpt>
      <trkpt lat="43.52538" lon="5.61124">
        <ele>559</ele>
        <time>2022-10-19T11:49:25.587Z</time>
      </trkpt>
      <trkpt lat="43.52539" lon="5.61126">
        <ele>559</ele>
        <time>2022-10-19T11:49:26.587Z</time>
      </trkpt>
      <trkpt lat="43.5254" lon="5.61127">
        <ele>559</ele>
        <time>2022-10-19T11:49:27.587Z</time>
      </trkpt>
      <trkpt lat="43.5254" lon="5.61129">
        <ele>559</ele>
        <time>2022-10-19T11:49:28.587Z</time>
      </trkpt>
      <trkpt lat="43.52541" lon="5.6113">
        <ele>559</ele>
        <time>2022-10-19T11:49:29.587Z</time>
      </trkpt>
      <trkpt lat="43.52541" lon="5.61131">
        <ele>559</ele>
        <time>2022-10-19T11:49:30.587Z</time>
      </trkpt>
      <trkpt lat="43.52542" lon="5.61132">
        <ele>560</ele>
        <time>2022-10-19T11:49:31.587Z</time>
      </trkpt>
      <trkpt lat="43.52542" lon="5.61134">
        <ele>560</ele>
        <time>2022-10-19T11:49:32.587Z</time>
      </trkpt>
      <trkpt lat="43.52542" lon="5.61135">
        <ele>560</ele>
        <time>2022-10-19T11:49:33.587Z</time>
      </trkpt>
      <trkpt lat="43.52543" lon="5.61137">
        <ele>560</ele>
        <time>2022-10-19T11:49:34.587Z</time>
      </trkpt>
      <trkpt lat="43.52543" lon="5.61138">
        <ele>560</ele>
        <time>2022-10-19T11:49:35.587Z</time>
      </trkpt>
      <trkpt lat="43.52543" lon="5.6114">
        <ele>560</ele>
        <time>2022-10-19T11:49:36.587Z</time>
      </trkpt>
      <trkpt lat="43.52544" lon="5.61141">
        <ele>560</ele>
        <time>2022-10-19T11:49:37.587Z</time>
      </trkpt>
      <trkpt lat="43.52544" lon="5.61143">
        <ele>560</ele>
        <time>2022-10-19T11:49:38.587Z</time>
      </trkpt>
      <trkpt lat="43.52544" lon="5.61144">
        <ele>560</ele>
        <time>2022-10-19T11:49:39.587Z</time>
      </trkpt>
      <trkpt lat="43.52544" lon="5.61146">
        <ele>561</ele>
        <time>2022-10-19T11:49:40.587Z</time>
      </trkpt>
      <trkpt lat="43.52545" lon="5.61148">
        <ele>561</ele>
        <time>2022-10-19T11:49:41.587Z</time>
      </trkpt>
      <trkpt lat="43.52545" lon="5.61149">
        <ele>561</ele>
        <time>2022-10-19T11:49:42.587Z</time>
      </trkpt>
      <trkpt lat="43.52545" lon="5.61151">
        <ele>561</ele>
        <time>2022-10-19T11:49:43.587Z</time>
      </trkpt>
      <trkpt lat="43.52545" lon="5.61152">
        <ele>561</ele>
        <time>2022-10-19T11:49:44.587Z</time>
      </trkpt>
      <trkpt lat="43.52545" lon="5.61154">
        <ele>561</ele>
        <time>2022-10-19T11:49:45.587Z</time>
      </trkpt>
      <trkpt lat="43.52545" lon="5.61156">
        <ele>561</ele>
        <time>2022-10-19T11:49:46.587Z</time>
      </trkpt>
      <trkpt lat="43.52545" lon="5.61157">
        <ele>561</ele>
        <time>2022-10-19T11:49:47.587Z</time>
      </trkpt>
      <trkpt lat="43.52545" lon="5.61158">
        <ele>562</ele>
        <time>2022-10-19T11:49:48.587Z</time>
      </trkpt>
      <trkpt lat="43.52545" lon="5.61159">
        <ele>562</ele>
        <time>2022-10-19T11:49:49.587Z</time>
      </trkpt>
      <trkpt lat="43.52545" lon="5.61161">
        <ele>562</ele>
        <time>2022-10-19T11:49:50.587Z</time>
      </trkpt>
      <trkpt lat="43.52545" lon="5.61162">
        <ele>562</ele>
        <time>2022-10-19T11:49:51.587Z</time>
      </trkpt>
      <trkpt lat="43.52545" lon="5.61163">
        <ele>562</ele>
        <time>2022-10-19T11:49:52.587Z</time>
      </trkpt>
      <trkpt lat="43.52545" lon="5.61165">
        <ele>562</ele>
        <time>2022-10-19T11:49:53.587Z</time>
      </trkpt>
      <trkpt lat="43.52545" lon="5.61166">
        <ele>562</ele>
        <time>2022-10-19T11:49:54.587Z</time>
      </trkpt>
      <trkpt lat="43.52545" lon="5.61167">
        <ele>563</ele>
        <time>2022-10-19T11:49:55.587Z</time>
      </trkpt>
      <trkpt lat="43.52545" lon="5.61168">
        <ele>563</ele>
        <time>2022-10-19T11:49:56.587Z</time>
      </trkpt>
      <trkpt lat="43.52545" lon="5.61169">
        <ele>563</ele>
        <time>2022-10-19T11:49:57.587Z</time>
      </trkpt>
      <trkpt lat="43.52545" lon="5.6117">
        <ele>563</ele>
        <time>2022-10-19T11:49:58.587Z</time>
      </trkpt>
      <trkpt lat="43.52545" lon="5.6117">
        <ele>563</ele>
        <time>2022-10-19T11:49:59.587Z</time>
      </trkpt>
      <trkpt lat="43.52546" lon="5.6117">
        <ele>563</ele>
        <time>2022-10-19T11:50:00.587Z</time>
      </trkpt>
      <trkpt lat="43.52546" lon="5.6117">
        <ele>563</ele>
        <time>2022-10-19T11:50:01.587Z</time>
      </trkpt>
      <trkpt lat="43.52546" lon="5.6117">
        <ele>564</ele>
        <time>2022-10-19T11:50:02.587Z</time>
      </trkpt>
      <trkpt lat="43.52546" lon="5.6117">
        <ele>564</ele>
        <time>2022-10-19T11:50:03.587Z</time>
      </trkpt>
      <trkpt lat="43.52546" lon="5.6117">
        <ele>564</ele>
        <time>2022-10-19T11:50:04.587Z</time>
      </trkpt>
      <trkpt lat="43.52546" lon="5.6117">
        <ele>564</ele>
        <time>2022-10-19T11:50:05.587Z</time>
      </trkpt>
      <trkpt lat="43.52546" lon="5.61171">
        <ele>564</ele>
        <time>2022-10-19T11:50:06.587Z</time>
      </trkpt>
      <trkpt lat="43.52546" lon="5.6117">
        <ele>564</ele>
        <time>2022-10-19T11:50:07.587Z</time>
      </trkpt>
      <trkpt lat="43.52547" lon="5.61171">
        <ele>565</ele>
        <time>2022-10-19T11:50:08.587Z</time>
      </trkpt>
      <trkpt lat="43.52547" lon="5.61171">
        <ele>565</ele>
        <time>2022-10-19T11:50:09.587Z</time>
      </trkpt>
      <trkpt lat="43.52547" lon="5.61171">
        <ele>565</ele>
        <time>2022-10-19T11:50:10.587Z</time>
      </trkpt>
      <trkpt lat="43.52547" lon="5.61171">
        <ele>565</ele>
        <time>2022-10-19T11:50:11.587Z</time>
      </trkpt>
      <trkpt lat="43.52547" lon="5.61171">
        <ele>565</ele>
        <time>2022-10-19T11:50:12.587Z</time>
      </trkpt>
      <trkpt lat="43.52547" lon="5.61171">
        <ele>565</ele>
        <time>2022-10-19T11:50:13.587Z</time>
      </trkpt>
      <trkpt lat="43.52547" lon="5.61171">
        <ele>565</ele>
        <time>2022-10-19T11:50:14.587Z</time>
      </trkpt>
      <trkpt lat="43.52547" lon="5.61171">
        <ele>565</ele>
        <time>2022-10-19T11:50:15.587Z</time>
      </trkpt>
      <trkpt lat="43.52547" lon="5.61171">
        <ele>566</ele>
        <time>2022-10-19T11:50:16.587Z</time>
      </trkpt>
      <trkpt lat="43.52547" lon="5.61171">
        <ele>566</ele>
        <time>2022-10-19T11:50:17.587Z</time>
      </trkpt>
      <trkpt lat="43.52547" lon="5.61171">
        <ele>566</ele>
        <time>2022-10-19T11:50:18.587Z</time>
      </trkpt>
      <trkpt lat="43.52547" lon="5.61172">
        <ele>566</ele>
        <time>2022-10-19T11:50:19.587Z</time>
      </trkpt>
      <trkpt lat="43.52547" lon="5.61173">
        <ele>566</ele>
        <time>2022-10-19T11:50:20.587Z</time>
      </trkpt>
      <trkpt lat="43.52547" lon="5.61174">
        <ele>566</ele>
        <time>2022-10-19T11:50:21.587Z</time>
      </trkpt>
      <trkpt lat="43.52547" lon="5.61176">
        <ele>566</ele>
        <time>2022-10-19T11:50:22.587Z</time>
      </trkpt>
      <trkpt lat="43.52547" lon="5.61177">
        <ele>566</ele>
        <time>2022-10-19T11:50:23.587Z</time>
      </trkpt>
      <trkpt lat="43.52546" lon="5.61179">
        <ele>566</ele>
        <time>2022-10-19T11:50:24.587Z</time>
      </trkpt>
      <trkpt lat="43.52546" lon="5.6118">
        <ele>567</ele>
        <time>2022-10-19T11:50:25.587Z</time>
      </trkpt>
      <trkpt lat="43.52545" lon="5.61181">
        <ele>567</ele>
        <time>2022-10-19T11:50:26.587Z</time>
      </trkpt>
      <trkpt lat="43.52545" lon="5.61183">
        <ele>567</ele>
        <time>2022-10-19T11:50:27.587Z</time>
      </trkpt>
      <trkpt lat="43.52545" lon="5.61184">
        <ele>567</ele>
        <time>2022-10-19T11:50:28.587Z</time>
      </trkpt>
      <trkpt lat="43.52545" lon="5.61186">
        <ele>567</ele>
        <time>2022-10-19T11:50:29.587Z</time>
      </trkpt>
      <trkpt lat="43.52545" lon="5.61187">
        <ele>567</ele>
        <time>2022-10-19T11:50:30.587Z</time>
      </trkpt>
      <trkpt lat="43.52544" lon="5.61189">
        <ele>568</ele>
        <time>2022-10-19T11:50:31.587Z</time>
      </trkpt>
      <trkpt lat="43.52544" lon="5.6119">
        <ele>568</ele>
        <time>2022-10-19T11:50:32.587Z</time>
      </trkpt>
      <trkpt lat="43.52544" lon="5.61191">
        <ele>568</ele>
        <time>2022-10-19T11:50:33.587Z</time>
      </trkpt>
      <trkpt lat="43.52544" lon="5.61193">
        <ele>568</ele>
        <time>2022-10-19T11:50:34.587Z</time>
      </trkpt>
      <trkpt lat="43.52545" lon="5.61195">
        <ele>568</ele>
        <time>2022-10-19T11:50:35.587Z</time>
      </trkpt>
      <trkpt lat="43.52544" lon="5.61196">
        <ele>568</ele>
        <time>2022-10-19T11:50:36.587Z</time>
      </trkpt>
      <trkpt lat="43.52544" lon="5.61198">
        <ele>568</ele>
        <time>2022-10-19T11:50:37.587Z</time>
      </trkpt>
      <trkpt lat="43.52544" lon="5.61199">
        <ele>568</ele>
        <time>2022-10-19T11:50:38.587Z</time>
      </trkpt>
      <trkpt lat="43.52544" lon="5.61201">
        <ele>568</ele>
        <time>2022-10-19T11:50:39.587Z</time>
      </trkpt>
      <trkpt lat="43.52544" lon="5.61202">
        <ele>568</ele>
        <time>2022-10-19T11:50:40.587Z</time>
      </trkpt>
      <trkpt lat="43.52544" lon="5.61204">
        <ele>569</ele>
        <time>2022-10-19T11:50:41.587Z</time>
      </trkpt>
      <trkpt lat="43.52544" lon="5.61205">
        <ele>569</ele>
        <time>2022-10-19T11:50:42.587Z</time>
      </trkpt>
      <trkpt lat="43.52544" lon="5.61206">
        <ele>569</ele>
        <time>2022-10-19T11:50:43.587Z</time>
      </trkpt>
      <trkpt lat="43.52544" lon="5.61208">
        <ele>569</ele>
        <time>2022-10-19T11:50:44.587Z</time>
      </trkpt>
      <trkpt lat="43.52544" lon="5.61209">
        <ele>569</ele>
        <time>2022-10-19T11:50:45.587Z</time>
      </trkpt>
      <trkpt lat="43.52544" lon="5.61211">
        <ele>569</ele>
        <time>2022-10-19T11:50:46.587Z</time>
      </trkpt>
      <trkpt lat="43.52545" lon="5.61212">
        <ele>569</ele>
        <time>2022-10-19T11:50:47.587Z</time>
      </trkpt>
      <trkpt lat="43.52545" lon="5.61214">
        <ele>569</ele>
        <time>2022-10-19T11:50:48.587Z</time>
      </trkpt>
      <trkpt lat="43.52545" lon="5.61215">
        <ele>569</ele>
        <time>2022-10-19T11:50:49.587Z</time>
      </trkpt>
      <trkpt lat="43.52545" lon="5.61216">
        <ele>570</ele>
        <time>2022-10-19T11:50:50.587Z</time>
      </trkpt>
      <trkpt lat="43.52545" lon="5.61218">
        <ele>570</ele>
        <time>2022-10-19T11:50:51.587Z</time>
      </trkpt>
      <trkpt lat="43.52545" lon="5.61219">
        <ele>570</ele>
        <time>2022-10-19T11:50:52.587Z</time>
      </trkpt>
      <trkpt lat="43.52545" lon="5.6122">
        <ele>570</ele>
        <time>2022-10-19T11:50:53.587Z</time>
      </trkpt>
      <trkpt lat="43.52545" lon="5.61222">
        <ele>570</ele>
        <time>2022-10-19T11:50:54.587Z</time>
      </trkpt>
      <trkpt lat="43.52545" lon="5.61223">
        <ele>570</ele>
        <time>2022-10-19T11:50:55.587Z</time>
      </trkpt>
      <trkpt lat="43.52545" lon="5.61224">
        <ele>570</ele>
        <time>2022-10-19T11:50:56.587Z</time>
      </trkpt>
      <trkpt lat="43.52546" lon="5.61226">
        <ele>570</ele>
        <time>2022-10-19T11:50:57.587Z</time>
      </trkpt>
      <trkpt lat="43.52546" lon="5.61227">
        <ele>570</ele>
        <time>2022-10-19T11:50:58.587Z</time>
      </trkpt>
      <trkpt lat="43.52546" lon="5.61229">
        <ele>570</ele>
        <time>2022-10-19T11:50:59.587Z</time>
      </trkpt>
      <trkpt lat="43.52545" lon="5.6123">
        <ele>571</ele>
        <time>2022-10-19T11:51:00.587Z</time>
      </trkpt>
      <trkpt lat="43.52545" lon="5.61232">
        <ele>571</ele>
        <time>2022-10-19T11:51:01.587Z</time>
      </trkpt>
      <trkpt lat="43.52545" lon="5.61233">
        <ele>571</ele>
        <time>2022-10-19T11:51:02.587Z</time>
      </trkpt>
      <trkpt lat="43.52545" lon="5.61234">
        <ele>571</ele>
        <time>2022-10-19T11:51:03.587Z</time>
      </trkpt>
      <trkpt lat="43.52545" lon="5.61236">
        <ele>571</ele>
        <time>2022-10-19T11:51:04.587Z</time>
      </trkpt>
      <trkpt lat="43.52545" lon="5.61237">
        <ele>571</ele>
        <time>2022-10-19T11:51:05.587Z</time>
      </trkpt>
      <trkpt lat="43.52545" lon="5.61239">
        <ele>571</ele>
        <time>2022-10-19T11:51:06.587Z</time>
      </trkpt>
      <trkpt lat="43.52545" lon="5.6124">
        <ele>571</ele>
        <time>2022-10-19T11:51:07.587Z</time>
      </trkpt>
      <trkpt lat="43.52545" lon="5.61242">
        <ele>571</ele>
        <time>2022-10-19T11:51:08.587Z</time>
      </trkpt>
      <trkpt lat="43.52545" lon="5.61243">
        <ele>571</ele>
        <time>2022-10-19T11:51:09.587Z</time>
      </trkpt>
      <trkpt lat="43.52545" lon="5.61245">
        <ele>572</ele>
        <time>2022-10-19T11:51:10.587Z</time>
      </trkpt>
      <trkpt lat="43.52545" lon="5.61246">
        <ele>572</ele>
        <time>2022-10-19T11:51:11.587Z</time>
      </trkpt>
      <trkpt lat="43.52545" lon="5.61247">
        <ele>572</ele>
        <time>2022-10-19T11:51:12.587Z</time>
      </trkpt>
      <trkpt lat="43.52545" lon="5.61249">
        <ele>572</ele>
        <time>2022-10-19T11:51:13.587Z</time>
      </trkpt>
      <trkpt lat="43.52545" lon="5.6125">
        <ele>572</ele>
        <time>2022-10-19T11:51:14.587Z</time>
      </trkpt>
      <trkpt lat="43.52545" lon="5.61251">
        <ele>572</ele>
        <time>2022-10-19T11:51:15.587Z</time>
      </trkpt>
      <trkpt lat="43.52545" lon="5.61253">
        <ele>572</ele>
        <time>2022-10-19T11:51:16.587Z</time>
      </trkpt>
      <trkpt lat="43.52545" lon="5.61254">
        <ele>572</ele>
        <time>2022-10-19T11:51:17.587Z</time>
      </trkpt>
      <trkpt lat="43.52545" lon="5.61256">
        <ele>572</ele>
        <time>2022-10-19T11:51:18.587Z</time>
      </trkpt>
      <trkpt lat="43.52545" lon="5.61257">
        <ele>572</ele>
        <time>2022-10-19T11:51:19.587Z</time>
      </trkpt>
      <trkpt lat="43.52546" lon="5.61258">
        <ele>572</ele>
        <time>2022-10-19T11:51:20.587Z</time>
      </trkpt>
      <trkpt lat="43.52546" lon="5.61259">
        <ele>572</ele>
        <time>2022-10-19T11:51:21.587Z</time>
      </trkpt>
      <trkpt lat="43.52546" lon="5.6126">
        <ele>572</ele>
        <time>2022-10-19T11:51:22.587Z</time>
      </trkpt>
      <trkpt lat="43.52546" lon="5.61262">
        <ele>572</ele>
        <time>2022-10-19T11:51:23.587Z</time>
      </trkpt>
      <trkpt lat="43.52546" lon="5.61263">
        <ele>572</ele>
        <time>2022-10-19T11:51:24.587Z</time>
      </trkpt>
      <trkpt lat="43.52546" lon="5.61264">
        <ele>572</ele>
        <time>2022-10-19T11:51:25.587Z</time>
      </trkpt>
      <trkpt lat="43.52546" lon="5.61266">
        <ele>572</ele>
        <time>2022-10-19T11:51:26.587Z</time>
      </trkpt>
      <trkpt lat="43.52546" lon="5.61267">
        <ele>572</ele>
        <time>2022-10-19T11:51:27.587Z</time>
      </trkpt>
      <trkpt lat="43.52546" lon="5.61268">
        <ele>572</ele>
        <time>2022-10-19T11:51:28.587Z</time>
      </trkpt>
      <trkpt lat="43.52546" lon="5.6127">
        <ele>572</ele>
        <time>2022-10-19T11:51:29.587Z</time>
      </trkpt>
      <trkpt lat="43.52546" lon="5.61272">
        <ele>572</ele>
        <time>2022-10-19T11:51:30.587Z</time>
      </trkpt>
      <trkpt lat="43.52546" lon="5.61273">
        <ele>572</ele>
        <time>2022-10-19T11:51:31.587Z</time>
      </trkpt>
      <trkpt lat="43.52547" lon="5.61274">
        <ele>572</ele>
        <time>2022-10-19T11:51:32.587Z</time>
      </trkpt>
      <trkpt lat="43.52547" lon="5.61276">
        <ele>573</ele>
        <time>2022-10-19T11:51:33.587Z</time>
      </trkpt>
      <trkpt lat="43.52547" lon="5.61277">
        <ele>573</ele>
        <time>2022-10-19T11:51:34.587Z</time>
      </trkpt>
      <trkpt lat="43.52547" lon="5.61279">
        <ele>573</ele>
        <time>2022-10-19T11:51:35.587Z</time>
      </trkpt>
      <trkpt lat="43.52547" lon="5.61281">
        <ele>573</ele>
        <time>2022-10-19T11:51:36.587Z</time>
      </trkpt>
      <trkpt lat="43.52547" lon="5.61282">
        <ele>573</ele>
        <time>2022-10-19T11:51:37.587Z</time>
      </trkpt>
      <trkpt lat="43.52548" lon="5.61284">
        <ele>573</ele>
        <time>2022-10-19T11:51:38.587Z</time>
      </trkpt>
      <trkpt lat="43.52548" lon="5.61286">
        <ele>573</ele>
        <time>2022-10-19T11:51:39.587Z</time>
      </trkpt>
      <trkpt lat="43.52548" lon="5.61288">
        <ele>573</ele>
        <time>2022-10-19T11:51:40.587Z</time>
      </trkpt>
      <trkpt lat="43.52548" lon="5.61289">
        <ele>573</ele>
        <time>2022-10-19T11:51:41.587Z</time>
      </trkpt>
      <trkpt lat="43.52548" lon="5.6129">
        <ele>573</ele>
        <time>2022-10-19T11:51:42.587Z</time>
      </trkpt>
      <trkpt lat="43.52548" lon="5.61292">
        <ele>573</ele>
        <time>2022-10-19T11:51:43.587Z</time>
      </trkpt>
      <trkpt lat="43.52548" lon="5.61294">
        <ele>573</ele>
        <time>2022-10-19T11:51:44.587Z</time>
      </trkpt>
      <trkpt lat="43.52549" lon="5.61295">
        <ele>573</ele>
        <time>2022-10-19T11:51:45.587Z</time>
      </trkpt>
      <trkpt lat="43.52549" lon="5.61297">
        <ele>573</ele>
        <time>2022-10-19T11:51:46.587Z</time>
      </trkpt>
      <trkpt lat="43.52549" lon="5.61298">
        <ele>573</ele>
        <time>2022-10-19T11:51:47.587Z</time>
      </trkpt>
      <trkpt lat="43.52549" lon="5.61299">
        <ele>574</ele>
        <time>2022-10-19T11:51:48.587Z</time>
      </trkpt>
      <trkpt lat="43.5255" lon="5.61301">
        <ele>574</ele>
        <time>2022-10-19T11:51:49.587Z</time>
      </trkpt>
      <trkpt lat="43.5255" lon="5.61302">
        <ele>574</ele>
        <time>2022-10-19T11:51:50.587Z</time>
      </trkpt>
      <trkpt lat="43.5255" lon="5.61304">
        <ele>574</ele>
        <time>2022-10-19T11:51:51.587Z</time>
      </trkpt>
      <trkpt lat="43.5255" lon="5.61305">
        <ele>574</ele>
        <time>2022-10-19T11:51:52.587Z</time>
      </trkpt>
      <trkpt lat="43.52549" lon="5.61307">
        <ele>574</ele>
        <time>2022-10-19T11:51:53.587Z</time>
      </trkpt>
      <trkpt lat="43.52549" lon="5.61308">
        <ele>575</ele>
        <time>2022-10-19T11:51:54.587Z</time>
      </trkpt>
      <trkpt lat="43.52549" lon="5.61309">
        <ele>575</ele>
        <time>2022-10-19T11:51:55.587Z</time>
      </trkpt>
      <trkpt lat="43.52549" lon="5.61311">
        <ele>575</ele>
        <time>2022-10-19T11:51:56.587Z</time>
      </trkpt>
      <trkpt lat="43.52549" lon="5.61312">
        <ele>575</ele>
        <time>2022-10-19T11:51:57.587Z</time>
      </trkpt>
      <trkpt lat="43.52548" lon="5.61313">
        <ele>575</ele>
        <time>2022-10-19T11:51:58.587Z</time>
      </trkpt>
      <trkpt lat="43.52548" lon="5.61313">
        <ele>575</ele>
        <time>2022-10-19T11:51:59.587Z</time>
      </trkpt>
      <trkpt lat="43.52548" lon="5.61313">
        <ele>575</ele>
        <time>2022-10-19T11:52:00.587Z</time>
      </trkpt>
      <trkpt lat="43.52548" lon="5.61313">
        <ele>575</ele>
        <time>2022-10-19T11:52:01.587Z</time>
      </trkpt>
      <trkpt lat="43.52548" lon="5.61313">
        <ele>576</ele>
        <time>2022-10-19T11:52:02.587Z</time>
      </trkpt>
      <trkpt lat="43.52548" lon="5.61313">
        <ele>576</ele>
        <time>2022-10-19T11:52:03.587Z</time>
      </trkpt>
      <trkpt lat="43.52548" lon="5.61313">
        <ele>576</ele>
        <time>2022-10-19T11:52:04.587Z</time>
      </trkpt>
      <trkpt lat="43.52548" lon="5.61313">
        <ele>576</ele>
        <time>2022-10-19T11:52:05.587Z</time>
      </trkpt>
      <trkpt lat="43.52549" lon="5.61314">
        <ele>576</ele>
        <time>2022-10-19T11:52:06.587Z</time>
      </trkpt>
      <trkpt lat="43.52549" lon="5.61314">
        <ele>576</ele>
        <time>2022-10-19T11:52:07.587Z</time>
      </trkpt>
      <trkpt lat="43.52549" lon="5.61314">
        <ele>576</ele>
        <time>2022-10-19T11:52:08.587Z</time>
      </trkpt>
      <trkpt lat="43.52549" lon="5.61314">
        <ele>576</ele>
        <time>2022-10-19T11:52:09.587Z</time>
      </trkpt>
      <trkpt lat="43.52549" lon="5.61314">
        <ele>576</ele>
        <time>2022-10-19T11:52:10.587Z</time>
      </trkpt>
      <trkpt lat="43.52549" lon="5.61314">
        <ele>576</ele>
        <time>2022-10-19T11:52:11.587Z</time>
      </trkpt>
      <trkpt lat="43.52549" lon="5.61314">
        <ele>576</ele>
        <time>2022-10-19T11:52:12.587Z</time>
      </trkpt>
      <trkpt lat="43.52549" lon="5.61314">
        <ele>576</ele>
        <time>2022-10-19T11:52:13.587Z</time>
      </trkpt>
      <trkpt lat="43.52549" lon="5.61314">
        <ele>576</ele>
        <time>2022-10-19T11:52:14.587Z</time>
      </trkpt>
      <trkpt lat="43.52549" lon="5.61314">
        <ele>576</ele>
        <time>2022-10-19T11:52:15.587Z</time>
      </trkpt>
      <trkpt lat="43.52549" lon="5.61314">
        <ele>576</ele>
        <time>2022-10-19T11:52:16.587Z</time>
      </trkpt>
      <trkpt lat="43.52549" lon="5.61314">
        <ele>576</ele>
        <time>2022-10-19T11:52:17.587Z</time>
      </trkpt>
      <trkpt lat="43.52549" lon="5.61314">
        <ele>576</ele>
        <time>2022-10-19T11:52:18.587Z</time>
      </trkpt>
      <trkpt lat="43.52549" lon="5.61314">
        <ele>576</ele>
        <time>2022-10-19T11:52:19.587Z</time>
      </trkpt>
      <trkpt lat="43.52549" lon="5.61314">
        <ele>576</ele>
        <time>2022-10-19T11:52:20.587Z</time>
      </trkpt>
      <trkpt lat="43.52549" lon="5.61314">
        <ele>576</ele>
        <time>2022-10-19T11:52:21.587Z</time>
      </trkpt>
      <trkpt lat="43.52549" lon="5.61314">
        <ele>576</ele>
        <time>2022-10-19T11:52:22.587Z</time>
      </trkpt>
      <trkpt lat="43.52549" lon="5.61314">
        <ele>576</ele>
        <time>2022-10-19T11:52:23.587Z</time>
      </trkpt>
      <trkpt lat="43.52549" lon="5.61314">
        <ele>577</ele>
        <time>2022-10-19T11:52:24.587Z</time>
      </trkpt>
      <trkpt lat="43.52549" lon="5.61314">
        <ele>577</ele>
        <time>2022-10-19T11:52:25.587Z</time>
      </trkpt>
      <trkpt lat="43.52549" lon="5.61314">
        <ele>577</ele>
        <time>2022-10-19T11:52:26.587Z</time>
      </trkpt>
      <trkpt lat="43.52549" lon="5.61314">
        <ele>577</ele>
        <time>2022-10-19T11:52:27.587Z</time>
      </trkpt>
      <trkpt lat="43.52549" lon="5.61314">
        <ele>577</ele>
        <time>2022-10-19T11:52:28.587Z</time>
      </trkpt>
      <trkpt lat="43.52549" lon="5.61314">
        <ele>577</ele>
        <time>2022-10-19T11:52:29.587Z</time>
      </trkpt>
      <trkpt lat="43.52549" lon="5.61314">
        <ele>577</ele>
        <time>2022-10-19T11:52:30.587Z</time>
      </trkpt>
      <trkpt lat="43.52549" lon="5.61314">
        <ele>577</ele>
        <time>2022-10-19T11:52:31.587Z</time>
      </trkpt>
      <trkpt lat="43.52549" lon="5.61314">
        <ele>577</ele>
        <time>2022-10-19T11:52:32.587Z</time>
      </trkpt>
      <trkpt lat="43.52549" lon="5.61314">
        <ele>577</ele>
        <time>2022-10-19T11:52:33.587Z</time>
      </trkpt>
      <trkpt lat="43.52549" lon="5.61314">
        <ele>577</ele>
        <time>2022-10-19T11:52:34.587Z</time>
      </trkpt>
      <trkpt lat="43.52549" lon="5.61314">
        <ele>577</ele>
        <time>2022-10-19T11:52:35.587Z</time>
      </trkpt>
      <trkpt lat="43.52549" lon="5.61314">
        <ele>577</ele>
        <time>2022-10-19T11:52:36.587Z</time>
      </trkpt>
      <trkpt lat="43.52549" lon="5.61314">
        <ele>577</ele>
        <time>2022-10-19T11:52:37.587Z</time>
      </trkpt>
      <trkpt lat="43.52549" lon="5.61314">
        <ele>577</ele>
        <time>2022-10-19T11:52:38.587Z</time>
      </trkpt>
      <trkpt lat="43.52549" lon="5.61314">
        <ele>577</ele>
        <time>2022-10-19T11:52:39.587Z</time>
      </trkpt>
      <trkpt lat="43.52549" lon="5.61314">
        <ele>577</ele>
        <time>2022-10-19T11:52:40.587Z</time>
      </trkpt>
      <trkpt lat="43.52549" lon="5.61314">
        <ele>577</ele>
        <time>2022-10-19T11:52:41.587Z</time>
      </trkpt>
      <trkpt lat="43.52549" lon="5.61314">
        <ele>577</ele>
        <time>2022-10-19T11:52:42.587Z</time>
      </trkpt>
      <trkpt lat="43.52549" lon="5.61314">
        <ele>577</ele>
        <time>2022-10-19T11:52:43.587Z</time>
      </trkpt>
      <trkpt lat="43.52549" lon="5.61314">
        <ele>577</ele>
        <time>2022-10-19T11:52:44.587Z</time>
      </trkpt>
      <trkpt lat="43.52549" lon="5.61314">
        <ele>577</ele>
        <time>2022-10-19T11:52:45.587Z</time>
      </trkpt>
      <trkpt lat="43.52549" lon="5.61314">
        <ele>577</ele>
        <time>2022-10-19T11:52:46.587Z</time>
      </trkpt>
      <trkpt lat="43.52549" lon="5.61314">
        <ele>577</ele>
        <time>2022-10-19T11:52:47.587Z</time>
      </trkpt>
      <trkpt lat="43.52549" lon="5.61314">
        <ele>577</ele>
        <time>2022-10-19T11:52:48.587Z</time>
      </trkpt>
      <trkpt lat="43.52549" lon="5.61314">
        <ele>577</ele>
        <time>2022-10-19T11:52:49.587Z</time>
      </trkpt>
      <trkpt lat="43.52549" lon="5.61314">
        <ele>577</ele>
        <time>2022-10-19T11:52:50.587Z</time>
      </trkpt>
      <trkpt lat="43.52549" lon="5.61315">
        <ele>577</ele>
        <time>2022-10-19T11:52:51.587Z</time>
      </trkpt>
      <trkpt lat="43.52549" lon="5.61315">
        <ele>577</ele>
        <time>2022-10-19T11:52:52.587Z</time>
      </trkpt>
      <trkpt lat="43.52549" lon="5.61315">
        <ele>577</ele>
        <time>2022-10-19T11:52:53.587Z</time>
      </trkpt>
      <trkpt lat="43.52549" lon="5.61315">
        <ele>577</ele>
        <time>2022-10-19T11:52:54.587Z</time>
      </trkpt>
      <trkpt lat="43.52549" lon="5.61315">
        <ele>577</ele>
        <time>2022-10-19T11:52:55.587Z</time>
      </trkpt>
      <trkpt lat="43.52549" lon="5.61315">
        <ele>577</ele>
        <time>2022-10-19T11:52:56.587Z</time>
      </trkpt>
      <trkpt lat="43.52549" lon="5.61315">
        <ele>577</ele>
        <time>2022-10-19T11:52:57.587Z</time>
      </trkpt>
      <trkpt lat="43.52549" lon="5.61315">
        <ele>577</ele>
        <time>2022-10-19T11:52:58.587Z</time>
      </trkpt>
      <trkpt lat="43.52549" lon="5.61315">
        <ele>577</ele>
        <time>2022-10-19T11:52:59.587Z</time>
      </trkpt>
      <trkpt lat="43.52549" lon="5.61315">
        <ele>577</ele>
        <time>2022-10-19T11:53:00.587Z</time>
      </trkpt>
      <trkpt lat="43.52549" lon="5.61315">
        <ele>577</ele>
        <time>2022-10-19T11:53:01.587Z</time>
      </trkpt>
      <trkpt lat="43.52549" lon="5.61315">
        <ele>577</ele>
        <time>2022-10-19T11:53:02.587Z</time>
      </trkpt>
      <trkpt lat="43.52549" lon="5.61315">
        <ele>577</ele>
        <time>2022-10-19T11:53:03.587Z</time>
      </trkpt>
      <trkpt lat="43.52549" lon="5.61315">
        <ele>577</ele>
        <time>2022-10-19T11:53:04.587Z</time>
      </trkpt>
      <trkpt lat="43.52549" lon="5.61315">
        <ele>577</ele>
        <time>2022-10-19T11:53:05.587Z</time>
      </trkpt>
      <trkpt lat="43.52549" lon="5.61315">
        <ele>577</ele>
        <time>2022-10-19T11:53:06.587Z</time>
      </trkpt>
      <trkpt lat="43.52548" lon="5.61315">
        <ele>577</ele>
        <time>2022-10-19T11:53:07.587Z</time>
      </trkpt>
      <trkpt lat="43.52548" lon="5.61315">
        <ele>576</ele>
        <time>2022-10-19T11:53:08.587Z</time>
      </trkpt>
      <trkpt lat="43.52548" lon="5.61315">
        <ele>576</ele>
        <time>2022-10-19T11:53:09.587Z</time>
      </trkpt>
      <trkpt lat="43.52548" lon="5.61315">
        <ele>576</ele>
        <time>2022-10-19T11:53:10.587Z</time>
      </trkpt>
      <trkpt lat="43.52548" lon="5.61315">
        <ele>576</ele>
        <time>2022-10-19T11:53:11.587Z</time>
      </trkpt>
      <trkpt lat="43.52548" lon="5.61315">
        <ele>576</ele>
        <time>2022-10-19T11:53:12.587Z</time>
      </trkpt>
      <trkpt lat="43.52548" lon="5.61315">
        <ele>576</ele>
        <time>2022-10-19T11:53:13.587Z</time>
      </trkpt>
      <trkpt lat="43.52548" lon="5.61315">
        <ele>576</ele>
        <time>2022-10-19T11:53:14.587Z</time>
      </trkpt>
      <trkpt lat="43.52548" lon="5.61315">
        <ele>576</ele>
        <time>2022-10-19T11:53:15.587Z</time>
      </trkpt>
      <trkpt lat="43.52548" lon="5.61315">
        <ele>576</ele>
        <time>2022-10-19T11:53:16.587Z</time>
      </trkpt>
      <trkpt lat="43.52548" lon="5.61315">
        <ele>576</ele>
        <time>2022-10-19T11:53:17.587Z</time>
      </trkpt>
      <trkpt lat="43.52548" lon="5.61315">
        <ele>576</ele>
        <time>2022-10-19T11:53:18.587Z</time>
      </trkpt>
      <trkpt lat="43.52548" lon="5.61315">
        <ele>576</ele>
        <time>2022-10-19T11:53:19.587Z</time>
      </trkpt>
      <trkpt lat="43.52548" lon="5.61315">
        <ele>576</ele>
        <time>2022-10-19T11:53:20.587Z</time>
      </trkpt>
      <trkpt lat="43.52548" lon="5.61315">
        <ele>576</ele>
        <time>2022-10-19T11:53:21.587Z</time>
      </trkpt>
      <trkpt lat="43.52548" lon="5.61316">
        <ele>576</ele>
        <time>2022-10-19T11:53:22.587Z</time>
      </trkpt>
      <trkpt lat="43.52548" lon="5.61316">
        <ele>576</ele>
        <time>2022-10-19T11:53:23.587Z</time>
      </trkpt>
      <trkpt lat="43.52548" lon="5.61317">
        <ele>577</ele>
        <time>2022-10-19T11:53:24.587Z</time>
      </trkpt>
      <trkpt lat="43.52548" lon="5.61319">
        <ele>577</ele>
        <time>2022-10-19T11:53:25.587Z</time>
      </trkpt>
      <trkpt lat="43.52548" lon="5.6132">
        <ele>577</ele>
        <time>2022-10-19T11:53:26.587Z</time>
      </trkpt>
      <trkpt lat="43.52548" lon="5.61321">
        <ele>577</ele>
        <time>2022-10-19T11:53:27.587Z</time>
      </trkpt>
      <trkpt lat="43.52547" lon="5.61323">
        <ele>577</ele>
        <time>2022-10-19T11:53:28.587Z</time>
      </trkpt>
      <trkpt lat="43.52547" lon="5.61324">
        <ele>577</ele>
        <time>2022-10-19T11:53:29.587Z</time>
      </trkpt>
      <trkpt lat="43.52547" lon="5.61326">
        <ele>577</ele>
        <time>2022-10-19T11:53:30.587Z</time>
      </trkpt>
      <trkpt lat="43.52547" lon="5.61327">
        <ele>577</ele>
        <time>2022-10-19T11:53:31.587Z</time>
      </trkpt>
      <trkpt lat="43.52547" lon="5.61329">
        <ele>577</ele>
        <time>2022-10-19T11:53:32.587Z</time>
      </trkpt>
      <trkpt lat="43.52546" lon="5.6133">
        <ele>577</ele>
        <time>2022-10-19T11:53:33.587Z</time>
      </trkpt>
      <trkpt lat="43.52546" lon="5.61332">
        <ele>577</ele>
        <time>2022-10-19T11:53:34.587Z</time>
      </trkpt>
      <trkpt lat="43.52545" lon="5.61333">
        <ele>577</ele>
        <time>2022-10-19T11:53:35.587Z</time>
      </trkpt>
      <trkpt lat="43.52545" lon="5.61334">
        <ele>577</ele>
        <time>2022-10-19T11:53:36.587Z</time>
      </trkpt>
      <trkpt lat="43.52545" lon="5.61335">
        <ele>577</ele>
        <time>2022-10-19T11:53:37.587Z</time>
      </trkpt>
      <trkpt lat="43.52544" lon="5.61337">
        <ele>578</ele>
        <time>2022-10-19T11:53:38.587Z</time>
      </trkpt>
      <trkpt lat="43.52543" lon="5.61338">
        <ele>578</ele>
        <time>2022-10-19T11:53:39.587Z</time>
      </trkpt>
      <trkpt lat="43.52543" lon="5.61339">
        <ele>578</ele>
        <time>2022-10-19T11:53:40.587Z</time>
      </trkpt>
      <trkpt lat="43.52542" lon="5.6134">
        <ele>578</ele>
        <time>2022-10-19T11:53:41.587Z</time>
      </trkpt>
      <trkpt lat="43.52542" lon="5.61342">
        <ele>578</ele>
        <time>2022-10-19T11:53:42.587Z</time>
      </trkpt>
      <trkpt lat="43.52541" lon="5.61343">
        <ele>578</ele>
        <time>2022-10-19T11:53:43.587Z</time>
      </trkpt>
      <trkpt lat="43.52541" lon="5.61344">
        <ele>578</ele>
        <time>2022-10-19T11:53:44.587Z</time>
      </trkpt>
      <trkpt lat="43.5254" lon="5.61345">
        <ele>578</ele>
        <time>2022-10-19T11:53:45.587Z</time>
      </trkpt>
      <trkpt lat="43.5254" lon="5.61347">
        <ele>579</ele>
        <time>2022-10-19T11:53:46.587Z</time>
      </trkpt>
      <trkpt lat="43.5254" lon="5.61348">
        <ele>579</ele>
        <time>2022-10-19T11:53:47.587Z</time>
      </trkpt>
      <trkpt lat="43.52539" lon="5.6135">
        <ele>579</ele>
        <time>2022-10-19T11:53:48.587Z</time>
      </trkpt>
      <trkpt lat="43.52539" lon="5.61351">
        <ele>579</ele>
        <time>2022-10-19T11:53:49.587Z</time>
      </trkpt>
      <trkpt lat="43.52538" lon="5.61352">
        <ele>579</ele>
        <time>2022-10-19T11:53:50.587Z</time>
      </trkpt>
      <trkpt lat="43.52538" lon="5.61353">
        <ele>579</ele>
        <time>2022-10-19T11:53:51.587Z</time>
      </trkpt>
      <trkpt lat="43.52537" lon="5.61355">
        <ele>579</ele>
        <time>2022-10-19T11:53:52.587Z</time>
      </trkpt>
      <trkpt lat="43.52537" lon="5.61356">
        <ele>579</ele>
        <time>2022-10-19T11:53:53.587Z</time>
      </trkpt>
      <trkpt lat="43.52536" lon="5.61357">
        <ele>580</ele>
        <time>2022-10-19T11:53:54.587Z</time>
      </trkpt>
      <trkpt lat="43.52536" lon="5.61358">
        <ele>580</ele>
        <time>2022-10-19T11:53:55.587Z</time>
      </trkpt>
      <trkpt lat="43.52535" lon="5.61359">
        <ele>580</ele>
        <time>2022-10-19T11:53:56.587Z</time>
      </trkpt>
      <trkpt lat="43.52535" lon="5.6136">
        <ele>580</ele>
        <time>2022-10-19T11:53:57.587Z</time>
      </trkpt>
      <trkpt lat="43.52534" lon="5.61361">
        <ele>580</ele>
        <time>2022-10-19T11:53:58.587Z</time>
      </trkpt>
      <trkpt lat="43.52534" lon="5.61363">
        <ele>580</ele>
        <time>2022-10-19T11:53:59.587Z</time>
      </trkpt>
      <trkpt lat="43.52534" lon="5.61364">
        <ele>580</ele>
        <time>2022-10-19T11:54:00.587Z</time>
      </trkpt>
      <trkpt lat="43.52533" lon="5.61365">
        <ele>580</ele>
        <time>2022-10-19T11:54:01.587Z</time>
      </trkpt>
      <trkpt lat="43.52533" lon="5.61367">
        <ele>580</ele>
        <time>2022-10-19T11:54:02.587Z</time>
      </trkpt>
      <trkpt lat="43.52532" lon="5.61368">
        <ele>580</ele>
        <time>2022-10-19T11:54:03.587Z</time>
      </trkpt>
      <trkpt lat="43.52532" lon="5.61369">
        <ele>580</ele>
        <time>2022-10-19T11:54:04.587Z</time>
      </trkpt>
      <trkpt lat="43.52532" lon="5.61371">
        <ele>580</ele>
        <time>2022-10-19T11:54:05.587Z</time>
      </trkpt>
      <trkpt lat="43.52532" lon="5.61372">
        <ele>580</ele>
        <time>2022-10-19T11:54:06.587Z</time>
      </trkpt>
      <trkpt lat="43.52532" lon="5.61374">
        <ele>580</ele>
        <time>2022-10-19T11:54:07.587Z</time>
      </trkpt>
      <trkpt lat="43.52532" lon="5.61375">
        <ele>580</ele>
        <time>2022-10-19T11:54:08.587Z</time>
      </trkpt>
      <trkpt lat="43.52531" lon="5.61376">
        <ele>581</ele>
        <time>2022-10-19T11:54:09.587Z</time>
      </trkpt>
      <trkpt lat="43.52531" lon="5.61378">
        <ele>581</ele>
        <time>2022-10-19T11:54:10.587Z</time>
      </trkpt>
      <trkpt lat="43.52531" lon="5.61379">
        <ele>581</ele>
        <time>2022-10-19T11:54:11.587Z</time>
      </trkpt>
      <trkpt lat="43.5253" lon="5.6138">
        <ele>581</ele>
        <time>2022-10-19T11:54:12.587Z</time>
      </trkpt>
      <trkpt lat="43.5253" lon="5.6138">
        <ele>581</ele>
        <time>2022-10-19T11:54:13.587Z</time>
      </trkpt>
      <trkpt lat="43.5253" lon="5.6138">
        <ele>581</ele>
        <time>2022-10-19T11:54:14.587Z</time>
      </trkpt>
      <trkpt lat="43.5253" lon="5.61381">
        <ele>581</ele>
        <time>2022-10-19T11:54:15.587Z</time>
      </trkpt>
      <trkpt lat="43.5253" lon="5.61382">
        <ele>581</ele>
        <time>2022-10-19T11:54:16.587Z</time>
      </trkpt>
      <trkpt lat="43.5253" lon="5.61383">
        <ele>581</ele>
        <time>2022-10-19T11:54:17.587Z</time>
      </trkpt>
      <trkpt lat="43.5253" lon="5.61384">
        <ele>581</ele>
        <time>2022-10-19T11:54:18.587Z</time>
      </trkpt>
      <trkpt lat="43.52529" lon="5.61386">
        <ele>581</ele>
        <time>2022-10-19T11:54:19.587Z</time>
      </trkpt>
      <trkpt lat="43.52529" lon="5.61387">
        <ele>581</ele>
        <time>2022-10-19T11:54:20.587Z</time>
      </trkpt>
      <trkpt lat="43.52529" lon="5.61388">
        <ele>581</ele>
        <time>2022-10-19T11:54:21.587Z</time>
      </trkpt>
      <trkpt lat="43.52529" lon="5.6139">
        <ele>582</ele>
        <time>2022-10-19T11:54:22.587Z</time>
      </trkpt>
      <trkpt lat="43.52529" lon="5.61391">
        <ele>582</ele>
        <time>2022-10-19T11:54:23.587Z</time>
      </trkpt>
      <trkpt lat="43.5253" lon="5.61393">
        <ele>582</ele>
        <time>2022-10-19T11:54:24.587Z</time>
      </trkpt>
      <trkpt lat="43.5253" lon="5.61394">
        <ele>582</ele>
        <time>2022-10-19T11:54:25.587Z</time>
      </trkpt>
      <trkpt lat="43.52531" lon="5.61395">
        <ele>582</ele>
        <time>2022-10-19T11:54:26.587Z</time>
      </trkpt>
      <trkpt lat="43.52531" lon="5.61397">
        <ele>582</ele>
        <time>2022-10-19T11:54:27.587Z</time>
      </trkpt>
      <trkpt lat="43.52531" lon="5.61398">
        <ele>582</ele>
        <time>2022-10-19T11:54:28.587Z</time>
      </trkpt>
      <trkpt lat="43.52532" lon="5.61399">
        <ele>582</ele>
        <time>2022-10-19T11:54:29.587Z</time>
      </trkpt>
      <trkpt lat="43.52532" lon="5.614">
        <ele>582</ele>
        <time>2022-10-19T11:54:30.587Z</time>
      </trkpt>
      <trkpt lat="43.52533" lon="5.61401">
        <ele>582</ele>
        <time>2022-10-19T11:54:31.587Z</time>
      </trkpt>
      <trkpt lat="43.52533" lon="5.61402">
        <ele>582</ele>
        <time>2022-10-19T11:54:32.587Z</time>
      </trkpt>
      <trkpt lat="43.52534" lon="5.61403">
        <ele>583</ele>
        <time>2022-10-19T11:54:33.587Z</time>
      </trkpt>
      <trkpt lat="43.52534" lon="5.61405">
        <ele>583</ele>
        <time>2022-10-19T11:54:34.587Z</time>
      </trkpt>
      <trkpt lat="43.52535" lon="5.61406">
        <ele>583</ele>
        <time>2022-10-19T11:54:35.587Z</time>
      </trkpt>
      <trkpt lat="43.52535" lon="5.61407">
        <ele>583</ele>
        <time>2022-10-19T11:54:36.587Z</time>
      </trkpt>
      <trkpt lat="43.52536" lon="5.61408">
        <ele>583</ele>
        <time>2022-10-19T11:54:37.587Z</time>
      </trkpt>
      <trkpt lat="43.52536" lon="5.61409">
        <ele>583</ele>
        <time>2022-10-19T11:54:38.587Z</time>
      </trkpt>
      <trkpt lat="43.52536" lon="5.6141">
        <ele>583</ele>
        <time>2022-10-19T11:54:39.587Z</time>
      </trkpt>
      <trkpt lat="43.52537" lon="5.61411">
        <ele>583</ele>
        <time>2022-10-19T11:54:40.587Z</time>
      </trkpt>
      <trkpt lat="43.52538" lon="5.61413">
        <ele>584</ele>
        <time>2022-10-19T11:54:41.587Z</time>
      </trkpt>
      <trkpt lat="43.52538" lon="5.61414">
        <ele>584</ele>
        <time>2022-10-19T11:54:42.587Z</time>
      </trkpt>
      <trkpt lat="43.52539" lon="5.61415">
        <ele>584</ele>
        <time>2022-10-19T11:54:43.587Z</time>
      </trkpt>
      <trkpt lat="43.5254" lon="5.61416">
        <ele>584</ele>
        <time>2022-10-19T11:54:44.587Z</time>
      </trkpt>
      <trkpt lat="43.5254" lon="5.61417">
        <ele>584</ele>
        <time>2022-10-19T11:54:45.587Z</time>
      </trkpt>
      <trkpt lat="43.52541" lon="5.61418">
        <ele>584</ele>
        <time>2022-10-19T11:54:46.587Z</time>
      </trkpt>
      <trkpt lat="43.52542" lon="5.6142">
        <ele>584</ele>
        <time>2022-10-19T11:54:47.587Z</time>
      </trkpt>
      <trkpt lat="43.52542" lon="5.6142">
        <ele>584</ele>
        <time>2022-10-19T11:54:48.587Z</time>
      </trkpt>
      <trkpt lat="43.52543" lon="5.61422">
        <ele>585</ele>
        <time>2022-10-19T11:54:49.587Z</time>
      </trkpt>
      <trkpt lat="43.52544" lon="5.61423">
        <ele>585</ele>
        <time>2022-10-19T11:54:50.587Z</time>
      </trkpt>
      <trkpt lat="43.52544" lon="5.61424">
        <ele>585</ele>
        <time>2022-10-19T11:54:51.587Z</time>
      </trkpt>
      <trkpt lat="43.52545" lon="5.61426">
        <ele>585</ele>
        <time>2022-10-19T11:54:52.587Z</time>
      </trkpt>
      <trkpt lat="43.52546" lon="5.61427">
        <ele>585</ele>
        <time>2022-10-19T11:54:53.587Z</time>
      </trkpt>
      <trkpt lat="43.52546" lon="5.61428">
        <ele>585</ele>
        <time>2022-10-19T11:54:54.587Z</time>
      </trkpt>
      <trkpt lat="43.52547" lon="5.61429">
        <ele>585</ele>
        <time>2022-10-19T11:54:55.587Z</time>
      </trkpt>
      <trkpt lat="43.52548" lon="5.61431">
        <ele>585</ele>
        <time>2022-10-19T11:54:56.587Z</time>
      </trkpt>
      <trkpt lat="43.52549" lon="5.61432">
        <ele>585</ele>
        <time>2022-10-19T11:54:57.587Z</time>
      </trkpt>
      <trkpt lat="43.5255" lon="5.61433">
        <ele>585</ele>
        <time>2022-10-19T11:54:58.587Z</time>
      </trkpt>
      <trkpt lat="43.5255" lon="5.61434">
        <ele>586</ele>
        <time>2022-10-19T11:54:59.587Z</time>
      </trkpt>
      <trkpt lat="43.52551" lon="5.61436">
        <ele>586</ele>
        <time>2022-10-19T11:55:00.587Z</time>
      </trkpt>
      <trkpt lat="43.52552" lon="5.61437">
        <ele>586</ele>
        <time>2022-10-19T11:55:01.587Z</time>
      </trkpt>
      <trkpt lat="43.52552" lon="5.61437">
        <ele>586</ele>
        <time>2022-10-19T11:55:02.587Z</time>
      </trkpt>
      <trkpt lat="43.52553" lon="5.61438">
        <ele>586</ele>
        <time>2022-10-19T11:55:03.587Z</time>
      </trkpt>
      <trkpt lat="43.52553" lon="5.61439">
        <ele>586</ele>
        <time>2022-10-19T11:55:04.587Z</time>
      </trkpt>
      <trkpt lat="43.52553" lon="5.61439">
        <ele>586</ele>
        <time>2022-10-19T11:55:05.587Z</time>
      </trkpt>
      <trkpt lat="43.52553" lon="5.61439">
        <ele>586</ele>
        <time>2022-10-19T11:55:06.587Z</time>
      </trkpt>
      <trkpt lat="43.52553" lon="5.61439">
        <ele>586</ele>
        <time>2022-10-19T11:55:07.587Z</time>
      </trkpt>
      <trkpt lat="43.52553" lon="5.61439">
        <ele>586</ele>
        <time>2022-10-19T11:55:08.587Z</time>
      </trkpt>
      <trkpt lat="43.52553" lon="5.61439">
        <ele>586</ele>
        <time>2022-10-19T11:55:09.587Z</time>
      </trkpt>
      <trkpt lat="43.52553" lon="5.61439">
        <ele>586</ele>
        <time>2022-10-19T11:55:10.587Z</time>
      </trkpt>
      <trkpt lat="43.52553" lon="5.61439">
        <ele>586</ele>
        <time>2022-10-19T11:55:11.587Z</time>
      </trkpt>
      <trkpt lat="43.52553" lon="5.61439">
        <ele>586</ele>
        <time>2022-10-19T11:55:12.587Z</time>
      </trkpt>
      <trkpt lat="43.52553" lon="5.61439">
        <ele>586</ele>
        <time>2022-10-19T11:55:13.587Z</time>
      </trkpt>
      <trkpt lat="43.52553" lon="5.61439">
        <ele>586</ele>
        <time>2022-10-19T11:55:14.587Z</time>
      </trkpt>
      <trkpt lat="43.52553" lon="5.61439">
        <ele>586</ele>
        <time>2022-10-19T11:55:15.587Z</time>
      </trkpt>
      <trkpt lat="43.52553" lon="5.61439">
        <ele>586</ele>
        <time>2022-10-19T11:55:16.587Z</time>
      </trkpt>
      <trkpt lat="43.52553" lon="5.61439">
        <ele>586</ele>
        <time>2022-10-19T11:55:17.587Z</time>
      </trkpt>
      <trkpt lat="43.52554" lon="5.61439">
        <ele>586</ele>
        <time>2022-10-19T11:55:18.587Z</time>
      </trkpt>
      <trkpt lat="43.52554" lon="5.61439">
        <ele>586</ele>
        <time>2022-10-19T11:55:19.587Z</time>
      </trkpt>
      <trkpt lat="43.52554" lon="5.61439">
        <ele>586</ele>
        <time>2022-10-19T11:55:20.587Z</time>
      </trkpt>
      <trkpt lat="43.52554" lon="5.61439">
        <ele>586</ele>
        <time>2022-10-19T11:55:21.587Z</time>
      </trkpt>
      <trkpt lat="43.52554" lon="5.61439">
        <ele>586</ele>
        <time>2022-10-19T11:55:22.587Z</time>
      </trkpt>
      <trkpt lat="43.52554" lon="5.61439">
        <ele>586</ele>
        <time>2022-10-19T11:55:23.587Z</time>
      </trkpt>
      <trkpt lat="43.52554" lon="5.61439">
        <ele>586</ele>
        <time>2022-10-19T11:55:24.587Z</time>
      </trkpt>
      <trkpt lat="43.52554" lon="5.61439">
        <ele>586</ele>
        <time>2022-10-19T11:55:25.587Z</time>
      </trkpt>
      <trkpt lat="43.52554" lon="5.61439">
        <ele>586</ele>
        <time>2022-10-19T11:55:26.587Z</time>
      </trkpt>
      <trkpt lat="43.52554" lon="5.61439">
        <ele>586</ele>
        <time>2022-10-19T11:55:27.587Z</time>
      </trkpt>
      <trkpt lat="43.52554" lon="5.61439">
        <ele>586</ele>
        <time>2022-10-19T11:55:28.587Z</time>
      </trkpt>
      <trkpt lat="43.52554" lon="5.61439">
        <ele>586</ele>
        <time>2022-10-19T11:55:29.587Z</time>
      </trkpt>
      <trkpt lat="43.52554" lon="5.61439">
        <ele>586</ele>
        <time>2022-10-19T11:55:30.587Z</time>
      </trkpt>
      <trkpt lat="43.52554" lon="5.61439">
        <ele>586</ele>
        <time>2022-10-19T11:55:31.587Z</time>
      </trkpt>
      <trkpt lat="43.52554" lon="5.61439">
        <ele>586</ele>
        <time>2022-10-19T11:55:32.587Z</time>
      </trkpt>
      <trkpt lat="43.52554" lon="5.61439">
        <ele>586</ele>
        <time>2022-10-19T11:55:33.587Z</time>
      </trkpt>
      <trkpt lat="43.52554" lon="5.61439">
        <ele>586</ele>
        <time>2022-10-19T11:55:34.587Z</time>
      </trkpt>
      <trkpt lat="43.52554" lon="5.61439">
        <ele>586</ele>
        <time>2022-10-19T11:55:35.587Z</time>
      </trkpt>
      <trkpt lat="43.52554" lon="5.61439">
        <ele>586</ele>
        <time>2022-10-19T11:55:36.587Z</time>
      </trkpt>
      <trkpt lat="43.52554" lon="5.6144">
        <ele>587</ele>
        <time>2022-10-19T11:55:37.587Z</time>
      </trkpt>
      <trkpt lat="43.52554" lon="5.6144">
        <ele>587</ele>
        <time>2022-10-19T11:55:38.587Z</time>
      </trkpt>
      <trkpt lat="43.52554" lon="5.6144">
        <ele>587</ele>
        <time>2022-10-19T11:55:39.587Z</time>
      </trkpt>
      <trkpt lat="43.52554" lon="5.6144">
        <ele>587</ele>
        <time>2022-10-19T11:55:40.587Z</time>
      </trkpt>
      <trkpt lat="43.52554" lon="5.6144">
        <ele>587</ele>
        <time>2022-10-19T11:55:41.587Z</time>
      </trkpt>
      <trkpt lat="43.52554" lon="5.6144">
        <ele>587</ele>
        <time>2022-10-19T11:55:42.587Z</time>
      </trkpt>
      <trkpt lat="43.52554" lon="5.6144">
        <ele>587</ele>
        <time>2022-10-19T11:55:43.587Z</time>
      </trkpt>
      <trkpt lat="43.52554" lon="5.6144">
        <ele>587</ele>
        <time>2022-10-19T11:55:44.587Z</time>
      </trkpt>
      <trkpt lat="43.52554" lon="5.6144">
        <ele>587</ele>
        <time>2022-10-19T11:55:45.587Z</time>
      </trkpt>
      <trkpt lat="43.52554" lon="5.6144">
        <ele>587</ele>
        <time>2022-10-19T11:55:46.587Z</time>
      </trkpt>
      <trkpt lat="43.52554" lon="5.6144">
        <ele>587</ele>
        <time>2022-10-19T11:55:47.587Z</time>
      </trkpt>
      <trkpt lat="43.52554" lon="5.6144">
        <ele>587</ele>
        <time>2022-10-19T11:55:48.587Z</time>
      </trkpt>
      <trkpt lat="43.52554" lon="5.6144">
        <ele>587</ele>
        <time>2022-10-19T11:55:49.587Z</time>
      </trkpt>
      <trkpt lat="43.52554" lon="5.6144">
        <ele>587</ele>
        <time>2022-10-19T11:55:50.587Z</time>
      </trkpt>
      <trkpt lat="43.52554" lon="5.6144">
        <ele>587</ele>
        <time>2022-10-19T11:55:51.587Z</time>
      </trkpt>
      <trkpt lat="43.52554" lon="5.6144">
        <ele>587</ele>
        <time>2022-10-19T11:55:52.587Z</time>
      </trkpt>
      <trkpt lat="43.52554" lon="5.6144">
        <ele>587</ele>
        <time>2022-10-19T11:55:53.587Z</time>
      </trkpt>
      <trkpt lat="43.52554" lon="5.6144">
        <ele>587</ele>
        <time>2022-10-19T11:55:54.587Z</time>
      </trkpt>
      <trkpt lat="43.52554" lon="5.6144">
        <ele>587</ele>
        <time>2022-10-19T11:55:55.587Z</time>
      </trkpt>
      <trkpt lat="43.52554" lon="5.6144">
        <ele>587</ele>
        <time>2022-10-19T11:55:56.587Z</time>
      </trkpt>
      <trkpt lat="43.52554" lon="5.6144">
        <ele>587</ele>
        <time>2022-10-19T11:55:57.587Z</time>
      </trkpt>
      <trkpt lat="43.52554" lon="5.6144">
        <ele>587</ele>
        <time>2022-10-19T11:55:58.587Z</time>
      </trkpt>
      <trkpt lat="43.52554" lon="5.6144">
        <ele>587</ele>
        <time>2022-10-19T11:55:59.587Z</time>
      </trkpt>
      <trkpt lat="43.52554" lon="5.6144">
        <ele>587</ele>
        <time>2022-10-19T11:56:00.587Z</time>
      </trkpt>
      <trkpt lat="43.52554" lon="5.6144">
        <ele>587</ele>
        <time>2022-10-19T11:56:01.587Z</time>
      </trkpt>
      <trkpt lat="43.52554" lon="5.61441">
        <ele>587</ele>
        <time>2022-10-19T11:56:02.587Z</time>
      </trkpt>
      <trkpt lat="43.52554" lon="5.61441">
        <ele>587</ele>
        <time>2022-10-19T11:56:03.587Z</time>
      </trkpt>
      <trkpt lat="43.52554" lon="5.61441">
        <ele>587</ele>
        <time>2022-10-19T11:56:04.587Z</time>
      </trkpt>
      <trkpt lat="43.52553" lon="5.61441">
        <ele>587</ele>
        <time>2022-10-19T11:56:05.587Z</time>
      </trkpt>
      <trkpt lat="43.52553" lon="5.61441">
        <ele>587</ele>
        <time>2022-10-19T11:56:06.587Z</time>
      </trkpt>
      <trkpt lat="43.52553" lon="5.61441">
        <ele>587</ele>
        <time>2022-10-19T11:56:07.587Z</time>
      </trkpt>
      <trkpt lat="43.52553" lon="5.61441">
        <ele>587</ele>
        <time>2022-10-19T11:56:08.587Z</time>
      </trkpt>
      <trkpt lat="43.52553" lon="5.61441">
        <ele>587</ele>
        <time>2022-10-19T11:56:09.587Z</time>
      </trkpt>
      <trkpt lat="43.52553" lon="5.61441">
        <ele>587</ele>
        <time>2022-10-19T11:56:10.587Z</time>
      </trkpt>
      <trkpt lat="43.52553" lon="5.6144">
        <ele>587</ele>
        <time>2022-10-19T11:56:11.587Z</time>
      </trkpt>
      <trkpt lat="43.52553" lon="5.61441">
        <ele>587</ele>
        <time>2022-10-19T11:56:12.587Z</time>
      </trkpt>
      <trkpt lat="43.52553" lon="5.61441">
        <ele>587</ele>
        <time>2022-10-19T11:56:13.587Z</time>
      </trkpt>
      <trkpt lat="43.52553" lon="5.61441">
        <ele>587</ele>
        <time>2022-10-19T11:56:14.587Z</time>
      </trkpt>
      <trkpt lat="43.52553" lon="5.6144">
        <ele>587</ele>
        <time>2022-10-19T11:56:15.587Z</time>
      </trkpt>
      <trkpt lat="43.52553" lon="5.6144">
        <ele>587</ele>
        <time>2022-10-19T11:56:16.587Z</time>
      </trkpt>
      <trkpt lat="43.52553" lon="5.6144">
        <ele>587</ele>
        <time>2022-10-19T11:56:17.587Z</time>
      </trkpt>
      <trkpt lat="43.52553" lon="5.6144">
        <ele>587</ele>
        <time>2022-10-19T11:56:18.587Z</time>
      </trkpt>
      <trkpt lat="43.52554" lon="5.61441">
        <ele>587</ele>
        <time>2022-10-19T11:56:19.587Z</time>
      </trkpt>
      <trkpt lat="43.52554" lon="5.61442">
        <ele>587</ele>
        <time>2022-10-19T11:56:20.587Z</time>
      </trkpt>
      <trkpt lat="43.52555" lon="5.61443">
        <ele>587</ele>
        <time>2022-10-19T11:56:21.587Z</time>
      </trkpt>
      <trkpt lat="43.52555" lon="5.61444">
        <ele>587</ele>
        <time>2022-10-19T11:56:22.587Z</time>
      </trkpt>
      <trkpt lat="43.52556" lon="5.61446">
        <ele>587</ele>
        <time>2022-10-19T11:56:23.587Z</time>
      </trkpt>
      <trkpt lat="43.52556" lon="5.61447">
        <ele>587</ele>
        <time>2022-10-19T11:56:24.587Z</time>
      </trkpt>
      <trkpt lat="43.52557" lon="5.61449">
        <ele>587</ele>
        <time>2022-10-19T11:56:25.587Z</time>
      </trkpt>
      <trkpt lat="43.52557" lon="5.6145">
        <ele>587</ele>
        <time>2022-10-19T11:56:26.587Z</time>
      </trkpt>
      <trkpt lat="43.52558" lon="5.61452">
        <ele>587</ele>
        <time>2022-10-19T11:56:27.587Z</time>
      </trkpt>
      <trkpt lat="43.52558" lon="5.61453">
        <ele>587</ele>
        <time>2022-10-19T11:56:28.587Z</time>
      </trkpt>
      <trkpt lat="43.52559" lon="5.61454">
        <ele>587</ele>
        <time>2022-10-19T11:56:29.587Z</time>
      </trkpt>
      <trkpt lat="43.52559" lon="5.61456">
        <ele>587</ele>
        <time>2022-10-19T11:56:30.587Z</time>
      </trkpt>
      <trkpt lat="43.5256" lon="5.61457">
        <ele>587</ele>
        <time>2022-10-19T11:56:31.587Z</time>
      </trkpt>
      <trkpt lat="43.5256" lon="5.61459">
        <ele>587</ele>
        <time>2022-10-19T11:56:32.587Z</time>
      </trkpt>
      <trkpt lat="43.52561" lon="5.6146">
        <ele>587</ele>
        <time>2022-10-19T11:56:33.587Z</time>
      </trkpt>
      <trkpt lat="43.52561" lon="5.61462">
        <ele>587</ele>
        <time>2022-10-19T11:56:34.587Z</time>
      </trkpt>
      <trkpt lat="43.52562" lon="5.61463">
        <ele>587</ele>
        <time>2022-10-19T11:56:35.587Z</time>
      </trkpt>
      <trkpt lat="43.52562" lon="5.61465">
        <ele>587</ele>
        <time>2022-10-19T11:56:36.587Z</time>
      </trkpt>
      <trkpt lat="43.52562" lon="5.61466">
        <ele>587</ele>
        <time>2022-10-19T11:56:37.587Z</time>
      </trkpt>
      <trkpt lat="43.52563" lon="5.61467">
        <ele>587</ele>
        <time>2022-10-19T11:56:38.587Z</time>
      </trkpt>
      <trkpt lat="43.52563" lon="5.61469">
        <ele>587</ele>
        <time>2022-10-19T11:56:39.587Z</time>
      </trkpt>
      <trkpt lat="43.52563" lon="5.6147">
        <ele>587</ele>
        <time>2022-10-19T11:56:40.587Z</time>
      </trkpt>
      <trkpt lat="43.52564" lon="5.61472">
        <ele>587</ele>
        <time>2022-10-19T11:56:41.587Z</time>
      </trkpt>
      <trkpt lat="43.52564" lon="5.61473">
        <ele>587</ele>
        <time>2022-10-19T11:56:42.587Z</time>
      </trkpt>
      <trkpt lat="43.52565" lon="5.61475">
        <ele>587</ele>
        <time>2022-10-19T11:56:43.587Z</time>
      </trkpt>
      <trkpt lat="43.52565" lon="5.61476">
        <ele>587</ele>
        <time>2022-10-19T11:56:44.587Z</time>
      </trkpt>
      <trkpt lat="43.52566" lon="5.61478">
        <ele>587</ele>
        <time>2022-10-19T11:56:45.587Z</time>
      </trkpt>
      <trkpt lat="43.52566" lon="5.61479">
        <ele>587</ele>
        <time>2022-10-19T11:56:46.587Z</time>
      </trkpt>
      <trkpt lat="43.52567" lon="5.6148">
        <ele>587</ele>
        <time>2022-10-19T11:56:47.587Z</time>
      </trkpt>
      <trkpt lat="43.52567" lon="5.61482">
        <ele>587</ele>
        <time>2022-10-19T11:56:48.587Z</time>
      </trkpt>
      <trkpt lat="43.52568" lon="5.61483">
        <ele>587</ele>
        <time>2022-10-19T11:56:49.587Z</time>
      </trkpt>
      <trkpt lat="43.52568" lon="5.61485">
        <ele>587</ele>
        <time>2022-10-19T11:56:50.587Z</time>
      </trkpt>
      <trkpt lat="43.52569" lon="5.61487">
        <ele>587</ele>
        <time>2022-10-19T11:56:51.587Z</time>
      </trkpt>
      <trkpt lat="43.52569" lon="5.61489">
        <ele>587</ele>
        <time>2022-10-19T11:56:52.587Z</time>
      </trkpt>
      <trkpt lat="43.52569" lon="5.6149">
        <ele>587</ele>
        <time>2022-10-19T11:56:53.587Z</time>
      </trkpt>
      <trkpt lat="43.52569" lon="5.61492">
        <ele>587</ele>
        <time>2022-10-19T11:56:54.587Z</time>
      </trkpt>
      <trkpt lat="43.5257" lon="5.61493">
        <ele>587</ele>
        <time>2022-10-19T11:56:55.587Z</time>
      </trkpt>
      <trkpt lat="43.5257" lon="5.61495">
        <ele>587</ele>
        <time>2022-10-19T11:56:56.587Z</time>
      </trkpt>
      <trkpt lat="43.5257" lon="5.61497">
        <ele>587</ele>
        <time>2022-10-19T11:56:57.587Z</time>
      </trkpt>
      <trkpt lat="43.52571" lon="5.61498">
        <ele>587</ele>
        <time>2022-10-19T11:56:58.587Z</time>
      </trkpt>
      <trkpt lat="43.52571" lon="5.615">
        <ele>587</ele>
        <time>2022-10-19T11:56:59.587Z</time>
      </trkpt>
      <trkpt lat="43.52571" lon="5.61502">
        <ele>587</ele>
        <time>2022-10-19T11:57:00.587Z</time>
      </trkpt>
      <trkpt lat="43.52571" lon="5.61503">
        <ele>587</ele>
        <time>2022-10-19T11:57:01.587Z</time>
      </trkpt>
      <trkpt lat="43.52571" lon="5.61505">
        <ele>587</ele>
        <time>2022-10-19T11:57:02.587Z</time>
      </trkpt>
      <trkpt lat="43.52571" lon="5.61507">
        <ele>587</ele>
        <time>2022-10-19T11:57:03.587Z</time>
      </trkpt>
      <trkpt lat="43.52572" lon="5.61509">
        <ele>587</ele>
        <time>2022-10-19T11:57:04.587Z</time>
      </trkpt>
      <trkpt lat="43.52572" lon="5.6151">
        <ele>587</ele>
        <time>2022-10-19T11:57:05.587Z</time>
      </trkpt>
      <trkpt lat="43.52572" lon="5.61512">
        <ele>587</ele>
        <time>2022-10-19T11:57:06.587Z</time>
      </trkpt>
      <trkpt lat="43.52573" lon="5.61514">
        <ele>587</ele>
        <time>2022-10-19T11:57:07.587Z</time>
      </trkpt>
      <trkpt lat="43.52573" lon="5.61515">
        <ele>587</ele>
        <time>2022-10-19T11:57:08.587Z</time>
      </trkpt>
      <trkpt lat="43.52573" lon="5.61517">
        <ele>587</ele>
        <time>2022-10-19T11:57:09.587Z</time>
      </trkpt>
      <trkpt lat="43.52573" lon="5.61519">
        <ele>587</ele>
        <time>2022-10-19T11:57:10.587Z</time>
      </trkpt>
      <trkpt lat="43.52574" lon="5.61521">
        <ele>587</ele>
        <time>2022-10-19T11:57:11.587Z</time>
      </trkpt>
      <trkpt lat="43.52574" lon="5.61523">
        <ele>587</ele>
        <time>2022-10-19T11:57:12.587Z</time>
      </trkpt>
      <trkpt lat="43.52575" lon="5.61524">
        <ele>587</ele>
        <time>2022-10-19T11:57:13.587Z</time>
      </trkpt>
      <trkpt lat="43.52575" lon="5.61526">
        <ele>587</ele>
        <time>2022-10-19T11:57:14.587Z</time>
      </trkpt>
      <trkpt lat="43.52575" lon="5.61527">
        <ele>587</ele>
        <time>2022-10-19T11:57:15.587Z</time>
      </trkpt>
      <trkpt lat="43.52576" lon="5.61529">
        <ele>587</ele>
        <time>2022-10-19T11:57:16.587Z</time>
      </trkpt>
      <trkpt lat="43.52576" lon="5.6153">
        <ele>587</ele>
        <time>2022-10-19T11:57:17.587Z</time>
      </trkpt>
      <trkpt lat="43.52577" lon="5.61531">
        <ele>587</ele>
        <time>2022-10-19T11:57:18.587Z</time>
      </trkpt>
      <trkpt lat="43.52577" lon="5.61533">
        <ele>587</ele>
        <time>2022-10-19T11:57:19.587Z</time>
      </trkpt>
      <trkpt lat="43.52577" lon="5.61534">
        <ele>586</ele>
        <time>2022-10-19T11:57:20.587Z</time>
      </trkpt>
      <trkpt lat="43.52578" lon="5.61536">
        <ele>586</ele>
        <time>2022-10-19T11:57:21.587Z</time>
      </trkpt>
      <trkpt lat="43.52578" lon="5.61537">
        <ele>586</ele>
        <time>2022-10-19T11:57:22.587Z</time>
      </trkpt>
      <trkpt lat="43.52578" lon="5.61539">
        <ele>586</ele>
        <time>2022-10-19T11:57:23.587Z</time>
      </trkpt>
      <trkpt lat="43.52579" lon="5.61541">
        <ele>586</ele>
        <time>2022-10-19T11:57:24.587Z</time>
      </trkpt>
      <trkpt lat="43.52579" lon="5.61542">
        <ele>586</ele>
        <time>2022-10-19T11:57:25.587Z</time>
      </trkpt>
      <trkpt lat="43.52579" lon="5.61544">
        <ele>586</ele>
        <time>2022-10-19T11:57:26.587Z</time>
      </trkpt>
      <trkpt lat="43.52579" lon="5.61545">
        <ele>586</ele>
        <time>2022-10-19T11:57:27.587Z</time>
      </trkpt>
      <trkpt lat="43.52579" lon="5.61547">
        <ele>586</ele>
        <time>2022-10-19T11:57:28.587Z</time>
      </trkpt>
      <trkpt lat="43.5258" lon="5.61548">
        <ele>586</ele>
        <time>2022-10-19T11:57:29.587Z</time>
      </trkpt>
      <trkpt lat="43.5258" lon="5.61549">
        <ele>586</ele>
        <time>2022-10-19T11:57:30.587Z</time>
      </trkpt>
      <trkpt lat="43.5258" lon="5.61551">
        <ele>586</ele>
        <time>2022-10-19T11:57:31.587Z</time>
      </trkpt>
      <trkpt lat="43.52581" lon="5.61552">
        <ele>586</ele>
        <time>2022-10-19T11:57:32.587Z</time>
      </trkpt>
      <trkpt lat="43.52581" lon="5.61554">
        <ele>586</ele>
        <time>2022-10-19T11:57:33.587Z</time>
      </trkpt>
      <trkpt lat="43.52581" lon="5.61556">
        <ele>586</ele>
        <time>2022-10-19T11:57:34.587Z</time>
      </trkpt>
      <trkpt lat="43.52581" lon="5.61557">
        <ele>586</ele>
        <time>2022-10-19T11:57:35.587Z</time>
      </trkpt>
      <trkpt lat="43.52582" lon="5.61559">
        <ele>587</ele>
        <time>2022-10-19T11:57:36.587Z</time>
      </trkpt>
      <trkpt lat="43.52582" lon="5.6156">
        <ele>587</ele>
        <time>2022-10-19T11:57:37.587Z</time>
      </trkpt>
      <trkpt lat="43.52582" lon="5.61562">
        <ele>587</ele>
        <time>2022-10-19T11:57:38.587Z</time>
      </trkpt>
      <trkpt lat="43.52582" lon="5.61563">
        <ele>587</ele>
        <time>2022-10-19T11:57:39.587Z</time>
      </trkpt>
      <trkpt lat="43.52582" lon="5.61565">
        <ele>587</ele>
        <time>2022-10-19T11:57:40.587Z</time>
      </trkpt>
      <trkpt lat="43.52582" lon="5.61566">
        <ele>587</ele>
        <time>2022-10-19T11:57:41.587Z</time>
      </trkpt>
      <trkpt lat="43.52582" lon="5.61567">
        <ele>587</ele>
        <time>2022-10-19T11:57:42.587Z</time>
      </trkpt>
      <trkpt lat="43.52582" lon="5.61569">
        <ele>587</ele>
        <time>2022-10-19T11:57:43.587Z</time>
      </trkpt>
      <trkpt lat="43.52581" lon="5.6157">
        <ele>588</ele>
        <time>2022-10-19T11:57:44.587Z</time>
      </trkpt>
      <trkpt lat="43.52581" lon="5.61571">
        <ele>588</ele>
        <time>2022-10-19T11:57:45.587Z</time>
      </trkpt>
      <trkpt lat="43.5258" lon="5.61572">
        <ele>588</ele>
        <time>2022-10-19T11:57:46.587Z</time>
      </trkpt>
      <trkpt lat="43.52579" lon="5.61572">
        <ele>588</ele>
        <time>2022-10-19T11:57:47.587Z</time>
      </trkpt>
      <trkpt lat="43.52579" lon="5.61573">
        <ele>588</ele>
        <time>2022-10-19T11:57:48.587Z</time>
      </trkpt>
      <trkpt lat="43.52578" lon="5.61573">
        <ele>588</ele>
        <time>2022-10-19T11:57:49.587Z</time>
      </trkpt>
      <trkpt lat="43.52576" lon="5.61573">
        <ele>588</ele>
        <time>2022-10-19T11:57:50.587Z</time>
      </trkpt>
      <trkpt lat="43.52575" lon="5.61573">
        <ele>588</ele>
        <time>2022-10-19T11:57:51.587Z</time>
      </trkpt>
      <trkpt lat="43.52574" lon="5.61573">
        <ele>588</ele>
        <time>2022-10-19T11:57:52.587Z</time>
      </trkpt>
      <trkpt lat="43.52573" lon="5.61573">
        <ele>588</ele>
        <time>2022-10-19T11:57:53.587Z</time>
      </trkpt>
      <trkpt lat="43.52572" lon="5.61572">
        <ele>588</ele>
        <time>2022-10-19T11:57:54.587Z</time>
      </trkpt>
      <trkpt lat="43.52571" lon="5.61572">
        <ele>589</ele>
        <time>2022-10-19T11:57:55.587Z</time>
      </trkpt>
      <trkpt lat="43.52569" lon="5.61572">
        <ele>589</ele>
        <time>2022-10-19T11:57:56.587Z</time>
      </trkpt>
      <trkpt lat="43.52568" lon="5.61572">
        <ele>589</ele>
        <time>2022-10-19T11:57:57.587Z</time>
      </trkpt>
      <trkpt lat="43.52567" lon="5.61571">
        <ele>589</ele>
        <time>2022-10-19T11:57:58.587Z</time>
      </trkpt>
      <trkpt lat="43.52566" lon="5.61571">
        <ele>589</ele>
        <time>2022-10-19T11:57:59.587Z</time>
      </trkpt>
      <trkpt lat="43.52565" lon="5.61571">
        <ele>589</ele>
        <time>2022-10-19T11:58:00.587Z</time>
      </trkpt>
      <trkpt lat="43.52563" lon="5.6157">
        <ele>589</ele>
        <time>2022-10-19T11:58:01.587Z</time>
      </trkpt>
      <trkpt lat="43.52562" lon="5.6157">
        <ele>589</ele>
        <time>2022-10-19T11:58:02.587Z</time>
      </trkpt>
      <trkpt lat="43.52561" lon="5.61569">
        <ele>589</ele>
        <time>2022-10-19T11:58:03.587Z</time>
      </trkpt>
      <trkpt lat="43.5256" lon="5.61568">
        <ele>589</ele>
        <time>2022-10-19T11:58:04.587Z</time>
      </trkpt>
      <trkpt lat="43.52559" lon="5.61567">
        <ele>589</ele>
        <time>2022-10-19T11:58:05.587Z</time>
      </trkpt>
      <trkpt lat="43.52558" lon="5.61566">
        <ele>589</ele>
        <time>2022-10-19T11:58:06.587Z</time>
      </trkpt>
      <trkpt lat="43.52557" lon="5.61565">
        <ele>589</ele>
        <time>2022-10-19T11:58:07.587Z</time>
      </trkpt>
      <trkpt lat="43.52556" lon="5.61565">
        <ele>589</ele>
        <time>2022-10-19T11:58:08.587Z</time>
      </trkpt>
      <trkpt lat="43.52555" lon="5.61564">
        <ele>590</ele>
        <time>2022-10-19T11:58:09.587Z</time>
      </trkpt>
      <trkpt lat="43.52554" lon="5.61563">
        <ele>590</ele>
        <time>2022-10-19T11:58:10.587Z</time>
      </trkpt>
      <trkpt lat="43.52553" lon="5.61562">
        <ele>590</ele>
        <time>2022-10-19T11:58:11.587Z</time>
      </trkpt>
      <trkpt lat="43.52552" lon="5.61562">
        <ele>590</ele>
        <time>2022-10-19T11:58:12.587Z</time>
      </trkpt>
      <trkpt lat="43.52551" lon="5.61561">
        <ele>590</ele>
        <time>2022-10-19T11:58:13.587Z</time>
      </trkpt>
      <trkpt lat="43.52549" lon="5.61561">
        <ele>590</ele>
        <time>2022-10-19T11:58:14.587Z</time>
      </trkpt>
      <trkpt lat="43.52548" lon="5.61561">
        <ele>590</ele>
        <time>2022-10-19T11:58:15.587Z</time>
      </trkpt>
      <trkpt lat="43.52547" lon="5.6156">
        <ele>590</ele>
        <time>2022-10-19T11:58:16.587Z</time>
      </trkpt>
      <trkpt lat="43.52546" lon="5.6156">
        <ele>590</ele>
        <time>2022-10-19T11:58:17.587Z</time>
      </trkpt>
      <trkpt lat="43.52544" lon="5.61559">
        <ele>590</ele>
        <time>2022-10-19T11:58:18.587Z</time>
      </trkpt>
      <trkpt lat="43.52543" lon="5.61559">
        <ele>590</ele>
        <time>2022-10-19T11:58:19.587Z</time>
      </trkpt>
      <trkpt lat="43.52542" lon="5.61558">
        <ele>590</ele>
        <time>2022-10-19T11:58:20.587Z</time>
      </trkpt>
      <trkpt lat="43.52541" lon="5.61558">
        <ele>590</ele>
        <time>2022-10-19T11:58:21.587Z</time>
      </trkpt>
      <trkpt lat="43.5254" lon="5.61558">
        <ele>590</ele>
        <time>2022-10-19T11:58:22.587Z</time>
      </trkpt>
      <trkpt lat="43.52538" lon="5.61557">
        <ele>590</ele>
        <time>2022-10-19T11:58:23.587Z</time>
      </trkpt>
      <trkpt lat="43.52537" lon="5.61557">
        <ele>590</ele>
        <time>2022-10-19T11:58:24.587Z</time>
      </trkpt>
      <trkpt lat="43.52536" lon="5.61556">
        <ele>590</ele>
        <time>2022-10-19T11:58:25.587Z</time>
      </trkpt>
      <trkpt lat="43.52535" lon="5.61556">
        <ele>590</ele>
        <time>2022-10-19T11:58:26.587Z</time>
      </trkpt>
      <trkpt lat="43.52533" lon="5.61556">
        <ele>590</ele>
        <time>2022-10-19T11:58:27.587Z</time>
      </trkpt>
      <trkpt lat="43.52532" lon="5.61556">
        <ele>590</ele>
        <time>2022-10-19T11:58:28.587Z</time>
      </trkpt>
      <trkpt lat="43.52531" lon="5.61556">
        <ele>590</ele>
        <time>2022-10-19T11:58:29.587Z</time>
      </trkpt>
      <trkpt lat="43.52529" lon="5.61555">
        <ele>590</ele>
        <time>2022-10-19T11:58:30.587Z</time>
      </trkpt>
      <trkpt lat="43.52528" lon="5.61556">
        <ele>590</ele>
        <time>2022-10-19T11:58:31.587Z</time>
      </trkpt>
      <trkpt lat="43.52527" lon="5.61555">
        <ele>590</ele>
        <time>2022-10-19T11:58:32.587Z</time>
      </trkpt>
      <trkpt lat="43.52526" lon="5.61555">
        <ele>590</ele>
        <time>2022-10-19T11:58:33.587Z</time>
      </trkpt>
      <trkpt lat="43.52524" lon="5.61555">
        <ele>590</ele>
        <time>2022-10-19T11:58:34.587Z</time>
      </trkpt>
      <trkpt lat="43.52523" lon="5.61554">
        <ele>590</ele>
        <time>2022-10-19T11:58:35.587Z</time>
      </trkpt>
      <trkpt lat="43.52522" lon="5.61554">
        <ele>590</ele>
        <time>2022-10-19T11:58:36.587Z</time>
      </trkpt>
      <trkpt lat="43.52521" lon="5.61554">
        <ele>591</ele>
        <time>2022-10-19T11:58:37.587Z</time>
      </trkpt>
      <trkpt lat="43.52519" lon="5.61554">
        <ele>591</ele>
        <time>2022-10-19T11:58:38.587Z</time>
      </trkpt>
      <trkpt lat="43.52518" lon="5.61554">
        <ele>591</ele>
        <time>2022-10-19T11:58:39.587Z</time>
      </trkpt>
      <trkpt lat="43.52517" lon="5.61554">
        <ele>591</ele>
        <time>2022-10-19T11:58:40.587Z</time>
      </trkpt>
      <trkpt lat="43.52516" lon="5.61553">
        <ele>591</ele>
        <time>2022-10-19T11:58:41.587Z</time>
      </trkpt>
      <trkpt lat="43.52515" lon="5.61553">
        <ele>591</ele>
        <time>2022-10-19T11:58:42.587Z</time>
      </trkpt>
      <trkpt lat="43.52514" lon="5.61553">
        <ele>591</ele>
        <time>2022-10-19T11:58:43.587Z</time>
      </trkpt>
      <trkpt lat="43.52512" lon="5.61553">
        <ele>591</ele>
        <time>2022-10-19T11:58:44.587Z</time>
      </trkpt>
      <trkpt lat="43.52511" lon="5.61552">
        <ele>591</ele>
        <time>2022-10-19T11:58:45.587Z</time>
      </trkpt>
      <trkpt lat="43.5251" lon="5.61552">
        <ele>590</ele>
        <time>2022-10-19T11:58:46.587Z</time>
      </trkpt>
      <trkpt lat="43.52509" lon="5.61551">
        <ele>590</ele>
        <time>2022-10-19T11:58:47.587Z</time>
      </trkpt>
      <trkpt lat="43.52508" lon="5.61551">
        <ele>590</ele>
        <time>2022-10-19T11:58:48.587Z</time>
      </trkpt>
      <trkpt lat="43.52507" lon="5.6155">
        <ele>590</ele>
        <time>2022-10-19T11:58:49.587Z</time>
      </trkpt>
      <trkpt lat="43.52505" lon="5.6155">
        <ele>590</ele>
        <time>2022-10-19T11:58:50.587Z</time>
      </trkpt>
      <trkpt lat="43.52504" lon="5.61549">
        <ele>590</ele>
        <time>2022-10-19T11:58:51.587Z</time>
      </trkpt>
      <trkpt lat="43.52503" lon="5.61549">
        <ele>590</ele>
        <time>2022-10-19T11:58:52.587Z</time>
      </trkpt>
      <trkpt lat="43.52502" lon="5.61549">
        <ele>590</ele>
        <time>2022-10-19T11:58:53.587Z</time>
      </trkpt>
      <trkpt lat="43.525" lon="5.61548">
        <ele>590</ele>
        <time>2022-10-19T11:58:54.587Z</time>
      </trkpt>
      <trkpt lat="43.52499" lon="5.61548">
        <ele>590</ele>
        <time>2022-10-19T11:58:55.587Z</time>
      </trkpt>
      <trkpt lat="43.52498" lon="5.61548">
        <ele>590</ele>
        <time>2022-10-19T11:58:56.587Z</time>
      </trkpt>
      <trkpt lat="43.52497" lon="5.61547">
        <ele>590</ele>
        <time>2022-10-19T11:58:57.587Z</time>
      </trkpt>
      <trkpt lat="43.52496" lon="5.61547">
        <ele>590</ele>
        <time>2022-10-19T11:58:58.587Z</time>
      </trkpt>
      <trkpt lat="43.52495" lon="5.61546">
        <ele>590</ele>
        <time>2022-10-19T11:58:59.587Z</time>
      </trkpt>
      <trkpt lat="43.52494" lon="5.61545">
        <ele>590</ele>
        <time>2022-10-19T11:59:00.587Z</time>
      </trkpt>
      <trkpt lat="43.52493" lon="5.61545">
        <ele>590</ele>
        <time>2022-10-19T11:59:01.587Z</time>
      </trkpt>
      <trkpt lat="43.52492" lon="5.61544">
        <ele>590</ele>
        <time>2022-10-19T11:59:02.587Z</time>
      </trkpt>
      <trkpt lat="43.52491" lon="5.61544">
        <ele>590</ele>
        <time>2022-10-19T11:59:03.587Z</time>
      </trkpt>
      <trkpt lat="43.5249" lon="5.61544">
        <ele>590</ele>
        <time>2022-10-19T11:59:04.587Z</time>
      </trkpt>
      <trkpt lat="43.52489" lon="5.61543">
        <ele>590</ele>
        <time>2022-10-19T11:59:05.587Z</time>
      </trkpt>
      <trkpt lat="43.52488" lon="5.61543">
        <ele>590</ele>
        <time>2022-10-19T11:59:06.587Z</time>
      </trkpt>
      <trkpt lat="43.52487" lon="5.61543">
        <ele>590</ele>
        <time>2022-10-19T11:59:07.587Z</time>
      </trkpt>
      <trkpt lat="43.52487" lon="5.61543">
        <ele>590</ele>
        <time>2022-10-19T11:59:08.587Z</time>
      </trkpt>
      <trkpt lat="43.52486" lon="5.61543">
        <ele>590</ele>
        <time>2022-10-19T11:59:09.587Z</time>
      </trkpt>
      <trkpt lat="43.52485" lon="5.61543">
        <ele>590</ele>
        <time>2022-10-19T11:59:10.587Z</time>
      </trkpt>
      <trkpt lat="43.52483" lon="5.61543">
        <ele>590</ele>
        <time>2022-10-19T11:59:11.587Z</time>
      </trkpt>
      <trkpt lat="43.52482" lon="5.61542">
        <ele>590</ele>
        <time>2022-10-19T11:59:12.587Z</time>
      </trkpt>
      <trkpt lat="43.52481" lon="5.61542">
        <ele>590</ele>
        <time>2022-10-19T11:59:13.587Z</time>
      </trkpt>
      <trkpt lat="43.5248" lon="5.61542">
        <ele>590</ele>
        <time>2022-10-19T11:59:14.587Z</time>
      </trkpt>
      <trkpt lat="43.52479" lon="5.61542">
        <ele>590</ele>
        <time>2022-10-19T11:59:15.587Z</time>
      </trkpt>
      <trkpt lat="43.52478" lon="5.61542">
        <ele>590</ele>
        <time>2022-10-19T11:59:16.587Z</time>
      </trkpt>
      <trkpt lat="43.52477" lon="5.61543">
        <ele>590</ele>
        <time>2022-10-19T11:59:17.587Z</time>
      </trkpt>
      <trkpt lat="43.52476" lon="5.61543">
        <ele>590</ele>
        <time>2022-10-19T11:59:18.587Z</time>
      </trkpt>
      <trkpt lat="43.52476" lon="5.61543">
        <ele>590</ele>
        <time>2022-10-19T11:59:19.587Z</time>
      </trkpt>
      <trkpt lat="43.52475" lon="5.61543">
        <ele>590</ele>
        <time>2022-10-19T11:59:20.587Z</time>
      </trkpt>
      <trkpt lat="43.52474" lon="5.61543">
        <ele>590</ele>
        <time>2022-10-19T11:59:21.587Z</time>
      </trkpt>
      <trkpt lat="43.52473" lon="5.61542">
        <ele>590</ele>
        <time>2022-10-19T11:59:22.587Z</time>
      </trkpt>
      <trkpt lat="43.52471" lon="5.61542">
        <ele>590</ele>
        <time>2022-10-19T11:59:23.587Z</time>
      </trkpt>
      <trkpt lat="43.5247" lon="5.61542">
        <ele>590</ele>
        <time>2022-10-19T11:59:24.587Z</time>
      </trkpt>
      <trkpt lat="43.52469" lon="5.61542">
        <ele>590</ele>
        <time>2022-10-19T11:59:25.587Z</time>
      </trkpt>
      <trkpt lat="43.52468" lon="5.61541">
        <ele>590</ele>
        <time>2022-10-19T11:59:26.587Z</time>
      </trkpt>
      <trkpt lat="43.52467" lon="5.61541">
        <ele>590</ele>
        <time>2022-10-19T11:59:27.587Z</time>
      </trkpt>
      <trkpt lat="43.52466" lon="5.61541">
        <ele>589</ele>
        <time>2022-10-19T11:59:28.587Z</time>
      </trkpt>
      <trkpt lat="43.52465" lon="5.61541">
        <ele>589</ele>
        <time>2022-10-19T11:59:29.587Z</time>
      </trkpt>
      <trkpt lat="43.52465" lon="5.61541">
        <ele>589</ele>
        <time>2022-10-19T11:59:30.587Z</time>
      </trkpt>
      <trkpt lat="43.52464" lon="5.61541">
        <ele>589</ele>
        <time>2022-10-19T11:59:31.587Z</time>
      </trkpt>
      <trkpt lat="43.52464" lon="5.61541">
        <ele>589</ele>
        <time>2022-10-19T11:59:32.587Z</time>
      </trkpt>
      <trkpt lat="43.52464" lon="5.61541">
        <ele>589</ele>
        <time>2022-10-19T11:59:33.587Z</time>
      </trkpt>
      <trkpt lat="43.52464" lon="5.61541">
        <ele>589</ele>
        <time>2022-10-19T11:59:34.587Z</time>
      </trkpt>
      <trkpt lat="43.52464" lon="5.61541">
        <ele>589</ele>
        <time>2022-10-19T11:59:35.587Z</time>
      </trkpt>
      <trkpt lat="43.52464" lon="5.61541">
        <ele>589</ele>
        <time>2022-10-19T11:59:36.587Z</time>
      </trkpt>
      <trkpt lat="43.52464" lon="5.61541">
        <ele>589</ele>
        <time>2022-10-19T11:59:37.587Z</time>
      </trkpt>
      <trkpt lat="43.52464" lon="5.61541">
        <ele>589</ele>
        <time>2022-10-19T11:59:38.587Z</time>
      </trkpt>
      <trkpt lat="43.52464" lon="5.61542">
        <ele>589</ele>
        <time>2022-10-19T11:59:39.587Z</time>
      </trkpt>
      <trkpt lat="43.52464" lon="5.61542">
        <ele>589</ele>
        <time>2022-10-19T11:59:40.587Z</time>
      </trkpt>
      <trkpt lat="43.52464" lon="5.61542">
        <ele>589</ele>
        <time>2022-10-19T11:59:41.587Z</time>
      </trkpt>
      <trkpt lat="43.52464" lon="5.61542">
        <ele>589</ele>
        <time>2022-10-19T11:59:42.587Z</time>
      </trkpt>
      <trkpt lat="43.52464" lon="5.61542">
        <ele>589</ele>
        <time>2022-10-19T11:59:43.587Z</time>
      </trkpt>
      <trkpt lat="43.52464" lon="5.61542">
        <ele>589</ele>
        <time>2022-10-19T11:59:44.587Z</time>
      </trkpt>
      <trkpt lat="43.52464" lon="5.61542">
        <ele>589</ele>
        <time>2022-10-19T11:59:45.587Z</time>
      </trkpt>
      <trkpt lat="43.52464" lon="5.61542">
        <ele>589</ele>
        <time>2022-10-19T11:59:46.587Z</time>
      </trkpt>
      <trkpt lat="43.52463" lon="5.61542">
        <ele>589</ele>
        <time>2022-10-19T11:59:47.587Z</time>
      </trkpt>
      <trkpt lat="43.52463" lon="5.61542">
        <ele>589</ele>
        <time>2022-10-19T11:59:48.587Z</time>
      </trkpt>
      <trkpt lat="43.52463" lon="5.61542">
        <ele>589</ele>
        <time>2022-10-19T11:59:49.587Z</time>
      </trkpt>
      <trkpt lat="43.52463" lon="5.61542">
        <ele>589</ele>
        <time>2022-10-19T11:59:50.587Z</time>
      </trkpt>
      <trkpt lat="43.52463" lon="5.61542">
        <ele>589</ele>
        <time>2022-10-19T11:59:51.587Z</time>
      </trkpt>
      <trkpt lat="43.52463" lon="5.61542">
        <ele>589</ele>
        <time>2022-10-19T11:59:52.587Z</time>
      </trkpt>
      <trkpt lat="43.52463" lon="5.61542">
        <ele>589</ele>
        <time>2022-10-19T11:59:53.587Z</time>
      </trkpt>
      <trkpt lat="43.52463" lon="5.61542">
        <ele>589</ele>
        <time>2022-10-19T11:59:54.587Z</time>
      </trkpt>
      <trkpt lat="43.52463" lon="5.61542">
        <ele>589</ele>
        <time>2022-10-19T11:59:55.587Z</time>
      </trkpt>
      <trkpt lat="43.52463" lon="5.61542">
        <ele>589</ele>
        <time>2022-10-19T11:59:56.587Z</time>
      </trkpt>
      <trkpt lat="43.52463" lon="5.61542">
        <ele>589</ele>
        <time>2022-10-19T11:59:57.587Z</time>
      </trkpt>
      <trkpt lat="43.52463" lon="5.61542">
        <ele>589</ele>
        <time>2022-10-19T11:59:58.587Z</time>
      </trkpt>
      <trkpt lat="43.52463" lon="5.61542">
        <ele>589</ele>
        <time>2022-10-19T11:59:59.587Z</time>
      </trkpt>
      <trkpt lat="43.52463" lon="5.61542">
        <ele>589</ele>
        <time>2022-10-19T12:00:00.587Z</time>
      </trkpt>
      <trkpt lat="43.52463" lon="5.61542">
        <ele>589</ele>
        <time>2022-10-19T12:00:01.587Z</time>
      </trkpt>
      <trkpt lat="43.52463" lon="5.61543">
        <ele>589</ele>
        <time>2022-10-19T12:00:02.587Z</time>
      </trkpt>
      <trkpt lat="43.52463" lon="5.61543">
        <ele>589</ele>
        <time>2022-10-19T12:00:03.587Z</time>
      </trkpt>
      <trkpt lat="43.52463" lon="5.61543">
        <ele>589</ele>
        <time>2022-10-19T12:00:04.587Z</time>
      </trkpt>
      <trkpt lat="43.52463" lon="5.61543">
        <ele>589</ele>
        <time>2022-10-19T12:00:05.587Z</time>
      </trkpt>
      <trkpt lat="43.52463" lon="5.61543">
        <ele>589</ele>
        <time>2022-10-19T12:00:06.587Z</time>
      </trkpt>
      <trkpt lat="43.52463" lon="5.61543">
        <ele>589</ele>
        <time>2022-10-19T12:00:07.587Z</time>
      </trkpt>
      <trkpt lat="43.52463" lon="5.61543">
        <ele>589</ele>
        <time>2022-10-19T12:00:08.587Z</time>
      </trkpt>
      <trkpt lat="43.52463" lon="5.61543">
        <ele>589</ele>
        <time>2022-10-19T12:00:09.587Z</time>
      </trkpt>
      <trkpt lat="43.52463" lon="5.61543">
        <ele>589</ele>
        <time>2022-10-19T12:00:10.587Z</time>
      </trkpt>
      <trkpt lat="43.52463" lon="5.61543">
        <ele>589</ele>
        <time>2022-10-19T12:00:11.587Z</time>
      </trkpt>
      <trkpt lat="43.52463" lon="5.61543">
        <ele>589</ele>
        <time>2022-10-19T12:00:12.587Z</time>
      </trkpt>
      <trkpt lat="43.52463" lon="5.61543">
        <ele>589</ele>
        <time>2022-10-19T12:00:13.587Z</time>
      </trkpt>
      <trkpt lat="43.52463" lon="5.61543">
        <ele>589</ele>
        <time>2022-10-19T12:00:14.587Z</time>
      </trkpt>
      <trkpt lat="43.52463" lon="5.61543">
        <ele>589</ele>
        <time>2022-10-19T12:00:15.587Z</time>
      </trkpt>
      <trkpt lat="43.52463" lon="5.61542">
        <ele>589</ele>
        <time>2022-10-19T12:00:16.587Z</time>
      </trkpt>
      <trkpt lat="43.52463" lon="5.61542">
        <ele>589</ele>
        <time>2022-10-19T12:00:17.587Z</time>
      </trkpt>
      <trkpt lat="43.52463" lon="5.61542">
        <ele>589</ele>
        <time>2022-10-19T12:00:18.587Z</time>
      </trkpt>
      <trkpt lat="43.52463" lon="5.61542">
        <ele>589</ele>
        <time>2022-10-19T12:00:19.587Z</time>
      </trkpt>
      <trkpt lat="43.52463" lon="5.61542">
        <ele>589</ele>
        <time>2022-10-19T12:00:20.587Z</time>
      </trkpt>
      <trkpt lat="43.52463" lon="5.61542">
        <ele>589</ele>
        <time>2022-10-19T12:00:21.587Z</time>
      </trkpt>
      <trkpt lat="43.52463" lon="5.61542">
        <ele>589</ele>
        <time>2022-10-19T12:00:22.587Z</time>
      </trkpt>
      <trkpt lat="43.52463" lon="5.61542">
        <ele>589</ele>
        <time>2022-10-19T12:00:23.587Z</time>
      </trkpt>
      <trkpt lat="43.52463" lon="5.61542">
        <ele>589</ele>
        <time>2022-10-19T12:00:24.587Z</time>
      </trkpt>
      <trkpt lat="43.52463" lon="5.61542">
        <ele>589</ele>
        <time>2022-10-19T12:00:25.587Z</time>
      </trkpt>
      <trkpt lat="43.52463" lon="5.61542">
        <ele>588</ele>
        <time>2022-10-19T12:00:26.587Z</time>
      </trkpt>
      <trkpt lat="43.52463" lon="5.61542">
        <ele>588</ele>
        <time>2022-10-19T12:00:27.587Z</time>
      </trkpt>
      <trkpt lat="43.52463" lon="5.61542">
        <ele>588</ele>
        <time>2022-10-19T12:00:28.587Z</time>
      </trkpt>
      <trkpt lat="43.52463" lon="5.61542">
        <ele>588</ele>
        <time>2022-10-19T12:00:29.587Z</time>
      </trkpt>
      <trkpt lat="43.52463" lon="5.61542">
        <ele>588</ele>
        <time>2022-10-19T12:00:30.587Z</time>
      </trkpt>
      <trkpt lat="43.52463" lon="5.61542">
        <ele>588</ele>
        <time>2022-10-19T12:00:31.587Z</time>
      </trkpt>
      <trkpt lat="43.52463" lon="5.61542">
        <ele>588</ele>
        <time>2022-10-19T12:00:32.587Z</time>
      </trkpt>
      <trkpt lat="43.52463" lon="5.61542">
        <ele>588</ele>
        <time>2022-10-19T12:00:33.587Z</time>
      </trkpt>
      <trkpt lat="43.52463" lon="5.61542">
        <ele>588</ele>
        <time>2022-10-19T12:00:34.587Z</time>
      </trkpt>
      <trkpt lat="43.52463" lon="5.61542">
        <ele>588</ele>
        <time>2022-10-19T12:00:35.587Z</time>
      </trkpt>
      <trkpt lat="43.52463" lon="5.61542">
        <ele>588</ele>
        <time>2022-10-19T12:00:36.587Z</time>
      </trkpt>
      <trkpt lat="43.52463" lon="5.61542">
        <ele>588</ele>
        <time>2022-10-19T12:00:37.587Z</time>
      </trkpt>
      <trkpt lat="43.52463" lon="5.61542">
        <ele>588</ele>
        <time>2022-10-19T12:00:38.587Z</time>
      </trkpt>
      <trkpt lat="43.52463" lon="5.61542">
        <ele>588</ele>
        <time>2022-10-19T12:00:39.587Z</time>
      </trkpt>
      <trkpt lat="43.52463" lon="5.61542">
        <ele>588</ele>
        <time>2022-10-19T12:00:40.587Z</time>
      </trkpt>
      <trkpt lat="43.52463" lon="5.61542">
        <ele>588</ele>
        <time>2022-10-19T12:00:41.587Z</time>
      </trkpt>
      <trkpt lat="43.52463" lon="5.61542">
        <ele>588</ele>
        <time>2022-10-19T12:00:42.587Z</time>
      </trkpt>
      <trkpt lat="43.52463" lon="5.61542">
        <ele>588</ele>
        <time>2022-10-19T12:00:43.587Z</time>
      </trkpt>
      <trkpt lat="43.52463" lon="5.61542">
        <ele>588</ele>
        <time>2022-10-19T12:00:44.587Z</time>
      </trkpt>
      <trkpt lat="43.52463" lon="5.61542">
        <ele>588</ele>
        <time>2022-10-19T12:00:45.587Z</time>
      </trkpt>
      <trkpt lat="43.52463" lon="5.61542">
        <ele>588</ele>
        <time>2022-10-19T12:00:46.587Z</time>
      </trkpt>
      <trkpt lat="43.52463" lon="5.61542">
        <ele>588</ele>
        <time>2022-10-19T12:00:47.587Z</time>
      </trkpt>
      <trkpt lat="43.52463" lon="5.61542">
        <ele>588</ele>
        <time>2022-10-19T12:00:48.587Z</time>
      </trkpt>
      <trkpt lat="43.52462" lon="5.61542">
        <ele>588</ele>
        <time>2022-10-19T12:00:49.587Z</time>
      </trkpt>
      <trkpt lat="43.52462" lon="5.61542">
        <ele>588</ele>
        <time>2022-10-19T12:00:50.587Z</time>
      </trkpt>
      <trkpt lat="43.52462" lon="5.61542">
        <ele>588</ele>
        <time>2022-10-19T12:00:51.587Z</time>
      </trkpt>
      <trkpt lat="43.52461" lon="5.61542">
        <ele>588</ele>
        <time>2022-10-19T12:00:52.587Z</time>
      </trkpt>
      <trkpt lat="43.52461" lon="5.61542">
        <ele>587</ele>
        <time>2022-10-19T12:00:53.587Z</time>
      </trkpt>
      <trkpt lat="43.5246" lon="5.61542">
        <ele>587</ele>
        <time>2022-10-19T12:00:54.587Z</time>
      </trkpt>
      <trkpt lat="43.52459" lon="5.61542">
        <ele>587</ele>
        <time>2022-10-19T12:00:55.587Z</time>
      </trkpt>
      <trkpt lat="43.52458" lon="5.61542">
        <ele>587</ele>
        <time>2022-10-19T12:00:56.587Z</time>
      </trkpt>
      <trkpt lat="43.52457" lon="5.61543">
        <ele>587</ele>
        <time>2022-10-19T12:00:57.587Z</time>
      </trkpt>
      <trkpt lat="43.52456" lon="5.61543">
        <ele>587</ele>
        <time>2022-10-19T12:00:58.587Z</time>
      </trkpt>
      <trkpt lat="43.52455" lon="5.61544">
        <ele>587</ele>
        <time>2022-10-19T12:00:59.587Z</time>
      </trkpt>
      <trkpt lat="43.52454" lon="5.61545">
        <ele>587</ele>
        <time>2022-10-19T12:01:00.587Z</time>
      </trkpt>
      <trkpt lat="43.52453" lon="5.61545">
        <ele>587</ele>
        <time>2022-10-19T12:01:01.587Z</time>
      </trkpt>
      <trkpt lat="43.52452" lon="5.61546">
        <ele>587</ele>
        <time>2022-10-19T12:01:02.587Z</time>
      </trkpt>
      <trkpt lat="43.52451" lon="5.61547">
        <ele>586</ele>
        <time>2022-10-19T12:01:03.587Z</time>
      </trkpt>
      <trkpt lat="43.5245" lon="5.61549">
        <ele>586</ele>
        <time>2022-10-19T12:01:04.587Z</time>
      </trkpt>
      <trkpt lat="43.52449" lon="5.6155">
        <ele>586</ele>
        <time>2022-10-19T12:01:05.587Z</time>
      </trkpt>
      <trkpt lat="43.52448" lon="5.61551">
        <ele>586</ele>
        <time>2022-10-19T12:01:06.587Z</time>
      </trkpt>
      <trkpt lat="43.52448" lon="5.61553">
        <ele>586</ele>
        <time>2022-10-19T12:01:07.587Z</time>
      </trkpt>
      <trkpt lat="43.52447" lon="5.61554">
        <ele>586</ele>
        <time>2022-10-19T12:01:08.587Z</time>
      </trkpt>
      <trkpt lat="43.52446" lon="5.61555">
        <ele>586</ele>
        <time>2022-10-19T12:01:09.587Z</time>
      </trkpt>
      <trkpt lat="43.52445" lon="5.61556">
        <ele>586</ele>
        <time>2022-10-19T12:01:10.587Z</time>
      </trkpt>
      <trkpt lat="43.52445" lon="5.61558">
        <ele>586</ele>
        <time>2022-10-19T12:01:11.587Z</time>
      </trkpt>
      <trkpt lat="43.52444" lon="5.61559">
        <ele>586</ele>
        <time>2022-10-19T12:01:12.587Z</time>
      </trkpt>
      <trkpt lat="43.52444" lon="5.6156">
        <ele>585</ele>
        <time>2022-10-19T12:01:13.587Z</time>
      </trkpt>
      <trkpt lat="43.52443" lon="5.61561">
        <ele>585</ele>
        <time>2022-10-19T12:01:14.587Z</time>
      </trkpt>
      <trkpt lat="43.52442" lon="5.61562">
        <ele>585</ele>
        <time>2022-10-19T12:01:15.587Z</time>
      </trkpt>
      <trkpt lat="43.52441" lon="5.61563">
        <ele>585</ele>
        <time>2022-10-19T12:01:16.587Z</time>
      </trkpt>
      <trkpt lat="43.52441" lon="5.61565">
        <ele>585</ele>
        <time>2022-10-19T12:01:17.587Z</time>
      </trkpt>
      <trkpt lat="43.5244" lon="5.61566">
        <ele>585</ele>
        <time>2022-10-19T12:01:18.587Z</time>
      </trkpt>
      <trkpt lat="43.52439" lon="5.61567">
        <ele>585</ele>
        <time>2022-10-19T12:01:19.587Z</time>
      </trkpt>
      <trkpt lat="43.52439" lon="5.61568">
        <ele>584</ele>
        <time>2022-10-19T12:01:20.587Z</time>
      </trkpt>
      <trkpt lat="43.52438" lon="5.6157">
        <ele>584</ele>
        <time>2022-10-19T12:01:21.587Z</time>
      </trkpt>
      <trkpt lat="43.52437" lon="5.61571">
        <ele>584</ele>
        <time>2022-10-19T12:01:22.587Z</time>
      </trkpt>
      <trkpt lat="43.52437" lon="5.61572">
        <ele>584</ele>
        <time>2022-10-19T12:01:23.587Z</time>
      </trkpt>
      <trkpt lat="43.52436" lon="5.61573">
        <ele>584</ele>
        <time>2022-10-19T12:01:24.587Z</time>
      </trkpt>
      <trkpt lat="43.52436" lon="5.61574">
        <ele>584</ele>
        <time>2022-10-19T12:01:25.587Z</time>
      </trkpt>
      <trkpt lat="43.52435" lon="5.61576">
        <ele>584</ele>
        <time>2022-10-19T12:01:26.587Z</time>
      </trkpt>
      <trkpt lat="43.52434" lon="5.61577">
        <ele>583</ele>
        <time>2022-10-19T12:01:27.587Z</time>
      </trkpt>
      <trkpt lat="43.52434" lon="5.61578">
        <ele>583</ele>
        <time>2022-10-19T12:01:28.587Z</time>
      </trkpt>
      <trkpt lat="43.52433" lon="5.61579">
        <ele>583</ele>
        <time>2022-10-19T12:01:29.587Z</time>
      </trkpt>
      <trkpt lat="43.52432" lon="5.6158">
        <ele>583</ele>
        <time>2022-10-19T12:01:30.587Z</time>
      </trkpt>
      <trkpt lat="43.52432" lon="5.61581">
        <ele>583</ele>
        <time>2022-10-19T12:01:31.587Z</time>
      </trkpt>
      <trkpt lat="43.52431" lon="5.61582">
        <ele>583</ele>
        <time>2022-10-19T12:01:32.587Z</time>
      </trkpt>
      <trkpt lat="43.52431" lon="5.61583">
        <ele>583</ele>
        <time>2022-10-19T12:01:33.587Z</time>
      </trkpt>
      <trkpt lat="43.5243" lon="5.61584">
        <ele>582</ele>
        <time>2022-10-19T12:01:34.587Z</time>
      </trkpt>
      <trkpt lat="43.5243" lon="5.61585">
        <ele>582</ele>
        <time>2022-10-19T12:01:35.587Z</time>
      </trkpt>
      <trkpt lat="43.52429" lon="5.61586">
        <ele>582</ele>
        <time>2022-10-19T12:01:36.587Z</time>
      </trkpt>
      <trkpt lat="43.52429" lon="5.61587">
        <ele>582</ele>
        <time>2022-10-19T12:01:37.587Z</time>
      </trkpt>
      <trkpt lat="43.52428" lon="5.61588">
        <ele>582</ele>
        <time>2022-10-19T12:01:38.587Z</time>
      </trkpt>
      <trkpt lat="43.52428" lon="5.61589">
        <ele>582</ele>
        <time>2022-10-19T12:01:39.587Z</time>
      </trkpt>
      <trkpt lat="43.52427" lon="5.6159">
        <ele>581</ele>
        <time>2022-10-19T12:01:40.587Z</time>
      </trkpt>
      <trkpt lat="43.52427" lon="5.61592">
        <ele>581</ele>
        <time>2022-10-19T12:01:41.587Z</time>
      </trkpt>
      <trkpt lat="43.52427" lon="5.61593">
        <ele>581</ele>
        <time>2022-10-19T12:01:42.587Z</time>
      </trkpt>
      <trkpt lat="43.52426" lon="5.61594">
        <ele>581</ele>
        <time>2022-10-19T12:01:43.587Z</time>
      </trkpt>
      <trkpt lat="43.52425" lon="5.61595">
        <ele>581</ele>
        <time>2022-10-19T12:01:44.587Z</time>
      </trkpt>
      <trkpt lat="43.52424" lon="5.61596">
        <ele>581</ele>
        <time>2022-10-19T12:01:45.587Z</time>
      </trkpt>
      <trkpt lat="43.52423" lon="5.61598">
        <ele>581</ele>
        <time>2022-10-19T12:01:46.587Z</time>
      </trkpt>
      <trkpt lat="43.52423" lon="5.61599">
        <ele>580</ele>
        <time>2022-10-19T12:01:47.587Z</time>
      </trkpt>
      <trkpt lat="43.52422" lon="5.616">
        <ele>580</ele>
        <time>2022-10-19T12:01:48.587Z</time>
      </trkpt>
      <trkpt lat="43.52422" lon="5.61601">
        <ele>580</ele>
        <time>2022-10-19T12:01:49.587Z</time>
      </trkpt>
      <trkpt lat="43.52421" lon="5.61602">
        <ele>580</ele>
        <time>2022-10-19T12:01:50.587Z</time>
      </trkpt>
      <trkpt lat="43.52421" lon="5.61603">
        <ele>580</ele>
        <time>2022-10-19T12:01:51.587Z</time>
      </trkpt>
      <trkpt lat="43.5242" lon="5.61605">
        <ele>580</ele>
        <time>2022-10-19T12:01:52.587Z</time>
      </trkpt>
      <trkpt lat="43.52419" lon="5.61606">
        <ele>580</ele>
        <time>2022-10-19T12:01:53.587Z</time>
      </trkpt>
      <trkpt lat="43.52419" lon="5.61607">
        <ele>580</ele>
        <time>2022-10-19T12:01:54.587Z</time>
      </trkpt>
      <trkpt lat="43.52419" lon="5.61609">
        <ele>579</ele>
        <time>2022-10-19T12:01:55.587Z</time>
      </trkpt>
      <trkpt lat="43.52418" lon="5.6161">
        <ele>579</ele>
        <time>2022-10-19T12:01:56.587Z</time>
      </trkpt>
      <trkpt lat="43.52418" lon="5.61611">
        <ele>579</ele>
        <time>2022-10-19T12:01:57.587Z</time>
      </trkpt>
      <trkpt lat="43.52418" lon="5.61613">
        <ele>579</ele>
        <time>2022-10-19T12:01:58.587Z</time>
      </trkpt>
      <trkpt lat="43.52417" lon="5.61614">
        <ele>579</ele>
        <time>2022-10-19T12:01:59.587Z</time>
      </trkpt>
      <trkpt lat="43.52417" lon="5.61616">
        <ele>578</ele>
        <time>2022-10-19T12:02:00.587Z</time>
      </trkpt>
      <trkpt lat="43.52417" lon="5.61617">
        <ele>578</ele>
        <time>2022-10-19T12:02:01.587Z</time>
      </trkpt>
      <trkpt lat="43.52417" lon="5.61619">
        <ele>578</ele>
        <time>2022-10-19T12:02:02.587Z</time>
      </trkpt>
      <trkpt lat="43.52417" lon="5.6162">
        <ele>578</ele>
        <time>2022-10-19T12:02:03.587Z</time>
      </trkpt>
      <trkpt lat="43.52416" lon="5.61621">
        <ele>577</ele>
        <time>2022-10-19T12:02:04.587Z</time>
      </trkpt>
      <trkpt lat="43.52416" lon="5.61623">
        <ele>577</ele>
        <time>2022-10-19T12:02:05.587Z</time>
      </trkpt>
      <trkpt lat="43.52416" lon="5.61624">
        <ele>577</ele>
        <time>2022-10-19T12:02:06.587Z</time>
      </trkpt>
      <trkpt lat="43.52415" lon="5.61625">
        <ele>577</ele>
        <time>2022-10-19T12:02:07.587Z</time>
      </trkpt>
      <trkpt lat="43.52415" lon="5.61627">
        <ele>577</ele>
        <time>2022-10-19T12:02:08.587Z</time>
      </trkpt>
      <trkpt lat="43.52415" lon="5.61628">
        <ele>577</ele>
        <time>2022-10-19T12:02:09.587Z</time>
      </trkpt>
      <trkpt lat="43.52415" lon="5.61629">
        <ele>576</ele>
        <time>2022-10-19T12:02:10.587Z</time>
      </trkpt>
      <trkpt lat="43.52414" lon="5.6163">
        <ele>576</ele>
        <time>2022-10-19T12:02:11.587Z</time>
      </trkpt>
      <trkpt lat="43.52414" lon="5.61631">
        <ele>576</ele>
        <time>2022-10-19T12:02:12.587Z</time>
      </trkpt>
      <trkpt lat="43.52413" lon="5.61633">
        <ele>576</ele>
        <time>2022-10-19T12:02:13.587Z</time>
      </trkpt>
      <trkpt lat="43.52413" lon="5.61634">
        <ele>576</ele>
        <time>2022-10-19T12:02:14.587Z</time>
      </trkpt>
      <trkpt lat="43.52412" lon="5.61635">
        <ele>575</ele>
        <time>2022-10-19T12:02:15.587Z</time>
      </trkpt>
      <trkpt lat="43.52412" lon="5.61637">
        <ele>575</ele>
        <time>2022-10-19T12:02:16.587Z</time>
      </trkpt>
      <trkpt lat="43.52412" lon="5.61638">
        <ele>575</ele>
        <time>2022-10-19T12:02:17.587Z</time>
      </trkpt>
      <trkpt lat="43.52412" lon="5.6164">
        <ele>575</ele>
        <time>2022-10-19T12:02:18.587Z</time>
      </trkpt>
      <trkpt lat="43.52412" lon="5.61641">
        <ele>574</ele>
        <time>2022-10-19T12:02:19.587Z</time>
      </trkpt>
      <trkpt lat="43.52412" lon="5.61643">
        <ele>574</ele>
        <time>2022-10-19T12:02:20.587Z</time>
      </trkpt>
      <trkpt lat="43.52412" lon="5.61644">
        <ele>574</ele>
        <time>2022-10-19T12:02:21.587Z</time>
      </trkpt>
      <trkpt lat="43.52412" lon="5.61646">
        <ele>573</ele>
        <time>2022-10-19T12:02:22.587Z</time>
      </trkpt>
      <trkpt lat="43.52412" lon="5.61647">
        <ele>573</ele>
        <time>2022-10-19T12:02:23.587Z</time>
      </trkpt>
      <trkpt lat="43.52411" lon="5.61648">
        <ele>573</ele>
        <time>2022-10-19T12:02:24.587Z</time>
      </trkpt>
      <trkpt lat="43.52411" lon="5.6165">
        <ele>573</ele>
        <time>2022-10-19T12:02:25.587Z</time>
      </trkpt>
      <trkpt lat="43.52411" lon="5.61651">
        <ele>573</ele>
        <time>2022-10-19T12:02:26.587Z</time>
      </trkpt>
      <trkpt lat="43.52411" lon="5.61651">
        <ele>572</ele>
        <time>2022-10-19T12:02:27.587Z</time>
      </trkpt>
      <trkpt lat="43.52411" lon="5.61651">
        <ele>572</ele>
        <time>2022-10-19T12:02:28.587Z</time>
      </trkpt>
      <trkpt lat="43.52411" lon="5.6165">
        <ele>572</ele>
        <time>2022-10-19T12:02:29.587Z</time>
      </trkpt>
      <trkpt lat="43.5241" lon="5.61651">
        <ele>572</ele>
        <time>2022-10-19T12:02:30.587Z</time>
      </trkpt>
      <trkpt lat="43.5241" lon="5.61652">
        <ele>572</ele>
        <time>2022-10-19T12:02:31.587Z</time>
      </trkpt>
      <trkpt lat="43.5241" lon="5.61653">
        <ele>572</ele>
        <time>2022-10-19T12:02:32.587Z</time>
      </trkpt>
      <trkpt lat="43.5241" lon="5.61654">
        <ele>572</ele>
        <time>2022-10-19T12:02:33.587Z</time>
      </trkpt>
      <trkpt lat="43.52409" lon="5.61656">
        <ele>572</ele>
        <time>2022-10-19T12:02:34.587Z</time>
      </trkpt>
      <trkpt lat="43.52409" lon="5.61657">
        <ele>571</ele>
        <time>2022-10-19T12:02:35.587Z</time>
      </trkpt>
      <trkpt lat="43.52408" lon="5.61658">
        <ele>571</ele>
        <time>2022-10-19T12:02:36.587Z</time>
      </trkpt>
      <trkpt lat="43.52408" lon="5.6166">
        <ele>571</ele>
        <time>2022-10-19T12:02:37.587Z</time>
      </trkpt>
      <trkpt lat="43.52407" lon="5.61661">
        <ele>571</ele>
        <time>2022-10-19T12:02:38.587Z</time>
      </trkpt>
      <trkpt lat="43.52407" lon="5.61662">
        <ele>571</ele>
        <time>2022-10-19T12:02:39.587Z</time>
      </trkpt>
      <trkpt lat="43.52407" lon="5.61663">
        <ele>571</ele>
        <time>2022-10-19T12:02:40.587Z</time>
      </trkpt>
      <trkpt lat="43.52407" lon="5.61664">
        <ele>571</ele>
        <time>2022-10-19T12:02:41.587Z</time>
      </trkpt>
      <trkpt lat="43.52406" lon="5.61665">
        <ele>571</ele>
        <time>2022-10-19T12:02:42.587Z</time>
      </trkpt>
      <trkpt lat="43.52406" lon="5.61665">
        <ele>571</ele>
        <time>2022-10-19T12:02:43.587Z</time>
      </trkpt>
      <trkpt lat="43.52406" lon="5.61666">
        <ele>571</ele>
        <time>2022-10-19T12:02:44.587Z</time>
      </trkpt>
      <trkpt lat="43.52405" lon="5.61667">
        <ele>571</ele>
        <time>2022-10-19T12:02:45.587Z</time>
      </trkpt>
      <trkpt lat="43.52405" lon="5.61668">
        <ele>570</ele>
        <time>2022-10-19T12:02:46.587Z</time>
      </trkpt>
      <trkpt lat="43.52405" lon="5.61669">
        <ele>570</ele>
        <time>2022-10-19T12:02:47.587Z</time>
      </trkpt>
      <trkpt lat="43.52405" lon="5.6167">
        <ele>570</ele>
        <time>2022-10-19T12:02:48.587Z</time>
      </trkpt>
      <trkpt lat="43.52404" lon="5.61671">
        <ele>570</ele>
        <time>2022-10-19T12:02:49.587Z</time>
      </trkpt>
      <trkpt lat="43.52404" lon="5.61672">
        <ele>570</ele>
        <time>2022-10-19T12:02:50.587Z</time>
      </trkpt>
      <trkpt lat="43.52404" lon="5.61673">
        <ele>570</ele>
        <time>2022-10-19T12:02:51.587Z</time>
      </trkpt>
      <trkpt lat="43.52404" lon="5.61674">
        <ele>570</ele>
        <time>2022-10-19T12:02:52.587Z</time>
      </trkpt>
      <trkpt lat="43.52404" lon="5.61675">
        <ele>570</ele>
        <time>2022-10-19T12:02:53.587Z</time>
      </trkpt>
      <trkpt lat="43.52404" lon="5.61676">
        <ele>569</ele>
        <time>2022-10-19T12:02:54.587Z</time>
      </trkpt>
      <trkpt lat="43.52404" lon="5.61677">
        <ele>569</ele>
        <time>2022-10-19T12:02:55.587Z</time>
      </trkpt>
      <trkpt lat="43.52404" lon="5.61678">
        <ele>569</ele>
        <time>2022-10-19T12:02:56.587Z</time>
      </trkpt>
      <trkpt lat="43.52403" lon="5.61679">
        <ele>569</ele>
        <time>2022-10-19T12:02:57.587Z</time>
      </trkpt>
      <trkpt lat="43.52403" lon="5.6168">
        <ele>569</ele>
        <time>2022-10-19T12:02:58.587Z</time>
      </trkpt>
      <trkpt lat="43.52403" lon="5.61681">
        <ele>569</ele>
        <time>2022-10-19T12:02:59.587Z</time>
      </trkpt>
      <trkpt lat="43.52403" lon="5.61681">
        <ele>569</ele>
        <time>2022-10-19T12:03:00.587Z</time>
      </trkpt>
      <trkpt lat="43.52403" lon="5.61682">
        <ele>568</ele>
        <time>2022-10-19T12:03:01.587Z</time>
      </trkpt>
      <trkpt lat="43.52403" lon="5.61683">
        <ele>568</ele>
        <time>2022-10-19T12:03:02.587Z</time>
      </trkpt>
      <trkpt lat="43.52402" lon="5.61684">
        <ele>568</ele>
        <time>2022-10-19T12:03:03.587Z</time>
      </trkpt>
      <trkpt lat="43.52402" lon="5.61685">
        <ele>568</ele>
        <time>2022-10-19T12:03:04.587Z</time>
      </trkpt>
      <trkpt lat="43.52402" lon="5.61686">
        <ele>568</ele>
        <time>2022-10-19T12:03:05.587Z</time>
      </trkpt>
      <trkpt lat="43.52401" lon="5.61687">
        <ele>568</ele>
        <time>2022-10-19T12:03:06.587Z</time>
      </trkpt>
      <trkpt lat="43.52401" lon="5.61688">
        <ele>568</ele>
        <time>2022-10-19T12:03:07.587Z</time>
      </trkpt>
      <trkpt lat="43.52401" lon="5.61689">
        <ele>567</ele>
        <time>2022-10-19T12:03:08.587Z</time>
      </trkpt>
      <trkpt lat="43.524" lon="5.6169">
        <ele>567</ele>
        <time>2022-10-19T12:03:09.587Z</time>
      </trkpt>
      <trkpt lat="43.524" lon="5.61691">
        <ele>567</ele>
        <time>2022-10-19T12:03:10.587Z</time>
      </trkpt>
      <trkpt lat="43.524" lon="5.61691">
        <ele>566</ele>
        <time>2022-10-19T12:03:11.587Z</time>
      </trkpt>
      <trkpt lat="43.524" lon="5.61691">
        <ele>566</ele>
        <time>2022-10-19T12:03:12.587Z</time>
      </trkpt>
      <trkpt lat="43.52401" lon="5.61691">
        <ele>566</ele>
        <time>2022-10-19T12:03:13.587Z</time>
      </trkpt>
      <trkpt lat="43.52401" lon="5.61692">
        <ele>566</ele>
        <time>2022-10-19T12:03:14.587Z</time>
      </trkpt>
      <trkpt lat="43.52401" lon="5.61692">
        <ele>566</ele>
        <time>2022-10-19T12:03:15.587Z</time>
      </trkpt>
      <trkpt lat="43.52401" lon="5.61692">
        <ele>566</ele>
        <time>2022-10-19T12:03:16.587Z</time>
      </trkpt>
      <trkpt lat="43.52401" lon="5.61692">
        <ele>566</ele>
        <time>2022-10-19T12:03:17.587Z</time>
      </trkpt>
      <trkpt lat="43.52401" lon="5.61693">
        <ele>566</ele>
        <time>2022-10-19T12:03:18.587Z</time>
      </trkpt>
      <trkpt lat="43.52401" lon="5.61694">
        <ele>565</ele>
        <time>2022-10-19T12:03:19.587Z</time>
      </trkpt>
      <trkpt lat="43.52401" lon="5.61695">
        <ele>565</ele>
        <time>2022-10-19T12:03:20.587Z</time>
      </trkpt>
      <trkpt lat="43.52401" lon="5.61697">
        <ele>565</ele>
        <time>2022-10-19T12:03:21.587Z</time>
      </trkpt>
      <trkpt lat="43.52401" lon="5.61698">
        <ele>565</ele>
        <time>2022-10-19T12:03:22.587Z</time>
      </trkpt>
      <trkpt lat="43.52401" lon="5.61699">
        <ele>565</ele>
        <time>2022-10-19T12:03:23.587Z</time>
      </trkpt>
      <trkpt lat="43.52401" lon="5.61701">
        <ele>565</ele>
        <time>2022-10-19T12:03:24.587Z</time>
      </trkpt>
      <trkpt lat="43.52401" lon="5.61702">
        <ele>565</ele>
        <time>2022-10-19T12:03:25.587Z</time>
      </trkpt>
      <trkpt lat="43.52401" lon="5.61703">
        <ele>565</ele>
        <time>2022-10-19T12:03:26.587Z</time>
      </trkpt>
      <trkpt lat="43.52401" lon="5.61705">
        <ele>564</ele>
        <time>2022-10-19T12:03:27.587Z</time>
      </trkpt>
      <trkpt lat="43.52401" lon="5.61706">
        <ele>564</ele>
        <time>2022-10-19T12:03:28.587Z</time>
      </trkpt>
      <trkpt lat="43.52401" lon="5.61708">
        <ele>564</ele>
        <time>2022-10-19T12:03:29.587Z</time>
      </trkpt>
      <trkpt lat="43.52401" lon="5.61709">
        <ele>564</ele>
        <time>2022-10-19T12:03:30.587Z</time>
      </trkpt>
      <trkpt lat="43.52401" lon="5.6171">
        <ele>564</ele>
        <time>2022-10-19T12:03:31.587Z</time>
      </trkpt>
      <trkpt lat="43.52401" lon="5.61712">
        <ele>564</ele>
        <time>2022-10-19T12:03:32.587Z</time>
      </trkpt>
      <trkpt lat="43.52401" lon="5.61713">
        <ele>564</ele>
        <time>2022-10-19T12:03:33.587Z</time>
      </trkpt>
      <trkpt lat="43.52401" lon="5.61714">
        <ele>564</ele>
        <time>2022-10-19T12:03:34.587Z</time>
      </trkpt>
      <trkpt lat="43.52401" lon="5.61715">
        <ele>564</ele>
        <time>2022-10-19T12:03:35.587Z</time>
      </trkpt>
      <trkpt lat="43.52401" lon="5.61716">
        <ele>564</ele>
        <time>2022-10-19T12:03:36.587Z</time>
      </trkpt>
      <trkpt lat="43.52401" lon="5.61716">
        <ele>564</ele>
        <time>2022-10-19T12:03:37.587Z</time>
      </trkpt>
      <trkpt lat="43.52401" lon="5.61717">
        <ele>564</ele>
        <time>2022-10-19T12:03:38.587Z</time>
      </trkpt>
      <trkpt lat="43.52401" lon="5.61717">
        <ele>564</ele>
        <time>2022-10-19T12:03:39.587Z</time>
      </trkpt>
      <trkpt lat="43.52401" lon="5.61717">
        <ele>564</ele>
        <time>2022-10-19T12:03:40.587Z</time>
      </trkpt>
      <trkpt lat="43.52401" lon="5.61717">
        <ele>563</ele>
        <time>2022-10-19T12:03:41.587Z</time>
      </trkpt>
      <trkpt lat="43.52401" lon="5.61717">
        <ele>563</ele>
        <time>2022-10-19T12:03:42.587Z</time>
      </trkpt>
      <trkpt lat="43.52401" lon="5.61717">
        <ele>563</ele>
        <time>2022-10-19T12:03:43.587Z</time>
      </trkpt>
      <trkpt lat="43.52401" lon="5.61717">
        <ele>563</ele>
        <time>2022-10-19T12:03:44.587Z</time>
      </trkpt>
      <trkpt lat="43.52401" lon="5.61717">
        <ele>563</ele>
        <time>2022-10-19T12:03:45.587Z</time>
      </trkpt>
      <trkpt lat="43.52401" lon="5.61717">
        <ele>563</ele>
        <time>2022-10-19T12:03:46.587Z</time>
      </trkpt>
      <trkpt lat="43.52401" lon="5.61717">
        <ele>563</ele>
        <time>2022-10-19T12:03:47.587Z</time>
      </trkpt>
      <trkpt lat="43.52401" lon="5.61717">
        <ele>563</ele>
        <time>2022-10-19T12:03:48.587Z</time>
      </trkpt>
      <trkpt lat="43.52401" lon="5.61717">
        <ele>563</ele>
        <time>2022-10-19T12:03:49.587Z</time>
      </trkpt>
      <trkpt lat="43.52401" lon="5.61717">
        <ele>563</ele>
        <time>2022-10-19T12:03:50.587Z</time>
      </trkpt>
      <trkpt lat="43.52401" lon="5.61717">
        <ele>563</ele>
        <time>2022-10-19T12:03:51.587Z</time>
      </trkpt>
      <trkpt lat="43.52401" lon="5.61717">
        <ele>563</ele>
        <time>2022-10-19T12:03:52.587Z</time>
      </trkpt>
      <trkpt lat="43.52401" lon="5.61717">
        <ele>563</ele>
        <time>2022-10-19T12:03:53.587Z</time>
      </trkpt>
      <trkpt lat="43.52401" lon="5.61717">
        <ele>563</ele>
        <time>2022-10-19T12:03:54.587Z</time>
      </trkpt>
      <trkpt lat="43.52401" lon="5.61717">
        <ele>563</ele>
        <time>2022-10-19T12:03:55.587Z</time>
      </trkpt>
      <trkpt lat="43.52401" lon="5.61717">
        <ele>563</ele>
        <time>2022-10-19T12:03:56.587Z</time>
      </trkpt>
      <trkpt lat="43.52401" lon="5.61717">
        <ele>563</ele>
        <time>2022-10-19T12:03:57.587Z</time>
      </trkpt>
      <trkpt lat="43.52401" lon="5.61718">
        <ele>563</ele>
        <time>2022-10-19T12:03:58.587Z</time>
      </trkpt>
      <trkpt lat="43.52401" lon="5.61719">
        <ele>563</ele>
        <time>2022-10-19T12:03:59.587Z</time>
      </trkpt>
      <trkpt lat="43.52401" lon="5.6172">
        <ele>563</ele>
        <time>2022-10-19T12:04:00.587Z</time>
      </trkpt>
      <trkpt lat="43.524" lon="5.61721">
        <ele>563</ele>
        <time>2022-10-19T12:04:01.587Z</time>
      </trkpt>
      <trkpt lat="43.524" lon="5.61723">
        <ele>563</ele>
        <time>2022-10-19T12:04:02.587Z</time>
      </trkpt>
      <trkpt lat="43.524" lon="5.61724">
        <ele>563</ele>
        <time>2022-10-19T12:04:03.587Z</time>
      </trkpt>
      <trkpt lat="43.524" lon="5.61726">
        <ele>563</ele>
        <time>2022-10-19T12:04:04.587Z</time>
      </trkpt>
      <trkpt lat="43.524" lon="5.61727">
        <ele>563</ele>
        <time>2022-10-19T12:04:05.587Z</time>
      </trkpt>
      <trkpt lat="43.52399" lon="5.61729">
        <ele>563</ele>
        <time>2022-10-19T12:04:06.587Z</time>
      </trkpt>
      <trkpt lat="43.52399" lon="5.6173">
        <ele>563</ele>
        <time>2022-10-19T12:04:07.587Z</time>
      </trkpt>
      <trkpt lat="43.52399" lon="5.61731">
        <ele>563</ele>
        <time>2022-10-19T12:04:08.587Z</time>
      </trkpt>
      <trkpt lat="43.52399" lon="5.61733">
        <ele>563</ele>
        <time>2022-10-19T12:04:09.587Z</time>
      </trkpt>
      <trkpt lat="43.52399" lon="5.61734">
        <ele>563</ele>
        <time>2022-10-19T12:04:10.587Z</time>
      </trkpt>
      <trkpt lat="43.52398" lon="5.61736">
        <ele>563</ele>
        <time>2022-10-19T12:04:11.587Z</time>
      </trkpt>
      <trkpt lat="43.52398" lon="5.61737">
        <ele>563</ele>
        <time>2022-10-19T12:04:12.587Z</time>
      </trkpt>
      <trkpt lat="43.52398" lon="5.61738">
        <ele>563</ele>
        <time>2022-10-19T12:04:13.587Z</time>
      </trkpt>
      <trkpt lat="43.52398" lon="5.61739">
        <ele>563</ele>
        <time>2022-10-19T12:04:14.587Z</time>
      </trkpt>
      <trkpt lat="43.52397" lon="5.6174">
        <ele>563</ele>
        <time>2022-10-19T12:04:15.587Z</time>
      </trkpt>
      <trkpt lat="43.52397" lon="5.61741">
        <ele>563</ele>
        <time>2022-10-19T12:04:16.587Z</time>
      </trkpt>
      <trkpt lat="43.52396" lon="5.61742">
        <ele>562</ele>
        <time>2022-10-19T12:04:17.587Z</time>
      </trkpt>
      <trkpt lat="43.52395" lon="5.61744">
        <ele>562</ele>
        <time>2022-10-19T12:04:18.587Z</time>
      </trkpt>
      <trkpt lat="43.52395" lon="5.61745">
        <ele>562</ele>
        <time>2022-10-19T12:04:19.587Z</time>
      </trkpt>
      <trkpt lat="43.52394" lon="5.61746">
        <ele>562</ele>
        <time>2022-10-19T12:04:20.587Z</time>
      </trkpt>
      <trkpt lat="43.52394" lon="5.61747">
        <ele>562</ele>
        <time>2022-10-19T12:04:21.587Z</time>
      </trkpt>
      <trkpt lat="43.52393" lon="5.61749">
        <ele>562</ele>
        <time>2022-10-19T12:04:22.587Z</time>
      </trkpt>
      <trkpt lat="43.52393" lon="5.6175">
        <ele>561</ele>
        <time>2022-10-19T12:04:23.587Z</time>
      </trkpt>
      <trkpt lat="43.52392" lon="5.61751">
        <ele>561</ele>
        <time>2022-10-19T12:04:24.587Z</time>
      </trkpt>
      <trkpt lat="43.52392" lon="5.61753">
        <ele>561</ele>
        <time>2022-10-19T12:04:25.587Z</time>
      </trkpt>
      <trkpt lat="43.52391" lon="5.61754">
        <ele>561</ele>
        <time>2022-10-19T12:04:26.587Z</time>
      </trkpt>
      <trkpt lat="43.5239" lon="5.61755">
        <ele>561</ele>
        <time>2022-10-19T12:04:27.587Z</time>
      </trkpt>
      <trkpt lat="43.5239" lon="5.61756">
        <ele>561</ele>
        <time>2022-10-19T12:04:28.587Z</time>
      </trkpt>
      <trkpt lat="43.52389" lon="5.61758">
        <ele>561</ele>
        <time>2022-10-19T12:04:29.587Z</time>
      </trkpt>
      <trkpt lat="43.52389" lon="5.61759">
        <ele>561</ele>
        <time>2022-10-19T12:04:30.587Z</time>
      </trkpt>
      <trkpt lat="43.52388" lon="5.6176">
        <ele>561</ele>
        <time>2022-10-19T12:04:31.587Z</time>
      </trkpt>
      <trkpt lat="43.52388" lon="5.61762">
        <ele>561</ele>
        <time>2022-10-19T12:04:32.587Z</time>
      </trkpt>
      <trkpt lat="43.52387" lon="5.61763">
        <ele>561</ele>
        <time>2022-10-19T12:04:33.587Z</time>
      </trkpt>
      <trkpt lat="43.52387" lon="5.61765">
        <ele>561</ele>
        <time>2022-10-19T12:04:34.587Z</time>
      </trkpt>
      <trkpt lat="43.52386" lon="5.61766">
        <ele>561</ele>
        <time>2022-10-19T12:04:35.587Z</time>
      </trkpt>
      <trkpt lat="43.52385" lon="5.61768">
        <ele>561</ele>
        <time>2022-10-19T12:04:36.587Z</time>
      </trkpt>
      <trkpt lat="43.52385" lon="5.61769">
        <ele>561</ele>
        <time>2022-10-19T12:04:37.587Z</time>
      </trkpt>
      <trkpt lat="43.52384" lon="5.6177">
        <ele>561</ele>
        <time>2022-10-19T12:04:38.587Z</time>
      </trkpt>
      <trkpt lat="43.52383" lon="5.61771">
        <ele>561</ele>
        <time>2022-10-19T12:04:39.587Z</time>
      </trkpt>
      <trkpt lat="43.52383" lon="5.61773">
        <ele>560</ele>
        <time>2022-10-19T12:04:40.587Z</time>
      </trkpt>
      <trkpt lat="43.52382" lon="5.61774">
        <ele>560</ele>
        <time>2022-10-19T12:04:41.587Z</time>
      </trkpt>
      <trkpt lat="43.52382" lon="5.61776">
        <ele>560</ele>
        <time>2022-10-19T12:04:42.587Z</time>
      </trkpt>
      <trkpt lat="43.52381" lon="5.61777">
        <ele>560</ele>
        <time>2022-10-19T12:04:43.587Z</time>
      </trkpt>
      <trkpt lat="43.5238" lon="5.61778">
        <ele>559</ele>
        <time>2022-10-19T12:04:44.587Z</time>
      </trkpt>
      <trkpt lat="43.52379" lon="5.6178">
        <ele>559</ele>
        <time>2022-10-19T12:04:45.587Z</time>
      </trkpt>
      <trkpt lat="43.52378" lon="5.6178">
        <ele>559</ele>
        <time>2022-10-19T12:04:46.587Z</time>
      </trkpt>
      <trkpt lat="43.52377" lon="5.61782">
        <ele>558</ele>
        <time>2022-10-19T12:04:47.587Z</time>
      </trkpt>
      <trkpt lat="43.52376" lon="5.61783">
        <ele>558</ele>
        <time>2022-10-19T12:04:48.587Z</time>
      </trkpt>
      <trkpt lat="43.52375" lon="5.61784">
        <ele>558</ele>
        <time>2022-10-19T12:04:49.587Z</time>
      </trkpt>
      <trkpt lat="43.52375" lon="5.61785">
        <ele>558</ele>
        <time>2022-10-19T12:04:50.587Z</time>
      </trkpt>
      <trkpt lat="43.52373" lon="5.61786">
        <ele>557</ele>
        <time>2022-10-19T12:04:51.587Z</time>
      </trkpt>
      <trkpt lat="43.52372" lon="5.61787">
        <ele>557</ele>
        <time>2022-10-19T12:04:52.587Z</time>
      </trkpt>
      <trkpt lat="43.52371" lon="5.61788">
        <ele>557</ele>
        <time>2022-10-19T12:04:53.587Z</time>
      </trkpt>
      <trkpt lat="43.5237" lon="5.61788">
        <ele>556</ele>
        <time>2022-10-19T12:04:54.587Z</time>
      </trkpt>
      <trkpt lat="43.52369" lon="5.61788">
        <ele>556</ele>
        <time>2022-10-19T12:04:55.587Z</time>
      </trkpt>
      <trkpt lat="43.52368" lon="5.61788">
        <ele>556</ele>
        <time>2022-10-19T12:04:56.587Z</time>
      </trkpt>
      <trkpt lat="43.52366" lon="5.61789">
        <ele>555</ele>
        <time>2022-10-19T12:04:57.587Z</time>
      </trkpt>
      <trkpt lat="43.52365" lon="5.61789">
        <ele>555</ele>
        <time>2022-10-19T12:04:58.587Z</time>
      </trkpt>
      <trkpt lat="43.52364" lon="5.61789">
        <ele>555</ele>
        <time>2022-10-19T12:04:59.587Z</time>
      </trkpt>
      <trkpt lat="43.52363" lon="5.61789">
        <ele>554</ele>
        <time>2022-10-19T12:05:00.587Z</time>
      </trkpt>
      <trkpt lat="43.52362" lon="5.61789">
        <ele>554</ele>
        <time>2022-10-19T12:05:01.587Z</time>
      </trkpt>
      <trkpt lat="43.52361" lon="5.6179">
        <ele>554</ele>
        <time>2022-10-19T12:05:02.587Z</time>
      </trkpt>
      <trkpt lat="43.52359" lon="5.6179">
        <ele>553</ele>
        <time>2022-10-19T12:05:03.587Z</time>
      </trkpt>
      <trkpt lat="43.52358" lon="5.6179">
        <ele>553</ele>
        <time>2022-10-19T12:05:04.587Z</time>
      </trkpt>
      <trkpt lat="43.52357" lon="5.6179">
        <ele>553</ele>
        <time>2022-10-19T12:05:05.587Z</time>
      </trkpt>
      <trkpt lat="43.52356" lon="5.6179">
        <ele>552</ele>
        <time>2022-10-19T12:05:06.587Z</time>
      </trkpt>
      <trkpt lat="43.52355" lon="5.6179">
        <ele>552</ele>
        <time>2022-10-19T12:05:07.587Z</time>
      </trkpt>
      <trkpt lat="43.52353" lon="5.6179">
        <ele>552</ele>
        <time>2022-10-19T12:05:08.587Z</time>
      </trkpt>
      <trkpt lat="43.52352" lon="5.6179">
        <ele>551</ele>
        <time>2022-10-19T12:05:09.587Z</time>
      </trkpt>
      <trkpt lat="43.52351" lon="5.6179">
        <ele>551</ele>
        <time>2022-10-19T12:05:10.587Z</time>
      </trkpt>
      <trkpt lat="43.5235" lon="5.61789">
        <ele>551</ele>
        <time>2022-10-19T12:05:11.587Z</time>
      </trkpt>
      <trkpt lat="43.52349" lon="5.61788">
        <ele>551</ele>
        <time>2022-10-19T12:05:12.587Z</time>
      </trkpt>
      <trkpt lat="43.52348" lon="5.61787">
        <ele>550</ele>
        <time>2022-10-19T12:05:13.587Z</time>
      </trkpt>
      <trkpt lat="43.52347" lon="5.61786">
        <ele>550</ele>
        <time>2022-10-19T12:05:14.587Z</time>
      </trkpt>
      <trkpt lat="43.52346" lon="5.61786">
        <ele>550</ele>
        <time>2022-10-19T12:05:15.587Z</time>
      </trkpt>
      <trkpt lat="43.52345" lon="5.61785">
        <ele>549</ele>
        <time>2022-10-19T12:05:16.587Z</time>
      </trkpt>
      <trkpt lat="43.52344" lon="5.61785">
        <ele>549</ele>
        <time>2022-10-19T12:05:17.587Z</time>
      </trkpt>
      <trkpt lat="43.52343" lon="5.61784">
        <ele>549</ele>
        <time>2022-10-19T12:05:18.587Z</time>
      </trkpt>
      <trkpt lat="43.52342" lon="5.61784">
        <ele>549</ele>
        <time>2022-10-19T12:05:19.587Z</time>
      </trkpt>
      <trkpt lat="43.52341" lon="5.61783">
        <ele>548</ele>
        <time>2022-10-19T12:05:20.587Z</time>
      </trkpt>
      <trkpt lat="43.52341" lon="5.61782">
        <ele>548</ele>
        <time>2022-10-19T12:05:21.587Z</time>
      </trkpt>
      <trkpt lat="43.5234" lon="5.61782">
        <ele>548</ele>
        <time>2022-10-19T12:05:22.587Z</time>
      </trkpt>
      <trkpt lat="43.52339" lon="5.61781">
        <ele>548</ele>
        <time>2022-10-19T12:05:23.587Z</time>
      </trkpt>
      <trkpt lat="43.52338" lon="5.6178">
        <ele>547</ele>
        <time>2022-10-19T12:05:24.587Z</time>
      </trkpt>
      <trkpt lat="43.52337" lon="5.61779">
        <ele>547</ele>
        <time>2022-10-19T12:05:25.587Z</time>
      </trkpt>
      <trkpt lat="43.52337" lon="5.61778">
        <ele>547</ele>
        <time>2022-10-19T12:05:26.587Z</time>
      </trkpt>
      <trkpt lat="43.52336" lon="5.61777">
        <ele>546</ele>
        <time>2022-10-19T12:05:27.587Z</time>
      </trkpt>
      <trkpt lat="43.52335" lon="5.61777">
        <ele>546</ele>
        <time>2022-10-19T12:05:28.587Z</time>
      </trkpt>
      <trkpt lat="43.52334" lon="5.61776">
        <ele>546</ele>
        <time>2022-10-19T12:05:29.587Z</time>
      </trkpt>
      <trkpt lat="43.52333" lon="5.61775">
        <ele>545</ele>
        <time>2022-10-19T12:05:30.587Z</time>
      </trkpt>
      <trkpt lat="43.52332" lon="5.61774">
        <ele>545</ele>
        <time>2022-10-19T12:05:31.587Z</time>
      </trkpt>
      <trkpt lat="43.52331" lon="5.61774">
        <ele>545</ele>
        <time>2022-10-19T12:05:32.587Z</time>
      </trkpt>
      <trkpt lat="43.5233" lon="5.61773">
        <ele>545</ele>
        <time>2022-10-19T12:05:33.587Z</time>
      </trkpt>
      <trkpt lat="43.52329" lon="5.61773">
        <ele>544</ele>
        <time>2022-10-19T12:05:34.587Z</time>
      </trkpt>
      <trkpt lat="43.52328" lon="5.61772">
        <ele>544</ele>
        <time>2022-10-19T12:05:35.587Z</time>
      </trkpt>
      <trkpt lat="43.52327" lon="5.61772">
        <ele>544</ele>
        <time>2022-10-19T12:05:36.587Z</time>
      </trkpt>
      <trkpt lat="43.52325" lon="5.61771">
        <ele>544</ele>
        <time>2022-10-19T12:05:37.587Z</time>
      </trkpt>
      <trkpt lat="43.52324" lon="5.61771">
        <ele>543</ele>
        <time>2022-10-19T12:05:38.587Z</time>
      </trkpt>
      <trkpt lat="43.52323" lon="5.6177">
        <ele>543</ele>
        <time>2022-10-19T12:05:39.587Z</time>
      </trkpt>
      <trkpt lat="43.52322" lon="5.6177">
        <ele>543</ele>
        <time>2022-10-19T12:05:40.587Z</time>
      </trkpt>
      <trkpt lat="43.52321" lon="5.61769">
        <ele>543</ele>
        <time>2022-10-19T12:05:41.587Z</time>
      </trkpt>
      <trkpt lat="43.5232" lon="5.61768">
        <ele>542</ele>
        <time>2022-10-19T12:05:42.587Z</time>
      </trkpt>
      <trkpt lat="43.52319" lon="5.61767">
        <ele>542</ele>
        <time>2022-10-19T12:05:43.587Z</time>
      </trkpt>
      <trkpt lat="43.52318" lon="5.61766">
        <ele>542</ele>
        <time>2022-10-19T12:05:44.587Z</time>
      </trkpt>
      <trkpt lat="43.52317" lon="5.61766">
        <ele>542</ele>
        <time>2022-10-19T12:05:45.587Z</time>
      </trkpt>
      <trkpt lat="43.52316" lon="5.61766">
        <ele>541</ele>
        <time>2022-10-19T12:05:46.587Z</time>
      </trkpt>
      <trkpt lat="43.52315" lon="5.61766">
        <ele>541</ele>
        <time>2022-10-19T12:05:47.587Z</time>
      </trkpt>
      <trkpt lat="43.52314" lon="5.61765">
        <ele>541</ele>
        <time>2022-10-19T12:05:48.587Z</time>
      </trkpt>
      <trkpt lat="43.52312" lon="5.61764">
        <ele>541</ele>
        <time>2022-10-19T12:05:49.587Z</time>
      </trkpt>
      <trkpt lat="43.52311" lon="5.61763">
        <ele>541</ele>
        <time>2022-10-19T12:05:50.587Z</time>
      </trkpt>
      <trkpt lat="43.5231" lon="5.61763">
        <ele>541</ele>
        <time>2022-10-19T12:05:51.587Z</time>
      </trkpt>
      <trkpt lat="43.52309" lon="5.61762">
        <ele>541</ele>
        <time>2022-10-19T12:05:52.587Z</time>
      </trkpt>
      <trkpt lat="43.52308" lon="5.61761">
        <ele>541</ele>
        <time>2022-10-19T12:05:53.587Z</time>
      </trkpt>
      <trkpt lat="43.52307" lon="5.6176">
        <ele>540</ele>
        <time>2022-10-19T12:05:54.587Z</time>
      </trkpt>
      <trkpt lat="43.52306" lon="5.6176">
        <ele>540</ele>
        <time>2022-10-19T12:05:55.587Z</time>
      </trkpt>
      <trkpt lat="43.52305" lon="5.61759">
        <ele>540</ele>
        <time>2022-10-19T12:05:56.587Z</time>
      </trkpt>
      <trkpt lat="43.52304" lon="5.61758">
        <ele>540</ele>
        <time>2022-10-19T12:05:57.587Z</time>
      </trkpt>
      <trkpt lat="43.52303" lon="5.61757">
        <ele>540</ele>
        <time>2022-10-19T12:05:58.587Z</time>
      </trkpt>
      <trkpt lat="43.52303" lon="5.61755">
        <ele>540</ele>
        <time>2022-10-19T12:05:59.587Z</time>
      </trkpt>
      <trkpt lat="43.52302" lon="5.61754">
        <ele>540</ele>
        <time>2022-10-19T12:06:00.587Z</time>
      </trkpt>
      <trkpt lat="43.52302" lon="5.61752">
        <ele>540</ele>
        <time>2022-10-19T12:06:01.587Z</time>
      </trkpt>
      <trkpt lat="43.52301" lon="5.61751">
        <ele>539</ele>
        <time>2022-10-19T12:06:02.587Z</time>
      </trkpt>
      <trkpt lat="43.52301" lon="5.61749">
        <ele>539</ele>
        <time>2022-10-19T12:06:03.587Z</time>
      </trkpt>
      <trkpt lat="43.523" lon="5.61748">
        <ele>539</ele>
        <time>2022-10-19T12:06:04.587Z</time>
      </trkpt>
      <trkpt lat="43.52299" lon="5.61747">
        <ele>539</ele>
        <time>2022-10-19T12:06:05.587Z</time>
      </trkpt>
      <trkpt lat="43.52298" lon="5.61746">
        <ele>539</ele>
        <time>2022-10-19T12:06:06.587Z</time>
      </trkpt>
      <trkpt lat="43.52298" lon="5.61745">
        <ele>539</ele>
        <time>2022-10-19T12:06:07.587Z</time>
      </trkpt>
      <trkpt lat="43.52297" lon="5.61744">
        <ele>539</ele>
        <time>2022-10-19T12:06:08.587Z</time>
      </trkpt>
      <trkpt lat="43.52296" lon="5.61743">
        <ele>539</ele>
        <time>2022-10-19T12:06:09.587Z</time>
      </trkpt>
      <trkpt lat="43.52295" lon="5.61742">
        <ele>539</ele>
        <time>2022-10-19T12:06:10.587Z</time>
      </trkpt>
      <trkpt lat="43.52294" lon="5.6174">
        <ele>539</ele>
        <time>2022-10-19T12:06:11.587Z</time>
      </trkpt>
      <trkpt lat="43.52293" lon="5.6174">
        <ele>539</ele>
        <time>2022-10-19T12:06:12.587Z</time>
      </trkpt>
      <trkpt lat="43.52292" lon="5.61738">
        <ele>538</ele>
        <time>2022-10-19T12:06:13.587Z</time>
      </trkpt>
      <trkpt lat="43.52292" lon="5.61737">
        <ele>538</ele>
        <time>2022-10-19T12:06:14.587Z</time>
      </trkpt>
      <trkpt lat="43.52291" lon="5.61736">
        <ele>538</ele>
        <time>2022-10-19T12:06:15.587Z</time>
      </trkpt>
      <trkpt lat="43.5229" lon="5.61735">
        <ele>538</ele>
        <time>2022-10-19T12:06:16.587Z</time>
      </trkpt>
      <trkpt lat="43.52289" lon="5.61734">
        <ele>538</ele>
        <time>2022-10-19T12:06:17.587Z</time>
      </trkpt>
      <trkpt lat="43.52288" lon="5.61734">
        <ele>537</ele>
        <time>2022-10-19T12:06:18.587Z</time>
      </trkpt>
      <trkpt lat="43.52287" lon="5.61733">
        <ele>537</ele>
        <time>2022-10-19T12:06:19.587Z</time>
      </trkpt>
      <trkpt lat="43.52286" lon="5.61732">
        <ele>537</ele>
        <time>2022-10-19T12:06:20.587Z</time>
      </trkpt>
      <trkpt lat="43.52285" lon="5.61732">
        <ele>537</ele>
        <time>2022-10-19T12:06:21.587Z</time>
      </trkpt>
      <trkpt lat="43.52284" lon="5.61731">
        <ele>537</ele>
        <time>2022-10-19T12:06:22.587Z</time>
      </trkpt>
      <trkpt lat="43.52283" lon="5.6173">
        <ele>537</ele>
        <time>2022-10-19T12:06:23.587Z</time>
      </trkpt>
      <trkpt lat="43.52282" lon="5.6173">
        <ele>536</ele>
        <time>2022-10-19T12:06:24.587Z</time>
      </trkpt>
      <trkpt lat="43.52281" lon="5.61729">
        <ele>536</ele>
        <time>2022-10-19T12:06:25.587Z</time>
      </trkpt>
      <trkpt lat="43.5228" lon="5.61729">
        <ele>536</ele>
        <time>2022-10-19T12:06:26.587Z</time>
      </trkpt>
      <trkpt lat="43.52278" lon="5.61728">
        <ele>536</ele>
        <time>2022-10-19T12:06:27.587Z</time>
      </trkpt>
      <trkpt lat="43.52277" lon="5.61728">
        <ele>536</ele>
        <time>2022-10-19T12:06:28.587Z</time>
      </trkpt>
      <trkpt lat="43.52277" lon="5.61728">
        <ele>536</ele>
        <time>2022-10-19T12:06:29.587Z</time>
      </trkpt>
      <trkpt lat="43.52276" lon="5.61727">
        <ele>536</ele>
        <time>2022-10-19T12:06:30.587Z</time>
      </trkpt>
      <trkpt lat="43.52276" lon="5.61727">
        <ele>536</ele>
        <time>2022-10-19T12:06:31.587Z</time>
      </trkpt>
      <trkpt lat="43.52276" lon="5.61727">
        <ele>535</ele>
        <time>2022-10-19T12:06:32.587Z</time>
      </trkpt>
      <trkpt lat="43.52276" lon="5.61727">
        <ele>535</ele>
        <time>2022-10-19T12:06:33.587Z</time>
      </trkpt>
      <trkpt lat="43.52276" lon="5.61727">
        <ele>535</ele>
        <time>2022-10-19T12:06:34.587Z</time>
      </trkpt>
      <trkpt lat="43.52276" lon="5.61727">
        <ele>535</ele>
        <time>2022-10-19T12:06:35.587Z</time>
      </trkpt>
      <trkpt lat="43.52276" lon="5.61727">
        <ele>535</ele>
        <time>2022-10-19T12:06:36.587Z</time>
      </trkpt>
      <trkpt lat="43.52276" lon="5.61727">
        <ele>535</ele>
        <time>2022-10-19T12:06:37.587Z</time>
      </trkpt>
      <trkpt lat="43.52276" lon="5.61727">
        <ele>535</ele>
        <time>2022-10-19T12:06:38.587Z</time>
      </trkpt>
      <trkpt lat="43.52276" lon="5.61728">
        <ele>535</ele>
        <time>2022-10-19T12:06:39.587Z</time>
      </trkpt>
      <trkpt lat="43.52276" lon="5.61728">
        <ele>535</ele>
        <time>2022-10-19T12:06:40.587Z</time>
      </trkpt>
      <trkpt lat="43.52276" lon="5.61728">
        <ele>535</ele>
        <time>2022-10-19T12:06:41.587Z</time>
      </trkpt>
      <trkpt lat="43.52276" lon="5.61728">
        <ele>535</ele>
        <time>2022-10-19T12:06:42.587Z</time>
      </trkpt>
      <trkpt lat="43.52276" lon="5.61728">
        <ele>535</ele>
        <time>2022-10-19T12:06:43.587Z</time>
      </trkpt>
      <trkpt lat="43.52275" lon="5.61728">
        <ele>535</ele>
        <time>2022-10-19T12:06:44.587Z</time>
      </trkpt>
      <trkpt lat="43.52275" lon="5.61728">
        <ele>535</ele>
        <time>2022-10-19T12:06:45.587Z</time>
      </trkpt>
      <trkpt lat="43.52275" lon="5.61728">
        <ele>535</ele>
        <time>2022-10-19T12:06:46.587Z</time>
      </trkpt>
      <trkpt lat="43.52275" lon="5.61728">
        <ele>535</ele>
        <time>2022-10-19T12:06:47.587Z</time>
      </trkpt>
      <trkpt lat="43.52275" lon="5.61728">
        <ele>535</ele>
        <time>2022-10-19T12:06:48.587Z</time>
      </trkpt>
      <trkpt lat="43.52275" lon="5.61728">
        <ele>535</ele>
        <time>2022-10-19T12:06:49.587Z</time>
      </trkpt>
      <trkpt lat="43.52275" lon="5.61728">
        <ele>535</ele>
        <time>2022-10-19T12:06:50.587Z</time>
      </trkpt>
      <trkpt lat="43.52275" lon="5.61728">
        <ele>535</ele>
        <time>2022-10-19T12:06:51.587Z</time>
      </trkpt>
      <trkpt lat="43.52275" lon="5.61728">
        <ele>535</ele>
        <time>2022-10-19T12:06:52.587Z</time>
      </trkpt>
      <trkpt lat="43.52275" lon="5.61728">
        <ele>535</ele>
        <time>2022-10-19T12:06:53.587Z</time>
      </trkpt>
      <trkpt lat="43.52275" lon="5.61728">
        <ele>535</ele>
        <time>2022-10-19T12:06:54.587Z</time>
      </trkpt>
      <trkpt lat="43.52275" lon="5.61728">
        <ele>535</ele>
        <time>2022-10-19T12:06:55.587Z</time>
      </trkpt>
      <trkpt lat="43.52275" lon="5.61728">
        <ele>535</ele>
        <time>2022-10-19T12:06:56.587Z</time>
      </trkpt>
      <trkpt lat="43.52275" lon="5.61728">
        <ele>535</ele>
        <time>2022-10-19T12:06:57.587Z</time>
      </trkpt>
      <trkpt lat="43.52275" lon="5.61728">
        <ele>535</ele>
        <time>2022-10-19T12:06:58.587Z</time>
      </trkpt>
      <trkpt lat="43.52275" lon="5.61728">
        <ele>535</ele>
        <time>2022-10-19T12:06:59.587Z</time>
      </trkpt>
      <trkpt lat="43.52275" lon="5.61728">
        <ele>535</ele>
        <time>2022-10-19T12:07:00.587Z</time>
      </trkpt>
      <trkpt lat="43.52275" lon="5.61728">
        <ele>535</ele>
        <time>2022-10-19T12:07:01.587Z</time>
      </trkpt>
      <trkpt lat="43.52275" lon="5.61728">
        <ele>535</ele>
        <time>2022-10-19T12:07:02.587Z</time>
      </trkpt>
      <trkpt lat="43.52275" lon="5.61728">
        <ele>535</ele>
        <time>2022-10-19T12:07:03.587Z</time>
      </trkpt>
      <trkpt lat="43.52275" lon="5.61728">
        <ele>535</ele>
        <time>2022-10-19T12:07:04.587Z</time>
      </trkpt>
      <trkpt lat="43.52275" lon="5.61728">
        <ele>535</ele>
        <time>2022-10-19T12:07:05.587Z</time>
      </trkpt>
      <trkpt lat="43.52275" lon="5.61728">
        <ele>535</ele>
        <time>2022-10-19T12:07:06.587Z</time>
      </trkpt>
      <trkpt lat="43.52275" lon="5.61728">
        <ele>534</ele>
        <time>2022-10-19T12:07:07.587Z</time>
      </trkpt>
      <trkpt lat="43.52275" lon="5.61728">
        <ele>534</ele>
        <time>2022-10-19T12:07:08.587Z</time>
      </trkpt>
      <trkpt lat="43.52275" lon="5.61728">
        <ele>534</ele>
        <time>2022-10-19T12:07:09.587Z</time>
      </trkpt>
      <trkpt lat="43.52275" lon="5.61728">
        <ele>534</ele>
        <time>2022-10-19T12:07:10.587Z</time>
      </trkpt>
      <trkpt lat="43.52275" lon="5.61728">
        <ele>534</ele>
        <time>2022-10-19T12:07:11.587Z</time>
      </trkpt>
      <trkpt lat="43.52275" lon="5.61728">
        <ele>534</ele>
        <time>2022-10-19T12:07:12.587Z</time>
      </trkpt>
      <trkpt lat="43.52275" lon="5.61728">
        <ele>534</ele>
        <time>2022-10-19T12:07:13.587Z</time>
      </trkpt>
      <trkpt lat="43.52275" lon="5.61728">
        <ele>534</ele>
        <time>2022-10-19T12:07:14.587Z</time>
      </trkpt>
      <trkpt lat="43.52275" lon="5.61728">
        <ele>534</ele>
        <time>2022-10-19T12:07:15.587Z</time>
      </trkpt>
      <trkpt lat="43.52275" lon="5.61728">
        <ele>534</ele>
        <time>2022-10-19T12:07:16.587Z</time>
      </trkpt>
      <trkpt lat="43.52275" lon="5.61728">
        <ele>534</ele>
        <time>2022-10-19T12:07:17.587Z</time>
      </trkpt>
      <trkpt lat="43.52275" lon="5.61728">
        <ele>534</ele>
        <time>2022-10-19T12:07:18.587Z</time>
      </trkpt>
      <trkpt lat="43.52275" lon="5.61728">
        <ele>534</ele>
        <time>2022-10-19T12:07:19.587Z</time>
      </trkpt>
      <trkpt lat="43.52275" lon="5.61728">
        <ele>534</ele>
        <time>2022-10-19T12:07:20.587Z</time>
      </trkpt>
      <trkpt lat="43.52275" lon="5.61728">
        <ele>534</ele>
        <time>2022-10-19T12:07:21.587Z</time>
      </trkpt>
      <trkpt lat="43.52275" lon="5.61728">
        <ele>534</ele>
        <time>2022-10-19T12:07:22.587Z</time>
      </trkpt>
      <trkpt lat="43.52275" lon="5.61728">
        <ele>534</ele>
        <time>2022-10-19T12:07:23.587Z</time>
      </trkpt>
      <trkpt lat="43.52275" lon="5.61728">
        <ele>534</ele>
        <time>2022-10-19T12:07:24.587Z</time>
      </trkpt>
      <trkpt lat="43.52275" lon="5.61728">
        <ele>534</ele>
        <time>2022-10-19T12:07:25.587Z</time>
      </trkpt>
      <trkpt lat="43.52275" lon="5.61728">
        <ele>534</ele>
        <time>2022-10-19T12:07:26.587Z</time>
      </trkpt>
      <trkpt lat="43.52275" lon="5.61728">
        <ele>534</ele>
        <time>2022-10-19T12:07:27.587Z</time>
      </trkpt>
      <trkpt lat="43.52275" lon="5.61728">
        <ele>534</ele>
        <time>2022-10-19T12:07:28.587Z</time>
      </trkpt>
      <trkpt lat="43.52275" lon="5.61728">
        <ele>534</ele>
        <time>2022-10-19T12:07:29.587Z</time>
      </trkpt>
      <trkpt lat="43.52275" lon="5.61728">
        <ele>534</ele>
        <time>2022-10-19T12:07:30.587Z</time>
      </trkpt>
      <trkpt lat="43.52274" lon="5.61729">
        <ele>534</ele>
        <time>2022-10-19T12:07:31.587Z</time>
      </trkpt>
      <trkpt lat="43.52273" lon="5.61729">
        <ele>534</ele>
        <time>2022-10-19T12:07:32.587Z</time>
      </trkpt>
      <trkpt lat="43.52272" lon="5.61729">
        <ele>534</ele>
        <time>2022-10-19T12:07:33.587Z</time>
      </trkpt>
      <trkpt lat="43.52271" lon="5.61729">
        <ele>534</ele>
        <time>2022-10-19T12:07:34.587Z</time>
      </trkpt>
      <trkpt lat="43.52269" lon="5.6173">
        <ele>534</ele>
        <time>2022-10-19T12:07:35.587Z</time>
      </trkpt>
      <trkpt lat="43.52268" lon="5.61729">
        <ele>534</ele>
        <time>2022-10-19T12:07:36.587Z</time>
      </trkpt>
      <trkpt lat="43.52267" lon="5.61729">
        <ele>533</ele>
        <time>2022-10-19T12:07:37.587Z</time>
      </trkpt>
      <trkpt lat="43.52266" lon="5.61729">
        <ele>533</ele>
        <time>2022-10-19T12:07:38.587Z</time>
      </trkpt>
      <trkpt lat="43.52265" lon="5.61728">
        <ele>533</ele>
        <time>2022-10-19T12:07:39.587Z</time>
      </trkpt>
      <trkpt lat="43.52264" lon="5.61728">
        <ele>533</ele>
        <time>2022-10-19T12:07:40.587Z</time>
      </trkpt>
      <trkpt lat="43.52263" lon="5.61728">
        <ele>533</ele>
        <time>2022-10-19T12:07:41.587Z</time>
      </trkpt>
      <trkpt lat="43.52262" lon="5.61728">
        <ele>533</ele>
        <time>2022-10-19T12:07:42.587Z</time>
      </trkpt>
      <trkpt lat="43.52261" lon="5.61728">
        <ele>532</ele>
        <time>2022-10-19T12:07:43.587Z</time>
      </trkpt>
      <trkpt lat="43.52259" lon="5.61728">
        <ele>532</ele>
        <time>2022-10-19T12:07:44.587Z</time>
      </trkpt>
      <trkpt lat="43.52258" lon="5.61729">
        <ele>532</ele>
        <time>2022-10-19T12:07:45.587Z</time>
      </trkpt>
      <trkpt lat="43.52257" lon="5.61729">
        <ele>532</ele>
        <time>2022-10-19T12:07:46.587Z</time>
      </trkpt>
      <trkpt lat="43.52256" lon="5.61729">
        <ele>532</ele>
        <time>2022-10-19T12:07:47.587Z</time>
      </trkpt>
      <trkpt lat="43.52255" lon="5.61729">
        <ele>532</ele>
        <time>2022-10-19T12:07:48.587Z</time>
      </trkpt>
      <trkpt lat="43.52254" lon="5.61729">
        <ele>532</ele>
        <time>2022-10-19T12:07:49.587Z</time>
      </trkpt>
      <trkpt lat="43.52252" lon="5.61728">
        <ele>532</ele>
        <time>2022-10-19T12:07:50.587Z</time>
      </trkpt>
      <trkpt lat="43.52251" lon="5.61728">
        <ele>532</ele>
        <time>2022-10-19T12:07:51.587Z</time>
      </trkpt>
      <trkpt lat="43.5225" lon="5.61728">
        <ele>531</ele>
        <time>2022-10-19T12:07:52.587Z</time>
      </trkpt>
      <trkpt lat="43.52249" lon="5.61727">
        <ele>531</ele>
        <time>2022-10-19T12:07:53.587Z</time>
      </trkpt>
      <trkpt lat="43.52248" lon="5.61727">
        <ele>531</ele>
        <time>2022-10-19T12:07:54.587Z</time>
      </trkpt>
      <trkpt lat="43.52246" lon="5.61726">
        <ele>531</ele>
        <time>2022-10-19T12:07:55.587Z</time>
      </trkpt>
      <trkpt lat="43.52245" lon="5.61725">
        <ele>531</ele>
        <time>2022-10-19T12:07:56.587Z</time>
      </trkpt>
      <trkpt lat="43.52244" lon="5.61725">
        <ele>531</ele>
        <time>2022-10-19T12:07:57.587Z</time>
      </trkpt>
      <trkpt lat="43.52243" lon="5.61725">
        <ele>531</ele>
        <time>2022-10-19T12:07:58.587Z</time>
      </trkpt>
      <trkpt lat="43.52242" lon="5.61725">
        <ele>531</ele>
        <time>2022-10-19T12:07:59.587Z</time>
      </trkpt>
      <trkpt lat="43.52241" lon="5.61724">
        <ele>531</ele>
        <time>2022-10-19T12:08:00.587Z</time>
      </trkpt>
      <trkpt lat="43.52239" lon="5.61723">
        <ele>530</ele>
        <time>2022-10-19T12:08:01.587Z</time>
      </trkpt>
      <trkpt lat="43.52238" lon="5.61723">
        <ele>530</ele>
        <time>2022-10-19T12:08:02.587Z</time>
      </trkpt>
      <trkpt lat="43.52237" lon="5.61722">
        <ele>530</ele>
        <time>2022-10-19T12:08:03.587Z</time>
      </trkpt>
      <trkpt lat="43.52236" lon="5.61722">
        <ele>530</ele>
        <time>2022-10-19T12:08:04.587Z</time>
      </trkpt>
      <trkpt lat="43.52235" lon="5.61722">
        <ele>530</ele>
        <time>2022-10-19T12:08:05.587Z</time>
      </trkpt>
      <trkpt lat="43.52234" lon="5.61721">
        <ele>530</ele>
        <time>2022-10-19T12:08:06.587Z</time>
      </trkpt>
      <trkpt lat="43.52233" lon="5.6172">
        <ele>530</ele>
        <time>2022-10-19T12:08:07.587Z</time>
      </trkpt>
      <trkpt lat="43.52232" lon="5.61719">
        <ele>529</ele>
        <time>2022-10-19T12:08:08.587Z</time>
      </trkpt>
      <trkpt lat="43.52231" lon="5.61719">
        <ele>529</ele>
        <time>2022-10-19T12:08:09.587Z</time>
      </trkpt>
      <trkpt lat="43.5223" lon="5.61718">
        <ele>529</ele>
        <time>2022-10-19T12:08:10.587Z</time>
      </trkpt>
      <trkpt lat="43.52229" lon="5.61717">
        <ele>529</ele>
        <time>2022-10-19T12:08:11.587Z</time>
      </trkpt>
      <trkpt lat="43.52228" lon="5.61716">
        <ele>529</ele>
        <time>2022-10-19T12:08:12.587Z</time>
      </trkpt>
      <trkpt lat="43.52227" lon="5.61715">
        <ele>529</ele>
        <time>2022-10-19T12:08:13.587Z</time>
      </trkpt>
      <trkpt lat="43.52226" lon="5.61715">
        <ele>528</ele>
        <time>2022-10-19T12:08:14.587Z</time>
      </trkpt>
      <trkpt lat="43.52225" lon="5.61714">
        <ele>528</ele>
        <time>2022-10-19T12:08:15.587Z</time>
      </trkpt>
      <trkpt lat="43.52224" lon="5.61714">
        <ele>528</ele>
        <time>2022-10-19T12:08:16.587Z</time>
      </trkpt>
      <trkpt lat="43.52222" lon="5.61714">
        <ele>528</ele>
        <time>2022-10-19T12:08:17.587Z</time>
      </trkpt>
      <trkpt lat="43.52221" lon="5.61713">
        <ele>528</ele>
        <time>2022-10-19T12:08:18.587Z</time>
      </trkpt>
      <trkpt lat="43.5222" lon="5.61713">
        <ele>527</ele>
        <time>2022-10-19T12:08:19.587Z</time>
      </trkpt>
      <trkpt lat="43.52219" lon="5.61713">
        <ele>527</ele>
        <time>2022-10-19T12:08:20.587Z</time>
      </trkpt>
      <trkpt lat="43.52218" lon="5.61713">
        <ele>527</ele>
        <time>2022-10-19T12:08:21.587Z</time>
      </trkpt>
      <trkpt lat="43.52217" lon="5.61713">
        <ele>527</ele>
        <time>2022-10-19T12:08:22.587Z</time>
      </trkpt>
      <trkpt lat="43.52215" lon="5.61713">
        <ele>527</ele>
        <time>2022-10-19T12:08:23.587Z</time>
      </trkpt>
      <trkpt lat="43.52214" lon="5.61713">
        <ele>527</ele>
        <time>2022-10-19T12:08:24.587Z</time>
      </trkpt>
      <trkpt lat="43.52213" lon="5.61713">
        <ele>527</ele>
        <time>2022-10-19T12:08:25.587Z</time>
      </trkpt>
      <trkpt lat="43.52212" lon="5.61713">
        <ele>527</ele>
        <time>2022-10-19T12:08:26.587Z</time>
      </trkpt>
      <trkpt lat="43.52211" lon="5.61714">
        <ele>527</ele>
        <time>2022-10-19T12:08:27.587Z</time>
      </trkpt>
      <trkpt lat="43.5221" lon="5.61714">
        <ele>526</ele>
        <time>2022-10-19T12:08:28.587Z</time>
      </trkpt>
      <trkpt lat="43.5221" lon="5.61714">
        <ele>526</ele>
        <time>2022-10-19T12:08:29.587Z</time>
      </trkpt>
      <trkpt lat="43.52209" lon="5.61714">
        <ele>526</ele>
        <time>2022-10-19T12:08:30.587Z</time>
      </trkpt>
      <trkpt lat="43.52208" lon="5.61714">
        <ele>526</ele>
        <time>2022-10-19T12:08:31.587Z</time>
      </trkpt>
      <trkpt lat="43.52207" lon="5.61714">
        <ele>526</ele>
        <time>2022-10-19T12:08:32.587Z</time>
      </trkpt>
      <trkpt lat="43.52206" lon="5.61715">
        <ele>526</ele>
        <time>2022-10-19T12:08:33.587Z</time>
      </trkpt>
      <trkpt lat="43.52205" lon="5.61715">
        <ele>526</ele>
        <time>2022-10-19T12:08:34.587Z</time>
      </trkpt>
      <trkpt lat="43.52203" lon="5.61715">
        <ele>526</ele>
        <time>2022-10-19T12:08:35.587Z</time>
      </trkpt>
      <trkpt lat="43.52202" lon="5.61715">
        <ele>526</ele>
        <time>2022-10-19T12:08:36.587Z</time>
      </trkpt>
      <trkpt lat="43.52201" lon="5.61715">
        <ele>526</ele>
        <time>2022-10-19T12:08:37.587Z</time>
      </trkpt>
      <trkpt lat="43.522" lon="5.61716">
        <ele>525</ele>
        <time>2022-10-19T12:08:38.587Z</time>
      </trkpt>
      <trkpt lat="43.52199" lon="5.61716">
        <ele>525</ele>
        <time>2022-10-19T12:08:39.587Z</time>
      </trkpt>
      <trkpt lat="43.52197" lon="5.61717">
        <ele>525</ele>
        <time>2022-10-19T12:08:40.587Z</time>
      </trkpt>
      <trkpt lat="43.52196" lon="5.61718">
        <ele>525</ele>
        <time>2022-10-19T12:08:41.587Z</time>
      </trkpt>
      <trkpt lat="43.52195" lon="5.61719">
        <ele>525</ele>
        <time>2022-10-19T12:08:42.587Z</time>
      </trkpt>
      <trkpt lat="43.52194" lon="5.61719">
        <ele>525</ele>
        <time>2022-10-19T12:08:43.587Z</time>
      </trkpt>
      <trkpt lat="43.52193" lon="5.6172">
        <ele>525</ele>
        <time>2022-10-19T12:08:44.587Z</time>
      </trkpt>
      <trkpt lat="43.52191" lon="5.6172">
        <ele>524</ele>
        <time>2022-10-19T12:08:45.587Z</time>
      </trkpt>
      <trkpt lat="43.5219" lon="5.6172">
        <ele>524</ele>
        <time>2022-10-19T12:08:46.587Z</time>
      </trkpt>
      <trkpt lat="43.52189" lon="5.61721">
        <ele>524</ele>
        <time>2022-10-19T12:08:47.587Z</time>
      </trkpt>
      <trkpt lat="43.52188" lon="5.61721">
        <ele>524</ele>
        <time>2022-10-19T12:08:48.587Z</time>
      </trkpt>
      <trkpt lat="43.52187" lon="5.61722">
        <ele>524</ele>
        <time>2022-10-19T12:08:49.587Z</time>
      </trkpt>
      <trkpt lat="43.52186" lon="5.61722">
        <ele>524</ele>
        <time>2022-10-19T12:08:50.587Z</time>
      </trkpt>
      <trkpt lat="43.52185" lon="5.61723">
        <ele>523</ele>
        <time>2022-10-19T12:08:51.587Z</time>
      </trkpt>
      <trkpt lat="43.52184" lon="5.61723">
        <ele>523</ele>
        <time>2022-10-19T12:08:52.587Z</time>
      </trkpt>
      <trkpt lat="43.52182" lon="5.61723">
        <ele>523</ele>
        <time>2022-10-19T12:08:53.587Z</time>
      </trkpt>
      <trkpt lat="43.52181" lon="5.61724">
        <ele>523</ele>
        <time>2022-10-19T12:08:54.587Z</time>
      </trkpt>
      <trkpt lat="43.5218" lon="5.61724">
        <ele>523</ele>
        <time>2022-10-19T12:08:55.587Z</time>
      </trkpt>
      <trkpt lat="43.52179" lon="5.61725">
        <ele>523</ele>
        <time>2022-10-19T12:08:56.587Z</time>
      </trkpt>
      <trkpt lat="43.52178" lon="5.61725">
        <ele>523</ele>
        <time>2022-10-19T12:08:57.587Z</time>
      </trkpt>
      <trkpt lat="43.52177" lon="5.61725">
        <ele>523</ele>
        <time>2022-10-19T12:08:58.587Z</time>
      </trkpt>
      <trkpt lat="43.52175" lon="5.61725">
        <ele>523</ele>
        <time>2022-10-19T12:08:59.587Z</time>
      </trkpt>
      <trkpt lat="43.52174" lon="5.61725">
        <ele>522</ele>
        <time>2022-10-19T12:09:00.587Z</time>
      </trkpt>
      <trkpt lat="43.52173" lon="5.61725">
        <ele>522</ele>
        <time>2022-10-19T12:09:01.587Z</time>
      </trkpt>
      <trkpt lat="43.52172" lon="5.61725">
        <ele>522</ele>
        <time>2022-10-19T12:09:02.587Z</time>
      </trkpt>
      <trkpt lat="43.5217" lon="5.61725">
        <ele>522</ele>
        <time>2022-10-19T12:09:03.587Z</time>
      </trkpt>
      <trkpt lat="43.52169" lon="5.61725">
        <ele>522</ele>
        <time>2022-10-19T12:09:04.587Z</time>
      </trkpt>
      <trkpt lat="43.52168" lon="5.61724">
        <ele>522</ele>
        <time>2022-10-19T12:09:05.587Z</time>
      </trkpt>
      <trkpt lat="43.52167" lon="5.61724">
        <ele>522</ele>
        <time>2022-10-19T12:09:06.587Z</time>
      </trkpt>
      <trkpt lat="43.52166" lon="5.61724">
        <ele>522</ele>
        <time>2022-10-19T12:09:07.587Z</time>
      </trkpt>
      <trkpt lat="43.52165" lon="5.61725">
        <ele>522</ele>
        <time>2022-10-19T12:09:08.587Z</time>
      </trkpt>
      <trkpt lat="43.52164" lon="5.61725">
        <ele>522</ele>
        <time>2022-10-19T12:09:09.587Z</time>
      </trkpt>
      <trkpt lat="43.52163" lon="5.61726">
        <ele>521</ele>
        <time>2022-10-19T12:09:10.587Z</time>
      </trkpt>
      <trkpt lat="43.52162" lon="5.61726">
        <ele>521</ele>
        <time>2022-10-19T12:09:11.587Z</time>
      </trkpt>
      <trkpt lat="43.52161" lon="5.61727">
        <ele>521</ele>
        <time>2022-10-19T12:09:12.587Z</time>
      </trkpt>
      <trkpt lat="43.5216" lon="5.61728">
        <ele>521</ele>
        <time>2022-10-19T12:09:13.587Z</time>
      </trkpt>
      <trkpt lat="43.52159" lon="5.61728">
        <ele>521</ele>
        <time>2022-10-19T12:09:14.587Z</time>
      </trkpt>
      <trkpt lat="43.52159" lon="5.6173">
        <ele>521</ele>
        <time>2022-10-19T12:09:15.587Z</time>
      </trkpt>
      <trkpt lat="43.52158" lon="5.61731">
        <ele>521</ele>
        <time>2022-10-19T12:09:16.587Z</time>
      </trkpt>
      <trkpt lat="43.52157" lon="5.61733">
        <ele>521</ele>
        <time>2022-10-19T12:09:17.587Z</time>
      </trkpt>
      <trkpt lat="43.52157" lon="5.61735">
        <ele>520</ele>
        <time>2022-10-19T12:09:18.587Z</time>
      </trkpt>
      <trkpt lat="43.52157" lon="5.61736">
        <ele>520</ele>
        <time>2022-10-19T12:09:19.587Z</time>
      </trkpt>
      <trkpt lat="43.52157" lon="5.61738">
        <ele>520</ele>
        <time>2022-10-19T12:09:20.587Z</time>
      </trkpt>
      <trkpt lat="43.52157" lon="5.6174">
        <ele>520</ele>
        <time>2022-10-19T12:09:21.587Z</time>
      </trkpt>
      <trkpt lat="43.52157" lon="5.61741">
        <ele>520</ele>
        <time>2022-10-19T12:09:22.587Z</time>
      </trkpt>
      <trkpt lat="43.52158" lon="5.61743">
        <ele>520</ele>
        <time>2022-10-19T12:09:23.587Z</time>
      </trkpt>
      <trkpt lat="43.52158" lon="5.61744">
        <ele>519</ele>
        <time>2022-10-19T12:09:24.587Z</time>
      </trkpt>
      <trkpt lat="43.52158" lon="5.61746">
        <ele>519</ele>
        <time>2022-10-19T12:09:25.587Z</time>
      </trkpt>
      <trkpt lat="43.52159" lon="5.61747">
        <ele>519</ele>
        <time>2022-10-19T12:09:26.587Z</time>
      </trkpt>
      <trkpt lat="43.5216" lon="5.61749">
        <ele>519</ele>
        <time>2022-10-19T12:09:27.587Z</time>
      </trkpt>
      <trkpt lat="43.5216" lon="5.6175">
        <ele>519</ele>
        <time>2022-10-19T12:09:28.587Z</time>
      </trkpt>
      <trkpt lat="43.52161" lon="5.61752">
        <ele>519</ele>
        <time>2022-10-19T12:09:29.587Z</time>
      </trkpt>
      <trkpt lat="43.52161" lon="5.61753">
        <ele>519</ele>
        <time>2022-10-19T12:09:30.587Z</time>
      </trkpt>
      <trkpt lat="43.52161" lon="5.61754">
        <ele>519</ele>
        <time>2022-10-19T12:09:31.587Z</time>
      </trkpt>
      <trkpt lat="43.52162" lon="5.61756">
        <ele>519</ele>
        <time>2022-10-19T12:09:32.587Z</time>
      </trkpt>
      <trkpt lat="43.52163" lon="5.61757">
        <ele>519</ele>
        <time>2022-10-19T12:09:33.587Z</time>
      </trkpt>
      <trkpt lat="43.52163" lon="5.61758">
        <ele>519</ele>
        <time>2022-10-19T12:09:34.587Z</time>
      </trkpt>
      <trkpt lat="43.52164" lon="5.61759">
        <ele>519</ele>
        <time>2022-10-19T12:09:35.587Z</time>
      </trkpt>
      <trkpt lat="43.52165" lon="5.61761">
        <ele>519</ele>
        <time>2022-10-19T12:09:36.587Z</time>
      </trkpt>
      <trkpt lat="43.52165" lon="5.61762">
        <ele>519</ele>
        <time>2022-10-19T12:09:37.587Z</time>
      </trkpt>
      <trkpt lat="43.52166" lon="5.61763">
        <ele>519</ele>
        <time>2022-10-19T12:09:38.587Z</time>
      </trkpt>
      <trkpt lat="43.52167" lon="5.61764">
        <ele>519</ele>
        <time>2022-10-19T12:09:39.587Z</time>
      </trkpt>
      <trkpt lat="43.52168" lon="5.61765">
        <ele>519</ele>
        <time>2022-10-19T12:09:40.587Z</time>
      </trkpt>
      <trkpt lat="43.52168" lon="5.61766">
        <ele>519</ele>
        <time>2022-10-19T12:09:41.587Z</time>
      </trkpt>
      <trkpt lat="43.52169" lon="5.61767">
        <ele>519</ele>
        <time>2022-10-19T12:09:42.587Z</time>
      </trkpt>
      <trkpt lat="43.5217" lon="5.61768">
        <ele>519</ele>
        <time>2022-10-19T12:09:43.587Z</time>
      </trkpt>
      <trkpt lat="43.52171" lon="5.61769">
        <ele>519</ele>
        <time>2022-10-19T12:09:44.587Z</time>
      </trkpt>
      <trkpt lat="43.52172" lon="5.6177">
        <ele>519</ele>
        <time>2022-10-19T12:09:45.587Z</time>
      </trkpt>
      <trkpt lat="43.52173" lon="5.61771">
        <ele>519</ele>
        <time>2022-10-19T12:09:46.587Z</time>
      </trkpt>
      <trkpt lat="43.52173" lon="5.61772">
        <ele>519</ele>
        <time>2022-10-19T12:09:47.587Z</time>
      </trkpt>
      <trkpt lat="43.52174" lon="5.61773">
        <ele>519</ele>
        <time>2022-10-19T12:09:48.587Z</time>
      </trkpt>
      <trkpt lat="43.52175" lon="5.61774">
        <ele>519</ele>
        <time>2022-10-19T12:09:49.587Z</time>
      </trkpt>
      <trkpt lat="43.52176" lon="5.61775">
        <ele>519</ele>
        <time>2022-10-19T12:09:50.587Z</time>
      </trkpt>
      <trkpt lat="43.52177" lon="5.61776">
        <ele>519</ele>
        <time>2022-10-19T12:09:51.587Z</time>
      </trkpt>
      <trkpt lat="43.52178" lon="5.61777">
        <ele>519</ele>
        <time>2022-10-19T12:09:52.587Z</time>
      </trkpt>
      <trkpt lat="43.52179" lon="5.61777">
        <ele>519</ele>
        <time>2022-10-19T12:09:53.587Z</time>
      </trkpt>
      <trkpt lat="43.5218" lon="5.61778">
        <ele>519</ele>
        <time>2022-10-19T12:09:54.587Z</time>
      </trkpt>
      <trkpt lat="43.52181" lon="5.61779">
        <ele>520</ele>
        <time>2022-10-19T12:09:55.587Z</time>
      </trkpt>
      <trkpt lat="43.52182" lon="5.6178">
        <ele>520</ele>
        <time>2022-10-19T12:09:56.587Z</time>
      </trkpt>
      <trkpt lat="43.52183" lon="5.6178">
        <ele>520</ele>
        <time>2022-10-19T12:09:57.587Z</time>
      </trkpt>
      <trkpt lat="43.52183" lon="5.61781">
        <ele>520</ele>
        <time>2022-10-19T12:09:58.587Z</time>
      </trkpt>
      <trkpt lat="43.52184" lon="5.61782">
        <ele>520</ele>
        <time>2022-10-19T12:09:59.587Z</time>
      </trkpt>
      <trkpt lat="43.52185" lon="5.61782">
        <ele>520</ele>
        <time>2022-10-19T12:10:00.587Z</time>
      </trkpt>
      <trkpt lat="43.52186" lon="5.61783">
        <ele>520</ele>
        <time>2022-10-19T12:10:01.587Z</time>
      </trkpt>
      <trkpt lat="43.52187" lon="5.61784">
        <ele>520</ele>
        <time>2022-10-19T12:10:02.587Z</time>
      </trkpt>
      <trkpt lat="43.52188" lon="5.61785">
        <ele>520</ele>
        <time>2022-10-19T12:10:03.587Z</time>
      </trkpt>
      <trkpt lat="43.52189" lon="5.61785">
        <ele>520</ele>
        <time>2022-10-19T12:10:04.587Z</time>
      </trkpt>
      <trkpt lat="43.5219" lon="5.61786">
        <ele>520</ele>
        <time>2022-10-19T12:10:05.587Z</time>
      </trkpt>
      <trkpt lat="43.52191" lon="5.61787">
        <ele>520</ele>
        <time>2022-10-19T12:10:06.587Z</time>
      </trkpt>
      <trkpt lat="43.52192" lon="5.61787">
        <ele>520</ele>
        <time>2022-10-19T12:10:07.587Z</time>
      </trkpt>
      <trkpt lat="43.52193" lon="5.61788">
        <ele>520</ele>
        <time>2022-10-19T12:10:08.587Z</time>
      </trkpt>
      <trkpt lat="43.52194" lon="5.61788">
        <ele>520</ele>
        <time>2022-10-19T12:10:09.587Z</time>
      </trkpt>
      <trkpt lat="43.52195" lon="5.61789">
        <ele>520</ele>
        <time>2022-10-19T12:10:10.587Z</time>
      </trkpt>
      <trkpt lat="43.52195" lon="5.6179">
        <ele>520</ele>
        <time>2022-10-19T12:10:11.587Z</time>
      </trkpt>
      <trkpt lat="43.52196" lon="5.61791">
        <ele>520</ele>
        <time>2022-10-19T12:10:12.587Z</time>
      </trkpt>
      <trkpt lat="43.52197" lon="5.61792">
        <ele>520</ele>
        <time>2022-10-19T12:10:13.587Z</time>
      </trkpt>
      <trkpt lat="43.52198" lon="5.61793">
        <ele>521</ele>
        <time>2022-10-19T12:10:14.587Z</time>
      </trkpt>
      <trkpt lat="43.52198" lon="5.61794">
        <ele>521</ele>
        <time>2022-10-19T12:10:15.587Z</time>
      </trkpt>
      <trkpt lat="43.52199" lon="5.61795">
        <ele>521</ele>
        <time>2022-10-19T12:10:16.587Z</time>
      </trkpt>
      <trkpt lat="43.522" lon="5.61796">
        <ele>521</ele>
        <time>2022-10-19T12:10:17.587Z</time>
      </trkpt>
      <trkpt lat="43.52201" lon="5.61797">
        <ele>521</ele>
        <time>2022-10-19T12:10:18.587Z</time>
      </trkpt>
      <trkpt lat="43.52201" lon="5.61798">
        <ele>521</ele>
        <time>2022-10-19T12:10:19.587Z</time>
      </trkpt>
      <trkpt lat="43.52202" lon="5.61799">
        <ele>521</ele>
        <time>2022-10-19T12:10:20.587Z</time>
      </trkpt>
      <trkpt lat="43.52203" lon="5.618">
        <ele>521</ele>
        <time>2022-10-19T12:10:21.587Z</time>
      </trkpt>
      <trkpt lat="43.52204" lon="5.61801">
        <ele>521</ele>
        <time>2022-10-19T12:10:22.587Z</time>
      </trkpt>
      <trkpt lat="43.52205" lon="5.61802">
        <ele>521</ele>
        <time>2022-10-19T12:10:23.587Z</time>
      </trkpt>
      <trkpt lat="43.52205" lon="5.61803">
        <ele>521</ele>
        <time>2022-10-19T12:10:24.587Z</time>
      </trkpt>
      <trkpt lat="43.52206" lon="5.61804">
        <ele>521</ele>
        <time>2022-10-19T12:10:25.587Z</time>
      </trkpt>
      <trkpt lat="43.52206" lon="5.61805">
        <ele>521</ele>
        <time>2022-10-19T12:10:26.587Z</time>
      </trkpt>
      <trkpt lat="43.52207" lon="5.61806">
        <ele>521</ele>
        <time>2022-10-19T12:10:27.587Z</time>
      </trkpt>
      <trkpt lat="43.52208" lon="5.61808">
        <ele>521</ele>
        <time>2022-10-19T12:10:28.587Z</time>
      </trkpt>
      <trkpt lat="43.52209" lon="5.61809">
        <ele>521</ele>
        <time>2022-10-19T12:10:29.587Z</time>
      </trkpt>
      <trkpt lat="43.52209" lon="5.6181">
        <ele>521</ele>
        <time>2022-10-19T12:10:30.587Z</time>
      </trkpt>
      <trkpt lat="43.5221" lon="5.61811">
        <ele>521</ele>
        <time>2022-10-19T12:10:31.587Z</time>
      </trkpt>
      <trkpt lat="43.5221" lon="5.61813">
        <ele>521</ele>
        <time>2022-10-19T12:10:32.587Z</time>
      </trkpt>
      <trkpt lat="43.52211" lon="5.61814">
        <ele>521</ele>
        <time>2022-10-19T12:10:33.587Z</time>
      </trkpt>
      <trkpt lat="43.52211" lon="5.61815">
        <ele>521</ele>
        <time>2022-10-19T12:10:34.587Z</time>
      </trkpt>
      <trkpt lat="43.52211" lon="5.61816">
        <ele>521</ele>
        <time>2022-10-19T12:10:35.587Z</time>
      </trkpt>
      <trkpt lat="43.52211" lon="5.61816">
        <ele>521</ele>
        <time>2022-10-19T12:10:36.587Z</time>
      </trkpt>
      <trkpt lat="43.52211" lon="5.61816">
        <ele>521</ele>
        <time>2022-10-19T12:10:37.587Z</time>
      </trkpt>
      <trkpt lat="43.52211" lon="5.61817">
        <ele>521</ele>
        <time>2022-10-19T12:10:38.587Z</time>
      </trkpt>
      <trkpt lat="43.52211" lon="5.61817">
        <ele>521</ele>
        <time>2022-10-19T12:10:39.587Z</time>
      </trkpt>
      <trkpt lat="43.52211" lon="5.61817">
        <ele>521</ele>
        <time>2022-10-19T12:10:40.587Z</time>
      </trkpt>
      <trkpt lat="43.52211" lon="5.61817">
        <ele>521</ele>
        <time>2022-10-19T12:10:41.587Z</time>
      </trkpt>
      <trkpt lat="43.52211" lon="5.61817">
        <ele>521</ele>
        <time>2022-10-19T12:10:42.587Z</time>
      </trkpt>
      <trkpt lat="43.52211" lon="5.61817">
        <ele>521</ele>
        <time>2022-10-19T12:10:43.587Z</time>
      </trkpt>
      <trkpt lat="43.52211" lon="5.61817">
        <ele>521</ele>
        <time>2022-10-19T12:10:44.587Z</time>
      </trkpt>
      <trkpt lat="43.52211" lon="5.61817">
        <ele>521</ele>
        <time>2022-10-19T12:10:45.587Z</time>
      </trkpt>
      <trkpt lat="43.52211" lon="5.61817">
        <ele>521</ele>
        <time>2022-10-19T12:10:46.587Z</time>
      </trkpt>
      <trkpt lat="43.52211" lon="5.61817">
        <ele>521</ele>
        <time>2022-10-19T12:10:47.587Z</time>
      </trkpt>
      <trkpt lat="43.52211" lon="5.61817">
        <ele>521</ele>
        <time>2022-10-19T12:10:48.587Z</time>
      </trkpt>
      <trkpt lat="43.52211" lon="5.61817">
        <ele>521</ele>
        <time>2022-10-19T12:10:49.587Z</time>
      </trkpt>
      <trkpt lat="43.52212" lon="5.61817">
        <ele>521</ele>
        <time>2022-10-19T12:10:50.587Z</time>
      </trkpt>
      <trkpt lat="43.52212" lon="5.61817">
        <ele>521</ele>
        <time>2022-10-19T12:10:51.587Z</time>
      </trkpt>
      <trkpt lat="43.52212" lon="5.61817">
        <ele>521</ele>
        <time>2022-10-19T12:10:52.587Z</time>
      </trkpt>
      <trkpt lat="43.52212" lon="5.61817">
        <ele>521</ele>
        <time>2022-10-19T12:10:53.587Z</time>
      </trkpt>
      <trkpt lat="43.52212" lon="5.61817">
        <ele>521</ele>
        <time>2022-10-19T12:10:54.587Z</time>
      </trkpt>
      <trkpt lat="43.52212" lon="5.61817">
        <ele>521</ele>
        <time>2022-10-19T12:10:55.587Z</time>
      </trkpt>
      <trkpt lat="43.52212" lon="5.61817">
        <ele>521</ele>
        <time>2022-10-19T12:10:56.587Z</time>
      </trkpt>
      <trkpt lat="43.52212" lon="5.61817">
        <ele>521</ele>
        <time>2022-10-19T12:10:57.587Z</time>
      </trkpt>
      <trkpt lat="43.52212" lon="5.61817">
        <ele>521</ele>
        <time>2022-10-19T12:10:58.587Z</time>
      </trkpt>
      <trkpt lat="43.52212" lon="5.61817">
        <ele>521</ele>
        <time>2022-10-19T12:10:59.587Z</time>
      </trkpt>
      <trkpt lat="43.52212" lon="5.61817">
        <ele>521</ele>
        <time>2022-10-19T12:11:00.587Z</time>
      </trkpt>
      <trkpt lat="43.52212" lon="5.61817">
        <ele>521</ele>
        <time>2022-10-19T12:11:01.587Z</time>
      </trkpt>
      <trkpt lat="43.52212" lon="5.61817">
        <ele>521</ele>
        <time>2022-10-19T12:11:02.587Z</time>
      </trkpt>
      <trkpt lat="43.52212" lon="5.61817">
        <ele>521</ele>
        <time>2022-10-19T12:11:03.587Z</time>
      </trkpt>
      <trkpt lat="43.52212" lon="5.61817">
        <ele>521</ele>
        <time>2022-10-19T12:11:04.587Z</time>
      </trkpt>
      <trkpt lat="43.52212" lon="5.61817">
        <ele>521</ele>
        <time>2022-10-19T12:11:05.587Z</time>
      </trkpt>
      <trkpt lat="43.52212" lon="5.61817">
        <ele>521</ele>
        <time>2022-10-19T12:11:06.587Z</time>
      </trkpt>
      <trkpt lat="43.52212" lon="5.61817">
        <ele>521</ele>
        <time>2022-10-19T12:11:07.587Z</time>
      </trkpt>
      <trkpt lat="43.52212" lon="5.61817">
        <ele>521</ele>
        <time>2022-10-19T12:11:08.587Z</time>
      </trkpt>
      <trkpt lat="43.52212" lon="5.61817">
        <ele>521</ele>
        <time>2022-10-19T12:11:09.587Z</time>
      </trkpt>
      <trkpt lat="43.52212" lon="5.61817">
        <ele>521</ele>
        <time>2022-10-19T12:11:10.587Z</time>
      </trkpt>
      <trkpt lat="43.52212" lon="5.61817">
        <ele>521</ele>
        <time>2022-10-19T12:11:11.587Z</time>
      </trkpt>
      <trkpt lat="43.52212" lon="5.61817">
        <ele>521</ele>
        <time>2022-10-19T12:11:12.587Z</time>
      </trkpt>
      <trkpt lat="43.52212" lon="5.61817">
        <ele>521</ele>
        <time>2022-10-19T12:11:13.587Z</time>
      </trkpt>
      <trkpt lat="43.52212" lon="5.61818">
        <ele>521</ele>
        <time>2022-10-19T12:11:14.587Z</time>
      </trkpt>
      <trkpt lat="43.52212" lon="5.61818">
        <ele>521</ele>
        <time>2022-10-19T12:11:15.587Z</time>
      </trkpt>
      <trkpt lat="43.52212" lon="5.61818">
        <ele>521</ele>
        <time>2022-10-19T12:11:16.587Z</time>
      </trkpt>
      <trkpt lat="43.52212" lon="5.61818">
        <ele>521</ele>
        <time>2022-10-19T12:11:17.587Z</time>
      </trkpt>
      <trkpt lat="43.52212" lon="5.61818">
        <ele>521</ele>
        <time>2022-10-19T12:11:18.587Z</time>
      </trkpt>
      <trkpt lat="43.52212" lon="5.61818">
        <ele>521</ele>
        <time>2022-10-19T12:11:19.587Z</time>
      </trkpt>
      <trkpt lat="43.52212" lon="5.61818">
        <ele>521</ele>
        <time>2022-10-19T12:11:20.587Z</time>
      </trkpt>
      <trkpt lat="43.52212" lon="5.61818">
        <ele>521</ele>
        <time>2022-10-19T12:11:21.587Z</time>
      </trkpt>
      <trkpt lat="43.52212" lon="5.61818">
        <ele>521</ele>
        <time>2022-10-19T12:11:22.587Z</time>
      </trkpt>
      <trkpt lat="43.52212" lon="5.61818">
        <ele>521</ele>
        <time>2022-10-19T12:11:23.587Z</time>
      </trkpt>
      <trkpt lat="43.52212" lon="5.61818">
        <ele>521</ele>
        <time>2022-10-19T12:11:24.587Z</time>
      </trkpt>
      <trkpt lat="43.52212" lon="5.61818">
        <ele>521</ele>
        <time>2022-10-19T12:11:25.587Z</time>
      </trkpt>
      <trkpt lat="43.52212" lon="5.61818">
        <ele>521</ele>
        <time>2022-10-19T12:11:26.587Z</time>
      </trkpt>
      <trkpt lat="43.52212" lon="5.61818">
        <ele>521</ele>
        <time>2022-10-19T12:11:27.587Z</time>
      </trkpt>
      <trkpt lat="43.52212" lon="5.61818">
        <ele>521</ele>
        <time>2022-10-19T12:11:28.587Z</time>
      </trkpt>
      <trkpt lat="43.52212" lon="5.61818">
        <ele>521</ele>
        <time>2022-10-19T12:11:29.587Z</time>
      </trkpt>
      <trkpt lat="43.52212" lon="5.61818">
        <ele>521</ele>
        <time>2022-10-19T12:11:30.587Z</time>
      </trkpt>
      <trkpt lat="43.52212" lon="5.61818">
        <ele>521</ele>
        <time>2022-10-19T12:11:31.587Z</time>
      </trkpt>
      <trkpt lat="43.52212" lon="5.61818">
        <ele>521</ele>
        <time>2022-10-19T12:11:32.587Z</time>
      </trkpt>
      <trkpt lat="43.52212" lon="5.61818">
        <ele>521</ele>
        <time>2022-10-19T12:11:33.587Z</time>
      </trkpt>
      <trkpt lat="43.52212" lon="5.61818">
        <ele>521</ele>
        <time>2022-10-19T12:11:34.587Z</time>
      </trkpt>
      <trkpt lat="43.52212" lon="5.61818">
        <ele>522</ele>
        <time>2022-10-19T12:11:35.587Z</time>
      </trkpt>
      <trkpt lat="43.52212" lon="5.61818">
        <ele>522</ele>
        <time>2022-10-19T12:11:36.587Z</time>
      </trkpt>
      <trkpt lat="43.52212" lon="5.61818">
        <ele>522</ele>
        <time>2022-10-19T12:11:37.587Z</time>
      </trkpt>
      <trkpt lat="43.52212" lon="5.61818">
        <ele>522</ele>
        <time>2022-10-19T12:11:38.587Z</time>
      </trkpt>
      <trkpt lat="43.52212" lon="5.61818">
        <ele>522</ele>
        <time>2022-10-19T12:11:39.587Z</time>
      </trkpt>
      <trkpt lat="43.52212" lon="5.61818">
        <ele>522</ele>
        <time>2022-10-19T12:11:40.587Z</time>
      </trkpt>
      <trkpt lat="43.52212" lon="5.61818">
        <ele>522</ele>
        <time>2022-10-19T12:11:41.587Z</time>
      </trkpt>
      <trkpt lat="43.52212" lon="5.61818">
        <ele>522</ele>
        <time>2022-10-19T12:11:42.587Z</time>
      </trkpt>
      <trkpt lat="43.52213" lon="5.61818">
        <ele>522</ele>
        <time>2022-10-19T12:11:43.587Z</time>
      </trkpt>
      <trkpt lat="43.52213" lon="5.61818">
        <ele>522</ele>
        <time>2022-10-19T12:11:44.587Z</time>
      </trkpt>
      <trkpt lat="43.52213" lon="5.61818">
        <ele>522</ele>
        <time>2022-10-19T12:11:45.587Z</time>
      </trkpt>
      <trkpt lat="43.52213" lon="5.61818">
        <ele>522</ele>
        <time>2022-10-19T12:11:46.587Z</time>
      </trkpt>
      <trkpt lat="43.52213" lon="5.61818">
        <ele>522</ele>
        <time>2022-10-19T12:11:47.587Z</time>
      </trkpt>
      <trkpt lat="43.52213" lon="5.61818">
        <ele>522</ele>
        <time>2022-10-19T12:11:48.587Z</time>
      </trkpt>
      <trkpt lat="43.52213" lon="5.61818">
        <ele>522</ele>
        <time>2022-10-19T12:11:49.587Z</time>
      </trkpt>
      <trkpt lat="43.52213" lon="5.61818">
        <ele>522</ele>
        <time>2022-10-19T12:11:50.587Z</time>
      </trkpt>
      <trkpt lat="43.52213" lon="5.61818">
        <ele>522</ele>
        <time>2022-10-19T12:11:51.587Z</time>
      </trkpt>
      <trkpt lat="43.52213" lon="5.61818">
        <ele>522</ele>
        <time>2022-10-19T12:11:52.587Z</time>
      </trkpt>
      <trkpt lat="43.52213" lon="5.61818">
        <ele>522</ele>
        <time>2022-10-19T12:11:53.587Z</time>
      </trkpt>
      <trkpt lat="43.52213" lon="5.61818">
        <ele>522</ele>
        <time>2022-10-19T12:11:54.587Z</time>
      </trkpt>
      <trkpt lat="43.52213" lon="5.61818">
        <ele>522</ele>
        <time>2022-10-19T12:11:55.587Z</time>
      </trkpt>
      <trkpt lat="43.52213" lon="5.61819">
        <ele>522</ele>
        <time>2022-10-19T12:11:56.587Z</time>
      </trkpt>
      <trkpt lat="43.52213" lon="5.61819">
        <ele>522</ele>
        <time>2022-10-19T12:11:57.587Z</time>
      </trkpt>
      <trkpt lat="43.52213" lon="5.61819">
        <ele>522</ele>
        <time>2022-10-19T12:11:58.587Z</time>
      </trkpt>
      <trkpt lat="43.52213" lon="5.61819">
        <ele>522</ele>
        <time>2022-10-19T12:11:59.587Z</time>
      </trkpt>
      <trkpt lat="43.52213" lon="5.61819">
        <ele>522</ele>
        <time>2022-10-19T12:12:00.587Z</time>
      </trkpt>
      <trkpt lat="43.52213" lon="5.61819">
        <ele>522</ele>
        <time>2022-10-19T12:12:01.587Z</time>
      </trkpt>
      <trkpt lat="43.52213" lon="5.61819">
        <ele>523</ele>
        <time>2022-10-19T12:12:02.587Z</time>
      </trkpt>
      <trkpt lat="43.52213" lon="5.61819">
        <ele>523</ele>
        <time>2022-10-19T12:12:03.587Z</time>
      </trkpt>
      <trkpt lat="43.52213" lon="5.61819">
        <ele>523</ele>
        <time>2022-10-19T12:12:04.587Z</time>
      </trkpt>
      <trkpt lat="43.52213" lon="5.61819">
        <ele>523</ele>
        <time>2022-10-19T12:12:05.587Z</time>
      </trkpt>
      <trkpt lat="43.52213" lon="5.61819">
        <ele>523</ele>
        <time>2022-10-19T12:12:06.587Z</time>
      </trkpt>
      <trkpt lat="43.52213" lon="5.61819">
        <ele>523</ele>
        <time>2022-10-19T12:12:07.587Z</time>
      </trkpt>
      <trkpt lat="43.52213" lon="5.61819">
        <ele>523</ele>
        <time>2022-10-19T12:12:08.587Z</time>
      </trkpt>
      <trkpt lat="43.52213" lon="5.61819">
        <ele>523</ele>
        <time>2022-10-19T12:12:09.587Z</time>
      </trkpt>
      <trkpt lat="43.52213" lon="5.61819">
        <ele>523</ele>
        <time>2022-10-19T12:12:10.587Z</time>
      </trkpt>
      <trkpt lat="43.52213" lon="5.61819">
        <ele>523</ele>
        <time>2022-10-19T12:12:11.587Z</time>
      </trkpt>
      <trkpt lat="43.52213" lon="5.61819">
        <ele>523</ele>
        <time>2022-10-19T12:12:12.587Z</time>
      </trkpt>
      <trkpt lat="43.52213" lon="5.61819">
        <ele>523</ele>
        <time>2022-10-19T12:12:13.587Z</time>
      </trkpt>
      <trkpt lat="43.52213" lon="5.61819">
        <ele>523</ele>
        <time>2022-10-19T12:12:14.587Z</time>
      </trkpt>
      <trkpt lat="43.52213" lon="5.61819">
        <ele>523</ele>
        <time>2022-10-19T12:12:15.587Z</time>
      </trkpt>
      <trkpt lat="43.52213" lon="5.61819">
        <ele>523</ele>
        <time>2022-10-19T12:12:16.587Z</time>
      </trkpt>
      <trkpt lat="43.52213" lon="5.61819">
        <ele>523</ele>
        <time>2022-10-19T12:12:17.587Z</time>
      </trkpt>
      <trkpt lat="43.52213" lon="5.61819">
        <ele>523</ele>
        <time>2022-10-19T12:12:18.587Z</time>
      </trkpt>
      <trkpt lat="43.52213" lon="5.61819">
        <ele>523</ele>
        <time>2022-10-19T12:12:19.587Z</time>
      </trkpt>
      <trkpt lat="43.52213" lon="5.61819">
        <ele>523</ele>
        <time>2022-10-19T12:12:20.587Z</time>
      </trkpt>
      <trkpt lat="43.52213" lon="5.61819">
        <ele>523</ele>
        <time>2022-10-19T12:12:21.587Z</time>
      </trkpt>
      <trkpt lat="43.52213" lon="5.61819">
        <ele>523</ele>
        <time>2022-10-19T12:12:22.587Z</time>
      </trkpt>
      <trkpt lat="43.52213" lon="5.61819">
        <ele>523</ele>
        <time>2022-10-19T12:12:23.587Z</time>
      </trkpt>
      <trkpt lat="43.52213" lon="5.61819">
        <ele>523</ele>
        <time>2022-10-19T12:12:24.587Z</time>
      </trkpt>
      <trkpt lat="43.52213" lon="5.61819">
        <ele>523</ele>
        <time>2022-10-19T12:12:25.587Z</time>
      </trkpt>
      <trkpt lat="43.52213" lon="5.61819">
        <ele>523</ele>
        <time>2022-10-19T12:12:26.587Z</time>
      </trkpt>
      <trkpt lat="43.52213" lon="5.61819">
        <ele>523</ele>
        <time>2022-10-19T12:12:27.587Z</time>
      </trkpt>
      <trkpt lat="43.52213" lon="5.6182">
        <ele>523</ele>
        <time>2022-10-19T12:12:28.587Z</time>
      </trkpt>
      <trkpt lat="43.52213" lon="5.61819">
        <ele>523</ele>
        <time>2022-10-19T12:12:29.587Z</time>
      </trkpt>
      <trkpt lat="43.52213" lon="5.6182">
        <ele>523</ele>
        <time>2022-10-19T12:12:30.587Z</time>
      </trkpt>
      <trkpt lat="43.52213" lon="5.6182">
        <ele>523</ele>
        <time>2022-10-19T12:12:31.587Z</time>
      </trkpt>
      <trkpt lat="43.52213" lon="5.61819">
        <ele>523</ele>
        <time>2022-10-19T12:12:32.587Z</time>
      </trkpt>
      <trkpt lat="43.52213" lon="5.61819">
        <ele>523</ele>
        <time>2022-10-19T12:12:33.587Z</time>
      </trkpt>
      <trkpt lat="43.52213" lon="5.61819">
        <ele>523</ele>
        <time>2022-10-19T12:12:34.587Z</time>
      </trkpt>
      <trkpt lat="43.52213" lon="5.61819">
        <ele>523</ele>
        <time>2022-10-19T12:12:35.587Z</time>
      </trkpt>
      <trkpt lat="43.52213" lon="5.61819">
        <ele>523</ele>
        <time>2022-10-19T12:12:36.587Z</time>
      </trkpt>
      <trkpt lat="43.52213" lon="5.61819">
        <ele>523</ele>
        <time>2022-10-19T12:12:37.587Z</time>
      </trkpt>
      <trkpt lat="43.52214" lon="5.6182">
        <ele>523</ele>
        <time>2022-10-19T12:12:38.587Z</time>
      </trkpt>
      <trkpt lat="43.52214" lon="5.6182">
        <ele>523</ele>
        <time>2022-10-19T12:12:39.587Z</time>
      </trkpt>
      <trkpt lat="43.52215" lon="5.61821">
        <ele>523</ele>
        <time>2022-10-19T12:12:40.587Z</time>
      </trkpt>
      <trkpt lat="43.52216" lon="5.61822">
        <ele>524</ele>
        <time>2022-10-19T12:12:41.587Z</time>
      </trkpt>
      <trkpt lat="43.52217" lon="5.61823">
        <ele>524</ele>
        <time>2022-10-19T12:12:42.587Z</time>
      </trkpt>
      <trkpt lat="43.52217" lon="5.61825">
        <ele>524</ele>
        <time>2022-10-19T12:12:43.587Z</time>
      </trkpt>
      <trkpt lat="43.52218" lon="5.61826">
        <ele>524</ele>
        <time>2022-10-19T12:12:44.587Z</time>
      </trkpt>
      <trkpt lat="43.52218" lon="5.61827">
        <ele>524</ele>
        <time>2022-10-19T12:12:45.587Z</time>
      </trkpt>
      <trkpt lat="43.52219" lon="5.61828">
        <ele>524</ele>
        <time>2022-10-19T12:12:46.587Z</time>
      </trkpt>
      <trkpt lat="43.5222" lon="5.61829">
        <ele>524</ele>
        <time>2022-10-19T12:12:47.587Z</time>
      </trkpt>
      <trkpt lat="43.5222" lon="5.6183">
        <ele>524</ele>
        <time>2022-10-19T12:12:48.587Z</time>
      </trkpt>
      <trkpt lat="43.52221" lon="5.61832">
        <ele>524</ele>
        <time>2022-10-19T12:12:49.587Z</time>
      </trkpt>
      <trkpt lat="43.52222" lon="5.61833">
        <ele>524</ele>
        <time>2022-10-19T12:12:50.587Z</time>
      </trkpt>
      <trkpt lat="43.52222" lon="5.61834">
        <ele>524</ele>
        <time>2022-10-19T12:12:51.587Z</time>
      </trkpt>
      <trkpt lat="43.52223" lon="5.61835">
        <ele>524</ele>
        <time>2022-10-19T12:12:52.587Z</time>
      </trkpt>
      <trkpt lat="43.52223" lon="5.61837">
        <ele>524</ele>
        <time>2022-10-19T12:12:53.587Z</time>
      </trkpt>
      <trkpt lat="43.52224" lon="5.61838">
        <ele>524</ele>
        <time>2022-10-19T12:12:54.587Z</time>
      </trkpt>
      <trkpt lat="43.52224" lon="5.61839">
        <ele>524</ele>
        <time>2022-10-19T12:12:55.587Z</time>
      </trkpt>
      <trkpt lat="43.52225" lon="5.61841">
        <ele>524</ele>
        <time>2022-10-19T12:12:56.587Z</time>
      </trkpt>
      <trkpt lat="43.52226" lon="5.61842">
        <ele>523</ele>
        <time>2022-10-19T12:12:57.587Z</time>
      </trkpt>
      <trkpt lat="43.52227" lon="5.61844">
        <ele>523</ele>
        <time>2022-10-19T12:12:58.587Z</time>
      </trkpt>
      <trkpt lat="43.52227" lon="5.61845">
        <ele>523</ele>
        <time>2022-10-19T12:12:59.587Z</time>
      </trkpt>
      <trkpt lat="43.52228" lon="5.61846">
        <ele>523</ele>
        <time>2022-10-19T12:13:00.587Z</time>
      </trkpt>
      <trkpt lat="43.52229" lon="5.61848">
        <ele>523</ele>
        <time>2022-10-19T12:13:01.587Z</time>
      </trkpt>
      <trkpt lat="43.52229" lon="5.61849">
        <ele>523</ele>
        <time>2022-10-19T12:13:02.587Z</time>
      </trkpt>
      <trkpt lat="43.5223" lon="5.6185">
        <ele>523</ele>
        <time>2022-10-19T12:13:03.587Z</time>
      </trkpt>
      <trkpt lat="43.52231" lon="5.61851">
        <ele>523</ele>
        <time>2022-10-19T12:13:04.587Z</time>
      </trkpt>
      <trkpt lat="43.52231" lon="5.61852">
        <ele>523</ele>
        <time>2022-10-19T12:13:05.587Z</time>
      </trkpt>
      <trkpt lat="43.52232" lon="5.61853">
        <ele>523</ele>
        <time>2022-10-19T12:13:06.587Z</time>
      </trkpt>
      <trkpt lat="43.52233" lon="5.61854">
        <ele>523</ele>
        <time>2022-10-19T12:13:07.587Z</time>
      </trkpt>
      <trkpt lat="43.52233" lon="5.61855">
        <ele>523</ele>
        <time>2022-10-19T12:13:08.587Z</time>
      </trkpt>
      <trkpt lat="43.52234" lon="5.61856">
        <ele>523</ele>
        <time>2022-10-19T12:13:09.587Z</time>
      </trkpt>
      <trkpt lat="43.52235" lon="5.61857">
        <ele>523</ele>
        <time>2022-10-19T12:13:10.587Z</time>
      </trkpt>
      <trkpt lat="43.52235" lon="5.61858">
        <ele>523</ele>
        <time>2022-10-19T12:13:11.587Z</time>
      </trkpt>
      <trkpt lat="43.52236" lon="5.61859">
        <ele>523</ele>
        <time>2022-10-19T12:13:12.587Z</time>
      </trkpt>
      <trkpt lat="43.52237" lon="5.6186">
        <ele>523</ele>
        <time>2022-10-19T12:13:13.587Z</time>
      </trkpt>
      <trkpt lat="43.52238" lon="5.61861">
        <ele>523</ele>
        <time>2022-10-19T12:13:14.587Z</time>
      </trkpt>
      <trkpt lat="43.52238" lon="5.61862">
        <ele>523</ele>
        <time>2022-10-19T12:13:15.587Z</time>
      </trkpt>
      <trkpt lat="43.52239" lon="5.61864">
        <ele>523</ele>
        <time>2022-10-19T12:13:16.587Z</time>
      </trkpt>
      <trkpt lat="43.5224" lon="5.61864">
        <ele>524</ele>
        <time>2022-10-19T12:13:17.587Z</time>
      </trkpt>
      <trkpt lat="43.52241" lon="5.61865">
        <ele>524</ele>
        <time>2022-10-19T12:13:18.587Z</time>
      </trkpt>
      <trkpt lat="43.52242" lon="5.61866">
        <ele>524</ele>
        <time>2022-10-19T12:13:19.587Z</time>
      </trkpt>
      <trkpt lat="43.52243" lon="5.61867">
        <ele>524</ele>
        <time>2022-10-19T12:13:20.587Z</time>
      </trkpt>
      <trkpt lat="43.52244" lon="5.61868">
        <ele>524</ele>
        <time>2022-10-19T12:13:21.587Z</time>
      </trkpt>
      <trkpt lat="43.52245" lon="5.61869">
        <ele>524</ele>
        <time>2022-10-19T12:13:22.587Z</time>
      </trkpt>
      <trkpt lat="43.52246" lon="5.6187">
        <ele>524</ele>
        <time>2022-10-19T12:13:23.587Z</time>
      </trkpt>
      <trkpt lat="43.52247" lon="5.61871">
        <ele>524</ele>
        <time>2022-10-19T12:13:24.587Z</time>
      </trkpt>
      <trkpt lat="43.52248" lon="5.61873">
        <ele>524</ele>
        <time>2022-10-19T12:13:25.587Z</time>
      </trkpt>
      <trkpt lat="43.52249" lon="5.61874">
        <ele>524</ele>
        <time>2022-10-19T12:13:26.587Z</time>
      </trkpt>
      <trkpt lat="43.5225" lon="5.61875">
        <ele>524</ele>
        <time>2022-10-19T12:13:27.587Z</time>
      </trkpt>
      <trkpt lat="43.52251" lon="5.61876">
        <ele>524</ele>
        <time>2022-10-19T12:13:28.587Z</time>
      </trkpt>
      <trkpt lat="43.52252" lon="5.61877">
        <ele>524</ele>
        <time>2022-10-19T12:13:29.587Z</time>
      </trkpt>
      <trkpt lat="43.52253" lon="5.61878">
        <ele>524</ele>
        <time>2022-10-19T12:13:30.587Z</time>
      </trkpt>
      <trkpt lat="43.52253" lon="5.61879">
        <ele>524</ele>
        <time>2022-10-19T12:13:31.587Z</time>
      </trkpt>
      <trkpt lat="43.52254" lon="5.61881">
        <ele>524</ele>
        <time>2022-10-19T12:13:32.587Z</time>
      </trkpt>
      <trkpt lat="43.52255" lon="5.61882">
        <ele>524</ele>
        <time>2022-10-19T12:13:33.587Z</time>
      </trkpt>
      <trkpt lat="43.52256" lon="5.61883">
        <ele>524</ele>
        <time>2022-10-19T12:13:34.587Z</time>
      </trkpt>
      <trkpt lat="43.52257" lon="5.61885">
        <ele>524</ele>
        <time>2022-10-19T12:13:35.587Z</time>
      </trkpt>
      <trkpt lat="43.52257" lon="5.61886">
        <ele>524</ele>
        <time>2022-10-19T12:13:36.587Z</time>
      </trkpt>
      <trkpt lat="43.52258" lon="5.61888">
        <ele>524</ele>
        <time>2022-10-19T12:13:37.587Z</time>
      </trkpt>
      <trkpt lat="43.52259" lon="5.61889">
        <ele>524</ele>
        <time>2022-10-19T12:13:38.587Z</time>
      </trkpt>
      <trkpt lat="43.52259" lon="5.61891">
        <ele>524</ele>
        <time>2022-10-19T12:13:39.587Z</time>
      </trkpt>
      <trkpt lat="43.5226" lon="5.61893">
        <ele>524</ele>
        <time>2022-10-19T12:13:40.587Z</time>
      </trkpt>
      <trkpt lat="43.5226" lon="5.61895">
        <ele>524</ele>
        <time>2022-10-19T12:13:41.587Z</time>
      </trkpt>
      <trkpt lat="43.5226" lon="5.61896">
        <ele>524</ele>
        <time>2022-10-19T12:13:42.587Z</time>
      </trkpt>
      <trkpt lat="43.5226" lon="5.61898">
        <ele>524</ele>
        <time>2022-10-19T12:13:43.587Z</time>
      </trkpt>
      <trkpt lat="43.52261" lon="5.61899">
        <ele>525</ele>
        <time>2022-10-19T12:13:44.587Z</time>
      </trkpt>
      <trkpt lat="43.52261" lon="5.61901">
        <ele>525</ele>
        <time>2022-10-19T12:13:45.587Z</time>
      </trkpt>
      <trkpt lat="43.52261" lon="5.61903">
        <ele>525</ele>
        <time>2022-10-19T12:13:46.587Z</time>
      </trkpt>
      <trkpt lat="43.52261" lon="5.61904">
        <ele>525</ele>
        <time>2022-10-19T12:13:47.587Z</time>
      </trkpt>
      <trkpt lat="43.52261" lon="5.61906">
        <ele>525</ele>
        <time>2022-10-19T12:13:48.587Z</time>
      </trkpt>
      <trkpt lat="43.52261" lon="5.61908">
        <ele>525</ele>
        <time>2022-10-19T12:13:49.587Z</time>
      </trkpt>
      <trkpt lat="43.52261" lon="5.6191">
        <ele>525</ele>
        <time>2022-10-19T12:13:50.587Z</time>
      </trkpt>
      <trkpt lat="43.52261" lon="5.61911">
        <ele>525</ele>
        <time>2022-10-19T12:13:51.587Z</time>
      </trkpt>
      <trkpt lat="43.52261" lon="5.61913">
        <ele>525</ele>
        <time>2022-10-19T12:13:52.587Z</time>
      </trkpt>
      <trkpt lat="43.52262" lon="5.61915">
        <ele>525</ele>
        <time>2022-10-19T12:13:53.587Z</time>
      </trkpt>
      <trkpt lat="43.52262" lon="5.61917">
        <ele>525</ele>
        <time>2022-10-19T12:13:54.587Z</time>
      </trkpt>
      <trkpt lat="43.52262" lon="5.61919">
        <ele>525</ele>
        <time>2022-10-19T12:13:55.587Z</time>
      </trkpt>
      <trkpt lat="43.52262" lon="5.6192">
        <ele>525</ele>
        <time>2022-10-19T12:13:56.587Z</time>
      </trkpt>
      <trkpt lat="43.52262" lon="5.61922">
        <ele>525</ele>
        <time>2022-10-19T12:13:57.587Z</time>
      </trkpt>
      <trkpt lat="43.52263" lon="5.61924">
        <ele>525</ele>
        <time>2022-10-19T12:13:58.587Z</time>
      </trkpt>
      <trkpt lat="43.52263" lon="5.61925">
        <ele>525</ele>
        <time>2022-10-19T12:13:59.587Z</time>
      </trkpt>
      <trkpt lat="43.52263" lon="5.61927">
        <ele>525</ele>
        <time>2022-10-19T12:14:00.587Z</time>
      </trkpt>
      <trkpt lat="43.52264" lon="5.61929">
        <ele>525</ele>
        <time>2022-10-19T12:14:01.587Z</time>
      </trkpt>
      <trkpt lat="43.52264" lon="5.6193">
        <ele>525</ele>
        <time>2022-10-19T12:14:02.587Z</time>
      </trkpt>
      <trkpt lat="43.52264" lon="5.61932">
        <ele>525</ele>
        <time>2022-10-19T12:14:03.587Z</time>
      </trkpt>
      <trkpt lat="43.52264" lon="5.61934">
        <ele>525</ele>
        <time>2022-10-19T12:14:04.587Z</time>
      </trkpt>
      <trkpt lat="43.52265" lon="5.61935">
        <ele>525</ele>
        <time>2022-10-19T12:14:05.587Z</time>
      </trkpt>
      <trkpt lat="43.52265" lon="5.61937">
        <ele>525</ele>
        <time>2022-10-19T12:14:06.587Z</time>
      </trkpt>
      <trkpt lat="43.52265" lon="5.61939">
        <ele>525</ele>
        <time>2022-10-19T12:14:07.587Z</time>
      </trkpt>
      <trkpt lat="43.52266" lon="5.6194">
        <ele>525</ele>
        <time>2022-10-19T12:14:08.587Z</time>
      </trkpt>
      <trkpt lat="43.52266" lon="5.61942">
        <ele>525</ele>
        <time>2022-10-19T12:14:09.587Z</time>
      </trkpt>
      <trkpt lat="43.52267" lon="5.61944">
        <ele>525</ele>
        <time>2022-10-19T12:14:10.587Z</time>
      </trkpt>
      <trkpt lat="43.52267" lon="5.61945">
        <ele>525</ele>
        <time>2022-10-19T12:14:11.587Z</time>
      </trkpt>
      <trkpt lat="43.52268" lon="5.61947">
        <ele>525</ele>
        <time>2022-10-19T12:14:12.587Z</time>
      </trkpt>
      <trkpt lat="43.52268" lon="5.61949">
        <ele>525</ele>
        <time>2022-10-19T12:14:13.587Z</time>
      </trkpt>
      <trkpt lat="43.52269" lon="5.6195">
        <ele>525</ele>
        <time>2022-10-19T12:14:14.587Z</time>
      </trkpt>
      <trkpt lat="43.52269" lon="5.61952">
        <ele>525</ele>
        <time>2022-10-19T12:14:15.587Z</time>
      </trkpt>
      <trkpt lat="43.52269" lon="5.61954">
        <ele>525</ele>
        <time>2022-10-19T12:14:16.587Z</time>
      </trkpt>
      <trkpt lat="43.5227" lon="5.61956">
        <ele>526</ele>
        <time>2022-10-19T12:14:17.587Z</time>
      </trkpt>
      <trkpt lat="43.5227" lon="5.61957">
        <ele>526</ele>
        <time>2022-10-19T12:14:18.587Z</time>
      </trkpt>
      <trkpt lat="43.5227" lon="5.61959">
        <ele>526</ele>
        <time>2022-10-19T12:14:19.587Z</time>
      </trkpt>
      <trkpt lat="43.52271" lon="5.6196">
        <ele>526</ele>
        <time>2022-10-19T12:14:20.587Z</time>
      </trkpt>
      <trkpt lat="43.52271" lon="5.61962">
        <ele>526</ele>
        <time>2022-10-19T12:14:21.587Z</time>
      </trkpt>
      <trkpt lat="43.52272" lon="5.61964">
        <ele>526</ele>
        <time>2022-10-19T12:14:22.587Z</time>
      </trkpt>
      <trkpt lat="43.52272" lon="5.61965">
        <ele>526</ele>
        <time>2022-10-19T12:14:23.587Z</time>
      </trkpt>
      <trkpt lat="43.52273" lon="5.61967">
        <ele>526</ele>
        <time>2022-10-19T12:14:24.587Z</time>
      </trkpt>
      <trkpt lat="43.52273" lon="5.61968">
        <ele>525</ele>
        <time>2022-10-19T12:14:25.587Z</time>
      </trkpt>
      <trkpt lat="43.52274" lon="5.6197">
        <ele>525</ele>
        <time>2022-10-19T12:14:26.587Z</time>
      </trkpt>
      <trkpt lat="43.52275" lon="5.61971">
        <ele>525</ele>
        <time>2022-10-19T12:14:27.587Z</time>
      </trkpt>
      <trkpt lat="43.52275" lon="5.61973">
        <ele>525</ele>
        <time>2022-10-19T12:14:28.587Z</time>
      </trkpt>
      <trkpt lat="43.52276" lon="5.61975">
        <ele>525</ele>
        <time>2022-10-19T12:14:29.587Z</time>
      </trkpt>
      <trkpt lat="43.52276" lon="5.61976">
        <ele>525</ele>
        <time>2022-10-19T12:14:30.587Z</time>
      </trkpt>
      <trkpt lat="43.52277" lon="5.61978">
        <ele>525</ele>
        <time>2022-10-19T12:14:31.587Z</time>
      </trkpt>
      <trkpt lat="43.52277" lon="5.61979">
        <ele>525</ele>
        <time>2022-10-19T12:14:32.587Z</time>
      </trkpt>
      <trkpt lat="43.52277" lon="5.61981">
        <ele>525</ele>
        <time>2022-10-19T12:14:33.587Z</time>
      </trkpt>
      <trkpt lat="43.52277" lon="5.61982">
        <ele>525</ele>
        <time>2022-10-19T12:14:34.587Z</time>
      </trkpt>
      <trkpt lat="43.52278" lon="5.61984">
        <ele>525</ele>
        <time>2022-10-19T12:14:35.587Z</time>
      </trkpt>
      <trkpt lat="43.52278" lon="5.61986">
        <ele>525</ele>
        <time>2022-10-19T12:14:36.587Z</time>
      </trkpt>
      <trkpt lat="43.52278" lon="5.61988">
        <ele>525</ele>
        <time>2022-10-19T12:14:37.587Z</time>
      </trkpt>
      <trkpt lat="43.52278" lon="5.6199">
        <ele>525</ele>
        <time>2022-10-19T12:14:38.587Z</time>
      </trkpt>
      <trkpt lat="43.52279" lon="5.61991">
        <ele>525</ele>
        <time>2022-10-19T12:14:39.587Z</time>
      </trkpt>
      <trkpt lat="43.52279" lon="5.61993">
        <ele>525</ele>
        <time>2022-10-19T12:14:40.587Z</time>
      </trkpt>
      <trkpt lat="43.52279" lon="5.61994">
        <ele>525</ele>
        <time>2022-10-19T12:14:41.587Z</time>
      </trkpt>
      <trkpt lat="43.52279" lon="5.61996">
        <ele>524</ele>
        <time>2022-10-19T12:14:42.587Z</time>
      </trkpt>
      <trkpt lat="43.5228" lon="5.61998">
        <ele>524</ele>
        <time>2022-10-19T12:14:43.587Z</time>
      </trkpt>
      <trkpt lat="43.5228" lon="5.62">
        <ele>524</ele>
        <time>2022-10-19T12:14:44.587Z</time>
      </trkpt>
      <trkpt lat="43.5228" lon="5.62001">
        <ele>524</ele>
        <time>2022-10-19T12:14:45.587Z</time>
      </trkpt>
      <trkpt lat="43.52281" lon="5.62003">
        <ele>524</ele>
        <time>2022-10-19T12:14:46.587Z</time>
      </trkpt>
      <trkpt lat="43.52281" lon="5.62005">
        <ele>524</ele>
        <time>2022-10-19T12:14:47.587Z</time>
      </trkpt>
      <trkpt lat="43.52281" lon="5.62006">
        <ele>524</ele>
        <time>2022-10-19T12:14:48.587Z</time>
      </trkpt>
      <trkpt lat="43.52282" lon="5.62008">
        <ele>524</ele>
        <time>2022-10-19T12:14:49.587Z</time>
      </trkpt>
      <trkpt lat="43.52282" lon="5.6201">
        <ele>524</ele>
        <time>2022-10-19T12:14:50.587Z</time>
      </trkpt>
      <trkpt lat="43.52282" lon="5.62012">
        <ele>524</ele>
        <time>2022-10-19T12:14:51.587Z</time>
      </trkpt>
      <trkpt lat="43.52282" lon="5.62013">
        <ele>524</ele>
        <time>2022-10-19T12:14:52.587Z</time>
      </trkpt>
      <trkpt lat="43.52282" lon="5.62015">
        <ele>524</ele>
        <time>2022-10-19T12:14:53.587Z</time>
      </trkpt>
      <trkpt lat="43.52283" lon="5.62017">
        <ele>524</ele>
        <time>2022-10-19T12:14:54.587Z</time>
      </trkpt>
      <trkpt lat="43.52283" lon="5.62018">
        <ele>524</ele>
        <time>2022-10-19T12:14:55.587Z</time>
      </trkpt>
      <trkpt lat="43.52283" lon="5.6202">
        <ele>524</ele>
        <time>2022-10-19T12:14:56.587Z</time>
      </trkpt>
      <trkpt lat="43.52284" lon="5.62022">
        <ele>523</ele>
        <time>2022-10-19T12:14:57.587Z</time>
      </trkpt>
      <trkpt lat="43.52284" lon="5.62024">
        <ele>523</ele>
        <time>2022-10-19T12:14:58.587Z</time>
      </trkpt>
      <trkpt lat="43.52284" lon="5.62025">
        <ele>523</ele>
        <time>2022-10-19T12:14:59.587Z</time>
      </trkpt>
      <trkpt lat="43.52284" lon="5.62027">
        <ele>523</ele>
        <time>2022-10-19T12:15:00.587Z</time>
      </trkpt>
      <trkpt lat="43.52285" lon="5.62028">
        <ele>523</ele>
        <time>2022-10-19T12:15:01.587Z</time>
      </trkpt>
      <trkpt lat="43.52285" lon="5.6203">
        <ele>523</ele>
        <time>2022-10-19T12:15:02.587Z</time>
      </trkpt>
      <trkpt lat="43.52286" lon="5.62031">
        <ele>523</ele>
        <time>2022-10-19T12:15:03.587Z</time>
      </trkpt>
      <trkpt lat="43.52286" lon="5.62033">
        <ele>523</ele>
        <time>2022-10-19T12:15:04.587Z</time>
      </trkpt>
      <trkpt lat="43.52287" lon="5.62034">
        <ele>523</ele>
        <time>2022-10-19T12:15:05.587Z</time>
      </trkpt>
      <trkpt lat="43.52287" lon="5.62036">
        <ele>523</ele>
        <time>2022-10-19T12:15:06.587Z</time>
      </trkpt>
      <trkpt lat="43.52287" lon="5.62038">
        <ele>523</ele>
        <time>2022-10-19T12:15:07.587Z</time>
      </trkpt>
      <trkpt lat="43.52288" lon="5.62039">
        <ele>523</ele>
        <time>2022-10-19T12:15:08.587Z</time>
      </trkpt>
      <trkpt lat="43.52288" lon="5.62041">
        <ele>523</ele>
        <time>2022-10-19T12:15:09.587Z</time>
      </trkpt>
      <trkpt lat="43.52289" lon="5.62042">
        <ele>523</ele>
        <time>2022-10-19T12:15:10.587Z</time>
      </trkpt>
      <trkpt lat="43.52289" lon="5.62044">
        <ele>523</ele>
        <time>2022-10-19T12:15:11.587Z</time>
      </trkpt>
      <trkpt lat="43.5229" lon="5.62045">
        <ele>523</ele>
        <time>2022-10-19T12:15:12.587Z</time>
      </trkpt>
      <trkpt lat="43.5229" lon="5.62047">
        <ele>523</ele>
        <time>2022-10-19T12:15:13.587Z</time>
      </trkpt>
      <trkpt lat="43.52291" lon="5.62048">
        <ele>523</ele>
        <time>2022-10-19T12:15:14.587Z</time>
      </trkpt>
      <trkpt lat="43.52292" lon="5.62049">
        <ele>523</ele>
        <time>2022-10-19T12:15:15.587Z</time>
      </trkpt>
      <trkpt lat="43.52292" lon="5.62051">
        <ele>523</ele>
        <time>2022-10-19T12:15:16.587Z</time>
      </trkpt>
      <trkpt lat="43.52293" lon="5.62052">
        <ele>523</ele>
        <time>2022-10-19T12:15:17.587Z</time>
      </trkpt>
      <trkpt lat="43.52294" lon="5.62054">
        <ele>523</ele>
        <time>2022-10-19T12:15:18.587Z</time>
      </trkpt>
      <trkpt lat="43.52294" lon="5.62055">
        <ele>523</ele>
        <time>2022-10-19T12:15:19.587Z</time>
      </trkpt>
      <trkpt lat="43.52295" lon="5.62057">
        <ele>523</ele>
        <time>2022-10-19T12:15:20.587Z</time>
      </trkpt>
      <trkpt lat="43.52296" lon="5.62058">
        <ele>523</ele>
        <time>2022-10-19T12:15:21.587Z</time>
      </trkpt>
      <trkpt lat="43.52297" lon="5.6206">
        <ele>523</ele>
        <time>2022-10-19T12:15:22.587Z</time>
      </trkpt>
      <trkpt lat="43.52297" lon="5.62061">
        <ele>523</ele>
        <time>2022-10-19T12:15:23.587Z</time>
      </trkpt>
      <trkpt lat="43.52298" lon="5.62063">
        <ele>523</ele>
        <time>2022-10-19T12:15:24.587Z</time>
      </trkpt>
      <trkpt lat="43.52298" lon="5.62064">
        <ele>523</ele>
        <time>2022-10-19T12:15:25.587Z</time>
      </trkpt>
      <trkpt lat="43.52299" lon="5.62066">
        <ele>523</ele>
        <time>2022-10-19T12:15:26.587Z</time>
      </trkpt>
      <trkpt lat="43.52299" lon="5.62067">
        <ele>523</ele>
        <time>2022-10-19T12:15:27.587Z</time>
      </trkpt>
      <trkpt lat="43.52299" lon="5.62069">
        <ele>523</ele>
        <time>2022-10-19T12:15:28.587Z</time>
      </trkpt>
      <trkpt lat="43.523" lon="5.6207">
        <ele>523</ele>
        <time>2022-10-19T12:15:29.587Z</time>
      </trkpt>
      <trkpt lat="43.523" lon="5.62071">
        <ele>523</ele>
        <time>2022-10-19T12:15:30.587Z</time>
      </trkpt>
      <trkpt lat="43.523" lon="5.62073">
        <ele>523</ele>
        <time>2022-10-19T12:15:31.587Z</time>
      </trkpt>
      <trkpt lat="43.523" lon="5.62075">
        <ele>522</ele>
        <time>2022-10-19T12:15:32.587Z</time>
      </trkpt>
      <trkpt lat="43.52301" lon="5.62076">
        <ele>522</ele>
        <time>2022-10-19T12:15:33.587Z</time>
      </trkpt>
      <trkpt lat="43.52301" lon="5.62078">
        <ele>522</ele>
        <time>2022-10-19T12:15:34.587Z</time>
      </trkpt>
      <trkpt lat="43.52301" lon="5.62079">
        <ele>522</ele>
        <time>2022-10-19T12:15:35.587Z</time>
      </trkpt>
      <trkpt lat="43.52301" lon="5.62081">
        <ele>522</ele>
        <time>2022-10-19T12:15:36.587Z</time>
      </trkpt>
      <trkpt lat="43.52301" lon="5.62083">
        <ele>522</ele>
        <time>2022-10-19T12:15:37.587Z</time>
      </trkpt>
      <trkpt lat="43.52301" lon="5.62084">
        <ele>522</ele>
        <time>2022-10-19T12:15:38.587Z</time>
      </trkpt>
      <trkpt lat="43.52302" lon="5.62086">
        <ele>522</ele>
        <time>2022-10-19T12:15:39.587Z</time>
      </trkpt>
      <trkpt lat="43.52302" lon="5.62087">
        <ele>523</ele>
        <time>2022-10-19T12:15:40.587Z</time>
      </trkpt>
      <trkpt lat="43.52302" lon="5.62089">
        <ele>523</ele>
        <time>2022-10-19T12:15:41.587Z</time>
      </trkpt>
      <trkpt lat="43.52302" lon="5.62091">
        <ele>523</ele>
        <time>2022-10-19T12:15:42.587Z</time>
      </trkpt>
      <trkpt lat="43.52302" lon="5.62092">
        <ele>523</ele>
        <time>2022-10-19T12:15:43.587Z</time>
      </trkpt>
      <trkpt lat="43.52302" lon="5.62094">
        <ele>523</ele>
        <time>2022-10-19T12:15:44.587Z</time>
      </trkpt>
      <trkpt lat="43.52302" lon="5.62096">
        <ele>523</ele>
        <time>2022-10-19T12:15:45.587Z</time>
      </trkpt>
      <trkpt lat="43.52303" lon="5.62097">
        <ele>523</ele>
        <time>2022-10-19T12:15:46.587Z</time>
      </trkpt>
      <trkpt lat="43.52303" lon="5.62099">
        <ele>523</ele>
        <time>2022-10-19T12:15:47.587Z</time>
      </trkpt>
      <trkpt lat="43.52303" lon="5.62101">
        <ele>523</ele>
        <time>2022-10-19T12:15:48.587Z</time>
      </trkpt>
      <trkpt lat="43.52303" lon="5.62102">
        <ele>523</ele>
        <time>2022-10-19T12:15:49.587Z</time>
      </trkpt>
      <trkpt lat="43.52303" lon="5.62104">
        <ele>523</ele>
        <time>2022-10-19T12:15:50.587Z</time>
      </trkpt>
      <trkpt lat="43.52303" lon="5.62106">
        <ele>523</ele>
        <time>2022-10-19T12:15:51.587Z</time>
      </trkpt>
      <trkpt lat="43.52303" lon="5.62107">
        <ele>523</ele>
        <time>2022-10-19T12:15:52.587Z</time>
      </trkpt>
      <trkpt lat="43.52304" lon="5.62109">
        <ele>523</ele>
        <time>2022-10-19T12:15:53.587Z</time>
      </trkpt>
      <trkpt lat="43.52304" lon="5.62111">
        <ele>523</ele>
        <time>2022-10-19T12:15:54.587Z</time>
      </trkpt>
      <trkpt lat="43.52304" lon="5.62112">
        <ele>523</ele>
        <time>2022-10-19T12:15:55.587Z</time>
      </trkpt>
      <trkpt lat="43.52304" lon="5.62114">
        <ele>523</ele>
        <time>2022-10-19T12:15:56.587Z</time>
      </trkpt>
      <trkpt lat="43.52304" lon="5.62115">
        <ele>523</ele>
        <time>2022-10-19T12:15:57.587Z</time>
      </trkpt>
      <trkpt lat="43.52305" lon="5.62117">
        <ele>523</ele>
        <time>2022-10-19T12:15:58.587Z</time>
      </trkpt>
      <trkpt lat="43.52305" lon="5.62119">
        <ele>523</ele>
        <time>2022-10-19T12:15:59.587Z</time>
      </trkpt>
      <trkpt lat="43.52305" lon="5.62121">
        <ele>523</ele>
        <time>2022-10-19T12:16:00.587Z</time>
      </trkpt>
      <trkpt lat="43.52305" lon="5.62123">
        <ele>523</ele>
        <time>2022-10-19T12:16:01.587Z</time>
      </trkpt>
      <trkpt lat="43.52305" lon="5.62124">
        <ele>523</ele>
        <time>2022-10-19T12:16:02.587Z</time>
      </trkpt>
      <trkpt lat="43.52305" lon="5.62126">
        <ele>523</ele>
        <time>2022-10-19T12:16:03.587Z</time>
      </trkpt>
      <trkpt lat="43.52305" lon="5.62127">
        <ele>523</ele>
        <time>2022-10-19T12:16:04.587Z</time>
      </trkpt>
      <trkpt lat="43.52305" lon="5.62128">
        <ele>523</ele>
        <time>2022-10-19T12:16:05.587Z</time>
      </trkpt>
      <trkpt lat="43.52305" lon="5.6213">
        <ele>523</ele>
        <time>2022-10-19T12:16:06.587Z</time>
      </trkpt>
      <trkpt lat="43.52305" lon="5.62132">
        <ele>523</ele>
        <time>2022-10-19T12:16:07.587Z</time>
      </trkpt>
      <trkpt lat="43.52305" lon="5.62133">
        <ele>523</ele>
        <time>2022-10-19T12:16:08.587Z</time>
      </trkpt>
      <trkpt lat="43.52305" lon="5.62135">
        <ele>523</ele>
        <time>2022-10-19T12:16:09.587Z</time>
      </trkpt>
      <trkpt lat="43.52305" lon="5.62137">
        <ele>523</ele>
        <time>2022-10-19T12:16:10.587Z</time>
      </trkpt>
      <trkpt lat="43.52305" lon="5.62138">
        <ele>523</ele>
        <time>2022-10-19T12:16:11.587Z</time>
      </trkpt>
      <trkpt lat="43.52305" lon="5.6214">
        <ele>522</ele>
        <time>2022-10-19T12:16:12.587Z</time>
      </trkpt>
      <trkpt lat="43.52306" lon="5.62141">
        <ele>522</ele>
        <time>2022-10-19T12:16:13.587Z</time>
      </trkpt>
      <trkpt lat="43.52306" lon="5.62143">
        <ele>522</ele>
        <time>2022-10-19T12:16:14.587Z</time>
      </trkpt>
      <trkpt lat="43.52306" lon="5.62144">
        <ele>522</ele>
        <time>2022-10-19T12:16:15.587Z</time>
      </trkpt>
      <trkpt lat="43.52306" lon="5.62146">
        <ele>522</ele>
        <time>2022-10-19T12:16:16.587Z</time>
      </trkpt>
      <trkpt lat="43.52306" lon="5.62148">
        <ele>522</ele>
        <time>2022-10-19T12:16:17.587Z</time>
      </trkpt>
      <trkpt lat="43.52306" lon="5.62149">
        <ele>522</ele>
        <time>2022-10-19T12:16:18.587Z</time>
      </trkpt>
      <trkpt lat="43.52306" lon="5.62151">
        <ele>522</ele>
        <time>2022-10-19T12:16:19.587Z</time>
      </trkpt>
      <trkpt lat="43.52306" lon="5.62152">
        <ele>522</ele>
        <time>2022-10-19T12:16:20.587Z</time>
      </trkpt>
      <trkpt lat="43.52306" lon="5.62154">
        <ele>522</ele>
        <time>2022-10-19T12:16:21.587Z</time>
      </trkpt>
      <trkpt lat="43.52306" lon="5.62155">
        <ele>522</ele>
        <time>2022-10-19T12:16:22.587Z</time>
      </trkpt>
      <trkpt lat="43.52306" lon="5.62157">
        <ele>522</ele>
        <time>2022-10-19T12:16:23.587Z</time>
      </trkpt>
      <trkpt lat="43.52306" lon="5.62158">
        <ele>522</ele>
        <time>2022-10-19T12:16:24.587Z</time>
      </trkpt>
      <trkpt lat="43.52306" lon="5.6216">
        <ele>522</ele>
        <time>2022-10-19T12:16:25.587Z</time>
      </trkpt>
      <trkpt lat="43.52306" lon="5.62162">
        <ele>521</ele>
        <time>2022-10-19T12:16:26.587Z</time>
      </trkpt>
      <trkpt lat="43.52305" lon="5.62163">
        <ele>521</ele>
        <time>2022-10-19T12:16:27.587Z</time>
      </trkpt>
      <trkpt lat="43.52305" lon="5.62164">
        <ele>521</ele>
        <time>2022-10-19T12:16:28.587Z</time>
      </trkpt>
      <trkpt lat="43.52305" lon="5.62166">
        <ele>521</ele>
        <time>2022-10-19T12:16:29.587Z</time>
      </trkpt>
      <trkpt lat="43.52305" lon="5.62168">
        <ele>521</ele>
        <time>2022-10-19T12:16:30.587Z</time>
      </trkpt>
      <trkpt lat="43.52305" lon="5.62169">
        <ele>521</ele>
        <time>2022-10-19T12:16:31.587Z</time>
      </trkpt>
      <trkpt lat="43.52306" lon="5.62171">
        <ele>521</ele>
        <time>2022-10-19T12:16:32.587Z</time>
      </trkpt>
      <trkpt lat="43.52306" lon="5.62173">
        <ele>520</ele>
        <time>2022-10-19T12:16:33.587Z</time>
      </trkpt>
      <trkpt lat="43.52306" lon="5.62174">
        <ele>520</ele>
        <time>2022-10-19T12:16:34.587Z</time>
      </trkpt>
      <trkpt lat="43.52306" lon="5.62176">
        <ele>520</ele>
        <time>2022-10-19T12:16:35.587Z</time>
      </trkpt>
      <trkpt lat="43.52306" lon="5.62178">
        <ele>520</ele>
        <time>2022-10-19T12:16:36.587Z</time>
      </trkpt>
      <trkpt lat="43.52306" lon="5.62179">
        <ele>520</ele>
        <time>2022-10-19T12:16:37.587Z</time>
      </trkpt>
      <trkpt lat="43.52306" lon="5.62181">
        <ele>520</ele>
        <time>2022-10-19T12:16:38.587Z</time>
      </trkpt>
      <trkpt lat="43.52306" lon="5.62182">
        <ele>520</ele>
        <time>2022-10-19T12:16:39.587Z</time>
      </trkpt>
      <trkpt lat="43.52306" lon="5.62184">
        <ele>520</ele>
        <time>2022-10-19T12:16:40.587Z</time>
      </trkpt>
      <trkpt lat="43.52306" lon="5.62186">
        <ele>520</ele>
        <time>2022-10-19T12:16:41.587Z</time>
      </trkpt>
      <trkpt lat="43.52306" lon="5.62187">
        <ele>519</ele>
        <time>2022-10-19T12:16:42.587Z</time>
      </trkpt>
      <trkpt lat="43.52306" lon="5.62189">
        <ele>519</ele>
        <time>2022-10-19T12:16:43.587Z</time>
      </trkpt>
      <trkpt lat="43.52306" lon="5.6219">
        <ele>519</ele>
        <time>2022-10-19T12:16:44.587Z</time>
      </trkpt>
      <trkpt lat="43.52306" lon="5.62192">
        <ele>519</ele>
        <time>2022-10-19T12:16:45.587Z</time>
      </trkpt>
      <trkpt lat="43.52306" lon="5.62194">
        <ele>519</ele>
        <time>2022-10-19T12:16:46.587Z</time>
      </trkpt>
      <trkpt lat="43.52306" lon="5.62195">
        <ele>519</ele>
        <time>2022-10-19T12:16:47.587Z</time>
      </trkpt>
      <trkpt lat="43.52306" lon="5.62197">
        <ele>519</ele>
        <time>2022-10-19T12:16:48.587Z</time>
      </trkpt>
      <trkpt lat="43.52306" lon="5.62199">
        <ele>519</ele>
        <time>2022-10-19T12:16:49.587Z</time>
      </trkpt>
      <trkpt lat="43.52306" lon="5.622">
        <ele>519</ele>
        <time>2022-10-19T12:16:50.587Z</time>
      </trkpt>
      <trkpt lat="43.52306" lon="5.62202">
        <ele>519</ele>
        <time>2022-10-19T12:16:51.587Z</time>
      </trkpt>
      <trkpt lat="43.52306" lon="5.62204">
        <ele>518</ele>
        <time>2022-10-19T12:16:52.587Z</time>
      </trkpt>
      <trkpt lat="43.52306" lon="5.62205">
        <ele>518</ele>
        <time>2022-10-19T12:16:53.587Z</time>
      </trkpt>
      <trkpt lat="43.52306" lon="5.62207">
        <ele>518</ele>
        <time>2022-10-19T12:16:54.587Z</time>
      </trkpt>
      <trkpt lat="43.52306" lon="5.62209">
        <ele>518</ele>
        <time>2022-10-19T12:16:55.587Z</time>
      </trkpt>
      <trkpt lat="43.52306" lon="5.6221">
        <ele>518</ele>
        <time>2022-10-19T12:16:56.587Z</time>
      </trkpt>
      <trkpt lat="43.52306" lon="5.62212">
        <ele>518</ele>
        <time>2022-10-19T12:16:57.587Z</time>
      </trkpt>
      <trkpt lat="43.52306" lon="5.62214">
        <ele>518</ele>
        <time>2022-10-19T12:16:58.587Z</time>
      </trkpt>
      <trkpt lat="43.52306" lon="5.62216">
        <ele>518</ele>
        <time>2022-10-19T12:16:59.587Z</time>
      </trkpt>
      <trkpt lat="43.52306" lon="5.62217">
        <ele>517</ele>
        <time>2022-10-19T12:17:00.587Z</time>
      </trkpt>
      <trkpt lat="43.52306" lon="5.62219">
        <ele>517</ele>
        <time>2022-10-19T12:17:01.587Z</time>
      </trkpt>
      <trkpt lat="43.52306" lon="5.6222">
        <ele>517</ele>
        <time>2022-10-19T12:17:02.587Z</time>
      </trkpt>
      <trkpt lat="43.52306" lon="5.62222">
        <ele>517</ele>
        <time>2022-10-19T12:17:03.587Z</time>
      </trkpt>
      <trkpt lat="43.52306" lon="5.62224">
        <ele>517</ele>
        <time>2022-10-19T12:17:04.587Z</time>
      </trkpt>
      <trkpt lat="43.52306" lon="5.62225">
        <ele>517</ele>
        <time>2022-10-19T12:17:05.587Z</time>
      </trkpt>
      <trkpt lat="43.52306" lon="5.62227">
        <ele>517</ele>
        <time>2022-10-19T12:17:06.587Z</time>
      </trkpt>
      <trkpt lat="43.52306" lon="5.62229">
        <ele>517</ele>
        <time>2022-10-19T12:17:07.587Z</time>
      </trkpt>
      <trkpt lat="43.52306" lon="5.6223">
        <ele>516</ele>
        <time>2022-10-19T12:17:08.587Z</time>
      </trkpt>
      <trkpt lat="43.52306" lon="5.62232">
        <ele>516</ele>
        <time>2022-10-19T12:17:09.587Z</time>
      </trkpt>
      <trkpt lat="43.52306" lon="5.62234">
        <ele>516</ele>
        <time>2022-10-19T12:17:10.587Z</time>
      </trkpt>
      <trkpt lat="43.52307" lon="5.62236">
        <ele>516</ele>
        <time>2022-10-19T12:17:11.587Z</time>
      </trkpt>
      <trkpt lat="43.52307" lon="5.62237">
        <ele>516</ele>
        <time>2022-10-19T12:17:12.587Z</time>
      </trkpt>
      <trkpt lat="43.52306" lon="5.62239">
        <ele>516</ele>
        <time>2022-10-19T12:17:13.587Z</time>
      </trkpt>
      <trkpt lat="43.52306" lon="5.6224">
        <ele>516</ele>
        <time>2022-10-19T12:17:14.587Z</time>
      </trkpt>
      <trkpt lat="43.52306" lon="5.62241">
        <ele>516</ele>
        <time>2022-10-19T12:17:15.587Z</time>
      </trkpt>
      <trkpt lat="43.52307" lon="5.62243">
        <ele>516</ele>
        <time>2022-10-19T12:17:16.587Z</time>
      </trkpt>
      <trkpt lat="43.52307" lon="5.62245">
        <ele>516</ele>
        <time>2022-10-19T12:17:17.587Z</time>
      </trkpt>
      <trkpt lat="43.52307" lon="5.62247">
        <ele>516</ele>
        <time>2022-10-19T12:17:18.587Z</time>
      </trkpt>
      <trkpt lat="43.52307" lon="5.62248">
        <ele>516</ele>
        <time>2022-10-19T12:17:19.587Z</time>
      </trkpt>
      <trkpt lat="43.52308" lon="5.6225">
        <ele>516</ele>
        <time>2022-10-19T12:17:20.587Z</time>
      </trkpt>
      <trkpt lat="43.52308" lon="5.62252">
        <ele>516</ele>
        <time>2022-10-19T12:17:21.587Z</time>
      </trkpt>
      <trkpt lat="43.52308" lon="5.62253">
        <ele>516</ele>
        <time>2022-10-19T12:17:22.587Z</time>
      </trkpt>
      <trkpt lat="43.52308" lon="5.62255">
        <ele>516</ele>
        <time>2022-10-19T12:17:23.587Z</time>
      </trkpt>
      <trkpt lat="43.52308" lon="5.62257">
        <ele>516</ele>
        <time>2022-10-19T12:17:24.587Z</time>
      </trkpt>
      <trkpt lat="43.52309" lon="5.62258">
        <ele>516</ele>
        <time>2022-10-19T12:17:25.587Z</time>
      </trkpt>
      <trkpt lat="43.52309" lon="5.6226">
        <ele>516</ele>
        <time>2022-10-19T12:17:26.587Z</time>
      </trkpt>
      <trkpt lat="43.52309" lon="5.62261">
        <ele>516</ele>
        <time>2022-10-19T12:17:27.587Z</time>
      </trkpt>
      <trkpt lat="43.52309" lon="5.62263">
        <ele>516</ele>
        <time>2022-10-19T12:17:28.587Z</time>
      </trkpt>
      <trkpt lat="43.5231" lon="5.62265">
        <ele>515</ele>
        <time>2022-10-19T12:17:29.587Z</time>
      </trkpt>
      <trkpt lat="43.5231" lon="5.62267">
        <ele>515</ele>
        <time>2022-10-19T12:17:30.587Z</time>
      </trkpt>
      <trkpt lat="43.5231" lon="5.62268">
        <ele>515</ele>
        <time>2022-10-19T12:17:31.587Z</time>
      </trkpt>
      <trkpt lat="43.5231" lon="5.6227">
        <ele>515</ele>
        <time>2022-10-19T12:17:32.587Z</time>
      </trkpt>
      <trkpt lat="43.52311" lon="5.62271">
        <ele>515</ele>
        <time>2022-10-19T12:17:33.587Z</time>
      </trkpt>
      <trkpt lat="43.52311" lon="5.62273">
        <ele>515</ele>
        <time>2022-10-19T12:17:34.587Z</time>
      </trkpt>
      <trkpt lat="43.52312" lon="5.62274">
        <ele>515</ele>
        <time>2022-10-19T12:17:35.587Z</time>
      </trkpt>
      <trkpt lat="43.52312" lon="5.62276">
        <ele>515</ele>
        <time>2022-10-19T12:17:36.587Z</time>
      </trkpt>
      <trkpt lat="43.52313" lon="5.62277">
        <ele>515</ele>
        <time>2022-10-19T12:17:37.587Z</time>
      </trkpt>
      <trkpt lat="43.52313" lon="5.62279">
        <ele>515</ele>
        <time>2022-10-19T12:17:38.587Z</time>
      </trkpt>
      <trkpt lat="43.52314" lon="5.6228">
        <ele>515</ele>
        <time>2022-10-19T12:17:39.587Z</time>
      </trkpt>
      <trkpt lat="43.52314" lon="5.62282">
        <ele>514</ele>
        <time>2022-10-19T12:17:40.587Z</time>
      </trkpt>
      <trkpt lat="43.52314" lon="5.62284">
        <ele>514</ele>
        <time>2022-10-19T12:17:41.587Z</time>
      </trkpt>
      <trkpt lat="43.52315" lon="5.62285">
        <ele>514</ele>
        <time>2022-10-19T12:17:42.587Z</time>
      </trkpt>
      <trkpt lat="43.52315" lon="5.62287">
        <ele>514</ele>
        <time>2022-10-19T12:17:43.587Z</time>
      </trkpt>
      <trkpt lat="43.52315" lon="5.62288">
        <ele>513</ele>
        <time>2022-10-19T12:17:44.587Z</time>
      </trkpt>
      <trkpt lat="43.52316" lon="5.6229">
        <ele>513</ele>
        <time>2022-10-19T12:17:45.587Z</time>
      </trkpt>
      <trkpt lat="43.52316" lon="5.62291">
        <ele>513</ele>
        <time>2022-10-19T12:17:46.587Z</time>
      </trkpt>
      <trkpt lat="43.52316" lon="5.62293">
        <ele>513</ele>
        <time>2022-10-19T12:17:47.587Z</time>
      </trkpt>
      <trkpt lat="43.52316" lon="5.62295">
        <ele>513</ele>
        <time>2022-10-19T12:17:48.587Z</time>
      </trkpt>
      <trkpt lat="43.52317" lon="5.62296">
        <ele>512</ele>
        <time>2022-10-19T12:17:49.587Z</time>
      </trkpt>
      <trkpt lat="43.52317" lon="5.62298">
        <ele>512</ele>
        <time>2022-10-19T12:17:50.587Z</time>
      </trkpt>
      <trkpt lat="43.52317" lon="5.62299">
        <ele>512</ele>
        <time>2022-10-19T12:17:51.587Z</time>
      </trkpt>
      <trkpt lat="43.52318" lon="5.62301">
        <ele>512</ele>
        <time>2022-10-19T12:17:52.587Z</time>
      </trkpt>
      <trkpt lat="43.52318" lon="5.62303">
        <ele>512</ele>
        <time>2022-10-19T12:17:53.587Z</time>
      </trkpt>
      <trkpt lat="43.52318" lon="5.62304">
        <ele>512</ele>
        <time>2022-10-19T12:17:54.587Z</time>
      </trkpt>
      <trkpt lat="43.52319" lon="5.62305">
        <ele>511</ele>
        <time>2022-10-19T12:17:55.587Z</time>
      </trkpt>
      <trkpt lat="43.52319" lon="5.62307">
        <ele>511</ele>
        <time>2022-10-19T12:17:56.587Z</time>
      </trkpt>
      <trkpt lat="43.52319" lon="5.62309">
        <ele>511</ele>
        <time>2022-10-19T12:17:57.587Z</time>
      </trkpt>
      <trkpt lat="43.5232" lon="5.6231">
        <ele>511</ele>
        <time>2022-10-19T12:17:58.587Z</time>
      </trkpt>
      <trkpt lat="43.5232" lon="5.62311">
        <ele>511</ele>
        <time>2022-10-19T12:17:59.587Z</time>
      </trkpt>
      <trkpt lat="43.5232" lon="5.62313">
        <ele>511</ele>
        <time>2022-10-19T12:18:00.587Z</time>
      </trkpt>
      <trkpt lat="43.5232" lon="5.62315">
        <ele>511</ele>
        <time>2022-10-19T12:18:01.587Z</time>
      </trkpt>
      <trkpt lat="43.5232" lon="5.62316">
        <ele>511</ele>
        <time>2022-10-19T12:18:02.587Z</time>
      </trkpt>
      <trkpt lat="43.5232" lon="5.62318">
        <ele>510</ele>
        <time>2022-10-19T12:18:03.587Z</time>
      </trkpt>
      <trkpt lat="43.5232" lon="5.62319">
        <ele>510</ele>
        <time>2022-10-19T12:18:04.587Z</time>
      </trkpt>
      <trkpt lat="43.5232" lon="5.62321">
        <ele>510</ele>
        <time>2022-10-19T12:18:05.587Z</time>
      </trkpt>
      <trkpt lat="43.5232" lon="5.62322">
        <ele>510</ele>
        <time>2022-10-19T12:18:06.587Z</time>
      </trkpt>
      <trkpt lat="43.52319" lon="5.62324">
        <ele>510</ele>
        <time>2022-10-19T12:18:07.587Z</time>
      </trkpt>
      <trkpt lat="43.52319" lon="5.62325">
        <ele>510</ele>
        <time>2022-10-19T12:18:08.587Z</time>
      </trkpt>
      <trkpt lat="43.52318" lon="5.62326">
        <ele>510</ele>
        <time>2022-10-19T12:18:09.587Z</time>
      </trkpt>
      <trkpt lat="43.52318" lon="5.62327">
        <ele>510</ele>
        <time>2022-10-19T12:18:10.587Z</time>
      </trkpt>
      <trkpt lat="43.52318" lon="5.62327">
        <ele>510</ele>
        <time>2022-10-19T12:18:11.587Z</time>
      </trkpt>
      <trkpt lat="43.52317" lon="5.62329">
        <ele>510</ele>
        <time>2022-10-19T12:18:12.587Z</time>
      </trkpt>
      <trkpt lat="43.52317" lon="5.6233">
        <ele>509</ele>
        <time>2022-10-19T12:18:13.587Z</time>
      </trkpt>
      <trkpt lat="43.52316" lon="5.62331">
        <ele>509</ele>
        <time>2022-10-19T12:18:14.587Z</time>
      </trkpt>
      <trkpt lat="43.52315" lon="5.62333">
        <ele>509</ele>
        <time>2022-10-19T12:18:15.587Z</time>
      </trkpt>
      <trkpt lat="43.52315" lon="5.62334">
        <ele>509</ele>
        <time>2022-10-19T12:18:16.587Z</time>
      </trkpt>
      <trkpt lat="43.52314" lon="5.62335">
        <ele>509</ele>
        <time>2022-10-19T12:18:17.587Z</time>
      </trkpt>
      <trkpt lat="43.52313" lon="5.62336">
        <ele>509</ele>
        <time>2022-10-19T12:18:18.587Z</time>
      </trkpt>
      <trkpt lat="43.52312" lon="5.62337">
        <ele>509</ele>
        <time>2022-10-19T12:18:19.587Z</time>
      </trkpt>
      <trkpt lat="43.52312" lon="5.62339">
        <ele>509</ele>
        <time>2022-10-19T12:18:20.587Z</time>
      </trkpt>
      <trkpt lat="43.52311" lon="5.6234">
        <ele>509</ele>
        <time>2022-10-19T12:18:21.587Z</time>
      </trkpt>
      <trkpt lat="43.5231" lon="5.62341">
        <ele>509</ele>
        <time>2022-10-19T12:18:22.587Z</time>
      </trkpt>
      <trkpt lat="43.5231" lon="5.62343">
        <ele>509</ele>
        <time>2022-10-19T12:18:23.587Z</time>
      </trkpt>
      <trkpt lat="43.52309" lon="5.62344">
        <ele>509</ele>
        <time>2022-10-19T12:18:24.587Z</time>
      </trkpt>
      <trkpt lat="43.52308" lon="5.62345">
        <ele>509</ele>
        <time>2022-10-19T12:18:25.587Z</time>
      </trkpt>
      <trkpt lat="43.52308" lon="5.62347">
        <ele>508</ele>
        <time>2022-10-19T12:18:26.587Z</time>
      </trkpt>
      <trkpt lat="43.52307" lon="5.62348">
        <ele>508</ele>
        <time>2022-10-19T12:18:27.587Z</time>
      </trkpt>
      <trkpt lat="43.52306" lon="5.62349">
        <ele>508</ele>
        <time>2022-10-19T12:18:28.587Z</time>
      </trkpt>
      <trkpt lat="43.52305" lon="5.62351">
        <ele>508</ele>
        <time>2022-10-19T12:18:29.587Z</time>
      </trkpt>
      <trkpt lat="43.52305" lon="5.62352">
        <ele>508</ele>
        <time>2022-10-19T12:18:30.587Z</time>
      </trkpt>
      <trkpt lat="43.52304" lon="5.62353">
        <ele>508</ele>
        <time>2022-10-19T12:18:31.587Z</time>
      </trkpt>
      <trkpt lat="43.52303" lon="5.62355">
        <ele>508</ele>
        <time>2022-10-19T12:18:32.587Z</time>
      </trkpt>
      <trkpt lat="43.52302" lon="5.62356">
        <ele>508</ele>
        <time>2022-10-19T12:18:33.587Z</time>
      </trkpt>
      <trkpt lat="43.52302" lon="5.62357">
        <ele>508</ele>
        <time>2022-10-19T12:18:34.587Z</time>
      </trkpt>
      <trkpt lat="43.52301" lon="5.62359">
        <ele>507</ele>
        <time>2022-10-19T12:18:35.587Z</time>
      </trkpt>
      <trkpt lat="43.523" lon="5.6236">
        <ele>507</ele>
        <time>2022-10-19T12:18:36.587Z</time>
      </trkpt>
      <trkpt lat="43.523" lon="5.62362">
        <ele>507</ele>
        <time>2022-10-19T12:18:37.587Z</time>
      </trkpt>
      <trkpt lat="43.52299" lon="5.62363">
        <ele>507</ele>
        <time>2022-10-19T12:18:38.587Z</time>
      </trkpt>
      <trkpt lat="43.52298" lon="5.62364">
        <ele>507</ele>
        <time>2022-10-19T12:18:39.587Z</time>
      </trkpt>
      <trkpt lat="43.52298" lon="5.62366">
        <ele>507</ele>
        <time>2022-10-19T12:18:40.587Z</time>
      </trkpt>
      <trkpt lat="43.52297" lon="5.62367">
        <ele>507</ele>
        <time>2022-10-19T12:18:41.587Z</time>
      </trkpt>
      <trkpt lat="43.52296" lon="5.62368">
        <ele>506</ele>
        <time>2022-10-19T12:18:42.587Z</time>
      </trkpt>
      <trkpt lat="43.52296" lon="5.6237">
        <ele>506</ele>
        <time>2022-10-19T12:18:43.587Z</time>
      </trkpt>
      <trkpt lat="43.52295" lon="5.62371">
        <ele>506</ele>
        <time>2022-10-19T12:18:44.587Z</time>
      </trkpt>
      <trkpt lat="43.52294" lon="5.62372">
        <ele>506</ele>
        <time>2022-10-19T12:18:45.587Z</time>
      </trkpt>
      <trkpt lat="43.52293" lon="5.62374">
        <ele>506</ele>
        <time>2022-10-19T12:18:46.587Z</time>
      </trkpt>
      <trkpt lat="43.52293" lon="5.62375">
        <ele>505</ele>
        <time>2022-10-19T12:18:47.587Z</time>
      </trkpt>
      <trkpt lat="43.52292" lon="5.62377">
        <ele>505</ele>
        <time>2022-10-19T12:18:48.587Z</time>
      </trkpt>
      <trkpt lat="43.52291" lon="5.62378">
        <ele>505</ele>
        <time>2022-10-19T12:18:49.587Z</time>
      </trkpt>
      <trkpt lat="43.52291" lon="5.62379">
        <ele>505</ele>
        <time>2022-10-19T12:18:50.587Z</time>
      </trkpt>
      <trkpt lat="43.5229" lon="5.62381">
        <ele>505</ele>
        <time>2022-10-19T12:18:51.587Z</time>
      </trkpt>
      <trkpt lat="43.5229" lon="5.62383">
        <ele>505</ele>
        <time>2022-10-19T12:18:52.587Z</time>
      </trkpt>
      <trkpt lat="43.52289" lon="5.62385">
        <ele>504</ele>
        <time>2022-10-19T12:18:53.587Z</time>
      </trkpt>
      <trkpt lat="43.52289" lon="5.62386">
        <ele>504</ele>
        <time>2022-10-19T12:18:54.587Z</time>
      </trkpt>
      <trkpt lat="43.52288" lon="5.62388">
        <ele>504</ele>
        <time>2022-10-19T12:18:55.587Z</time>
      </trkpt>
      <trkpt lat="43.52288" lon="5.62389">
        <ele>504</ele>
        <time>2022-10-19T12:18:56.587Z</time>
      </trkpt>
      <trkpt lat="43.52287" lon="5.62391">
        <ele>504</ele>
        <time>2022-10-19T12:18:57.587Z</time>
      </trkpt>
      <trkpt lat="43.52287" lon="5.62392">
        <ele>504</ele>
        <time>2022-10-19T12:18:58.587Z</time>
      </trkpt>
      <trkpt lat="43.52286" lon="5.62394">
        <ele>504</ele>
        <time>2022-10-19T12:18:59.587Z</time>
      </trkpt>
      <trkpt lat="43.52286" lon="5.62395">
        <ele>503</ele>
        <time>2022-10-19T12:19:00.587Z</time>
      </trkpt>
      <trkpt lat="43.52285" lon="5.62397">
        <ele>503</ele>
        <time>2022-10-19T12:19:01.587Z</time>
      </trkpt>
      <trkpt lat="43.52285" lon="5.62398">
        <ele>503</ele>
        <time>2022-10-19T12:19:02.587Z</time>
      </trkpt>
      <trkpt lat="43.52284" lon="5.624">
        <ele>503</ele>
        <time>2022-10-19T12:19:03.587Z</time>
      </trkpt>
      <trkpt lat="43.52284" lon="5.62401">
        <ele>503</ele>
        <time>2022-10-19T12:19:04.587Z</time>
      </trkpt>
      <trkpt lat="43.52284" lon="5.62403">
        <ele>502</ele>
        <time>2022-10-19T12:19:05.587Z</time>
      </trkpt>
      <trkpt lat="43.52284" lon="5.62404">
        <ele>502</ele>
        <time>2022-10-19T12:19:06.587Z</time>
      </trkpt>
      <trkpt lat="43.52283" lon="5.62406">
        <ele>502</ele>
        <time>2022-10-19T12:19:07.587Z</time>
      </trkpt>
      <trkpt lat="43.52283" lon="5.62407">
        <ele>502</ele>
        <time>2022-10-19T12:19:08.587Z</time>
      </trkpt>
      <trkpt lat="43.52282" lon="5.62409">
        <ele>502</ele>
        <time>2022-10-19T12:19:09.587Z</time>
      </trkpt>
      <trkpt lat="43.52282" lon="5.6241">
        <ele>502</ele>
        <time>2022-10-19T12:19:10.587Z</time>
      </trkpt>
      <trkpt lat="43.52281" lon="5.62412">
        <ele>502</ele>
        <time>2022-10-19T12:19:11.587Z</time>
      </trkpt>
      <trkpt lat="43.52281" lon="5.62413">
        <ele>501</ele>
        <time>2022-10-19T12:19:12.587Z</time>
      </trkpt>
      <trkpt lat="43.5228" lon="5.62415">
        <ele>501</ele>
        <time>2022-10-19T12:19:13.587Z</time>
      </trkpt>
      <trkpt lat="43.5228" lon="5.62416">
        <ele>501</ele>
        <time>2022-10-19T12:19:14.587Z</time>
      </trkpt>
      <trkpt lat="43.52279" lon="5.62418">
        <ele>501</ele>
        <time>2022-10-19T12:19:15.587Z</time>
      </trkpt>
      <trkpt lat="43.52279" lon="5.62419">
        <ele>501</ele>
        <time>2022-10-19T12:19:16.587Z</time>
      </trkpt>
      <trkpt lat="43.52278" lon="5.62421">
        <ele>501</ele>
        <time>2022-10-19T12:19:17.587Z</time>
      </trkpt>
      <trkpt lat="43.52277" lon="5.62422">
        <ele>500</ele>
        <time>2022-10-19T12:19:18.587Z</time>
      </trkpt>
      <trkpt lat="43.52277" lon="5.62424">
        <ele>500</ele>
        <time>2022-10-19T12:19:19.587Z</time>
      </trkpt>
      <trkpt lat="43.52276" lon="5.62425">
        <ele>500</ele>
        <time>2022-10-19T12:19:20.587Z</time>
      </trkpt>
      <trkpt lat="43.52276" lon="5.62427">
        <ele>500</ele>
        <time>2022-10-19T12:19:21.587Z</time>
      </trkpt>
      <trkpt lat="43.52275" lon="5.62429">
        <ele>500</ele>
        <time>2022-10-19T12:19:22.587Z</time>
      </trkpt>
      <trkpt lat="43.52275" lon="5.6243">
        <ele>500</ele>
        <time>2022-10-19T12:19:23.587Z</time>
      </trkpt>
      <trkpt lat="43.52274" lon="5.62431">
        <ele>499</ele>
        <time>2022-10-19T12:19:24.587Z</time>
      </trkpt>
      <trkpt lat="43.52273" lon="5.62433">
        <ele>499</ele>
        <time>2022-10-19T12:19:25.587Z</time>
      </trkpt>
      <trkpt lat="43.52273" lon="5.62434">
        <ele>499</ele>
        <time>2022-10-19T12:19:26.587Z</time>
      </trkpt>
      <trkpt lat="43.52272" lon="5.62435">
        <ele>499</ele>
        <time>2022-10-19T12:19:27.587Z</time>
      </trkpt>
      <trkpt lat="43.52272" lon="5.62437">
        <ele>499</ele>
        <time>2022-10-19T12:19:28.587Z</time>
      </trkpt>
      <trkpt lat="43.52271" lon="5.62438">
        <ele>499</ele>
        <time>2022-10-19T12:19:29.587Z</time>
      </trkpt>
      <trkpt lat="43.52271" lon="5.6244">
        <ele>499</ele>
        <time>2022-10-19T12:19:30.587Z</time>
      </trkpt>
      <trkpt lat="43.5227" lon="5.62441">
        <ele>498</ele>
        <time>2022-10-19T12:19:31.587Z</time>
      </trkpt>
      <trkpt lat="43.52269" lon="5.62442">
        <ele>498</ele>
        <time>2022-10-19T12:19:32.587Z</time>
      </trkpt>
      <trkpt lat="43.52269" lon="5.62443">
        <ele>498</ele>
        <time>2022-10-19T12:19:33.587Z</time>
      </trkpt>
      <trkpt lat="43.52269" lon="5.62444">
        <ele>498</ele>
        <time>2022-10-19T12:19:34.587Z</time>
      </trkpt>
      <trkpt lat="43.52268" lon="5.62446">
        <ele>498</ele>
        <time>2022-10-19T12:19:35.587Z</time>
      </trkpt>
      <trkpt lat="43.52268" lon="5.62447">
        <ele>497</ele>
        <time>2022-10-19T12:19:36.587Z</time>
      </trkpt>
      <trkpt lat="43.52267" lon="5.62449">
        <ele>497</ele>
        <time>2022-10-19T12:19:37.587Z</time>
      </trkpt>
      <trkpt lat="43.52266" lon="5.6245">
        <ele>497</ele>
        <time>2022-10-19T12:19:38.587Z</time>
      </trkpt>
      <trkpt lat="43.52265" lon="5.62451">
        <ele>497</ele>
        <time>2022-10-19T12:19:39.587Z</time>
      </trkpt>
      <trkpt lat="43.52265" lon="5.62452">
        <ele>497</ele>
        <time>2022-10-19T12:19:40.587Z</time>
      </trkpt>
      <trkpt lat="43.52264" lon="5.62453">
        <ele>497</ele>
        <time>2022-10-19T12:19:41.587Z</time>
      </trkpt>
      <trkpt lat="43.52263" lon="5.62455">
        <ele>496</ele>
        <time>2022-10-19T12:19:42.587Z</time>
      </trkpt>
      <trkpt lat="43.52263" lon="5.62456">
        <ele>496</ele>
        <time>2022-10-19T12:19:43.587Z</time>
      </trkpt>
      <trkpt lat="43.52262" lon="5.62458">
        <ele>496</ele>
        <time>2022-10-19T12:19:44.587Z</time>
      </trkpt>
      <trkpt lat="43.52261" lon="5.62459">
        <ele>496</ele>
        <time>2022-10-19T12:19:45.587Z</time>
      </trkpt>
      <trkpt lat="43.52261" lon="5.6246">
        <ele>496</ele>
        <time>2022-10-19T12:19:46.587Z</time>
      </trkpt>
      <trkpt lat="43.5226" lon="5.62462">
        <ele>496</ele>
        <time>2022-10-19T12:19:47.587Z</time>
      </trkpt>
      <trkpt lat="43.5226" lon="5.62463">
        <ele>496</ele>
        <time>2022-10-19T12:19:48.587Z</time>
      </trkpt>
      <trkpt lat="43.52259" lon="5.62464">
        <ele>495</ele>
        <time>2022-10-19T12:19:49.587Z</time>
      </trkpt>
      <trkpt lat="43.52258" lon="5.62465">
        <ele>495</ele>
        <time>2022-10-19T12:19:50.587Z</time>
      </trkpt>
      <trkpt lat="43.52257" lon="5.62467">
        <ele>495</ele>
        <time>2022-10-19T12:19:51.587Z</time>
      </trkpt>
      <trkpt lat="43.52257" lon="5.62468">
        <ele>495</ele>
        <time>2022-10-19T12:19:52.587Z</time>
      </trkpt>
      <trkpt lat="43.52256" lon="5.6247">
        <ele>495</ele>
        <time>2022-10-19T12:19:53.587Z</time>
      </trkpt>
      <trkpt lat="43.52256" lon="5.62471">
        <ele>495</ele>
        <time>2022-10-19T12:19:54.587Z</time>
      </trkpt>
      <trkpt lat="43.52255" lon="5.62472">
        <ele>495</ele>
        <time>2022-10-19T12:19:55.587Z</time>
      </trkpt>
      <trkpt lat="43.52254" lon="5.62474">
        <ele>495</ele>
        <time>2022-10-19T12:19:56.587Z</time>
      </trkpt>
      <trkpt lat="43.52254" lon="5.62475">
        <ele>495</ele>
        <time>2022-10-19T12:19:57.587Z</time>
      </trkpt>
      <trkpt lat="43.52254" lon="5.62477">
        <ele>494</ele>
        <time>2022-10-19T12:19:58.587Z</time>
      </trkpt>
      <trkpt lat="43.52253" lon="5.62478">
        <ele>494</ele>
        <time>2022-10-19T12:19:59.587Z</time>
      </trkpt>
      <trkpt lat="43.52252" lon="5.6248">
        <ele>494</ele>
        <time>2022-10-19T12:20:00.587Z</time>
      </trkpt>
      <trkpt lat="43.52252" lon="5.62481">
        <ele>494</ele>
        <time>2022-10-19T12:20:01.587Z</time>
      </trkpt>
      <trkpt lat="43.52251" lon="5.62482">
        <ele>494</ele>
        <time>2022-10-19T12:20:02.587Z</time>
      </trkpt>
      <trkpt lat="43.52251" lon="5.62484">
        <ele>494</ele>
        <time>2022-10-19T12:20:03.587Z</time>
      </trkpt>
      <trkpt lat="43.5225" lon="5.62485">
        <ele>494</ele>
        <time>2022-10-19T12:20:04.587Z</time>
      </trkpt>
      <trkpt lat="43.5225" lon="5.62487">
        <ele>494</ele>
        <time>2022-10-19T12:20:05.587Z</time>
      </trkpt>
      <trkpt lat="43.52249" lon="5.62488">
        <ele>494</ele>
        <time>2022-10-19T12:20:06.587Z</time>
      </trkpt>
      <trkpt lat="43.52249" lon="5.62489">
        <ele>493</ele>
        <time>2022-10-19T12:20:07.587Z</time>
      </trkpt>
      <trkpt lat="43.52248" lon="5.6249">
        <ele>493</ele>
        <time>2022-10-19T12:20:08.587Z</time>
      </trkpt>
      <trkpt lat="43.52248" lon="5.6249">
        <ele>493</ele>
        <time>2022-10-19T12:20:09.587Z</time>
      </trkpt>
      <trkpt lat="43.52248" lon="5.6249">
        <ele>493</ele>
        <time>2022-10-19T12:20:10.587Z</time>
      </trkpt>
      <trkpt lat="43.52248" lon="5.6249">
        <ele>493</ele>
        <time>2022-10-19T12:20:11.587Z</time>
      </trkpt>
      <trkpt lat="43.52248" lon="5.6249">
        <ele>493</ele>
        <time>2022-10-19T12:20:12.587Z</time>
      </trkpt>
      <trkpt lat="43.52248" lon="5.6249">
        <ele>493</ele>
        <time>2022-10-19T12:20:13.587Z</time>
      </trkpt>
      <trkpt lat="43.52248" lon="5.6249">
        <ele>493</ele>
        <time>2022-10-19T12:20:14.587Z</time>
      </trkpt>
      <trkpt lat="43.52248" lon="5.6249">
        <ele>493</ele>
        <time>2022-10-19T12:20:15.587Z</time>
      </trkpt>
      <trkpt lat="43.52248" lon="5.6249">
        <ele>493</ele>
        <time>2022-10-19T12:20:16.587Z</time>
      </trkpt>
      <trkpt lat="43.52248" lon="5.6249">
        <ele>493</ele>
        <time>2022-10-19T12:20:17.587Z</time>
      </trkpt>
      <trkpt lat="43.52248" lon="5.6249">
        <ele>493</ele>
        <time>2022-10-19T12:20:18.587Z</time>
      </trkpt>
      <trkpt lat="43.52248" lon="5.6249">
        <ele>493</ele>
        <time>2022-10-19T12:20:19.587Z</time>
      </trkpt>
      <trkpt lat="43.52248" lon="5.6249">
        <ele>493</ele>
        <time>2022-10-19T12:20:20.587Z</time>
      </trkpt>
      <trkpt lat="43.52248" lon="5.6249">
        <ele>493</ele>
        <time>2022-10-19T12:20:21.587Z</time>
      </trkpt>
      <trkpt lat="43.52248" lon="5.62491">
        <ele>493</ele>
        <time>2022-10-19T12:20:22.587Z</time>
      </trkpt>
      <trkpt lat="43.52248" lon="5.62491">
        <ele>493</ele>
        <time>2022-10-19T12:20:23.587Z</time>
      </trkpt>
      <trkpt lat="43.52248" lon="5.62491">
        <ele>492</ele>
        <time>2022-10-19T12:20:24.587Z</time>
      </trkpt>
      <trkpt lat="43.52248" lon="5.62491">
        <ele>492</ele>
        <time>2022-10-19T12:20:25.587Z</time>
      </trkpt>
      <trkpt lat="43.52248" lon="5.62491">
        <ele>492</ele>
        <time>2022-10-19T12:20:26.587Z</time>
      </trkpt>
      <trkpt lat="43.52248" lon="5.6249">
        <ele>492</ele>
        <time>2022-10-19T12:20:27.587Z</time>
      </trkpt>
      <trkpt lat="43.52248" lon="5.6249">
        <ele>492</ele>
        <time>2022-10-19T12:20:28.587Z</time>
      </trkpt>
      <trkpt lat="43.52248" lon="5.6249">
        <ele>492</ele>
        <time>2022-10-19T12:20:29.587Z</time>
      </trkpt>
      <trkpt lat="43.52248" lon="5.6249">
        <ele>492</ele>
        <time>2022-10-19T12:20:30.587Z</time>
      </trkpt>
      <trkpt lat="43.52248" lon="5.6249">
        <ele>492</ele>
        <time>2022-10-19T12:20:31.587Z</time>
      </trkpt>
      <trkpt lat="43.52248" lon="5.6249">
        <ele>492</ele>
        <time>2022-10-19T12:20:32.587Z</time>
      </trkpt>
      <trkpt lat="43.52248" lon="5.6249">
        <ele>492</ele>
        <time>2022-10-19T12:20:33.587Z</time>
      </trkpt>
      <trkpt lat="43.52248" lon="5.6249">
        <ele>492</ele>
        <time>2022-10-19T12:20:34.587Z</time>
      </trkpt>
      <trkpt lat="43.52248" lon="5.6249">
        <ele>492</ele>
        <time>2022-10-19T12:20:35.587Z</time>
      </trkpt>
      <trkpt lat="43.52248" lon="5.6249">
        <ele>492</ele>
        <time>2022-10-19T12:20:36.587Z</time>
      </trkpt>
      <trkpt lat="43.52248" lon="5.6249">
        <ele>492</ele>
        <time>2022-10-19T12:20:37.587Z</time>
      </trkpt>
      <trkpt lat="43.52248" lon="5.6249">
        <ele>492</ele>
        <time>2022-10-19T12:20:38.587Z</time>
      </trkpt>
      <trkpt lat="43.52248" lon="5.6249">
        <ele>492</ele>
        <time>2022-10-19T12:20:39.587Z</time>
      </trkpt>
      <trkpt lat="43.52248" lon="5.62491">
        <ele>492</ele>
        <time>2022-10-19T12:20:40.587Z</time>
      </trkpt>
      <trkpt lat="43.52248" lon="5.62491">
        <ele>492</ele>
        <time>2022-10-19T12:20:41.587Z</time>
      </trkpt>
      <trkpt lat="43.52248" lon="5.62491">
        <ele>492</ele>
        <time>2022-10-19T12:20:42.587Z</time>
      </trkpt>
      <trkpt lat="43.52248" lon="5.62491">
        <ele>492</ele>
        <time>2022-10-19T12:20:43.587Z</time>
      </trkpt>
      <trkpt lat="43.52248" lon="5.62491">
        <ele>492</ele>
        <time>2022-10-19T12:20:44.587Z</time>
      </trkpt>
      <trkpt lat="43.52248" lon="5.62491">
        <ele>492</ele>
        <time>2022-10-19T12:20:45.587Z</time>
      </trkpt>
      <trkpt lat="43.52248" lon="5.62491">
        <ele>492</ele>
        <time>2022-10-19T12:20:46.587Z</time>
      </trkpt>
      <trkpt lat="43.52248" lon="5.62491">
        <ele>492</ele>
        <time>2022-10-19T12:20:47.587Z</time>
      </trkpt>
      <trkpt lat="43.52248" lon="5.62491">
        <ele>492</ele>
        <time>2022-10-19T12:20:48.587Z</time>
      </trkpt>
      <trkpt lat="43.52248" lon="5.62491">
        <ele>492</ele>
        <time>2022-10-19T12:20:49.587Z</time>
      </trkpt>
      <trkpt lat="43.52248" lon="5.62491">
        <ele>492</ele>
        <time>2022-10-19T12:20:50.587Z</time>
      </trkpt>
      <trkpt lat="43.52248" lon="5.62491">
        <ele>492</ele>
        <time>2022-10-19T12:20:51.587Z</time>
      </trkpt>
      <trkpt lat="43.52248" lon="5.62491">
        <ele>492</ele>
        <time>2022-10-19T12:20:52.587Z</time>
      </trkpt>
      <trkpt lat="43.52248" lon="5.62491">
        <ele>492</ele>
        <time>2022-10-19T12:20:53.587Z</time>
      </trkpt>
      <trkpt lat="43.52248" lon="5.62491">
        <ele>492</ele>
        <time>2022-10-19T12:20:54.587Z</time>
      </trkpt>
      <trkpt lat="43.52248" lon="5.62491">
        <ele>492</ele>
        <time>2022-10-19T12:20:55.587Z</time>
      </trkpt>
      <trkpt lat="43.52248" lon="5.62491">
        <ele>492</ele>
        <time>2022-10-19T12:20:56.587Z</time>
      </trkpt>
      <trkpt lat="43.52248" lon="5.62491">
        <ele>492</ele>
        <time>2022-10-19T12:20:57.587Z</time>
      </trkpt>
      <trkpt lat="43.52248" lon="5.62491">
        <ele>492</ele>
        <time>2022-10-19T12:20:58.587Z</time>
      </trkpt>
      <trkpt lat="43.52248" lon="5.62491">
        <ele>492</ele>
        <time>2022-10-19T12:20:59.587Z</time>
      </trkpt>
      <trkpt lat="43.52248" lon="5.62491">
        <ele>492</ele>
        <time>2022-10-19T12:21:00.587Z</time>
      </trkpt>
      <trkpt lat="43.52248" lon="5.62491">
        <ele>492</ele>
        <time>2022-10-19T12:21:01.587Z</time>
      </trkpt>
      <trkpt lat="43.52248" lon="5.62491">
        <ele>492</ele>
        <time>2022-10-19T12:21:02.587Z</time>
      </trkpt>
      <trkpt lat="43.52248" lon="5.6249">
        <ele>492</ele>
        <time>2022-10-19T12:21:03.587Z</time>
      </trkpt>
      <trkpt lat="43.52248" lon="5.6249">
        <ele>492</ele>
        <time>2022-10-19T12:21:04.587Z</time>
      </trkpt>
      <trkpt lat="43.52248" lon="5.6249">
        <ele>492</ele>
        <time>2022-10-19T12:21:05.587Z</time>
      </trkpt>
      <trkpt lat="43.52248" lon="5.6249">
        <ele>492</ele>
        <time>2022-10-19T12:21:06.587Z</time>
      </trkpt>
      <trkpt lat="43.52248" lon="5.6249">
        <ele>492</ele>
        <time>2022-10-19T12:21:07.587Z</time>
      </trkpt>
      <trkpt lat="43.52248" lon="5.6249">
        <ele>492</ele>
        <time>2022-10-19T12:21:08.587Z</time>
      </trkpt>
      <trkpt lat="43.52248" lon="5.6249">
        <ele>492</ele>
        <time>2022-10-19T12:21:09.587Z</time>
      </trkpt>
      <trkpt lat="43.52248" lon="5.6249">
        <ele>492</ele>
        <time>2022-10-19T12:21:10.587Z</time>
      </trkpt>
      <trkpt lat="43.52248" lon="5.6249">
        <ele>492</ele>
        <time>2022-10-19T12:21:11.587Z</time>
      </trkpt>
      <trkpt lat="43.52248" lon="5.6249">
        <ele>492</ele>
        <time>2022-10-19T12:21:12.587Z</time>
      </trkpt>
      <trkpt lat="43.52248" lon="5.6249">
        <ele>492</ele>
        <time>2022-10-19T12:21:13.587Z</time>
      </trkpt>
      <trkpt lat="43.52248" lon="5.6249">
        <ele>492</ele>
        <time>2022-10-19T12:21:14.587Z</time>
      </trkpt>
      <trkpt lat="43.52248" lon="5.6249">
        <ele>492</ele>
        <time>2022-10-19T12:21:15.587Z</time>
      </trkpt>
      <trkpt lat="43.52248" lon="5.6249">
        <ele>492</ele>
        <time>2022-10-19T12:21:16.587Z</time>
      </trkpt>
      <trkpt lat="43.52248" lon="5.6249">
        <ele>492</ele>
        <time>2022-10-19T12:21:17.587Z</time>
      </trkpt>
      <trkpt lat="43.52248" lon="5.6249">
        <ele>492</ele>
        <time>2022-10-19T12:21:18.587Z</time>
      </trkpt>
      <trkpt lat="43.52248" lon="5.6249">
        <ele>492</ele>
        <time>2022-10-19T12:21:19.587Z</time>
      </trkpt>
      <trkpt lat="43.52248" lon="5.6249">
        <ele>492</ele>
        <time>2022-10-19T12:21:20.587Z</time>
      </trkpt>
      <trkpt lat="43.52248" lon="5.6249">
        <ele>492</ele>
        <time>2022-10-19T12:21:21.587Z</time>
      </trkpt>
      <trkpt lat="43.52248" lon="5.6249">
        <ele>492</ele>
        <time>2022-10-19T12:21:22.587Z</time>
      </trkpt>
      <trkpt lat="43.52248" lon="5.62491">
        <ele>492</ele>
        <time>2022-10-19T12:21:23.587Z</time>
      </trkpt>
      <trkpt lat="43.52248" lon="5.6249">
        <ele>492</ele>
        <time>2022-10-19T12:21:24.587Z</time>
      </trkpt>
      <trkpt lat="43.52248" lon="5.62491">
        <ele>492</ele>
        <time>2022-10-19T12:21:25.587Z</time>
      </trkpt>
      <trkpt lat="43.52248" lon="5.62491">
        <ele>492</ele>
        <time>2022-10-19T12:21:26.587Z</time>
      </trkpt>
      <trkpt lat="43.52249" lon="5.62492">
        <ele>492</ele>
        <time>2022-10-19T12:21:27.587Z</time>
      </trkpt>
      <trkpt lat="43.52249" lon="5.62493">
        <ele>492</ele>
        <time>2022-10-19T12:21:28.587Z</time>
      </trkpt>
      <trkpt lat="43.52249" lon="5.62494">
        <ele>492</ele>
        <time>2022-10-19T12:21:29.587Z</time>
      </trkpt>
      <trkpt lat="43.5225" lon="5.62495">
        <ele>492</ele>
        <time>2022-10-19T12:21:30.587Z</time>
      </trkpt>
      <trkpt lat="43.52251" lon="5.62495">
        <ele>492</ele>
        <time>2022-10-19T12:21:31.587Z</time>
      </trkpt>
      <trkpt lat="43.52251" lon="5.62496">
        <ele>492</ele>
        <time>2022-10-19T12:21:32.587Z</time>
      </trkpt>
      <trkpt lat="43.52252" lon="5.62497">
        <ele>492</ele>
        <time>2022-10-19T12:21:33.587Z</time>
      </trkpt>
      <trkpt lat="43.52253" lon="5.62498">
        <ele>492</ele>
        <time>2022-10-19T12:21:34.587Z</time>
      </trkpt>
      <trkpt lat="43.52253" lon="5.625">
        <ele>491</ele>
        <time>2022-10-19T12:21:35.587Z</time>
      </trkpt>
      <trkpt lat="43.52254" lon="5.62501">
        <ele>491</ele>
        <time>2022-10-19T12:21:36.587Z</time>
      </trkpt>
      <trkpt lat="43.52255" lon="5.62502">
        <ele>491</ele>
        <time>2022-10-19T12:21:37.587Z</time>
      </trkpt>
      <trkpt lat="43.52255" lon="5.62504">
        <ele>491</ele>
        <time>2022-10-19T12:21:38.587Z</time>
      </trkpt>
      <trkpt lat="43.52256" lon="5.62505">
        <ele>491</ele>
        <time>2022-10-19T12:21:39.587Z</time>
      </trkpt>
      <trkpt lat="43.52256" lon="5.62507">
        <ele>491</ele>
        <time>2022-10-19T12:21:40.587Z</time>
      </trkpt>
      <trkpt lat="43.52256" lon="5.62508">
        <ele>491</ele>
        <time>2022-10-19T12:21:41.587Z</time>
      </trkpt>
      <trkpt lat="43.52257" lon="5.6251">
        <ele>491</ele>
        <time>2022-10-19T12:21:42.587Z</time>
      </trkpt>
      <trkpt lat="43.52258" lon="5.62511">
        <ele>491</ele>
        <time>2022-10-19T12:21:43.587Z</time>
      </trkpt>
      <trkpt lat="43.52258" lon="5.62512">
        <ele>490</ele>
        <time>2022-10-19T12:21:44.587Z</time>
      </trkpt>
      <trkpt lat="43.52259" lon="5.62514">
        <ele>490</ele>
        <time>2022-10-19T12:21:45.587Z</time>
      </trkpt>
      <trkpt lat="43.5226" lon="5.62515">
        <ele>490</ele>
        <time>2022-10-19T12:21:46.587Z</time>
      </trkpt>
      <trkpt lat="43.5226" lon="5.62516">
        <ele>490</ele>
        <time>2022-10-19T12:21:47.587Z</time>
      </trkpt>
      <trkpt lat="43.52261" lon="5.62518">
        <ele>490</ele>
        <time>2022-10-19T12:21:48.587Z</time>
      </trkpt>
      <trkpt lat="43.52262" lon="5.62519">
        <ele>490</ele>
        <time>2022-10-19T12:21:49.587Z</time>
      </trkpt>
      <trkpt lat="43.52263" lon="5.62521">
        <ele>490</ele>
        <time>2022-10-19T12:21:50.587Z</time>
      </trkpt>
      <trkpt lat="43.52263" lon="5.62522">
        <ele>490</ele>
        <time>2022-10-19T12:21:51.587Z</time>
      </trkpt>
      <trkpt lat="43.52264" lon="5.62523">
        <ele>490</ele>
        <time>2022-10-19T12:21:52.587Z</time>
      </trkpt>
      <trkpt lat="43.52265" lon="5.62525">
        <ele>490</ele>
        <time>2022-10-19T12:21:53.587Z</time>
      </trkpt>
      <trkpt lat="43.52265" lon="5.62526">
        <ele>490</ele>
        <time>2022-10-19T12:21:54.587Z</time>
      </trkpt>
      <trkpt lat="43.52266" lon="5.62527">
        <ele>490</ele>
        <time>2022-10-19T12:21:55.587Z</time>
      </trkpt>
      <trkpt lat="43.52267" lon="5.62528">
        <ele>490</ele>
        <time>2022-10-19T12:21:56.587Z</time>
      </trkpt>
      <trkpt lat="43.52268" lon="5.6253">
        <ele>490</ele>
        <time>2022-10-19T12:21:57.587Z</time>
      </trkpt>
      <trkpt lat="43.52269" lon="5.62531">
        <ele>490</ele>
        <time>2022-10-19T12:21:58.587Z</time>
      </trkpt>
      <trkpt lat="43.52269" lon="5.62532">
        <ele>490</ele>
        <time>2022-10-19T12:21:59.587Z</time>
      </trkpt>
      <trkpt lat="43.5227" lon="5.62534">
        <ele>490</ele>
        <time>2022-10-19T12:22:00.587Z</time>
      </trkpt>
      <trkpt lat="43.52271" lon="5.62534">
        <ele>490</ele>
        <time>2022-10-19T12:22:01.587Z</time>
      </trkpt>
      <trkpt lat="43.52272" lon="5.62536">
        <ele>490</ele>
        <time>2022-10-19T12:22:02.587Z</time>
      </trkpt>
      <trkpt lat="43.52273" lon="5.62537">
        <ele>490</ele>
        <time>2022-10-19T12:22:03.587Z</time>
      </trkpt>
      <trkpt lat="43.52274" lon="5.62538">
        <ele>489</ele>
        <time>2022-10-19T12:22:04.587Z</time>
      </trkpt>
      <trkpt lat="43.52275" lon="5.62539">
        <ele>489</ele>
        <time>2022-10-19T12:22:05.587Z</time>
      </trkpt>
      <trkpt lat="43.52275" lon="5.62541">
        <ele>489</ele>
        <time>2022-10-19T12:22:06.587Z</time>
      </trkpt>
      <trkpt lat="43.52276" lon="5.62542">
        <ele>489</ele>
        <time>2022-10-19T12:22:07.587Z</time>
      </trkpt>
      <trkpt lat="43.52277" lon="5.62544">
        <ele>489</ele>
        <time>2022-10-19T12:22:08.587Z</time>
      </trkpt>
      <trkpt lat="43.52278" lon="5.62545">
        <ele>489</ele>
        <time>2022-10-19T12:22:09.587Z</time>
      </trkpt>
      <trkpt lat="43.52278" lon="5.62546">
        <ele>489</ele>
        <time>2022-10-19T12:22:10.587Z</time>
      </trkpt>
      <trkpt lat="43.52279" lon="5.62548">
        <ele>489</ele>
        <time>2022-10-19T12:22:11.587Z</time>
      </trkpt>
      <trkpt lat="43.5228" lon="5.62549">
        <ele>489</ele>
        <time>2022-10-19T12:22:12.587Z</time>
      </trkpt>
      <trkpt lat="43.52281" lon="5.6255">
        <ele>489</ele>
        <time>2022-10-19T12:22:13.587Z</time>
      </trkpt>
      <trkpt lat="43.52282" lon="5.62552">
        <ele>488</ele>
        <time>2022-10-19T12:22:14.587Z</time>
      </trkpt>
      <trkpt lat="43.52282" lon="5.62553">
        <ele>488</ele>
        <time>2022-10-19T12:22:15.587Z</time>
      </trkpt>
      <trkpt lat="43.52283" lon="5.62555">
        <ele>488</ele>
        <time>2022-10-19T12:22:16.587Z</time>
      </trkpt>
      <trkpt lat="43.52284" lon="5.62556">
        <ele>488</ele>
        <time>2022-10-19T12:22:17.587Z</time>
      </trkpt>
      <trkpt lat="43.52284" lon="5.62558">
        <ele>488</ele>
        <time>2022-10-19T12:22:18.587Z</time>
      </trkpt>
      <trkpt lat="43.52285" lon="5.62559">
        <ele>487</ele>
        <time>2022-10-19T12:22:19.587Z</time>
      </trkpt>
      <trkpt lat="43.52286" lon="5.6256">
        <ele>487</ele>
        <time>2022-10-19T12:22:20.587Z</time>
      </trkpt>
      <trkpt lat="43.52287" lon="5.62562">
        <ele>487</ele>
        <time>2022-10-19T12:22:21.587Z</time>
      </trkpt>
      <trkpt lat="43.52287" lon="5.62563">
        <ele>487</ele>
        <time>2022-10-19T12:22:22.587Z</time>
      </trkpt>
      <trkpt lat="43.52287" lon="5.62565">
        <ele>487</ele>
        <time>2022-10-19T12:22:23.587Z</time>
      </trkpt>
      <trkpt lat="43.52288" lon="5.62566">
        <ele>487</ele>
        <time>2022-10-19T12:22:24.587Z</time>
      </trkpt>
      <trkpt lat="43.52288" lon="5.62568">
        <ele>487</ele>
        <time>2022-10-19T12:22:25.587Z</time>
      </trkpt>
      <trkpt lat="43.52289" lon="5.62569">
        <ele>486</ele>
        <time>2022-10-19T12:22:26.587Z</time>
      </trkpt>
      <trkpt lat="43.52289" lon="5.62571">
        <ele>486</ele>
        <time>2022-10-19T12:22:27.587Z</time>
      </trkpt>
      <trkpt lat="43.5229" lon="5.62572">
        <ele>486</ele>
        <time>2022-10-19T12:22:28.587Z</time>
      </trkpt>
      <trkpt lat="43.5229" lon="5.62574">
        <ele>486</ele>
        <time>2022-10-19T12:22:29.587Z</time>
      </trkpt>
      <trkpt lat="43.5229" lon="5.62575">
        <ele>486</ele>
        <time>2022-10-19T12:22:30.587Z</time>
      </trkpt>
      <trkpt lat="43.52291" lon="5.62577">
        <ele>486</ele>
        <time>2022-10-19T12:22:31.587Z</time>
      </trkpt>
      <trkpt lat="43.52292" lon="5.62578">
        <ele>485</ele>
        <time>2022-10-19T12:22:32.587Z</time>
      </trkpt>
      <trkpt lat="43.52293" lon="5.62579">
        <ele>485</ele>
        <time>2022-10-19T12:22:33.587Z</time>
      </trkpt>
      <trkpt lat="43.52294" lon="5.6258">
        <ele>485</ele>
        <time>2022-10-19T12:22:34.587Z</time>
      </trkpt>
      <trkpt lat="43.52294" lon="5.62581">
        <ele>485</ele>
        <time>2022-10-19T12:22:35.587Z</time>
      </trkpt>
      <trkpt lat="43.52295" lon="5.62582">
        <ele>484</ele>
        <time>2022-10-19T12:22:36.587Z</time>
      </trkpt>
      <trkpt lat="43.52296" lon="5.62584">
        <ele>484</ele>
        <time>2022-10-19T12:22:37.587Z</time>
      </trkpt>
      <trkpt lat="43.52297" lon="5.62585">
        <ele>484</ele>
        <time>2022-10-19T12:22:38.587Z</time>
      </trkpt>
      <trkpt lat="43.52298" lon="5.62586">
        <ele>484</ele>
        <time>2022-10-19T12:22:39.587Z</time>
      </trkpt>
      <trkpt lat="43.52298" lon="5.62588">
        <ele>484</ele>
        <time>2022-10-19T12:22:40.587Z</time>
      </trkpt>
      <trkpt lat="43.52299" lon="5.62589">
        <ele>484</ele>
        <time>2022-10-19T12:22:41.587Z</time>
      </trkpt>
      <trkpt lat="43.523" lon="5.62591">
        <ele>483</ele>
        <time>2022-10-19T12:22:42.587Z</time>
      </trkpt>
      <trkpt lat="43.523" lon="5.62593">
        <ele>483</ele>
        <time>2022-10-19T12:22:43.587Z</time>
      </trkpt>
      <trkpt lat="43.523" lon="5.62594">
        <ele>483</ele>
        <time>2022-10-19T12:22:44.587Z</time>
      </trkpt>
      <trkpt lat="43.52301" lon="5.62596">
        <ele>483</ele>
        <time>2022-10-19T12:22:45.587Z</time>
      </trkpt>
      <trkpt lat="43.52301" lon="5.62598">
        <ele>483</ele>
        <time>2022-10-19T12:22:46.587Z</time>
      </trkpt>
      <trkpt lat="43.52302" lon="5.62599">
        <ele>482</ele>
        <time>2022-10-19T12:22:47.587Z</time>
      </trkpt>
      <trkpt lat="43.52302" lon="5.62601">
        <ele>482</ele>
        <time>2022-10-19T12:22:48.587Z</time>
      </trkpt>
      <trkpt lat="43.52303" lon="5.62602">
        <ele>482</ele>
        <time>2022-10-19T12:22:49.587Z</time>
      </trkpt>
      <trkpt lat="43.52303" lon="5.62604">
        <ele>482</ele>
        <time>2022-10-19T12:22:50.587Z</time>
      </trkpt>
      <trkpt lat="43.52304" lon="5.62605">
        <ele>482</ele>
        <time>2022-10-19T12:22:51.587Z</time>
      </trkpt>
      <trkpt lat="43.52304" lon="5.62607">
        <ele>482</ele>
        <time>2022-10-19T12:22:52.587Z</time>
      </trkpt>
      <trkpt lat="43.52305" lon="5.62608">
        <ele>482</ele>
        <time>2022-10-19T12:22:53.587Z</time>
      </trkpt>
      <trkpt lat="43.52305" lon="5.6261">
        <ele>481</ele>
        <time>2022-10-19T12:22:54.587Z</time>
      </trkpt>
      <trkpt lat="43.52306" lon="5.62612">
        <ele>481</ele>
        <time>2022-10-19T12:22:55.587Z</time>
      </trkpt>
      <trkpt lat="43.52306" lon="5.62613">
        <ele>481</ele>
        <time>2022-10-19T12:22:56.587Z</time>
      </trkpt>
      <trkpt lat="43.52307" lon="5.62615">
        <ele>481</ele>
        <time>2022-10-19T12:22:57.587Z</time>
      </trkpt>
      <trkpt lat="43.52307" lon="5.62616">
        <ele>481</ele>
        <time>2022-10-19T12:22:58.587Z</time>
      </trkpt>
      <trkpt lat="43.52308" lon="5.62618">
        <ele>481</ele>
        <time>2022-10-19T12:22:59.587Z</time>
      </trkpt>
      <trkpt lat="43.52308" lon="5.62619">
        <ele>480</ele>
        <time>2022-10-19T12:23:00.587Z</time>
      </trkpt>
      <trkpt lat="43.52309" lon="5.62621">
        <ele>480</ele>
        <time>2022-10-19T12:23:01.587Z</time>
      </trkpt>
      <trkpt lat="43.52309" lon="5.62622">
        <ele>480</ele>
        <time>2022-10-19T12:23:02.587Z</time>
      </trkpt>
      <trkpt lat="43.5231" lon="5.62624">
        <ele>480</ele>
        <time>2022-10-19T12:23:03.587Z</time>
      </trkpt>
      <trkpt lat="43.5231" lon="5.62625">
        <ele>480</ele>
        <time>2022-10-19T12:23:04.587Z</time>
      </trkpt>
      <trkpt lat="43.52311" lon="5.62627">
        <ele>480</ele>
        <time>2022-10-19T12:23:05.587Z</time>
      </trkpt>
      <trkpt lat="43.52311" lon="5.62629">
        <ele>480</ele>
        <time>2022-10-19T12:23:06.587Z</time>
      </trkpt>
      <trkpt lat="43.52312" lon="5.6263">
        <ele>480</ele>
        <time>2022-10-19T12:23:07.587Z</time>
      </trkpt>
      <trkpt lat="43.52312" lon="5.62632">
        <ele>479</ele>
        <time>2022-10-19T12:23:08.587Z</time>
      </trkpt>
      <trkpt lat="43.52313" lon="5.62633">
        <ele>479</ele>
        <time>2022-10-19T12:23:09.587Z</time>
      </trkpt>
      <trkpt lat="43.52313" lon="5.62635">
        <ele>479</ele>
        <time>2022-10-19T12:23:10.587Z</time>
      </trkpt>
      <trkpt lat="43.52314" lon="5.62637">
        <ele>479</ele>
        <time>2022-10-19T12:23:11.587Z</time>
      </trkpt>
      <trkpt lat="43.52314" lon="5.62639">
        <ele>479</ele>
        <time>2022-10-19T12:23:12.587Z</time>
      </trkpt>
      <trkpt lat="43.52315" lon="5.6264">
        <ele>479</ele>
        <time>2022-10-19T12:23:13.587Z</time>
      </trkpt>
      <trkpt lat="43.52315" lon="5.62642">
        <ele>479</ele>
        <time>2022-10-19T12:23:14.587Z</time>
      </trkpt>
      <trkpt lat="43.52316" lon="5.62643">
        <ele>479</ele>
        <time>2022-10-19T12:23:15.587Z</time>
      </trkpt>
      <trkpt lat="43.52317" lon="5.62645">
        <ele>479</ele>
        <time>2022-10-19T12:23:16.587Z</time>
      </trkpt>
      <trkpt lat="43.52318" lon="5.62646">
        <ele>479</ele>
        <time>2022-10-19T12:23:17.587Z</time>
      </trkpt>
      <trkpt lat="43.52318" lon="5.62648">
        <ele>478</ele>
        <time>2022-10-19T12:23:18.587Z</time>
      </trkpt>
      <trkpt lat="43.52318" lon="5.62649">
        <ele>478</ele>
        <time>2022-10-19T12:23:19.587Z</time>
      </trkpt>
      <trkpt lat="43.52319" lon="5.62651">
        <ele>478</ele>
        <time>2022-10-19T12:23:20.587Z</time>
      </trkpt>
      <trkpt lat="43.52319" lon="5.62653">
        <ele>478</ele>
        <time>2022-10-19T12:23:21.587Z</time>
      </trkpt>
      <trkpt lat="43.5232" lon="5.62654">
        <ele>478</ele>
        <time>2022-10-19T12:23:22.587Z</time>
      </trkpt>
      <trkpt lat="43.5232" lon="5.62656">
        <ele>478</ele>
        <time>2022-10-19T12:23:23.587Z</time>
      </trkpt>
      <trkpt lat="43.5232" lon="5.62658">
        <ele>477</ele>
        <time>2022-10-19T12:23:24.587Z</time>
      </trkpt>
      <trkpt lat="43.52321" lon="5.6266">
        <ele>477</ele>
        <time>2022-10-19T12:23:25.587Z</time>
      </trkpt>
      <trkpt lat="43.52321" lon="5.62661">
        <ele>477</ele>
        <time>2022-10-19T12:23:26.587Z</time>
      </trkpt>
      <trkpt lat="43.52322" lon="5.62663">
        <ele>477</ele>
        <time>2022-10-19T12:23:27.587Z</time>
      </trkpt>
      <trkpt lat="43.52322" lon="5.62665">
        <ele>477</ele>
        <time>2022-10-19T12:23:28.587Z</time>
      </trkpt>
      <trkpt lat="43.52323" lon="5.62666">
        <ele>477</ele>
        <time>2022-10-19T12:23:29.587Z</time>
      </trkpt>
      <trkpt lat="43.52323" lon="5.62668">
        <ele>477</ele>
        <time>2022-10-19T12:23:30.587Z</time>
      </trkpt>
      <trkpt lat="43.52323" lon="5.6267">
        <ele>477</ele>
        <time>2022-10-19T12:23:31.587Z</time>
      </trkpt>
      <trkpt lat="43.52324" lon="5.62672">
        <ele>476</ele>
        <time>2022-10-19T12:23:32.587Z</time>
      </trkpt>
      <trkpt lat="43.52324" lon="5.62673">
        <ele>476</ele>
        <time>2022-10-19T12:23:33.587Z</time>
      </trkpt>
      <trkpt lat="43.52325" lon="5.62675">
        <ele>476</ele>
        <time>2022-10-19T12:23:34.587Z</time>
      </trkpt>
      <trkpt lat="43.52325" lon="5.62677">
        <ele>476</ele>
        <time>2022-10-19T12:23:35.587Z</time>
      </trkpt>
      <trkpt lat="43.52325" lon="5.62679">
        <ele>476</ele>
        <time>2022-10-19T12:23:36.587Z</time>
      </trkpt>
      <trkpt lat="43.52326" lon="5.62681">
        <ele>476</ele>
        <time>2022-10-19T12:23:37.587Z</time>
      </trkpt>
      <trkpt lat="43.52326" lon="5.62683">
        <ele>475</ele>
        <time>2022-10-19T12:23:38.587Z</time>
      </trkpt>
      <trkpt lat="43.52326" lon="5.62684">
        <ele>475</ele>
        <time>2022-10-19T12:23:39.587Z</time>
      </trkpt>
      <trkpt lat="43.52327" lon="5.62686">
        <ele>475</ele>
        <time>2022-10-19T12:23:40.587Z</time>
      </trkpt>
      <trkpt lat="43.52327" lon="5.62687">
        <ele>475</ele>
        <time>2022-10-19T12:23:41.587Z</time>
      </trkpt>
      <trkpt lat="43.52328" lon="5.62689">
        <ele>475</ele>
        <time>2022-10-19T12:23:42.587Z</time>
      </trkpt>
      <trkpt lat="43.52328" lon="5.6269">
        <ele>475</ele>
        <time>2022-10-19T12:23:43.587Z</time>
      </trkpt>
      <trkpt lat="43.52329" lon="5.62692">
        <ele>474</ele>
        <time>2022-10-19T12:23:44.587Z</time>
      </trkpt>
      <trkpt lat="43.52329" lon="5.62694">
        <ele>474</ele>
        <time>2022-10-19T12:23:45.587Z</time>
      </trkpt>
      <trkpt lat="43.5233" lon="5.62696">
        <ele>474</ele>
        <time>2022-10-19T12:23:46.587Z</time>
      </trkpt>
      <trkpt lat="43.5233" lon="5.62697">
        <ele>474</ele>
        <time>2022-10-19T12:23:47.587Z</time>
      </trkpt>
      <trkpt lat="43.52331" lon="5.62699">
        <ele>474</ele>
        <time>2022-10-19T12:23:48.587Z</time>
      </trkpt>
      <trkpt lat="43.52331" lon="5.627">
        <ele>474</ele>
        <time>2022-10-19T12:23:49.587Z</time>
      </trkpt>
      <trkpt lat="43.52332" lon="5.62702">
        <ele>474</ele>
        <time>2022-10-19T12:23:50.587Z</time>
      </trkpt>
      <trkpt lat="43.52332" lon="5.62704">
        <ele>474</ele>
        <time>2022-10-19T12:23:51.587Z</time>
      </trkpt>
      <trkpt lat="43.52332" lon="5.62706">
        <ele>474</ele>
        <time>2022-10-19T12:23:52.587Z</time>
      </trkpt>
      <trkpt lat="43.52333" lon="5.62707">
        <ele>473</ele>
        <time>2022-10-19T12:23:53.587Z</time>
      </trkpt>
      <trkpt lat="43.52333" lon="5.62709">
        <ele>473</ele>
        <time>2022-10-19T12:23:54.587Z</time>
      </trkpt>
      <trkpt lat="43.52334" lon="5.62711">
        <ele>473</ele>
        <time>2022-10-19T12:23:55.587Z</time>
      </trkpt>
      <trkpt lat="43.52334" lon="5.62713">
        <ele>473</ele>
        <time>2022-10-19T12:23:56.587Z</time>
      </trkpt>
      <trkpt lat="43.52334" lon="5.62715">
        <ele>473</ele>
        <time>2022-10-19T12:23:57.587Z</time>
      </trkpt>
      <trkpt lat="43.52334" lon="5.62716">
        <ele>472</ele>
        <time>2022-10-19T12:23:58.587Z</time>
      </trkpt>
      <trkpt lat="43.52334" lon="5.62718">
        <ele>472</ele>
        <time>2022-10-19T12:23:59.587Z</time>
      </trkpt>
      <trkpt lat="43.52333" lon="5.6272">
        <ele>472</ele>
        <time>2022-10-19T12:24:00.587Z</time>
      </trkpt>
      <trkpt lat="43.52333" lon="5.62722">
        <ele>472</ele>
        <time>2022-10-19T12:24:01.587Z</time>
      </trkpt>
      <trkpt lat="43.52333" lon="5.62723">
        <ele>472</ele>
        <time>2022-10-19T12:24:02.587Z</time>
      </trkpt>
      <trkpt lat="43.52333" lon="5.62725">
        <ele>472</ele>
        <time>2022-10-19T12:24:03.587Z</time>
      </trkpt>
      <trkpt lat="43.52333" lon="5.62727">
        <ele>472</ele>
        <time>2022-10-19T12:24:04.587Z</time>
      </trkpt>
      <trkpt lat="43.52333" lon="5.62729">
        <ele>472</ele>
        <time>2022-10-19T12:24:05.587Z</time>
      </trkpt>
      <trkpt lat="43.52332" lon="5.62731">
        <ele>472</ele>
        <time>2022-10-19T12:24:06.587Z</time>
      </trkpt>
      <trkpt lat="43.52332" lon="5.62733">
        <ele>472</ele>
        <time>2022-10-19T12:24:07.587Z</time>
      </trkpt>
      <trkpt lat="43.52331" lon="5.62734">
        <ele>472</ele>
        <time>2022-10-19T12:24:08.587Z</time>
      </trkpt>
      <trkpt lat="43.52331" lon="5.62736">
        <ele>472</ele>
        <time>2022-10-19T12:24:09.587Z</time>
      </trkpt>
      <trkpt lat="43.52331" lon="5.62737">
        <ele>472</ele>
        <time>2022-10-19T12:24:10.587Z</time>
      </trkpt>
      <trkpt lat="43.52331" lon="5.62739">
        <ele>471</ele>
        <time>2022-10-19T12:24:11.587Z</time>
      </trkpt>
      <trkpt lat="43.52331" lon="5.62741">
        <ele>471</ele>
        <time>2022-10-19T12:24:12.587Z</time>
      </trkpt>
      <trkpt lat="43.52331" lon="5.62742">
        <ele>471</ele>
        <time>2022-10-19T12:24:13.587Z</time>
      </trkpt>
      <trkpt lat="43.52331" lon="5.62744">
        <ele>471</ele>
        <time>2022-10-19T12:24:14.587Z</time>
      </trkpt>
      <trkpt lat="43.52331" lon="5.62745">
        <ele>471</ele>
        <time>2022-10-19T12:24:15.587Z</time>
      </trkpt>
      <trkpt lat="43.52331" lon="5.62747">
        <ele>471</ele>
        <time>2022-10-19T12:24:16.587Z</time>
      </trkpt>
      <trkpt lat="43.52332" lon="5.62749">
        <ele>470</ele>
        <time>2022-10-19T12:24:17.587Z</time>
      </trkpt>
      <trkpt lat="43.52332" lon="5.62751">
        <ele>470</ele>
        <time>2022-10-19T12:24:18.587Z</time>
      </trkpt>
      <trkpt lat="43.52332" lon="5.62753">
        <ele>470</ele>
        <time>2022-10-19T12:24:19.587Z</time>
      </trkpt>
      <trkpt lat="43.52332" lon="5.62755">
        <ele>470</ele>
        <time>2022-10-19T12:24:20.587Z</time>
      </trkpt>
      <trkpt lat="43.52333" lon="5.62757">
        <ele>470</ele>
        <time>2022-10-19T12:24:21.587Z</time>
      </trkpt>
      <trkpt lat="43.52333" lon="5.62758">
        <ele>470</ele>
        <time>2022-10-19T12:24:22.587Z</time>
      </trkpt>
      <trkpt lat="43.52333" lon="5.6276">
        <ele>470</ele>
        <time>2022-10-19T12:24:23.587Z</time>
      </trkpt>
      <trkpt lat="43.52333" lon="5.62762">
        <ele>469</ele>
        <time>2022-10-19T12:24:24.587Z</time>
      </trkpt>
      <trkpt lat="43.52333" lon="5.62764">
        <ele>469</ele>
        <time>2022-10-19T12:24:25.587Z</time>
      </trkpt>
      <trkpt lat="43.52333" lon="5.62766">
        <ele>469</ele>
        <time>2022-10-19T12:24:26.587Z</time>
      </trkpt>
      <trkpt lat="43.52333" lon="5.62768">
        <ele>469</ele>
        <time>2022-10-19T12:24:27.587Z</time>
      </trkpt>
      <trkpt lat="43.52333" lon="5.62769">
        <ele>469</ele>
        <time>2022-10-19T12:24:28.587Z</time>
      </trkpt>
      <trkpt lat="43.52333" lon="5.62771">
        <ele>469</ele>
        <time>2022-10-19T12:24:29.587Z</time>
      </trkpt>
      <trkpt lat="43.52334" lon="5.62773">
        <ele>469</ele>
        <time>2022-10-19T12:24:30.587Z</time>
      </trkpt>
      <trkpt lat="43.52334" lon="5.62775">
        <ele>468</ele>
        <time>2022-10-19T12:24:31.587Z</time>
      </trkpt>
      <trkpt lat="43.52334" lon="5.62777">
        <ele>468</ele>
        <time>2022-10-19T12:24:32.587Z</time>
      </trkpt>
      <trkpt lat="43.52334" lon="5.62778">
        <ele>468</ele>
        <time>2022-10-19T12:24:33.587Z</time>
      </trkpt>
      <trkpt lat="43.52334" lon="5.6278">
        <ele>468</ele>
        <time>2022-10-19T12:24:34.587Z</time>
      </trkpt>
      <trkpt lat="43.52335" lon="5.62781">
        <ele>468</ele>
        <time>2022-10-19T12:24:35.587Z</time>
      </trkpt>
      <trkpt lat="43.52335" lon="5.62783">
        <ele>468</ele>
        <time>2022-10-19T12:24:36.587Z</time>
      </trkpt>
      <trkpt lat="43.52335" lon="5.62785">
        <ele>468</ele>
        <time>2022-10-19T12:24:37.587Z</time>
      </trkpt>
      <trkpt lat="43.52335" lon="5.62787">
        <ele>468</ele>
        <time>2022-10-19T12:24:38.587Z</time>
      </trkpt>
      <trkpt lat="43.52335" lon="5.62789">
        <ele>467</ele>
        <time>2022-10-19T12:24:39.587Z</time>
      </trkpt>
      <trkpt lat="43.52335" lon="5.6279">
        <ele>467</ele>
        <time>2022-10-19T12:24:40.587Z</time>
      </trkpt>
      <trkpt lat="43.52336" lon="5.62792">
        <ele>467</ele>
        <time>2022-10-19T12:24:41.587Z</time>
      </trkpt>
      <trkpt lat="43.52336" lon="5.62794">
        <ele>467</ele>
        <time>2022-10-19T12:24:42.587Z</time>
      </trkpt>
      <trkpt lat="43.52336" lon="5.62795">
        <ele>467</ele>
        <time>2022-10-19T12:24:43.587Z</time>
      </trkpt>
      <trkpt lat="43.52336" lon="5.62797">
        <ele>466</ele>
        <time>2022-10-19T12:24:44.587Z</time>
      </trkpt>
      <trkpt lat="43.52336" lon="5.62799">
        <ele>466</ele>
        <time>2022-10-19T12:24:45.587Z</time>
      </trkpt>
      <trkpt lat="43.52336" lon="5.628">
        <ele>466</ele>
        <time>2022-10-19T12:24:46.587Z</time>
      </trkpt>
      <trkpt lat="43.52336" lon="5.62802">
        <ele>466</ele>
        <time>2022-10-19T12:24:47.587Z</time>
      </trkpt>
      <trkpt lat="43.52337" lon="5.62803">
        <ele>466</ele>
        <time>2022-10-19T12:24:48.587Z</time>
      </trkpt>
      <trkpt lat="43.52337" lon="5.62805">
        <ele>465</ele>
        <time>2022-10-19T12:24:49.587Z</time>
      </trkpt>
      <trkpt lat="43.52337" lon="5.62807">
        <ele>465</ele>
        <time>2022-10-19T12:24:50.587Z</time>
      </trkpt>
      <trkpt lat="43.52338" lon="5.62809">
        <ele>465</ele>
        <time>2022-10-19T12:24:51.587Z</time>
      </trkpt>
      <trkpt lat="43.52338" lon="5.6281">
        <ele>465</ele>
        <time>2022-10-19T12:24:52.587Z</time>
      </trkpt>
      <trkpt lat="43.52339" lon="5.62812">
        <ele>465</ele>
        <time>2022-10-19T12:24:53.587Z</time>
      </trkpt>
      <trkpt lat="43.52339" lon="5.62813">
        <ele>464</ele>
        <time>2022-10-19T12:24:54.587Z</time>
      </trkpt>
      <trkpt lat="43.5234" lon="5.62815">
        <ele>464</ele>
        <time>2022-10-19T12:24:55.587Z</time>
      </trkpt>
      <trkpt lat="43.52341" lon="5.62816">
        <ele>464</ele>
        <time>2022-10-19T12:24:56.587Z</time>
      </trkpt>
      <trkpt lat="43.52342" lon="5.62817">
        <ele>464</ele>
        <time>2022-10-19T12:24:57.587Z</time>
      </trkpt>
      <trkpt lat="43.52342" lon="5.62819">
        <ele>464</ele>
        <time>2022-10-19T12:24:58.587Z</time>
      </trkpt>
      <trkpt lat="43.52343" lon="5.6282">
        <ele>464</ele>
        <time>2022-10-19T12:24:59.587Z</time>
      </trkpt>
      <trkpt lat="43.52344" lon="5.62821">
        <ele>464</ele>
        <time>2022-10-19T12:25:00.587Z</time>
      </trkpt>
      <trkpt lat="43.52345" lon="5.62822">
        <ele>464</ele>
        <time>2022-10-19T12:25:01.587Z</time>
      </trkpt>
      <trkpt lat="43.52346" lon="5.62823">
        <ele>464</ele>
        <time>2022-10-19T12:25:02.587Z</time>
      </trkpt>
      <trkpt lat="43.52347" lon="5.62824">
        <ele>464</ele>
        <time>2022-10-19T12:25:03.587Z</time>
      </trkpt>
      <trkpt lat="43.52348" lon="5.62825">
        <ele>464</ele>
        <time>2022-10-19T12:25:04.587Z</time>
      </trkpt>
      <trkpt lat="43.52349" lon="5.62826">
        <ele>464</ele>
        <time>2022-10-19T12:25:05.587Z</time>
      </trkpt>
      <trkpt lat="43.5235" lon="5.62826">
        <ele>464</ele>
        <time>2022-10-19T12:25:06.587Z</time>
      </trkpt>
      <trkpt lat="43.52351" lon="5.62827">
        <ele>464</ele>
        <time>2022-10-19T12:25:07.587Z</time>
      </trkpt>
      <trkpt lat="43.52353" lon="5.62827">
        <ele>464</ele>
        <time>2022-10-19T12:25:08.587Z</time>
      </trkpt>
      <trkpt lat="43.52354" lon="5.62828">
        <ele>464</ele>
        <time>2022-10-19T12:25:09.587Z</time>
      </trkpt>
      <trkpt lat="43.52355" lon="5.62828">
        <ele>464</ele>
        <time>2022-10-19T12:25:10.587Z</time>
      </trkpt>
      <trkpt lat="43.52356" lon="5.62829">
        <ele>464</ele>
        <time>2022-10-19T12:25:11.587Z</time>
      </trkpt>
      <trkpt lat="43.52357" lon="5.62829">
        <ele>464</ele>
        <time>2022-10-19T12:25:12.587Z</time>
      </trkpt>
      <trkpt lat="43.52359" lon="5.6283">
        <ele>463</ele>
        <time>2022-10-19T12:25:13.587Z</time>
      </trkpt>
      <trkpt lat="43.5236" lon="5.6283">
        <ele>463</ele>
        <time>2022-10-19T12:25:14.587Z</time>
      </trkpt>
      <trkpt lat="43.52361" lon="5.62831">
        <ele>463</ele>
        <time>2022-10-19T12:25:15.587Z</time>
      </trkpt>
      <trkpt lat="43.52363" lon="5.62831">
        <ele>463</ele>
        <time>2022-10-19T12:25:16.587Z</time>
      </trkpt>
      <trkpt lat="43.52364" lon="5.62832">
        <ele>463</ele>
        <time>2022-10-19T12:25:17.587Z</time>
      </trkpt>
      <trkpt lat="43.52365" lon="5.62832">
        <ele>463</ele>
        <time>2022-10-19T12:25:18.587Z</time>
      </trkpt>
      <trkpt lat="43.52366" lon="5.62833">
        <ele>463</ele>
        <time>2022-10-19T12:25:19.587Z</time>
      </trkpt>
      <trkpt lat="43.52367" lon="5.62833">
        <ele>463</ele>
        <time>2022-10-19T12:25:20.587Z</time>
      </trkpt>
      <trkpt lat="43.52369" lon="5.62833">
        <ele>463</ele>
        <time>2022-10-19T12:25:21.587Z</time>
      </trkpt>
      <trkpt lat="43.5237" lon="5.62834">
        <ele>463</ele>
        <time>2022-10-19T12:25:22.587Z</time>
      </trkpt>
      <trkpt lat="43.52371" lon="5.62835">
        <ele>463</ele>
        <time>2022-10-19T12:25:23.587Z</time>
      </trkpt>
      <trkpt lat="43.52372" lon="5.62835">
        <ele>463</ele>
        <time>2022-10-19T12:25:24.587Z</time>
      </trkpt>
      <trkpt lat="43.52373" lon="5.62836">
        <ele>463</ele>
        <time>2022-10-19T12:25:25.587Z</time>
      </trkpt>
      <trkpt lat="43.52374" lon="5.62837">
        <ele>463</ele>
        <time>2022-10-19T12:25:26.587Z</time>
      </trkpt>
      <trkpt lat="43.52375" lon="5.62838">
        <ele>463</ele>
        <time>2022-10-19T12:25:27.587Z</time>
      </trkpt>
      <trkpt lat="43.52376" lon="5.62839">
        <ele>463</ele>
        <time>2022-10-19T12:25:28.587Z</time>
      </trkpt>
      <trkpt lat="43.52376" lon="5.6284">
        <ele>463</ele>
        <time>2022-10-19T12:25:29.587Z</time>
      </trkpt>
      <trkpt lat="43.52377" lon="5.62841">
        <ele>463</ele>
        <time>2022-10-19T12:25:30.587Z</time>
      </trkpt>
      <trkpt lat="43.52378" lon="5.62842">
        <ele>464</ele>
        <time>2022-10-19T12:25:31.587Z</time>
      </trkpt>
      <trkpt lat="43.52379" lon="5.62843">
        <ele>464</ele>
        <time>2022-10-19T12:25:32.587Z</time>
      </trkpt>
      <trkpt lat="43.5238" lon="5.62844">
        <ele>464</ele>
        <time>2022-10-19T12:25:33.587Z</time>
      </trkpt>
      <trkpt lat="43.5238" lon="5.62845">
        <ele>464</ele>
        <time>2022-10-19T12:25:34.587Z</time>
      </trkpt>
      <trkpt lat="43.52381" lon="5.62847">
        <ele>464</ele>
        <time>2022-10-19T12:25:35.587Z</time>
      </trkpt>
      <trkpt lat="43.52382" lon="5.62848">
        <ele>464</ele>
        <time>2022-10-19T12:25:36.587Z</time>
      </trkpt>
      <trkpt lat="43.52383" lon="5.6285">
        <ele>464</ele>
        <time>2022-10-19T12:25:37.587Z</time>
      </trkpt>
      <trkpt lat="43.52383" lon="5.62852">
        <ele>464</ele>
        <time>2022-10-19T12:25:38.587Z</time>
      </trkpt>
      <trkpt lat="43.52384" lon="5.62853">
        <ele>464</ele>
        <time>2022-10-19T12:25:39.587Z</time>
      </trkpt>
      <trkpt lat="43.52385" lon="5.62854">
        <ele>464</ele>
        <time>2022-10-19T12:25:40.587Z</time>
      </trkpt>
      <trkpt lat="43.52385" lon="5.62855">
        <ele>464</ele>
        <time>2022-10-19T12:25:41.587Z</time>
      </trkpt>
      <trkpt lat="43.52386" lon="5.62856">
        <ele>464</ele>
        <time>2022-10-19T12:25:42.587Z</time>
      </trkpt>
      <trkpt lat="43.52387" lon="5.62857">
        <ele>464</ele>
        <time>2022-10-19T12:25:43.587Z</time>
      </trkpt>
      <trkpt lat="43.52388" lon="5.62858">
        <ele>465</ele>
        <time>2022-10-19T12:25:44.587Z</time>
      </trkpt>
      <trkpt lat="43.52389" lon="5.62859">
        <ele>465</ele>
        <time>2022-10-19T12:25:45.587Z</time>
      </trkpt>
      <trkpt lat="43.5239" lon="5.62859">
        <ele>465</ele>
        <time>2022-10-19T12:25:46.587Z</time>
      </trkpt>
      <trkpt lat="43.52391" lon="5.6286">
        <ele>465</ele>
        <time>2022-10-19T12:25:47.587Z</time>
      </trkpt>
      <trkpt lat="43.52392" lon="5.62861">
        <ele>465</ele>
        <time>2022-10-19T12:25:48.587Z</time>
      </trkpt>
      <trkpt lat="43.52393" lon="5.62862">
        <ele>465</ele>
        <time>2022-10-19T12:25:49.587Z</time>
      </trkpt>
      <trkpt lat="43.52394" lon="5.62863">
        <ele>465</ele>
        <time>2022-10-19T12:25:50.587Z</time>
      </trkpt>
      <trkpt lat="43.52395" lon="5.62864">
        <ele>465</ele>
        <time>2022-10-19T12:25:51.587Z</time>
      </trkpt>
      <trkpt lat="43.52395" lon="5.62864">
        <ele>465</ele>
        <time>2022-10-19T12:25:52.587Z</time>
      </trkpt>
      <trkpt lat="43.52395" lon="5.62865">
        <ele>465</ele>
        <time>2022-10-19T12:25:53.587Z</time>
      </trkpt>
      <trkpt lat="43.52395" lon="5.62865">
        <ele>465</ele>
        <time>2022-10-19T12:25:54.587Z</time>
      </trkpt>
      <trkpt lat="43.52395" lon="5.62865">
        <ele>465</ele>
        <time>2022-10-19T12:25:55.587Z</time>
      </trkpt>
      <trkpt lat="43.52395" lon="5.62865">
        <ele>465</ele>
        <time>2022-10-19T12:25:56.587Z</time>
      </trkpt>
      <trkpt lat="43.52395" lon="5.62865">
        <ele>465</ele>
        <time>2022-10-19T12:25:57.587Z</time>
      </trkpt>
      <trkpt lat="43.52396" lon="5.62865">
        <ele>465</ele>
        <time>2022-10-19T12:25:58.587Z</time>
      </trkpt>
      <trkpt lat="43.52396" lon="5.62865">
        <ele>465</ele>
        <time>2022-10-19T12:25:59.587Z</time>
      </trkpt>
      <trkpt lat="43.52396" lon="5.62865">
        <ele>465</ele>
        <time>2022-10-19T12:26:00.587Z</time>
      </trkpt>
      <trkpt lat="43.52396" lon="5.62865">
        <ele>465</ele>
        <time>2022-10-19T12:26:01.587Z</time>
      </trkpt>
      <trkpt lat="43.52396" lon="5.62865">
        <ele>465</ele>
        <time>2022-10-19T12:26:02.587Z</time>
      </trkpt>
      <trkpt lat="43.52396" lon="5.62865">
        <ele>466</ele>
        <time>2022-10-19T12:26:03.587Z</time>
      </trkpt>
      <trkpt lat="43.52396" lon="5.62865">
        <ele>466</ele>
        <time>2022-10-19T12:26:04.587Z</time>
      </trkpt>
      <trkpt lat="43.52396" lon="5.62865">
        <ele>466</ele>
        <time>2022-10-19T12:26:05.587Z</time>
      </trkpt>
      <trkpt lat="43.52396" lon="5.62865">
        <ele>466</ele>
        <time>2022-10-19T12:26:06.587Z</time>
      </trkpt>
      <trkpt lat="43.52396" lon="5.62865">
        <ele>466</ele>
        <time>2022-10-19T12:26:07.587Z</time>
      </trkpt>
      <trkpt lat="43.52396" lon="5.62865">
        <ele>466</ele>
        <time>2022-10-19T12:26:08.587Z</time>
      </trkpt>
      <trkpt lat="43.52396" lon="5.62865">
        <ele>466</ele>
        <time>2022-10-19T12:26:09.587Z</time>
      </trkpt>
      <trkpt lat="43.52396" lon="5.62865">
        <ele>466</ele>
        <time>2022-10-19T12:26:10.587Z</time>
      </trkpt>
      <trkpt lat="43.52396" lon="5.62865">
        <ele>466</ele>
        <time>2022-10-19T12:26:11.587Z</time>
      </trkpt>
      <trkpt lat="43.52396" lon="5.62865">
        <ele>466</ele>
        <time>2022-10-19T12:26:12.587Z</time>
      </trkpt>
      <trkpt lat="43.52396" lon="5.62865">
        <ele>466</ele>
        <time>2022-10-19T12:26:13.587Z</time>
      </trkpt>
      <trkpt lat="43.52396" lon="5.62865">
        <ele>466</ele>
        <time>2022-10-19T12:26:14.587Z</time>
      </trkpt>
      <trkpt lat="43.52396" lon="5.62865">
        <ele>466</ele>
        <time>2022-10-19T12:26:15.587Z</time>
      </trkpt>
      <trkpt lat="43.52396" lon="5.62865">
        <ele>466</ele>
        <time>2022-10-19T12:26:16.587Z</time>
      </trkpt>
      <trkpt lat="43.52396" lon="5.62865">
        <ele>466</ele>
        <time>2022-10-19T12:26:17.587Z</time>
      </trkpt>
      <trkpt lat="43.52396" lon="5.62865">
        <ele>466</ele>
        <time>2022-10-19T12:26:18.587Z</time>
      </trkpt>
      <trkpt lat="43.52396" lon="5.62865">
        <ele>466</ele>
        <time>2022-10-19T12:26:19.587Z</time>
      </trkpt>
      <trkpt lat="43.52396" lon="5.62865">
        <ele>466</ele>
        <time>2022-10-19T12:26:20.587Z</time>
      </trkpt>
      <trkpt lat="43.52396" lon="5.62865">
        <ele>466</ele>
        <time>2022-10-19T12:26:21.587Z</time>
      </trkpt>
      <trkpt lat="43.52396" lon="5.62865">
        <ele>466</ele>
        <time>2022-10-19T12:26:22.587Z</time>
      </trkpt>
      <trkpt lat="43.52396" lon="5.62865">
        <ele>466</ele>
        <time>2022-10-19T12:26:23.587Z</time>
      </trkpt>
      <trkpt lat="43.52396" lon="5.62865">
        <ele>466</ele>
        <time>2022-10-19T12:26:24.587Z</time>
      </trkpt>
      <trkpt lat="43.52396" lon="5.62865">
        <ele>466</ele>
        <time>2022-10-19T12:26:25.587Z</time>
      </trkpt>
      <trkpt lat="43.52396" lon="5.62865">
        <ele>466</ele>
        <time>2022-10-19T12:26:26.587Z</time>
      </trkpt>
      <trkpt lat="43.52396" lon="5.62865">
        <ele>466</ele>
        <time>2022-10-19T12:26:27.587Z</time>
      </trkpt>
      <trkpt lat="43.52396" lon="5.62865">
        <ele>466</ele>
        <time>2022-10-19T12:26:28.587Z</time>
      </trkpt>
      <trkpt lat="43.52396" lon="5.62865">
        <ele>466</ele>
        <time>2022-10-19T12:26:29.587Z</time>
      </trkpt>
      <trkpt lat="43.52396" lon="5.62865">
        <ele>466</ele>
        <time>2022-10-19T12:26:30.587Z</time>
      </trkpt>
      <trkpt lat="43.52396" lon="5.62865">
        <ele>466</ele>
        <time>2022-10-19T12:26:31.587Z</time>
      </trkpt>
      <trkpt lat="43.52396" lon="5.62865">
        <ele>466</ele>
        <time>2022-10-19T12:26:32.587Z</time>
      </trkpt>
      <trkpt lat="43.52396" lon="5.62865">
        <ele>466</ele>
        <time>2022-10-19T12:26:33.587Z</time>
      </trkpt>
      <trkpt lat="43.52396" lon="5.62865">
        <ele>466</ele>
        <time>2022-10-19T12:26:34.587Z</time>
      </trkpt>
      <trkpt lat="43.52396" lon="5.62865">
        <ele>466</ele>
        <time>2022-10-19T12:26:35.587Z</time>
      </trkpt>
      <trkpt lat="43.52396" lon="5.62865">
        <ele>466</ele>
        <time>2022-10-19T12:26:36.587Z</time>
      </trkpt>
      <trkpt lat="43.52396" lon="5.62865">
        <ele>466</ele>
        <time>2022-10-19T12:26:37.587Z</time>
      </trkpt>
      <trkpt lat="43.52396" lon="5.62865">
        <ele>466</ele>
        <time>2022-10-19T12:26:38.587Z</time>
      </trkpt>
      <trkpt lat="43.52396" lon="5.62865">
        <ele>466</ele>
        <time>2022-10-19T12:26:39.587Z</time>
      </trkpt>
      <trkpt lat="43.52396" lon="5.62865">
        <ele>466</ele>
        <time>2022-10-19T12:26:40.587Z</time>
      </trkpt>
      <trkpt lat="43.52396" lon="5.62865">
        <ele>466</ele>
        <time>2022-10-19T12:26:41.587Z</time>
      </trkpt>
      <trkpt lat="43.52396" lon="5.62864">
        <ele>466</ele>
        <time>2022-10-19T12:26:42.587Z</time>
      </trkpt>
      <trkpt lat="43.52397" lon="5.62864">
        <ele>466</ele>
        <time>2022-10-19T12:26:43.587Z</time>
      </trkpt>
      <trkpt lat="43.52398" lon="5.62864">
        <ele>466</ele>
        <time>2022-10-19T12:26:44.587Z</time>
      </trkpt>
      <trkpt lat="43.52399" lon="5.62865">
        <ele>466</ele>
        <time>2022-10-19T12:26:45.587Z</time>
      </trkpt>
      <trkpt lat="43.524" lon="5.62866">
        <ele>466</ele>
        <time>2022-10-19T12:26:46.587Z</time>
      </trkpt>
      <trkpt lat="43.52401" lon="5.62867">
        <ele>466</ele>
        <time>2022-10-19T12:26:47.587Z</time>
      </trkpt>
      <trkpt lat="43.52402" lon="5.62868">
        <ele>466</ele>
        <time>2022-10-19T12:26:48.587Z</time>
      </trkpt>
      <trkpt lat="43.52403" lon="5.62869">
        <ele>466</ele>
        <time>2022-10-19T12:26:49.587Z</time>
      </trkpt>
      <trkpt lat="43.52404" lon="5.6287">
        <ele>466</ele>
        <time>2022-10-19T12:26:50.587Z</time>
      </trkpt>
      <trkpt lat="43.52405" lon="5.62871">
        <ele>466</ele>
        <time>2022-10-19T12:26:51.587Z</time>
      </trkpt>
      <trkpt lat="43.52406" lon="5.62871">
        <ele>466</ele>
        <time>2022-10-19T12:26:52.587Z</time>
      </trkpt>
      <trkpt lat="43.52407" lon="5.62872">
        <ele>467</ele>
        <time>2022-10-19T12:26:53.587Z</time>
      </trkpt>
      <trkpt lat="43.52408" lon="5.62873">
        <ele>467</ele>
        <time>2022-10-19T12:26:54.587Z</time>
      </trkpt>
      <trkpt lat="43.5241" lon="5.62873">
        <ele>467</ele>
        <time>2022-10-19T12:26:55.587Z</time>
      </trkpt>
      <trkpt lat="43.52411" lon="5.62874">
        <ele>467</ele>
        <time>2022-10-19T12:26:56.587Z</time>
      </trkpt>
      <trkpt lat="43.52412" lon="5.62875">
        <ele>467</ele>
        <time>2022-10-19T12:26:57.587Z</time>
      </trkpt>
      <trkpt lat="43.52413" lon="5.62876">
        <ele>467</ele>
        <time>2022-10-19T12:26:58.587Z</time>
      </trkpt>
      <trkpt lat="43.52414" lon="5.62877">
        <ele>467</ele>
        <time>2022-10-19T12:26:59.587Z</time>
      </trkpt>
      <trkpt lat="43.52415" lon="5.62877">
        <ele>467</ele>
        <time>2022-10-19T12:27:00.587Z</time>
      </trkpt>
      <trkpt lat="43.52416" lon="5.62878">
        <ele>467</ele>
        <time>2022-10-19T12:27:01.587Z</time>
      </trkpt>
      <trkpt lat="43.52417" lon="5.62878">
        <ele>467</ele>
        <time>2022-10-19T12:27:02.587Z</time>
      </trkpt>
      <trkpt lat="43.52418" lon="5.62879">
        <ele>467</ele>
        <time>2022-10-19T12:27:03.587Z</time>
      </trkpt>
      <trkpt lat="43.52419" lon="5.62879">
        <ele>467</ele>
        <time>2022-10-19T12:27:04.587Z</time>
      </trkpt>
      <trkpt lat="43.5242" lon="5.62879">
        <ele>467</ele>
        <time>2022-10-19T12:27:05.587Z</time>
      </trkpt>
      <trkpt lat="43.52421" lon="5.62879">
        <ele>467</ele>
        <time>2022-10-19T12:27:06.587Z</time>
      </trkpt>
      <trkpt lat="43.52422" lon="5.62879">
        <ele>467</ele>
        <time>2022-10-19T12:27:07.587Z</time>
      </trkpt>
      <trkpt lat="43.52423" lon="5.62879">
        <ele>467</ele>
        <time>2022-10-19T12:27:08.587Z</time>
      </trkpt>
      <trkpt lat="43.52424" lon="5.62878">
        <ele>467</ele>
        <time>2022-10-19T12:27:09.587Z</time>
      </trkpt>
      <trkpt lat="43.52425" lon="5.62878">
        <ele>468</ele>
        <time>2022-10-19T12:27:10.587Z</time>
      </trkpt>
      <trkpt lat="43.52426" lon="5.62877">
        <ele>468</ele>
        <time>2022-10-19T12:27:11.587Z</time>
      </trkpt>
      <trkpt lat="43.52427" lon="5.62876">
        <ele>468</ele>
        <time>2022-10-19T12:27:12.587Z</time>
      </trkpt>
      <trkpt lat="43.52428" lon="5.62875">
        <ele>468</ele>
        <time>2022-10-19T12:27:13.587Z</time>
      </trkpt>
      <trkpt lat="43.52429" lon="5.62874">
        <ele>468</ele>
        <time>2022-10-19T12:27:14.587Z</time>
      </trkpt>
      <trkpt lat="43.5243" lon="5.62873">
        <ele>468</ele>
        <time>2022-10-19T12:27:15.587Z</time>
      </trkpt>
      <trkpt lat="43.52431" lon="5.62873">
        <ele>468</ele>
        <time>2022-10-19T12:27:16.587Z</time>
      </trkpt>
      <trkpt lat="43.52432" lon="5.62872">
        <ele>468</ele>
        <time>2022-10-19T12:27:17.587Z</time>
      </trkpt>
      <trkpt lat="43.52433" lon="5.62872">
        <ele>467</ele>
        <time>2022-10-19T12:27:18.587Z</time>
      </trkpt>
      <trkpt lat="43.52434" lon="5.62872">
        <ele>467</ele>
        <time>2022-10-19T12:27:19.587Z</time>
      </trkpt>
      <trkpt lat="43.52434" lon="5.62872">
        <ele>467</ele>
        <time>2022-10-19T12:27:20.587Z</time>
      </trkpt>
      <trkpt lat="43.52434" lon="5.62873">
        <ele>467</ele>
        <time>2022-10-19T12:27:21.587Z</time>
      </trkpt>
      <trkpt lat="43.52435" lon="5.62874">
        <ele>467</ele>
        <time>2022-10-19T12:27:22.587Z</time>
      </trkpt>
      <trkpt lat="43.52435" lon="5.62875">
        <ele>467</ele>
        <time>2022-10-19T12:27:23.587Z</time>
      </trkpt>
      <trkpt lat="43.52435" lon="5.62876">
        <ele>466</ele>
        <time>2022-10-19T12:27:24.587Z</time>
      </trkpt>
      <trkpt lat="43.52435" lon="5.62877">
        <ele>466</ele>
        <time>2022-10-19T12:27:25.587Z</time>
      </trkpt>
      <trkpt lat="43.52435" lon="5.62879">
        <ele>466</ele>
        <time>2022-10-19T12:27:26.587Z</time>
      </trkpt>
      <trkpt lat="43.52436" lon="5.6288">
        <ele>465</ele>
        <time>2022-10-19T12:27:27.587Z</time>
      </trkpt>
      <trkpt lat="43.52436" lon="5.62881">
        <ele>465</ele>
        <time>2022-10-19T12:27:28.587Z</time>
      </trkpt>
      <trkpt lat="43.52436" lon="5.62882">
        <ele>465</ele>
        <time>2022-10-19T12:27:29.587Z</time>
      </trkpt>
      <trkpt lat="43.52437" lon="5.62882">
        <ele>465</ele>
        <time>2022-10-19T12:27:30.587Z</time>
      </trkpt>
      <trkpt lat="43.52437" lon="5.62882">
        <ele>465</ele>
        <time>2022-10-19T12:27:31.587Z</time>
      </trkpt>
      <trkpt lat="43.52437" lon="5.62882">
        <ele>465</ele>
        <time>2022-10-19T12:27:32.587Z</time>
      </trkpt>
      <trkpt lat="43.52437" lon="5.62882">
        <ele>465</ele>
        <time>2022-10-19T12:27:33.587Z</time>
      </trkpt>
      <trkpt lat="43.52437" lon="5.62882">
        <ele>465</ele>
        <time>2022-10-19T12:27:34.587Z</time>
      </trkpt>
      <trkpt lat="43.52437" lon="5.62882">
        <ele>464</ele>
        <time>2022-10-19T12:27:35.587Z</time>
      </trkpt>
      <trkpt lat="43.52437" lon="5.62882">
        <ele>464</ele>
        <time>2022-10-19T12:27:36.587Z</time>
      </trkpt>
      <trkpt lat="43.52437" lon="5.62882">
        <ele>464</ele>
        <time>2022-10-19T12:27:37.587Z</time>
      </trkpt>
      <trkpt lat="43.52437" lon="5.62882">
        <ele>464</ele>
        <time>2022-10-19T12:27:38.587Z</time>
      </trkpt>
      <trkpt lat="43.52437" lon="5.62882">
        <ele>464</ele>
        <time>2022-10-19T12:27:39.587Z</time>
      </trkpt>
      <trkpt lat="43.52437" lon="5.62882">
        <ele>464</ele>
        <time>2022-10-19T12:27:40.587Z</time>
      </trkpt>
      <trkpt lat="43.52437" lon="5.62882">
        <ele>464</ele>
        <time>2022-10-19T12:27:41.587Z</time>
      </trkpt>
      <trkpt lat="43.52437" lon="5.62882">
        <ele>464</ele>
        <time>2022-10-19T12:27:42.587Z</time>
      </trkpt>
      <trkpt lat="43.52437" lon="5.62882">
        <ele>464</ele>
        <time>2022-10-19T12:27:43.587Z</time>
      </trkpt>
      <trkpt lat="43.52437" lon="5.62882">
        <ele>464</ele>
        <time>2022-10-19T12:27:44.587Z</time>
      </trkpt>
      <trkpt lat="43.52437" lon="5.62882">
        <ele>464</ele>
        <time>2022-10-19T12:27:45.587Z</time>
      </trkpt>
      <trkpt lat="43.52437" lon="5.62882">
        <ele>464</ele>
        <time>2022-10-19T12:27:46.587Z</time>
      </trkpt>
      <trkpt lat="43.52437" lon="5.62882">
        <ele>464</ele>
        <time>2022-10-19T12:27:47.587Z</time>
      </trkpt>
      <trkpt lat="43.52437" lon="5.62882">
        <ele>464</ele>
        <time>2022-10-19T12:27:48.587Z</time>
      </trkpt>
      <trkpt lat="43.52438" lon="5.62882">
        <ele>464</ele>
        <time>2022-10-19T12:27:49.587Z</time>
      </trkpt>
      <trkpt lat="43.52438" lon="5.62882">
        <ele>464</ele>
        <time>2022-10-19T12:27:50.587Z</time>
      </trkpt>
      <trkpt lat="43.52438" lon="5.62882">
        <ele>464</ele>
        <time>2022-10-19T12:27:51.587Z</time>
      </trkpt>
      <trkpt lat="43.52438" lon="5.62882">
        <ele>464</ele>
        <time>2022-10-19T12:27:52.587Z</time>
      </trkpt>
      <trkpt lat="43.52438" lon="5.62882">
        <ele>464</ele>
        <time>2022-10-19T12:27:53.587Z</time>
      </trkpt>
      <trkpt lat="43.52438" lon="5.62882">
        <ele>464</ele>
        <time>2022-10-19T12:27:54.587Z</time>
      </trkpt>
      <trkpt lat="43.52438" lon="5.62882">
        <ele>464</ele>
        <time>2022-10-19T12:27:55.587Z</time>
      </trkpt>
      <trkpt lat="43.52438" lon="5.62883">
        <ele>464</ele>
        <time>2022-10-19T12:27:56.587Z</time>
      </trkpt>
      <trkpt lat="43.52438" lon="5.62884">
        <ele>464</ele>
        <time>2022-10-19T12:27:57.587Z</time>
      </trkpt>
      <trkpt lat="43.52439" lon="5.62885">
        <ele>463</ele>
        <time>2022-10-19T12:27:58.587Z</time>
      </trkpt>
      <trkpt lat="43.52439" lon="5.62886">
        <ele>463</ele>
        <time>2022-10-19T12:27:59.587Z</time>
      </trkpt>
      <trkpt lat="43.5244" lon="5.62887">
        <ele>463</ele>
        <time>2022-10-19T12:28:00.587Z</time>
      </trkpt>
      <trkpt lat="43.5244" lon="5.62888">
        <ele>463</ele>
        <time>2022-10-19T12:28:01.587Z</time>
      </trkpt>
      <trkpt lat="43.5244" lon="5.62889">
        <ele>463</ele>
        <time>2022-10-19T12:28:02.587Z</time>
      </trkpt>
      <trkpt lat="43.5244" lon="5.6289">
        <ele>463</ele>
        <time>2022-10-19T12:28:03.587Z</time>
      </trkpt>
      <trkpt lat="43.5244" lon="5.62892">
        <ele>463</ele>
        <time>2022-10-19T12:28:04.587Z</time>
      </trkpt>
      <trkpt lat="43.5244" lon="5.62893">
        <ele>463</ele>
        <time>2022-10-19T12:28:05.587Z</time>
      </trkpt>
      <trkpt lat="43.5244" lon="5.62895">
        <ele>462</ele>
        <time>2022-10-19T12:28:06.587Z</time>
      </trkpt>
      <trkpt lat="43.5244" lon="5.62896">
        <ele>462</ele>
        <time>2022-10-19T12:28:07.587Z</time>
      </trkpt>
      <trkpt lat="43.5244" lon="5.62898">
        <ele>462</ele>
        <time>2022-10-19T12:28:08.587Z</time>
      </trkpt>
      <trkpt lat="43.52441" lon="5.62899">
        <ele>462</ele>
        <time>2022-10-19T12:28:09.587Z</time>
      </trkpt>
      <trkpt lat="43.52441" lon="5.62901">
        <ele>462</ele>
        <time>2022-10-19T12:28:10.587Z</time>
      </trkpt>
      <trkpt lat="43.52441" lon="5.62903">
        <ele>462</ele>
        <time>2022-10-19T12:28:11.587Z</time>
      </trkpt>
      <trkpt lat="43.52441" lon="5.62904">
        <ele>461</ele>
        <time>2022-10-19T12:28:12.587Z</time>
      </trkpt>
      <trkpt lat="43.52441" lon="5.62906">
        <ele>461</ele>
        <time>2022-10-19T12:28:13.587Z</time>
      </trkpt>
      <trkpt lat="43.5244" lon="5.62907">
        <ele>461</ele>
        <time>2022-10-19T12:28:14.587Z</time>
      </trkpt>
      <trkpt lat="43.5244" lon="5.62907">
        <ele>461</ele>
        <time>2022-10-19T12:28:15.587Z</time>
      </trkpt>
      <trkpt lat="43.52441" lon="5.62906">
        <ele>461</ele>
        <time>2022-10-19T12:28:16.587Z</time>
      </trkpt>
      <trkpt lat="43.52441" lon="5.62906">
        <ele>461</ele>
        <time>2022-10-19T12:28:17.587Z</time>
      </trkpt>
      <trkpt lat="43.5244" lon="5.62907">
        <ele>461</ele>
        <time>2022-10-19T12:28:18.587Z</time>
      </trkpt>
      <trkpt lat="43.5244" lon="5.62908">
        <ele>461</ele>
        <time>2022-10-19T12:28:19.587Z</time>
      </trkpt>
      <trkpt lat="43.5244" lon="5.6291">
        <ele>461</ele>
        <time>2022-10-19T12:28:20.587Z</time>
      </trkpt>
      <trkpt lat="43.5244" lon="5.62911">
        <ele>461</ele>
        <time>2022-10-19T12:28:21.587Z</time>
      </trkpt>
      <trkpt lat="43.5244" lon="5.62912">
        <ele>461</ele>
        <time>2022-10-19T12:28:22.587Z</time>
      </trkpt>
      <trkpt lat="43.5244" lon="5.62914">
        <ele>461</ele>
        <time>2022-10-19T12:28:23.587Z</time>
      </trkpt>
      <trkpt lat="43.5244" lon="5.62915">
        <ele>461</ele>
        <time>2022-10-19T12:28:24.587Z</time>
      </trkpt>
      <trkpt lat="43.5244" lon="5.62916">
        <ele>461</ele>
        <time>2022-10-19T12:28:25.587Z</time>
      </trkpt>
      <trkpt lat="43.5244" lon="5.62917">
        <ele>461</ele>
        <time>2022-10-19T12:28:26.587Z</time>
      </trkpt>
      <trkpt lat="43.5244" lon="5.62918">
        <ele>461</ele>
        <time>2022-10-19T12:28:27.587Z</time>
      </trkpt>
      <trkpt lat="43.5244" lon="5.6292">
        <ele>461</ele>
        <time>2022-10-19T12:28:28.587Z</time>
      </trkpt>
      <trkpt lat="43.5244" lon="5.62921">
        <ele>460</ele>
        <time>2022-10-19T12:28:29.587Z</time>
      </trkpt>
      <trkpt lat="43.5244" lon="5.62922">
        <ele>460</ele>
        <time>2022-10-19T12:28:30.587Z</time>
      </trkpt>
      <trkpt lat="43.5244" lon="5.62923">
        <ele>460</ele>
        <time>2022-10-19T12:28:31.587Z</time>
      </trkpt>
      <trkpt lat="43.5244" lon="5.62924">
        <ele>460</ele>
        <time>2022-10-19T12:28:32.587Z</time>
      </trkpt>
      <trkpt lat="43.5244" lon="5.62926">
        <ele>460</ele>
        <time>2022-10-19T12:28:33.587Z</time>
      </trkpt>
      <trkpt lat="43.5244" lon="5.62927">
        <ele>459</ele>
        <time>2022-10-19T12:28:34.587Z</time>
      </trkpt>
      <trkpt lat="43.5244" lon="5.62928">
        <ele>459</ele>
        <time>2022-10-19T12:28:35.587Z</time>
      </trkpt>
      <trkpt lat="43.52441" lon="5.62929">
        <ele>459</ele>
        <time>2022-10-19T12:28:36.587Z</time>
      </trkpt>
      <trkpt lat="43.52441" lon="5.6293">
        <ele>459</ele>
        <time>2022-10-19T12:28:37.587Z</time>
      </trkpt>
      <trkpt lat="43.5244" lon="5.62931">
        <ele>459</ele>
        <time>2022-10-19T12:28:38.587Z</time>
      </trkpt>
      <trkpt lat="43.52441" lon="5.62932">
        <ele>458</ele>
        <time>2022-10-19T12:28:39.587Z</time>
      </trkpt>
      <trkpt lat="43.52441" lon="5.62932">
        <ele>458</ele>
        <time>2022-10-19T12:28:40.587Z</time>
      </trkpt>
      <trkpt lat="43.52441" lon="5.62933">
        <ele>458</ele>
        <time>2022-10-19T12:28:41.587Z</time>
      </trkpt>
      <trkpt lat="43.52441" lon="5.62933">
        <ele>458</ele>
        <time>2022-10-19T12:28:42.587Z</time>
      </trkpt>
      <trkpt lat="43.52442" lon="5.62933">
        <ele>458</ele>
        <time>2022-10-19T12:28:43.587Z</time>
      </trkpt>
      <trkpt lat="43.52442" lon="5.62933">
        <ele>458</ele>
        <time>2022-10-19T12:28:44.587Z</time>
      </trkpt>
      <trkpt lat="43.52443" lon="5.62934">
        <ele>458</ele>
        <time>2022-10-19T12:28:45.587Z</time>
      </trkpt>
      <trkpt lat="43.52444" lon="5.62934">
        <ele>457</ele>
        <time>2022-10-19T12:28:46.587Z</time>
      </trkpt>
      <trkpt lat="43.52444" lon="5.62935">
        <ele>457</ele>
        <time>2022-10-19T12:28:47.587Z</time>
      </trkpt>
      <trkpt lat="43.52444" lon="5.62935">
        <ele>457</ele>
        <time>2022-10-19T12:28:48.587Z</time>
      </trkpt>
      <trkpt lat="43.52445" lon="5.62936">
        <ele>457</ele>
        <time>2022-10-19T12:28:49.587Z</time>
      </trkpt>
      <trkpt lat="43.52445" lon="5.62937">
        <ele>456</ele>
        <time>2022-10-19T12:28:50.587Z</time>
      </trkpt>
      <trkpt lat="43.52446" lon="5.62937">
        <ele>456</ele>
        <time>2022-10-19T12:28:51.587Z</time>
      </trkpt>
      <trkpt lat="43.52446" lon="5.62938">
        <ele>456</ele>
        <time>2022-10-19T12:28:52.587Z</time>
      </trkpt>
      <trkpt lat="43.52446" lon="5.62939">
        <ele>456</ele>
        <time>2022-10-19T12:28:53.587Z</time>
      </trkpt>
      <trkpt lat="43.52447" lon="5.6294">
        <ele>456</ele>
        <time>2022-10-19T12:28:54.587Z</time>
      </trkpt>
      <trkpt lat="43.52447" lon="5.6294">
        <ele>455</ele>
        <time>2022-10-19T12:28:55.587Z</time>
      </trkpt>
      <trkpt lat="43.52447" lon="5.6294">
        <ele>455</ele>
        <time>2022-10-19T12:28:56.587Z</time>
      </trkpt>
      <trkpt lat="43.52447" lon="5.6294">
        <ele>455</ele>
        <time>2022-10-19T12:28:57.587Z</time>
      </trkpt>
      <trkpt lat="43.52447" lon="5.6294">
        <ele>455</ele>
        <time>2022-10-19T12:28:58.587Z</time>
      </trkpt>
      <trkpt lat="43.52448" lon="5.6294">
        <ele>455</ele>
        <time>2022-10-19T12:28:59.587Z</time>
      </trkpt>
      <trkpt lat="43.52448" lon="5.6294">
        <ele>455</ele>
        <time>2022-10-19T12:29:00.587Z</time>
      </trkpt>
      <trkpt lat="43.52448" lon="5.6294">
        <ele>455</ele>
        <time>2022-10-19T12:29:01.587Z</time>
      </trkpt>
      <trkpt lat="43.52448" lon="5.6294">
        <ele>455</ele>
        <time>2022-10-19T12:29:02.587Z</time>
      </trkpt>
      <trkpt lat="43.52448" lon="5.62939">
        <ele>455</ele>
        <time>2022-10-19T12:29:03.587Z</time>
      </trkpt>
      <trkpt lat="43.52448" lon="5.6294">
        <ele>455</ele>
        <time>2022-10-19T12:29:04.587Z</time>
      </trkpt>
      <trkpt lat="43.52448" lon="5.62939">
        <ele>455</ele>
        <time>2022-10-19T12:29:05.587Z</time>
      </trkpt>
      <trkpt lat="43.52449" lon="5.62939">
        <ele>454</ele>
        <time>2022-10-19T12:29:06.587Z</time>
      </trkpt>
      <trkpt lat="43.52449" lon="5.62939">
        <ele>454</ele>
        <time>2022-10-19T12:29:07.587Z</time>
      </trkpt>
      <trkpt lat="43.52449" lon="5.6294">
        <ele>454</ele>
        <time>2022-10-19T12:29:08.587Z</time>
      </trkpt>
      <trkpt lat="43.52449" lon="5.62939">
        <ele>454</ele>
        <time>2022-10-19T12:29:09.587Z</time>
      </trkpt>
      <trkpt lat="43.52449" lon="5.62939">
        <ele>454</ele>
        <time>2022-10-19T12:29:10.587Z</time>
      </trkpt>
      <trkpt lat="43.52449" lon="5.62939">
        <ele>454</ele>
        <time>2022-10-19T12:29:11.587Z</time>
      </trkpt>
      <trkpt lat="43.52449" lon="5.62939">
        <ele>454</ele>
        <time>2022-10-19T12:29:12.587Z</time>
      </trkpt>
      <trkpt lat="43.52449" lon="5.62939">
        <ele>454</ele>
        <time>2022-10-19T12:29:13.587Z</time>
      </trkpt>
      <trkpt lat="43.52449" lon="5.62939">
        <ele>454</ele>
        <time>2022-10-19T12:29:14.587Z</time>
      </trkpt>
      <trkpt lat="43.52449" lon="5.62939">
        <ele>454</ele>
        <time>2022-10-19T12:29:15.587Z</time>
      </trkpt>
      <trkpt lat="43.52449" lon="5.62939">
        <ele>454</ele>
        <time>2022-10-19T12:29:16.587Z</time>
      </trkpt>
      <trkpt lat="43.52449" lon="5.62939">
        <ele>454</ele>
        <time>2022-10-19T12:29:17.587Z</time>
      </trkpt>
      <trkpt lat="43.52449" lon="5.62939">
        <ele>454</ele>
        <time>2022-10-19T12:29:18.587Z</time>
      </trkpt>
      <trkpt lat="43.52449" lon="5.62939">
        <ele>454</ele>
        <time>2022-10-19T12:29:19.587Z</time>
      </trkpt>
      <trkpt lat="43.52449" lon="5.62939">
        <ele>454</ele>
        <time>2022-10-19T12:29:20.587Z</time>
      </trkpt>
      <trkpt lat="43.52449" lon="5.62939">
        <ele>454</ele>
        <time>2022-10-19T12:29:21.587Z</time>
      </trkpt>
      <trkpt lat="43.52449" lon="5.62939">
        <ele>454</ele>
        <time>2022-10-19T12:29:22.587Z</time>
      </trkpt>
      <trkpt lat="43.52449" lon="5.62939">
        <ele>454</ele>
        <time>2022-10-19T12:29:23.587Z</time>
      </trkpt>
      <trkpt lat="43.52449" lon="5.62939">
        <ele>454</ele>
        <time>2022-10-19T12:29:24.587Z</time>
      </trkpt>
      <trkpt lat="43.52449" lon="5.62939">
        <ele>453</ele>
        <time>2022-10-19T12:29:25.587Z</time>
      </trkpt>
      <trkpt lat="43.52449" lon="5.62939">
        <ele>453</ele>
        <time>2022-10-19T12:29:26.587Z</time>
      </trkpt>
      <trkpt lat="43.5245" lon="5.62939">
        <ele>453</ele>
        <time>2022-10-19T12:29:27.587Z</time>
      </trkpt>
      <trkpt lat="43.52451" lon="5.62939">
        <ele>453</ele>
        <time>2022-10-19T12:29:28.587Z</time>
      </trkpt>
      <trkpt lat="43.52451" lon="5.62938">
        <ele>453</ele>
        <time>2022-10-19T12:29:29.587Z</time>
      </trkpt>
      <trkpt lat="43.52452" lon="5.62938">
        <ele>452</ele>
        <time>2022-10-19T12:29:30.587Z</time>
      </trkpt>
      <trkpt lat="43.52452" lon="5.62937">
        <ele>452</ele>
        <time>2022-10-19T12:29:31.587Z</time>
      </trkpt>
      <trkpt lat="43.52453" lon="5.62937">
        <ele>452</ele>
        <time>2022-10-19T12:29:32.587Z</time>
      </trkpt>
      <trkpt lat="43.52454" lon="5.62937">
        <ele>452</ele>
        <time>2022-10-19T12:29:33.587Z</time>
      </trkpt>
      <trkpt lat="43.52454" lon="5.62937">
        <ele>452</ele>
        <time>2022-10-19T12:29:34.587Z</time>
      </trkpt>
      <trkpt lat="43.52455" lon="5.62937">
        <ele>451</ele>
        <time>2022-10-19T12:29:35.587Z</time>
      </trkpt>
      <trkpt lat="43.52455" lon="5.62938">
        <ele>451</ele>
        <time>2022-10-19T12:29:36.587Z</time>
      </trkpt>
      <trkpt lat="43.52455" lon="5.62939">
        <ele>451</ele>
        <time>2022-10-19T12:29:37.587Z</time>
      </trkpt>
      <trkpt lat="43.52456" lon="5.6294">
        <ele>451</ele>
        <time>2022-10-19T12:29:38.587Z</time>
      </trkpt>
      <trkpt lat="43.52456" lon="5.62941">
        <ele>451</ele>
        <time>2022-10-19T12:29:39.587Z</time>
      </trkpt>
      <trkpt lat="43.52456" lon="5.62942">
        <ele>450</ele>
        <time>2022-10-19T12:29:40.587Z</time>
      </trkpt>
      <trkpt lat="43.52456" lon="5.62943">
        <ele>450</ele>
        <time>2022-10-19T12:29:41.587Z</time>
      </trkpt>
      <trkpt lat="43.52456" lon="5.62944">
        <ele>450</ele>
        <time>2022-10-19T12:29:42.587Z</time>
      </trkpt>
      <trkpt lat="43.52456" lon="5.62944">
        <ele>450</ele>
        <time>2022-10-19T12:29:43.587Z</time>
      </trkpt>
      <trkpt lat="43.52456" lon="5.62945">
        <ele>449</ele>
        <time>2022-10-19T12:29:44.587Z</time>
      </trkpt>
      <trkpt lat="43.52457" lon="5.62945">
        <ele>449</ele>
        <time>2022-10-19T12:29:45.587Z</time>
      </trkpt>
      <trkpt lat="43.52457" lon="5.62946">
        <ele>449</ele>
        <time>2022-10-19T12:29:46.587Z</time>
      </trkpt>
      <trkpt lat="43.52457" lon="5.62947">
        <ele>449</ele>
        <time>2022-10-19T12:29:47.587Z</time>
      </trkpt>
      <trkpt lat="43.52457" lon="5.62947">
        <ele>449</ele>
        <time>2022-10-19T12:29:48.587Z</time>
      </trkpt>
      <trkpt lat="43.52457" lon="5.62948">
        <ele>448</ele>
        <time>2022-10-19T12:29:49.587Z</time>
      </trkpt>
      <trkpt lat="43.52458" lon="5.62949">
        <ele>448</ele>
        <time>2022-10-19T12:29:50.587Z</time>
      </trkpt>
      <trkpt lat="43.52458" lon="5.62949">
        <ele>448</ele>
        <time>2022-10-19T12:29:51.587Z</time>
      </trkpt>
      <trkpt lat="43.52458" lon="5.6295">
        <ele>448</ele>
        <time>2022-10-19T12:29:52.587Z</time>
      </trkpt>
      <trkpt lat="43.52459" lon="5.6295">
        <ele>448</ele>
        <time>2022-10-19T12:29:53.587Z</time>
      </trkpt>
      <trkpt lat="43.52459" lon="5.62951">
        <ele>448</ele>
        <time>2022-10-19T12:29:54.587Z</time>
      </trkpt>
      <trkpt lat="43.5246" lon="5.62951">
        <ele>448</ele>
        <time>2022-10-19T12:29:55.587Z</time>
      </trkpt>
      <trkpt lat="43.5246" lon="5.62952">
        <ele>447</ele>
        <time>2022-10-19T12:29:56.587Z</time>
      </trkpt>
      <trkpt lat="43.52461" lon="5.62953">
        <ele>447</ele>
        <time>2022-10-19T12:29:57.587Z</time>
      </trkpt>
      <trkpt lat="43.52461" lon="5.62954">
        <ele>447</ele>
        <time>2022-10-19T12:29:58.587Z</time>
      </trkpt>
      <trkpt lat="43.52462" lon="5.62955">
        <ele>447</ele>
        <time>2022-10-19T12:29:59.587Z</time>
      </trkpt>
      <trkpt lat="43.52462" lon="5.62956">
        <ele>447</ele>
        <time>2022-10-19T12:30:00.587Z</time>
      </trkpt>
      <trkpt lat="43.52463" lon="5.62958">
        <ele>447</ele>
        <time>2022-10-19T12:30:01.587Z</time>
      </trkpt>
      <trkpt lat="43.52463" lon="5.62959">
        <ele>447</ele>
        <time>2022-10-19T12:30:02.587Z</time>
      </trkpt>
      <trkpt lat="43.52463" lon="5.62961">
        <ele>447</ele>
        <time>2022-10-19T12:30:03.587Z</time>
      </trkpt>
      <trkpt lat="43.52463" lon="5.62962">
        <ele>447</ele>
        <time>2022-10-19T12:30:04.587Z</time>
      </trkpt>
      <trkpt lat="43.52463" lon="5.62963">
        <ele>447</ele>
        <time>2022-10-19T12:30:05.587Z</time>
      </trkpt>
      <trkpt lat="43.52463" lon="5.62965">
        <ele>447</ele>
        <time>2022-10-19T12:30:06.587Z</time>
      </trkpt>
      <trkpt lat="43.52463" lon="5.62966">
        <ele>447</ele>
        <time>2022-10-19T12:30:07.587Z</time>
      </trkpt>
      <trkpt lat="43.52463" lon="5.62968">
        <ele>446</ele>
        <time>2022-10-19T12:30:08.587Z</time>
      </trkpt>
      <trkpt lat="43.52463" lon="5.62969">
        <ele>446</ele>
        <time>2022-10-19T12:30:09.587Z</time>
      </trkpt>
      <trkpt lat="43.52463" lon="5.6297">
        <ele>446</ele>
        <time>2022-10-19T12:30:10.587Z</time>
      </trkpt>
      <trkpt lat="43.52463" lon="5.62971">
        <ele>446</ele>
        <time>2022-10-19T12:30:11.587Z</time>
      </trkpt>
      <trkpt lat="43.52463" lon="5.62973">
        <ele>446</ele>
        <time>2022-10-19T12:30:12.587Z</time>
      </trkpt>
      <trkpt lat="43.52463" lon="5.62974">
        <ele>445</ele>
        <time>2022-10-19T12:30:13.587Z</time>
      </trkpt>
      <trkpt lat="43.52463" lon="5.62975">
        <ele>445</ele>
        <time>2022-10-19T12:30:14.587Z</time>
      </trkpt>
      <trkpt lat="43.52463" lon="5.62977">
        <ele>445</ele>
        <time>2022-10-19T12:30:15.587Z</time>
      </trkpt>
      <trkpt lat="43.52463" lon="5.62978">
        <ele>445</ele>
        <time>2022-10-19T12:30:16.587Z</time>
      </trkpt>
      <trkpt lat="43.52463" lon="5.62979">
        <ele>445</ele>
        <time>2022-10-19T12:30:17.587Z</time>
      </trkpt>
      <trkpt lat="43.52463" lon="5.6298">
        <ele>444</ele>
        <time>2022-10-19T12:30:18.587Z</time>
      </trkpt>
      <trkpt lat="43.52463" lon="5.62982">
        <ele>444</ele>
        <time>2022-10-19T12:30:19.587Z</time>
      </trkpt>
      <trkpt lat="43.52463" lon="5.62983">
        <ele>444</ele>
        <time>2022-10-19T12:30:20.587Z</time>
      </trkpt>
      <trkpt lat="43.52463" lon="5.62985">
        <ele>444</ele>
        <time>2022-10-19T12:30:21.587Z</time>
      </trkpt>
      <trkpt lat="43.52464" lon="5.62986">
        <ele>444</ele>
        <time>2022-10-19T12:30:22.587Z</time>
      </trkpt>
      <trkpt lat="43.52464" lon="5.62987">
        <ele>444</ele>
        <time>2022-10-19T12:30:23.587Z</time>
      </trkpt>
      <trkpt lat="43.52464" lon="5.62989">
        <ele>444</ele>
        <time>2022-10-19T12:30:24.587Z</time>
      </trkpt>
      <trkpt lat="43.52464" lon="5.6299">
        <ele>443</ele>
        <time>2022-10-19T12:30:25.587Z</time>
      </trkpt>
      <trkpt lat="43.52463" lon="5.62992">
        <ele>443</ele>
        <time>2022-10-19T12:30:26.587Z</time>
      </trkpt>
      <trkpt lat="43.52463" lon="5.62993">
        <ele>443</ele>
        <time>2022-10-19T12:30:27.587Z</time>
      </trkpt>
      <trkpt lat="43.52463" lon="5.62994">
        <ele>443</ele>
        <time>2022-10-19T12:30:28.587Z</time>
      </trkpt>
      <trkpt lat="43.52463" lon="5.62995">
        <ele>443</ele>
        <time>2022-10-19T12:30:29.587Z</time>
      </trkpt>
      <trkpt lat="43.52463" lon="5.62997">
        <ele>443</ele>
        <time>2022-10-19T12:30:30.587Z</time>
      </trkpt>
      <trkpt lat="43.52463" lon="5.62999">
        <ele>442</ele>
        <time>2022-10-19T12:30:31.587Z</time>
      </trkpt>
      <trkpt lat="43.52463" lon="5.63">
        <ele>442</ele>
        <time>2022-10-19T12:30:32.587Z</time>
      </trkpt>
      <trkpt lat="43.52463" lon="5.63002">
        <ele>442</ele>
        <time>2022-10-19T12:30:33.587Z</time>
      </trkpt>
      <trkpt lat="43.52463" lon="5.63003">
        <ele>442</ele>
        <time>2022-10-19T12:30:34.587Z</time>
      </trkpt>
      <trkpt lat="43.52463" lon="5.63005">
        <ele>442</ele>
        <time>2022-10-19T12:30:35.587Z</time>
      </trkpt>
      <trkpt lat="43.52462" lon="5.63007">
        <ele>442</ele>
        <time>2022-10-19T12:30:36.587Z</time>
      </trkpt>
      <trkpt lat="43.52462" lon="5.63008">
        <ele>442</ele>
        <time>2022-10-19T12:30:37.587Z</time>
      </trkpt>
      <trkpt lat="43.52461" lon="5.6301">
        <ele>442</ele>
        <time>2022-10-19T12:30:38.587Z</time>
      </trkpt>
      <trkpt lat="43.5246" lon="5.63011">
        <ele>442</ele>
        <time>2022-10-19T12:30:39.587Z</time>
      </trkpt>
      <trkpt lat="43.5246" lon="5.63012">
        <ele>442</ele>
        <time>2022-10-19T12:30:40.587Z</time>
      </trkpt>
      <trkpt lat="43.52459" lon="5.63014">
        <ele>442</ele>
        <time>2022-10-19T12:30:41.587Z</time>
      </trkpt>
      <trkpt lat="43.52459" lon="5.63015">
        <ele>442</ele>
        <time>2022-10-19T12:30:42.587Z</time>
      </trkpt>
      <trkpt lat="43.52459" lon="5.63016">
        <ele>442</ele>
        <time>2022-10-19T12:30:43.587Z</time>
      </trkpt>
      <trkpt lat="43.52458" lon="5.63017">
        <ele>442</ele>
        <time>2022-10-19T12:30:44.587Z</time>
      </trkpt>
      <trkpt lat="43.52458" lon="5.63019">
        <ele>441</ele>
        <time>2022-10-19T12:30:45.587Z</time>
      </trkpt>
      <trkpt lat="43.52457" lon="5.6302">
        <ele>441</ele>
        <time>2022-10-19T12:30:46.587Z</time>
      </trkpt>
      <trkpt lat="43.52457" lon="5.63021">
        <ele>441</ele>
        <time>2022-10-19T12:30:47.587Z</time>
      </trkpt>
      <trkpt lat="43.52457" lon="5.63022">
        <ele>441</ele>
        <time>2022-10-19T12:30:48.587Z</time>
      </trkpt>
      <trkpt lat="43.52457" lon="5.63023">
        <ele>441</ele>
        <time>2022-10-19T12:30:49.587Z</time>
      </trkpt>
      <trkpt lat="43.52457" lon="5.63024">
        <ele>441</ele>
        <time>2022-10-19T12:30:50.587Z</time>
      </trkpt>
      <trkpt lat="43.52457" lon="5.63026">
        <ele>441</ele>
        <time>2022-10-19T12:30:51.587Z</time>
      </trkpt>
      <trkpt lat="43.52456" lon="5.63027">
        <ele>441</ele>
        <time>2022-10-19T12:30:52.587Z</time>
      </trkpt>
      <trkpt lat="43.52457" lon="5.63028">
        <ele>441</ele>
        <time>2022-10-19T12:30:53.587Z</time>
      </trkpt>
      <trkpt lat="43.52457" lon="5.6303">
        <ele>440</ele>
        <time>2022-10-19T12:30:54.587Z</time>
      </trkpt>
      <trkpt lat="43.52457" lon="5.63031">
        <ele>440</ele>
        <time>2022-10-19T12:30:55.587Z</time>
      </trkpt>
      <trkpt lat="43.52456" lon="5.63032">
        <ele>440</ele>
        <time>2022-10-19T12:30:56.587Z</time>
      </trkpt>
      <trkpt lat="43.52456" lon="5.63033">
        <ele>440</ele>
        <time>2022-10-19T12:30:57.587Z</time>
      </trkpt>
      <trkpt lat="43.52456" lon="5.63035">
        <ele>440</ele>
        <time>2022-10-19T12:30:58.587Z</time>
      </trkpt>
      <trkpt lat="43.52456" lon="5.63036">
        <ele>440</ele>
        <time>2022-10-19T12:30:59.587Z</time>
      </trkpt>
      <trkpt lat="43.52455" lon="5.63037">
        <ele>440</ele>
        <time>2022-10-19T12:31:00.587Z</time>
      </trkpt>
      <trkpt lat="43.52455" lon="5.63038">
        <ele>440</ele>
        <time>2022-10-19T12:31:01.587Z</time>
      </trkpt>
      <trkpt lat="43.52455" lon="5.63039">
        <ele>439</ele>
        <time>2022-10-19T12:31:02.587Z</time>
      </trkpt>
      <trkpt lat="43.52455" lon="5.63041">
        <ele>439</ele>
        <time>2022-10-19T12:31:03.587Z</time>
      </trkpt>
      <trkpt lat="43.52455" lon="5.63042">
        <ele>439</ele>
        <time>2022-10-19T12:31:04.587Z</time>
      </trkpt>
      <trkpt lat="43.52455" lon="5.63043">
        <ele>439</ele>
        <time>2022-10-19T12:31:05.587Z</time>
      </trkpt>
      <trkpt lat="43.52455" lon="5.63045">
        <ele>439</ele>
        <time>2022-10-19T12:31:06.587Z</time>
      </trkpt>
      <trkpt lat="43.52455" lon="5.63046">
        <ele>439</ele>
        <time>2022-10-19T12:31:07.587Z</time>
      </trkpt>
      <trkpt lat="43.52455" lon="5.63048">
        <ele>439</ele>
        <time>2022-10-19T12:31:08.587Z</time>
      </trkpt>
      <trkpt lat="43.52455" lon="5.63049">
        <ele>439</ele>
        <time>2022-10-19T12:31:09.587Z</time>
      </trkpt>
      <trkpt lat="43.52455" lon="5.6305">
        <ele>438</ele>
        <time>2022-10-19T12:31:10.587Z</time>
      </trkpt>
      <trkpt lat="43.52455" lon="5.63052">
        <ele>438</ele>
        <time>2022-10-19T12:31:11.587Z</time>
      </trkpt>
      <trkpt lat="43.52455" lon="5.63053">
        <ele>438</ele>
        <time>2022-10-19T12:31:12.587Z</time>
      </trkpt>
      <trkpt lat="43.52455" lon="5.63055">
        <ele>438</ele>
        <time>2022-10-19T12:31:13.587Z</time>
      </trkpt>
      <trkpt lat="43.52455" lon="5.63056">
        <ele>438</ele>
        <time>2022-10-19T12:31:14.587Z</time>
      </trkpt>
      <trkpt lat="43.52455" lon="5.63057">
        <ele>438</ele>
        <time>2022-10-19T12:31:15.587Z</time>
      </trkpt>
      <trkpt lat="43.52455" lon="5.63059">
        <ele>438</ele>
        <time>2022-10-19T12:31:16.587Z</time>
      </trkpt>
      <trkpt lat="43.52454" lon="5.6306">
        <ele>438</ele>
        <time>2022-10-19T12:31:17.587Z</time>
      </trkpt>
      <trkpt lat="43.52454" lon="5.63061">
        <ele>437</ele>
        <time>2022-10-19T12:31:18.587Z</time>
      </trkpt>
      <trkpt lat="43.52455" lon="5.63062">
        <ele>437</ele>
        <time>2022-10-19T12:31:19.587Z</time>
      </trkpt>
      <trkpt lat="43.52455" lon="5.63064">
        <ele>437</ele>
        <time>2022-10-19T12:31:20.587Z</time>
      </trkpt>
      <trkpt lat="43.52455" lon="5.63065">
        <ele>437</ele>
        <time>2022-10-19T12:31:21.587Z</time>
      </trkpt>
      <trkpt lat="43.52455" lon="5.63066">
        <ele>437</ele>
        <time>2022-10-19T12:31:22.587Z</time>
      </trkpt>
      <trkpt lat="43.52455" lon="5.63067">
        <ele>437</ele>
        <time>2022-10-19T12:31:23.587Z</time>
      </trkpt>
      <trkpt lat="43.52456" lon="5.63067">
        <ele>437</ele>
        <time>2022-10-19T12:31:24.587Z</time>
      </trkpt>
      <trkpt lat="43.52456" lon="5.63068">
        <ele>436</ele>
        <time>2022-10-19T12:31:25.587Z</time>
      </trkpt>
      <trkpt lat="43.52457" lon="5.63069">
        <ele>436</ele>
        <time>2022-10-19T12:31:26.587Z</time>
      </trkpt>
      <trkpt lat="43.52457" lon="5.63069">
        <ele>436</ele>
        <time>2022-10-19T12:31:27.587Z</time>
      </trkpt>
      <trkpt lat="43.52458" lon="5.6307">
        <ele>436</ele>
        <time>2022-10-19T12:31:28.587Z</time>
      </trkpt>
      <trkpt lat="43.52459" lon="5.63071">
        <ele>436</ele>
        <time>2022-10-19T12:31:29.587Z</time>
      </trkpt>
      <trkpt lat="43.5246" lon="5.63071">
        <ele>436</ele>
        <time>2022-10-19T12:31:30.587Z</time>
      </trkpt>
      <trkpt lat="43.5246" lon="5.63072">
        <ele>436</ele>
        <time>2022-10-19T12:31:31.587Z</time>
      </trkpt>
      <trkpt lat="43.52461" lon="5.63073">
        <ele>436</ele>
        <time>2022-10-19T12:31:32.587Z</time>
      </trkpt>
      <trkpt lat="43.52461" lon="5.63074">
        <ele>436</ele>
        <time>2022-10-19T12:31:33.587Z</time>
      </trkpt>
      <trkpt lat="43.52462" lon="5.63075">
        <ele>436</ele>
        <time>2022-10-19T12:31:34.587Z</time>
      </trkpt>
      <trkpt lat="43.52462" lon="5.63076">
        <ele>436</ele>
        <time>2022-10-19T12:31:35.587Z</time>
      </trkpt>
      <trkpt lat="43.52462" lon="5.63077">
        <ele>436</ele>
        <time>2022-10-19T12:31:36.587Z</time>
      </trkpt>
      <trkpt lat="43.52463" lon="5.63079">
        <ele>436</ele>
        <time>2022-10-19T12:31:37.587Z</time>
      </trkpt>
      <trkpt lat="43.52463" lon="5.6308">
        <ele>436</ele>
        <time>2022-10-19T12:31:38.587Z</time>
      </trkpt>
      <trkpt lat="43.52463" lon="5.63081">
        <ele>436</ele>
        <time>2022-10-19T12:31:39.587Z</time>
      </trkpt>
      <trkpt lat="43.52464" lon="5.63082">
        <ele>436</ele>
        <time>2022-10-19T12:31:40.587Z</time>
      </trkpt>
      <trkpt lat="43.52464" lon="5.63083">
        <ele>436</ele>
        <time>2022-10-19T12:31:41.587Z</time>
      </trkpt>
      <trkpt lat="43.52465" lon="5.63084">
        <ele>436</ele>
        <time>2022-10-19T12:31:42.587Z</time>
      </trkpt>
      <trkpt lat="43.52466" lon="5.63085">
        <ele>435</ele>
        <time>2022-10-19T12:31:43.587Z</time>
      </trkpt>
      <trkpt lat="43.52466" lon="5.63086">
        <ele>435</ele>
        <time>2022-10-19T12:31:44.587Z</time>
      </trkpt>
      <trkpt lat="43.52466" lon="5.63087">
        <ele>435</ele>
        <time>2022-10-19T12:31:45.587Z</time>
      </trkpt>
      <trkpt lat="43.52467" lon="5.63088">
        <ele>435</ele>
        <time>2022-10-19T12:31:46.587Z</time>
      </trkpt>
      <trkpt lat="43.52467" lon="5.6309">
        <ele>435</ele>
        <time>2022-10-19T12:31:47.587Z</time>
      </trkpt>
      <trkpt lat="43.52467" lon="5.63091">
        <ele>435</ele>
        <time>2022-10-19T12:31:48.587Z</time>
      </trkpt>
      <trkpt lat="43.52467" lon="5.63093">
        <ele>435</ele>
        <time>2022-10-19T12:31:49.587Z</time>
      </trkpt>
      <trkpt lat="43.52466" lon="5.63095">
        <ele>435</ele>
        <time>2022-10-19T12:31:50.587Z</time>
      </trkpt>
      <trkpt lat="43.52466" lon="5.63096">
        <ele>435</ele>
        <time>2022-10-19T12:31:51.587Z</time>
      </trkpt>
      <trkpt lat="43.52465" lon="5.63098">
        <ele>435</ele>
        <time>2022-10-19T12:31:52.587Z</time>
      </trkpt>
      <trkpt lat="43.52465" lon="5.631">
        <ele>435</ele>
        <time>2022-10-19T12:31:53.587Z</time>
      </trkpt>
      <trkpt lat="43.52465" lon="5.63101">
        <ele>435</ele>
        <time>2022-10-19T12:31:54.587Z</time>
      </trkpt>
      <trkpt lat="43.52464" lon="5.63102">
        <ele>435</ele>
        <time>2022-10-19T12:31:55.587Z</time>
      </trkpt>
      <trkpt lat="43.52464" lon="5.63104">
        <ele>435</ele>
        <time>2022-10-19T12:31:56.587Z</time>
      </trkpt>
      <trkpt lat="43.52464" lon="5.63105">
        <ele>435</ele>
        <time>2022-10-19T12:31:57.587Z</time>
      </trkpt>
      <trkpt lat="43.52464" lon="5.63107">
        <ele>435</ele>
        <time>2022-10-19T12:31:58.587Z</time>
      </trkpt>
      <trkpt lat="43.52463" lon="5.63108">
        <ele>435</ele>
        <time>2022-10-19T12:31:59.587Z</time>
      </trkpt>
      <trkpt lat="43.52463" lon="5.63109">
        <ele>435</ele>
        <time>2022-10-19T12:32:00.587Z</time>
      </trkpt>
      <trkpt lat="43.52462" lon="5.63111">
        <ele>435</ele>
        <time>2022-10-19T12:32:01.587Z</time>
      </trkpt>
      <trkpt lat="43.52462" lon="5.63113">
        <ele>435</ele>
        <time>2022-10-19T12:32:02.587Z</time>
      </trkpt>
      <trkpt lat="43.52462" lon="5.63115">
        <ele>435</ele>
        <time>2022-10-19T12:32:03.587Z</time>
      </trkpt>
      <trkpt lat="43.52462" lon="5.63116">
        <ele>435</ele>
        <time>2022-10-19T12:32:04.587Z</time>
      </trkpt>
      <trkpt lat="43.52462" lon="5.63118">
        <ele>435</ele>
        <time>2022-10-19T12:32:05.587Z</time>
      </trkpt>
      <trkpt lat="43.52462" lon="5.63119">
        <ele>435</ele>
        <time>2022-10-19T12:32:06.587Z</time>
      </trkpt>
      <trkpt lat="43.52462" lon="5.63121">
        <ele>435</ele>
        <time>2022-10-19T12:32:07.587Z</time>
      </trkpt>
      <trkpt lat="43.52462" lon="5.63123">
        <ele>435</ele>
        <time>2022-10-19T12:32:08.587Z</time>
      </trkpt>
      <trkpt lat="43.52462" lon="5.63124">
        <ele>435</ele>
        <time>2022-10-19T12:32:09.587Z</time>
      </trkpt>
      <trkpt lat="43.52462" lon="5.63126">
        <ele>435</ele>
        <time>2022-10-19T12:32:10.587Z</time>
      </trkpt>
      <trkpt lat="43.52462" lon="5.63128">
        <ele>435</ele>
        <time>2022-10-19T12:32:11.587Z</time>
      </trkpt>
      <trkpt lat="43.52463" lon="5.63129">
        <ele>435</ele>
        <time>2022-10-19T12:32:12.587Z</time>
      </trkpt>
      <trkpt lat="43.52463" lon="5.63131">
        <ele>434</ele>
        <time>2022-10-19T12:32:13.587Z</time>
      </trkpt>
      <trkpt lat="43.52463" lon="5.63132">
        <ele>434</ele>
        <time>2022-10-19T12:32:14.587Z</time>
      </trkpt>
      <trkpt lat="43.52464" lon="5.63134">
        <ele>434</ele>
        <time>2022-10-19T12:32:15.587Z</time>
      </trkpt>
      <trkpt lat="43.52464" lon="5.63135">
        <ele>434</ele>
        <time>2022-10-19T12:32:16.587Z</time>
      </trkpt>
      <trkpt lat="43.52464" lon="5.63137">
        <ele>434</ele>
        <time>2022-10-19T12:32:17.587Z</time>
      </trkpt>
      <trkpt lat="43.52465" lon="5.63138">
        <ele>434</ele>
        <time>2022-10-19T12:32:18.587Z</time>
      </trkpt>
      <trkpt lat="43.52465" lon="5.6314">
        <ele>434</ele>
        <time>2022-10-19T12:32:19.587Z</time>
      </trkpt>
      <trkpt lat="43.52465" lon="5.63142">
        <ele>434</ele>
        <time>2022-10-19T12:32:20.587Z</time>
      </trkpt>
      <trkpt lat="43.52465" lon="5.63143">
        <ele>434</ele>
        <time>2022-10-19T12:32:21.587Z</time>
      </trkpt>
      <trkpt lat="43.52466" lon="5.63144">
        <ele>434</ele>
        <time>2022-10-19T12:32:22.587Z</time>
      </trkpt>
      <trkpt lat="43.52466" lon="5.63146">
        <ele>433</ele>
        <time>2022-10-19T12:32:23.587Z</time>
      </trkpt>
      <trkpt lat="43.52466" lon="5.63147">
        <ele>433</ele>
        <time>2022-10-19T12:32:24.587Z</time>
      </trkpt>
      <trkpt lat="43.52467" lon="5.63149">
        <ele>433</ele>
        <time>2022-10-19T12:32:25.587Z</time>
      </trkpt>
      <trkpt lat="43.52467" lon="5.6315">
        <ele>433</ele>
        <time>2022-10-19T12:32:26.587Z</time>
      </trkpt>
      <trkpt lat="43.52467" lon="5.63152">
        <ele>433</ele>
        <time>2022-10-19T12:32:27.587Z</time>
      </trkpt>
      <trkpt lat="43.52467" lon="5.63153">
        <ele>432</ele>
        <time>2022-10-19T12:32:28.587Z</time>
      </trkpt>
      <trkpt lat="43.52468" lon="5.63155">
        <ele>432</ele>
        <time>2022-10-19T12:32:29.587Z</time>
      </trkpt>
      <trkpt lat="43.52469" lon="5.63156">
        <ele>432</ele>
        <time>2022-10-19T12:32:30.587Z</time>
      </trkpt>
      <trkpt lat="43.52469" lon="5.63158">
        <ele>432</ele>
        <time>2022-10-19T12:32:31.587Z</time>
      </trkpt>
      <trkpt lat="43.5247" lon="5.63159">
        <ele>432</ele>
        <time>2022-10-19T12:32:32.587Z</time>
      </trkpt>
      <trkpt lat="43.5247" lon="5.63161">
        <ele>432</ele>
        <time>2022-10-19T12:32:33.587Z</time>
      </trkpt>
      <trkpt lat="43.52471" lon="5.63162">
        <ele>432</ele>
        <time>2022-10-19T12:32:34.587Z</time>
      </trkpt>
      <trkpt lat="43.52471" lon="5.63164">
        <ele>432</ele>
        <time>2022-10-19T12:32:35.587Z</time>
      </trkpt>
      <trkpt lat="43.52472" lon="5.63165">
        <ele>432</ele>
        <time>2022-10-19T12:32:36.587Z</time>
      </trkpt>
      <trkpt lat="43.52472" lon="5.63166">
        <ele>432</ele>
        <time>2022-10-19T12:32:37.587Z</time>
      </trkpt>
      <trkpt lat="43.52473" lon="5.63168">
        <ele>432</ele>
        <time>2022-10-19T12:32:38.587Z</time>
      </trkpt>
      <trkpt lat="43.52474" lon="5.63169">
        <ele>432</ele>
        <time>2022-10-19T12:32:39.587Z</time>
      </trkpt>
      <trkpt lat="43.52475" lon="5.6317">
        <ele>432</ele>
        <time>2022-10-19T12:32:40.587Z</time>
      </trkpt>
      <trkpt lat="43.52476" lon="5.63172">
        <ele>432</ele>
        <time>2022-10-19T12:32:41.587Z</time>
      </trkpt>
      <trkpt lat="43.52477" lon="5.63172">
        <ele>432</ele>
        <time>2022-10-19T12:32:42.587Z</time>
      </trkpt>
      <trkpt lat="43.52478" lon="5.63174">
        <ele>432</ele>
        <time>2022-10-19T12:32:43.587Z</time>
      </trkpt>
      <trkpt lat="43.52479" lon="5.63175">
        <ele>432</ele>
        <time>2022-10-19T12:32:44.587Z</time>
      </trkpt>
      <trkpt lat="43.5248" lon="5.63176">
        <ele>432</ele>
        <time>2022-10-19T12:32:45.587Z</time>
      </trkpt>
      <trkpt lat="43.52482" lon="5.63177">
        <ele>432</ele>
        <time>2022-10-19T12:32:46.587Z</time>
      </trkpt>
      <trkpt lat="43.52482" lon="5.63179">
        <ele>432</ele>
        <time>2022-10-19T12:32:47.587Z</time>
      </trkpt>
      <trkpt lat="43.52483" lon="5.6318">
        <ele>432</ele>
        <time>2022-10-19T12:32:48.587Z</time>
      </trkpt>
      <trkpt lat="43.52484" lon="5.63182">
        <ele>432</ele>
        <time>2022-10-19T12:32:49.587Z</time>
      </trkpt>
      <trkpt lat="43.52484" lon="5.63183">
        <ele>433</ele>
        <time>2022-10-19T12:32:50.587Z</time>
      </trkpt>
      <trkpt lat="43.52484" lon="5.63185">
        <ele>432</ele>
        <time>2022-10-19T12:32:51.587Z</time>
      </trkpt>
      <trkpt lat="43.52485" lon="5.63187">
        <ele>432</ele>
        <time>2022-10-19T12:32:52.587Z</time>
      </trkpt>
      <trkpt lat="43.52485" lon="5.63188">
        <ele>433</ele>
        <time>2022-10-19T12:32:53.587Z</time>
      </trkpt>
      <trkpt lat="43.52486" lon="5.6319">
        <ele>433</ele>
        <time>2022-10-19T12:32:54.587Z</time>
      </trkpt>
      <trkpt lat="43.52486" lon="5.63192">
        <ele>433</ele>
        <time>2022-10-19T12:32:55.587Z</time>
      </trkpt>
      <trkpt lat="43.52486" lon="5.63193">
        <ele>432</ele>
        <time>2022-10-19T12:32:56.587Z</time>
      </trkpt>
      <trkpt lat="43.52486" lon="5.63195">
        <ele>432</ele>
        <time>2022-10-19T12:32:57.587Z</time>
      </trkpt>
      <trkpt lat="43.52486" lon="5.63197">
        <ele>432</ele>
        <time>2022-10-19T12:32:58.587Z</time>
      </trkpt>
      <trkpt lat="43.52487" lon="5.63198">
        <ele>432</ele>
        <time>2022-10-19T12:32:59.587Z</time>
      </trkpt>
      <trkpt lat="43.52487" lon="5.632">
        <ele>432</ele>
        <time>2022-10-19T12:33:00.587Z</time>
      </trkpt>
      <trkpt lat="43.52487" lon="5.63202">
        <ele>432</ele>
        <time>2022-10-19T12:33:01.587Z</time>
      </trkpt>
      <trkpt lat="43.52487" lon="5.63203">
        <ele>432</ele>
        <time>2022-10-19T12:33:02.587Z</time>
      </trkpt>
      <trkpt lat="43.52487" lon="5.63205">
        <ele>432</ele>
        <time>2022-10-19T12:33:03.587Z</time>
      </trkpt>
      <trkpt lat="43.52487" lon="5.63206">
        <ele>432</ele>
        <time>2022-10-19T12:33:04.587Z</time>
      </trkpt>
      <trkpt lat="43.52488" lon="5.63208">
        <ele>432</ele>
        <time>2022-10-19T12:33:05.587Z</time>
      </trkpt>
      <trkpt lat="43.52488" lon="5.63209">
        <ele>432</ele>
        <time>2022-10-19T12:33:06.587Z</time>
      </trkpt>
      <trkpt lat="43.52488" lon="5.63211">
        <ele>432</ele>
        <time>2022-10-19T12:33:07.587Z</time>
      </trkpt>
      <trkpt lat="43.52488" lon="5.63211">
        <ele>432</ele>
        <time>2022-10-19T12:33:08.587Z</time>
      </trkpt>
      <trkpt lat="43.52488" lon="5.63211">
        <ele>432</ele>
        <time>2022-10-19T12:33:09.587Z</time>
      </trkpt>
      <trkpt lat="43.52489" lon="5.63211">
        <ele>432</ele>
        <time>2022-10-19T12:33:10.587Z</time>
      </trkpt>
      <trkpt lat="43.52489" lon="5.63211">
        <ele>432</ele>
        <time>2022-10-19T12:33:11.587Z</time>
      </trkpt>
      <trkpt lat="43.52489" lon="5.63211">
        <ele>432</ele>
        <time>2022-10-19T12:33:12.587Z</time>
      </trkpt>
      <trkpt lat="43.52489" lon="5.63211">
        <ele>432</ele>
        <time>2022-10-19T12:33:13.587Z</time>
      </trkpt>
      <trkpt lat="43.52489" lon="5.63211">
        <ele>432</ele>
        <time>2022-10-19T12:33:14.587Z</time>
      </trkpt>
      <trkpt lat="43.52489" lon="5.63211">
        <ele>432</ele>
        <time>2022-10-19T12:33:15.587Z</time>
      </trkpt>
      <trkpt lat="43.52489" lon="5.63211">
        <ele>432</ele>
        <time>2022-10-19T12:33:16.587Z</time>
      </trkpt>
      <trkpt lat="43.52489" lon="5.63211">
        <ele>432</ele>
        <time>2022-10-19T12:33:17.587Z</time>
      </trkpt>
      <trkpt lat="43.52489" lon="5.63211">
        <ele>432</ele>
        <time>2022-10-19T12:33:18.587Z</time>
      </trkpt>
      <trkpt lat="43.52489" lon="5.63211">
        <ele>432</ele>
        <time>2022-10-19T12:33:19.587Z</time>
      </trkpt>
      <trkpt lat="43.52489" lon="5.63211">
        <ele>432</ele>
        <time>2022-10-19T12:33:20.587Z</time>
      </trkpt>
      <trkpt lat="43.52489" lon="5.63211">
        <ele>432</ele>
        <time>2022-10-19T12:33:21.587Z</time>
      </trkpt>
      <trkpt lat="43.52489" lon="5.63211">
        <ele>432</ele>
        <time>2022-10-19T12:33:22.587Z</time>
      </trkpt>
      <trkpt lat="43.52489" lon="5.63211">
        <ele>432</ele>
        <time>2022-10-19T12:33:23.587Z</time>
      </trkpt>
      <trkpt lat="43.52489" lon="5.63211">
        <ele>432</ele>
        <time>2022-10-19T12:33:24.587Z</time>
      </trkpt>
      <trkpt lat="43.52489" lon="5.63211">
        <ele>432</ele>
        <time>2022-10-19T12:33:25.587Z</time>
      </trkpt>
      <trkpt lat="43.52489" lon="5.63211">
        <ele>432</ele>
        <time>2022-10-19T12:33:26.587Z</time>
      </trkpt>
      <trkpt lat="43.52489" lon="5.63211">
        <ele>432</ele>
        <time>2022-10-19T12:33:27.587Z</time>
      </trkpt>
      <trkpt lat="43.52489" lon="5.63211">
        <ele>432</ele>
        <time>2022-10-19T12:33:28.587Z</time>
      </trkpt>
      <trkpt lat="43.52489" lon="5.63211">
        <ele>432</ele>
        <time>2022-10-19T12:33:29.587Z</time>
      </trkpt>
      <trkpt lat="43.52489" lon="5.63211">
        <ele>432</ele>
        <time>2022-10-19T12:33:30.587Z</time>
      </trkpt>
      <trkpt lat="43.5249" lon="5.63211">
        <ele>432</ele>
        <time>2022-10-19T12:33:31.587Z</time>
      </trkpt>
      <trkpt lat="43.5249" lon="5.63211">
        <ele>433</ele>
        <time>2022-10-19T12:33:32.587Z</time>
      </trkpt>
      <trkpt lat="43.5249" lon="5.63211">
        <ele>433</ele>
        <time>2022-10-19T12:33:33.587Z</time>
      </trkpt>
      <trkpt lat="43.5249" lon="5.63211">
        <ele>433</ele>
        <time>2022-10-19T12:33:34.587Z</time>
      </trkpt>
      <trkpt lat="43.5249" lon="5.63211">
        <ele>433</ele>
        <time>2022-10-19T12:33:35.587Z</time>
      </trkpt>
      <trkpt lat="43.5249" lon="5.63211">
        <ele>433</ele>
        <time>2022-10-19T12:33:36.587Z</time>
      </trkpt>
      <trkpt lat="43.5249" lon="5.63211">
        <ele>433</ele>
        <time>2022-10-19T12:33:37.587Z</time>
      </trkpt>
      <trkpt lat="43.52489" lon="5.63211">
        <ele>433</ele>
        <time>2022-10-19T12:33:38.587Z</time>
      </trkpt>
      <trkpt lat="43.52489" lon="5.63211">
        <ele>433</ele>
        <time>2022-10-19T12:33:39.587Z</time>
      </trkpt>
      <trkpt lat="43.52489" lon="5.63211">
        <ele>433</ele>
        <time>2022-10-19T12:33:40.587Z</time>
      </trkpt>
      <trkpt lat="43.52489" lon="5.63211">
        <ele>433</ele>
        <time>2022-10-19T12:33:41.587Z</time>
      </trkpt>
      <trkpt lat="43.52489" lon="5.63211">
        <ele>433</ele>
        <time>2022-10-19T12:33:42.587Z</time>
      </trkpt>
      <trkpt lat="43.52489" lon="5.63211">
        <ele>433</ele>
        <time>2022-10-19T12:33:43.587Z</time>
      </trkpt>
      <trkpt lat="43.52489" lon="5.63211">
        <ele>433</ele>
        <time>2022-10-19T12:33:44.587Z</time>
      </trkpt>
      <trkpt lat="43.52489" lon="5.63211">
        <ele>433</ele>
        <time>2022-10-19T12:33:45.587Z</time>
      </trkpt>
      <trkpt lat="43.52489" lon="5.63211">
        <ele>433</ele>
        <time>2022-10-19T12:33:46.587Z</time>
      </trkpt>
      <trkpt lat="43.52489" lon="5.63211">
        <ele>433</ele>
        <time>2022-10-19T12:33:47.587Z</time>
      </trkpt>
      <trkpt lat="43.52489" lon="5.63211">
        <ele>433</ele>
        <time>2022-10-19T12:33:48.587Z</time>
      </trkpt>
      <trkpt lat="43.52489" lon="5.63211">
        <ele>433</ele>
        <time>2022-10-19T12:33:49.587Z</time>
      </trkpt>
      <trkpt lat="43.52489" lon="5.63211">
        <ele>433</ele>
        <time>2022-10-19T12:33:50.587Z</time>
      </trkpt>
      <trkpt lat="43.52489" lon="5.63211">
        <ele>433</ele>
        <time>2022-10-19T12:33:51.587Z</time>
      </trkpt>
      <trkpt lat="43.52489" lon="5.63211">
        <ele>433</ele>
        <time>2022-10-19T12:33:52.587Z</time>
      </trkpt>
      <trkpt lat="43.52489" lon="5.63211">
        <ele>433</ele>
        <time>2022-10-19T12:33:53.587Z</time>
      </trkpt>
      <trkpt lat="43.52489" lon="5.63211">
        <ele>433</ele>
        <time>2022-10-19T12:33:54.587Z</time>
      </trkpt>
      <trkpt lat="43.52489" lon="5.63211">
        <ele>433</ele>
        <time>2022-10-19T12:33:55.587Z</time>
      </trkpt>
      <trkpt lat="43.52489" lon="5.63211">
        <ele>433</ele>
        <time>2022-10-19T12:33:56.587Z</time>
      </trkpt>
      <trkpt lat="43.52489" lon="5.63211">
        <ele>433</ele>
        <time>2022-10-19T12:33:57.587Z</time>
      </trkpt>
      <trkpt lat="43.52489" lon="5.63211">
        <ele>433</ele>
        <time>2022-10-19T12:33:58.587Z</time>
      </trkpt>
      <trkpt lat="43.52489" lon="5.63211">
        <ele>433</ele>
        <time>2022-10-19T12:33:59.587Z</time>
      </trkpt>
      <trkpt lat="43.52489" lon="5.63211">
        <ele>433</ele>
        <time>2022-10-19T12:34:00.587Z</time>
      </trkpt>
      <trkpt lat="43.52489" lon="5.63211">
        <ele>433</ele>
        <time>2022-10-19T12:34:01.587Z</time>
      </trkpt>
      <trkpt lat="43.52489" lon="5.63211">
        <ele>433</ele>
        <time>2022-10-19T12:34:02.587Z</time>
      </trkpt>
      <trkpt lat="43.52489" lon="5.63212">
        <ele>433</ele>
        <time>2022-10-19T12:34:03.587Z</time>
      </trkpt>
      <trkpt lat="43.52489" lon="5.63211">
        <ele>433</ele>
        <time>2022-10-19T12:34:04.587Z</time>
      </trkpt>
      <trkpt lat="43.52489" lon="5.63211">
        <ele>433</ele>
        <time>2022-10-19T12:34:05.587Z</time>
      </trkpt>
      <trkpt lat="43.52489" lon="5.63211">
        <ele>433</ele>
        <time>2022-10-19T12:34:06.587Z</time>
      </trkpt>
      <trkpt lat="43.52489" lon="5.63211">
        <ele>433</ele>
        <time>2022-10-19T12:34:07.587Z</time>
      </trkpt>
      <trkpt lat="43.52489" lon="5.63212">
        <ele>433</ele>
        <time>2022-10-19T12:34:08.587Z</time>
      </trkpt>
      <trkpt lat="43.52489" lon="5.63213">
        <ele>433</ele>
        <time>2022-10-19T12:34:09.587Z</time>
      </trkpt>
      <trkpt lat="43.5249" lon="5.63214">
        <ele>433</ele>
        <time>2022-10-19T12:34:10.587Z</time>
      </trkpt>
      <trkpt lat="43.5249" lon="5.63216">
        <ele>433</ele>
        <time>2022-10-19T12:34:11.587Z</time>
      </trkpt>
      <trkpt lat="43.5249" lon="5.63218">
        <ele>433</ele>
        <time>2022-10-19T12:34:12.587Z</time>
      </trkpt>
      <trkpt lat="43.5249" lon="5.63219">
        <ele>433</ele>
        <time>2022-10-19T12:34:13.587Z</time>
      </trkpt>
      <trkpt lat="43.52489" lon="5.63221">
        <ele>433</ele>
        <time>2022-10-19T12:34:14.587Z</time>
      </trkpt>
      <trkpt lat="43.5249" lon="5.63222">
        <ele>433</ele>
        <time>2022-10-19T12:34:15.587Z</time>
      </trkpt>
      <trkpt lat="43.5249" lon="5.63224">
        <ele>433</ele>
        <time>2022-10-19T12:34:16.587Z</time>
      </trkpt>
      <trkpt lat="43.5249" lon="5.63226">
        <ele>433</ele>
        <time>2022-10-19T12:34:17.587Z</time>
      </trkpt>
      <trkpt lat="43.5249" lon="5.63228">
        <ele>433</ele>
        <time>2022-10-19T12:34:18.587Z</time>
      </trkpt>
      <trkpt lat="43.5249" lon="5.6323">
        <ele>433</ele>
        <time>2022-10-19T12:34:19.587Z</time>
      </trkpt>
      <trkpt lat="43.5249" lon="5.63231">
        <ele>433</ele>
        <time>2022-10-19T12:34:20.587Z</time>
      </trkpt>
      <trkpt lat="43.5249" lon="5.63233">
        <ele>433</ele>
        <time>2022-10-19T12:34:21.587Z</time>
      </trkpt>
      <trkpt lat="43.52491" lon="5.63234">
        <ele>433</ele>
        <time>2022-10-19T12:34:22.587Z</time>
      </trkpt>
      <trkpt lat="43.52491" lon="5.63236">
        <ele>433</ele>
        <time>2022-10-19T12:34:23.587Z</time>
      </trkpt>
      <trkpt lat="43.52492" lon="5.63237">
        <ele>433</ele>
        <time>2022-10-19T12:34:24.587Z</time>
      </trkpt>
      <trkpt lat="43.52492" lon="5.63239">
        <ele>433</ele>
        <time>2022-10-19T12:34:25.587Z</time>
      </trkpt>
      <trkpt lat="43.52493" lon="5.63241">
        <ele>433</ele>
        <time>2022-10-19T12:34:26.587Z</time>
      </trkpt>
      <trkpt lat="43.52493" lon="5.63242">
        <ele>433</ele>
        <time>2022-10-19T12:34:27.587Z</time>
      </trkpt>
      <trkpt lat="43.52494" lon="5.63244">
        <ele>433</ele>
        <time>2022-10-19T12:34:28.587Z</time>
      </trkpt>
      <trkpt lat="43.52494" lon="5.63245">
        <ele>433</ele>
        <time>2022-10-19T12:34:29.587Z</time>
      </trkpt>
      <trkpt lat="43.52495" lon="5.63247">
        <ele>433</ele>
        <time>2022-10-19T12:34:30.587Z</time>
      </trkpt>
      <trkpt lat="43.52496" lon="5.63248">
        <ele>433</ele>
        <time>2022-10-19T12:34:31.587Z</time>
      </trkpt>
      <trkpt lat="43.52496" lon="5.6325">
        <ele>433</ele>
        <time>2022-10-19T12:34:32.587Z</time>
      </trkpt>
      <trkpt lat="43.52497" lon="5.63252">
        <ele>433</ele>
        <time>2022-10-19T12:34:33.587Z</time>
      </trkpt>
      <trkpt lat="43.52497" lon="5.63253">
        <ele>433</ele>
        <time>2022-10-19T12:34:34.587Z</time>
      </trkpt>
      <trkpt lat="43.52498" lon="5.63255">
        <ele>433</ele>
        <time>2022-10-19T12:34:35.587Z</time>
      </trkpt>
      <trkpt lat="43.52499" lon="5.63256">
        <ele>433</ele>
        <time>2022-10-19T12:34:36.587Z</time>
      </trkpt>
      <trkpt lat="43.52499" lon="5.63258">
        <ele>433</ele>
        <time>2022-10-19T12:34:37.587Z</time>
      </trkpt>
      <trkpt lat="43.525" lon="5.6326">
        <ele>433</ele>
        <time>2022-10-19T12:34:38.587Z</time>
      </trkpt>
      <trkpt lat="43.52501" lon="5.63261">
        <ele>433</ele>
        <time>2022-10-19T12:34:39.587Z</time>
      </trkpt>
      <trkpt lat="43.52501" lon="5.63263">
        <ele>433</ele>
        <time>2022-10-19T12:34:40.587Z</time>
      </trkpt>
      <trkpt lat="43.52502" lon="5.63264">
        <ele>433</ele>
        <time>2022-10-19T12:34:41.587Z</time>
      </trkpt>
      <trkpt lat="43.52503" lon="5.63266">
        <ele>433</ele>
        <time>2022-10-19T12:34:42.587Z</time>
      </trkpt>
      <trkpt lat="43.52503" lon="5.63267">
        <ele>433</ele>
        <time>2022-10-19T12:34:43.587Z</time>
      </trkpt>
      <trkpt lat="43.52504" lon="5.63269">
        <ele>433</ele>
        <time>2022-10-19T12:34:44.587Z</time>
      </trkpt>
      <trkpt lat="43.52505" lon="5.63271">
        <ele>433</ele>
        <time>2022-10-19T12:34:45.587Z</time>
      </trkpt>
      <trkpt lat="43.52505" lon="5.63272">
        <ele>433</ele>
        <time>2022-10-19T12:34:46.587Z</time>
      </trkpt>
      <trkpt lat="43.52506" lon="5.63274">
        <ele>433</ele>
        <time>2022-10-19T12:34:47.587Z</time>
      </trkpt>
      <trkpt lat="43.52507" lon="5.63275">
        <ele>433</ele>
        <time>2022-10-19T12:34:48.587Z</time>
      </trkpt>
      <trkpt lat="43.52507" lon="5.63277">
        <ele>433</ele>
        <time>2022-10-19T12:34:49.587Z</time>
      </trkpt>
      <trkpt lat="43.52508" lon="5.63278">
        <ele>433</ele>
        <time>2022-10-19T12:34:50.587Z</time>
      </trkpt>
      <trkpt lat="43.52508" lon="5.6328">
        <ele>433</ele>
        <time>2022-10-19T12:34:51.587Z</time>
      </trkpt>
      <trkpt lat="43.52509" lon="5.63282">
        <ele>433</ele>
        <time>2022-10-19T12:34:52.587Z</time>
      </trkpt>
      <trkpt lat="43.5251" lon="5.63283">
        <ele>433</ele>
        <time>2022-10-19T12:34:53.587Z</time>
      </trkpt>
      <trkpt lat="43.5251" lon="5.63285">
        <ele>433</ele>
        <time>2022-10-19T12:34:54.587Z</time>
      </trkpt>
      <trkpt lat="43.52511" lon="5.63286">
        <ele>433</ele>
        <time>2022-10-19T12:34:55.587Z</time>
      </trkpt>
      <trkpt lat="43.52511" lon="5.63288">
        <ele>433</ele>
        <time>2022-10-19T12:34:56.587Z</time>
      </trkpt>
      <trkpt lat="43.52512" lon="5.63289">
        <ele>433</ele>
        <time>2022-10-19T12:34:57.587Z</time>
      </trkpt>
      <trkpt lat="43.52513" lon="5.63291">
        <ele>433</ele>
        <time>2022-10-19T12:34:58.587Z</time>
      </trkpt>
      <trkpt lat="43.52513" lon="5.63292">
        <ele>434</ele>
        <time>2022-10-19T12:34:59.587Z</time>
      </trkpt>
      <trkpt lat="43.52514" lon="5.63294">
        <ele>434</ele>
        <time>2022-10-19T12:35:00.587Z</time>
      </trkpt>
      <trkpt lat="43.52514" lon="5.63295">
        <ele>433</ele>
        <time>2022-10-19T12:35:01.587Z</time>
      </trkpt>
      <trkpt lat="43.52515" lon="5.63297">
        <ele>433</ele>
        <time>2022-10-19T12:35:02.587Z</time>
      </trkpt>
      <trkpt lat="43.52516" lon="5.63298">
        <ele>433</ele>
        <time>2022-10-19T12:35:03.587Z</time>
      </trkpt>
      <trkpt lat="43.52516" lon="5.633">
        <ele>433</ele>
        <time>2022-10-19T12:35:04.587Z</time>
      </trkpt>
      <trkpt lat="43.52517" lon="5.63302">
        <ele>433</ele>
        <time>2022-10-19T12:35:05.587Z</time>
      </trkpt>
      <trkpt lat="43.52517" lon="5.63303">
        <ele>433</ele>
        <time>2022-10-19T12:35:06.587Z</time>
      </trkpt>
      <trkpt lat="43.52518" lon="5.63305">
        <ele>433</ele>
        <time>2022-10-19T12:35:07.587Z</time>
      </trkpt>
      <trkpt lat="43.52519" lon="5.63307">
        <ele>433</ele>
        <time>2022-10-19T12:35:08.587Z</time>
      </trkpt>
      <trkpt lat="43.52519" lon="5.63308">
        <ele>433</ele>
        <time>2022-10-19T12:35:09.587Z</time>
      </trkpt>
      <trkpt lat="43.5252" lon="5.6331">
        <ele>433</ele>
        <time>2022-10-19T12:35:10.587Z</time>
      </trkpt>
      <trkpt lat="43.52521" lon="5.63311">
        <ele>433</ele>
        <time>2022-10-19T12:35:11.587Z</time>
      </trkpt>
      <trkpt lat="43.52521" lon="5.63313">
        <ele>433</ele>
        <time>2022-10-19T12:35:12.587Z</time>
      </trkpt>
      <trkpt lat="43.52522" lon="5.63314">
        <ele>433</ele>
        <time>2022-10-19T12:35:13.587Z</time>
      </trkpt>
      <trkpt lat="43.52523" lon="5.63316">
        <ele>432</ele>
        <time>2022-10-19T12:35:14.587Z</time>
      </trkpt>
      <trkpt lat="43.52523" lon="5.63317">
        <ele>432</ele>
        <time>2022-10-19T12:35:15.587Z</time>
      </trkpt>
      <trkpt lat="43.52524" lon="5.63319">
        <ele>432</ele>
        <time>2022-10-19T12:35:16.587Z</time>
      </trkpt>
      <trkpt lat="43.52524" lon="5.6332">
        <ele>432</ele>
        <time>2022-10-19T12:35:17.587Z</time>
      </trkpt>
      <trkpt lat="43.52525" lon="5.63322">
        <ele>432</ele>
        <time>2022-10-19T12:35:18.587Z</time>
      </trkpt>
      <trkpt lat="43.52526" lon="5.63323">
        <ele>432</ele>
        <time>2022-10-19T12:35:19.587Z</time>
      </trkpt>
      <trkpt lat="43.52526" lon="5.63325">
        <ele>433</ele>
        <time>2022-10-19T12:35:20.587Z</time>
      </trkpt>
      <trkpt lat="43.52527" lon="5.63327">
        <ele>433</ele>
        <time>2022-10-19T12:35:21.587Z</time>
      </trkpt>
      <trkpt lat="43.52528" lon="5.63328">
        <ele>433</ele>
        <time>2022-10-19T12:35:22.587Z</time>
      </trkpt>
      <trkpt lat="43.52528" lon="5.63329">
        <ele>433</ele>
        <time>2022-10-19T12:35:23.587Z</time>
      </trkpt>
      <trkpt lat="43.52529" lon="5.6333">
        <ele>433</ele>
        <time>2022-10-19T12:35:24.587Z</time>
      </trkpt>
      <trkpt lat="43.5253" lon="5.63332">
        <ele>433</ele>
        <time>2022-10-19T12:35:25.587Z</time>
      </trkpt>
      <trkpt lat="43.52531" lon="5.63334">
        <ele>433</ele>
        <time>2022-10-19T12:35:26.587Z</time>
      </trkpt>
      <trkpt lat="43.52531" lon="5.63335">
        <ele>433</ele>
        <time>2022-10-19T12:35:27.587Z</time>
      </trkpt>
      <trkpt lat="43.52532" lon="5.63336">
        <ele>433</ele>
        <time>2022-10-19T12:35:28.587Z</time>
      </trkpt>
      <trkpt lat="43.52533" lon="5.63338">
        <ele>433</ele>
        <time>2022-10-19T12:35:29.587Z</time>
      </trkpt>
      <trkpt lat="43.52534" lon="5.63339">
        <ele>433</ele>
        <time>2022-10-19T12:35:30.587Z</time>
      </trkpt>
      <trkpt lat="43.52535" lon="5.63341">
        <ele>433</ele>
        <time>2022-10-19T12:35:31.587Z</time>
      </trkpt>
      <trkpt lat="43.52535" lon="5.63342">
        <ele>433</ele>
        <time>2022-10-19T12:35:32.587Z</time>
      </trkpt>
      <trkpt lat="43.52536" lon="5.63343">
        <ele>433</ele>
        <time>2022-10-19T12:35:33.587Z</time>
      </trkpt>
      <trkpt lat="43.52537" lon="5.63345">
        <ele>433</ele>
        <time>2022-10-19T12:35:34.587Z</time>
      </trkpt>
      <trkpt lat="43.52538" lon="5.63346">
        <ele>433</ele>
        <time>2022-10-19T12:35:35.587Z</time>
      </trkpt>
      <trkpt lat="43.52538" lon="5.63348">
        <ele>433</ele>
        <time>2022-10-19T12:35:36.587Z</time>
      </trkpt>
      <trkpt lat="43.52538" lon="5.6335">
        <ele>433</ele>
        <time>2022-10-19T12:35:37.587Z</time>
      </trkpt>
      <trkpt lat="43.52539" lon="5.63351">
        <ele>433</ele>
        <time>2022-10-19T12:35:38.587Z</time>
      </trkpt>
      <trkpt lat="43.52539" lon="5.63353">
        <ele>433</ele>
        <time>2022-10-19T12:35:39.587Z</time>
      </trkpt>
      <trkpt lat="43.5254" lon="5.63355">
        <ele>433</ele>
        <time>2022-10-19T12:35:40.587Z</time>
      </trkpt>
      <trkpt lat="43.5254" lon="5.63356">
        <ele>433</ele>
        <time>2022-10-19T12:35:41.587Z</time>
      </trkpt>
      <trkpt lat="43.52541" lon="5.63358">
        <ele>433</ele>
        <time>2022-10-19T12:35:42.587Z</time>
      </trkpt>
      <trkpt lat="43.52542" lon="5.63359">
        <ele>433</ele>
        <time>2022-10-19T12:35:43.587Z</time>
      </trkpt>
      <trkpt lat="43.52542" lon="5.63361">
        <ele>433</ele>
        <time>2022-10-19T12:35:44.587Z</time>
      </trkpt>
      <trkpt lat="43.52543" lon="5.63362">
        <ele>433</ele>
        <time>2022-10-19T12:35:45.587Z</time>
      </trkpt>
      <trkpt lat="43.52544" lon="5.63363">
        <ele>433</ele>
        <time>2022-10-19T12:35:46.587Z</time>
      </trkpt>
      <trkpt lat="43.52545" lon="5.63365">
        <ele>433</ele>
        <time>2022-10-19T12:35:47.587Z</time>
      </trkpt>
      <trkpt lat="43.52546" lon="5.63366">
        <ele>433</ele>
        <time>2022-10-19T12:35:48.587Z</time>
      </trkpt>
      <trkpt lat="43.52546" lon="5.63367">
        <ele>433</ele>
        <time>2022-10-19T12:35:49.587Z</time>
      </trkpt>
      <trkpt lat="43.52547" lon="5.63369">
        <ele>433</ele>
        <time>2022-10-19T12:35:50.587Z</time>
      </trkpt>
      <trkpt lat="43.52548" lon="5.6337">
        <ele>433</ele>
        <time>2022-10-19T12:35:51.587Z</time>
      </trkpt>
      <trkpt lat="43.52549" lon="5.63371">
        <ele>433</ele>
        <time>2022-10-19T12:35:52.587Z</time>
      </trkpt>
      <trkpt lat="43.5255" lon="5.63373">
        <ele>433</ele>
        <time>2022-10-19T12:35:53.587Z</time>
      </trkpt>
      <trkpt lat="43.52551" lon="5.63374">
        <ele>433</ele>
        <time>2022-10-19T12:35:54.587Z</time>
      </trkpt>
      <trkpt lat="43.52552" lon="5.63375">
        <ele>433</ele>
        <time>2022-10-19T12:35:55.587Z</time>
      </trkpt>
      <trkpt lat="43.52553" lon="5.63376">
        <ele>433</ele>
        <time>2022-10-19T12:35:56.587Z</time>
      </trkpt>
      <trkpt lat="43.52554" lon="5.63377">
        <ele>433</ele>
        <time>2022-10-19T12:35:57.587Z</time>
      </trkpt>
      <trkpt lat="43.52555" lon="5.63379">
        <ele>433</ele>
        <time>2022-10-19T12:35:58.587Z</time>
      </trkpt>
      <trkpt lat="43.52556" lon="5.6338">
        <ele>432</ele>
        <time>2022-10-19T12:35:59.587Z</time>
      </trkpt>
      <trkpt lat="43.52557" lon="5.63382">
        <ele>432</ele>
        <time>2022-10-19T12:36:00.587Z</time>
      </trkpt>
      <trkpt lat="43.52558" lon="5.63383">
        <ele>432</ele>
        <time>2022-10-19T12:36:01.587Z</time>
      </trkpt>
      <trkpt lat="43.52559" lon="5.63384">
        <ele>432</ele>
        <time>2022-10-19T12:36:02.587Z</time>
      </trkpt>
      <trkpt lat="43.5256" lon="5.63385">
        <ele>432</ele>
        <time>2022-10-19T12:36:03.587Z</time>
      </trkpt>
      <trkpt lat="43.52561" lon="5.63386">
        <ele>432</ele>
        <time>2022-10-19T12:36:04.587Z</time>
      </trkpt>
      <trkpt lat="43.52562" lon="5.63387">
        <ele>432</ele>
        <time>2022-10-19T12:36:05.587Z</time>
      </trkpt>
      <trkpt lat="43.52563" lon="5.63388">
        <ele>432</ele>
        <time>2022-10-19T12:36:06.587Z</time>
      </trkpt>
      <trkpt lat="43.52564" lon="5.6339">
        <ele>432</ele>
        <time>2022-10-19T12:36:07.587Z</time>
      </trkpt>
      <trkpt lat="43.52565" lon="5.63391">
        <ele>432</ele>
        <time>2022-10-19T12:36:08.587Z</time>
      </trkpt>
      <trkpt lat="43.52566" lon="5.63392">
        <ele>432</ele>
        <time>2022-10-19T12:36:09.587Z</time>
      </trkpt>
      <trkpt lat="43.52567" lon="5.63393">
        <ele>432</ele>
        <time>2022-10-19T12:36:10.587Z</time>
      </trkpt>
      <trkpt lat="43.52568" lon="5.63394">
        <ele>432</ele>
        <time>2022-10-19T12:36:11.587Z</time>
      </trkpt>
      <trkpt lat="43.52569" lon="5.63396">
        <ele>432</ele>
        <time>2022-10-19T12:36:12.587Z</time>
      </trkpt>
      <trkpt lat="43.5257" lon="5.63397">
        <ele>432</ele>
        <time>2022-10-19T12:36:13.587Z</time>
      </trkpt>
      <trkpt lat="43.52571" lon="5.63398">
        <ele>432</ele>
        <time>2022-10-19T12:36:14.587Z</time>
      </trkpt>
      <trkpt lat="43.52572" lon="5.63399">
        <ele>431</ele>
        <time>2022-10-19T12:36:15.587Z</time>
      </trkpt>
      <trkpt lat="43.52573" lon="5.634">
        <ele>431</ele>
        <time>2022-10-19T12:36:16.587Z</time>
      </trkpt>
      <trkpt lat="43.52574" lon="5.63402">
        <ele>431</ele>
        <time>2022-10-19T12:36:17.587Z</time>
      </trkpt>
      <trkpt lat="43.52575" lon="5.63403">
        <ele>431</ele>
        <time>2022-10-19T12:36:18.587Z</time>
      </trkpt>
      <trkpt lat="43.52576" lon="5.63404">
        <ele>431</ele>
        <time>2022-10-19T12:36:19.587Z</time>
      </trkpt>
      <trkpt lat="43.52577" lon="5.63406">
        <ele>431</ele>
        <time>2022-10-19T12:36:20.587Z</time>
      </trkpt>
      <trkpt lat="43.52578" lon="5.63407">
        <ele>431</ele>
        <time>2022-10-19T12:36:21.587Z</time>
      </trkpt>
      <trkpt lat="43.52579" lon="5.63408">
        <ele>431</ele>
        <time>2022-10-19T12:36:22.587Z</time>
      </trkpt>
      <trkpt lat="43.5258" lon="5.63409">
        <ele>431</ele>
        <time>2022-10-19T12:36:23.587Z</time>
      </trkpt>
      <trkpt lat="43.52581" lon="5.6341">
        <ele>431</ele>
        <time>2022-10-19T12:36:24.587Z</time>
      </trkpt>
      <trkpt lat="43.52582" lon="5.63412">
        <ele>431</ele>
        <time>2022-10-19T12:36:25.587Z</time>
      </trkpt>
      <trkpt lat="43.52583" lon="5.63412">
        <ele>431</ele>
        <time>2022-10-19T12:36:26.587Z</time>
      </trkpt>
      <trkpt lat="43.52584" lon="5.63414">
        <ele>431</ele>
        <time>2022-10-19T12:36:27.587Z</time>
      </trkpt>
      <trkpt lat="43.52585" lon="5.63415">
        <ele>431</ele>
        <time>2022-10-19T12:36:28.587Z</time>
      </trkpt>
      <trkpt lat="43.52586" lon="5.63416">
        <ele>431</ele>
        <time>2022-10-19T12:36:29.587Z</time>
      </trkpt>
      <trkpt lat="43.52587" lon="5.63417">
        <ele>431</ele>
        <time>2022-10-19T12:36:30.587Z</time>
      </trkpt>
      <trkpt lat="43.52588" lon="5.63419">
        <ele>431</ele>
        <time>2022-10-19T12:36:31.587Z</time>
      </trkpt>
      <trkpt lat="43.52589" lon="5.6342">
        <ele>430</ele>
        <time>2022-10-19T12:36:32.587Z</time>
      </trkpt>
      <trkpt lat="43.5259" lon="5.63421">
        <ele>430</ele>
        <time>2022-10-19T12:36:33.587Z</time>
      </trkpt>
      <trkpt lat="43.52591" lon="5.63422">
        <ele>430</ele>
        <time>2022-10-19T12:36:34.587Z</time>
      </trkpt>
      <trkpt lat="43.52592" lon="5.63423">
        <ele>430</ele>
        <time>2022-10-19T12:36:35.587Z</time>
      </trkpt>
      <trkpt lat="43.52593" lon="5.63424">
        <ele>430</ele>
        <time>2022-10-19T12:36:36.587Z</time>
      </trkpt>
      <trkpt lat="43.52594" lon="5.63425">
        <ele>430</ele>
        <time>2022-10-19T12:36:37.587Z</time>
      </trkpt>
      <trkpt lat="43.52595" lon="5.63426">
        <ele>430</ele>
        <time>2022-10-19T12:36:38.587Z</time>
      </trkpt>
      <trkpt lat="43.52596" lon="5.63427">
        <ele>430</ele>
        <time>2022-10-19T12:36:39.587Z</time>
      </trkpt>
      <trkpt lat="43.52597" lon="5.63428">
        <ele>430</ele>
        <time>2022-10-19T12:36:40.587Z</time>
      </trkpt>
      <trkpt lat="43.52598" lon="5.63429">
        <ele>430</ele>
        <time>2022-10-19T12:36:41.587Z</time>
      </trkpt>
      <trkpt lat="43.52599" lon="5.63431">
        <ele>429</ele>
        <time>2022-10-19T12:36:42.587Z</time>
      </trkpt>
      <trkpt lat="43.526" lon="5.63432">
        <ele>429</ele>
        <time>2022-10-19T12:36:43.587Z</time>
      </trkpt>
      <trkpt lat="43.52601" lon="5.63433">
        <ele>429</ele>
        <time>2022-10-19T12:36:44.587Z</time>
      </trkpt>
      <trkpt lat="43.52602" lon="5.63434">
        <ele>429</ele>
        <time>2022-10-19T12:36:45.587Z</time>
      </trkpt>
      <trkpt lat="43.52603" lon="5.63435">
        <ele>429</ele>
        <time>2022-10-19T12:36:46.587Z</time>
      </trkpt>
      <trkpt lat="43.52605" lon="5.63436">
        <ele>429</ele>
        <time>2022-10-19T12:36:47.587Z</time>
      </trkpt>
      <trkpt lat="43.52605" lon="5.63437">
        <ele>429</ele>
        <time>2022-10-19T12:36:48.587Z</time>
      </trkpt>
      <trkpt lat="43.52607" lon="5.63438">
        <ele>429</ele>
        <time>2022-10-19T12:36:49.587Z</time>
      </trkpt>
      <trkpt lat="43.52608" lon="5.63439">
        <ele>429</ele>
        <time>2022-10-19T12:36:50.587Z</time>
      </trkpt>
      <trkpt lat="43.52609" lon="5.6344">
        <ele>429</ele>
        <time>2022-10-19T12:36:51.587Z</time>
      </trkpt>
      <trkpt lat="43.5261" lon="5.63442">
        <ele>429</ele>
        <time>2022-10-19T12:36:52.587Z</time>
      </trkpt>
      <trkpt lat="43.52611" lon="5.63443">
        <ele>428</ele>
        <time>2022-10-19T12:36:53.587Z</time>
      </trkpt>
      <trkpt lat="43.52613" lon="5.63444">
        <ele>428</ele>
        <time>2022-10-19T12:36:54.587Z</time>
      </trkpt>
      <trkpt lat="43.52614" lon="5.63445">
        <ele>428</ele>
        <time>2022-10-19T12:36:55.587Z</time>
      </trkpt>
      <trkpt lat="43.52615" lon="5.63446">
        <ele>428</ele>
        <time>2022-10-19T12:36:56.587Z</time>
      </trkpt>
      <trkpt lat="43.52616" lon="5.63447">
        <ele>428</ele>
        <time>2022-10-19T12:36:57.587Z</time>
      </trkpt>
      <trkpt lat="43.52617" lon="5.63448">
        <ele>428</ele>
        <time>2022-10-19T12:36:58.587Z</time>
      </trkpt>
      <trkpt lat="43.52618" lon="5.63449">
        <ele>428</ele>
        <time>2022-10-19T12:36:59.587Z</time>
      </trkpt>
      <trkpt lat="43.52619" lon="5.6345">
        <ele>428</ele>
        <time>2022-10-19T12:37:00.587Z</time>
      </trkpt>
      <trkpt lat="43.5262" lon="5.63451">
        <ele>428</ele>
        <time>2022-10-19T12:37:01.587Z</time>
      </trkpt>
      <trkpt lat="43.52621" lon="5.63452">
        <ele>428</ele>
        <time>2022-10-19T12:37:02.587Z</time>
      </trkpt>
      <trkpt lat="43.52622" lon="5.63454">
        <ele>428</ele>
        <time>2022-10-19T12:37:03.587Z</time>
      </trkpt>
      <trkpt lat="43.52623" lon="5.63454">
        <ele>428</ele>
        <time>2022-10-19T12:37:04.587Z</time>
      </trkpt>
      <trkpt lat="43.52625" lon="5.63455">
        <ele>428</ele>
        <time>2022-10-19T12:37:05.587Z</time>
      </trkpt>
      <trkpt lat="43.52626" lon="5.63456">
        <ele>427</ele>
        <time>2022-10-19T12:37:06.587Z</time>
      </trkpt>
      <trkpt lat="43.52627" lon="5.63457">
        <ele>427</ele>
        <time>2022-10-19T12:37:07.587Z</time>
      </trkpt>
      <trkpt lat="43.52628" lon="5.63458">
        <ele>427</ele>
        <time>2022-10-19T12:37:08.587Z</time>
      </trkpt>
      <trkpt lat="43.52629" lon="5.63459">
        <ele>427</ele>
        <time>2022-10-19T12:37:09.587Z</time>
      </trkpt>
      <trkpt lat="43.5263" lon="5.63461">
        <ele>427</ele>
        <time>2022-10-19T12:37:10.587Z</time>
      </trkpt>
      <trkpt lat="43.52631" lon="5.63462">
        <ele>427</ele>
        <time>2022-10-19T12:37:11.587Z</time>
      </trkpt>
      <trkpt lat="43.52633" lon="5.63463">
        <ele>427</ele>
        <time>2022-10-19T12:37:12.587Z</time>
      </trkpt>
      <trkpt lat="43.52634" lon="5.63464">
        <ele>427</ele>
        <time>2022-10-19T12:37:13.587Z</time>
      </trkpt>
      <trkpt lat="43.52635" lon="5.63465">
        <ele>427</ele>
        <time>2022-10-19T12:37:14.587Z</time>
      </trkpt>
      <trkpt lat="43.52636" lon="5.63467">
        <ele>427</ele>
        <time>2022-10-19T12:37:15.587Z</time>
      </trkpt>
      <trkpt lat="43.52637" lon="5.63468">
        <ele>427</ele>
        <time>2022-10-19T12:37:16.587Z</time>
      </trkpt>
      <trkpt lat="43.52638" lon="5.63469">
        <ele>427</ele>
        <time>2022-10-19T12:37:17.587Z</time>
      </trkpt>
      <trkpt lat="43.52639" lon="5.6347">
        <ele>427</ele>
        <time>2022-10-19T12:37:18.587Z</time>
      </trkpt>
      <trkpt lat="43.5264" lon="5.63471">
        <ele>427</ele>
        <time>2022-10-19T12:37:19.587Z</time>
      </trkpt>
      <trkpt lat="43.52641" lon="5.63472">
        <ele>427</ele>
        <time>2022-10-19T12:37:20.587Z</time>
      </trkpt>
      <trkpt lat="43.52643" lon="5.63473">
        <ele>427</ele>
        <time>2022-10-19T12:37:21.587Z</time>
      </trkpt>
      <trkpt lat="43.52644" lon="5.63475">
        <ele>427</ele>
        <time>2022-10-19T12:37:22.587Z</time>
      </trkpt>
      <trkpt lat="43.52645" lon="5.63475">
        <ele>427</ele>
        <time>2022-10-19T12:37:23.587Z</time>
      </trkpt>
      <trkpt lat="43.52646" lon="5.63477">
        <ele>427</ele>
        <time>2022-10-19T12:37:24.587Z</time>
      </trkpt>
      <trkpt lat="43.52647" lon="5.63478">
        <ele>427</ele>
        <time>2022-10-19T12:37:25.587Z</time>
      </trkpt>
      <trkpt lat="43.52648" lon="5.63479">
        <ele>426</ele>
        <time>2022-10-19T12:37:26.587Z</time>
      </trkpt>
      <trkpt lat="43.52649" lon="5.6348">
        <ele>426</ele>
        <time>2022-10-19T12:37:27.587Z</time>
      </trkpt>
      <trkpt lat="43.5265" lon="5.63481">
        <ele>426</ele>
        <time>2022-10-19T12:37:28.587Z</time>
      </trkpt>
      <trkpt lat="43.52651" lon="5.63482">
        <ele>426</ele>
        <time>2022-10-19T12:37:29.587Z</time>
      </trkpt>
      <trkpt lat="43.52652" lon="5.63484">
        <ele>426</ele>
        <time>2022-10-19T12:37:30.587Z</time>
      </trkpt>
      <trkpt lat="43.52653" lon="5.63485">
        <ele>426</ele>
        <time>2022-10-19T12:37:31.587Z</time>
      </trkpt>
      <trkpt lat="43.52654" lon="5.63486">
        <ele>426</ele>
        <time>2022-10-19T12:37:32.587Z</time>
      </trkpt>
      <trkpt lat="43.52655" lon="5.63487">
        <ele>426</ele>
        <time>2022-10-19T12:37:33.587Z</time>
      </trkpt>
      <trkpt lat="43.52656" lon="5.63489">
        <ele>426</ele>
        <time>2022-10-19T12:37:34.587Z</time>
      </trkpt>
      <trkpt lat="43.52657" lon="5.6349">
        <ele>426</ele>
        <time>2022-10-19T12:37:35.587Z</time>
      </trkpt>
      <trkpt lat="43.52658" lon="5.63491">
        <ele>426</ele>
        <time>2022-10-19T12:37:36.587Z</time>
      </trkpt>
      <trkpt lat="43.52659" lon="5.63492">
        <ele>426</ele>
        <time>2022-10-19T12:37:37.587Z</time>
      </trkpt>
      <trkpt lat="43.5266" lon="5.63493">
        <ele>426</ele>
        <time>2022-10-19T12:37:38.587Z</time>
      </trkpt>
      <trkpt lat="43.52661" lon="5.63494">
        <ele>426</ele>
        <time>2022-10-19T12:37:39.587Z</time>
      </trkpt>
      <trkpt lat="43.52662" lon="5.63495">
        <ele>426</ele>
        <time>2022-10-19T12:37:40.587Z</time>
      </trkpt>
      <trkpt lat="43.52663" lon="5.63497">
        <ele>426</ele>
        <time>2022-10-19T12:37:41.587Z</time>
      </trkpt>
      <trkpt lat="43.52664" lon="5.63498">
        <ele>426</ele>
        <time>2022-10-19T12:37:42.587Z</time>
      </trkpt>
      <trkpt lat="43.52665" lon="5.63499">
        <ele>426</ele>
        <time>2022-10-19T12:37:43.587Z</time>
      </trkpt>
      <trkpt lat="43.52666" lon="5.635">
        <ele>426</ele>
        <time>2022-10-19T12:37:44.587Z</time>
      </trkpt>
      <trkpt lat="43.52667" lon="5.63501">
        <ele>426</ele>
        <time>2022-10-19T12:37:45.587Z</time>
      </trkpt>
      <trkpt lat="43.52668" lon="5.63502">
        <ele>426</ele>
        <time>2022-10-19T12:37:46.587Z</time>
      </trkpt>
      <trkpt lat="43.52669" lon="5.63503">
        <ele>426</ele>
        <time>2022-10-19T12:37:47.587Z</time>
      </trkpt>
      <trkpt lat="43.5267" lon="5.63504">
        <ele>426</ele>
        <time>2022-10-19T12:37:48.587Z</time>
      </trkpt>
      <trkpt lat="43.52671" lon="5.63505">
        <ele>426</ele>
        <time>2022-10-19T12:37:49.587Z</time>
      </trkpt>
      <trkpt lat="43.52672" lon="5.63506">
        <ele>426</ele>
        <time>2022-10-19T12:37:50.587Z</time>
      </trkpt>
      <trkpt lat="43.52673" lon="5.63507">
        <ele>425</ele>
        <time>2022-10-19T12:37:51.587Z</time>
      </trkpt>
      <trkpt lat="43.52675" lon="5.63508">
        <ele>425</ele>
        <time>2022-10-19T12:37:52.587Z</time>
      </trkpt>
      <trkpt lat="43.52676" lon="5.63509">
        <ele>425</ele>
        <time>2022-10-19T12:37:53.587Z</time>
      </trkpt>
      <trkpt lat="43.52677" lon="5.6351">
        <ele>425</ele>
        <time>2022-10-19T12:37:54.587Z</time>
      </trkpt>
      <trkpt lat="43.52678" lon="5.63512">
        <ele>425</ele>
        <time>2022-10-19T12:37:55.587Z</time>
      </trkpt>
      <trkpt lat="43.52679" lon="5.63513">
        <ele>425</ele>
        <time>2022-10-19T12:37:56.587Z</time>
      </trkpt>
      <trkpt lat="43.5268" lon="5.63514">
        <ele>425</ele>
        <time>2022-10-19T12:37:57.587Z</time>
      </trkpt>
      <trkpt lat="43.52681" lon="5.63515">
        <ele>425</ele>
        <time>2022-10-19T12:37:58.587Z</time>
      </trkpt>
      <trkpt lat="43.52683" lon="5.63516">
        <ele>425</ele>
        <time>2022-10-19T12:37:59.587Z</time>
      </trkpt>
      <trkpt lat="43.52684" lon="5.63517">
        <ele>425</ele>
        <time>2022-10-19T12:38:00.587Z</time>
      </trkpt>
      <trkpt lat="43.52685" lon="5.63518">
        <ele>424</ele>
        <time>2022-10-19T12:38:01.587Z</time>
      </trkpt>
      <trkpt lat="43.52686" lon="5.63519">
        <ele>424</ele>
        <time>2022-10-19T12:38:02.587Z</time>
      </trkpt>
      <trkpt lat="43.52687" lon="5.6352">
        <ele>424</ele>
        <time>2022-10-19T12:38:03.587Z</time>
      </trkpt>
      <trkpt lat="43.52687" lon="5.63521">
        <ele>424</ele>
        <time>2022-10-19T12:38:04.587Z</time>
      </trkpt>
      <trkpt lat="43.52689" lon="5.63522">
        <ele>424</ele>
        <time>2022-10-19T12:38:05.587Z</time>
      </trkpt>
      <trkpt lat="43.5269" lon="5.63524">
        <ele>424</ele>
        <time>2022-10-19T12:38:06.587Z</time>
      </trkpt>
      <trkpt lat="43.5269" lon="5.63525">
        <ele>424</ele>
        <time>2022-10-19T12:38:07.587Z</time>
      </trkpt>
      <trkpt lat="43.52692" lon="5.63526">
        <ele>423</ele>
        <time>2022-10-19T12:38:08.587Z</time>
      </trkpt>
      <trkpt lat="43.52693" lon="5.63527">
        <ele>423</ele>
        <time>2022-10-19T12:38:09.587Z</time>
      </trkpt>
      <trkpt lat="43.52694" lon="5.63528">
        <ele>423</ele>
        <time>2022-10-19T12:38:10.587Z</time>
      </trkpt>
      <trkpt lat="43.52695" lon="5.63529">
        <ele>423</ele>
        <time>2022-10-19T12:38:11.587Z</time>
      </trkpt>
      <trkpt lat="43.52696" lon="5.6353">
        <ele>423</ele>
        <time>2022-10-19T12:38:12.587Z</time>
      </trkpt>
      <trkpt lat="43.52697" lon="5.63531">
        <ele>423</ele>
        <time>2022-10-19T12:38:13.587Z</time>
      </trkpt>
      <trkpt lat="43.52697" lon="5.63532">
        <ele>423</ele>
        <time>2022-10-19T12:38:14.587Z</time>
      </trkpt>
      <trkpt lat="43.52698" lon="5.63533">
        <ele>423</ele>
        <time>2022-10-19T12:38:15.587Z</time>
      </trkpt>
      <trkpt lat="43.52698" lon="5.63534">
        <ele>423</ele>
        <time>2022-10-19T12:38:16.587Z</time>
      </trkpt>
      <trkpt lat="43.52699" lon="5.63535">
        <ele>422</ele>
        <time>2022-10-19T12:38:17.587Z</time>
      </trkpt>
      <trkpt lat="43.52699" lon="5.63536">
        <ele>422</ele>
        <time>2022-10-19T12:38:18.587Z</time>
      </trkpt>
      <trkpt lat="43.527" lon="5.63537">
        <ele>422</ele>
        <time>2022-10-19T12:38:19.587Z</time>
      </trkpt>
      <trkpt lat="43.527" lon="5.63537">
        <ele>422</ele>
        <time>2022-10-19T12:38:20.587Z</time>
      </trkpt>
      <trkpt lat="43.527" lon="5.63537">
        <ele>422</ele>
        <time>2022-10-19T12:38:21.587Z</time>
      </trkpt>
      <trkpt lat="43.527" lon="5.63537">
        <ele>423</ele>
        <time>2022-10-19T12:38:22.587Z</time>
      </trkpt>
      <trkpt lat="43.527" lon="5.63537">
        <ele>423</ele>
        <time>2022-10-19T12:38:23.587Z</time>
      </trkpt>
      <trkpt lat="43.527" lon="5.63537">
        <ele>423</ele>
        <time>2022-10-19T12:38:24.587Z</time>
      </trkpt>
      <trkpt lat="43.527" lon="5.63537">
        <ele>423</ele>
        <time>2022-10-19T12:38:25.587Z</time>
      </trkpt>
      <trkpt lat="43.527" lon="5.63537">
        <ele>423</ele>
        <time>2022-10-19T12:38:26.587Z</time>
      </trkpt>
      <trkpt lat="43.527" lon="5.63537">
        <ele>423</ele>
        <time>2022-10-19T12:38:27.587Z</time>
      </trkpt>
      <trkpt lat="43.527" lon="5.63537">
        <ele>423</ele>
        <time>2022-10-19T12:38:28.587Z</time>
      </trkpt>
      <trkpt lat="43.527" lon="5.63537">
        <ele>423</ele>
        <time>2022-10-19T12:38:29.587Z</time>
      </trkpt>
      <trkpt lat="43.527" lon="5.63537">
        <ele>423</ele>
        <time>2022-10-19T12:38:30.587Z</time>
      </trkpt>
      <trkpt lat="43.527" lon="5.63537">
        <ele>423</ele>
        <time>2022-10-19T12:38:31.587Z</time>
      </trkpt>
      <trkpt lat="43.52701" lon="5.63537">
        <ele>423</ele>
        <time>2022-10-19T12:38:32.587Z</time>
      </trkpt>
      <trkpt lat="43.52701" lon="5.63537">
        <ele>423</ele>
        <time>2022-10-19T12:38:33.587Z</time>
      </trkpt>
      <trkpt lat="43.52701" lon="5.63537">
        <ele>423</ele>
        <time>2022-10-19T12:38:34.587Z</time>
      </trkpt>
      <trkpt lat="43.52701" lon="5.63537">
        <ele>423</ele>
        <time>2022-10-19T12:38:35.587Z</time>
      </trkpt>
      <trkpt lat="43.52701" lon="5.63537">
        <ele>423</ele>
        <time>2022-10-19T12:38:36.587Z</time>
      </trkpt>
      <trkpt lat="43.52701" lon="5.63537">
        <ele>423</ele>
        <time>2022-10-19T12:38:37.587Z</time>
      </trkpt>
      <trkpt lat="43.52701" lon="5.63537">
        <ele>423</ele>
        <time>2022-10-19T12:38:38.587Z</time>
      </trkpt>
      <trkpt lat="43.52701" lon="5.63537">
        <ele>423</ele>
        <time>2022-10-19T12:38:39.587Z</time>
      </trkpt>
      <trkpt lat="43.52701" lon="5.63537">
        <ele>423</ele>
        <time>2022-10-19T12:38:40.587Z</time>
      </trkpt>
      <trkpt lat="43.52701" lon="5.63537">
        <ele>423</ele>
        <time>2022-10-19T12:38:41.587Z</time>
      </trkpt>
      <trkpt lat="43.52701" lon="5.63537">
        <ele>423</ele>
        <time>2022-10-19T12:38:42.587Z</time>
      </trkpt>
      <trkpt lat="43.52701" lon="5.63537">
        <ele>423</ele>
        <time>2022-10-19T12:38:43.587Z</time>
      </trkpt>
      <trkpt lat="43.52701" lon="5.63537">
        <ele>423</ele>
        <time>2022-10-19T12:38:44.587Z</time>
      </trkpt>
      <trkpt lat="43.52701" lon="5.63537">
        <ele>423</ele>
        <time>2022-10-19T12:38:45.587Z</time>
      </trkpt>
      <trkpt lat="43.52701" lon="5.63537">
        <ele>423</ele>
        <time>2022-10-19T12:38:46.587Z</time>
      </trkpt>
      <trkpt lat="43.52701" lon="5.63536">
        <ele>423</ele>
        <time>2022-10-19T12:38:47.587Z</time>
      </trkpt>
      <trkpt lat="43.52701" lon="5.63537">
        <ele>423</ele>
        <time>2022-10-19T12:38:48.587Z</time>
      </trkpt>
      <trkpt lat="43.52701" lon="5.63537">
        <ele>423</ele>
        <time>2022-10-19T12:38:49.587Z</time>
      </trkpt>
      <trkpt lat="43.52702" lon="5.63537">
        <ele>423</ele>
        <time>2022-10-19T12:38:50.587Z</time>
      </trkpt>
      <trkpt lat="43.52702" lon="5.63537">
        <ele>423</ele>
        <time>2022-10-19T12:38:51.587Z</time>
      </trkpt>
      <trkpt lat="43.52702" lon="5.63537">
        <ele>423</ele>
        <time>2022-10-19T12:38:52.587Z</time>
      </trkpt>
      <trkpt lat="43.52702" lon="5.63537">
        <ele>423</ele>
        <time>2022-10-19T12:38:53.587Z</time>
      </trkpt>
      <trkpt lat="43.52702" lon="5.63537">
        <ele>423</ele>
        <time>2022-10-19T12:38:54.587Z</time>
      </trkpt>
      <trkpt lat="43.52702" lon="5.63537">
        <ele>423</ele>
        <time>2022-10-19T12:38:55.587Z</time>
      </trkpt>
      <trkpt lat="43.52702" lon="5.63537">
        <ele>423</ele>
        <time>2022-10-19T12:38:56.587Z</time>
      </trkpt>
      <trkpt lat="43.52702" lon="5.63537">
        <ele>423</ele>
        <time>2022-10-19T12:38:57.587Z</time>
      </trkpt>
      <trkpt lat="43.52702" lon="5.63537">
        <ele>423</ele>
        <time>2022-10-19T12:38:58.587Z</time>
      </trkpt>
      <trkpt lat="43.52702" lon="5.63537">
        <ele>423</ele>
        <time>2022-10-19T12:38:59.587Z</time>
      </trkpt>
      <trkpt lat="43.52702" lon="5.63537">
        <ele>423</ele>
        <time>2022-10-19T12:39:00.587Z</time>
      </trkpt>
      <trkpt lat="43.52702" lon="5.63537">
        <ele>423</ele>
        <time>2022-10-19T12:39:01.587Z</time>
      </trkpt>
      <trkpt lat="43.52702" lon="5.63537">
        <ele>423</ele>
        <time>2022-10-19T12:39:02.587Z</time>
      </trkpt>
      <trkpt lat="43.52702" lon="5.63537">
        <ele>423</ele>
        <time>2022-10-19T12:39:03.587Z</time>
      </trkpt>
      <trkpt lat="43.52702" lon="5.63537">
        <ele>423</ele>
        <time>2022-10-19T12:39:04.587Z</time>
      </trkpt>
      <trkpt lat="43.52702" lon="5.63537">
        <ele>423</ele>
        <time>2022-10-19T12:39:05.587Z</time>
      </trkpt>
      <trkpt lat="43.52702" lon="5.63537">
        <ele>423</ele>
        <time>2022-10-19T12:39:06.587Z</time>
      </trkpt>
      <trkpt lat="43.52702" lon="5.63537">
        <ele>423</ele>
        <time>2022-10-19T12:39:07.587Z</time>
      </trkpt>
      <trkpt lat="43.52702" lon="5.63537">
        <ele>423</ele>
        <time>2022-10-19T12:39:08.587Z</time>
      </trkpt>
      <trkpt lat="43.52702" lon="5.63537">
        <ele>423</ele>
        <time>2022-10-19T12:39:09.587Z</time>
      </trkpt>
      <trkpt lat="43.52702" lon="5.63537">
        <ele>423</ele>
        <time>2022-10-19T12:39:10.587Z</time>
      </trkpt>
      <trkpt lat="43.52702" lon="5.63537">
        <ele>423</ele>
        <time>2022-10-19T12:39:11.587Z</time>
      </trkpt>
      <trkpt lat="43.52702" lon="5.63537">
        <ele>423</ele>
        <time>2022-10-19T12:39:12.587Z</time>
      </trkpt>
      <trkpt lat="43.52702" lon="5.63537">
        <ele>423</ele>
        <time>2022-10-19T12:39:13.587Z</time>
      </trkpt>
      <trkpt lat="43.52702" lon="5.63537">
        <ele>423</ele>
        <time>2022-10-19T12:39:14.587Z</time>
      </trkpt>
      <trkpt lat="43.52702" lon="5.63537">
        <ele>423</ele>
        <time>2022-10-19T12:39:15.587Z</time>
      </trkpt>
      <trkpt lat="43.52702" lon="5.63537">
        <ele>423</ele>
        <time>2022-10-19T12:39:16.587Z</time>
      </trkpt>
      <trkpt lat="43.52702" lon="5.63537">
        <ele>423</ele>
        <time>2022-10-19T12:39:17.587Z</time>
      </trkpt>
      <trkpt lat="43.52702" lon="5.63537">
        <ele>423</ele>
        <time>2022-10-19T12:39:18.587Z</time>
      </trkpt>
      <trkpt lat="43.52702" lon="5.63537">
        <ele>423</ele>
        <time>2022-10-19T12:39:19.587Z</time>
      </trkpt>
      <trkpt lat="43.52702" lon="5.63537">
        <ele>423</ele>
        <time>2022-10-19T12:39:20.587Z</time>
      </trkpt>
      <trkpt lat="43.52703" lon="5.63538">
        <ele>423</ele>
        <time>2022-10-19T12:39:21.587Z</time>
      </trkpt>
      <trkpt lat="43.52703" lon="5.63538">
        <ele>423</ele>
        <time>2022-10-19T12:39:22.587Z</time>
      </trkpt>
      <trkpt lat="43.52704" lon="5.63539">
        <ele>423</ele>
        <time>2022-10-19T12:39:23.587Z</time>
      </trkpt>
      <trkpt lat="43.52705" lon="5.6354">
        <ele>422</ele>
        <time>2022-10-19T12:39:24.587Z</time>
      </trkpt>
      <trkpt lat="43.52706" lon="5.63542">
        <ele>422</ele>
        <time>2022-10-19T12:39:25.587Z</time>
      </trkpt>
      <trkpt lat="43.52707" lon="5.63543">
        <ele>422</ele>
        <time>2022-10-19T12:39:26.587Z</time>
      </trkpt>
      <trkpt lat="43.52708" lon="5.63545">
        <ele>422</ele>
        <time>2022-10-19T12:39:27.587Z</time>
      </trkpt>
      <trkpt lat="43.52709" lon="5.63546">
        <ele>422</ele>
        <time>2022-10-19T12:39:28.587Z</time>
      </trkpt>
      <trkpt lat="43.52709" lon="5.63547">
        <ele>422</ele>
        <time>2022-10-19T12:39:29.587Z</time>
      </trkpt>
      <trkpt lat="43.5271" lon="5.63549">
        <ele>422</ele>
        <time>2022-10-19T12:39:30.587Z</time>
      </trkpt>
      <trkpt lat="43.52711" lon="5.6355">
        <ele>422</ele>
        <time>2022-10-19T12:39:31.587Z</time>
      </trkpt>
      <trkpt lat="43.52712" lon="5.63551">
        <ele>422</ele>
        <time>2022-10-19T12:39:32.587Z</time>
      </trkpt>
      <trkpt lat="43.52713" lon="5.63553">
        <ele>422</ele>
        <time>2022-10-19T12:39:33.587Z</time>
      </trkpt>
      <trkpt lat="43.52714" lon="5.63554">
        <ele>421</ele>
        <time>2022-10-19T12:39:34.587Z</time>
      </trkpt>
      <trkpt lat="43.52715" lon="5.63556">
        <ele>421</ele>
        <time>2022-10-19T12:39:35.587Z</time>
      </trkpt>
      <trkpt lat="43.52716" lon="5.63557">
        <ele>421</ele>
        <time>2022-10-19T12:39:36.587Z</time>
      </trkpt>
      <trkpt lat="43.52717" lon="5.63558">
        <ele>421</ele>
        <time>2022-10-19T12:39:37.587Z</time>
      </trkpt>
      <trkpt lat="43.52718" lon="5.6356">
        <ele>421</ele>
        <time>2022-10-19T12:39:38.587Z</time>
      </trkpt>
      <trkpt lat="43.52718" lon="5.63561">
        <ele>421</ele>
        <time>2022-10-19T12:39:39.587Z</time>
      </trkpt>
      <trkpt lat="43.52719" lon="5.63563">
        <ele>421</ele>
        <time>2022-10-19T12:39:40.587Z</time>
      </trkpt>
      <trkpt lat="43.5272" lon="5.63564">
        <ele>421</ele>
        <time>2022-10-19T12:39:41.587Z</time>
      </trkpt>
      <trkpt lat="43.5272" lon="5.63565">
        <ele>421</ele>
        <time>2022-10-19T12:39:42.587Z</time>
      </trkpt>
      <trkpt lat="43.52721" lon="5.63566">
        <ele>421</ele>
        <time>2022-10-19T12:39:43.587Z</time>
      </trkpt>
      <trkpt lat="43.52721" lon="5.63566">
        <ele>421</ele>
        <time>2022-10-19T12:39:44.587Z</time>
      </trkpt>
      <trkpt lat="43.52722" lon="5.63566">
        <ele>421</ele>
        <time>2022-10-19T12:39:45.587Z</time>
      </trkpt>
      <trkpt lat="43.52723" lon="5.63567">
        <ele>421</ele>
        <time>2022-10-19T12:39:46.587Z</time>
      </trkpt>
      <trkpt lat="43.52724" lon="5.63568">
        <ele>421</ele>
        <time>2022-10-19T12:39:47.587Z</time>
      </trkpt>
      <trkpt lat="43.52725" lon="5.63569">
        <ele>421</ele>
        <time>2022-10-19T12:39:48.587Z</time>
      </trkpt>
      <trkpt lat="43.52725" lon="5.6357">
        <ele>421</ele>
        <time>2022-10-19T12:39:49.587Z</time>
      </trkpt>
      <trkpt lat="43.52726" lon="5.63571">
        <ele>421</ele>
        <time>2022-10-19T12:39:50.587Z</time>
      </trkpt>
      <trkpt lat="43.52727" lon="5.63573">
        <ele>421</ele>
        <time>2022-10-19T12:39:51.587Z</time>
      </trkpt>
      <trkpt lat="43.52728" lon="5.63574">
        <ele>421</ele>
        <time>2022-10-19T12:39:52.587Z</time>
      </trkpt>
      <trkpt lat="43.52729" lon="5.63576">
        <ele>421</ele>
        <time>2022-10-19T12:39:53.587Z</time>
      </trkpt>
      <trkpt lat="43.5273" lon="5.63577">
        <ele>421</ele>
        <time>2022-10-19T12:39:54.587Z</time>
      </trkpt>
      <trkpt lat="43.5273" lon="5.63579">
        <ele>421</ele>
        <time>2022-10-19T12:39:55.587Z</time>
      </trkpt>
      <trkpt lat="43.52731" lon="5.6358">
        <ele>421</ele>
        <time>2022-10-19T12:39:56.587Z</time>
      </trkpt>
      <trkpt lat="43.52732" lon="5.63582">
        <ele>421</ele>
        <time>2022-10-19T12:39:57.587Z</time>
      </trkpt>
      <trkpt lat="43.52732" lon="5.63583">
        <ele>421</ele>
        <time>2022-10-19T12:39:58.587Z</time>
      </trkpt>
      <trkpt lat="43.52733" lon="5.63585">
        <ele>421</ele>
        <time>2022-10-19T12:39:59.587Z</time>
      </trkpt>
      <trkpt lat="43.52734" lon="5.63587">
        <ele>420</ele>
        <time>2022-10-19T12:40:00.587Z</time>
      </trkpt>
      <trkpt lat="43.52734" lon="5.63588">
        <ele>420</ele>
        <time>2022-10-19T12:40:01.587Z</time>
      </trkpt>
      <trkpt lat="43.52735" lon="5.6359">
        <ele>420</ele>
        <time>2022-10-19T12:40:02.587Z</time>
      </trkpt>
      <trkpt lat="43.52735" lon="5.63592">
        <ele>420</ele>
        <time>2022-10-19T12:40:03.587Z</time>
      </trkpt>
      <trkpt lat="43.52736" lon="5.63593">
        <ele>420</ele>
        <time>2022-10-19T12:40:04.587Z</time>
      </trkpt>
      <trkpt lat="43.52736" lon="5.63595">
        <ele>420</ele>
        <time>2022-10-19T12:40:05.587Z</time>
      </trkpt>
      <trkpt lat="43.52737" lon="5.63597">
        <ele>420</ele>
        <time>2022-10-19T12:40:06.587Z</time>
      </trkpt>
      <trkpt lat="43.52737" lon="5.63599">
        <ele>420</ele>
        <time>2022-10-19T12:40:07.587Z</time>
      </trkpt>
      <trkpt lat="43.52738" lon="5.636">
        <ele>420</ele>
        <time>2022-10-19T12:40:08.587Z</time>
      </trkpt>
      <trkpt lat="43.52738" lon="5.63602">
        <ele>420</ele>
        <time>2022-10-19T12:40:09.587Z</time>
      </trkpt>
      <trkpt lat="43.52739" lon="5.63604">
        <ele>420</ele>
        <time>2022-10-19T12:40:10.587Z</time>
      </trkpt>
      <trkpt lat="43.52739" lon="5.63606">
        <ele>420</ele>
        <time>2022-10-19T12:40:11.587Z</time>
      </trkpt>
      <trkpt lat="43.5274" lon="5.63608">
        <ele>420</ele>
        <time>2022-10-19T12:40:12.587Z</time>
      </trkpt>
      <trkpt lat="43.5274" lon="5.6361">
        <ele>420</ele>
        <time>2022-10-19T12:40:13.587Z</time>
      </trkpt>
      <trkpt lat="43.5274" lon="5.63612">
        <ele>420</ele>
        <time>2022-10-19T12:40:14.587Z</time>
      </trkpt>
      <trkpt lat="43.52741" lon="5.63613">
        <ele>420</ele>
        <time>2022-10-19T12:40:15.587Z</time>
      </trkpt>
      <trkpt lat="43.52741" lon="5.63615">
        <ele>420</ele>
        <time>2022-10-19T12:40:16.587Z</time>
      </trkpt>
      <trkpt lat="43.52741" lon="5.63617">
        <ele>420</ele>
        <time>2022-10-19T12:40:17.587Z</time>
      </trkpt>
      <trkpt lat="43.52741" lon="5.63619">
        <ele>420</ele>
        <time>2022-10-19T12:40:18.587Z</time>
      </trkpt>
      <trkpt lat="43.52742" lon="5.6362">
        <ele>420</ele>
        <time>2022-10-19T12:40:19.587Z</time>
      </trkpt>
      <trkpt lat="43.52742" lon="5.63622">
        <ele>420</ele>
        <time>2022-10-19T12:40:20.587Z</time>
      </trkpt>
      <trkpt lat="43.52742" lon="5.63624">
        <ele>420</ele>
        <time>2022-10-19T12:40:21.587Z</time>
      </trkpt>
      <trkpt lat="43.52743" lon="5.63626">
        <ele>420</ele>
        <time>2022-10-19T12:40:22.587Z</time>
      </trkpt>
      <trkpt lat="43.52743" lon="5.63628">
        <ele>420</ele>
        <time>2022-10-19T12:40:23.587Z</time>
      </trkpt>
      <trkpt lat="43.52744" lon="5.6363">
        <ele>420</ele>
        <time>2022-10-19T12:40:24.587Z</time>
      </trkpt>
      <trkpt lat="43.52744" lon="5.63632">
        <ele>420</ele>
        <time>2022-10-19T12:40:25.587Z</time>
      </trkpt>
      <trkpt lat="43.52744" lon="5.63633">
        <ele>420</ele>
        <time>2022-10-19T12:40:26.587Z</time>
      </trkpt>
      <trkpt lat="43.52745" lon="5.63635">
        <ele>420</ele>
        <time>2022-10-19T12:40:27.587Z</time>
      </trkpt>
      <trkpt lat="43.52745" lon="5.63637">
        <ele>420</ele>
        <time>2022-10-19T12:40:28.587Z</time>
      </trkpt>
      <trkpt lat="43.52745" lon="5.63639">
        <ele>420</ele>
        <time>2022-10-19T12:40:29.587Z</time>
      </trkpt>
      <trkpt lat="43.52745" lon="5.63641">
        <ele>420</ele>
        <time>2022-10-19T12:40:30.587Z</time>
      </trkpt>
      <trkpt lat="43.52746" lon="5.63643">
        <ele>420</ele>
        <time>2022-10-19T12:40:31.587Z</time>
      </trkpt>
      <trkpt lat="43.52746" lon="5.63644">
        <ele>420</ele>
        <time>2022-10-19T12:40:32.587Z</time>
      </trkpt>
      <trkpt lat="43.52746" lon="5.63646">
        <ele>420</ele>
        <time>2022-10-19T12:40:33.587Z</time>
      </trkpt>
      <trkpt lat="43.52746" lon="5.63648">
        <ele>420</ele>
        <time>2022-10-19T12:40:34.587Z</time>
      </trkpt>
      <trkpt lat="43.52746" lon="5.6365">
        <ele>420</ele>
        <time>2022-10-19T12:40:35.587Z</time>
      </trkpt>
      <trkpt lat="43.52747" lon="5.63652">
        <ele>420</ele>
        <time>2022-10-19T12:40:36.587Z</time>
      </trkpt>
      <trkpt lat="43.52747" lon="5.63653">
        <ele>420</ele>
        <time>2022-10-19T12:40:37.587Z</time>
      </trkpt>
      <trkpt lat="43.52747" lon="5.63655">
        <ele>420</ele>
        <time>2022-10-19T12:40:38.587Z</time>
      </trkpt>
      <trkpt lat="43.52747" lon="5.63657">
        <ele>420</ele>
        <time>2022-10-19T12:40:39.587Z</time>
      </trkpt>
      <trkpt lat="43.52747" lon="5.63659">
        <ele>420</ele>
        <time>2022-10-19T12:40:40.587Z</time>
      </trkpt>
      <trkpt lat="43.52748" lon="5.6366">
        <ele>420</ele>
        <time>2022-10-19T12:40:41.587Z</time>
      </trkpt>
      <trkpt lat="43.52748" lon="5.63662">
        <ele>420</ele>
        <time>2022-10-19T12:40:42.587Z</time>
      </trkpt>
      <trkpt lat="43.52748" lon="5.63664">
        <ele>420</ele>
        <time>2022-10-19T12:40:43.587Z</time>
      </trkpt>
      <trkpt lat="43.52748" lon="5.63666">
        <ele>420</ele>
        <time>2022-10-19T12:40:44.587Z</time>
      </trkpt>
      <trkpt lat="43.52748" lon="5.63668">
        <ele>420</ele>
        <time>2022-10-19T12:40:45.587Z</time>
      </trkpt>
      <trkpt lat="43.52748" lon="5.63669">
        <ele>420</ele>
        <time>2022-10-19T12:40:46.587Z</time>
      </trkpt>
      <trkpt lat="43.52748" lon="5.63671">
        <ele>420</ele>
        <time>2022-10-19T12:40:47.587Z</time>
      </trkpt>
      <trkpt lat="43.52748" lon="5.63673">
        <ele>420</ele>
        <time>2022-10-19T12:40:48.587Z</time>
      </trkpt>
      <trkpt lat="43.52748" lon="5.63675">
        <ele>420</ele>
        <time>2022-10-19T12:40:49.587Z</time>
      </trkpt>
      <trkpt lat="43.52749" lon="5.63676">
        <ele>420</ele>
        <time>2022-10-19T12:40:50.587Z</time>
      </trkpt>
      <trkpt lat="43.52749" lon="5.63678">
        <ele>420</ele>
        <time>2022-10-19T12:40:51.587Z</time>
      </trkpt>
      <trkpt lat="43.52749" lon="5.6368">
        <ele>420</ele>
        <time>2022-10-19T12:40:52.587Z</time>
      </trkpt>
      <trkpt lat="43.52749" lon="5.63682">
        <ele>420</ele>
        <time>2022-10-19T12:40:53.587Z</time>
      </trkpt>
      <trkpt lat="43.52749" lon="5.63684">
        <ele>420</ele>
        <time>2022-10-19T12:40:54.587Z</time>
      </trkpt>
      <trkpt lat="43.5275" lon="5.63686">
        <ele>420</ele>
        <time>2022-10-19T12:40:55.587Z</time>
      </trkpt>
      <trkpt lat="43.5275" lon="5.63688">
        <ele>420</ele>
        <time>2022-10-19T12:40:56.587Z</time>
      </trkpt>
      <trkpt lat="43.5275" lon="5.6369">
        <ele>420</ele>
        <time>2022-10-19T12:40:57.587Z</time>
      </trkpt>
      <trkpt lat="43.5275" lon="5.63692">
        <ele>420</ele>
        <time>2022-10-19T12:40:58.587Z</time>
      </trkpt>
      <trkpt lat="43.5275" lon="5.63693">
        <ele>420</ele>
        <time>2022-10-19T12:40:59.587Z</time>
      </trkpt>
      <trkpt lat="43.5275" lon="5.63695">
        <ele>420</ele>
        <time>2022-10-19T12:41:00.587Z</time>
      </trkpt>
      <trkpt lat="43.52751" lon="5.63697">
        <ele>420</ele>
        <time>2022-10-19T12:41:01.587Z</time>
      </trkpt>
      <trkpt lat="43.52751" lon="5.63699">
        <ele>420</ele>
        <time>2022-10-19T12:41:02.587Z</time>
      </trkpt>
      <trkpt lat="43.52751" lon="5.63701">
        <ele>420</ele>
        <time>2022-10-19T12:41:03.587Z</time>
      </trkpt>
      <trkpt lat="43.52751" lon="5.63703">
        <ele>420</ele>
        <time>2022-10-19T12:41:04.587Z</time>
      </trkpt>
      <trkpt lat="43.52751" lon="5.63705">
        <ele>420</ele>
        <time>2022-10-19T12:41:05.587Z</time>
      </trkpt>
      <trkpt lat="43.52751" lon="5.63706">
        <ele>420</ele>
        <time>2022-10-19T12:41:06.587Z</time>
      </trkpt>
      <trkpt lat="43.52751" lon="5.63708">
        <ele>420</ele>
        <time>2022-10-19T12:41:07.587Z</time>
      </trkpt>
      <trkpt lat="43.52751" lon="5.6371">
        <ele>420</ele>
        <time>2022-10-19T12:41:08.587Z</time>
      </trkpt>
      <trkpt lat="43.52751" lon="5.63712">
        <ele>420</ele>
        <time>2022-10-19T12:41:09.587Z</time>
      </trkpt>
      <trkpt lat="43.52751" lon="5.63713">
        <ele>420</ele>
        <time>2022-10-19T12:41:10.587Z</time>
      </trkpt>
      <trkpt lat="43.52752" lon="5.63715">
        <ele>421</ele>
        <time>2022-10-19T12:41:11.587Z</time>
      </trkpt>
      <trkpt lat="43.52752" lon="5.63717">
        <ele>421</ele>
        <time>2022-10-19T12:41:12.587Z</time>
      </trkpt>
      <trkpt lat="43.52752" lon="5.63718">
        <ele>421</ele>
        <time>2022-10-19T12:41:13.587Z</time>
      </trkpt>
      <trkpt lat="43.52752" lon="5.63721">
        <ele>421</ele>
        <time>2022-10-19T12:41:14.587Z</time>
      </trkpt>
      <trkpt lat="43.52752" lon="5.63722">
        <ele>421</ele>
        <time>2022-10-19T12:41:15.587Z</time>
      </trkpt>
      <trkpt lat="43.52753" lon="5.63724">
        <ele>421</ele>
        <time>2022-10-19T12:41:16.587Z</time>
      </trkpt>
      <trkpt lat="43.52753" lon="5.63725">
        <ele>421</ele>
        <time>2022-10-19T12:41:17.587Z</time>
      </trkpt>
      <trkpt lat="43.52753" lon="5.63727">
        <ele>421</ele>
        <time>2022-10-19T12:41:18.587Z</time>
      </trkpt>
      <trkpt lat="43.52753" lon="5.63729">
        <ele>421</ele>
        <time>2022-10-19T12:41:19.587Z</time>
      </trkpt>
      <trkpt lat="43.52754" lon="5.63731">
        <ele>422</ele>
        <time>2022-10-19T12:41:20.587Z</time>
      </trkpt>
      <trkpt lat="43.52754" lon="5.63732">
        <ele>422</ele>
        <time>2022-10-19T12:41:21.587Z</time>
      </trkpt>
      <trkpt lat="43.52754" lon="5.63734">
        <ele>422</ele>
        <time>2022-10-19T12:41:22.587Z</time>
      </trkpt>
      <trkpt lat="43.52754" lon="5.63736">
        <ele>422</ele>
        <time>2022-10-19T12:41:23.587Z</time>
      </trkpt>
      <trkpt lat="43.52754" lon="5.63737">
        <ele>422</ele>
        <time>2022-10-19T12:41:24.587Z</time>
      </trkpt>
      <trkpt lat="43.52754" lon="5.63739">
        <ele>422</ele>
        <time>2022-10-19T12:41:25.587Z</time>
      </trkpt>
      <trkpt lat="43.52753" lon="5.6374">
        <ele>422</ele>
        <time>2022-10-19T12:41:26.587Z</time>
      </trkpt>
      <trkpt lat="43.52753" lon="5.63742">
        <ele>422</ele>
        <time>2022-10-19T12:41:27.587Z</time>
      </trkpt>
      <trkpt lat="43.52753" lon="5.63743">
        <ele>423</ele>
        <time>2022-10-19T12:41:28.587Z</time>
      </trkpt>
      <trkpt lat="43.52753" lon="5.63745">
        <ele>423</ele>
        <time>2022-10-19T12:41:29.587Z</time>
      </trkpt>
      <trkpt lat="43.52753" lon="5.63747">
        <ele>423</ele>
        <time>2022-10-19T12:41:30.587Z</time>
      </trkpt>
      <trkpt lat="43.52753" lon="5.63748">
        <ele>423</ele>
        <time>2022-10-19T12:41:31.587Z</time>
      </trkpt>
      <trkpt lat="43.52753" lon="5.6375">
        <ele>422</ele>
        <time>2022-10-19T12:41:32.587Z</time>
      </trkpt>
      <trkpt lat="43.52752" lon="5.63752">
        <ele>422</ele>
        <time>2022-10-19T12:41:33.587Z</time>
      </trkpt>
      <trkpt lat="43.52752" lon="5.63753">
        <ele>422</ele>
        <time>2022-10-19T12:41:34.587Z</time>
      </trkpt>
      <trkpt lat="43.52752" lon="5.63753">
        <ele>422</ele>
        <time>2022-10-19T12:41:35.587Z</time>
      </trkpt>
      <trkpt lat="43.52752" lon="5.63753">
        <ele>422</ele>
        <time>2022-10-19T12:41:36.587Z</time>
      </trkpt>
      <trkpt lat="43.52752" lon="5.63753">
        <ele>423</ele>
        <time>2022-10-19T12:41:37.587Z</time>
      </trkpt>
      <trkpt lat="43.52753" lon="5.63753">
        <ele>423</ele>
        <time>2022-10-19T12:41:38.587Z</time>
      </trkpt>
      <trkpt lat="43.52753" lon="5.63753">
        <ele>423</ele>
        <time>2022-10-19T12:41:39.587Z</time>
      </trkpt>
      <trkpt lat="43.52753" lon="5.63753">
        <ele>423</ele>
        <time>2022-10-19T12:41:40.587Z</time>
      </trkpt>
      <trkpt lat="43.52753" lon="5.63753">
        <ele>423</ele>
        <time>2022-10-19T12:41:41.587Z</time>
      </trkpt>
      <trkpt lat="43.52753" lon="5.63753">
        <ele>423</ele>
        <time>2022-10-19T12:41:42.587Z</time>
      </trkpt>
      <trkpt lat="43.52753" lon="5.63753">
        <ele>423</ele>
        <time>2022-10-19T12:41:43.587Z</time>
      </trkpt>
      <trkpt lat="43.52753" lon="5.63753">
        <ele>423</ele>
        <time>2022-10-19T12:41:44.587Z</time>
      </trkpt>
      <trkpt lat="43.52753" lon="5.63753">
        <ele>423</ele>
        <time>2022-10-19T12:41:45.587Z</time>
      </trkpt>
      <trkpt lat="43.52753" lon="5.63754">
        <ele>423</ele>
        <time>2022-10-19T12:41:46.587Z</time>
      </trkpt>
      <trkpt lat="43.52754" lon="5.63754">
        <ele>423</ele>
        <time>2022-10-19T12:41:47.587Z</time>
      </trkpt>
      <trkpt lat="43.52754" lon="5.63754">
        <ele>423</ele>
        <time>2022-10-19T12:41:48.587Z</time>
      </trkpt>
      <trkpt lat="43.52754" lon="5.63753">
        <ele>422</ele>
        <time>2022-10-19T12:41:49.587Z</time>
      </trkpt>
      <trkpt lat="43.52754" lon="5.63753">
        <ele>422</ele>
        <time>2022-10-19T12:41:50.587Z</time>
      </trkpt>
      <trkpt lat="43.52754" lon="5.63753">
        <ele>422</ele>
        <time>2022-10-19T12:41:51.587Z</time>
      </trkpt>
      <trkpt lat="43.52754" lon="5.63753">
        <ele>422</ele>
        <time>2022-10-19T12:41:52.587Z</time>
      </trkpt>
      <trkpt lat="43.52754" lon="5.63753">
        <ele>422</ele>
        <time>2022-10-19T12:41:53.587Z</time>
      </trkpt>
      <trkpt lat="43.52754" lon="5.63753">
        <ele>422</ele>
        <time>2022-10-19T12:41:54.587Z</time>
      </trkpt>
      <trkpt lat="43.52754" lon="5.63753">
        <ele>423</ele>
        <time>2022-10-19T12:41:55.587Z</time>
      </trkpt>
      <trkpt lat="43.52754" lon="5.63754">
        <ele>423</ele>
        <time>2022-10-19T12:41:56.587Z</time>
      </trkpt>
      <trkpt lat="43.52754" lon="5.63754">
        <ele>423</ele>
        <time>2022-10-19T12:41:57.587Z</time>
      </trkpt>
      <trkpt lat="43.52754" lon="5.63754">
        <ele>423</ele>
        <time>2022-10-19T12:41:58.587Z</time>
      </trkpt>
      <trkpt lat="43.52754" lon="5.63754">
        <ele>423</ele>
        <time>2022-10-19T12:41:59.587Z</time>
      </trkpt>
      <trkpt lat="43.52755" lon="5.63754">
        <ele>423</ele>
        <time>2022-10-19T12:42:00.587Z</time>
      </trkpt>
      <trkpt lat="43.52755" lon="5.63754">
        <ele>423</ele>
        <time>2022-10-19T12:42:01.587Z</time>
      </trkpt>
      <trkpt lat="43.52755" lon="5.63754">
        <ele>423</ele>
        <time>2022-10-19T12:42:02.587Z</time>
      </trkpt>
      <trkpt lat="43.52755" lon="5.63754">
        <ele>422</ele>
        <time>2022-10-19T12:42:03.587Z</time>
      </trkpt>
      <trkpt lat="43.52755" lon="5.63754">
        <ele>422</ele>
        <time>2022-10-19T12:42:04.587Z</time>
      </trkpt>
      <trkpt lat="43.52755" lon="5.63754">
        <ele>422</ele>
        <time>2022-10-19T12:42:05.587Z</time>
      </trkpt>
      <trkpt lat="43.52755" lon="5.63754">
        <ele>422</ele>
        <time>2022-10-19T12:42:06.587Z</time>
      </trkpt>
      <trkpt lat="43.52755" lon="5.63754">
        <ele>422</ele>
        <time>2022-10-19T12:42:07.587Z</time>
      </trkpt>
      <trkpt lat="43.52755" lon="5.63754">
        <ele>422</ele>
        <time>2022-10-19T12:42:08.587Z</time>
      </trkpt>
      <trkpt lat="43.52755" lon="5.63754">
        <ele>422</ele>
        <time>2022-10-19T12:42:09.587Z</time>
      </trkpt>
      <trkpt lat="43.52755" lon="5.63754">
        <ele>422</ele>
        <time>2022-10-19T12:42:10.587Z</time>
      </trkpt>
      <trkpt lat="43.52755" lon="5.63754">
        <ele>422</ele>
        <time>2022-10-19T12:42:11.587Z</time>
      </trkpt>
      <trkpt lat="43.52755" lon="5.63754">
        <ele>422</ele>
        <time>2022-10-19T12:42:12.587Z</time>
      </trkpt>
      <trkpt lat="43.52755" lon="5.63754">
        <ele>422</ele>
        <time>2022-10-19T12:42:13.587Z</time>
      </trkpt>
      <trkpt lat="43.52756" lon="5.63755">
        <ele>422</ele>
        <time>2022-10-19T12:42:14.587Z</time>
      </trkpt>
      <trkpt lat="43.52756" lon="5.63757">
        <ele>422</ele>
        <time>2022-10-19T12:42:15.587Z</time>
      </trkpt>
      <trkpt lat="43.52756" lon="5.63758">
        <ele>422</ele>
        <time>2022-10-19T12:42:16.587Z</time>
      </trkpt>
      <trkpt lat="43.52756" lon="5.6376">
        <ele>422</ele>
        <time>2022-10-19T12:42:17.587Z</time>
      </trkpt>
      <trkpt lat="43.52757" lon="5.63762">
        <ele>422</ele>
        <time>2022-10-19T12:42:18.587Z</time>
      </trkpt>
      <trkpt lat="43.52757" lon="5.63763">
        <ele>422</ele>
        <time>2022-10-19T12:42:19.587Z</time>
      </trkpt>
      <trkpt lat="43.52757" lon="5.63765">
        <ele>423</ele>
        <time>2022-10-19T12:42:20.587Z</time>
      </trkpt>
      <trkpt lat="43.52757" lon="5.63767">
        <ele>423</ele>
        <time>2022-10-19T12:42:21.587Z</time>
      </trkpt>
      <trkpt lat="43.52757" lon="5.63768">
        <ele>423</ele>
        <time>2022-10-19T12:42:22.587Z</time>
      </trkpt>
      <trkpt lat="43.52758" lon="5.6377">
        <ele>422</ele>
        <time>2022-10-19T12:42:23.587Z</time>
      </trkpt>
      <trkpt lat="43.52758" lon="5.63771">
        <ele>422</ele>
        <time>2022-10-19T12:42:24.587Z</time>
      </trkpt>
      <trkpt lat="43.52758" lon="5.63773">
        <ele>422</ele>
        <time>2022-10-19T12:42:25.587Z</time>
      </trkpt>
      <trkpt lat="43.52758" lon="5.63775">
        <ele>422</ele>
        <time>2022-10-19T12:42:26.587Z</time>
      </trkpt>
      <trkpt lat="43.52758" lon="5.63777">
        <ele>422</ele>
        <time>2022-10-19T12:42:27.587Z</time>
      </trkpt>
      <trkpt lat="43.52759" lon="5.63778">
        <ele>422</ele>
        <time>2022-10-19T12:42:28.587Z</time>
      </trkpt>
      <trkpt lat="43.52759" lon="5.6378">
        <ele>422</ele>
        <time>2022-10-19T12:42:29.587Z</time>
      </trkpt>
      <trkpt lat="43.52759" lon="5.63781">
        <ele>422</ele>
        <time>2022-10-19T12:42:30.587Z</time>
      </trkpt>
      <trkpt lat="43.52759" lon="5.63783">
        <ele>423</ele>
        <time>2022-10-19T12:42:31.587Z</time>
      </trkpt>
      <trkpt lat="43.52759" lon="5.63785">
        <ele>422</ele>
        <time>2022-10-19T12:42:32.587Z</time>
      </trkpt>
      <trkpt lat="43.52759" lon="5.63787">
        <ele>423</ele>
        <time>2022-10-19T12:42:33.587Z</time>
      </trkpt>
      <trkpt lat="43.52759" lon="5.63789">
        <ele>423</ele>
        <time>2022-10-19T12:42:34.587Z</time>
      </trkpt>
      <trkpt lat="43.5276" lon="5.63791">
        <ele>423</ele>
        <time>2022-10-19T12:42:35.587Z</time>
      </trkpt>
      <trkpt lat="43.5276" lon="5.63793">
        <ele>422</ele>
        <time>2022-10-19T12:42:36.587Z</time>
      </trkpt>
      <trkpt lat="43.5276" lon="5.63794">
        <ele>422</ele>
        <time>2022-10-19T12:42:37.587Z</time>
      </trkpt>
      <trkpt lat="43.5276" lon="5.63796">
        <ele>422</ele>
        <time>2022-10-19T12:42:38.587Z</time>
      </trkpt>
      <trkpt lat="43.5276" lon="5.63798">
        <ele>422</ele>
        <time>2022-10-19T12:42:39.587Z</time>
      </trkpt>
      <trkpt lat="43.5276" lon="5.638">
        <ele>422</ele>
        <time>2022-10-19T12:42:40.587Z</time>
      </trkpt>
      <trkpt lat="43.52761" lon="5.63801">
        <ele>422</ele>
        <time>2022-10-19T12:42:41.587Z</time>
      </trkpt>
      <trkpt lat="43.52761" lon="5.63803">
        <ele>422</ele>
        <time>2022-10-19T12:42:42.587Z</time>
      </trkpt>
      <trkpt lat="43.52761" lon="5.63805">
        <ele>422</ele>
        <time>2022-10-19T12:42:43.587Z</time>
      </trkpt>
      <trkpt lat="43.52761" lon="5.63807">
        <ele>422</ele>
        <time>2022-10-19T12:42:44.587Z</time>
      </trkpt>
      <trkpt lat="43.52761" lon="5.63809">
        <ele>422</ele>
        <time>2022-10-19T12:42:45.587Z</time>
      </trkpt>
      <trkpt lat="43.52761" lon="5.6381">
        <ele>422</ele>
        <time>2022-10-19T12:42:46.587Z</time>
      </trkpt>
      <trkpt lat="43.52761" lon="5.63812">
        <ele>422</ele>
        <time>2022-10-19T12:42:47.587Z</time>
      </trkpt>
      <trkpt lat="43.52761" lon="5.63814">
        <ele>422</ele>
        <time>2022-10-19T12:42:48.587Z</time>
      </trkpt>
      <trkpt lat="43.52761" lon="5.63816">
        <ele>422</ele>
        <time>2022-10-19T12:42:49.587Z</time>
      </trkpt>
      <trkpt lat="43.52761" lon="5.63817">
        <ele>422</ele>
        <time>2022-10-19T12:42:50.587Z</time>
      </trkpt>
      <trkpt lat="43.52761" lon="5.63819">
        <ele>422</ele>
        <time>2022-10-19T12:42:51.587Z</time>
      </trkpt>
      <trkpt lat="43.52761" lon="5.63821">
        <ele>422</ele>
        <time>2022-10-19T12:42:52.587Z</time>
      </trkpt>
      <trkpt lat="43.52761" lon="5.63823">
        <ele>422</ele>
        <time>2022-10-19T12:42:53.587Z</time>
      </trkpt>
      <trkpt lat="43.52762" lon="5.63825">
        <ele>422</ele>
        <time>2022-10-19T12:42:54.587Z</time>
      </trkpt>
      <trkpt lat="43.52762" lon="5.63827">
        <ele>422</ele>
        <time>2022-10-19T12:42:55.587Z</time>
      </trkpt>
      <trkpt lat="43.52762" lon="5.63829">
        <ele>422</ele>
        <time>2022-10-19T12:42:56.587Z</time>
      </trkpt>
      <trkpt lat="43.52762" lon="5.6383">
        <ele>422</ele>
        <time>2022-10-19T12:42:57.587Z</time>
      </trkpt>
      <trkpt lat="43.52762" lon="5.63832">
        <ele>422</ele>
        <time>2022-10-19T12:42:58.587Z</time>
      </trkpt>
      <trkpt lat="43.52762" lon="5.63834">
        <ele>422</ele>
        <time>2022-10-19T12:42:59.587Z</time>
      </trkpt>
      <trkpt lat="43.52762" lon="5.63836">
        <ele>422</ele>
        <time>2022-10-19T12:43:00.587Z</time>
      </trkpt>
      <trkpt lat="43.52762" lon="5.63838">
        <ele>422</ele>
        <time>2022-10-19T12:43:01.587Z</time>
      </trkpt>
      <trkpt lat="43.52761" lon="5.6384">
        <ele>422</ele>
        <time>2022-10-19T12:43:02.587Z</time>
      </trkpt>
      <trkpt lat="43.52761" lon="5.63842">
        <ele>422</ele>
        <time>2022-10-19T12:43:03.587Z</time>
      </trkpt>
      <trkpt lat="43.52761" lon="5.63844">
        <ele>422</ele>
        <time>2022-10-19T12:43:04.587Z</time>
      </trkpt>
      <trkpt lat="43.52761" lon="5.63845">
        <ele>422</ele>
        <time>2022-10-19T12:43:05.587Z</time>
      </trkpt>
      <trkpt lat="43.5276" lon="5.63847">
        <ele>422</ele>
        <time>2022-10-19T12:43:06.587Z</time>
      </trkpt>
      <trkpt lat="43.5276" lon="5.63849">
        <ele>422</ele>
        <time>2022-10-19T12:43:07.587Z</time>
      </trkpt>
      <trkpt lat="43.5276" lon="5.63851">
        <ele>422</ele>
        <time>2022-10-19T12:43:08.587Z</time>
      </trkpt>
      <trkpt lat="43.5276" lon="5.63853">
        <ele>422</ele>
        <time>2022-10-19T12:43:09.587Z</time>
      </trkpt>
      <trkpt lat="43.52759" lon="5.63854">
        <ele>422</ele>
        <time>2022-10-19T12:43:10.587Z</time>
      </trkpt>
      <trkpt lat="43.52759" lon="5.63856">
        <ele>422</ele>
        <time>2022-10-19T12:43:11.587Z</time>
      </trkpt>
      <trkpt lat="43.52759" lon="5.63858">
        <ele>422</ele>
        <time>2022-10-19T12:43:12.587Z</time>
      </trkpt>
      <trkpt lat="43.52759" lon="5.63859">
        <ele>422</ele>
        <time>2022-10-19T12:43:13.587Z</time>
      </trkpt>
      <trkpt lat="43.52759" lon="5.63861">
        <ele>422</ele>
        <time>2022-10-19T12:43:14.587Z</time>
      </trkpt>
      <trkpt lat="43.52759" lon="5.63863">
        <ele>422</ele>
        <time>2022-10-19T12:43:15.587Z</time>
      </trkpt>
      <trkpt lat="43.52758" lon="5.63865">
        <ele>422</ele>
        <time>2022-10-19T12:43:16.587Z</time>
      </trkpt>
      <trkpt lat="43.52758" lon="5.63867">
        <ele>422</ele>
        <time>2022-10-19T12:43:17.587Z</time>
      </trkpt>
      <trkpt lat="43.52758" lon="5.63868">
        <ele>422</ele>
        <time>2022-10-19T12:43:18.587Z</time>
      </trkpt>
      <trkpt lat="43.52758" lon="5.6387">
        <ele>422</ele>
        <time>2022-10-19T12:43:19.587Z</time>
      </trkpt>
      <trkpt lat="43.52757" lon="5.63872">
        <ele>422</ele>
        <time>2022-10-19T12:43:20.587Z</time>
      </trkpt>
      <trkpt lat="43.52757" lon="5.63874">
        <ele>422</ele>
        <time>2022-10-19T12:43:21.587Z</time>
      </trkpt>
      <trkpt lat="43.52757" lon="5.63876">
        <ele>422</ele>
        <time>2022-10-19T12:43:22.587Z</time>
      </trkpt>
      <trkpt lat="43.52756" lon="5.63878">
        <ele>422</ele>
        <time>2022-10-19T12:43:23.587Z</time>
      </trkpt>
      <trkpt lat="43.52756" lon="5.6388">
        <ele>422</ele>
        <time>2022-10-19T12:43:24.587Z</time>
      </trkpt>
      <trkpt lat="43.52756" lon="5.63882">
        <ele>422</ele>
        <time>2022-10-19T12:43:25.587Z</time>
      </trkpt>
      <trkpt lat="43.52756" lon="5.63884">
        <ele>422</ele>
        <time>2022-10-19T12:43:26.587Z</time>
      </trkpt>
      <trkpt lat="43.52756" lon="5.63885">
        <ele>422</ele>
        <time>2022-10-19T12:43:27.587Z</time>
      </trkpt>
      <trkpt lat="43.52755" lon="5.63887">
        <ele>422</ele>
        <time>2022-10-19T12:43:28.587Z</time>
      </trkpt>
      <trkpt lat="43.52755" lon="5.63889">
        <ele>422</ele>
        <time>2022-10-19T12:43:29.587Z</time>
      </trkpt>
      <trkpt lat="43.52755" lon="5.6389">
        <ele>422</ele>
        <time>2022-10-19T12:43:30.587Z</time>
      </trkpt>
      <trkpt lat="43.52755" lon="5.63892">
        <ele>423</ele>
        <time>2022-10-19T12:43:31.587Z</time>
      </trkpt>
      <trkpt lat="43.52755" lon="5.63894">
        <ele>423</ele>
        <time>2022-10-19T12:43:32.587Z</time>
      </trkpt>
      <trkpt lat="43.52755" lon="5.63896">
        <ele>423</ele>
        <time>2022-10-19T12:43:33.587Z</time>
      </trkpt>
      <trkpt lat="43.52755" lon="5.63898">
        <ele>423</ele>
        <time>2022-10-19T12:43:34.587Z</time>
      </trkpt>
      <trkpt lat="43.52755" lon="5.63899">
        <ele>423</ele>
        <time>2022-10-19T12:43:35.587Z</time>
      </trkpt>
      <trkpt lat="43.52754" lon="5.63901">
        <ele>423</ele>
        <time>2022-10-19T12:43:36.587Z</time>
      </trkpt>
      <trkpt lat="43.52754" lon="5.63903">
        <ele>423</ele>
        <time>2022-10-19T12:43:37.587Z</time>
      </trkpt>
      <trkpt lat="43.52754" lon="5.63905">
        <ele>423</ele>
        <time>2022-10-19T12:43:38.587Z</time>
      </trkpt>
      <trkpt lat="43.52754" lon="5.63906">
        <ele>423</ele>
        <time>2022-10-19T12:43:39.587Z</time>
      </trkpt>
      <trkpt lat="43.52754" lon="5.63908">
        <ele>423</ele>
        <time>2022-10-19T12:43:40.587Z</time>
      </trkpt>
      <trkpt lat="43.52754" lon="5.6391">
        <ele>423</ele>
        <time>2022-10-19T12:43:41.587Z</time>
      </trkpt>
      <trkpt lat="43.52754" lon="5.63912">
        <ele>423</ele>
        <time>2022-10-19T12:43:42.587Z</time>
      </trkpt>
      <trkpt lat="43.52754" lon="5.63914">
        <ele>422</ele>
        <time>2022-10-19T12:43:43.587Z</time>
      </trkpt>
      <trkpt lat="43.52754" lon="5.63915">
        <ele>422</ele>
        <time>2022-10-19T12:43:44.587Z</time>
      </trkpt>
      <trkpt lat="43.52754" lon="5.63917">
        <ele>422</ele>
        <time>2022-10-19T12:43:45.587Z</time>
      </trkpt>
      <trkpt lat="43.52754" lon="5.63919">
        <ele>422</ele>
        <time>2022-10-19T12:43:46.587Z</time>
      </trkpt>
      <trkpt lat="43.52753" lon="5.63921">
        <ele>422</ele>
        <time>2022-10-19T12:43:47.587Z</time>
      </trkpt>
      <trkpt lat="43.52754" lon="5.63923">
        <ele>422</ele>
        <time>2022-10-19T12:43:48.587Z</time>
      </trkpt>
      <trkpt lat="43.52754" lon="5.63925">
        <ele>422</ele>
        <time>2022-10-19T12:43:49.587Z</time>
      </trkpt>
      <trkpt lat="43.52753" lon="5.63927">
        <ele>422</ele>
        <time>2022-10-19T12:43:50.587Z</time>
      </trkpt>
      <trkpt lat="43.52753" lon="5.63929">
        <ele>422</ele>
        <time>2022-10-19T12:43:51.587Z</time>
      </trkpt>
      <trkpt lat="43.52753" lon="5.6393">
        <ele>422</ele>
        <time>2022-10-19T12:43:52.587Z</time>
      </trkpt>
      <trkpt lat="43.52753" lon="5.63932">
        <ele>422</ele>
        <time>2022-10-19T12:43:53.587Z</time>
      </trkpt>
      <trkpt lat="43.52753" lon="5.63934">
        <ele>422</ele>
        <time>2022-10-19T12:43:54.587Z</time>
      </trkpt>
      <trkpt lat="43.52753" lon="5.63935">
        <ele>422</ele>
        <time>2022-10-19T12:43:55.587Z</time>
      </trkpt>
      <trkpt lat="43.52753" lon="5.63937">
        <ele>422</ele>
        <time>2022-10-19T12:43:56.587Z</time>
      </trkpt>
      <trkpt lat="43.52753" lon="5.63939">
        <ele>422</ele>
        <time>2022-10-19T12:43:57.587Z</time>
      </trkpt>
      <trkpt lat="43.52753" lon="5.63941">
        <ele>421</ele>
        <time>2022-10-19T12:43:58.587Z</time>
      </trkpt>
      <trkpt lat="43.52753" lon="5.63943">
        <ele>421</ele>
        <time>2022-10-19T12:43:59.587Z</time>
      </trkpt>
      <trkpt lat="43.52753" lon="5.63944">
        <ele>421</ele>
        <time>2022-10-19T12:44:00.587Z</time>
      </trkpt>
      <trkpt lat="43.52753" lon="5.63946">
        <ele>421</ele>
        <time>2022-10-19T12:44:01.587Z</time>
      </trkpt>
      <trkpt lat="43.52753" lon="5.63948">
        <ele>421</ele>
        <time>2022-10-19T12:44:02.587Z</time>
      </trkpt>
      <trkpt lat="43.52753" lon="5.6395">
        <ele>421</ele>
        <time>2022-10-19T12:44:03.587Z</time>
      </trkpt>
      <trkpt lat="43.52753" lon="5.63952">
        <ele>421</ele>
        <time>2022-10-19T12:44:04.587Z</time>
      </trkpt>
      <trkpt lat="43.52753" lon="5.63954">
        <ele>421</ele>
        <time>2022-10-19T12:44:05.587Z</time>
      </trkpt>
      <trkpt lat="43.52753" lon="5.63955">
        <ele>421</ele>
        <time>2022-10-19T12:44:06.587Z</time>
      </trkpt>
      <trkpt lat="43.52753" lon="5.63957">
        <ele>421</ele>
        <time>2022-10-19T12:44:07.587Z</time>
      </trkpt>
      <trkpt lat="43.52752" lon="5.63959">
        <ele>421</ele>
        <time>2022-10-19T12:44:08.587Z</time>
      </trkpt>
      <trkpt lat="43.52752" lon="5.63961">
        <ele>421</ele>
        <time>2022-10-19T12:44:09.587Z</time>
      </trkpt>
      <trkpt lat="43.52752" lon="5.63963">
        <ele>420</ele>
        <time>2022-10-19T12:44:10.587Z</time>
      </trkpt>
      <trkpt lat="43.52752" lon="5.63965">
        <ele>420</ele>
        <time>2022-10-19T12:44:11.587Z</time>
      </trkpt>
      <trkpt lat="43.52752" lon="5.63967">
        <ele>420</ele>
        <time>2022-10-19T12:44:12.587Z</time>
      </trkpt>
      <trkpt lat="43.52752" lon="5.63968">
        <ele>420</ele>
        <time>2022-10-19T12:44:13.587Z</time>
      </trkpt>
      <trkpt lat="43.52752" lon="5.6397">
        <ele>420</ele>
        <time>2022-10-19T12:44:14.587Z</time>
      </trkpt>
      <trkpt lat="43.52752" lon="5.63971">
        <ele>420</ele>
        <time>2022-10-19T12:44:15.587Z</time>
      </trkpt>
      <trkpt lat="43.52752" lon="5.63973">
        <ele>420</ele>
        <time>2022-10-19T12:44:16.587Z</time>
      </trkpt>
      <trkpt lat="43.52752" lon="5.63975">
        <ele>419</ele>
        <time>2022-10-19T12:44:17.587Z</time>
      </trkpt>
      <trkpt lat="43.52752" lon="5.63977">
        <ele>419</ele>
        <time>2022-10-19T12:44:18.587Z</time>
      </trkpt>
      <trkpt lat="43.52752" lon="5.63979">
        <ele>419</ele>
        <time>2022-10-19T12:44:19.587Z</time>
      </trkpt>
      <trkpt lat="43.52752" lon="5.63981">
        <ele>419</ele>
        <time>2022-10-19T12:44:20.587Z</time>
      </trkpt>
      <trkpt lat="43.52752" lon="5.63983">
        <ele>419</ele>
        <time>2022-10-19T12:44:21.587Z</time>
      </trkpt>
      <trkpt lat="43.52752" lon="5.63984">
        <ele>419</ele>
        <time>2022-10-19T12:44:22.587Z</time>
      </trkpt>
      <trkpt lat="43.52752" lon="5.63986">
        <ele>419</ele>
        <time>2022-10-19T12:44:23.587Z</time>
      </trkpt>
      <trkpt lat="43.52752" lon="5.63988">
        <ele>419</ele>
        <time>2022-10-19T12:44:24.587Z</time>
      </trkpt>
      <trkpt lat="43.52753" lon="5.6399">
        <ele>419</ele>
        <time>2022-10-19T12:44:25.587Z</time>
      </trkpt>
      <trkpt lat="43.52753" lon="5.63992">
        <ele>418</ele>
        <time>2022-10-19T12:44:26.587Z</time>
      </trkpt>
      <trkpt lat="43.52753" lon="5.63994">
        <ele>418</ele>
        <time>2022-10-19T12:44:27.587Z</time>
      </trkpt>
      <trkpt lat="43.52753" lon="5.63996">
        <ele>418</ele>
        <time>2022-10-19T12:44:28.587Z</time>
      </trkpt>
      <trkpt lat="43.52753" lon="5.63997">
        <ele>418</ele>
        <time>2022-10-19T12:44:29.587Z</time>
      </trkpt>
      <trkpt lat="43.52753" lon="5.63999">
        <ele>418</ele>
        <time>2022-10-19T12:44:30.587Z</time>
      </trkpt>
      <trkpt lat="43.52753" lon="5.64001">
        <ele>418</ele>
        <time>2022-10-19T12:44:31.587Z</time>
      </trkpt>
      <trkpt lat="43.52753" lon="5.64003">
        <ele>418</ele>
        <time>2022-10-19T12:44:32.587Z</time>
      </trkpt>
      <trkpt lat="43.52753" lon="5.64004">
        <ele>418</ele>
        <time>2022-10-19T12:44:33.587Z</time>
      </trkpt>
      <trkpt lat="43.52754" lon="5.64006">
        <ele>418</ele>
        <time>2022-10-19T12:44:34.587Z</time>
      </trkpt>
      <trkpt lat="43.52754" lon="5.64008">
        <ele>418</ele>
        <time>2022-10-19T12:44:35.587Z</time>
      </trkpt>
      <trkpt lat="43.52754" lon="5.6401">
        <ele>418</ele>
        <time>2022-10-19T12:44:36.587Z</time>
      </trkpt>
      <trkpt lat="43.52755" lon="5.64012">
        <ele>418</ele>
        <time>2022-10-19T12:44:37.587Z</time>
      </trkpt>
      <trkpt lat="43.52755" lon="5.64014">
        <ele>418</ele>
        <time>2022-10-19T12:44:38.587Z</time>
      </trkpt>
      <trkpt lat="43.52755" lon="5.64016">
        <ele>418</ele>
        <time>2022-10-19T12:44:39.587Z</time>
      </trkpt>
      <trkpt lat="43.52755" lon="5.64017">
        <ele>418</ele>
        <time>2022-10-19T12:44:40.587Z</time>
      </trkpt>
      <trkpt lat="43.52755" lon="5.64019">
        <ele>418</ele>
        <time>2022-10-19T12:44:41.587Z</time>
      </trkpt>
      <trkpt lat="43.52755" lon="5.64021">
        <ele>418</ele>
        <time>2022-10-19T12:44:42.587Z</time>
      </trkpt>
      <trkpt lat="43.52755" lon="5.64023">
        <ele>418</ele>
        <time>2022-10-19T12:44:43.587Z</time>
      </trkpt>
      <trkpt lat="43.52755" lon="5.64024">
        <ele>417</ele>
        <time>2022-10-19T12:44:44.587Z</time>
      </trkpt>
      <trkpt lat="43.52755" lon="5.64026">
        <ele>417</ele>
        <time>2022-10-19T12:44:45.587Z</time>
      </trkpt>
      <trkpt lat="43.52755" lon="5.64028">
        <ele>417</ele>
        <time>2022-10-19T12:44:46.587Z</time>
      </trkpt>
      <trkpt lat="43.52755" lon="5.6403">
        <ele>417</ele>
        <time>2022-10-19T12:44:47.587Z</time>
      </trkpt>
      <trkpt lat="43.52756" lon="5.64032">
        <ele>417</ele>
        <time>2022-10-19T12:44:48.587Z</time>
      </trkpt>
      <trkpt lat="43.52756" lon="5.64034">
        <ele>417</ele>
        <time>2022-10-19T12:44:49.587Z</time>
      </trkpt>
      <trkpt lat="43.52756" lon="5.64035">
        <ele>417</ele>
        <time>2022-10-19T12:44:50.587Z</time>
      </trkpt>
      <trkpt lat="43.52756" lon="5.64037">
        <ele>417</ele>
        <time>2022-10-19T12:44:51.587Z</time>
      </trkpt>
      <trkpt lat="43.52756" lon="5.64039">
        <ele>417</ele>
        <time>2022-10-19T12:44:52.587Z</time>
      </trkpt>
      <trkpt lat="43.52757" lon="5.64041">
        <ele>417</ele>
        <time>2022-10-19T12:44:53.587Z</time>
      </trkpt>
      <trkpt lat="43.52757" lon="5.64043">
        <ele>417</ele>
        <time>2022-10-19T12:44:54.587Z</time>
      </trkpt>
      <trkpt lat="43.52757" lon="5.64044">
        <ele>417</ele>
        <time>2022-10-19T12:44:55.587Z</time>
      </trkpt>
      <trkpt lat="43.52757" lon="5.64046">
        <ele>416</ele>
        <time>2022-10-19T12:44:56.587Z</time>
      </trkpt>
      <trkpt lat="43.52757" lon="5.64048">
        <ele>416</ele>
        <time>2022-10-19T12:44:57.587Z</time>
      </trkpt>
      <trkpt lat="43.52757" lon="5.6405">
        <ele>416</ele>
        <time>2022-10-19T12:44:58.587Z</time>
      </trkpt>
      <trkpt lat="43.52757" lon="5.64051">
        <ele>416</ele>
        <time>2022-10-19T12:44:59.587Z</time>
      </trkpt>
      <trkpt lat="43.52758" lon="5.64053">
        <ele>416</ele>
        <time>2022-10-19T12:45:00.587Z</time>
      </trkpt>
      <trkpt lat="43.52758" lon="5.64055">
        <ele>416</ele>
        <time>2022-10-19T12:45:01.587Z</time>
      </trkpt>
      <trkpt lat="43.52758" lon="5.64057">
        <ele>416</ele>
        <time>2022-10-19T12:45:02.587Z</time>
      </trkpt>
      <trkpt lat="43.52759" lon="5.64058">
        <ele>416</ele>
        <time>2022-10-19T12:45:03.587Z</time>
      </trkpt>
      <trkpt lat="43.52759" lon="5.6406">
        <ele>415</ele>
        <time>2022-10-19T12:45:04.587Z</time>
      </trkpt>
      <trkpt lat="43.52759" lon="5.64062">
        <ele>415</ele>
        <time>2022-10-19T12:45:05.587Z</time>
      </trkpt>
      <trkpt lat="43.52759" lon="5.64064">
        <ele>415</ele>
        <time>2022-10-19T12:45:06.587Z</time>
      </trkpt>
      <trkpt lat="43.52759" lon="5.64066">
        <ele>415</ele>
        <time>2022-10-19T12:45:07.587Z</time>
      </trkpt>
      <trkpt lat="43.52759" lon="5.64067">
        <ele>415</ele>
        <time>2022-10-19T12:45:08.587Z</time>
      </trkpt>
      <trkpt lat="43.52759" lon="5.64069">
        <ele>415</ele>
        <time>2022-10-19T12:45:09.587Z</time>
      </trkpt>
      <trkpt lat="43.5276" lon="5.64071">
        <ele>415</ele>
        <time>2022-10-19T12:45:10.587Z</time>
      </trkpt>
      <trkpt lat="43.5276" lon="5.64073">
        <ele>415</ele>
        <time>2022-10-19T12:45:11.587Z</time>
      </trkpt>
      <trkpt lat="43.5276" lon="5.64075">
        <ele>415</ele>
        <time>2022-10-19T12:45:12.587Z</time>
      </trkpt>
      <trkpt lat="43.52761" lon="5.64077">
        <ele>415</ele>
        <time>2022-10-19T12:45:13.587Z</time>
      </trkpt>
      <trkpt lat="43.52761" lon="5.64079">
        <ele>415</ele>
        <time>2022-10-19T12:45:14.587Z</time>
      </trkpt>
      <trkpt lat="43.52761" lon="5.64081">
        <ele>415</ele>
        <time>2022-10-19T12:45:15.587Z</time>
      </trkpt>
      <trkpt lat="43.52761" lon="5.64082">
        <ele>415</ele>
        <time>2022-10-19T12:45:16.587Z</time>
      </trkpt>
      <trkpt lat="43.52762" lon="5.64084">
        <ele>415</ele>
        <time>2022-10-19T12:45:17.587Z</time>
      </trkpt>
      <trkpt lat="43.52762" lon="5.64086">
        <ele>415</ele>
        <time>2022-10-19T12:45:18.587Z</time>
      </trkpt>
      <trkpt lat="43.52762" lon="5.64088">
        <ele>414</ele>
        <time>2022-10-19T12:45:19.587Z</time>
      </trkpt>
      <trkpt lat="43.52762" lon="5.64089">
        <ele>414</ele>
        <time>2022-10-19T12:45:20.587Z</time>
      </trkpt>
      <trkpt lat="43.52762" lon="5.64091">
        <ele>414</ele>
        <time>2022-10-19T12:45:21.587Z</time>
      </trkpt>
      <trkpt lat="43.52762" lon="5.64093">
        <ele>414</ele>
        <time>2022-10-19T12:45:22.587Z</time>
      </trkpt>
      <trkpt lat="43.52763" lon="5.64095">
        <ele>414</ele>
        <time>2022-10-19T12:45:23.587Z</time>
      </trkpt>
      <trkpt lat="43.52763" lon="5.64096">
        <ele>414</ele>
        <time>2022-10-19T12:45:24.587Z</time>
      </trkpt>
      <trkpt lat="43.52763" lon="5.64098">
        <ele>414</ele>
        <time>2022-10-19T12:45:25.587Z</time>
      </trkpt>
      <trkpt lat="43.52763" lon="5.641">
        <ele>414</ele>
        <time>2022-10-19T12:45:26.587Z</time>
      </trkpt>
      <trkpt lat="43.52763" lon="5.64101">
        <ele>414</ele>
        <time>2022-10-19T12:45:27.587Z</time>
      </trkpt>
      <trkpt lat="43.52764" lon="5.64103">
        <ele>414</ele>
        <time>2022-10-19T12:45:28.587Z</time>
      </trkpt>
      <trkpt lat="43.52764" lon="5.64105">
        <ele>414</ele>
        <time>2022-10-19T12:45:29.587Z</time>
      </trkpt>
      <trkpt lat="43.52764" lon="5.64107">
        <ele>413</ele>
        <time>2022-10-19T12:45:30.587Z</time>
      </trkpt>
      <trkpt lat="43.52764" lon="5.64109">
        <ele>413</ele>
        <time>2022-10-19T12:45:31.587Z</time>
      </trkpt>
      <trkpt lat="43.52764" lon="5.6411">
        <ele>413</ele>
        <time>2022-10-19T12:45:32.587Z</time>
      </trkpt>
      <trkpt lat="43.52764" lon="5.64112">
        <ele>413</ele>
        <time>2022-10-19T12:45:33.587Z</time>
      </trkpt>
      <trkpt lat="43.52764" lon="5.64114">
        <ele>413</ele>
        <time>2022-10-19T12:45:34.587Z</time>
      </trkpt>
      <trkpt lat="43.52764" lon="5.64116">
        <ele>413</ele>
        <time>2022-10-19T12:45:35.587Z</time>
      </trkpt>
      <trkpt lat="43.52765" lon="5.64117">
        <ele>413</ele>
        <time>2022-10-19T12:45:36.587Z</time>
      </trkpt>
      <trkpt lat="43.52765" lon="5.64119">
        <ele>412</ele>
        <time>2022-10-19T12:45:37.587Z</time>
      </trkpt>
      <trkpt lat="43.52766" lon="5.64121">
        <ele>412</ele>
        <time>2022-10-19T12:45:38.587Z</time>
      </trkpt>
      <trkpt lat="43.52766" lon="5.64122">
        <ele>412</ele>
        <time>2022-10-19T12:45:39.587Z</time>
      </trkpt>
      <trkpt lat="43.52766" lon="5.64124">
        <ele>412</ele>
        <time>2022-10-19T12:45:40.587Z</time>
      </trkpt>
      <trkpt lat="43.52766" lon="5.64126">
        <ele>412</ele>
        <time>2022-10-19T12:45:41.587Z</time>
      </trkpt>
      <trkpt lat="43.52767" lon="5.64127">
        <ele>412</ele>
        <time>2022-10-19T12:45:42.587Z</time>
      </trkpt>
      <trkpt lat="43.52767" lon="5.64129">
        <ele>412</ele>
        <time>2022-10-19T12:45:43.587Z</time>
      </trkpt>
      <trkpt lat="43.52767" lon="5.64131">
        <ele>411</ele>
        <time>2022-10-19T12:45:44.587Z</time>
      </trkpt>
      <trkpt lat="43.52767" lon="5.64132">
        <ele>411</ele>
        <time>2022-10-19T12:45:45.587Z</time>
      </trkpt>
      <trkpt lat="43.52768" lon="5.64134">
        <ele>411</ele>
        <time>2022-10-19T12:45:46.587Z</time>
      </trkpt>
      <trkpt lat="43.52768" lon="5.64136">
        <ele>411</ele>
        <time>2022-10-19T12:45:47.587Z</time>
      </trkpt>
      <trkpt lat="43.52769" lon="5.64138">
        <ele>411</ele>
        <time>2022-10-19T12:45:48.587Z</time>
      </trkpt>
      <trkpt lat="43.52769" lon="5.6414">
        <ele>411</ele>
        <time>2022-10-19T12:45:49.587Z</time>
      </trkpt>
      <trkpt lat="43.5277" lon="5.64141">
        <ele>410</ele>
        <time>2022-10-19T12:45:50.587Z</time>
      </trkpt>
      <trkpt lat="43.5277" lon="5.64143">
        <ele>410</ele>
        <time>2022-10-19T12:45:51.587Z</time>
      </trkpt>
      <trkpt lat="43.5277" lon="5.64145">
        <ele>410</ele>
        <time>2022-10-19T12:45:52.587Z</time>
      </trkpt>
      <trkpt lat="43.52771" lon="5.64146">
        <ele>410</ele>
        <time>2022-10-19T12:45:53.587Z</time>
      </trkpt>
      <trkpt lat="43.52771" lon="5.64148">
        <ele>410</ele>
        <time>2022-10-19T12:45:54.587Z</time>
      </trkpt>
      <trkpt lat="43.52771" lon="5.64149">
        <ele>410</ele>
        <time>2022-10-19T12:45:55.587Z</time>
      </trkpt>
      <trkpt lat="43.52771" lon="5.64151">
        <ele>410</ele>
        <time>2022-10-19T12:45:56.587Z</time>
      </trkpt>
      <trkpt lat="43.52771" lon="5.64152">
        <ele>410</ele>
        <time>2022-10-19T12:45:57.587Z</time>
      </trkpt>
      <trkpt lat="43.52772" lon="5.64153">
        <ele>410</ele>
        <time>2022-10-19T12:45:58.587Z</time>
      </trkpt>
      <trkpt lat="43.52772" lon="5.64153">
        <ele>410</ele>
        <time>2022-10-19T12:45:59.587Z</time>
      </trkpt>
      <trkpt lat="43.52772" lon="5.64153">
        <ele>410</ele>
        <time>2022-10-19T12:46:00.587Z</time>
      </trkpt>
      <trkpt lat="43.52772" lon="5.64153">
        <ele>410</ele>
        <time>2022-10-19T12:46:01.587Z</time>
      </trkpt>
      <trkpt lat="43.52772" lon="5.64153">
        <ele>410</ele>
        <time>2022-10-19T12:46:02.587Z</time>
      </trkpt>
      <trkpt lat="43.52772" lon="5.64153">
        <ele>410</ele>
        <time>2022-10-19T12:46:03.587Z</time>
      </trkpt>
      <trkpt lat="43.52773" lon="5.64153">
        <ele>410</ele>
        <time>2022-10-19T12:46:04.587Z</time>
      </trkpt>
      <trkpt lat="43.52773" lon="5.64153">
        <ele>410</ele>
        <time>2022-10-19T12:46:05.587Z</time>
      </trkpt>
      <trkpt lat="43.52773" lon="5.64153">
        <ele>410</ele>
        <time>2022-10-19T12:46:06.587Z</time>
      </trkpt>
      <trkpt lat="43.52773" lon="5.64153">
        <ele>410</ele>
        <time>2022-10-19T12:46:07.587Z</time>
      </trkpt>
      <trkpt lat="43.52773" lon="5.64153">
        <ele>410</ele>
        <time>2022-10-19T12:46:08.587Z</time>
      </trkpt>
      <trkpt lat="43.52773" lon="5.64153">
        <ele>410</ele>
        <time>2022-10-19T12:46:09.587Z</time>
      </trkpt>
      <trkpt lat="43.52773" lon="5.64153">
        <ele>410</ele>
        <time>2022-10-19T12:46:10.587Z</time>
      </trkpt>
      <trkpt lat="43.52773" lon="5.64153">
        <ele>410</ele>
        <time>2022-10-19T12:46:11.587Z</time>
      </trkpt>
      <trkpt lat="43.52773" lon="5.64153">
        <ele>410</ele>
        <time>2022-10-19T12:46:12.587Z</time>
      </trkpt>
      <trkpt lat="43.52773" lon="5.64153">
        <ele>410</ele>
        <time>2022-10-19T12:46:13.587Z</time>
      </trkpt>
      <trkpt lat="43.52773" lon="5.64153">
        <ele>410</ele>
        <time>2022-10-19T12:46:14.587Z</time>
      </trkpt>
      <trkpt lat="43.52773" lon="5.64153">
        <ele>410</ele>
        <time>2022-10-19T12:46:15.587Z</time>
      </trkpt>
      <trkpt lat="43.52773" lon="5.64152">
        <ele>410</ele>
        <time>2022-10-19T12:46:16.587Z</time>
      </trkpt>
      <trkpt lat="43.52773" lon="5.64153">
        <ele>410</ele>
        <time>2022-10-19T12:46:17.587Z</time>
      </trkpt>
      <trkpt lat="43.52773" lon="5.64153">
        <ele>410</ele>
        <time>2022-10-19T12:46:18.587Z</time>
      </trkpt>
      <trkpt lat="43.52773" lon="5.64153">
        <ele>410</ele>
        <time>2022-10-19T12:46:19.587Z</time>
      </trkpt>
      <trkpt lat="43.52773" lon="5.64152">
        <ele>410</ele>
        <time>2022-10-19T12:46:20.587Z</time>
      </trkpt>
      <trkpt lat="43.52773" lon="5.64152">
        <ele>410</ele>
        <time>2022-10-19T12:46:21.587Z</time>
      </trkpt>
      <trkpt lat="43.52773" lon="5.64152">
        <ele>410</ele>
        <time>2022-10-19T12:46:22.587Z</time>
      </trkpt>
      <trkpt lat="43.52773" lon="5.64152">
        <ele>410</ele>
        <time>2022-10-19T12:46:23.587Z</time>
      </trkpt>
      <trkpt lat="43.52773" lon="5.64152">
        <ele>410</ele>
        <time>2022-10-19T12:46:24.587Z</time>
      </trkpt>
      <trkpt lat="43.52773" lon="5.64152">
        <ele>410</ele>
        <time>2022-10-19T12:46:25.587Z</time>
      </trkpt>
      <trkpt lat="43.52773" lon="5.64152">
        <ele>410</ele>
        <time>2022-10-19T12:46:26.587Z</time>
      </trkpt>
      <trkpt lat="43.52773" lon="5.64152">
        <ele>410</ele>
        <time>2022-10-19T12:46:27.587Z</time>
      </trkpt>
      <trkpt lat="43.52773" lon="5.64152">
        <ele>410</ele>
        <time>2022-10-19T12:46:28.587Z</time>
      </trkpt>
      <trkpt lat="43.52773" lon="5.64152">
        <ele>410</ele>
        <time>2022-10-19T12:46:29.587Z</time>
      </trkpt>
      <trkpt lat="43.52773" lon="5.64152">
        <ele>410</ele>
        <time>2022-10-19T12:46:30.587Z</time>
      </trkpt>
      <trkpt lat="43.52772" lon="5.64152">
        <ele>410</ele>
        <time>2022-10-19T12:46:31.587Z</time>
      </trkpt>
      <trkpt lat="43.52772" lon="5.64152">
        <ele>410</ele>
        <time>2022-10-19T12:46:32.587Z</time>
      </trkpt>
      <trkpt lat="43.52772" lon="5.64152">
        <ele>410</ele>
        <time>2022-10-19T12:46:33.587Z</time>
      </trkpt>
      <trkpt lat="43.52772" lon="5.64152">
        <ele>410</ele>
        <time>2022-10-19T12:46:34.587Z</time>
      </trkpt>
      <trkpt lat="43.52773" lon="5.64152">
        <ele>410</ele>
        <time>2022-10-19T12:46:35.587Z</time>
      </trkpt>
      <trkpt lat="43.52772" lon="5.64152">
        <ele>410</ele>
        <time>2022-10-19T12:46:36.587Z</time>
      </trkpt>
      <trkpt lat="43.52772" lon="5.64152">
        <ele>410</ele>
        <time>2022-10-19T12:46:37.587Z</time>
      </trkpt>
      <trkpt lat="43.52772" lon="5.64152">
        <ele>410</ele>
        <time>2022-10-19T12:46:38.587Z</time>
      </trkpt>
      <trkpt lat="43.52772" lon="5.64152">
        <ele>410</ele>
        <time>2022-10-19T12:46:39.587Z</time>
      </trkpt>
      <trkpt lat="43.52772" lon="5.64152">
        <ele>410</ele>
        <time>2022-10-19T12:46:40.587Z</time>
      </trkpt>
      <trkpt lat="43.52772" lon="5.64152">
        <ele>410</ele>
        <time>2022-10-19T12:46:41.587Z</time>
      </trkpt>
      <trkpt lat="43.52772" lon="5.64152">
        <ele>410</ele>
        <time>2022-10-19T12:46:42.587Z</time>
      </trkpt>
      <trkpt lat="43.52772" lon="5.64152">
        <ele>410</ele>
        <time>2022-10-19T12:46:43.587Z</time>
      </trkpt>
      <trkpt lat="43.52772" lon="5.64152">
        <ele>410</ele>
        <time>2022-10-19T12:46:44.587Z</time>
      </trkpt>
      <trkpt lat="43.52772" lon="5.64152">
        <ele>410</ele>
        <time>2022-10-19T12:46:45.587Z</time>
      </trkpt>
      <trkpt lat="43.52772" lon="5.64152">
        <ele>410</ele>
        <time>2022-10-19T12:46:46.587Z</time>
      </trkpt>
      <trkpt lat="43.52772" lon="5.64152">
        <ele>410</ele>
        <time>2022-10-19T12:46:47.587Z</time>
      </trkpt>
      <trkpt lat="43.52772" lon="5.64152">
        <ele>410</ele>
        <time>2022-10-19T12:46:48.587Z</time>
      </trkpt>
      <trkpt lat="43.52772" lon="5.64152">
        <ele>410</ele>
        <time>2022-10-19T12:46:49.587Z</time>
      </trkpt>
      <trkpt lat="43.52772" lon="5.64152">
        <ele>410</ele>
        <time>2022-10-19T12:46:50.587Z</time>
      </trkpt>
      <trkpt lat="43.52772" lon="5.64152">
        <ele>410</ele>
        <time>2022-10-19T12:46:51.587Z</time>
      </trkpt>
      <trkpt lat="43.52772" lon="5.64152">
        <ele>410</ele>
        <time>2022-10-19T12:46:52.587Z</time>
      </trkpt>
      <trkpt lat="43.52772" lon="5.64152">
        <ele>410</ele>
        <time>2022-10-19T12:46:53.587Z</time>
      </trkpt>
      <trkpt lat="43.52772" lon="5.64152">
        <ele>410</ele>
        <time>2022-10-19T12:46:54.587Z</time>
      </trkpt>
      <trkpt lat="43.52772" lon="5.64152">
        <ele>410</ele>
        <time>2022-10-19T12:46:55.587Z</time>
      </trkpt>
      <trkpt lat="43.52772" lon="5.64152">
        <ele>410</ele>
        <time>2022-10-19T12:46:56.587Z</time>
      </trkpt>
      <trkpt lat="43.52772" lon="5.64152">
        <ele>410</ele>
        <time>2022-10-19T12:46:57.587Z</time>
      </trkpt>
      <trkpt lat="43.52773" lon="5.64154">
        <ele>410</ele>
        <time>2022-10-19T12:46:58.587Z</time>
      </trkpt>
      <trkpt lat="43.52773" lon="5.64155">
        <ele>410</ele>
        <time>2022-10-19T12:46:59.587Z</time>
      </trkpt>
      <trkpt lat="43.52773" lon="5.64157">
        <ele>410</ele>
        <time>2022-10-19T12:47:00.587Z</time>
      </trkpt>
      <trkpt lat="43.52773" lon="5.64159">
        <ele>410</ele>
        <time>2022-10-19T12:47:01.587Z</time>
      </trkpt>
      <trkpt lat="43.52773" lon="5.64161">
        <ele>410</ele>
        <time>2022-10-19T12:47:02.587Z</time>
      </trkpt>
      <trkpt lat="43.52773" lon="5.64162">
        <ele>409</ele>
        <time>2022-10-19T12:47:03.587Z</time>
      </trkpt>
      <trkpt lat="43.52774" lon="5.64164">
        <ele>409</ele>
        <time>2022-10-19T12:47:04.587Z</time>
      </trkpt>
      <trkpt lat="43.52774" lon="5.64166">
        <ele>409</ele>
        <time>2022-10-19T12:47:05.587Z</time>
      </trkpt>
      <trkpt lat="43.52774" lon="5.64167">
        <ele>409</ele>
        <time>2022-10-19T12:47:06.587Z</time>
      </trkpt>
      <trkpt lat="43.52774" lon="5.64169">
        <ele>409</ele>
        <time>2022-10-19T12:47:07.587Z</time>
      </trkpt>
      <trkpt lat="43.52774" lon="5.6417">
        <ele>409</ele>
        <time>2022-10-19T12:47:08.587Z</time>
      </trkpt>
      <trkpt lat="43.52774" lon="5.64172">
        <ele>409</ele>
        <time>2022-10-19T12:47:09.587Z</time>
      </trkpt>
      <trkpt lat="43.52775" lon="5.64173">
        <ele>409</ele>
        <time>2022-10-19T12:47:10.587Z</time>
      </trkpt>
      <trkpt lat="43.52775" lon="5.64175">
        <ele>409</ele>
        <time>2022-10-19T12:47:11.587Z</time>
      </trkpt>
      <trkpt lat="43.52775" lon="5.64177">
        <ele>409</ele>
        <time>2022-10-19T12:47:12.587Z</time>
      </trkpt>
      <trkpt lat="43.52775" lon="5.64178">
        <ele>409</ele>
        <time>2022-10-19T12:47:13.587Z</time>
      </trkpt>
      <trkpt lat="43.52775" lon="5.6418">
        <ele>409</ele>
        <time>2022-10-19T12:47:14.587Z</time>
      </trkpt>
      <trkpt lat="43.52775" lon="5.64182">
        <ele>408</ele>
        <time>2022-10-19T12:47:15.587Z</time>
      </trkpt>
      <trkpt lat="43.52776" lon="5.64183">
        <ele>408</ele>
        <time>2022-10-19T12:47:16.587Z</time>
      </trkpt>
      <trkpt lat="43.52776" lon="5.64185">
        <ele>408</ele>
        <time>2022-10-19T12:47:17.587Z</time>
      </trkpt>
      <trkpt lat="43.52776" lon="5.64187">
        <ele>408</ele>
        <time>2022-10-19T12:47:18.587Z</time>
      </trkpt>
      <trkpt lat="43.52776" lon="5.64189">
        <ele>408</ele>
        <time>2022-10-19T12:47:19.587Z</time>
      </trkpt>
      <trkpt lat="43.52776" lon="5.6419">
        <ele>408</ele>
        <time>2022-10-19T12:47:20.587Z</time>
      </trkpt>
      <trkpt lat="43.52776" lon="5.64192">
        <ele>408</ele>
        <time>2022-10-19T12:47:21.587Z</time>
      </trkpt>
      <trkpt lat="43.52777" lon="5.64194">
        <ele>407</ele>
        <time>2022-10-19T12:47:22.587Z</time>
      </trkpt>
      <trkpt lat="43.52777" lon="5.64196">
        <ele>407</ele>
        <time>2022-10-19T12:47:23.587Z</time>
      </trkpt>
      <trkpt lat="43.52777" lon="5.64198">
        <ele>407</ele>
        <time>2022-10-19T12:47:24.587Z</time>
      </trkpt>
      <trkpt lat="43.52777" lon="5.64199">
        <ele>407</ele>
        <time>2022-10-19T12:47:25.587Z</time>
      </trkpt>
      <trkpt lat="43.52778" lon="5.64201">
        <ele>407</ele>
        <time>2022-10-19T12:47:26.587Z</time>
      </trkpt>
      <trkpt lat="43.52778" lon="5.64202">
        <ele>407</ele>
        <time>2022-10-19T12:47:27.587Z</time>
      </trkpt>
      <trkpt lat="43.52778" lon="5.64204">
        <ele>407</ele>
        <time>2022-10-19T12:47:28.587Z</time>
      </trkpt>
      <trkpt lat="43.52779" lon="5.64206">
        <ele>406</ele>
        <time>2022-10-19T12:47:29.587Z</time>
      </trkpt>
      <trkpt lat="43.52779" lon="5.64208">
        <ele>406</ele>
        <time>2022-10-19T12:47:30.587Z</time>
      </trkpt>
      <trkpt lat="43.5278" lon="5.64209">
        <ele>406</ele>
        <time>2022-10-19T12:47:31.587Z</time>
      </trkpt>
      <trkpt lat="43.52781" lon="5.64211">
        <ele>406</ele>
        <time>2022-10-19T12:47:32.587Z</time>
      </trkpt>
      <trkpt lat="43.52781" lon="5.64212">
        <ele>406</ele>
        <time>2022-10-19T12:47:33.587Z</time>
      </trkpt>
      <trkpt lat="43.52782" lon="5.64214">
        <ele>406</ele>
        <time>2022-10-19T12:47:34.587Z</time>
      </trkpt>
      <trkpt lat="43.52782" lon="5.64216">
        <ele>406</ele>
        <time>2022-10-19T12:47:35.587Z</time>
      </trkpt>
      <trkpt lat="43.52782" lon="5.64218">
        <ele>406</ele>
        <time>2022-10-19T12:47:36.587Z</time>
      </trkpt>
      <trkpt lat="43.52783" lon="5.6422">
        <ele>406</ele>
        <time>2022-10-19T12:47:37.587Z</time>
      </trkpt>
      <trkpt lat="43.52783" lon="5.64221">
        <ele>405</ele>
        <time>2022-10-19T12:47:38.587Z</time>
      </trkpt>
      <trkpt lat="43.52783" lon="5.64223">
        <ele>405</ele>
        <time>2022-10-19T12:47:39.587Z</time>
      </trkpt>
      <trkpt lat="43.52784" lon="5.64225">
        <ele>405</ele>
        <time>2022-10-19T12:47:40.587Z</time>
      </trkpt>
      <trkpt lat="43.52784" lon="5.64227">
        <ele>405</ele>
        <time>2022-10-19T12:47:41.587Z</time>
      </trkpt>
      <trkpt lat="43.52784" lon="5.64228">
        <ele>405</ele>
        <time>2022-10-19T12:47:42.587Z</time>
      </trkpt>
      <trkpt lat="43.52784" lon="5.6423">
        <ele>405</ele>
        <time>2022-10-19T12:47:43.587Z</time>
      </trkpt>
      <trkpt lat="43.52785" lon="5.64232">
        <ele>405</ele>
        <time>2022-10-19T12:47:44.587Z</time>
      </trkpt>
      <trkpt lat="43.52785" lon="5.64234">
        <ele>405</ele>
        <time>2022-10-19T12:47:45.587Z</time>
      </trkpt>
      <trkpt lat="43.52785" lon="5.64236">
        <ele>405</ele>
        <time>2022-10-19T12:47:46.587Z</time>
      </trkpt>
      <trkpt lat="43.52786" lon="5.64237">
        <ele>405</ele>
        <time>2022-10-19T12:47:47.587Z</time>
      </trkpt>
      <trkpt lat="43.52786" lon="5.64239">
        <ele>405</ele>
        <time>2022-10-19T12:47:48.587Z</time>
      </trkpt>
      <trkpt lat="43.52786" lon="5.64241">
        <ele>405</ele>
        <time>2022-10-19T12:47:49.587Z</time>
      </trkpt>
      <trkpt lat="43.52786" lon="5.64243">
        <ele>405</ele>
        <time>2022-10-19T12:47:50.587Z</time>
      </trkpt>
      <trkpt lat="43.52786" lon="5.64244">
        <ele>405</ele>
        <time>2022-10-19T12:47:51.587Z</time>
      </trkpt>
      <trkpt lat="43.52787" lon="5.64246">
        <ele>405</ele>
        <time>2022-10-19T12:47:52.587Z</time>
      </trkpt>
      <trkpt lat="43.52787" lon="5.64248">
        <ele>405</ele>
        <time>2022-10-19T12:47:53.587Z</time>
      </trkpt>
      <trkpt lat="43.52787" lon="5.6425">
        <ele>405</ele>
        <time>2022-10-19T12:47:54.587Z</time>
      </trkpt>
      <trkpt lat="43.52787" lon="5.64252">
        <ele>405</ele>
        <time>2022-10-19T12:47:55.587Z</time>
      </trkpt>
      <trkpt lat="43.52787" lon="5.64253">
        <ele>406</ele>
        <time>2022-10-19T12:47:56.587Z</time>
      </trkpt>
      <trkpt lat="43.52787" lon="5.64255">
        <ele>406</ele>
        <time>2022-10-19T12:47:57.587Z</time>
      </trkpt>
      <trkpt lat="43.52787" lon="5.64257">
        <ele>406</ele>
        <time>2022-10-19T12:47:58.587Z</time>
      </trkpt>
      <trkpt lat="43.52787" lon="5.64259">
        <ele>406</ele>
        <time>2022-10-19T12:47:59.587Z</time>
      </trkpt>
      <trkpt lat="43.52787" lon="5.6426">
        <ele>406</ele>
        <time>2022-10-19T12:48:00.587Z</time>
      </trkpt>
      <trkpt lat="43.52787" lon="5.64262">
        <ele>406</ele>
        <time>2022-10-19T12:48:01.587Z</time>
      </trkpt>
      <trkpt lat="43.52788" lon="5.64263">
        <ele>406</ele>
        <time>2022-10-19T12:48:02.587Z</time>
      </trkpt>
      <trkpt lat="43.52788" lon="5.64266">
        <ele>406</ele>
        <time>2022-10-19T12:48:03.587Z</time>
      </trkpt>
      <trkpt lat="43.52788" lon="5.64267">
        <ele>406</ele>
        <time>2022-10-19T12:48:04.587Z</time>
      </trkpt>
      <trkpt lat="43.52788" lon="5.64269">
        <ele>406</ele>
        <time>2022-10-19T12:48:05.587Z</time>
      </trkpt>
      <trkpt lat="43.52788" lon="5.64271">
        <ele>406</ele>
        <time>2022-10-19T12:48:06.587Z</time>
      </trkpt>
      <trkpt lat="43.52788" lon="5.64272">
        <ele>406</ele>
        <time>2022-10-19T12:48:07.587Z</time>
      </trkpt>
      <trkpt lat="43.52788" lon="5.64274">
        <ele>406</ele>
        <time>2022-10-19T12:48:08.587Z</time>
      </trkpt>
      <trkpt lat="43.52788" lon="5.64276">
        <ele>406</ele>
        <time>2022-10-19T12:48:09.587Z</time>
      </trkpt>
      <trkpt lat="43.52789" lon="5.64277">
        <ele>406</ele>
        <time>2022-10-19T12:48:10.587Z</time>
      </trkpt>
      <trkpt lat="43.52789" lon="5.64279">
        <ele>406</ele>
        <time>2022-10-19T12:48:11.587Z</time>
      </trkpt>
      <trkpt lat="43.52789" lon="5.64281">
        <ele>406</ele>
        <time>2022-10-19T12:48:12.587Z</time>
      </trkpt>
      <trkpt lat="43.5279" lon="5.64282">
        <ele>406</ele>
        <time>2022-10-19T12:48:13.587Z</time>
      </trkpt>
      <trkpt lat="43.5279" lon="5.64284">
        <ele>406</ele>
        <time>2022-10-19T12:48:14.587Z</time>
      </trkpt>
      <trkpt lat="43.5279" lon="5.64286">
        <ele>406</ele>
        <time>2022-10-19T12:48:15.587Z</time>
      </trkpt>
      <trkpt lat="43.52791" lon="5.64287">
        <ele>406</ele>
        <time>2022-10-19T12:48:16.587Z</time>
      </trkpt>
      <trkpt lat="43.52791" lon="5.64289">
        <ele>406</ele>
        <time>2022-10-19T12:48:17.587Z</time>
      </trkpt>
      <trkpt lat="43.52791" lon="5.64291">
        <ele>406</ele>
        <time>2022-10-19T12:48:18.587Z</time>
      </trkpt>
      <trkpt lat="43.52791" lon="5.64293">
        <ele>406</ele>
        <time>2022-10-19T12:48:19.587Z</time>
      </trkpt>
      <trkpt lat="43.52791" lon="5.64294">
        <ele>406</ele>
        <time>2022-10-19T12:48:20.587Z</time>
      </trkpt>
      <trkpt lat="43.52791" lon="5.64296">
        <ele>406</ele>
        <time>2022-10-19T12:48:21.587Z</time>
      </trkpt>
      <trkpt lat="43.52791" lon="5.64298">
        <ele>406</ele>
        <time>2022-10-19T12:48:22.587Z</time>
      </trkpt>
      <trkpt lat="43.52791" lon="5.64299">
        <ele>406</ele>
        <time>2022-10-19T12:48:23.587Z</time>
      </trkpt>
      <trkpt lat="43.52792" lon="5.64301">
        <ele>406</ele>
        <time>2022-10-19T12:48:24.587Z</time>
      </trkpt>
      <trkpt lat="43.52792" lon="5.64302">
        <ele>406</ele>
        <time>2022-10-19T12:48:25.587Z</time>
      </trkpt>
      <trkpt lat="43.52792" lon="5.64304">
        <ele>406</ele>
        <time>2022-10-19T12:48:26.587Z</time>
      </trkpt>
      <trkpt lat="43.52792" lon="5.64306">
        <ele>406</ele>
        <time>2022-10-19T12:48:27.587Z</time>
      </trkpt>
      <trkpt lat="43.52793" lon="5.64308">
        <ele>406</ele>
        <time>2022-10-19T12:48:28.587Z</time>
      </trkpt>
      <trkpt lat="43.52793" lon="5.64309">
        <ele>406</ele>
        <time>2022-10-19T12:48:29.587Z</time>
      </trkpt>
      <trkpt lat="43.52793" lon="5.6431">
        <ele>406</ele>
        <time>2022-10-19T12:48:30.587Z</time>
      </trkpt>
      <trkpt lat="43.52793" lon="5.64312">
        <ele>406</ele>
        <time>2022-10-19T12:48:31.587Z</time>
      </trkpt>
      <trkpt lat="43.52794" lon="5.64313">
        <ele>406</ele>
        <time>2022-10-19T12:48:32.587Z</time>
      </trkpt>
      <trkpt lat="43.52794" lon="5.64315">
        <ele>406</ele>
        <time>2022-10-19T12:48:33.587Z</time>
      </trkpt>
      <trkpt lat="43.52794" lon="5.64316">
        <ele>406</ele>
        <time>2022-10-19T12:48:34.587Z</time>
      </trkpt>
      <trkpt lat="43.52794" lon="5.64318">
        <ele>406</ele>
        <time>2022-10-19T12:48:35.587Z</time>
      </trkpt>
      <trkpt lat="43.52794" lon="5.6432">
        <ele>406</ele>
        <time>2022-10-19T12:48:36.587Z</time>
      </trkpt>
      <trkpt lat="43.52794" lon="5.64321">
        <ele>406</ele>
        <time>2022-10-19T12:48:37.587Z</time>
      </trkpt>
      <trkpt lat="43.52794" lon="5.64322">
        <ele>406</ele>
        <time>2022-10-19T12:48:38.587Z</time>
      </trkpt>
      <trkpt lat="43.52795" lon="5.64324">
        <ele>406</ele>
        <time>2022-10-19T12:48:39.587Z</time>
      </trkpt>
      <trkpt lat="43.52795" lon="5.64325">
        <ele>406</ele>
        <time>2022-10-19T12:48:40.587Z</time>
      </trkpt>
      <trkpt lat="43.52795" lon="5.64327">
        <ele>406</ele>
        <time>2022-10-19T12:48:41.587Z</time>
      </trkpt>
      <trkpt lat="43.52795" lon="5.64328">
        <ele>406</ele>
        <time>2022-10-19T12:48:42.587Z</time>
      </trkpt>
      <trkpt lat="43.52796" lon="5.64329">
        <ele>406</ele>
        <time>2022-10-19T12:48:43.587Z</time>
      </trkpt>
      <trkpt lat="43.52796" lon="5.6433">
        <ele>406</ele>
        <time>2022-10-19T12:48:44.587Z</time>
      </trkpt>
      <trkpt lat="43.52796" lon="5.64331">
        <ele>406</ele>
        <time>2022-10-19T12:48:45.587Z</time>
      </trkpt>
      <trkpt lat="43.52796" lon="5.64333">
        <ele>406</ele>
        <time>2022-10-19T12:48:46.587Z</time>
      </trkpt>
      <trkpt lat="43.52797" lon="5.64334">
        <ele>406</ele>
        <time>2022-10-19T12:48:47.587Z</time>
      </trkpt>
      <trkpt lat="43.52797" lon="5.64336">
        <ele>407</ele>
        <time>2022-10-19T12:48:48.587Z</time>
      </trkpt>
      <trkpt lat="43.52797" lon="5.64337">
        <ele>407</ele>
        <time>2022-10-19T12:48:49.587Z</time>
      </trkpt>
      <trkpt lat="43.52798" lon="5.64338">
        <ele>407</ele>
        <time>2022-10-19T12:48:50.587Z</time>
      </trkpt>
      <trkpt lat="43.52798" lon="5.64339">
        <ele>407</ele>
        <time>2022-10-19T12:48:51.587Z</time>
      </trkpt>
      <trkpt lat="43.52798" lon="5.6434">
        <ele>407</ele>
        <time>2022-10-19T12:48:52.587Z</time>
      </trkpt>
      <trkpt lat="43.52798" lon="5.64341">
        <ele>407</ele>
        <time>2022-10-19T12:48:53.587Z</time>
      </trkpt>
      <trkpt lat="43.52798" lon="5.64341">
        <ele>407</ele>
        <time>2022-10-19T12:48:54.587Z</time>
      </trkpt>
      <trkpt lat="43.52799" lon="5.64341">
        <ele>407</ele>
        <time>2022-10-19T12:48:55.587Z</time>
      </trkpt>
      <trkpt lat="43.52799" lon="5.64342">
        <ele>407</ele>
        <time>2022-10-19T12:48:56.587Z</time>
      </trkpt>
      <trkpt lat="43.52799" lon="5.64342">
        <ele>407</ele>
        <time>2022-10-19T12:48:57.587Z</time>
      </trkpt>
      <trkpt lat="43.52799" lon="5.64342">
        <ele>407</ele>
        <time>2022-10-19T12:48:58.587Z</time>
      </trkpt>
      <trkpt lat="43.52799" lon="5.64341">
        <ele>407</ele>
        <time>2022-10-19T12:48:59.587Z</time>
      </trkpt>
      <trkpt lat="43.52799" lon="5.64341">
        <ele>407</ele>
        <time>2022-10-19T12:49:00.587Z</time>
      </trkpt>
      <trkpt lat="43.52799" lon="5.64341">
        <ele>407</ele>
        <time>2022-10-19T12:49:01.587Z</time>
      </trkpt>
      <trkpt lat="43.52799" lon="5.64341">
        <ele>407</ele>
        <time>2022-10-19T12:49:02.587Z</time>
      </trkpt>
      <trkpt lat="43.52799" lon="5.64341">
        <ele>407</ele>
        <time>2022-10-19T12:49:03.587Z</time>
      </trkpt>
      <trkpt lat="43.52799" lon="5.64342">
        <ele>407</ele>
        <time>2022-10-19T12:49:04.587Z</time>
      </trkpt>
      <trkpt lat="43.52799" lon="5.64342">
        <ele>407</ele>
        <time>2022-10-19T12:49:05.587Z</time>
      </trkpt>
      <trkpt lat="43.52799" lon="5.64342">
        <ele>407</ele>
        <time>2022-10-19T12:49:06.587Z</time>
      </trkpt>
      <trkpt lat="43.52799" lon="5.64342">
        <ele>407</ele>
        <time>2022-10-19T12:49:07.587Z</time>
      </trkpt>
      <trkpt lat="43.52799" lon="5.64341">
        <ele>407</ele>
        <time>2022-10-19T12:49:08.587Z</time>
      </trkpt>
      <trkpt lat="43.52799" lon="5.64341">
        <ele>407</ele>
        <time>2022-10-19T12:49:09.587Z</time>
      </trkpt>
      <trkpt lat="43.52799" lon="5.64341">
        <ele>407</ele>
        <time>2022-10-19T12:49:10.587Z</time>
      </trkpt>
      <trkpt lat="43.52799" lon="5.64341">
        <ele>407</ele>
        <time>2022-10-19T12:49:11.587Z</time>
      </trkpt>
      <trkpt lat="43.52799" lon="5.64341">
        <ele>407</ele>
        <time>2022-10-19T12:49:12.587Z</time>
      </trkpt>
      <trkpt lat="43.52799" lon="5.64341">
        <ele>407</ele>
        <time>2022-10-19T12:49:13.587Z</time>
      </trkpt>
      <trkpt lat="43.52799" lon="5.64341">
        <ele>407</ele>
        <time>2022-10-19T12:49:14.587Z</time>
      </trkpt>
      <trkpt lat="43.52799" lon="5.64341">
        <ele>407</ele>
        <time>2022-10-19T12:49:15.587Z</time>
      </trkpt>
      <trkpt lat="43.52799" lon="5.64341">
        <ele>407</ele>
        <time>2022-10-19T12:49:16.587Z</time>
      </trkpt>
      <trkpt lat="43.52799" lon="5.64341">
        <ele>407</ele>
        <time>2022-10-19T12:49:17.587Z</time>
      </trkpt>
      <trkpt lat="43.52799" lon="5.64341">
        <ele>407</ele>
        <time>2022-10-19T12:49:18.587Z</time>
      </trkpt>
      <trkpt lat="43.528" lon="5.64341">
        <ele>407</ele>
        <time>2022-10-19T12:49:19.587Z</time>
      </trkpt>
      <trkpt lat="43.528" lon="5.64341">
        <ele>407</ele>
        <time>2022-10-19T12:49:20.587Z</time>
      </trkpt>
      <trkpt lat="43.52799" lon="5.64341">
        <ele>407</ele>
        <time>2022-10-19T12:49:21.587Z</time>
      </trkpt>
      <trkpt lat="43.52799" lon="5.64341">
        <ele>407</ele>
        <time>2022-10-19T12:49:22.587Z</time>
      </trkpt>
      <trkpt lat="43.528" lon="5.64341">
        <ele>407</ele>
        <time>2022-10-19T12:49:23.587Z</time>
      </trkpt>
      <trkpt lat="43.528" lon="5.64341">
        <ele>407</ele>
        <time>2022-10-19T12:49:24.587Z</time>
      </trkpt>
      <trkpt lat="43.528" lon="5.64341">
        <ele>407</ele>
        <time>2022-10-19T12:49:25.587Z</time>
      </trkpt>
      <trkpt lat="43.528" lon="5.64341">
        <ele>407</ele>
        <time>2022-10-19T12:49:26.587Z</time>
      </trkpt>
      <trkpt lat="43.528" lon="5.64341">
        <ele>407</ele>
        <time>2022-10-19T12:49:27.587Z</time>
      </trkpt>
      <trkpt lat="43.528" lon="5.64341">
        <ele>407</ele>
        <time>2022-10-19T12:49:28.587Z</time>
      </trkpt>
      <trkpt lat="43.528" lon="5.64341">
        <ele>407</ele>
        <time>2022-10-19T12:49:29.587Z</time>
      </trkpt>
      <trkpt lat="43.528" lon="5.64341">
        <ele>407</ele>
        <time>2022-10-19T12:49:30.587Z</time>
      </trkpt>
      <trkpt lat="43.528" lon="5.64341">
        <ele>407</ele>
        <time>2022-10-19T12:49:31.587Z</time>
      </trkpt>
      <trkpt lat="43.528" lon="5.64341">
        <ele>407</ele>
        <time>2022-10-19T12:49:32.587Z</time>
      </trkpt>
      <trkpt lat="43.528" lon="5.64341">
        <ele>407</ele>
        <time>2022-10-19T12:49:33.587Z</time>
      </trkpt>
      <trkpt lat="43.528" lon="5.64341">
        <ele>407</ele>
        <time>2022-10-19T12:49:34.587Z</time>
      </trkpt>
      <trkpt lat="43.528" lon="5.64341">
        <ele>407</ele>
        <time>2022-10-19T12:49:35.587Z</time>
      </trkpt>
      <trkpt lat="43.528" lon="5.64341">
        <ele>407</ele>
        <time>2022-10-19T12:49:36.587Z</time>
      </trkpt>
      <trkpt lat="43.528" lon="5.64341">
        <ele>407</ele>
        <time>2022-10-19T12:49:37.587Z</time>
      </trkpt>
      <trkpt lat="43.528" lon="5.64341">
        <ele>407</ele>
        <time>2022-10-19T12:49:38.587Z</time>
      </trkpt>
      <trkpt lat="43.528" lon="5.64341">
        <ele>407</ele>
        <time>2022-10-19T12:49:39.587Z</time>
      </trkpt>
      <trkpt lat="43.528" lon="5.64341">
        <ele>407</ele>
        <time>2022-10-19T12:49:40.587Z</time>
      </trkpt>
      <trkpt lat="43.528" lon="5.64341">
        <ele>407</ele>
        <time>2022-10-19T12:49:41.587Z</time>
      </trkpt>
      <trkpt lat="43.528" lon="5.64341">
        <ele>407</ele>
        <time>2022-10-19T12:49:42.587Z</time>
      </trkpt>
      <trkpt lat="43.528" lon="5.64341">
        <ele>407</ele>
        <time>2022-10-19T12:49:43.587Z</time>
      </trkpt>
      <trkpt lat="43.528" lon="5.64341">
        <ele>407</ele>
        <time>2022-10-19T12:49:44.587Z</time>
      </trkpt>
      <trkpt lat="43.528" lon="5.64341">
        <ele>407</ele>
        <time>2022-10-19T12:49:45.587Z</time>
      </trkpt>
      <trkpt lat="43.52801" lon="5.64342">
        <ele>407</ele>
        <time>2022-10-19T12:49:46.587Z</time>
      </trkpt>
      <trkpt lat="43.52801" lon="5.64342">
        <ele>407</ele>
        <time>2022-10-19T12:49:47.587Z</time>
      </trkpt>
      <trkpt lat="43.52801" lon="5.64342">
        <ele>408</ele>
        <time>2022-10-19T12:49:48.587Z</time>
      </trkpt>
      <trkpt lat="43.528" lon="5.64342">
        <ele>408</ele>
        <time>2022-10-19T12:49:49.587Z</time>
      </trkpt>
      <trkpt lat="43.528" lon="5.64342">
        <ele>408</ele>
        <time>2022-10-19T12:49:50.587Z</time>
      </trkpt>
      <trkpt lat="43.528" lon="5.64342">
        <ele>408</ele>
        <time>2022-10-19T12:49:51.587Z</time>
      </trkpt>
      <trkpt lat="43.528" lon="5.64342">
        <ele>408</ele>
        <time>2022-10-19T12:49:52.587Z</time>
      </trkpt>
      <trkpt lat="43.528" lon="5.64342">
        <ele>408</ele>
        <time>2022-10-19T12:49:53.587Z</time>
      </trkpt>
      <trkpt lat="43.528" lon="5.64342">
        <ele>408</ele>
        <time>2022-10-19T12:49:54.587Z</time>
      </trkpt>
      <trkpt lat="43.528" lon="5.64342">
        <ele>408</ele>
        <time>2022-10-19T12:49:55.587Z</time>
      </trkpt>
      <trkpt lat="43.528" lon="5.64342">
        <ele>408</ele>
        <time>2022-10-19T12:49:56.587Z</time>
      </trkpt>
      <trkpt lat="43.528" lon="5.64342">
        <ele>408</ele>
        <time>2022-10-19T12:49:57.587Z</time>
      </trkpt>
      <trkpt lat="43.528" lon="5.64342">
        <ele>408</ele>
        <time>2022-10-19T12:49:58.587Z</time>
      </trkpt>
      <trkpt lat="43.528" lon="5.64342">
        <ele>408</ele>
        <time>2022-10-19T12:49:59.587Z</time>
      </trkpt>
      <trkpt lat="43.528" lon="5.64342">
        <ele>408</ele>
        <time>2022-10-19T12:50:00.587Z</time>
      </trkpt>
      <trkpt lat="43.528" lon="5.64342">
        <ele>408</ele>
        <time>2022-10-19T12:50:01.587Z</time>
      </trkpt>
      <trkpt lat="43.528" lon="5.64342">
        <ele>408</ele>
        <time>2022-10-19T12:50:02.587Z</time>
      </trkpt>
      <trkpt lat="43.528" lon="5.64342">
        <ele>408</ele>
        <time>2022-10-19T12:50:03.587Z</time>
      </trkpt>
      <trkpt lat="43.528" lon="5.64342">
        <ele>408</ele>
        <time>2022-10-19T12:50:04.587Z</time>
      </trkpt>
      <trkpt lat="43.528" lon="5.64342">
        <ele>408</ele>
        <time>2022-10-19T12:50:05.587Z</time>
      </trkpt>
      <trkpt lat="43.528" lon="5.64342">
        <ele>408</ele>
        <time>2022-10-19T12:50:06.587Z</time>
      </trkpt>
      <trkpt lat="43.528" lon="5.64342">
        <ele>408</ele>
        <time>2022-10-19T12:50:07.587Z</time>
      </trkpt>
      <trkpt lat="43.528" lon="5.64342">
        <ele>408</ele>
        <time>2022-10-19T12:50:08.587Z</time>
      </trkpt>
      <trkpt lat="43.528" lon="5.64342">
        <ele>408</ele>
        <time>2022-10-19T12:50:09.587Z</time>
      </trkpt>
      <trkpt lat="43.528" lon="5.64342">
        <ele>408</ele>
        <time>2022-10-19T12:50:10.587Z</time>
      </trkpt>
      <trkpt lat="43.528" lon="5.64341">
        <ele>408</ele>
        <time>2022-10-19T12:50:11.587Z</time>
      </trkpt>
      <trkpt lat="43.528" lon="5.64341">
        <ele>409</ele>
        <time>2022-10-19T12:50:12.587Z</time>
      </trkpt>
      <trkpt lat="43.528" lon="5.64341">
        <ele>409</ele>
        <time>2022-10-19T12:50:13.587Z</time>
      </trkpt>
      <trkpt lat="43.528" lon="5.64341">
        <ele>409</ele>
        <time>2022-10-19T12:50:14.587Z</time>
      </trkpt>
      <trkpt lat="43.528" lon="5.64341">
        <ele>409</ele>
        <time>2022-10-19T12:50:15.587Z</time>
      </trkpt>
      <trkpt lat="43.528" lon="5.64341">
        <ele>409</ele>
        <time>2022-10-19T12:50:16.587Z</time>
      </trkpt>
      <trkpt lat="43.528" lon="5.64341">
        <ele>409</ele>
        <time>2022-10-19T12:50:17.587Z</time>
      </trkpt>
      <trkpt lat="43.52799" lon="5.64341">
        <ele>409</ele>
        <time>2022-10-19T12:50:18.587Z</time>
      </trkpt>
      <trkpt lat="43.52799" lon="5.64341">
        <ele>410</ele>
        <time>2022-10-19T12:50:19.587Z</time>
      </trkpt>
      <trkpt lat="43.52799" lon="5.64341">
        <ele>410</ele>
        <time>2022-10-19T12:50:20.587Z</time>
      </trkpt>
      <trkpt lat="43.52799" lon="5.64341">
        <ele>410</ele>
        <time>2022-10-19T12:50:21.587Z</time>
      </trkpt>
      <trkpt lat="43.52799" lon="5.64341">
        <ele>410</ele>
        <time>2022-10-19T12:50:22.587Z</time>
      </trkpt>
      <trkpt lat="43.52799" lon="5.64341">
        <ele>410</ele>
        <time>2022-10-19T12:50:23.587Z</time>
      </trkpt>
      <trkpt lat="43.52799" lon="5.64341">
        <ele>410</ele>
        <time>2022-10-19T12:50:24.587Z</time>
      </trkpt>
      <trkpt lat="43.52799" lon="5.64341">
        <ele>410</ele>
        <time>2022-10-19T12:50:25.587Z</time>
      </trkpt>
      <trkpt lat="43.52799" lon="5.6434">
        <ele>410</ele>
        <time>2022-10-19T12:50:26.587Z</time>
      </trkpt>
      <trkpt lat="43.52799" lon="5.6434">
        <ele>410</ele>
        <time>2022-10-19T12:50:27.587Z</time>
      </trkpt>
      <trkpt lat="43.52799" lon="5.6434">
        <ele>410</ele>
        <time>2022-10-19T12:50:28.587Z</time>
      </trkpt>
      <trkpt lat="43.52799" lon="5.64341">
        <ele>410</ele>
        <time>2022-10-19T12:50:29.587Z</time>
      </trkpt>
      <trkpt lat="43.52799" lon="5.64341">
        <ele>410</ele>
        <time>2022-10-19T12:50:30.587Z</time>
      </trkpt>
      <trkpt lat="43.52799" lon="5.64341">
        <ele>410</ele>
        <time>2022-10-19T12:50:31.587Z</time>
      </trkpt>
      <trkpt lat="43.52799" lon="5.6434">
        <ele>410</ele>
        <time>2022-10-19T12:50:32.587Z</time>
      </trkpt>
      <trkpt lat="43.52799" lon="5.6434">
        <ele>411</ele>
        <time>2022-10-19T12:50:33.587Z</time>
      </trkpt>
      <trkpt lat="43.52799" lon="5.6434">
        <ele>411</ele>
        <time>2022-10-19T12:50:34.587Z</time>
      </trkpt>
      <trkpt lat="43.52799" lon="5.6434">
        <ele>411</ele>
        <time>2022-10-19T12:50:35.587Z</time>
      </trkpt>
      <trkpt lat="43.52799" lon="5.6434">
        <ele>411</ele>
        <time>2022-10-19T12:50:36.587Z</time>
      </trkpt>
      <trkpt lat="43.52799" lon="5.6434">
        <ele>411</ele>
        <time>2022-10-19T12:50:37.587Z</time>
      </trkpt>
      <trkpt lat="43.52799" lon="5.6434">
        <ele>411</ele>
        <time>2022-10-19T12:50:38.587Z</time>
      </trkpt>
      <trkpt lat="43.52799" lon="5.6434">
        <ele>411</ele>
        <time>2022-10-19T12:50:39.587Z</time>
      </trkpt>
      <trkpt lat="43.52799" lon="5.64339">
        <ele>411</ele>
        <time>2022-10-19T12:50:40.587Z</time>
      </trkpt>
      <trkpt lat="43.52799" lon="5.64339">
        <ele>411</ele>
        <time>2022-10-19T12:50:41.587Z</time>
      </trkpt>
      <trkpt lat="43.52799" lon="5.64339">
        <ele>411</ele>
        <time>2022-10-19T12:50:42.587Z</time>
      </trkpt>
      <trkpt lat="43.52799" lon="5.64339">
        <ele>411</ele>
        <time>2022-10-19T12:50:43.587Z</time>
      </trkpt>
      <trkpt lat="43.52799" lon="5.6434">
        <ele>411</ele>
        <time>2022-10-19T12:50:44.587Z</time>
      </trkpt>
      <trkpt lat="43.52799" lon="5.64339">
        <ele>411</ele>
        <time>2022-10-19T12:50:45.587Z</time>
      </trkpt>
      <trkpt lat="43.52799" lon="5.64339">
        <ele>411</ele>
        <time>2022-10-19T12:50:46.587Z</time>
      </trkpt>
      <trkpt lat="43.52799" lon="5.64339">
        <ele>411</ele>
        <time>2022-10-19T12:50:47.587Z</time>
      </trkpt>
      <trkpt lat="43.52799" lon="5.64339">
        <ele>411</ele>
        <time>2022-10-19T12:50:48.587Z</time>
      </trkpt>
      <trkpt lat="43.52799" lon="5.64339">
        <ele>412</ele>
        <time>2022-10-19T12:50:49.587Z</time>
      </trkpt>
      <trkpt lat="43.52799" lon="5.6434">
        <ele>412</ele>
        <time>2022-10-19T12:50:50.587Z</time>
      </trkpt>
      <trkpt lat="43.52799" lon="5.6434">
        <ele>412</ele>
        <time>2022-10-19T12:50:51.587Z</time>
      </trkpt>
      <trkpt lat="43.52799" lon="5.6434">
        <ele>412</ele>
        <time>2022-10-19T12:50:52.587Z</time>
      </trkpt>
      <trkpt lat="43.52799" lon="5.6434">
        <ele>412</ele>
        <time>2022-10-19T12:50:53.587Z</time>
      </trkpt>
      <trkpt lat="43.528" lon="5.6434">
        <ele>412</ele>
        <time>2022-10-19T12:50:54.587Z</time>
      </trkpt>
      <trkpt lat="43.528" lon="5.6434">
        <ele>412</ele>
        <time>2022-10-19T12:50:55.587Z</time>
      </trkpt>
      <trkpt lat="43.528" lon="5.6434">
        <ele>412</ele>
        <time>2022-10-19T12:50:56.587Z</time>
      </trkpt>
      <trkpt lat="43.528" lon="5.6434">
        <ele>412</ele>
        <time>2022-10-19T12:50:57.587Z</time>
      </trkpt>
      <trkpt lat="43.528" lon="5.6434">
        <ele>412</ele>
        <time>2022-10-19T12:50:58.587Z</time>
      </trkpt>
      <trkpt lat="43.528" lon="5.6434">
        <ele>412</ele>
        <time>2022-10-19T12:50:59.587Z</time>
      </trkpt>
      <trkpt lat="43.528" lon="5.6434">
        <ele>412</ele>
        <time>2022-10-19T12:51:00.587Z</time>
      </trkpt>
      <trkpt lat="43.528" lon="5.6434">
        <ele>412</ele>
        <time>2022-10-19T12:51:01.587Z</time>
      </trkpt>
      <trkpt lat="43.528" lon="5.6434">
        <ele>412</ele>
        <time>2022-10-19T12:51:02.587Z</time>
      </trkpt>
      <trkpt lat="43.528" lon="5.6434">
        <ele>412</ele>
        <time>2022-10-19T12:51:03.587Z</time>
      </trkpt>
      <trkpt lat="43.528" lon="5.6434">
        <ele>412</ele>
        <time>2022-10-19T12:51:04.587Z</time>
      </trkpt>
      <trkpt lat="43.528" lon="5.6434">
        <ele>412</ele>
        <time>2022-10-19T12:51:05.587Z</time>
      </trkpt>
      <trkpt lat="43.528" lon="5.6434">
        <ele>412</ele>
        <time>2022-10-19T12:51:06.587Z</time>
      </trkpt>
      <trkpt lat="43.528" lon="5.64339">
        <ele>412</ele>
        <time>2022-10-19T12:51:07.587Z</time>
      </trkpt>
      <trkpt lat="43.528" lon="5.64339">
        <ele>412</ele>
        <time>2022-10-19T12:51:08.587Z</time>
      </trkpt>
      <trkpt lat="43.528" lon="5.64339">
        <ele>412</ele>
        <time>2022-10-19T12:51:09.587Z</time>
      </trkpt>
      <trkpt lat="43.528" lon="5.64339">
        <ele>412</ele>
        <time>2022-10-19T12:51:10.587Z</time>
      </trkpt>
      <trkpt lat="43.528" lon="5.64339">
        <ele>412</ele>
        <time>2022-10-19T12:51:11.587Z</time>
      </trkpt>
      <trkpt lat="43.528" lon="5.64339">
        <ele>412</ele>
        <time>2022-10-19T12:51:12.587Z</time>
      </trkpt>
      <trkpt lat="43.528" lon="5.64339">
        <ele>412</ele>
        <time>2022-10-19T12:51:13.587Z</time>
      </trkpt>
      <trkpt lat="43.528" lon="5.64339">
        <ele>412</ele>
        <time>2022-10-19T12:51:14.587Z</time>
      </trkpt>
      <trkpt lat="43.528" lon="5.64339">
        <ele>412</ele>
        <time>2022-10-19T12:51:15.587Z</time>
      </trkpt>
      <trkpt lat="43.528" lon="5.64339">
        <ele>412</ele>
        <time>2022-10-19T12:51:16.587Z</time>
      </trkpt>
      <trkpt lat="43.528" lon="5.64339">
        <ele>412</ele>
        <time>2022-10-19T12:51:17.587Z</time>
      </trkpt>
      <trkpt lat="43.528" lon="5.64339">
        <ele>412</ele>
        <time>2022-10-19T12:51:18.587Z</time>
      </trkpt>
      <trkpt lat="43.528" lon="5.64339">
        <ele>412</ele>
        <time>2022-10-19T12:51:19.587Z</time>
      </trkpt>
      <trkpt lat="43.528" lon="5.64339">
        <ele>412</ele>
        <time>2022-10-19T12:51:20.587Z</time>
      </trkpt>
      <trkpt lat="43.528" lon="5.64339">
        <ele>412</ele>
        <time>2022-10-19T12:51:21.587Z</time>
      </trkpt>
      <trkpt lat="43.528" lon="5.64339">
        <ele>412</ele>
        <time>2022-10-19T12:51:22.587Z</time>
      </trkpt>
      <trkpt lat="43.528" lon="5.64339">
        <ele>412</ele>
        <time>2022-10-19T12:51:23.587Z</time>
      </trkpt>
      <trkpt lat="43.528" lon="5.64339">
        <ele>412</ele>
        <time>2022-10-19T12:51:24.587Z</time>
      </trkpt>
      <trkpt lat="43.528" lon="5.64339">
        <ele>412</ele>
        <time>2022-10-19T12:51:25.587Z</time>
      </trkpt>
      <trkpt lat="43.528" lon="5.64339">
        <ele>412</ele>
        <time>2022-10-19T12:51:26.587Z</time>
      </trkpt>
      <trkpt lat="43.52799" lon="5.64339">
        <ele>412</ele>
        <time>2022-10-19T12:51:27.587Z</time>
      </trkpt>
      <trkpt lat="43.52799" lon="5.6434">
        <ele>412</ele>
        <time>2022-10-19T12:51:28.587Z</time>
      </trkpt>
      <trkpt lat="43.52799" lon="5.6434">
        <ele>412</ele>
        <time>2022-10-19T12:51:29.587Z</time>
      </trkpt>
      <trkpt lat="43.52799" lon="5.64339">
        <ele>412</ele>
        <time>2022-10-19T12:51:30.587Z</time>
      </trkpt>
      <trkpt lat="43.52799" lon="5.6434">
        <ele>412</ele>
        <time>2022-10-19T12:51:31.587Z</time>
      </trkpt>
      <trkpt lat="43.52799" lon="5.6434">
        <ele>412</ele>
        <time>2022-10-19T12:51:32.587Z</time>
      </trkpt>
      <trkpt lat="43.52799" lon="5.6434">
        <ele>412</ele>
        <time>2022-10-19T12:51:33.587Z</time>
      </trkpt>
      <trkpt lat="43.52799" lon="5.6434">
        <ele>412</ele>
        <time>2022-10-19T12:51:34.587Z</time>
      </trkpt>
      <trkpt lat="43.52799" lon="5.6434">
        <ele>412</ele>
        <time>2022-10-19T12:51:35.587Z</time>
      </trkpt>
      <trkpt lat="43.52799" lon="5.6434">
        <ele>412</ele>
        <time>2022-10-19T12:51:36.587Z</time>
      </trkpt>
      <trkpt lat="43.52799" lon="5.64341">
        <ele>412</ele>
        <time>2022-10-19T12:51:37.587Z</time>
      </trkpt>
      <trkpt lat="43.52799" lon="5.64341">
        <ele>412</ele>
        <time>2022-10-19T12:51:38.587Z</time>
      </trkpt>
      <trkpt lat="43.52798" lon="5.6434">
        <ele>412</ele>
        <time>2022-10-19T12:51:39.587Z</time>
      </trkpt>
      <trkpt lat="43.52798" lon="5.64341">
        <ele>412</ele>
        <time>2022-10-19T12:51:40.587Z</time>
      </trkpt>
      <trkpt lat="43.52798" lon="5.64341">
        <ele>412</ele>
        <time>2022-10-19T12:51:41.587Z</time>
      </trkpt>
      <trkpt lat="43.52798" lon="5.64341">
        <ele>412</ele>
        <time>2022-10-19T12:51:42.587Z</time>
      </trkpt>
      <trkpt lat="43.52799" lon="5.64341">
        <ele>412</ele>
        <time>2022-10-19T12:51:43.587Z</time>
      </trkpt>
      <trkpt lat="43.52799" lon="5.64341">
        <ele>412</ele>
        <time>2022-10-19T12:51:44.587Z</time>
      </trkpt>
      <trkpt lat="43.52798" lon="5.64341">
        <ele>412</ele>
        <time>2022-10-19T12:51:45.587Z</time>
      </trkpt>
      <trkpt lat="43.52798" lon="5.64341">
        <ele>412</ele>
        <time>2022-10-19T12:51:46.587Z</time>
      </trkpt>
      <trkpt lat="43.52798" lon="5.6434">
        <ele>412</ele>
        <time>2022-10-19T12:51:47.587Z</time>
      </trkpt>
      <trkpt lat="43.52798" lon="5.64339">
        <ele>412</ele>
        <time>2022-10-19T12:51:48.587Z</time>
      </trkpt>
      <trkpt lat="43.52799" lon="5.64339">
        <ele>412</ele>
        <time>2022-10-19T12:51:49.587Z</time>
      </trkpt>
      <trkpt lat="43.52799" lon="5.64339">
        <ele>412</ele>
        <time>2022-10-19T12:51:50.587Z</time>
      </trkpt>
      <trkpt lat="43.52799" lon="5.64339">
        <ele>412</ele>
        <time>2022-10-19T12:51:51.587Z</time>
      </trkpt>
      <trkpt lat="43.52799" lon="5.64339">
        <ele>412</ele>
        <time>2022-10-19T12:51:52.587Z</time>
      </trkpt>
      <trkpt lat="43.52799" lon="5.64339">
        <ele>411</ele>
        <time>2022-10-19T12:51:53.587Z</time>
      </trkpt>
      <trkpt lat="43.52799" lon="5.64339">
        <ele>411</ele>
        <time>2022-10-19T12:51:54.587Z</time>
      </trkpt>
      <trkpt lat="43.528" lon="5.64339">
        <ele>411</ele>
        <time>2022-10-19T12:51:55.587Z</time>
      </trkpt>
      <trkpt lat="43.528" lon="5.64339">
        <ele>411</ele>
        <time>2022-10-19T12:51:56.587Z</time>
      </trkpt>
      <trkpt lat="43.528" lon="5.6434">
        <ele>411</ele>
        <time>2022-10-19T12:51:57.587Z</time>
      </trkpt>
      <trkpt lat="43.528" lon="5.6434">
        <ele>411</ele>
        <time>2022-10-19T12:51:58.587Z</time>
      </trkpt>
      <trkpt lat="43.528" lon="5.6434">
        <ele>411</ele>
        <time>2022-10-19T12:51:59.587Z</time>
      </trkpt>
      <trkpt lat="43.528" lon="5.6434">
        <ele>411</ele>
        <time>2022-10-19T12:52:00.587Z</time>
      </trkpt>
      <trkpt lat="43.528" lon="5.6434">
        <ele>411</ele>
        <time>2022-10-19T12:52:01.587Z</time>
      </trkpt>
      <trkpt lat="43.528" lon="5.6434">
        <ele>411</ele>
        <time>2022-10-19T12:52:02.587Z</time>
      </trkpt>
      <trkpt lat="43.528" lon="5.6434">
        <ele>411</ele>
        <time>2022-10-19T12:52:03.587Z</time>
      </trkpt>
      <trkpt lat="43.52799" lon="5.64339">
        <ele>410</ele>
        <time>2022-10-19T12:52:04.587Z</time>
      </trkpt>
      <trkpt lat="43.52798" lon="5.6434">
        <ele>410</ele>
        <time>2022-10-19T12:52:05.587Z</time>
      </trkpt>
      <trkpt lat="43.52798" lon="5.6434">
        <ele>410</ele>
        <time>2022-10-19T12:52:06.587Z</time>
      </trkpt>
      <trkpt lat="43.52798" lon="5.64341">
        <ele>410</ele>
        <time>2022-10-19T12:52:07.587Z</time>
      </trkpt>
      <trkpt lat="43.52798" lon="5.64342">
        <ele>410</ele>
        <time>2022-10-19T12:52:08.587Z</time>
      </trkpt>
      <trkpt lat="43.52799" lon="5.64342">
        <ele>410</ele>
        <time>2022-10-19T12:52:09.587Z</time>
      </trkpt>
      <trkpt lat="43.52799" lon="5.64343">
        <ele>410</ele>
        <time>2022-10-19T12:52:10.587Z</time>
      </trkpt>
      <trkpt lat="43.52799" lon="5.64343">
        <ele>410</ele>
        <time>2022-10-19T12:52:11.587Z</time>
      </trkpt>
      <trkpt lat="43.52799" lon="5.64343">
        <ele>410</ele>
        <time>2022-10-19T12:52:12.587Z</time>
      </trkpt>
      <trkpt lat="43.528" lon="5.64342">
        <ele>410</ele>
        <time>2022-10-19T12:52:13.587Z</time>
      </trkpt>
      <trkpt lat="43.52799" lon="5.64342">
        <ele>410</ele>
        <time>2022-10-19T12:52:14.587Z</time>
      </trkpt>
      <trkpt lat="43.52799" lon="5.64342">
        <ele>410</ele>
        <time>2022-10-19T12:52:15.587Z</time>
      </trkpt>
      <trkpt lat="43.52798" lon="5.64342">
        <ele>410</ele>
        <time>2022-10-19T12:52:16.587Z</time>
      </trkpt>
      <trkpt lat="43.52797" lon="5.6434">
        <ele>410</ele>
        <time>2022-10-19T12:52:17.587Z</time>
      </trkpt>
      <trkpt lat="43.52798" lon="5.64339">
        <ele>410</ele>
        <time>2022-10-19T12:52:18.587Z</time>
      </trkpt>
      <trkpt lat="43.52799" lon="5.64338">
        <ele>410</ele>
        <time>2022-10-19T12:52:19.587Z</time>
      </trkpt>
      <trkpt lat="43.52799" lon="5.64338">
        <ele>410</ele>
        <time>2022-10-19T12:52:20.587Z</time>
      </trkpt>
      <trkpt lat="43.528" lon="5.64338">
        <ele>410</ele>
        <time>2022-10-19T12:52:21.587Z</time>
      </trkpt>
      <trkpt lat="43.528" lon="5.64338">
        <ele>410</ele>
        <time>2022-10-19T12:52:22.587Z</time>
      </trkpt>
      <trkpt lat="43.528" lon="5.64338">
        <ele>410</ele>
        <time>2022-10-19T12:52:23.587Z</time>
      </trkpt>
      <trkpt lat="43.528" lon="5.64338">
        <ele>410</ele>
        <time>2022-10-19T12:52:24.587Z</time>
      </trkpt>
      <trkpt lat="43.528" lon="5.64339">
        <ele>410</ele>
        <time>2022-10-19T12:52:25.587Z</time>
      </trkpt>
      <trkpt lat="43.528" lon="5.64339">
        <ele>410</ele>
        <time>2022-10-19T12:52:26.587Z</time>
      </trkpt>
      <trkpt lat="43.528" lon="5.64339">
        <ele>410</ele>
        <time>2022-10-19T12:52:27.587Z</time>
      </trkpt>
      <trkpt lat="43.528" lon="5.64339">
        <ele>410</ele>
        <time>2022-10-19T12:52:28.587Z</time>
      </trkpt>
      <trkpt lat="43.528" lon="5.64339">
        <ele>410</ele>
        <time>2022-10-19T12:52:29.587Z</time>
      </trkpt>
      <trkpt lat="43.528" lon="5.64339">
        <ele>410</ele>
        <time>2022-10-19T12:52:30.587Z</time>
      </trkpt>
      <trkpt lat="43.528" lon="5.64339">
        <ele>410</ele>
        <time>2022-10-19T12:52:31.587Z</time>
      </trkpt>
      <trkpt lat="43.528" lon="5.64339">
        <ele>409</ele>
        <time>2022-10-19T12:52:32.587Z</time>
      </trkpt>
      <trkpt lat="43.528" lon="5.64339">
        <ele>409</ele>
        <time>2022-10-19T12:52:33.587Z</time>
      </trkpt>
      <trkpt lat="43.528" lon="5.64339">
        <ele>409</ele>
        <time>2022-10-19T12:52:34.587Z</time>
      </trkpt>
      <trkpt lat="43.528" lon="5.64339">
        <ele>409</ele>
        <time>2022-10-19T12:52:35.587Z</time>
      </trkpt>
      <trkpt lat="43.528" lon="5.64339">
        <ele>409</ele>
        <time>2022-10-19T12:52:36.587Z</time>
      </trkpt>
      <trkpt lat="43.52799" lon="5.64339">
        <ele>409</ele>
        <time>2022-10-19T12:52:37.587Z</time>
      </trkpt>
      <trkpt lat="43.52798" lon="5.64339">
        <ele>409</ele>
        <time>2022-10-19T12:52:38.587Z</time>
      </trkpt>
      <trkpt lat="43.52798" lon="5.64339">
        <ele>409</ele>
        <time>2022-10-19T12:52:39.587Z</time>
      </trkpt>
      <trkpt lat="43.52798" lon="5.6434">
        <ele>409</ele>
        <time>2022-10-19T12:52:40.587Z</time>
      </trkpt>
      <trkpt lat="43.52798" lon="5.6434">
        <ele>409</ele>
        <time>2022-10-19T12:52:41.587Z</time>
      </trkpt>
      <trkpt lat="43.52799" lon="5.64341">
        <ele>409</ele>
        <time>2022-10-19T12:52:42.587Z</time>
      </trkpt>
      <trkpt lat="43.52799" lon="5.64341">
        <ele>409</ele>
        <time>2022-10-19T12:52:43.587Z</time>
      </trkpt>
      <trkpt lat="43.52799" lon="5.64341">
        <ele>409</ele>
        <time>2022-10-19T12:52:44.587Z</time>
      </trkpt>
      <trkpt lat="43.52799" lon="5.64341">
        <ele>409</ele>
        <time>2022-10-19T12:52:45.587Z</time>
      </trkpt>
      <trkpt lat="43.52799" lon="5.64341">
        <ele>409</ele>
        <time>2022-10-19T12:52:46.587Z</time>
      </trkpt>
      <trkpt lat="43.52799" lon="5.64341">
        <ele>409</ele>
        <time>2022-10-19T12:52:47.587Z</time>
      </trkpt>
      <trkpt lat="43.528" lon="5.64342">
        <ele>409</ele>
        <time>2022-10-19T12:52:48.587Z</time>
      </trkpt>
      <trkpt lat="43.528" lon="5.64342">
        <ele>409</ele>
        <time>2022-10-19T12:52:49.587Z</time>
      </trkpt>
      <trkpt lat="43.528" lon="5.64342">
        <ele>409</ele>
        <time>2022-10-19T12:52:50.587Z</time>
      </trkpt>
      <trkpt lat="43.52799" lon="5.64342">
        <ele>409</ele>
        <time>2022-10-19T12:52:51.587Z</time>
      </trkpt>
      <trkpt lat="43.52799" lon="5.64342">
        <ele>409</ele>
        <time>2022-10-19T12:52:52.587Z</time>
      </trkpt>
      <trkpt lat="43.52799" lon="5.64342">
        <ele>409</ele>
        <time>2022-10-19T12:52:53.587Z</time>
      </trkpt>
      <trkpt lat="43.52798" lon="5.64342">
        <ele>409</ele>
        <time>2022-10-19T12:52:54.587Z</time>
      </trkpt>
    </trkseg>
  </trk>
</gpx>